<?xml version="1.0" encoding="UTF-8" standalone="no" ?>
<gpx xmlns="http://www.topografix.com/GPX/1/1" xmlns:xsi="http://www.w3.org/2001/XMLSchema-instance" xsi:schemaLocation="http://www.topografix.com/GPX/1/1 http://www.topografix.com/GPX/1/1/gpx.xsd" version="1.1" creator="VisuGPX - https://www.visugpx.com">
  <metadata>
    <name>1er jour Briis - St leger 2010</name>
  </metadata>
  <trk>
    <name><![CDATA[001-2010/05/13-09:09:44]]></name>
    <trkseg>
      <trkpt lat="48.61366" lon="2.09176">
        <ele>141</ele>
        <time>2010-05-13T07:09:44Z</time>
      </trkpt>
      <trkpt lat="48.6136" lon="2.09132">
        <ele>138</ele>
        <time>2010-05-13T07:10:03Z</time>
      </trkpt>
      <trkpt lat="48.61361" lon="2.09129">
        <ele>138</ele>
        <time>2010-05-13T07:10:04Z</time>
      </trkpt>
      <trkpt lat="48.61361" lon="2.09126">
        <ele>138</ele>
        <time>2010-05-13T07:10:05Z</time>
      </trkpt>
      <trkpt lat="48.61361" lon="2.09123">
        <ele>138</ele>
        <time>2010-05-13T07:10:06Z</time>
      </trkpt>
      <trkpt lat="48.61359" lon="2.09121">
        <ele>138</ele>
        <time>2010-05-13T07:10:07Z</time>
      </trkpt>
      <trkpt lat="48.61359" lon="2.09119">
        <ele>138</ele>
        <time>2010-05-13T07:10:08Z</time>
      </trkpt>
      <trkpt lat="48.61359" lon="2.09116">
        <ele>138</ele>
        <time>2010-05-13T07:10:09Z</time>
      </trkpt>
      <trkpt lat="48.61361" lon="2.09115">
        <ele>137</ele>
        <time>2010-05-13T07:10:10Z</time>
      </trkpt>
      <trkpt lat="48.6136" lon="2.09113">
        <ele>135</ele>
        <time>2010-05-13T07:10:12Z</time>
      </trkpt>
      <trkpt lat="48.61361" lon="2.09111">
        <ele>135</ele>
        <time>2010-05-13T07:10:13Z</time>
      </trkpt>
      <trkpt lat="48.6136" lon="2.09109">
        <ele>135</ele>
        <time>2010-05-13T07:10:14Z</time>
      </trkpt>
      <trkpt lat="48.6136" lon="2.09106">
        <ele>135</ele>
        <time>2010-05-13T07:10:15Z</time>
      </trkpt>
      <trkpt lat="48.6136" lon="2.09104">
        <ele>135</ele>
        <time>2010-05-13T07:10:16Z</time>
      </trkpt>
      <trkpt lat="48.61359" lon="2.09102">
        <ele>135</ele>
        <time>2010-05-13T07:10:17Z</time>
      </trkpt>
      <trkpt lat="48.61359" lon="2.091">
        <ele>135</ele>
        <time>2010-05-13T07:10:18Z</time>
      </trkpt>
      <trkpt lat="48.61358" lon="2.09097">
        <ele>135</ele>
        <time>2010-05-13T07:10:19Z</time>
      </trkpt>
      <trkpt lat="48.61358" lon="2.09095">
        <ele>135</ele>
        <time>2010-05-13T07:10:20Z</time>
      </trkpt>
      <trkpt lat="48.61357" lon="2.09092">
        <ele>135</ele>
        <time>2010-05-13T07:10:21Z</time>
      </trkpt>
      <trkpt lat="48.61357" lon="2.0909">
        <ele>135</ele>
        <time>2010-05-13T07:10:22Z</time>
      </trkpt>
      <trkpt lat="48.61356" lon="2.09088">
        <ele>135</ele>
        <time>2010-05-13T07:10:23Z</time>
      </trkpt>
      <trkpt lat="48.61356" lon="2.09086">
        <ele>135</ele>
        <time>2010-05-13T07:10:24Z</time>
      </trkpt>
      <trkpt lat="48.61356" lon="2.09084">
        <ele>135</ele>
        <time>2010-05-13T07:10:25Z</time>
      </trkpt>
      <trkpt lat="48.61355" lon="2.09082">
        <ele>135</ele>
        <time>2010-05-13T07:10:26Z</time>
      </trkpt>
      <trkpt lat="48.61355" lon="2.0908">
        <ele>135</ele>
        <time>2010-05-13T07:10:27Z</time>
      </trkpt>
      <trkpt lat="48.61354" lon="2.09078">
        <ele>135</ele>
        <time>2010-05-13T07:10:28Z</time>
      </trkpt>
      <trkpt lat="48.61354" lon="2.09076">
        <ele>135</ele>
        <time>2010-05-13T07:10:29Z</time>
      </trkpt>
      <trkpt lat="48.61353" lon="2.09072">
        <ele>135</ele>
        <time>2010-05-13T07:10:31Z</time>
      </trkpt>
      <trkpt lat="48.61353" lon="2.0907">
        <ele>135</ele>
        <time>2010-05-13T07:10:32Z</time>
      </trkpt>
      <trkpt lat="48.61353" lon="2.09067">
        <ele>135</ele>
        <time>2010-05-13T07:10:33Z</time>
      </trkpt>
      <trkpt lat="48.61352" lon="2.09065">
        <ele>135</ele>
        <time>2010-05-13T07:10:34Z</time>
      </trkpt>
      <trkpt lat="48.61352" lon="2.09063">
        <ele>135</ele>
        <time>2010-05-13T07:10:35Z</time>
      </trkpt>
      <trkpt lat="48.61353" lon="2.0906">
        <ele>135</ele>
        <time>2010-05-13T07:10:36Z</time>
      </trkpt>
      <trkpt lat="48.61353" lon="2.09059">
        <ele>135</ele>
        <time>2010-05-13T07:10:37Z</time>
      </trkpt>
      <trkpt lat="48.61352" lon="2.09056">
        <ele>135</ele>
        <time>2010-05-13T07:10:38Z</time>
      </trkpt>
      <trkpt lat="48.61351" lon="2.09055">
        <ele>135</ele>
        <time>2010-05-13T07:10:39Z</time>
      </trkpt>
      <trkpt lat="48.61351" lon="2.09053">
        <ele>135</ele>
        <time>2010-05-13T07:10:40Z</time>
      </trkpt>
      <trkpt lat="48.61351" lon="2.0905">
        <ele>135</ele>
        <time>2010-05-13T07:10:41Z</time>
      </trkpt>
      <trkpt lat="48.6135" lon="2.09048">
        <ele>135</ele>
        <time>2010-05-13T07:10:42Z</time>
      </trkpt>
      <trkpt lat="48.6135" lon="2.09046">
        <ele>135</ele>
        <time>2010-05-13T07:10:43Z</time>
      </trkpt>
      <trkpt lat="48.61349" lon="2.09043">
        <ele>135</ele>
        <time>2010-05-13T07:10:44Z</time>
      </trkpt>
      <trkpt lat="48.61348" lon="2.0904">
        <ele>135</ele>
        <time>2010-05-13T07:10:45Z</time>
      </trkpt>
      <trkpt lat="48.61348" lon="2.09037">
        <ele>135</ele>
        <time>2010-05-13T07:10:46Z</time>
      </trkpt>
      <trkpt lat="48.61348" lon="2.09035">
        <ele>135</ele>
        <time>2010-05-13T07:10:47Z</time>
      </trkpt>
      <trkpt lat="48.61347" lon="2.09032">
        <ele>135</ele>
        <time>2010-05-13T07:10:48Z</time>
      </trkpt>
      <trkpt lat="48.61347" lon="2.0903">
        <ele>135</ele>
        <time>2010-05-13T07:10:49Z</time>
      </trkpt>
      <trkpt lat="48.61347" lon="2.09028">
        <ele>135</ele>
        <time>2010-05-13T07:10:50Z</time>
      </trkpt>
      <trkpt lat="48.61347" lon="2.09025">
        <ele>135</ele>
        <time>2010-05-13T07:10:51Z</time>
      </trkpt>
      <trkpt lat="48.61347" lon="2.09023">
        <ele>135</ele>
        <time>2010-05-13T07:10:52Z</time>
      </trkpt>
      <trkpt lat="48.61346" lon="2.0902">
        <ele>135</ele>
        <time>2010-05-13T07:10:53Z</time>
      </trkpt>
      <trkpt lat="48.61346" lon="2.09018">
        <ele>135</ele>
        <time>2010-05-13T07:10:54Z</time>
      </trkpt>
      <trkpt lat="48.61346" lon="2.09016">
        <ele>135</ele>
        <time>2010-05-13T07:10:55Z</time>
      </trkpt>
      <trkpt lat="48.61346" lon="2.09013">
        <ele>135</ele>
        <time>2010-05-13T07:10:56Z</time>
      </trkpt>
      <trkpt lat="48.61345" lon="2.09011">
        <ele>135</ele>
        <time>2010-05-13T07:10:57Z</time>
      </trkpt>
      <trkpt lat="48.61346" lon="2.09009">
        <ele>135</ele>
        <time>2010-05-13T07:10:58Z</time>
      </trkpt>
      <trkpt lat="48.61346" lon="2.09006">
        <ele>135</ele>
        <time>2010-05-13T07:10:59Z</time>
      </trkpt>
      <trkpt lat="48.61346" lon="2.09003">
        <ele>135</ele>
        <time>2010-05-13T07:11:00Z</time>
      </trkpt>
      <trkpt lat="48.61347" lon="2.09">
        <ele>135</ele>
        <time>2010-05-13T07:11:01Z</time>
      </trkpt>
      <trkpt lat="48.61347" lon="2.08997">
        <ele>135</ele>
        <time>2010-05-13T07:11:02Z</time>
      </trkpt>
      <trkpt lat="48.61347" lon="2.08995">
        <ele>135</ele>
        <time>2010-05-13T07:11:03Z</time>
      </trkpt>
      <trkpt lat="48.61347" lon="2.08992">
        <ele>134</ele>
        <time>2010-05-13T07:11:04Z</time>
      </trkpt>
      <trkpt lat="48.61347" lon="2.0899">
        <ele>134</ele>
        <time>2010-05-13T07:11:05Z</time>
      </trkpt>
      <trkpt lat="48.61347" lon="2.08988">
        <ele>133</ele>
        <time>2010-05-13T07:11:06Z</time>
      </trkpt>
      <trkpt lat="48.61348" lon="2.08986">
        <ele>132</ele>
        <time>2010-05-13T07:11:07Z</time>
      </trkpt>
      <trkpt lat="48.61348" lon="2.08983">
        <ele>132</ele>
        <time>2010-05-13T07:11:08Z</time>
      </trkpt>
      <trkpt lat="48.61349" lon="2.08981">
        <ele>132</ele>
        <time>2010-05-13T07:11:09Z</time>
      </trkpt>
      <trkpt lat="48.61349" lon="2.08979">
        <ele>131</ele>
        <time>2010-05-13T07:11:10Z</time>
      </trkpt>
      <trkpt lat="48.6135" lon="2.08977">
        <ele>131</ele>
        <time>2010-05-13T07:11:11Z</time>
      </trkpt>
      <trkpt lat="48.61351" lon="2.08975">
        <ele>131</ele>
        <time>2010-05-13T07:11:12Z</time>
      </trkpt>
      <trkpt lat="48.61351" lon="2.08973">
        <ele>131</ele>
        <time>2010-05-13T07:11:13Z</time>
      </trkpt>
      <trkpt lat="48.61352" lon="2.08971">
        <ele>131</ele>
        <time>2010-05-13T07:11:14Z</time>
      </trkpt>
      <trkpt lat="48.61352" lon="2.08969">
        <ele>131</ele>
        <time>2010-05-13T07:11:15Z</time>
      </trkpt>
      <trkpt lat="48.61353" lon="2.08967">
        <ele>131</ele>
        <time>2010-05-13T07:11:16Z</time>
      </trkpt>
      <trkpt lat="48.61355" lon="2.08965">
        <ele>131</ele>
        <time>2010-05-13T07:11:17Z</time>
      </trkpt>
      <trkpt lat="48.61356" lon="2.08963">
        <ele>131</ele>
        <time>2010-05-13T07:11:18Z</time>
      </trkpt>
      <trkpt lat="48.61357" lon="2.08961">
        <ele>131</ele>
        <time>2010-05-13T07:11:19Z</time>
      </trkpt>
      <trkpt lat="48.61359" lon="2.08959">
        <ele>131</ele>
        <time>2010-05-13T07:11:20Z</time>
      </trkpt>
      <trkpt lat="48.6136" lon="2.08957">
        <ele>131</ele>
        <time>2010-05-13T07:11:21Z</time>
      </trkpt>
      <trkpt lat="48.61362" lon="2.08955">
        <ele>131</ele>
        <time>2010-05-13T07:11:22Z</time>
      </trkpt>
      <trkpt lat="48.61363" lon="2.08953">
        <ele>131</ele>
        <time>2010-05-13T07:11:23Z</time>
      </trkpt>
      <trkpt lat="48.61364" lon="2.0895">
        <ele>131</ele>
        <time>2010-05-13T07:11:24Z</time>
      </trkpt>
      <trkpt lat="48.61365" lon="2.08948">
        <ele>131</ele>
        <time>2010-05-13T07:11:25Z</time>
      </trkpt>
      <trkpt lat="48.61366" lon="2.08946">
        <ele>131</ele>
        <time>2010-05-13T07:11:26Z</time>
      </trkpt>
      <trkpt lat="48.61366" lon="2.08943">
        <ele>131</ele>
        <time>2010-05-13T07:11:27Z</time>
      </trkpt>
      <trkpt lat="48.61367" lon="2.0894">
        <ele>131</ele>
        <time>2010-05-13T07:11:28Z</time>
      </trkpt>
      <trkpt lat="48.61368" lon="2.08937">
        <ele>131</ele>
        <time>2010-05-13T07:11:29Z</time>
      </trkpt>
      <trkpt lat="48.61369" lon="2.08935">
        <ele>131</ele>
        <time>2010-05-13T07:11:30Z</time>
      </trkpt>
      <trkpt lat="48.6137" lon="2.08932">
        <ele>131</ele>
        <time>2010-05-13T07:11:31Z</time>
      </trkpt>
      <trkpt lat="48.6137" lon="2.08929">
        <ele>131</ele>
        <time>2010-05-13T07:11:32Z</time>
      </trkpt>
      <trkpt lat="48.61369" lon="2.08926">
        <ele>131</ele>
        <time>2010-05-13T07:11:33Z</time>
      </trkpt>
      <trkpt lat="48.61369" lon="2.08924">
        <ele>131</ele>
        <time>2010-05-13T07:11:34Z</time>
      </trkpt>
      <trkpt lat="48.61368" lon="2.08921">
        <ele>131</ele>
        <time>2010-05-13T07:11:35Z</time>
      </trkpt>
      <trkpt lat="48.61368" lon="2.08919">
        <ele>131</ele>
        <time>2010-05-13T07:11:36Z</time>
      </trkpt>
      <trkpt lat="48.61368" lon="2.08916">
        <ele>131</ele>
        <time>2010-05-13T07:11:37Z</time>
      </trkpt>
      <trkpt lat="48.61367" lon="2.08914">
        <ele>131</ele>
        <time>2010-05-13T07:11:38Z</time>
      </trkpt>
      <trkpt lat="48.61367" lon="2.08912">
        <ele>131</ele>
        <time>2010-05-13T07:11:39Z</time>
      </trkpt>
      <trkpt lat="48.61366" lon="2.08909">
        <ele>131</ele>
        <time>2010-05-13T07:11:40Z</time>
      </trkpt>
      <trkpt lat="48.61366" lon="2.08907">
        <ele>131</ele>
        <time>2010-05-13T07:11:41Z</time>
      </trkpt>
      <trkpt lat="48.61366" lon="2.08904">
        <ele>131</ele>
        <time>2010-05-13T07:11:42Z</time>
      </trkpt>
      <trkpt lat="48.61366" lon="2.08902">
        <ele>131</ele>
        <time>2010-05-13T07:11:43Z</time>
      </trkpt>
      <trkpt lat="48.61365" lon="2.08899">
        <ele>131</ele>
        <time>2010-05-13T07:11:44Z</time>
      </trkpt>
      <trkpt lat="48.61365" lon="2.08897">
        <ele>131</ele>
        <time>2010-05-13T07:11:45Z</time>
      </trkpt>
      <trkpt lat="48.61365" lon="2.08895">
        <ele>131</ele>
        <time>2010-05-13T07:11:46Z</time>
      </trkpt>
      <trkpt lat="48.61365" lon="2.08892">
        <ele>131</ele>
        <time>2010-05-13T07:11:47Z</time>
      </trkpt>
      <trkpt lat="48.61364" lon="2.0889">
        <ele>131</ele>
        <time>2010-05-13T07:11:48Z</time>
      </trkpt>
      <trkpt lat="48.61364" lon="2.08888">
        <ele>131</ele>
        <time>2010-05-13T07:11:49Z</time>
      </trkpt>
      <trkpt lat="48.61364" lon="2.08886">
        <ele>131</ele>
        <time>2010-05-13T07:11:50Z</time>
      </trkpt>
      <trkpt lat="48.61364" lon="2.08884">
        <ele>132</ele>
        <time>2010-05-13T07:11:51Z</time>
      </trkpt>
      <trkpt lat="48.61364" lon="2.08882">
        <ele>132</ele>
        <time>2010-05-13T07:11:52Z</time>
      </trkpt>
      <trkpt lat="48.61363" lon="2.0888">
        <ele>132</ele>
        <time>2010-05-13T07:11:53Z</time>
      </trkpt>
      <trkpt lat="48.61363" lon="2.08878">
        <ele>132</ele>
        <time>2010-05-13T07:11:54Z</time>
      </trkpt>
      <trkpt lat="48.61363" lon="2.08876">
        <ele>132</ele>
        <time>2010-05-13T07:11:55Z</time>
      </trkpt>
      <trkpt lat="48.61362" lon="2.08874">
        <ele>132</ele>
        <time>2010-05-13T07:11:56Z</time>
      </trkpt>
      <trkpt lat="48.61362" lon="2.08872">
        <ele>132</ele>
        <time>2010-05-13T07:11:57Z</time>
      </trkpt>
      <trkpt lat="48.61362" lon="2.0887">
        <ele>132</ele>
        <time>2010-05-13T07:11:58Z</time>
      </trkpt>
      <trkpt lat="48.61362" lon="2.08868">
        <ele>133</ele>
        <time>2010-05-13T07:11:59Z</time>
      </trkpt>
      <trkpt lat="48.61362" lon="2.08866">
        <ele>133</ele>
        <time>2010-05-13T07:12:00Z</time>
      </trkpt>
      <trkpt lat="48.61362" lon="2.08864">
        <ele>133</ele>
        <time>2010-05-13T07:12:01Z</time>
      </trkpt>
      <trkpt lat="48.61362" lon="2.08862">
        <ele>133</ele>
        <time>2010-05-13T07:12:02Z</time>
      </trkpt>
      <trkpt lat="48.61362" lon="2.08859">
        <ele>134</ele>
        <time>2010-05-13T07:12:03Z</time>
      </trkpt>
      <trkpt lat="48.61361" lon="2.08857">
        <ele>134</ele>
        <time>2010-05-13T07:12:04Z</time>
      </trkpt>
      <trkpt lat="48.61361" lon="2.08855">
        <ele>134</ele>
        <time>2010-05-13T07:12:05Z</time>
      </trkpt>
      <trkpt lat="48.61361" lon="2.08852">
        <ele>135</ele>
        <time>2010-05-13T07:12:06Z</time>
      </trkpt>
      <trkpt lat="48.6136" lon="2.08849">
        <ele>135</ele>
        <time>2010-05-13T07:12:07Z</time>
      </trkpt>
      <trkpt lat="48.6136" lon="2.08846">
        <ele>136</ele>
        <time>2010-05-13T07:12:08Z</time>
      </trkpt>
      <trkpt lat="48.61359" lon="2.08844">
        <ele>136</ele>
        <time>2010-05-13T07:12:09Z</time>
      </trkpt>
      <trkpt lat="48.61359" lon="2.08841">
        <ele>137</ele>
        <time>2010-05-13T07:12:10Z</time>
      </trkpt>
      <trkpt lat="48.61359" lon="2.08838">
        <ele>137</ele>
        <time>2010-05-13T07:12:11Z</time>
      </trkpt>
      <trkpt lat="48.61358" lon="2.08835">
        <ele>137</ele>
        <time>2010-05-13T07:12:12Z</time>
      </trkpt>
      <trkpt lat="48.61358" lon="2.08832">
        <ele>138</ele>
        <time>2010-05-13T07:12:13Z</time>
      </trkpt>
      <trkpt lat="48.61358" lon="2.08829">
        <ele>138</ele>
        <time>2010-05-13T07:12:14Z</time>
      </trkpt>
      <trkpt lat="48.61357" lon="2.08826">
        <ele>138</ele>
        <time>2010-05-13T07:12:15Z</time>
      </trkpt>
      <trkpt lat="48.61357" lon="2.08824">
        <ele>138</ele>
        <time>2010-05-13T07:12:16Z</time>
      </trkpt>
      <trkpt lat="48.61357" lon="2.08821">
        <ele>138</ele>
        <time>2010-05-13T07:12:17Z</time>
      </trkpt>
      <trkpt lat="48.61357" lon="2.08819">
        <ele>138</ele>
        <time>2010-05-13T07:12:18Z</time>
      </trkpt>
      <trkpt lat="48.61357" lon="2.08816">
        <ele>138</ele>
        <time>2010-05-13T07:12:19Z</time>
      </trkpt>
      <trkpt lat="48.61356" lon="2.08814">
        <ele>138</ele>
        <time>2010-05-13T07:12:20Z</time>
      </trkpt>
      <trkpt lat="48.61356" lon="2.08812">
        <ele>138</ele>
        <time>2010-05-13T07:12:21Z</time>
      </trkpt>
      <trkpt lat="48.61356" lon="2.0881">
        <ele>138</ele>
        <time>2010-05-13T07:12:22Z</time>
      </trkpt>
      <trkpt lat="48.61355" lon="2.08808">
        <ele>138</ele>
        <time>2010-05-13T07:12:23Z</time>
      </trkpt>
      <trkpt lat="48.61355" lon="2.08805">
        <ele>138</ele>
        <time>2010-05-13T07:12:24Z</time>
      </trkpt>
      <trkpt lat="48.61355" lon="2.08803">
        <ele>138</ele>
        <time>2010-05-13T07:12:25Z</time>
      </trkpt>
      <trkpt lat="48.61355" lon="2.08801">
        <ele>139</ele>
        <time>2010-05-13T07:12:26Z</time>
      </trkpt>
      <trkpt lat="48.61355" lon="2.08798">
        <ele>139</ele>
        <time>2010-05-13T07:12:27Z</time>
      </trkpt>
      <trkpt lat="48.61355" lon="2.08796">
        <ele>139</ele>
        <time>2010-05-13T07:12:28Z</time>
      </trkpt>
      <trkpt lat="48.61355" lon="2.08793">
        <ele>139</ele>
        <time>2010-05-13T07:12:29Z</time>
      </trkpt>
      <trkpt lat="48.61355" lon="2.08791">
        <ele>139</ele>
        <time>2010-05-13T07:12:30Z</time>
      </trkpt>
      <trkpt lat="48.61356" lon="2.08788">
        <ele>139</ele>
        <time>2010-05-13T07:12:31Z</time>
      </trkpt>
      <trkpt lat="48.61356" lon="2.08786">
        <ele>139</ele>
        <time>2010-05-13T07:12:32Z</time>
      </trkpt>
      <trkpt lat="48.61357" lon="2.08784">
        <ele>139</ele>
        <time>2010-05-13T07:12:33Z</time>
      </trkpt>
      <trkpt lat="48.61357" lon="2.08782">
        <ele>139</ele>
        <time>2010-05-13T07:12:34Z</time>
      </trkpt>
      <trkpt lat="48.61357" lon="2.0878">
        <ele>139</ele>
        <time>2010-05-13T07:12:35Z</time>
      </trkpt>
      <trkpt lat="48.61358" lon="2.08777">
        <ele>139</ele>
        <time>2010-05-13T07:12:37Z</time>
      </trkpt>
      <trkpt lat="48.61359" lon="2.08775">
        <ele>139</ele>
        <time>2010-05-13T07:12:38Z</time>
      </trkpt>
      <trkpt lat="48.6136" lon="2.08773">
        <ele>139</ele>
        <time>2010-05-13T07:12:39Z</time>
      </trkpt>
      <trkpt lat="48.6136" lon="2.0877">
        <ele>139</ele>
        <time>2010-05-13T07:12:40Z</time>
      </trkpt>
      <trkpt lat="48.61361" lon="2.08766">
        <ele>139</ele>
        <time>2010-05-13T07:12:41Z</time>
      </trkpt>
      <trkpt lat="48.61361" lon="2.08764">
        <ele>139</ele>
        <time>2010-05-13T07:12:42Z</time>
      </trkpt>
      <trkpt lat="48.61361" lon="2.08761">
        <ele>139</ele>
        <time>2010-05-13T07:12:43Z</time>
      </trkpt>
      <trkpt lat="48.61362" lon="2.08759">
        <ele>139</ele>
        <time>2010-05-13T07:12:44Z</time>
      </trkpt>
      <trkpt lat="48.61363" lon="2.08756">
        <ele>139</ele>
        <time>2010-05-13T07:12:45Z</time>
      </trkpt>
      <trkpt lat="48.61364" lon="2.08754">
        <ele>139</ele>
        <time>2010-05-13T07:12:46Z</time>
      </trkpt>
      <trkpt lat="48.61364" lon="2.08751">
        <ele>139</ele>
        <time>2010-05-13T07:12:47Z</time>
      </trkpt>
      <trkpt lat="48.61364" lon="2.08749">
        <ele>139</ele>
        <time>2010-05-13T07:12:48Z</time>
      </trkpt>
      <trkpt lat="48.61364" lon="2.08747">
        <ele>139</ele>
        <time>2010-05-13T07:12:49Z</time>
      </trkpt>
      <trkpt lat="48.61364" lon="2.08744">
        <ele>139</ele>
        <time>2010-05-13T07:12:50Z</time>
      </trkpt>
      <trkpt lat="48.61365" lon="2.08741">
        <ele>139</ele>
        <time>2010-05-13T07:12:51Z</time>
      </trkpt>
      <trkpt lat="48.61365" lon="2.08738">
        <ele>139</ele>
        <time>2010-05-13T07:12:52Z</time>
      </trkpt>
      <trkpt lat="48.61366" lon="2.08736">
        <ele>139</ele>
        <time>2010-05-13T07:12:53Z</time>
      </trkpt>
      <trkpt lat="48.61366" lon="2.08733">
        <ele>139</ele>
        <time>2010-05-13T07:12:54Z</time>
      </trkpt>
      <trkpt lat="48.61367" lon="2.08731">
        <ele>139</ele>
        <time>2010-05-13T07:12:55Z</time>
      </trkpt>
      <trkpt lat="48.61367" lon="2.08728">
        <ele>139</ele>
        <time>2010-05-13T07:12:56Z</time>
      </trkpt>
      <trkpt lat="48.61367" lon="2.08726">
        <ele>139</ele>
        <time>2010-05-13T07:12:57Z</time>
      </trkpt>
      <trkpt lat="48.61368" lon="2.08723">
        <ele>139</ele>
        <time>2010-05-13T07:12:58Z</time>
      </trkpt>
      <trkpt lat="48.61368" lon="2.08721">
        <ele>139</ele>
        <time>2010-05-13T07:12:59Z</time>
      </trkpt>
      <trkpt lat="48.61369" lon="2.08718">
        <ele>139</ele>
        <time>2010-05-13T07:13:00Z</time>
      </trkpt>
      <trkpt lat="48.61369" lon="2.08716">
        <ele>139</ele>
        <time>2010-05-13T07:13:01Z</time>
      </trkpt>
      <trkpt lat="48.6137" lon="2.08714">
        <ele>139</ele>
        <time>2010-05-13T07:13:02Z</time>
      </trkpt>
      <trkpt lat="48.61371" lon="2.08712">
        <ele>140</ele>
        <time>2010-05-13T07:13:03Z</time>
      </trkpt>
      <trkpt lat="48.61372" lon="2.0871">
        <ele>140</ele>
        <time>2010-05-13T07:13:04Z</time>
      </trkpt>
      <trkpt lat="48.61372" lon="2.08708">
        <ele>140</ele>
        <time>2010-05-13T07:13:05Z</time>
      </trkpt>
      <trkpt lat="48.61374" lon="2.08706">
        <ele>140</ele>
        <time>2010-05-13T07:13:06Z</time>
      </trkpt>
      <trkpt lat="48.61375" lon="2.08703">
        <ele>140</ele>
        <time>2010-05-13T07:13:07Z</time>
      </trkpt>
      <trkpt lat="48.61376" lon="2.08701">
        <ele>140</ele>
        <time>2010-05-13T07:13:08Z</time>
      </trkpt>
      <trkpt lat="48.61376" lon="2.08699">
        <ele>140</ele>
        <time>2010-05-13T07:13:09Z</time>
      </trkpt>
      <trkpt lat="48.61377" lon="2.08697">
        <ele>140</ele>
        <time>2010-05-13T07:13:10Z</time>
      </trkpt>
      <trkpt lat="48.61378" lon="2.08695">
        <ele>140</ele>
        <time>2010-05-13T07:13:11Z</time>
      </trkpt>
      <trkpt lat="48.6138" lon="2.08691">
        <ele>140</ele>
        <time>2010-05-13T07:13:13Z</time>
      </trkpt>
      <trkpt lat="48.6138" lon="2.08689">
        <ele>140</ele>
        <time>2010-05-13T07:13:14Z</time>
      </trkpt>
      <trkpt lat="48.61381" lon="2.08687">
        <ele>140</ele>
        <time>2010-05-13T07:13:15Z</time>
      </trkpt>
      <trkpt lat="48.61382" lon="2.08684">
        <ele>140</ele>
        <time>2010-05-13T07:13:16Z</time>
      </trkpt>
      <trkpt lat="48.61383" lon="2.08682">
        <ele>140</ele>
        <time>2010-05-13T07:13:17Z</time>
      </trkpt>
      <trkpt lat="48.61384" lon="2.0868">
        <ele>140</ele>
        <time>2010-05-13T07:13:18Z</time>
      </trkpt>
      <trkpt lat="48.61385" lon="2.08678">
        <ele>140</ele>
        <time>2010-05-13T07:13:19Z</time>
      </trkpt>
      <trkpt lat="48.61386" lon="2.08676">
        <ele>140</ele>
        <time>2010-05-13T07:13:20Z</time>
      </trkpt>
      <trkpt lat="48.61388" lon="2.08674">
        <ele>140</ele>
        <time>2010-05-13T07:13:21Z</time>
      </trkpt>
      <trkpt lat="48.61388" lon="2.08672">
        <ele>140</ele>
        <time>2010-05-13T07:13:22Z</time>
      </trkpt>
      <trkpt lat="48.61389" lon="2.0867">
        <ele>140</ele>
        <time>2010-05-13T07:13:23Z</time>
      </trkpt>
      <trkpt lat="48.6139" lon="2.08668">
        <ele>140</ele>
        <time>2010-05-13T07:13:24Z</time>
      </trkpt>
      <trkpt lat="48.61391" lon="2.08666">
        <ele>140</ele>
        <time>2010-05-13T07:13:25Z</time>
      </trkpt>
      <trkpt lat="48.61392" lon="2.08664">
        <ele>140</ele>
        <time>2010-05-13T07:13:26Z</time>
      </trkpt>
      <trkpt lat="48.61394" lon="2.08661">
        <ele>139</ele>
        <time>2010-05-13T07:13:28Z</time>
      </trkpt>
      <trkpt lat="48.61395" lon="2.08659">
        <ele>139</ele>
        <time>2010-05-13T07:13:29Z</time>
      </trkpt>
      <trkpt lat="48.61396" lon="2.08657">
        <ele>139</ele>
        <time>2010-05-13T07:13:30Z</time>
      </trkpt>
      <trkpt lat="48.61397" lon="2.08655">
        <ele>139</ele>
        <time>2010-05-13T07:13:31Z</time>
      </trkpt>
      <trkpt lat="48.61398" lon="2.08653">
        <ele>139</ele>
        <time>2010-05-13T07:13:32Z</time>
      </trkpt>
      <trkpt lat="48.61398" lon="2.0865">
        <ele>139</ele>
        <time>2010-05-13T07:13:33Z</time>
      </trkpt>
      <trkpt lat="48.61399" lon="2.08648">
        <ele>139</ele>
        <time>2010-05-13T07:13:34Z</time>
      </trkpt>
      <trkpt lat="48.614" lon="2.08646">
        <ele>139</ele>
        <time>2010-05-13T07:13:35Z</time>
      </trkpt>
      <trkpt lat="48.61401" lon="2.08644">
        <ele>139</ele>
        <time>2010-05-13T07:13:36Z</time>
      </trkpt>
      <trkpt lat="48.61401" lon="2.08642">
        <ele>139</ele>
        <time>2010-05-13T07:13:37Z</time>
      </trkpt>
      <trkpt lat="48.61404" lon="2.08639">
        <ele>139</ele>
        <time>2010-05-13T07:13:38Z</time>
      </trkpt>
      <trkpt lat="48.61405" lon="2.08638">
        <ele>139</ele>
        <time>2010-05-13T07:13:39Z</time>
      </trkpt>
      <trkpt lat="48.61405" lon="2.08636">
        <ele>139</ele>
        <time>2010-05-13T07:13:40Z</time>
      </trkpt>
      <trkpt lat="48.61406" lon="2.08634">
        <ele>139</ele>
        <time>2010-05-13T07:13:41Z</time>
      </trkpt>
      <trkpt lat="48.61406" lon="2.08632">
        <ele>140</ele>
        <time>2010-05-13T07:13:42Z</time>
      </trkpt>
      <trkpt lat="48.61406" lon="2.0863">
        <ele>140</ele>
        <time>2010-05-13T07:13:43Z</time>
      </trkpt>
      <trkpt lat="48.61407" lon="2.08628">
        <ele>140</ele>
        <time>2010-05-13T07:13:44Z</time>
      </trkpt>
      <trkpt lat="48.61406" lon="2.08625">
        <ele>140</ele>
        <time>2010-05-13T07:13:45Z</time>
      </trkpt>
      <trkpt lat="48.61406" lon="2.08623">
        <ele>140</ele>
        <time>2010-05-13T07:13:46Z</time>
      </trkpt>
      <trkpt lat="48.61407" lon="2.08621">
        <ele>140</ele>
        <time>2010-05-13T07:13:47Z</time>
      </trkpt>
      <trkpt lat="48.61408" lon="2.0862">
        <ele>140</ele>
        <time>2010-05-13T07:13:48Z</time>
      </trkpt>
      <trkpt lat="48.61409" lon="2.08618">
        <ele>140</ele>
        <time>2010-05-13T07:13:49Z</time>
      </trkpt>
      <trkpt lat="48.61411" lon="2.08617">
        <ele>140</ele>
        <time>2010-05-13T07:13:50Z</time>
      </trkpt>
      <trkpt lat="48.61413" lon="2.08616">
        <ele>140</ele>
        <time>2010-05-13T07:13:51Z</time>
      </trkpt>
      <trkpt lat="48.61415" lon="2.08615">
        <ele>140</ele>
        <time>2010-05-13T07:13:52Z</time>
      </trkpt>
      <trkpt lat="48.61417" lon="2.08614">
        <ele>140</ele>
        <time>2010-05-13T07:13:53Z</time>
      </trkpt>
      <trkpt lat="48.61419" lon="2.08612">
        <ele>141</ele>
        <time>2010-05-13T07:13:55Z</time>
      </trkpt>
      <trkpt lat="48.61421" lon="2.0861">
        <ele>141</ele>
        <time>2010-05-13T07:13:57Z</time>
      </trkpt>
      <trkpt lat="48.61423" lon="2.08609">
        <ele>142</ele>
        <time>2010-05-13T07:13:58Z</time>
      </trkpt>
      <trkpt lat="48.61424" lon="2.08607">
        <ele>142</ele>
        <time>2010-05-13T07:13:59Z</time>
      </trkpt>
      <trkpt lat="48.61426" lon="2.08606">
        <ele>142</ele>
        <time>2010-05-13T07:14:00Z</time>
      </trkpt>
      <trkpt lat="48.61427" lon="2.08606">
        <ele>142</ele>
        <time>2010-05-13T07:14:01Z</time>
      </trkpt>
      <trkpt lat="48.61429" lon="2.08604">
        <ele>142</ele>
        <time>2010-05-13T07:14:02Z</time>
      </trkpt>
      <trkpt lat="48.61431" lon="2.08603">
        <ele>142</ele>
        <time>2010-05-13T07:14:03Z</time>
      </trkpt>
      <trkpt lat="48.61432" lon="2.08602">
        <ele>142</ele>
        <time>2010-05-13T07:14:04Z</time>
      </trkpt>
      <trkpt lat="48.61434" lon="2.08601">
        <ele>142</ele>
        <time>2010-05-13T07:14:05Z</time>
      </trkpt>
      <trkpt lat="48.61435" lon="2.086">
        <ele>142</ele>
        <time>2010-05-13T07:14:06Z</time>
      </trkpt>
      <trkpt lat="48.61437" lon="2.08598">
        <ele>141</ele>
        <time>2010-05-13T07:14:07Z</time>
      </trkpt>
      <trkpt lat="48.61438" lon="2.08597">
        <ele>140</ele>
        <time>2010-05-13T07:14:08Z</time>
      </trkpt>
      <trkpt lat="48.6144" lon="2.08595">
        <ele>139</ele>
        <time>2010-05-13T07:14:09Z</time>
      </trkpt>
      <trkpt lat="48.6144" lon="2.08593">
        <ele>138</ele>
        <time>2010-05-13T07:14:10Z</time>
      </trkpt>
      <trkpt lat="48.61442" lon="2.0859">
        <ele>137</ele>
        <time>2010-05-13T07:14:11Z</time>
      </trkpt>
      <trkpt lat="48.61443" lon="2.08588">
        <ele>136</ele>
        <time>2010-05-13T07:14:12Z</time>
      </trkpt>
      <trkpt lat="48.61446" lon="2.08586">
        <ele>135</ele>
        <time>2010-05-13T07:14:13Z</time>
      </trkpt>
      <trkpt lat="48.61448" lon="2.08583">
        <ele>134</ele>
        <time>2010-05-13T07:14:14Z</time>
      </trkpt>
      <trkpt lat="48.61449" lon="2.08582">
        <ele>133</ele>
        <time>2010-05-13T07:14:15Z</time>
      </trkpt>
      <trkpt lat="48.61451" lon="2.0858">
        <ele>132</ele>
        <time>2010-05-13T07:14:16Z</time>
      </trkpt>
      <trkpt lat="48.61452" lon="2.08579">
        <ele>132</ele>
        <time>2010-05-13T07:14:17Z</time>
      </trkpt>
      <trkpt lat="48.61453" lon="2.08577">
        <ele>131</ele>
        <time>2010-05-13T07:14:18Z</time>
      </trkpt>
      <trkpt lat="48.61455" lon="2.08576">
        <ele>131</ele>
        <time>2010-05-13T07:14:19Z</time>
      </trkpt>
      <trkpt lat="48.61456" lon="2.08575">
        <ele>131</ele>
        <time>2010-05-13T07:14:20Z</time>
      </trkpt>
      <trkpt lat="48.61457" lon="2.08574">
        <ele>131</ele>
        <time>2010-05-13T07:14:21Z</time>
      </trkpt>
      <trkpt lat="48.61459" lon="2.08573">
        <ele>131</ele>
        <time>2010-05-13T07:14:22Z</time>
      </trkpt>
      <trkpt lat="48.6146" lon="2.08573">
        <ele>131</ele>
        <time>2010-05-13T07:14:23Z</time>
      </trkpt>
      <trkpt lat="48.61462" lon="2.08572">
        <ele>131</ele>
        <time>2010-05-13T07:14:25Z</time>
      </trkpt>
      <trkpt lat="48.61465" lon="2.08569">
        <ele>132</ele>
        <time>2010-05-13T07:14:26Z</time>
      </trkpt>
      <trkpt lat="48.61468" lon="2.08567">
        <ele>133</ele>
        <time>2010-05-13T07:14:27Z</time>
      </trkpt>
      <trkpt lat="48.61469" lon="2.08566">
        <ele>134</ele>
        <time>2010-05-13T07:14:28Z</time>
      </trkpt>
      <trkpt lat="48.61471" lon="2.08566">
        <ele>135</ele>
        <time>2010-05-13T07:14:29Z</time>
      </trkpt>
      <trkpt lat="48.61472" lon="2.08567">
        <ele>136</ele>
        <time>2010-05-13T07:14:30Z</time>
      </trkpt>
      <trkpt lat="48.61475" lon="2.08567">
        <ele>137</ele>
        <time>2010-05-13T07:14:31Z</time>
      </trkpt>
      <trkpt lat="48.61477" lon="2.08568">
        <ele>138</ele>
        <time>2010-05-13T07:14:32Z</time>
      </trkpt>
      <trkpt lat="48.61478" lon="2.08568">
        <ele>139</ele>
        <time>2010-05-13T07:14:33Z</time>
      </trkpt>
      <trkpt lat="48.6148" lon="2.08569">
        <ele>140</ele>
        <time>2010-05-13T07:14:34Z</time>
      </trkpt>
      <trkpt lat="48.61482" lon="2.08568">
        <ele>142</ele>
        <time>2010-05-13T07:14:36Z</time>
      </trkpt>
      <trkpt lat="48.61484" lon="2.08566">
        <ele>143</ele>
        <time>2010-05-13T07:14:37Z</time>
      </trkpt>
      <trkpt lat="48.61484" lon="2.08564">
        <ele>144</ele>
        <time>2010-05-13T07:14:38Z</time>
      </trkpt>
      <trkpt lat="48.61486" lon="2.08562">
        <ele>144</ele>
        <time>2010-05-13T07:14:39Z</time>
      </trkpt>
      <trkpt lat="48.61487" lon="2.0856">
        <ele>144</ele>
        <time>2010-05-13T07:14:40Z</time>
      </trkpt>
      <trkpt lat="48.61489" lon="2.08557">
        <ele>144</ele>
        <time>2010-05-13T07:14:42Z</time>
      </trkpt>
      <trkpt lat="48.61491" lon="2.08555">
        <ele>144</ele>
        <time>2010-05-13T07:14:43Z</time>
      </trkpt>
      <trkpt lat="48.61492" lon="2.08553">
        <ele>144</ele>
        <time>2010-05-13T07:14:44Z</time>
      </trkpt>
      <trkpt lat="48.61493" lon="2.08552">
        <ele>144</ele>
        <time>2010-05-13T07:14:45Z</time>
      </trkpt>
      <trkpt lat="48.61495" lon="2.0855">
        <ele>144</ele>
        <time>2010-05-13T07:14:46Z</time>
      </trkpt>
      <trkpt lat="48.61497" lon="2.08548">
        <ele>144</ele>
        <time>2010-05-13T07:14:47Z</time>
      </trkpt>
      <trkpt lat="48.61499" lon="2.08547">
        <ele>144</ele>
        <time>2010-05-13T07:14:48Z</time>
      </trkpt>
      <trkpt lat="48.61501" lon="2.08544">
        <ele>144</ele>
        <time>2010-05-13T07:14:49Z</time>
      </trkpt>
      <trkpt lat="48.61502" lon="2.08542">
        <ele>144</ele>
        <time>2010-05-13T07:14:50Z</time>
      </trkpt>
      <trkpt lat="48.61503" lon="2.08539">
        <ele>144</ele>
        <time>2010-05-13T07:14:51Z</time>
      </trkpt>
      <trkpt lat="48.61504" lon="2.08537">
        <ele>144</ele>
        <time>2010-05-13T07:14:52Z</time>
      </trkpt>
      <trkpt lat="48.61505" lon="2.08535">
        <ele>144</ele>
        <time>2010-05-13T07:14:53Z</time>
      </trkpt>
      <trkpt lat="48.61508" lon="2.08532">
        <ele>144</ele>
        <time>2010-05-13T07:14:54Z</time>
      </trkpt>
      <trkpt lat="48.61509" lon="2.0853">
        <ele>144</ele>
        <time>2010-05-13T07:14:55Z</time>
      </trkpt>
      <trkpt lat="48.61511" lon="2.08528">
        <ele>144</ele>
        <time>2010-05-13T07:14:56Z</time>
      </trkpt>
      <trkpt lat="48.61512" lon="2.08525">
        <ele>144</ele>
        <time>2010-05-13T07:14:57Z</time>
      </trkpt>
      <trkpt lat="48.61514" lon="2.08522">
        <ele>144</ele>
        <time>2010-05-13T07:14:58Z</time>
      </trkpt>
      <trkpt lat="48.61516" lon="2.0852">
        <ele>144</ele>
        <time>2010-05-13T07:14:59Z</time>
      </trkpt>
      <trkpt lat="48.61518" lon="2.08517">
        <ele>144</ele>
        <time>2010-05-13T07:15:00Z</time>
      </trkpt>
      <trkpt lat="48.61519" lon="2.08514">
        <ele>144</ele>
        <time>2010-05-13T07:15:01Z</time>
      </trkpt>
      <trkpt lat="48.6152" lon="2.08512">
        <ele>144</ele>
        <time>2010-05-13T07:15:02Z</time>
      </trkpt>
      <trkpt lat="48.61521" lon="2.08509">
        <ele>145</ele>
        <time>2010-05-13T07:15:03Z</time>
      </trkpt>
      <trkpt lat="48.61522" lon="2.08507">
        <ele>145</ele>
        <time>2010-05-13T07:15:04Z</time>
      </trkpt>
      <trkpt lat="48.61523" lon="2.08505">
        <ele>146</ele>
        <time>2010-05-13T07:15:05Z</time>
      </trkpt>
      <trkpt lat="48.61523" lon="2.08503">
        <ele>146</ele>
        <time>2010-05-13T07:15:06Z</time>
      </trkpt>
      <trkpt lat="48.61524" lon="2.08501">
        <ele>146</ele>
        <time>2010-05-13T07:15:07Z</time>
      </trkpt>
      <trkpt lat="48.61524" lon="2.08499">
        <ele>146</ele>
        <time>2010-05-13T07:15:08Z</time>
      </trkpt>
      <trkpt lat="48.61524" lon="2.08497">
        <ele>146</ele>
        <time>2010-05-13T07:15:09Z</time>
      </trkpt>
      <trkpt lat="48.61524" lon="2.08495">
        <ele>146</ele>
        <time>2010-05-13T07:15:10Z</time>
      </trkpt>
      <trkpt lat="48.61524" lon="2.08493">
        <ele>146</ele>
        <time>2010-05-13T07:15:11Z</time>
      </trkpt>
      <trkpt lat="48.61525" lon="2.0849">
        <ele>146</ele>
        <time>2010-05-13T07:15:12Z</time>
      </trkpt>
      <trkpt lat="48.61526" lon="2.08487">
        <ele>146</ele>
        <time>2010-05-13T07:15:13Z</time>
      </trkpt>
      <trkpt lat="48.61526" lon="2.08485">
        <ele>146</ele>
        <time>2010-05-13T07:15:14Z</time>
      </trkpt>
      <trkpt lat="48.61528" lon="2.08482">
        <ele>146</ele>
        <time>2010-05-13T07:15:15Z</time>
      </trkpt>
      <trkpt lat="48.61528" lon="2.0848">
        <ele>146</ele>
        <time>2010-05-13T07:15:16Z</time>
      </trkpt>
      <trkpt lat="48.61529" lon="2.08478">
        <ele>146</ele>
        <time>2010-05-13T07:15:17Z</time>
      </trkpt>
      <trkpt lat="48.61529" lon="2.08475">
        <ele>146</ele>
        <time>2010-05-13T07:15:18Z</time>
      </trkpt>
      <trkpt lat="48.6153" lon="2.08473">
        <ele>146</ele>
        <time>2010-05-13T07:15:19Z</time>
      </trkpt>
      <trkpt lat="48.6153" lon="2.08471">
        <ele>146</ele>
        <time>2010-05-13T07:15:20Z</time>
      </trkpt>
      <trkpt lat="48.61531" lon="2.08469">
        <ele>146</ele>
        <time>2010-05-13T07:15:21Z</time>
      </trkpt>
      <trkpt lat="48.61532" lon="2.08466">
        <ele>146</ele>
        <time>2010-05-13T07:15:22Z</time>
      </trkpt>
      <trkpt lat="48.61534" lon="2.08464">
        <ele>146</ele>
        <time>2010-05-13T07:15:23Z</time>
      </trkpt>
      <trkpt lat="48.61536" lon="2.08459">
        <ele>146</ele>
        <time>2010-05-13T07:15:27Z</time>
      </trkpt>
      <trkpt lat="48.61537" lon="2.08456">
        <ele>146</ele>
        <time>2010-05-13T07:15:29Z</time>
      </trkpt>
      <trkpt lat="48.61539" lon="2.08454">
        <ele>146</ele>
        <time>2010-05-13T07:15:30Z</time>
      </trkpt>
      <trkpt lat="48.61542" lon="2.0845">
        <ele>146</ele>
        <time>2010-05-13T07:15:32Z</time>
      </trkpt>
      <trkpt lat="48.61543" lon="2.08447">
        <ele>146</ele>
        <time>2010-05-13T07:15:32Z</time>
      </trkpt>
      <trkpt lat="48.61544" lon="2.08445">
        <ele>147</ele>
        <time>2010-05-13T07:15:34Z</time>
      </trkpt>
      <trkpt lat="48.61544" lon="2.08443">
        <ele>147</ele>
        <time>2010-05-13T07:15:35Z</time>
      </trkpt>
      <trkpt lat="48.61544" lon="2.08441">
        <ele>147</ele>
        <time>2010-05-13T07:15:36Z</time>
      </trkpt>
      <trkpt lat="48.61545" lon="2.08439">
        <ele>148</ele>
        <time>2010-05-13T07:15:37Z</time>
      </trkpt>
      <trkpt lat="48.61546" lon="2.08437">
        <ele>148</ele>
        <time>2010-05-13T07:15:38Z</time>
      </trkpt>
      <trkpt lat="48.61547" lon="2.08435">
        <ele>148</ele>
        <time>2010-05-13T07:15:39Z</time>
      </trkpt>
      <trkpt lat="48.61547" lon="2.08432">
        <ele>148</ele>
        <time>2010-05-13T07:15:40Z</time>
      </trkpt>
      <trkpt lat="48.61548" lon="2.0843">
        <ele>148</ele>
        <time>2010-05-13T07:15:41Z</time>
      </trkpt>
      <trkpt lat="48.61549" lon="2.08428">
        <ele>148</ele>
        <time>2010-05-13T07:15:42Z</time>
      </trkpt>
      <trkpt lat="48.61551" lon="2.08426">
        <ele>148</ele>
        <time>2010-05-13T07:15:43Z</time>
      </trkpt>
      <trkpt lat="48.61553" lon="2.08423">
        <ele>148</ele>
        <time>2010-05-13T07:15:44Z</time>
      </trkpt>
      <trkpt lat="48.61553" lon="2.0842">
        <ele>148</ele>
        <time>2010-05-13T07:15:45Z</time>
      </trkpt>
      <trkpt lat="48.61554" lon="2.08419">
        <ele>148</ele>
        <time>2010-05-13T07:15:46Z</time>
      </trkpt>
      <trkpt lat="48.61555" lon="2.08416">
        <ele>148</ele>
        <time>2010-05-13T07:15:47Z</time>
      </trkpt>
      <trkpt lat="48.61556" lon="2.08415">
        <ele>148</ele>
        <time>2010-05-13T07:15:48Z</time>
      </trkpt>
      <trkpt lat="48.61558" lon="2.08413">
        <ele>148</ele>
        <time>2010-05-13T07:15:49Z</time>
      </trkpt>
      <trkpt lat="48.61558" lon="2.08411">
        <ele>148</ele>
        <time>2010-05-13T07:15:50Z</time>
      </trkpt>
      <trkpt lat="48.61559" lon="2.08409">
        <ele>148</ele>
        <time>2010-05-13T07:15:51Z</time>
      </trkpt>
      <trkpt lat="48.61559" lon="2.08407">
        <ele>148</ele>
        <time>2010-05-13T07:15:52Z</time>
      </trkpt>
      <trkpt lat="48.6156" lon="2.08405">
        <ele>148</ele>
        <time>2010-05-13T07:15:53Z</time>
      </trkpt>
      <trkpt lat="48.61561" lon="2.08402">
        <ele>148</ele>
        <time>2010-05-13T07:15:54Z</time>
      </trkpt>
      <trkpt lat="48.61562" lon="2.08399">
        <ele>148</ele>
        <time>2010-05-13T07:15:55Z</time>
      </trkpt>
      <trkpt lat="48.61564" lon="2.08397">
        <ele>148</ele>
        <time>2010-05-13T07:15:56Z</time>
      </trkpt>
      <trkpt lat="48.61566" lon="2.08395">
        <ele>148</ele>
        <time>2010-05-13T07:15:56Z</time>
      </trkpt>
      <trkpt lat="48.61566" lon="2.08393">
        <ele>148</ele>
        <time>2010-05-13T07:15:58Z</time>
      </trkpt>
      <trkpt lat="48.61567" lon="2.08391">
        <ele>148</ele>
        <time>2010-05-13T07:15:59Z</time>
      </trkpt>
      <trkpt lat="48.61568" lon="2.08388">
        <ele>148</ele>
        <time>2010-05-13T07:16:00Z</time>
      </trkpt>
      <trkpt lat="48.61567" lon="2.08385">
        <ele>148</ele>
        <time>2010-05-13T07:16:01Z</time>
      </trkpt>
      <trkpt lat="48.61568" lon="2.08383">
        <ele>148</ele>
        <time>2010-05-13T07:16:02Z</time>
      </trkpt>
      <trkpt lat="48.61569" lon="2.08381">
        <ele>148</ele>
        <time>2010-05-13T07:16:03Z</time>
      </trkpt>
      <trkpt lat="48.6157" lon="2.08379">
        <ele>148</ele>
        <time>2010-05-13T07:16:04Z</time>
      </trkpt>
      <trkpt lat="48.61571" lon="2.08377">
        <ele>148</ele>
        <time>2010-05-13T07:16:05Z</time>
      </trkpt>
      <trkpt lat="48.61572" lon="2.08375">
        <ele>148</ele>
        <time>2010-05-13T07:16:06Z</time>
      </trkpt>
      <trkpt lat="48.61573" lon="2.08373">
        <ele>148</ele>
        <time>2010-05-13T07:16:07Z</time>
      </trkpt>
      <trkpt lat="48.61574" lon="2.08371">
        <ele>148</ele>
        <time>2010-05-13T07:16:08Z</time>
      </trkpt>
      <trkpt lat="48.61575" lon="2.0837">
        <ele>148</ele>
        <time>2010-05-13T07:16:09Z</time>
      </trkpt>
      <trkpt lat="48.61576" lon="2.08368">
        <ele>148</ele>
        <time>2010-05-13T07:16:10Z</time>
      </trkpt>
      <trkpt lat="48.61577" lon="2.08366">
        <ele>148</ele>
        <time>2010-05-13T07:16:11Z</time>
      </trkpt>
      <trkpt lat="48.61579" lon="2.08364">
        <ele>148</ele>
        <time>2010-05-13T07:16:12Z</time>
      </trkpt>
      <trkpt lat="48.61579" lon="2.08362">
        <ele>148</ele>
        <time>2010-05-13T07:16:13Z</time>
      </trkpt>
      <trkpt lat="48.6158" lon="2.0836">
        <ele>148</ele>
        <time>2010-05-13T07:16:14Z</time>
      </trkpt>
      <trkpt lat="48.61581" lon="2.08357">
        <ele>148</ele>
        <time>2010-05-13T07:16:16Z</time>
      </trkpt>
      <trkpt lat="48.61582" lon="2.08355">
        <ele>148</ele>
        <time>2010-05-13T07:16:17Z</time>
      </trkpt>
      <trkpt lat="48.61584" lon="2.08351">
        <ele>148</ele>
        <time>2010-05-13T07:16:19Z</time>
      </trkpt>
      <trkpt lat="48.61585" lon="2.0835">
        <ele>148</ele>
        <time>2010-05-13T07:16:20Z</time>
      </trkpt>
      <trkpt lat="48.61587" lon="2.08349">
        <ele>148</ele>
        <time>2010-05-13T07:16:21Z</time>
      </trkpt>
      <trkpt lat="48.61588" lon="2.08346">
        <ele>149</ele>
        <time>2010-05-13T07:16:23Z</time>
      </trkpt>
      <trkpt lat="48.61588" lon="2.08344">
        <ele>150</ele>
        <time>2010-05-13T07:16:24Z</time>
      </trkpt>
      <trkpt lat="48.6159" lon="2.08342">
        <ele>151</ele>
        <time>2010-05-13T07:16:25Z</time>
      </trkpt>
      <trkpt lat="48.61591" lon="2.0834">
        <ele>152</ele>
        <time>2010-05-13T07:16:26Z</time>
      </trkpt>
      <trkpt lat="48.61592" lon="2.08338">
        <ele>154</ele>
        <time>2010-05-13T07:16:28Z</time>
      </trkpt>
      <trkpt lat="48.61594" lon="2.08337">
        <ele>154</ele>
        <time>2010-05-13T07:16:29Z</time>
      </trkpt>
      <trkpt lat="48.61595" lon="2.08333">
        <ele>154</ele>
        <time>2010-05-13T07:16:31Z</time>
      </trkpt>
      <trkpt lat="48.61596" lon="2.08331">
        <ele>154</ele>
        <time>2010-05-13T07:16:32Z</time>
      </trkpt>
      <trkpt lat="48.61597" lon="2.08329">
        <ele>154</ele>
        <time>2010-05-13T07:16:33Z</time>
      </trkpt>
      <trkpt lat="48.61599" lon="2.08327">
        <ele>154</ele>
        <time>2010-05-13T07:16:35Z</time>
      </trkpt>
      <trkpt lat="48.61601" lon="2.08326">
        <ele>154</ele>
        <time>2010-05-13T07:16:36Z</time>
      </trkpt>
      <trkpt lat="48.61603" lon="2.08324">
        <ele>153</ele>
        <time>2010-05-13T07:16:38Z</time>
      </trkpt>
      <trkpt lat="48.61604" lon="2.08322">
        <ele>153</ele>
        <time>2010-05-13T07:16:39Z</time>
      </trkpt>
      <trkpt lat="48.61605" lon="2.0832">
        <ele>153</ele>
        <time>2010-05-13T07:16:40Z</time>
      </trkpt>
      <trkpt lat="48.61607" lon="2.08318">
        <ele>153</ele>
        <time>2010-05-13T07:16:41Z</time>
      </trkpt>
      <trkpt lat="48.61609" lon="2.08317">
        <ele>153</ele>
        <time>2010-05-13T07:16:42Z</time>
      </trkpt>
      <trkpt lat="48.61611" lon="2.08316">
        <ele>153</ele>
        <time>2010-05-13T07:16:42Z</time>
      </trkpt>
      <trkpt lat="48.61613" lon="2.08315">
        <ele>153</ele>
        <time>2010-05-13T07:16:44Z</time>
      </trkpt>
      <trkpt lat="48.61615" lon="2.08313">
        <ele>153</ele>
        <time>2010-05-13T07:16:45Z</time>
      </trkpt>
      <trkpt lat="48.61616" lon="2.08312">
        <ele>153</ele>
        <time>2010-05-13T07:16:45Z</time>
      </trkpt>
      <trkpt lat="48.61618" lon="2.0831">
        <ele>153</ele>
        <time>2010-05-13T07:16:47Z</time>
      </trkpt>
      <trkpt lat="48.61619" lon="2.08308">
        <ele>153</ele>
        <time>2010-05-13T07:16:48Z</time>
      </trkpt>
      <trkpt lat="48.61621" lon="2.08306">
        <ele>153</ele>
        <time>2010-05-13T07:16:49Z</time>
      </trkpt>
      <trkpt lat="48.61622" lon="2.08303">
        <ele>153</ele>
        <time>2010-05-13T07:16:50Z</time>
      </trkpt>
      <trkpt lat="48.61623" lon="2.08301">
        <ele>153</ele>
        <time>2010-05-13T07:16:51Z</time>
      </trkpt>
      <trkpt lat="48.61624" lon="2.083">
        <ele>153</ele>
        <time>2010-05-13T07:16:52Z</time>
      </trkpt>
      <trkpt lat="48.61626" lon="2.08299">
        <ele>153</ele>
        <time>2010-05-13T07:16:53Z</time>
      </trkpt>
      <trkpt lat="48.61627" lon="2.08298">
        <ele>153</ele>
        <time>2010-05-13T07:16:54Z</time>
      </trkpt>
      <trkpt lat="48.61629" lon="2.08296">
        <ele>153</ele>
        <time>2010-05-13T07:16:55Z</time>
      </trkpt>
      <trkpt lat="48.6163" lon="2.08295">
        <ele>153</ele>
        <time>2010-05-13T07:16:56Z</time>
      </trkpt>
      <trkpt lat="48.61632" lon="2.08294">
        <ele>152</ele>
        <time>2010-05-13T07:16:57Z</time>
      </trkpt>
      <trkpt lat="48.61634" lon="2.08294">
        <ele>152</ele>
        <time>2010-05-13T07:16:58Z</time>
      </trkpt>
      <trkpt lat="48.61636" lon="2.08293">
        <ele>152</ele>
        <time>2010-05-13T07:16:59Z</time>
      </trkpt>
      <trkpt lat="48.61638" lon="2.08292">
        <ele>152</ele>
        <time>2010-05-13T07:17:00Z</time>
      </trkpt>
      <trkpt lat="48.61641" lon="2.08292">
        <ele>152</ele>
        <time>2010-05-13T07:17:01Z</time>
      </trkpt>
      <trkpt lat="48.61643" lon="2.08292">
        <ele>152</ele>
        <time>2010-05-13T07:17:02Z</time>
      </trkpt>
      <trkpt lat="48.61645" lon="2.08291">
        <ele>152</ele>
        <time>2010-05-13T07:17:03Z</time>
      </trkpt>
      <trkpt lat="48.61646" lon="2.08289">
        <ele>152</ele>
        <time>2010-05-13T07:17:04Z</time>
      </trkpt>
      <trkpt lat="48.61648" lon="2.08287">
        <ele>153</ele>
        <time>2010-05-13T07:17:05Z</time>
      </trkpt>
      <trkpt lat="48.6165" lon="2.08285">
        <ele>153</ele>
        <time>2010-05-13T07:17:06Z</time>
      </trkpt>
      <trkpt lat="48.61652" lon="2.08282">
        <ele>154</ele>
        <time>2010-05-13T07:17:07Z</time>
      </trkpt>
      <trkpt lat="48.61654" lon="2.08279">
        <ele>154</ele>
        <time>2010-05-13T07:17:08Z</time>
      </trkpt>
      <trkpt lat="48.61656" lon="2.08276">
        <ele>155</ele>
        <time>2010-05-13T07:17:09Z</time>
      </trkpt>
      <trkpt lat="48.61657" lon="2.08274">
        <ele>155</ele>
        <time>2010-05-13T07:17:10Z</time>
      </trkpt>
      <trkpt lat="48.61658" lon="2.08272">
        <ele>156</ele>
        <time>2010-05-13T07:17:11Z</time>
      </trkpt>
      <trkpt lat="48.6166" lon="2.0827">
        <ele>156</ele>
        <time>2010-05-13T07:17:12Z</time>
      </trkpt>
      <trkpt lat="48.61661" lon="2.08269">
        <ele>157</ele>
        <time>2010-05-13T07:17:13Z</time>
      </trkpt>
      <trkpt lat="48.61662" lon="2.08267">
        <ele>157</ele>
        <time>2010-05-13T07:17:14Z</time>
      </trkpt>
      <trkpt lat="48.61664" lon="2.08264">
        <ele>157</ele>
        <time>2010-05-13T07:17:15Z</time>
      </trkpt>
      <trkpt lat="48.61664" lon="2.08261">
        <ele>157</ele>
        <time>2010-05-13T07:17:17Z</time>
      </trkpt>
      <trkpt lat="48.61665" lon="2.08258">
        <ele>157</ele>
        <time>2010-05-13T07:17:18Z</time>
      </trkpt>
      <trkpt lat="48.61667" lon="2.08256">
        <ele>157</ele>
        <time>2010-05-13T07:17:18Z</time>
      </trkpt>
      <trkpt lat="48.61668" lon="2.08254">
        <ele>157</ele>
        <time>2010-05-13T07:17:20Z</time>
      </trkpt>
      <trkpt lat="48.61669" lon="2.08252">
        <ele>157</ele>
        <time>2010-05-13T07:17:21Z</time>
      </trkpt>
      <trkpt lat="48.6167" lon="2.08251">
        <ele>157</ele>
        <time>2010-05-13T07:17:22Z</time>
      </trkpt>
      <trkpt lat="48.61671" lon="2.08249">
        <ele>157</ele>
        <time>2010-05-13T07:17:23Z</time>
      </trkpt>
      <trkpt lat="48.61672" lon="2.08246">
        <ele>157</ele>
        <time>2010-05-13T07:17:24Z</time>
      </trkpt>
      <trkpt lat="48.61673" lon="2.08244">
        <ele>157</ele>
        <time>2010-05-13T07:17:25Z</time>
      </trkpt>
      <trkpt lat="48.61674" lon="2.08242">
        <ele>157</ele>
        <time>2010-05-13T07:17:25Z</time>
      </trkpt>
      <trkpt lat="48.61675" lon="2.0824">
        <ele>157</ele>
        <time>2010-05-13T07:17:26Z</time>
      </trkpt>
      <trkpt lat="48.61675" lon="2.08238">
        <ele>157</ele>
        <time>2010-05-13T07:17:28Z</time>
      </trkpt>
      <trkpt lat="48.61677" lon="2.08237">
        <ele>157</ele>
        <time>2010-05-13T07:17:29Z</time>
      </trkpt>
      <trkpt lat="48.61679" lon="2.08235">
        <ele>157</ele>
        <time>2010-05-13T07:17:30Z</time>
      </trkpt>
      <trkpt lat="48.61681" lon="2.08233">
        <ele>157</ele>
        <time>2010-05-13T07:17:32Z</time>
      </trkpt>
      <trkpt lat="48.61682" lon="2.08232">
        <ele>157</ele>
        <time>2010-05-13T07:17:33Z</time>
      </trkpt>
      <trkpt lat="48.61683" lon="2.08231">
        <ele>157</ele>
        <time>2010-05-13T07:17:34Z</time>
      </trkpt>
      <trkpt lat="48.61685" lon="2.0823">
        <ele>156</ele>
        <time>2010-05-13T07:17:36Z</time>
      </trkpt>
      <trkpt lat="48.61687" lon="2.08228">
        <ele>155</ele>
        <time>2010-05-13T07:17:37Z</time>
      </trkpt>
      <trkpt lat="48.61688" lon="2.08226">
        <ele>155</ele>
        <time>2010-05-13T07:17:38Z</time>
      </trkpt>
      <trkpt lat="48.61691" lon="2.08224">
        <ele>154</ele>
        <time>2010-05-13T07:17:40Z</time>
      </trkpt>
      <trkpt lat="48.61692" lon="2.08223">
        <ele>154</ele>
        <time>2010-05-13T07:17:41Z</time>
      </trkpt>
      <trkpt lat="48.61694" lon="2.08221">
        <ele>154</ele>
        <time>2010-05-13T07:17:43Z</time>
      </trkpt>
      <trkpt lat="48.61696" lon="2.08221">
        <ele>154</ele>
        <time>2010-05-13T07:17:44Z</time>
      </trkpt>
      <trkpt lat="48.61698" lon="2.0822">
        <ele>154</ele>
        <time>2010-05-13T07:17:45Z</time>
      </trkpt>
      <trkpt lat="48.61699" lon="2.08218">
        <ele>154</ele>
        <time>2010-05-13T07:17:46Z</time>
      </trkpt>
      <trkpt lat="48.61701" lon="2.08216">
        <ele>155</ele>
        <time>2010-05-13T07:17:49Z</time>
      </trkpt>
      <trkpt lat="48.61703" lon="2.08215">
        <ele>155</ele>
        <time>2010-05-13T07:17:50Z</time>
      </trkpt>
      <trkpt lat="48.61704" lon="2.08213">
        <ele>156</ele>
        <time>2010-05-13T07:17:51Z</time>
      </trkpt>
      <trkpt lat="48.61706" lon="2.0821">
        <ele>157</ele>
        <time>2010-05-13T07:17:52Z</time>
      </trkpt>
      <trkpt lat="48.61708" lon="2.08208">
        <ele>157</ele>
        <time>2010-05-13T07:17:54Z</time>
      </trkpt>
      <trkpt lat="48.61709" lon="2.08205">
        <ele>158</ele>
        <time>2010-05-13T07:17:55Z</time>
      </trkpt>
      <trkpt lat="48.6171" lon="2.08202">
        <ele>158</ele>
        <time>2010-05-13T07:17:56Z</time>
      </trkpt>
      <trkpt lat="48.61711" lon="2.082">
        <ele>158</ele>
        <time>2010-05-13T07:17:57Z</time>
      </trkpt>
      <trkpt lat="48.61711" lon="2.08197">
        <ele>158</ele>
        <time>2010-05-13T07:17:58Z</time>
      </trkpt>
      <trkpt lat="48.61711" lon="2.08195">
        <ele>158</ele>
        <time>2010-05-13T07:17:59Z</time>
      </trkpt>
      <trkpt lat="48.61712" lon="2.08192">
        <ele>158</ele>
        <time>2010-05-13T07:18:00Z</time>
      </trkpt>
      <trkpt lat="48.61711" lon="2.08188">
        <ele>158</ele>
        <time>2010-05-13T07:18:01Z</time>
      </trkpt>
      <trkpt lat="48.61712" lon="2.08181">
        <ele>158</ele>
        <time>2010-05-13T07:18:03Z</time>
      </trkpt>
      <trkpt lat="48.61712" lon="2.08178">
        <ele>158</ele>
        <time>2010-05-13T07:18:05Z</time>
      </trkpt>
      <trkpt lat="48.61713" lon="2.08175">
        <ele>159</ele>
        <time>2010-05-13T07:18:05Z</time>
      </trkpt>
      <trkpt lat="48.61713" lon="2.08172">
        <ele>160</ele>
        <time>2010-05-13T07:18:07Z</time>
      </trkpt>
      <trkpt lat="48.61712" lon="2.08167">
        <ele>161</ele>
        <time>2010-05-13T07:18:08Z</time>
      </trkpt>
      <trkpt lat="48.61713" lon="2.08165">
        <ele>162</ele>
        <time>2010-05-13T07:18:09Z</time>
      </trkpt>
      <trkpt lat="48.61714" lon="2.08163">
        <ele>162</ele>
        <time>2010-05-13T07:18:10Z</time>
      </trkpt>
      <trkpt lat="48.61714" lon="2.0816">
        <ele>162</ele>
        <time>2010-05-13T07:18:11Z</time>
      </trkpt>
      <trkpt lat="48.61714" lon="2.08158">
        <ele>162</ele>
        <time>2010-05-13T07:18:12Z</time>
      </trkpt>
      <trkpt lat="48.61715" lon="2.08156">
        <ele>162</ele>
        <time>2010-05-13T07:18:13Z</time>
      </trkpt>
      <trkpt lat="48.61716" lon="2.08153">
        <ele>162</ele>
        <time>2010-05-13T07:18:14Z</time>
      </trkpt>
      <trkpt lat="48.61716" lon="2.0815">
        <ele>162</ele>
        <time>2010-05-13T07:18:15Z</time>
      </trkpt>
      <trkpt lat="48.61716" lon="2.08147">
        <ele>162</ele>
        <time>2010-05-13T07:18:16Z</time>
      </trkpt>
      <trkpt lat="48.61715" lon="2.08145">
        <ele>162</ele>
        <time>2010-05-13T07:18:17Z</time>
      </trkpt>
      <trkpt lat="48.61716" lon="2.08143">
        <ele>162</ele>
        <time>2010-05-13T07:18:18Z</time>
      </trkpt>
      <trkpt lat="48.61717" lon="2.08141">
        <ele>162</ele>
        <time>2010-05-13T07:18:19Z</time>
      </trkpt>
      <trkpt lat="48.61717" lon="2.08139">
        <ele>162</ele>
        <time>2010-05-13T07:18:20Z</time>
      </trkpt>
      <trkpt lat="48.61719" lon="2.08135">
        <ele>163</ele>
        <time>2010-05-13T07:18:22Z</time>
      </trkpt>
      <trkpt lat="48.61719" lon="2.08133">
        <ele>164</ele>
        <time>2010-05-13T07:18:23Z</time>
      </trkpt>
      <trkpt lat="48.6172" lon="2.0813">
        <ele>166</ele>
        <time>2010-05-13T07:18:25Z</time>
      </trkpt>
      <trkpt lat="48.61721" lon="2.08128">
        <ele>166</ele>
        <time>2010-05-13T07:18:26Z</time>
      </trkpt>
      <trkpt lat="48.6172" lon="2.08126">
        <ele>167</ele>
        <time>2010-05-13T07:18:27Z</time>
      </trkpt>
      <trkpt lat="48.61721" lon="2.08124">
        <ele>167</ele>
        <time>2010-05-13T07:18:28Z</time>
      </trkpt>
      <trkpt lat="48.61722" lon="2.0812">
        <ele>167</ele>
        <time>2010-05-13T07:18:29Z</time>
      </trkpt>
      <trkpt lat="48.61722" lon="2.08116">
        <ele>167</ele>
        <time>2010-05-13T07:18:31Z</time>
      </trkpt>
      <trkpt lat="48.61722" lon="2.08113">
        <ele>167</ele>
        <time>2010-05-13T07:18:32Z</time>
      </trkpt>
      <trkpt lat="48.61722" lon="2.08111">
        <ele>167</ele>
        <time>2010-05-13T07:18:33Z</time>
      </trkpt>
      <trkpt lat="48.61721" lon="2.08109">
        <ele>167</ele>
        <time>2010-05-13T07:18:34Z</time>
      </trkpt>
      <trkpt lat="48.61721" lon="2.08105">
        <ele>167</ele>
        <time>2010-05-13T07:18:36Z</time>
      </trkpt>
      <trkpt lat="48.61721" lon="2.08102">
        <ele>167</ele>
        <time>2010-05-13T07:18:39Z</time>
      </trkpt>
      <trkpt lat="48.6172" lon="2.08097">
        <ele>167</ele>
        <time>2010-05-13T07:18:40Z</time>
      </trkpt>
      <trkpt lat="48.6172" lon="2.08093">
        <ele>167</ele>
        <time>2010-05-13T07:18:41Z</time>
      </trkpt>
      <trkpt lat="48.61721" lon="2.08088">
        <ele>167</ele>
        <time>2010-05-13T07:18:42Z</time>
      </trkpt>
      <trkpt lat="48.61721" lon="2.08085">
        <ele>168</ele>
        <time>2010-05-13T07:18:43Z</time>
      </trkpt>
      <trkpt lat="48.61721" lon="2.08082">
        <ele>168</ele>
        <time>2010-05-13T07:18:44Z</time>
      </trkpt>
      <trkpt lat="48.61722" lon="2.08079">
        <ele>169</ele>
        <time>2010-05-13T07:18:45Z</time>
      </trkpt>
      <trkpt lat="48.61721" lon="2.08075">
        <ele>169</ele>
        <time>2010-05-13T07:18:47Z</time>
      </trkpt>
      <trkpt lat="48.6172" lon="2.08073">
        <ele>169</ele>
        <time>2010-05-13T07:18:49Z</time>
      </trkpt>
      <trkpt lat="48.6172" lon="2.08071">
        <ele>166</ele>
        <time>2010-05-13T07:18:52Z</time>
      </trkpt>
      <trkpt lat="48.61719" lon="2.08071">
        <ele>165</ele>
        <time>2010-05-13T07:18:53Z</time>
      </trkpt>
      <trkpt lat="48.61721" lon="2.08065">
        <ele>159</ele>
        <time>2010-05-13T07:19:01Z</time>
      </trkpt>
      <trkpt lat="48.61722" lon="2.08061">
        <ele>159</ele>
        <time>2010-05-13T07:19:02Z</time>
      </trkpt>
      <trkpt lat="48.61722" lon="2.08059">
        <ele>159</ele>
        <time>2010-05-13T07:19:03Z</time>
      </trkpt>
      <trkpt lat="48.61723" lon="2.08056">
        <ele>159</ele>
        <time>2010-05-13T07:19:04Z</time>
      </trkpt>
      <trkpt lat="48.61723" lon="2.08053">
        <ele>159</ele>
        <time>2010-05-13T07:19:05Z</time>
      </trkpt>
      <trkpt lat="48.61724" lon="2.08051">
        <ele>159</ele>
        <time>2010-05-13T07:19:06Z</time>
      </trkpt>
      <trkpt lat="48.61725" lon="2.08049">
        <ele>159</ele>
        <time>2010-05-13T07:19:07Z</time>
      </trkpt>
      <trkpt lat="48.61725" lon="2.08047">
        <ele>159</ele>
        <time>2010-05-13T07:19:08Z</time>
      </trkpt>
      <trkpt lat="48.61726" lon="2.08045">
        <ele>159</ele>
        <time>2010-05-13T07:19:09Z</time>
      </trkpt>
      <trkpt lat="48.61726" lon="2.08043">
        <ele>159</ele>
        <time>2010-05-13T07:19:09Z</time>
      </trkpt>
      <trkpt lat="48.61726" lon="2.08041">
        <ele>159</ele>
        <time>2010-05-13T07:19:11Z</time>
      </trkpt>
      <trkpt lat="48.61726" lon="2.08038">
        <ele>159</ele>
        <time>2010-05-13T07:19:13Z</time>
      </trkpt>
      <trkpt lat="48.61727" lon="2.08036">
        <ele>159</ele>
        <time>2010-05-13T07:19:15Z</time>
      </trkpt>
      <trkpt lat="48.61728" lon="2.08034">
        <ele>159</ele>
        <time>2010-05-13T07:19:16Z</time>
      </trkpt>
      <trkpt lat="48.61728" lon="2.08032">
        <ele>159</ele>
        <time>2010-05-13T07:19:16Z</time>
      </trkpt>
      <trkpt lat="48.61728" lon="2.0803">
        <ele>159</ele>
        <time>2010-05-13T07:19:18Z</time>
      </trkpt>
      <trkpt lat="48.61728" lon="2.08028">
        <ele>159</ele>
        <time>2010-05-13T07:19:18Z</time>
      </trkpt>
      <trkpt lat="48.61728" lon="2.08025">
        <ele>159</ele>
        <time>2010-05-13T07:19:20Z</time>
      </trkpt>
      <trkpt lat="48.61729" lon="2.08023">
        <ele>159</ele>
        <time>2010-05-13T07:19:21Z</time>
      </trkpt>
      <trkpt lat="48.61729" lon="2.08021">
        <ele>159</ele>
        <time>2010-05-13T07:19:22Z</time>
      </trkpt>
      <trkpt lat="48.61729" lon="2.08018">
        <ele>159</ele>
        <time>2010-05-13T07:19:23Z</time>
      </trkpt>
      <trkpt lat="48.6173" lon="2.08016">
        <ele>159</ele>
        <time>2010-05-13T07:19:24Z</time>
      </trkpt>
      <trkpt lat="48.61731" lon="2.08014">
        <ele>159</ele>
        <time>2010-05-13T07:19:24Z</time>
      </trkpt>
      <trkpt lat="48.61732" lon="2.08012">
        <ele>159</ele>
        <time>2010-05-13T07:19:26Z</time>
      </trkpt>
      <trkpt lat="48.61733" lon="2.08009">
        <ele>159</ele>
        <time>2010-05-13T07:19:27Z</time>
      </trkpt>
      <trkpt lat="48.61733" lon="2.08006">
        <ele>159</ele>
        <time>2010-05-13T07:19:28Z</time>
      </trkpt>
      <trkpt lat="48.61734" lon="2.08004">
        <ele>160</ele>
        <time>2010-05-13T07:19:29Z</time>
      </trkpt>
      <trkpt lat="48.61735" lon="2.08002">
        <ele>161</ele>
        <time>2010-05-13T07:19:30Z</time>
      </trkpt>
      <trkpt lat="48.61736" lon="2.08">
        <ele>162</ele>
        <time>2010-05-13T07:19:31Z</time>
      </trkpt>
      <trkpt lat="48.61736" lon="2.07996">
        <ele>162</ele>
        <time>2010-05-13T07:19:33Z</time>
      </trkpt>
      <trkpt lat="48.61738" lon="2.07994">
        <ele>162</ele>
        <time>2010-05-13T07:19:34Z</time>
      </trkpt>
      <trkpt lat="48.61738" lon="2.07991">
        <ele>162</ele>
        <time>2010-05-13T07:19:34Z</time>
      </trkpt>
      <trkpt lat="48.61739" lon="2.07989">
        <ele>162</ele>
        <time>2010-05-13T07:19:35Z</time>
      </trkpt>
      <trkpt lat="48.6174" lon="2.07987">
        <ele>162</ele>
        <time>2010-05-13T07:19:37Z</time>
      </trkpt>
      <trkpt lat="48.6174" lon="2.07985">
        <ele>162</ele>
        <time>2010-05-13T07:19:38Z</time>
      </trkpt>
      <trkpt lat="48.61741" lon="2.07983">
        <ele>162</ele>
        <time>2010-05-13T07:19:39Z</time>
      </trkpt>
      <trkpt lat="48.61742" lon="2.0798">
        <ele>162</ele>
        <time>2010-05-13T07:19:40Z</time>
      </trkpt>
      <trkpt lat="48.61742" lon="2.07979">
        <ele>162</ele>
        <time>2010-05-13T07:19:40Z</time>
      </trkpt>
      <trkpt lat="48.61744" lon="2.07976">
        <ele>162</ele>
        <time>2010-05-13T07:19:42Z</time>
      </trkpt>
      <trkpt lat="48.61745" lon="2.07974">
        <ele>162</ele>
        <time>2010-05-13T07:19:43Z</time>
      </trkpt>
      <trkpt lat="48.61747" lon="2.07971">
        <ele>162</ele>
        <time>2010-05-13T07:19:44Z</time>
      </trkpt>
      <trkpt lat="48.61748" lon="2.07969">
        <ele>162</ele>
        <time>2010-05-13T07:19:45Z</time>
      </trkpt>
      <trkpt lat="48.61748" lon="2.07967">
        <ele>162</ele>
        <time>2010-05-13T07:19:46Z</time>
      </trkpt>
      <trkpt lat="48.61749" lon="2.07965">
        <ele>162</ele>
        <time>2010-05-13T07:19:47Z</time>
      </trkpt>
      <trkpt lat="48.61751" lon="2.07962">
        <ele>162</ele>
        <time>2010-05-13T07:19:49Z</time>
      </trkpt>
      <trkpt lat="48.61752" lon="2.0796">
        <ele>162</ele>
        <time>2010-05-13T07:19:50Z</time>
      </trkpt>
      <trkpt lat="48.61753" lon="2.07957">
        <ele>162</ele>
        <time>2010-05-13T07:19:51Z</time>
      </trkpt>
      <trkpt lat="48.61753" lon="2.07955">
        <ele>162</ele>
        <time>2010-05-13T07:19:52Z</time>
      </trkpt>
      <trkpt lat="48.61754" lon="2.07953">
        <ele>162</ele>
        <time>2010-05-13T07:19:53Z</time>
      </trkpt>
      <trkpt lat="48.61757" lon="2.07952">
        <ele>162</ele>
        <time>2010-05-13T07:19:55Z</time>
      </trkpt>
      <trkpt lat="48.61759" lon="2.07948">
        <ele>162</ele>
        <time>2010-05-13T07:19:57Z</time>
      </trkpt>
      <trkpt lat="48.61759" lon="2.07946">
        <ele>162</ele>
        <time>2010-05-13T07:19:58Z</time>
      </trkpt>
      <trkpt lat="48.61761" lon="2.07942">
        <ele>162</ele>
        <time>2010-05-13T07:20:00Z</time>
      </trkpt>
      <trkpt lat="48.61763" lon="2.07935">
        <ele>162</ele>
        <time>2010-05-13T07:20:02Z</time>
      </trkpt>
      <trkpt lat="48.61766" lon="2.07929">
        <ele>162</ele>
        <time>2010-05-13T07:20:04Z</time>
      </trkpt>
      <trkpt lat="48.61767" lon="2.07925">
        <ele>162</ele>
        <time>2010-05-13T07:20:05Z</time>
      </trkpt>
      <trkpt lat="48.61768" lon="2.07923">
        <ele>162</ele>
        <time>2010-05-13T07:20:06Z</time>
      </trkpt>
      <trkpt lat="48.6177" lon="2.07921">
        <ele>162</ele>
        <time>2010-05-13T07:20:06Z</time>
      </trkpt>
      <trkpt lat="48.61771" lon="2.07919">
        <ele>162</ele>
        <time>2010-05-13T07:20:08Z</time>
      </trkpt>
      <trkpt lat="48.61772" lon="2.07918">
        <ele>162</ele>
        <time>2010-05-13T07:20:09Z</time>
      </trkpt>
      <trkpt lat="48.61773" lon="2.07916">
        <ele>162</ele>
        <time>2010-05-13T07:20:10Z</time>
      </trkpt>
      <trkpt lat="48.61774" lon="2.07912">
        <ele>162</ele>
        <time>2010-05-13T07:20:12Z</time>
      </trkpt>
      <trkpt lat="48.61776" lon="2.0791">
        <ele>162</ele>
        <time>2010-05-13T07:20:14Z</time>
      </trkpt>
      <trkpt lat="48.61776" lon="2.07908">
        <ele>162</ele>
        <time>2010-05-13T07:20:14Z</time>
      </trkpt>
      <trkpt lat="48.61777" lon="2.07906">
        <ele>162</ele>
        <time>2010-05-13T07:20:16Z</time>
      </trkpt>
      <trkpt lat="48.61778" lon="2.07904">
        <ele>162</ele>
        <time>2010-05-13T07:20:16Z</time>
      </trkpt>
      <trkpt lat="48.61779" lon="2.07902">
        <ele>162</ele>
        <time>2010-05-13T07:20:18Z</time>
      </trkpt>
      <trkpt lat="48.61779" lon="2.079">
        <ele>162</ele>
        <time>2010-05-13T07:20:19Z</time>
      </trkpt>
      <trkpt lat="48.6178" lon="2.07897">
        <ele>162</ele>
        <time>2010-05-13T07:20:20Z</time>
      </trkpt>
      <trkpt lat="48.61782" lon="2.07895">
        <ele>162</ele>
        <time>2010-05-13T07:20:21Z</time>
      </trkpt>
      <trkpt lat="48.61782" lon="2.07893">
        <ele>162</ele>
        <time>2010-05-13T07:20:22Z</time>
      </trkpt>
      <trkpt lat="48.61783" lon="2.07891">
        <ele>162</ele>
        <time>2010-05-13T07:20:23Z</time>
      </trkpt>
      <trkpt lat="48.61784" lon="2.0789">
        <ele>161</ele>
        <time>2010-05-13T07:20:24Z</time>
      </trkpt>
      <trkpt lat="48.61785" lon="2.07887">
        <ele>161</ele>
        <time>2010-05-13T07:20:25Z</time>
      </trkpt>
      <trkpt lat="48.61786" lon="2.07885">
        <ele>161</ele>
        <time>2010-05-13T07:20:26Z</time>
      </trkpt>
      <trkpt lat="48.61786" lon="2.07884">
        <ele>161</ele>
        <time>2010-05-13T07:20:27Z</time>
      </trkpt>
      <trkpt lat="48.61787" lon="2.07882">
        <ele>161</ele>
        <time>2010-05-13T07:20:28Z</time>
      </trkpt>
      <trkpt lat="48.61788" lon="2.07879">
        <ele>161</ele>
        <time>2010-05-13T07:20:29Z</time>
      </trkpt>
      <trkpt lat="48.61788" lon="2.07877">
        <ele>161</ele>
        <time>2010-05-13T07:20:30Z</time>
      </trkpt>
      <trkpt lat="48.6179" lon="2.07875">
        <ele>161</ele>
        <time>2010-05-13T07:20:32Z</time>
      </trkpt>
      <trkpt lat="48.61791" lon="2.07871">
        <ele>161</ele>
        <time>2010-05-13T07:20:34Z</time>
      </trkpt>
      <trkpt lat="48.61791" lon="2.07869">
        <ele>161</ele>
        <time>2010-05-13T07:20:35Z</time>
      </trkpt>
      <trkpt lat="48.61792" lon="2.07868">
        <ele>161</ele>
        <time>2010-05-13T07:20:36Z</time>
      </trkpt>
      <trkpt lat="48.61793" lon="2.07865">
        <ele>161</ele>
        <time>2010-05-13T07:20:38Z</time>
      </trkpt>
      <trkpt lat="48.61796" lon="2.07861">
        <ele>161</ele>
        <time>2010-05-13T07:20:40Z</time>
      </trkpt>
      <trkpt lat="48.61798" lon="2.07857">
        <ele>161</ele>
        <time>2010-05-13T07:20:42Z</time>
      </trkpt>
      <trkpt lat="48.618" lon="2.07854">
        <ele>161</ele>
        <time>2010-05-13T07:20:43Z</time>
      </trkpt>
      <trkpt lat="48.61801" lon="2.07851">
        <ele>162</ele>
        <time>2010-05-13T07:20:43Z</time>
      </trkpt>
      <trkpt lat="48.61802" lon="2.07849">
        <ele>163</ele>
        <time>2010-05-13T07:20:45Z</time>
      </trkpt>
      <trkpt lat="48.61803" lon="2.07847">
        <ele>164</ele>
        <time>2010-05-13T07:20:46Z</time>
      </trkpt>
      <trkpt lat="48.61803" lon="2.07845">
        <ele>165</ele>
        <time>2010-05-13T07:20:47Z</time>
      </trkpt>
      <trkpt lat="48.61804" lon="2.07843">
        <ele>166</ele>
        <time>2010-05-13T07:20:48Z</time>
      </trkpt>
      <trkpt lat="48.61806" lon="2.07841">
        <ele>167</ele>
        <time>2010-05-13T07:20:49Z</time>
      </trkpt>
      <trkpt lat="48.61807" lon="2.07839">
        <ele>168</ele>
        <time>2010-05-13T07:20:50Z</time>
      </trkpt>
      <trkpt lat="48.61809" lon="2.07838">
        <ele>168</ele>
        <time>2010-05-13T07:20:51Z</time>
      </trkpt>
      <trkpt lat="48.61811" lon="2.07836">
        <ele>168</ele>
        <time>2010-05-13T07:20:52Z</time>
      </trkpt>
      <trkpt lat="48.61812" lon="2.07834">
        <ele>168</ele>
        <time>2010-05-13T07:20:53Z</time>
      </trkpt>
      <trkpt lat="48.61814" lon="2.07831">
        <ele>168</ele>
        <time>2010-05-13T07:20:54Z</time>
      </trkpt>
      <trkpt lat="48.61816" lon="2.07828">
        <ele>168</ele>
        <time>2010-05-13T07:20:56Z</time>
      </trkpt>
      <trkpt lat="48.61817" lon="2.07826">
        <ele>168</ele>
        <time>2010-05-13T07:20:57Z</time>
      </trkpt>
      <trkpt lat="48.61819" lon="2.07824">
        <ele>168</ele>
        <time>2010-05-13T07:20:58Z</time>
      </trkpt>
      <trkpt lat="48.6182" lon="2.07822">
        <ele>168</ele>
        <time>2010-05-13T07:20:59Z</time>
      </trkpt>
      <trkpt lat="48.61821" lon="2.07818">
        <ele>168</ele>
        <time>2010-05-13T07:21:01Z</time>
      </trkpt>
      <trkpt lat="48.61821" lon="2.07816">
        <ele>168</ele>
        <time>2010-05-13T07:21:02Z</time>
      </trkpt>
      <trkpt lat="48.61822" lon="2.07814">
        <ele>168</ele>
        <time>2010-05-13T07:21:03Z</time>
      </trkpt>
      <trkpt lat="48.61823" lon="2.07812">
        <ele>168</ele>
        <time>2010-05-13T07:21:04Z</time>
      </trkpt>
      <trkpt lat="48.61824" lon="2.0781">
        <ele>168</ele>
        <time>2010-05-13T07:21:05Z</time>
      </trkpt>
      <trkpt lat="48.61825" lon="2.07808">
        <ele>169</ele>
        <time>2010-05-13T07:21:06Z</time>
      </trkpt>
      <trkpt lat="48.61827" lon="2.07802">
        <ele>170</ele>
        <time>2010-05-13T07:21:09Z</time>
      </trkpt>
      <trkpt lat="48.61831" lon="2.07801">
        <ele>171</ele>
        <time>2010-05-13T07:21:10Z</time>
      </trkpt>
      <trkpt lat="48.61833" lon="2.07798">
        <ele>171</ele>
        <time>2010-05-13T07:21:11Z</time>
      </trkpt>
      <trkpt lat="48.61834" lon="2.07795">
        <ele>171</ele>
        <time>2010-05-13T07:21:12Z</time>
      </trkpt>
      <trkpt lat="48.61835" lon="2.07792">
        <ele>171</ele>
        <time>2010-05-13T07:21:13Z</time>
      </trkpt>
      <trkpt lat="48.61839" lon="2.07784">
        <ele>171</ele>
        <time>2010-05-13T07:21:17Z</time>
      </trkpt>
      <trkpt lat="48.61842" lon="2.07781">
        <ele>171</ele>
        <time>2010-05-13T07:21:18Z</time>
      </trkpt>
      <trkpt lat="48.61841" lon="2.07777">
        <ele>171</ele>
        <time>2010-05-13T07:21:19Z</time>
      </trkpt>
      <trkpt lat="48.61844" lon="2.07772">
        <ele>171</ele>
        <time>2010-05-13T07:21:20Z</time>
      </trkpt>
      <trkpt lat="48.61845" lon="2.0777">
        <ele>171</ele>
        <time>2010-05-13T07:21:21Z</time>
      </trkpt>
      <trkpt lat="48.61845" lon="2.07768">
        <ele>171</ele>
        <time>2010-05-13T07:21:22Z</time>
      </trkpt>
      <trkpt lat="48.61846" lon="2.07766">
        <ele>170</ele>
        <time>2010-05-13T07:21:24Z</time>
      </trkpt>
      <trkpt lat="48.61846" lon="2.07762">
        <ele>170</ele>
        <time>2010-05-13T07:21:25Z</time>
      </trkpt>
      <trkpt lat="48.61846" lon="2.0776">
        <ele>169</ele>
        <time>2010-05-13T07:21:27Z</time>
      </trkpt>
      <trkpt lat="48.61847" lon="2.07757">
        <ele>169</ele>
        <time>2010-05-13T07:21:28Z</time>
      </trkpt>
      <trkpt lat="48.61847" lon="2.07754">
        <ele>169</ele>
        <time>2010-05-13T07:21:29Z</time>
      </trkpt>
      <trkpt lat="48.61848" lon="2.07752">
        <ele>169</ele>
        <time>2010-05-13T07:21:30Z</time>
      </trkpt>
      <trkpt lat="48.61849" lon="2.0775">
        <ele>169</ele>
        <time>2010-05-13T07:21:30Z</time>
      </trkpt>
      <trkpt lat="48.6185" lon="2.07748">
        <ele>169</ele>
        <time>2010-05-13T07:21:32Z</time>
      </trkpt>
      <trkpt lat="48.61852" lon="2.07745">
        <ele>169</ele>
        <time>2010-05-13T07:21:34Z</time>
      </trkpt>
      <trkpt lat="48.61853" lon="2.07744">
        <ele>169</ele>
        <time>2010-05-13T07:21:35Z</time>
      </trkpt>
      <trkpt lat="48.61854" lon="2.07742">
        <ele>169</ele>
        <time>2010-05-13T07:21:36Z</time>
      </trkpt>
      <trkpt lat="48.61856" lon="2.07736">
        <ele>169</ele>
        <time>2010-05-13T07:21:38Z</time>
      </trkpt>
      <trkpt lat="48.61857" lon="2.07734">
        <ele>169</ele>
        <time>2010-05-13T07:21:40Z</time>
      </trkpt>
      <trkpt lat="48.61858" lon="2.0773">
        <ele>169</ele>
        <time>2010-05-13T07:21:41Z</time>
      </trkpt>
      <trkpt lat="48.61859" lon="2.07728">
        <ele>169</ele>
        <time>2010-05-13T07:21:42Z</time>
      </trkpt>
      <trkpt lat="48.6186" lon="2.07724">
        <ele>169</ele>
        <time>2010-05-13T07:21:44Z</time>
      </trkpt>
      <trkpt lat="48.61861" lon="2.07722">
        <ele>168</ele>
        <time>2010-05-13T07:21:45Z</time>
      </trkpt>
      <trkpt lat="48.61862" lon="2.0772">
        <ele>166</ele>
        <time>2010-05-13T07:21:47Z</time>
      </trkpt>
      <trkpt lat="48.61862" lon="2.07718">
        <ele>165</ele>
        <time>2010-05-13T07:21:48Z</time>
      </trkpt>
      <trkpt lat="48.61863" lon="2.07717">
        <ele>164</ele>
        <time>2010-05-13T07:21:49Z</time>
      </trkpt>
      <trkpt lat="48.61865" lon="2.07713">
        <ele>163</ele>
        <time>2010-05-13T07:21:51Z</time>
      </trkpt>
      <trkpt lat="48.61864" lon="2.07709">
        <ele>163</ele>
        <time>2010-05-13T07:21:52Z</time>
      </trkpt>
      <trkpt lat="48.61865" lon="2.07707">
        <ele>163</ele>
        <time>2010-05-13T07:21:54Z</time>
      </trkpt>
      <trkpt lat="48.61866" lon="2.07705">
        <ele>163</ele>
        <time>2010-05-13T07:21:55Z</time>
      </trkpt>
      <trkpt lat="48.61866" lon="2.07703">
        <ele>163</ele>
        <time>2010-05-13T07:21:56Z</time>
      </trkpt>
      <trkpt lat="48.61868" lon="2.077">
        <ele>163</ele>
        <time>2010-05-13T07:21:58Z</time>
      </trkpt>
      <trkpt lat="48.61869" lon="2.07698">
        <ele>163</ele>
        <time>2010-05-13T07:21:59Z</time>
      </trkpt>
      <trkpt lat="48.61871" lon="2.07695">
        <ele>163</ele>
        <time>2010-05-13T07:22:00Z</time>
      </trkpt>
      <trkpt lat="48.61872" lon="2.07694">
        <ele>163</ele>
        <time>2010-05-13T07:22:01Z</time>
      </trkpt>
      <trkpt lat="48.61873" lon="2.07691">
        <ele>163</ele>
        <time>2010-05-13T07:22:02Z</time>
      </trkpt>
      <trkpt lat="48.61875" lon="2.07689">
        <ele>163</ele>
        <time>2010-05-13T07:22:03Z</time>
      </trkpt>
      <trkpt lat="48.61876" lon="2.07687">
        <ele>163</ele>
        <time>2010-05-13T07:22:04Z</time>
      </trkpt>
      <trkpt lat="48.61877" lon="2.07685">
        <ele>163</ele>
        <time>2010-05-13T07:22:05Z</time>
      </trkpt>
      <trkpt lat="48.61877" lon="2.07681">
        <ele>163</ele>
        <time>2010-05-13T07:22:06Z</time>
      </trkpt>
      <trkpt lat="48.61878" lon="2.07679">
        <ele>163</ele>
        <time>2010-05-13T07:22:08Z</time>
      </trkpt>
      <trkpt lat="48.61877" lon="2.07677">
        <ele>164</ele>
        <time>2010-05-13T07:22:09Z</time>
      </trkpt>
      <trkpt lat="48.61877" lon="2.07675">
        <ele>165</ele>
        <time>2010-05-13T07:22:10Z</time>
      </trkpt>
      <trkpt lat="48.61878" lon="2.07673">
        <ele>167</ele>
        <time>2010-05-13T07:22:12Z</time>
      </trkpt>
      <trkpt lat="48.6188" lon="2.0767">
        <ele>168</ele>
        <time>2010-05-13T07:22:14Z</time>
      </trkpt>
      <trkpt lat="48.61881" lon="2.07664">
        <ele>168</ele>
        <time>2010-05-13T07:22:17Z</time>
      </trkpt>
      <trkpt lat="48.61883" lon="2.07658">
        <ele>168</ele>
        <time>2010-05-13T07:22:21Z</time>
      </trkpt>
      <trkpt lat="48.61884" lon="2.07652">
        <ele>168</ele>
        <time>2010-05-13T07:22:22Z</time>
      </trkpt>
      <trkpt lat="48.61886" lon="2.07649">
        <ele>168</ele>
        <time>2010-05-13T07:22:23Z</time>
      </trkpt>
      <trkpt lat="48.61887" lon="2.07646">
        <ele>168</ele>
        <time>2010-05-13T07:22:24Z</time>
      </trkpt>
      <trkpt lat="48.61888" lon="2.07643">
        <ele>168</ele>
        <time>2010-05-13T07:22:25Z</time>
      </trkpt>
      <trkpt lat="48.61889" lon="2.0764">
        <ele>168</ele>
        <time>2010-05-13T07:22:26Z</time>
      </trkpt>
      <trkpt lat="48.6189" lon="2.07637">
        <ele>168</ele>
        <time>2010-05-13T07:22:27Z</time>
      </trkpt>
      <trkpt lat="48.61891" lon="2.07634">
        <ele>168</ele>
        <time>2010-05-13T07:22:28Z</time>
      </trkpt>
      <trkpt lat="48.61892" lon="2.07633">
        <ele>168</ele>
        <time>2010-05-13T07:22:29Z</time>
      </trkpt>
      <trkpt lat="48.61897" lon="2.07626">
        <ele>168</ele>
        <time>2010-05-13T07:22:33Z</time>
      </trkpt>
      <trkpt lat="48.619" lon="2.07623">
        <ele>168</ele>
        <time>2010-05-13T07:22:34Z</time>
      </trkpt>
      <trkpt lat="48.61901" lon="2.07619">
        <ele>168</ele>
        <time>2010-05-13T07:22:35Z</time>
      </trkpt>
      <trkpt lat="48.619" lon="2.07618">
        <ele>168</ele>
        <time>2010-05-13T07:22:36Z</time>
      </trkpt>
      <trkpt lat="48.619" lon="2.07616">
        <ele>169</ele>
        <time>2010-05-13T07:22:37Z</time>
      </trkpt>
      <trkpt lat="48.61902" lon="2.07611">
        <ele>169</ele>
        <time>2010-05-13T07:22:40Z</time>
      </trkpt>
      <trkpt lat="48.61905" lon="2.07608">
        <ele>169</ele>
        <time>2010-05-13T07:22:41Z</time>
      </trkpt>
      <trkpt lat="48.61906" lon="2.07604">
        <ele>169</ele>
        <time>2010-05-13T07:22:42Z</time>
      </trkpt>
      <trkpt lat="48.61908" lon="2.07602">
        <ele>169</ele>
        <time>2010-05-13T07:22:43Z</time>
      </trkpt>
      <trkpt lat="48.61909" lon="2.07599">
        <ele>169</ele>
        <time>2010-05-13T07:22:44Z</time>
      </trkpt>
      <trkpt lat="48.6191" lon="2.07596">
        <ele>169</ele>
        <time>2010-05-13T07:22:45Z</time>
      </trkpt>
      <trkpt lat="48.61911" lon="2.07593">
        <ele>169</ele>
        <time>2010-05-13T07:22:45Z</time>
      </trkpt>
      <trkpt lat="48.61912" lon="2.07589">
        <ele>169</ele>
        <time>2010-05-13T07:22:48Z</time>
      </trkpt>
      <trkpt lat="48.61913" lon="2.07587">
        <ele>169</ele>
        <time>2010-05-13T07:22:48Z</time>
      </trkpt>
      <trkpt lat="48.61913" lon="2.07585">
        <ele>168</ele>
        <time>2010-05-13T07:22:50Z</time>
      </trkpt>
      <trkpt lat="48.61915" lon="2.07583">
        <ele>167</ele>
        <time>2010-05-13T07:22:51Z</time>
      </trkpt>
      <trkpt lat="48.61916" lon="2.07581">
        <ele>167</ele>
        <time>2010-05-13T07:22:52Z</time>
      </trkpt>
      <trkpt lat="48.61916" lon="2.07578">
        <ele>167</ele>
        <time>2010-05-13T07:22:53Z</time>
      </trkpt>
      <trkpt lat="48.61917" lon="2.07576">
        <ele>167</ele>
        <time>2010-05-13T07:22:54Z</time>
      </trkpt>
      <trkpt lat="48.61917" lon="2.07574">
        <ele>166</ele>
        <time>2010-05-13T07:22:55Z</time>
      </trkpt>
      <trkpt lat="48.61917" lon="2.07572">
        <ele>166</ele>
        <time>2010-05-13T07:22:56Z</time>
      </trkpt>
      <trkpt lat="48.61917" lon="2.07569">
        <ele>165</ele>
        <time>2010-05-13T07:22:57Z</time>
      </trkpt>
      <trkpt lat="48.61918" lon="2.07567">
        <ele>164</ele>
        <time>2010-05-13T07:22:57Z</time>
      </trkpt>
      <trkpt lat="48.61919" lon="2.07564">
        <ele>164</ele>
        <time>2010-05-13T07:22:59Z</time>
      </trkpt>
      <trkpt lat="48.61919" lon="2.07562">
        <ele>163</ele>
        <time>2010-05-13T07:23:00Z</time>
      </trkpt>
      <trkpt lat="48.61919" lon="2.0756">
        <ele>163</ele>
        <time>2010-05-13T07:23:01Z</time>
      </trkpt>
      <trkpt lat="48.61919" lon="2.07558">
        <ele>162</ele>
        <time>2010-05-13T07:23:02Z</time>
      </trkpt>
      <trkpt lat="48.61919" lon="2.07556">
        <ele>161</ele>
        <time>2010-05-13T07:23:03Z</time>
      </trkpt>
      <trkpt lat="48.6192" lon="2.07553">
        <ele>160</ele>
        <time>2010-05-13T07:23:05Z</time>
      </trkpt>
      <trkpt lat="48.6192" lon="2.07551">
        <ele>159</ele>
        <time>2010-05-13T07:23:05Z</time>
      </trkpt>
      <trkpt lat="48.61922" lon="2.07545">
        <ele>159</ele>
        <time>2010-05-13T07:23:08Z</time>
      </trkpt>
      <trkpt lat="48.61926" lon="2.07539">
        <ele>159</ele>
        <time>2010-05-13T07:23:10Z</time>
      </trkpt>
      <trkpt lat="48.61928" lon="2.07535">
        <ele>159</ele>
        <time>2010-05-13T07:23:12Z</time>
      </trkpt>
      <trkpt lat="48.61929" lon="2.07531">
        <ele>159</ele>
        <time>2010-05-13T07:23:13Z</time>
      </trkpt>
      <trkpt lat="48.61931" lon="2.07528">
        <ele>159</ele>
        <time>2010-05-13T07:23:14Z</time>
      </trkpt>
      <trkpt lat="48.61933" lon="2.07525">
        <ele>158</ele>
        <time>2010-05-13T07:23:15Z</time>
      </trkpt>
      <trkpt lat="48.61933" lon="2.07522">
        <ele>156</ele>
        <time>2010-05-13T07:23:17Z</time>
      </trkpt>
      <trkpt lat="48.61933" lon="2.0752">
        <ele>155</ele>
        <time>2010-05-13T07:23:18Z</time>
      </trkpt>
      <trkpt lat="48.61935" lon="2.07518">
        <ele>154</ele>
        <time>2010-05-13T07:23:19Z</time>
      </trkpt>
      <trkpt lat="48.61937" lon="2.07518">
        <ele>154</ele>
        <time>2010-05-13T07:23:22Z</time>
      </trkpt>
      <trkpt lat="48.61937" lon="2.07515">
        <ele>154</ele>
        <time>2010-05-13T07:23:23Z</time>
      </trkpt>
      <trkpt lat="48.61938" lon="2.07513">
        <ele>154</ele>
        <time>2010-05-13T07:23:24Z</time>
      </trkpt>
      <trkpt lat="48.61938" lon="2.07511">
        <ele>154</ele>
        <time>2010-05-13T07:23:25Z</time>
      </trkpt>
      <trkpt lat="48.61939" lon="2.07509">
        <ele>154</ele>
        <time>2010-05-13T07:23:27Z</time>
      </trkpt>
      <trkpt lat="48.6194" lon="2.07505">
        <ele>154</ele>
        <time>2010-05-13T07:23:29Z</time>
      </trkpt>
      <trkpt lat="48.61941" lon="2.07502">
        <ele>154</ele>
        <time>2010-05-13T07:23:30Z</time>
      </trkpt>
      <trkpt lat="48.61943" lon="2.075">
        <ele>154</ele>
        <time>2010-05-13T07:23:31Z</time>
      </trkpt>
      <trkpt lat="48.61946" lon="2.07498">
        <ele>154</ele>
        <time>2010-05-13T07:23:32Z</time>
      </trkpt>
      <trkpt lat="48.61947" lon="2.07495">
        <ele>154</ele>
        <time>2010-05-13T07:23:33Z</time>
      </trkpt>
      <trkpt lat="48.61947" lon="2.07491">
        <ele>154</ele>
        <time>2010-05-13T07:23:34Z</time>
      </trkpt>
      <trkpt lat="48.61948" lon="2.07489">
        <ele>154</ele>
        <time>2010-05-13T07:23:35Z</time>
      </trkpt>
      <trkpt lat="48.6195" lon="2.07483">
        <ele>155</ele>
        <time>2010-05-13T07:23:37Z</time>
      </trkpt>
      <trkpt lat="48.61951" lon="2.07477">
        <ele>155</ele>
        <time>2010-05-13T07:23:40Z</time>
      </trkpt>
      <trkpt lat="48.61952" lon="2.07473">
        <ele>155</ele>
        <time>2010-05-13T07:23:41Z</time>
      </trkpt>
      <trkpt lat="48.61952" lon="2.07471">
        <ele>155</ele>
        <time>2010-05-13T07:23:42Z</time>
      </trkpt>
      <trkpt lat="48.61952" lon="2.07465">
        <ele>155</ele>
        <time>2010-05-13T07:23:45Z</time>
      </trkpt>
      <trkpt lat="48.61952" lon="2.07461">
        <ele>155</ele>
        <time>2010-05-13T07:23:46Z</time>
      </trkpt>
      <trkpt lat="48.61954" lon="2.07458">
        <ele>155</ele>
        <time>2010-05-13T07:23:47Z</time>
      </trkpt>
      <trkpt lat="48.61956" lon="2.07454">
        <ele>155</ele>
        <time>2010-05-13T07:23:47Z</time>
      </trkpt>
      <trkpt lat="48.61955" lon="2.0745">
        <ele>155</ele>
        <time>2010-05-13T07:23:49Z</time>
      </trkpt>
      <trkpt lat="48.61955" lon="2.07448">
        <ele>155</ele>
        <time>2010-05-13T07:23:50Z</time>
      </trkpt>
      <trkpt lat="48.61957" lon="2.07446">
        <ele>155</ele>
        <time>2010-05-13T07:23:51Z</time>
      </trkpt>
      <trkpt lat="48.61958" lon="2.07444">
        <ele>155</ele>
        <time>2010-05-13T07:23:52Z</time>
      </trkpt>
      <trkpt lat="48.61959" lon="2.07441">
        <ele>155</ele>
        <time>2010-05-13T07:23:54Z</time>
      </trkpt>
      <trkpt lat="48.6196" lon="2.07439">
        <ele>155</ele>
        <time>2010-05-13T07:23:55Z</time>
      </trkpt>
      <trkpt lat="48.61961" lon="2.07436">
        <ele>155</ele>
        <time>2010-05-13T07:23:56Z</time>
      </trkpt>
      <trkpt lat="48.61963" lon="2.07434">
        <ele>155</ele>
        <time>2010-05-13T07:23:57Z</time>
      </trkpt>
      <trkpt lat="48.61964" lon="2.07432">
        <ele>155</ele>
        <time>2010-05-13T07:23:57Z</time>
      </trkpt>
      <trkpt lat="48.61965" lon="2.07429">
        <ele>155</ele>
        <time>2010-05-13T07:23:59Z</time>
      </trkpt>
      <trkpt lat="48.61965" lon="2.07426">
        <ele>156</ele>
        <time>2010-05-13T07:23:59Z</time>
      </trkpt>
      <trkpt lat="48.61966" lon="2.07422">
        <ele>157</ele>
        <time>2010-05-13T07:24:01Z</time>
      </trkpt>
      <trkpt lat="48.61967" lon="2.0742">
        <ele>158</ele>
        <time>2010-05-13T07:24:02Z</time>
      </trkpt>
      <trkpt lat="48.61968" lon="2.07417">
        <ele>159</ele>
        <time>2010-05-13T07:24:03Z</time>
      </trkpt>
      <trkpt lat="48.61969" lon="2.07415">
        <ele>160</ele>
        <time>2010-05-13T07:24:04Z</time>
      </trkpt>
      <trkpt lat="48.61969" lon="2.07413">
        <ele>160</ele>
        <time>2010-05-13T07:24:05Z</time>
      </trkpt>
      <trkpt lat="48.6197" lon="2.0741">
        <ele>160</ele>
        <time>2010-05-13T07:24:07Z</time>
      </trkpt>
      <trkpt lat="48.61972" lon="2.07407">
        <ele>161</ele>
        <time>2010-05-13T07:24:08Z</time>
      </trkpt>
      <trkpt lat="48.61973" lon="2.07405">
        <ele>161</ele>
        <time>2010-05-13T07:24:09Z</time>
      </trkpt>
      <trkpt lat="48.61974" lon="2.07402">
        <ele>161</ele>
        <time>2010-05-13T07:24:10Z</time>
      </trkpt>
      <trkpt lat="48.61974" lon="2.07399">
        <ele>161</ele>
        <time>2010-05-13T07:24:11Z</time>
      </trkpt>
      <trkpt lat="48.61975" lon="2.07396">
        <ele>162</ele>
        <time>2010-05-13T07:24:12Z</time>
      </trkpt>
      <trkpt lat="48.61975" lon="2.07394">
        <ele>162</ele>
        <time>2010-05-13T07:24:13Z</time>
      </trkpt>
      <trkpt lat="48.61976" lon="2.07391">
        <ele>162</ele>
        <time>2010-05-13T07:24:14Z</time>
      </trkpt>
      <trkpt lat="48.61976" lon="2.0739">
        <ele>162</ele>
        <time>2010-05-13T07:24:15Z</time>
      </trkpt>
      <trkpt lat="48.61978" lon="2.07386">
        <ele>162</ele>
        <time>2010-05-13T07:24:16Z</time>
      </trkpt>
      <trkpt lat="48.61979" lon="2.07384">
        <ele>162</ele>
        <time>2010-05-13T07:24:18Z</time>
      </trkpt>
      <trkpt lat="48.6198" lon="2.07382">
        <ele>162</ele>
        <time>2010-05-13T07:24:19Z</time>
      </trkpt>
      <trkpt lat="48.61981" lon="2.0738">
        <ele>162</ele>
        <time>2010-05-13T07:24:20Z</time>
      </trkpt>
      <trkpt lat="48.61983" lon="2.07378">
        <ele>162</ele>
        <time>2010-05-13T07:24:21Z</time>
      </trkpt>
      <trkpt lat="48.61985" lon="2.07377">
        <ele>162</ele>
        <time>2010-05-13T07:24:21Z</time>
      </trkpt>
      <trkpt lat="48.61986" lon="2.07376">
        <ele>162</ele>
        <time>2010-05-13T07:24:22Z</time>
      </trkpt>
      <trkpt lat="48.61988" lon="2.07374">
        <ele>162</ele>
        <time>2010-05-13T07:24:24Z</time>
      </trkpt>
      <trkpt lat="48.61992" lon="2.07374">
        <ele>162</ele>
        <time>2010-05-13T07:24:28Z</time>
      </trkpt>
      <trkpt lat="48.61998" lon="2.07375">
        <ele>162</ele>
        <time>2010-05-13T07:24:29Z</time>
      </trkpt>
      <trkpt lat="48.62001" lon="2.07373">
        <ele>162</ele>
        <time>2010-05-13T07:24:30Z</time>
      </trkpt>
      <trkpt lat="48.62005" lon="2.07371">
        <ele>162</ele>
        <time>2010-05-13T07:24:32Z</time>
      </trkpt>
      <trkpt lat="48.62008" lon="2.07369">
        <ele>162</ele>
        <time>2010-05-13T07:24:32Z</time>
      </trkpt>
      <trkpt lat="48.6201" lon="2.07369">
        <ele>162</ele>
        <time>2010-05-13T07:24:34Z</time>
      </trkpt>
      <trkpt lat="48.62012" lon="2.0737">
        <ele>162</ele>
        <time>2010-05-13T07:24:35Z</time>
      </trkpt>
      <trkpt lat="48.62015" lon="2.07369">
        <ele>162</ele>
        <time>2010-05-13T07:24:37Z</time>
      </trkpt>
      <trkpt lat="48.62017" lon="2.07368">
        <ele>162</ele>
        <time>2010-05-13T07:24:41Z</time>
      </trkpt>
      <trkpt lat="48.62023" lon="2.07366">
        <ele>162</ele>
        <time>2010-05-13T07:24:42Z</time>
      </trkpt>
      <trkpt lat="48.62025" lon="2.07365">
        <ele>162</ele>
        <time>2010-05-13T07:24:43Z</time>
      </trkpt>
      <trkpt lat="48.62026" lon="2.07364">
        <ele>162</ele>
        <time>2010-05-13T07:24:44Z</time>
      </trkpt>
      <trkpt lat="48.62038" lon="2.07356">
        <ele>162</ele>
        <time>2010-05-13T07:24:48Z</time>
      </trkpt>
      <trkpt lat="48.62041" lon="2.07354">
        <ele>163</ele>
        <time>2010-05-13T07:24:50Z</time>
      </trkpt>
      <trkpt lat="48.62044" lon="2.07355">
        <ele>163</ele>
        <time>2010-05-13T07:24:53Z</time>
      </trkpt>
      <trkpt lat="48.6205" lon="2.07352">
        <ele>163</ele>
        <time>2010-05-13T07:24:55Z</time>
      </trkpt>
      <trkpt lat="48.62053" lon="2.0735">
        <ele>163</ele>
        <time>2010-05-13T07:24:56Z</time>
      </trkpt>
      <trkpt lat="48.62054" lon="2.07349">
        <ele>163</ele>
        <time>2010-05-13T07:24:57Z</time>
      </trkpt>
      <trkpt lat="48.62057" lon="2.07349">
        <ele>163</ele>
        <time>2010-05-13T07:24:59Z</time>
      </trkpt>
      <trkpt lat="48.62058" lon="2.07347">
        <ele>165</ele>
        <time>2010-05-13T07:25:02Z</time>
      </trkpt>
      <trkpt lat="48.6206" lon="2.07347">
        <ele>166</ele>
        <time>2010-05-13T07:25:04Z</time>
      </trkpt>
      <trkpt lat="48.62062" lon="2.07346">
        <ele>166</ele>
        <time>2010-05-13T07:25:05Z</time>
      </trkpt>
      <trkpt lat="48.62063" lon="2.07346">
        <ele>166</ele>
        <time>2010-05-13T07:25:06Z</time>
      </trkpt>
      <trkpt lat="48.62064" lon="2.07346">
        <ele>166</ele>
        <time>2010-05-13T07:25:07Z</time>
      </trkpt>
      <trkpt lat="48.62066" lon="2.07346">
        <ele>166</ele>
        <time>2010-05-13T07:25:08Z</time>
      </trkpt>
      <trkpt lat="48.62068" lon="2.07346">
        <ele>166</ele>
        <time>2010-05-13T07:25:09Z</time>
      </trkpt>
      <trkpt lat="48.6207" lon="2.07346">
        <ele>166</ele>
        <time>2010-05-13T07:25:11Z</time>
      </trkpt>
      <trkpt lat="48.62073" lon="2.07345">
        <ele>166</ele>
        <time>2010-05-13T07:25:12Z</time>
      </trkpt>
      <trkpt lat="48.62075" lon="2.07345">
        <ele>166</ele>
        <time>2010-05-13T07:25:13Z</time>
      </trkpt>
      <trkpt lat="48.62078" lon="2.07345">
        <ele>166</ele>
        <time>2010-05-13T07:25:14Z</time>
      </trkpt>
      <trkpt lat="48.6208" lon="2.07344">
        <ele>166</ele>
        <time>2010-05-13T07:25:15Z</time>
      </trkpt>
      <trkpt lat="48.62082" lon="2.07344">
        <ele>166</ele>
        <time>2010-05-13T07:25:16Z</time>
      </trkpt>
      <trkpt lat="48.62084" lon="2.07343">
        <ele>166</ele>
        <time>2010-05-13T07:25:17Z</time>
      </trkpt>
      <trkpt lat="48.62085" lon="2.07342">
        <ele>167</ele>
        <time>2010-05-13T07:25:18Z</time>
      </trkpt>
      <trkpt lat="48.62087" lon="2.0734">
        <ele>167</ele>
        <time>2010-05-13T07:25:21Z</time>
      </trkpt>
      <trkpt lat="48.62088" lon="2.07338">
        <ele>167</ele>
        <time>2010-05-13T07:25:22Z</time>
      </trkpt>
      <trkpt lat="48.6209" lon="2.07339">
        <ele>168</ele>
        <time>2010-05-13T07:25:22Z</time>
      </trkpt>
      <trkpt lat="48.62092" lon="2.07339">
        <ele>168</ele>
        <time>2010-05-13T07:25:24Z</time>
      </trkpt>
      <trkpt lat="48.62094" lon="2.07338">
        <ele>168</ele>
        <time>2010-05-13T07:25:26Z</time>
      </trkpt>
      <trkpt lat="48.62095" lon="2.07336">
        <ele>168</ele>
        <time>2010-05-13T07:25:27Z</time>
      </trkpt>
      <trkpt lat="48.62097" lon="2.07336">
        <ele>168</ele>
        <time>2010-05-13T07:25:28Z</time>
      </trkpt>
      <trkpt lat="48.62099" lon="2.07335">
        <ele>168</ele>
        <time>2010-05-13T07:25:29Z</time>
      </trkpt>
      <trkpt lat="48.621" lon="2.07334">
        <ele>167</ele>
        <time>2010-05-13T07:25:30Z</time>
      </trkpt>
      <trkpt lat="48.62103" lon="2.07333">
        <ele>167</ele>
        <time>2010-05-13T07:25:31Z</time>
      </trkpt>
      <trkpt lat="48.62104" lon="2.07331">
        <ele>167</ele>
        <time>2010-05-13T07:25:32Z</time>
      </trkpt>
      <trkpt lat="48.62106" lon="2.0733">
        <ele>167</ele>
        <time>2010-05-13T07:25:34Z</time>
      </trkpt>
      <trkpt lat="48.62109" lon="2.07329">
        <ele>167</ele>
        <time>2010-05-13T07:25:35Z</time>
      </trkpt>
      <trkpt lat="48.62111" lon="2.0733">
        <ele>166</ele>
        <time>2010-05-13T07:25:37Z</time>
      </trkpt>
      <trkpt lat="48.62116" lon="2.0733">
        <ele>165</ele>
        <time>2010-05-13T07:25:40Z</time>
      </trkpt>
      <trkpt lat="48.62118" lon="2.0733">
        <ele>164</ele>
        <time>2010-05-13T07:25:41Z</time>
      </trkpt>
      <trkpt lat="48.62121" lon="2.0733">
        <ele>163</ele>
        <time>2010-05-13T07:25:42Z</time>
      </trkpt>
      <trkpt lat="48.62122" lon="2.07331">
        <ele>162</ele>
        <time>2010-05-13T07:25:43Z</time>
      </trkpt>
      <trkpt lat="48.62125" lon="2.07331">
        <ele>161</ele>
        <time>2010-05-13T07:25:44Z</time>
      </trkpt>
      <trkpt lat="48.62127" lon="2.07331">
        <ele>160</ele>
        <time>2010-05-13T07:25:45Z</time>
      </trkpt>
      <trkpt lat="48.62129" lon="2.07331">
        <ele>159</ele>
        <time>2010-05-13T07:25:48Z</time>
      </trkpt>
      <trkpt lat="48.62132" lon="2.0733">
        <ele>159</ele>
        <time>2010-05-13T07:25:50Z</time>
      </trkpt>
      <trkpt lat="48.62133" lon="2.0733">
        <ele>158</ele>
        <time>2010-05-13T07:25:51Z</time>
      </trkpt>
      <trkpt lat="48.62137" lon="2.07329">
        <ele>157</ele>
        <time>2010-05-13T07:25:53Z</time>
      </trkpt>
      <trkpt lat="48.62138" lon="2.07327">
        <ele>156</ele>
        <time>2010-05-13T07:25:54Z</time>
      </trkpt>
      <trkpt lat="48.6214" lon="2.07328">
        <ele>155</ele>
        <time>2010-05-13T07:25:55Z</time>
      </trkpt>
      <trkpt lat="48.62142" lon="2.07328">
        <ele>154</ele>
        <time>2010-05-13T07:25:56Z</time>
      </trkpt>
      <trkpt lat="48.62147" lon="2.07331">
        <ele>153</ele>
        <time>2010-05-13T07:25:59Z</time>
      </trkpt>
      <trkpt lat="48.62154" lon="2.07334">
        <ele>152</ele>
        <time>2010-05-13T07:26:01Z</time>
      </trkpt>
      <trkpt lat="48.62156" lon="2.07336">
        <ele>152</ele>
        <time>2010-05-13T07:26:02Z</time>
      </trkpt>
      <trkpt lat="48.62157" lon="2.07337">
        <ele>152</ele>
        <time>2010-05-13T07:26:03Z</time>
      </trkpt>
      <trkpt lat="48.62159" lon="2.07338">
        <ele>152</ele>
        <time>2010-05-13T07:26:04Z</time>
      </trkpt>
      <trkpt lat="48.62162" lon="2.07339">
        <ele>152</ele>
        <time>2010-05-13T07:26:06Z</time>
      </trkpt>
      <trkpt lat="48.62164" lon="2.0734">
        <ele>152</ele>
        <time>2010-05-13T07:26:06Z</time>
      </trkpt>
      <trkpt lat="48.62166" lon="2.0734">
        <ele>152</ele>
        <time>2010-05-13T07:26:08Z</time>
      </trkpt>
      <trkpt lat="48.6217" lon="2.07342">
        <ele>152</ele>
        <time>2010-05-13T07:26:10Z</time>
      </trkpt>
      <trkpt lat="48.62171" lon="2.07344">
        <ele>152</ele>
        <time>2010-05-13T07:26:11Z</time>
      </trkpt>
      <trkpt lat="48.62171" lon="2.07346">
        <ele>152</ele>
        <time>2010-05-13T07:26:11Z</time>
      </trkpt>
      <trkpt lat="48.62173" lon="2.07346">
        <ele>152</ele>
        <time>2010-05-13T07:26:13Z</time>
      </trkpt>
      <trkpt lat="48.62177" lon="2.07348">
        <ele>152</ele>
        <time>2010-05-13T07:26:16Z</time>
      </trkpt>
      <trkpt lat="48.62179" lon="2.07349">
        <ele>153</ele>
        <time>2010-05-13T07:26:18Z</time>
      </trkpt>
      <trkpt lat="48.62181" lon="2.07349">
        <ele>154</ele>
        <time>2010-05-13T07:26:18Z</time>
      </trkpt>
      <trkpt lat="48.62184" lon="2.0735">
        <ele>155</ele>
        <time>2010-05-13T07:26:20Z</time>
      </trkpt>
      <trkpt lat="48.62187" lon="2.07354">
        <ele>156</ele>
        <time>2010-05-13T07:26:21Z</time>
      </trkpt>
      <trkpt lat="48.62188" lon="2.07354">
        <ele>157</ele>
        <time>2010-05-13T07:26:22Z</time>
      </trkpt>
      <trkpt lat="48.6219" lon="2.07355">
        <ele>157</ele>
        <time>2010-05-13T07:26:23Z</time>
      </trkpt>
      <trkpt lat="48.62192" lon="2.07356">
        <ele>157</ele>
        <time>2010-05-13T07:26:23Z</time>
      </trkpt>
      <trkpt lat="48.62194" lon="2.07358">
        <ele>157</ele>
        <time>2010-05-13T07:26:25Z</time>
      </trkpt>
      <trkpt lat="48.62195" lon="2.0736">
        <ele>157</ele>
        <time>2010-05-13T07:26:26Z</time>
      </trkpt>
      <trkpt lat="48.62196" lon="2.07362">
        <ele>157</ele>
        <time>2010-05-13T07:26:27Z</time>
      </trkpt>
      <trkpt lat="48.62197" lon="2.07362">
        <ele>157</ele>
        <time>2010-05-13T07:26:28Z</time>
      </trkpt>
      <trkpt lat="48.62199" lon="2.07365">
        <ele>157</ele>
        <time>2010-05-13T07:26:30Z</time>
      </trkpt>
      <trkpt lat="48.622" lon="2.07368">
        <ele>157</ele>
        <time>2010-05-13T07:26:31Z</time>
      </trkpt>
      <trkpt lat="48.62201" lon="2.0737">
        <ele>157</ele>
        <time>2010-05-13T07:26:32Z</time>
      </trkpt>
      <trkpt lat="48.62202" lon="2.07372">
        <ele>157</ele>
        <time>2010-05-13T07:26:34Z</time>
      </trkpt>
      <trkpt lat="48.62202" lon="2.07375">
        <ele>157</ele>
        <time>2010-05-13T07:26:35Z</time>
      </trkpt>
      <trkpt lat="48.62204" lon="2.07377">
        <ele>157</ele>
        <time>2010-05-13T07:26:37Z</time>
      </trkpt>
      <trkpt lat="48.62206" lon="2.07377">
        <ele>156</ele>
        <time>2010-05-13T07:26:39Z</time>
      </trkpt>
      <trkpt lat="48.62208" lon="2.07377">
        <ele>156</ele>
        <time>2010-05-13T07:26:39Z</time>
      </trkpt>
      <trkpt lat="48.62209" lon="2.07378">
        <ele>156</ele>
        <time>2010-05-13T07:26:41Z</time>
      </trkpt>
      <trkpt lat="48.62211" lon="2.0738">
        <ele>155</ele>
        <time>2010-05-13T07:26:42Z</time>
      </trkpt>
      <trkpt lat="48.62212" lon="2.07381">
        <ele>154</ele>
        <time>2010-05-13T07:26:43Z</time>
      </trkpt>
      <trkpt lat="48.62213" lon="2.07383">
        <ele>154</ele>
        <time>2010-05-13T07:26:44Z</time>
      </trkpt>
      <trkpt lat="48.62216" lon="2.07386">
        <ele>153</ele>
        <time>2010-05-13T07:26:47Z</time>
      </trkpt>
      <trkpt lat="48.6222" lon="2.07385">
        <ele>153</ele>
        <time>2010-05-13T07:26:48Z</time>
      </trkpt>
      <trkpt lat="48.62223" lon="2.07386">
        <ele>152</ele>
        <time>2010-05-13T07:26:49Z</time>
      </trkpt>
      <trkpt lat="48.62225" lon="2.07386">
        <ele>152</ele>
        <time>2010-05-13T07:26:50Z</time>
      </trkpt>
      <trkpt lat="48.62227" lon="2.07385">
        <ele>151</ele>
        <time>2010-05-13T07:26:51Z</time>
      </trkpt>
      <trkpt lat="48.6223" lon="2.07385">
        <ele>150</ele>
        <time>2010-05-13T07:26:52Z</time>
      </trkpt>
      <trkpt lat="48.62232" lon="2.07384">
        <ele>149</ele>
        <time>2010-05-13T07:26:53Z</time>
      </trkpt>
      <trkpt lat="48.62235" lon="2.07383">
        <ele>148</ele>
        <time>2010-05-13T07:26:54Z</time>
      </trkpt>
      <trkpt lat="48.62237" lon="2.07383">
        <ele>148</ele>
        <time>2010-05-13T07:26:55Z</time>
      </trkpt>
      <trkpt lat="48.62239" lon="2.07383">
        <ele>148</ele>
        <time>2010-05-13T07:26:56Z</time>
      </trkpt>
      <trkpt lat="48.62241" lon="2.07382">
        <ele>148</ele>
        <time>2010-05-13T07:26:57Z</time>
      </trkpt>
      <trkpt lat="48.62243" lon="2.07381">
        <ele>148</ele>
        <time>2010-05-13T07:26:58Z</time>
      </trkpt>
      <trkpt lat="48.62245" lon="2.0738">
        <ele>148</ele>
        <time>2010-05-13T07:26:59Z</time>
      </trkpt>
      <trkpt lat="48.62247" lon="2.07379">
        <ele>147</ele>
        <time>2010-05-13T07:27:00Z</time>
      </trkpt>
      <trkpt lat="48.6225" lon="2.07378">
        <ele>147</ele>
        <time>2010-05-13T07:27:00Z</time>
      </trkpt>
      <trkpt lat="48.62252" lon="2.07378">
        <ele>146</ele>
        <time>2010-05-13T07:27:02Z</time>
      </trkpt>
      <trkpt lat="48.62253" lon="2.07377">
        <ele>146</ele>
        <time>2010-05-13T07:27:03Z</time>
      </trkpt>
      <trkpt lat="48.62255" lon="2.07377">
        <ele>146</ele>
        <time>2010-05-13T07:27:04Z</time>
      </trkpt>
      <trkpt lat="48.62257" lon="2.07376">
        <ele>145</ele>
        <time>2010-05-13T07:27:05Z</time>
      </trkpt>
      <trkpt lat="48.62258" lon="2.07376">
        <ele>145</ele>
        <time>2010-05-13T07:27:06Z</time>
      </trkpt>
      <trkpt lat="48.62261" lon="2.07376">
        <ele>145</ele>
        <time>2010-05-13T07:27:07Z</time>
      </trkpt>
      <trkpt lat="48.62262" lon="2.07376">
        <ele>145</ele>
        <time>2010-05-13T07:27:07Z</time>
      </trkpt>
      <trkpt lat="48.62264" lon="2.07375">
        <ele>145</ele>
        <time>2010-05-13T07:27:09Z</time>
      </trkpt>
      <trkpt lat="48.62266" lon="2.07375">
        <ele>145</ele>
        <time>2010-05-13T07:27:10Z</time>
      </trkpt>
      <trkpt lat="48.62268" lon="2.07375">
        <ele>145</ele>
        <time>2010-05-13T07:27:11Z</time>
      </trkpt>
      <trkpt lat="48.62269" lon="2.07374">
        <ele>145</ele>
        <time>2010-05-13T07:27:12Z</time>
      </trkpt>
      <trkpt lat="48.62271" lon="2.07373">
        <ele>145</ele>
        <time>2010-05-13T07:27:13Z</time>
      </trkpt>
      <trkpt lat="48.62273" lon="2.07372">
        <ele>145</ele>
        <time>2010-05-13T07:27:14Z</time>
      </trkpt>
      <trkpt lat="48.62274" lon="2.07371">
        <ele>145</ele>
        <time>2010-05-13T07:27:15Z</time>
      </trkpt>
      <trkpt lat="48.62276" lon="2.07371">
        <ele>145</ele>
        <time>2010-05-13T07:27:16Z</time>
      </trkpt>
      <trkpt lat="48.62277" lon="2.0737">
        <ele>145</ele>
        <time>2010-05-13T07:27:17Z</time>
      </trkpt>
      <trkpt lat="48.62279" lon="2.0737">
        <ele>145</ele>
        <time>2010-05-13T07:27:18Z</time>
      </trkpt>
      <trkpt lat="48.62282" lon="2.07369">
        <ele>145</ele>
        <time>2010-05-13T07:27:19Z</time>
      </trkpt>
      <trkpt lat="48.62284" lon="2.0737">
        <ele>145</ele>
        <time>2010-05-13T07:27:20Z</time>
      </trkpt>
      <trkpt lat="48.62285" lon="2.07369">
        <ele>145</ele>
        <time>2010-05-13T07:27:21Z</time>
      </trkpt>
      <trkpt lat="48.62287" lon="2.07368">
        <ele>145</ele>
        <time>2010-05-13T07:27:22Z</time>
      </trkpt>
      <trkpt lat="48.62289" lon="2.07368">
        <ele>145</ele>
        <time>2010-05-13T07:27:23Z</time>
      </trkpt>
      <trkpt lat="48.62291" lon="2.07368">
        <ele>145</ele>
        <time>2010-05-13T07:27:24Z</time>
      </trkpt>
      <trkpt lat="48.62293" lon="2.07368">
        <ele>146</ele>
        <time>2010-05-13T07:27:25Z</time>
      </trkpt>
      <trkpt lat="48.62295" lon="2.07369">
        <ele>147</ele>
        <time>2010-05-13T07:27:26Z</time>
      </trkpt>
      <trkpt lat="48.62297" lon="2.0737">
        <ele>148</ele>
        <time>2010-05-13T07:27:27Z</time>
      </trkpt>
      <trkpt lat="48.62299" lon="2.07371">
        <ele>149</ele>
        <time>2010-05-13T07:27:28Z</time>
      </trkpt>
      <trkpt lat="48.62301" lon="2.07372">
        <ele>149</ele>
        <time>2010-05-13T07:27:29Z</time>
      </trkpt>
      <trkpt lat="48.62303" lon="2.07374">
        <ele>149</ele>
        <time>2010-05-13T07:27:30Z</time>
      </trkpt>
      <trkpt lat="48.62305" lon="2.07375">
        <ele>149</ele>
        <time>2010-05-13T07:27:31Z</time>
      </trkpt>
      <trkpt lat="48.62306" lon="2.07376">
        <ele>149</ele>
        <time>2010-05-13T07:27:32Z</time>
      </trkpt>
      <trkpt lat="48.62308" lon="2.07377">
        <ele>149</ele>
        <time>2010-05-13T07:27:33Z</time>
      </trkpt>
      <trkpt lat="48.6231" lon="2.07379">
        <ele>149</ele>
        <time>2010-05-13T07:27:34Z</time>
      </trkpt>
      <trkpt lat="48.62311" lon="2.0738">
        <ele>149</ele>
        <time>2010-05-13T07:27:35Z</time>
      </trkpt>
      <trkpt lat="48.62312" lon="2.07381">
        <ele>149</ele>
        <time>2010-05-13T07:27:36Z</time>
      </trkpt>
      <trkpt lat="48.62315" lon="2.07383">
        <ele>149</ele>
        <time>2010-05-13T07:27:37Z</time>
      </trkpt>
      <trkpt lat="48.62316" lon="2.07385">
        <ele>149</ele>
        <time>2010-05-13T07:27:39Z</time>
      </trkpt>
      <trkpt lat="48.62318" lon="2.07387">
        <ele>149</ele>
        <time>2010-05-13T07:27:39Z</time>
      </trkpt>
      <trkpt lat="48.6232" lon="2.07389">
        <ele>149</ele>
        <time>2010-05-13T07:27:41Z</time>
      </trkpt>
      <trkpt lat="48.62321" lon="2.07391">
        <ele>149</ele>
        <time>2010-05-13T07:27:42Z</time>
      </trkpt>
      <trkpt lat="48.62324" lon="2.07393">
        <ele>149</ele>
        <time>2010-05-13T07:27:43Z</time>
      </trkpt>
      <trkpt lat="48.62325" lon="2.07394">
        <ele>149</ele>
        <time>2010-05-13T07:27:44Z</time>
      </trkpt>
      <trkpt lat="48.62328" lon="2.07397">
        <ele>149</ele>
        <time>2010-05-13T07:27:46Z</time>
      </trkpt>
      <trkpt lat="48.62329" lon="2.074">
        <ele>149</ele>
        <time>2010-05-13T07:27:47Z</time>
      </trkpt>
      <trkpt lat="48.62331" lon="2.07402">
        <ele>149</ele>
        <time>2010-05-13T07:27:48Z</time>
      </trkpt>
      <trkpt lat="48.62333" lon="2.07404">
        <ele>149</ele>
        <time>2010-05-13T07:27:49Z</time>
      </trkpt>
      <trkpt lat="48.62334" lon="2.07406">
        <ele>149</ele>
        <time>2010-05-13T07:27:50Z</time>
      </trkpt>
      <trkpt lat="48.62336" lon="2.07408">
        <ele>149</ele>
        <time>2010-05-13T07:27:51Z</time>
      </trkpt>
      <trkpt lat="48.62338" lon="2.0741">
        <ele>149</ele>
        <time>2010-05-13T07:27:52Z</time>
      </trkpt>
      <trkpt lat="48.62339" lon="2.07413">
        <ele>149</ele>
        <time>2010-05-13T07:27:53Z</time>
      </trkpt>
      <trkpt lat="48.62341" lon="2.07416">
        <ele>149</ele>
        <time>2010-05-13T07:27:54Z</time>
      </trkpt>
      <trkpt lat="48.62342" lon="2.07419">
        <ele>149</ele>
        <time>2010-05-13T07:27:54Z</time>
      </trkpt>
      <trkpt lat="48.62344" lon="2.07421">
        <ele>149</ele>
        <time>2010-05-13T07:27:56Z</time>
      </trkpt>
      <trkpt lat="48.62345" lon="2.07424">
        <ele>149</ele>
        <time>2010-05-13T07:27:57Z</time>
      </trkpt>
      <trkpt lat="48.62346" lon="2.07426">
        <ele>149</ele>
        <time>2010-05-13T07:27:58Z</time>
      </trkpt>
      <trkpt lat="48.62347" lon="2.07428">
        <ele>149</ele>
        <time>2010-05-13T07:27:59Z</time>
      </trkpt>
      <trkpt lat="48.62349" lon="2.0743">
        <ele>149</ele>
        <time>2010-05-13T07:28:00Z</time>
      </trkpt>
      <trkpt lat="48.6235" lon="2.07432">
        <ele>149</ele>
        <time>2010-05-13T07:28:01Z</time>
      </trkpt>
      <trkpt lat="48.62352" lon="2.07433">
        <ele>149</ele>
        <time>2010-05-13T07:28:02Z</time>
      </trkpt>
      <trkpt lat="48.62354" lon="2.07434">
        <ele>149</ele>
        <time>2010-05-13T07:28:02Z</time>
      </trkpt>
      <trkpt lat="48.62355" lon="2.07435">
        <ele>149</ele>
        <time>2010-05-13T07:28:04Z</time>
      </trkpt>
      <trkpt lat="48.62357" lon="2.07436">
        <ele>149</ele>
        <time>2010-05-13T07:28:04Z</time>
      </trkpt>
      <trkpt lat="48.62359" lon="2.07438">
        <ele>149</ele>
        <time>2010-05-13T07:28:05Z</time>
      </trkpt>
      <trkpt lat="48.6236" lon="2.0744">
        <ele>149</ele>
        <time>2010-05-13T07:28:07Z</time>
      </trkpt>
      <trkpt lat="48.62362" lon="2.07441">
        <ele>149</ele>
        <time>2010-05-13T07:28:08Z</time>
      </trkpt>
      <trkpt lat="48.62363" lon="2.07443">
        <ele>149</ele>
        <time>2010-05-13T07:28:09Z</time>
      </trkpt>
      <trkpt lat="48.62365" lon="2.07444">
        <ele>150</ele>
        <time>2010-05-13T07:28:10Z</time>
      </trkpt>
      <trkpt lat="48.62367" lon="2.07446">
        <ele>150</ele>
        <time>2010-05-13T07:28:11Z</time>
      </trkpt>
      <trkpt lat="48.62368" lon="2.07447">
        <ele>151</ele>
        <time>2010-05-13T07:28:12Z</time>
      </trkpt>
      <trkpt lat="48.6237" lon="2.07448">
        <ele>151</ele>
        <time>2010-05-13T07:28:13Z</time>
      </trkpt>
      <trkpt lat="48.62371" lon="2.07449">
        <ele>152</ele>
        <time>2010-05-13T07:28:14Z</time>
      </trkpt>
      <trkpt lat="48.62373" lon="2.0745">
        <ele>152</ele>
        <time>2010-05-13T07:28:15Z</time>
      </trkpt>
      <trkpt lat="48.62374" lon="2.07451">
        <ele>152</ele>
        <time>2010-05-13T07:28:15Z</time>
      </trkpt>
      <trkpt lat="48.62376" lon="2.07452">
        <ele>152</ele>
        <time>2010-05-13T07:28:17Z</time>
      </trkpt>
      <trkpt lat="48.62378" lon="2.07454">
        <ele>152</ele>
        <time>2010-05-13T07:28:19Z</time>
      </trkpt>
      <trkpt lat="48.6238" lon="2.07455">
        <ele>152</ele>
        <time>2010-05-13T07:28:20Z</time>
      </trkpt>
      <trkpt lat="48.62382" lon="2.07457">
        <ele>152</ele>
        <time>2010-05-13T07:28:21Z</time>
      </trkpt>
      <trkpt lat="48.62383" lon="2.07457">
        <ele>152</ele>
        <time>2010-05-13T07:28:22Z</time>
      </trkpt>
      <trkpt lat="48.62385" lon="2.07459">
        <ele>152</ele>
        <time>2010-05-13T07:28:22Z</time>
      </trkpt>
      <trkpt lat="48.62386" lon="2.0746">
        <ele>152</ele>
        <time>2010-05-13T07:28:24Z</time>
      </trkpt>
      <trkpt lat="48.62388" lon="2.07462">
        <ele>152</ele>
        <time>2010-05-13T07:28:25Z</time>
      </trkpt>
      <trkpt lat="48.62389" lon="2.07463">
        <ele>153</ele>
        <time>2010-05-13T07:28:26Z</time>
      </trkpt>
      <trkpt lat="48.6239" lon="2.07464">
        <ele>153</ele>
        <time>2010-05-13T07:28:27Z</time>
      </trkpt>
      <trkpt lat="48.62392" lon="2.07465">
        <ele>153</ele>
        <time>2010-05-13T07:28:28Z</time>
      </trkpt>
      <trkpt lat="48.62393" lon="2.07467">
        <ele>153</ele>
        <time>2010-05-13T07:28:29Z</time>
      </trkpt>
      <trkpt lat="48.62395" lon="2.07468">
        <ele>153</ele>
        <time>2010-05-13T07:28:30Z</time>
      </trkpt>
      <trkpt lat="48.62396" lon="2.07469">
        <ele>153</ele>
        <time>2010-05-13T07:28:31Z</time>
      </trkpt>
      <trkpt lat="48.62397" lon="2.07469">
        <ele>153</ele>
        <time>2010-05-13T07:28:32Z</time>
      </trkpt>
      <trkpt lat="48.62399" lon="2.07469">
        <ele>153</ele>
        <time>2010-05-13T07:28:33Z</time>
      </trkpt>
      <trkpt lat="48.624" lon="2.0747">
        <ele>153</ele>
        <time>2010-05-13T07:28:33Z</time>
      </trkpt>
      <trkpt lat="48.62402" lon="2.0747">
        <ele>153</ele>
        <time>2010-05-13T07:28:35Z</time>
      </trkpt>
      <trkpt lat="48.62403" lon="2.07471">
        <ele>153</ele>
        <time>2010-05-13T07:28:36Z</time>
      </trkpt>
      <trkpt lat="48.62405" lon="2.07472">
        <ele>153</ele>
        <time>2010-05-13T07:28:38Z</time>
      </trkpt>
      <trkpt lat="48.62406" lon="2.07472">
        <ele>153</ele>
        <time>2010-05-13T07:28:39Z</time>
      </trkpt>
      <trkpt lat="48.62408" lon="2.07472">
        <ele>153</ele>
        <time>2010-05-13T07:28:40Z</time>
      </trkpt>
      <trkpt lat="48.62411" lon="2.07475">
        <ele>153</ele>
        <time>2010-05-13T07:28:42Z</time>
      </trkpt>
      <trkpt lat="48.62413" lon="2.07476">
        <ele>153</ele>
        <time>2010-05-13T07:28:43Z</time>
      </trkpt>
      <trkpt lat="48.62415" lon="2.07478">
        <ele>153</ele>
        <time>2010-05-13T07:28:43Z</time>
      </trkpt>
      <trkpt lat="48.62417" lon="2.07479">
        <ele>153</ele>
        <time>2010-05-13T07:28:45Z</time>
      </trkpt>
      <trkpt lat="48.62418" lon="2.0748">
        <ele>153</ele>
        <time>2010-05-13T07:28:46Z</time>
      </trkpt>
      <trkpt lat="48.6242" lon="2.07482">
        <ele>153</ele>
        <time>2010-05-13T07:28:47Z</time>
      </trkpt>
      <trkpt lat="48.62421" lon="2.07483">
        <ele>153</ele>
        <time>2010-05-13T07:28:48Z</time>
      </trkpt>
      <trkpt lat="48.62423" lon="2.07483">
        <ele>153</ele>
        <time>2010-05-13T07:28:49Z</time>
      </trkpt>
      <trkpt lat="48.62424" lon="2.07484">
        <ele>153</ele>
        <time>2010-05-13T07:28:50Z</time>
      </trkpt>
      <trkpt lat="48.62426" lon="2.07484">
        <ele>153</ele>
        <time>2010-05-13T07:28:51Z</time>
      </trkpt>
      <trkpt lat="48.62427" lon="2.07484">
        <ele>153</ele>
        <time>2010-05-13T07:28:52Z</time>
      </trkpt>
      <trkpt lat="48.62428" lon="2.07484">
        <ele>153</ele>
        <time>2010-05-13T07:28:53Z</time>
      </trkpt>
      <trkpt lat="48.6243" lon="2.07484">
        <ele>153</ele>
        <time>2010-05-13T07:28:54Z</time>
      </trkpt>
      <trkpt lat="48.62431" lon="2.07484">
        <ele>153</ele>
        <time>2010-05-13T07:28:55Z</time>
      </trkpt>
      <trkpt lat="48.62433" lon="2.07484">
        <ele>153</ele>
        <time>2010-05-13T07:28:56Z</time>
      </trkpt>
      <trkpt lat="48.62435" lon="2.07483">
        <ele>154</ele>
        <time>2010-05-13T07:28:57Z</time>
      </trkpt>
      <trkpt lat="48.62436" lon="2.07483">
        <ele>155</ele>
        <time>2010-05-13T07:28:58Z</time>
      </trkpt>
      <trkpt lat="48.62438" lon="2.07483">
        <ele>155</ele>
        <time>2010-05-13T07:28:59Z</time>
      </trkpt>
      <trkpt lat="48.62439" lon="2.07484">
        <ele>156</ele>
        <time>2010-05-13T07:29:00Z</time>
      </trkpt>
      <trkpt lat="48.62442" lon="2.07482">
        <ele>156</ele>
        <time>2010-05-13T07:29:02Z</time>
      </trkpt>
      <trkpt lat="48.62443" lon="2.07482">
        <ele>156</ele>
        <time>2010-05-13T07:29:03Z</time>
      </trkpt>
      <trkpt lat="48.62445" lon="2.07481">
        <ele>156</ele>
        <time>2010-05-13T07:29:05Z</time>
      </trkpt>
      <trkpt lat="48.62447" lon="2.07481">
        <ele>156</ele>
        <time>2010-05-13T07:29:06Z</time>
      </trkpt>
      <trkpt lat="48.62449" lon="2.0748">
        <ele>156</ele>
        <time>2010-05-13T07:29:07Z</time>
      </trkpt>
      <trkpt lat="48.62451" lon="2.0748">
        <ele>156</ele>
        <time>2010-05-13T07:29:08Z</time>
      </trkpt>
      <trkpt lat="48.62452" lon="2.0748">
        <ele>156</ele>
        <time>2010-05-13T07:29:09Z</time>
      </trkpt>
      <trkpt lat="48.62455" lon="2.0748">
        <ele>157</ele>
        <time>2010-05-13T07:29:10Z</time>
      </trkpt>
      <trkpt lat="48.62456" lon="2.07481">
        <ele>158</ele>
        <time>2010-05-13T07:29:11Z</time>
      </trkpt>
      <trkpt lat="48.62458" lon="2.07481">
        <ele>158</ele>
        <time>2010-05-13T07:29:12Z</time>
      </trkpt>
      <trkpt lat="48.6246" lon="2.07481">
        <ele>158</ele>
        <time>2010-05-13T07:29:13Z</time>
      </trkpt>
      <trkpt lat="48.62462" lon="2.07482">
        <ele>159</ele>
        <time>2010-05-13T07:29:14Z</time>
      </trkpt>
      <trkpt lat="48.62464" lon="2.07482">
        <ele>159</ele>
        <time>2010-05-13T07:29:15Z</time>
      </trkpt>
      <trkpt lat="48.62467" lon="2.07483">
        <ele>159</ele>
        <time>2010-05-13T07:29:16Z</time>
      </trkpt>
      <trkpt lat="48.62467" lon="2.07485">
        <ele>159</ele>
        <time>2010-05-13T07:29:17Z</time>
      </trkpt>
      <trkpt lat="48.62469" lon="2.07485">
        <ele>159</ele>
        <time>2010-05-13T07:29:18Z</time>
      </trkpt>
      <trkpt lat="48.6247" lon="2.07485">
        <ele>160</ele>
        <time>2010-05-13T07:29:19Z</time>
      </trkpt>
      <trkpt lat="48.62472" lon="2.07486">
        <ele>161</ele>
        <time>2010-05-13T07:29:19Z</time>
      </trkpt>
      <trkpt lat="48.62473" lon="2.07485">
        <ele>161</ele>
        <time>2010-05-13T07:29:21Z</time>
      </trkpt>
      <trkpt lat="48.62475" lon="2.07484">
        <ele>162</ele>
        <time>2010-05-13T07:29:23Z</time>
      </trkpt>
      <trkpt lat="48.62477" lon="2.07483">
        <ele>162</ele>
        <time>2010-05-13T07:29:24Z</time>
      </trkpt>
      <trkpt lat="48.62479" lon="2.07483">
        <ele>162</ele>
        <time>2010-05-13T07:29:24Z</time>
      </trkpt>
      <trkpt lat="48.6248" lon="2.07483">
        <ele>162</ele>
        <time>2010-05-13T07:29:26Z</time>
      </trkpt>
      <trkpt lat="48.62482" lon="2.07483">
        <ele>162</ele>
        <time>2010-05-13T07:29:27Z</time>
      </trkpt>
      <trkpt lat="48.62484" lon="2.07483">
        <ele>162</ele>
        <time>2010-05-13T07:29:28Z</time>
      </trkpt>
      <trkpt lat="48.62486" lon="2.07483">
        <ele>162</ele>
        <time>2010-05-13T07:29:29Z</time>
      </trkpt>
      <trkpt lat="48.62488" lon="2.07484">
        <ele>162</ele>
        <time>2010-05-13T07:29:30Z</time>
      </trkpt>
      <trkpt lat="48.62489" lon="2.07485">
        <ele>162</ele>
        <time>2010-05-13T07:29:30Z</time>
      </trkpt>
      <trkpt lat="48.62491" lon="2.07486">
        <ele>162</ele>
        <time>2010-05-13T07:29:32Z</time>
      </trkpt>
      <trkpt lat="48.62492" lon="2.07486">
        <ele>162</ele>
        <time>2010-05-13T07:29:33Z</time>
      </trkpt>
      <trkpt lat="48.62494" lon="2.07486">
        <ele>162</ele>
        <time>2010-05-13T07:29:34Z</time>
      </trkpt>
      <trkpt lat="48.62495" lon="2.07486">
        <ele>162</ele>
        <time>2010-05-13T07:29:35Z</time>
      </trkpt>
      <trkpt lat="48.62496" lon="2.07487">
        <ele>162</ele>
        <time>2010-05-13T07:29:36Z</time>
      </trkpt>
      <trkpt lat="48.62498" lon="2.07487">
        <ele>162</ele>
        <time>2010-05-13T07:29:37Z</time>
      </trkpt>
      <trkpt lat="48.62499" lon="2.07488">
        <ele>162</ele>
        <time>2010-05-13T07:29:38Z</time>
      </trkpt>
      <trkpt lat="48.62501" lon="2.07488">
        <ele>162</ele>
        <time>2010-05-13T07:29:39Z</time>
      </trkpt>
      <trkpt lat="48.62503" lon="2.07489">
        <ele>162</ele>
        <time>2010-05-13T07:29:40Z</time>
      </trkpt>
      <trkpt lat="48.62505" lon="2.0749">
        <ele>162</ele>
        <time>2010-05-13T07:29:41Z</time>
      </trkpt>
      <trkpt lat="48.62507" lon="2.0749">
        <ele>162</ele>
        <time>2010-05-13T07:29:42Z</time>
      </trkpt>
      <trkpt lat="48.62508" lon="2.0749">
        <ele>162</ele>
        <time>2010-05-13T07:29:43Z</time>
      </trkpt>
      <trkpt lat="48.6251" lon="2.07491">
        <ele>162</ele>
        <time>2010-05-13T07:29:44Z</time>
      </trkpt>
      <trkpt lat="48.62512" lon="2.0749">
        <ele>162</ele>
        <time>2010-05-13T07:29:45Z</time>
      </trkpt>
      <trkpt lat="48.62514" lon="2.0749">
        <ele>162</ele>
        <time>2010-05-13T07:29:46Z</time>
      </trkpt>
      <trkpt lat="48.62515" lon="2.0749">
        <ele>162</ele>
        <time>2010-05-13T07:29:46Z</time>
      </trkpt>
      <trkpt lat="48.62516" lon="2.07491">
        <ele>162</ele>
        <time>2010-05-13T07:29:48Z</time>
      </trkpt>
      <trkpt lat="48.62518" lon="2.07492">
        <ele>162</ele>
        <time>2010-05-13T07:29:49Z</time>
      </trkpt>
      <trkpt lat="48.62519" lon="2.07493">
        <ele>162</ele>
        <time>2010-05-13T07:29:50Z</time>
      </trkpt>
      <trkpt lat="48.62521" lon="2.07493">
        <ele>162</ele>
        <time>2010-05-13T07:29:50Z</time>
      </trkpt>
      <trkpt lat="48.62523" lon="2.07494">
        <ele>162</ele>
        <time>2010-05-13T07:29:51Z</time>
      </trkpt>
      <trkpt lat="48.62524" lon="2.07494">
        <ele>162</ele>
        <time>2010-05-13T07:29:53Z</time>
      </trkpt>
      <trkpt lat="48.62526" lon="2.07495">
        <ele>162</ele>
        <time>2010-05-13T07:29:54Z</time>
      </trkpt>
      <trkpt lat="48.62527" lon="2.07496">
        <ele>162</ele>
        <time>2010-05-13T07:29:54Z</time>
      </trkpt>
      <trkpt lat="48.62529" lon="2.07496">
        <ele>162</ele>
        <time>2010-05-13T07:29:56Z</time>
      </trkpt>
      <trkpt lat="48.62531" lon="2.07496">
        <ele>162</ele>
        <time>2010-05-13T07:29:57Z</time>
      </trkpt>
      <trkpt lat="48.62532" lon="2.07495">
        <ele>162</ele>
        <time>2010-05-13T07:29:57Z</time>
      </trkpt>
      <trkpt lat="48.62535" lon="2.07494">
        <ele>162</ele>
        <time>2010-05-13T07:30:00Z</time>
      </trkpt>
      <trkpt lat="48.62536" lon="2.07493">
        <ele>162</ele>
        <time>2010-05-13T07:30:01Z</time>
      </trkpt>
      <trkpt lat="48.62537" lon="2.07492">
        <ele>162</ele>
        <time>2010-05-13T07:30:03Z</time>
      </trkpt>
      <trkpt lat="48.62539" lon="2.0749">
        <ele>160</ele>
        <time>2010-05-13T07:30:05Z</time>
      </trkpt>
      <trkpt lat="48.6254" lon="2.07489">
        <ele>159</ele>
        <time>2010-05-13T07:30:05Z</time>
      </trkpt>
      <trkpt lat="48.62542" lon="2.07488">
        <ele>158</ele>
        <time>2010-05-13T07:30:07Z</time>
      </trkpt>
      <trkpt lat="48.62543" lon="2.07488">
        <ele>157</ele>
        <time>2010-05-13T07:30:08Z</time>
      </trkpt>
      <trkpt lat="48.62545" lon="2.07487">
        <ele>156</ele>
        <time>2010-05-13T07:30:09Z</time>
      </trkpt>
      <trkpt lat="48.62547" lon="2.07485">
        <ele>155</ele>
        <time>2010-05-13T07:30:11Z</time>
      </trkpt>
      <trkpt lat="48.6255" lon="2.07482">
        <ele>154</ele>
        <time>2010-05-13T07:30:13Z</time>
      </trkpt>
      <trkpt lat="48.62552" lon="2.0748">
        <ele>154</ele>
        <time>2010-05-13T07:30:14Z</time>
      </trkpt>
      <trkpt lat="48.62554" lon="2.07479">
        <ele>154</ele>
        <time>2010-05-13T07:30:15Z</time>
      </trkpt>
      <trkpt lat="48.62556" lon="2.07478">
        <ele>154</ele>
        <time>2010-05-13T07:30:16Z</time>
      </trkpt>
      <trkpt lat="48.62557" lon="2.07477">
        <ele>154</ele>
        <time>2010-05-13T07:30:17Z</time>
      </trkpt>
      <trkpt lat="48.62558" lon="2.07475">
        <ele>154</ele>
        <time>2010-05-13T07:30:18Z</time>
      </trkpt>
      <trkpt lat="48.62558" lon="2.07474">
        <ele>154</ele>
        <time>2010-05-13T07:30:18Z</time>
      </trkpt>
      <trkpt lat="48.62559" lon="2.07472">
        <ele>154</ele>
        <time>2010-05-13T07:30:20Z</time>
      </trkpt>
      <trkpt lat="48.62559" lon="2.0747">
        <ele>154</ele>
        <time>2010-05-13T07:30:21Z</time>
      </trkpt>
      <trkpt lat="48.6256" lon="2.07467">
        <ele>154</ele>
        <time>2010-05-13T07:30:22Z</time>
      </trkpt>
      <trkpt lat="48.62561" lon="2.07465">
        <ele>154</ele>
        <time>2010-05-13T07:30:23Z</time>
      </trkpt>
      <trkpt lat="48.62562" lon="2.07463">
        <ele>154</ele>
        <time>2010-05-13T07:30:24Z</time>
      </trkpt>
      <trkpt lat="48.62562" lon="2.07461">
        <ele>154</ele>
        <time>2010-05-13T07:30:25Z</time>
      </trkpt>
      <trkpt lat="48.62563" lon="2.07458">
        <ele>154</ele>
        <time>2010-05-13T07:30:25Z</time>
      </trkpt>
      <trkpt lat="48.62563" lon="2.07455">
        <ele>154</ele>
        <time>2010-05-13T07:30:27Z</time>
      </trkpt>
      <trkpt lat="48.62564" lon="2.07453">
        <ele>154</ele>
        <time>2010-05-13T07:30:28Z</time>
      </trkpt>
      <trkpt lat="48.62564" lon="2.07451">
        <ele>153</ele>
        <time>2010-05-13T07:30:28Z</time>
      </trkpt>
      <trkpt lat="48.62565" lon="2.07448">
        <ele>153</ele>
        <time>2010-05-13T07:30:30Z</time>
      </trkpt>
      <trkpt lat="48.62565" lon="2.07446">
        <ele>153</ele>
        <time>2010-05-13T07:30:31Z</time>
      </trkpt>
      <trkpt lat="48.62566" lon="2.07444">
        <ele>153</ele>
        <time>2010-05-13T07:30:32Z</time>
      </trkpt>
      <trkpt lat="48.62567" lon="2.07442">
        <ele>153</ele>
        <time>2010-05-13T07:30:32Z</time>
      </trkpt>
      <trkpt lat="48.62568" lon="2.07439">
        <ele>153</ele>
        <time>2010-05-13T07:30:33Z</time>
      </trkpt>
      <trkpt lat="48.62569" lon="2.07437">
        <ele>153</ele>
        <time>2010-05-13T07:30:35Z</time>
      </trkpt>
      <trkpt lat="48.62569" lon="2.07434">
        <ele>153</ele>
        <time>2010-05-13T07:30:36Z</time>
      </trkpt>
      <trkpt lat="48.6257" lon="2.07431">
        <ele>153</ele>
        <time>2010-05-13T07:30:37Z</time>
      </trkpt>
      <trkpt lat="48.6257" lon="2.07428">
        <ele>153</ele>
        <time>2010-05-13T07:30:38Z</time>
      </trkpt>
      <trkpt lat="48.62571" lon="2.07425">
        <ele>153</ele>
        <time>2010-05-13T07:30:39Z</time>
      </trkpt>
      <trkpt lat="48.62571" lon="2.07423">
        <ele>153</ele>
        <time>2010-05-13T07:30:40Z</time>
      </trkpt>
      <trkpt lat="48.62572" lon="2.07421">
        <ele>153</ele>
        <time>2010-05-13T07:30:40Z</time>
      </trkpt>
      <trkpt lat="48.62571" lon="2.07419">
        <ele>153</ele>
        <time>2010-05-13T07:30:41Z</time>
      </trkpt>
      <trkpt lat="48.62572" lon="2.07417">
        <ele>153</ele>
        <time>2010-05-13T07:30:43Z</time>
      </trkpt>
      <trkpt lat="48.62572" lon="2.07415">
        <ele>153</ele>
        <time>2010-05-13T07:30:44Z</time>
      </trkpt>
      <trkpt lat="48.62572" lon="2.07413">
        <ele>153</ele>
        <time>2010-05-13T07:30:45Z</time>
      </trkpt>
      <trkpt lat="48.62572" lon="2.07411">
        <ele>153</ele>
        <time>2010-05-13T07:30:46Z</time>
      </trkpt>
      <trkpt lat="48.62572" lon="2.07409">
        <ele>153</ele>
        <time>2010-05-13T07:30:47Z</time>
      </trkpt>
      <trkpt lat="48.62572" lon="2.07406">
        <ele>153</ele>
        <time>2010-05-13T07:30:48Z</time>
      </trkpt>
      <trkpt lat="48.62572" lon="2.07404">
        <ele>153</ele>
        <time>2010-05-13T07:30:48Z</time>
      </trkpt>
      <trkpt lat="48.62573" lon="2.07402">
        <ele>153</ele>
        <time>2010-05-13T07:30:50Z</time>
      </trkpt>
      <trkpt lat="48.62573" lon="2.07399">
        <ele>153</ele>
        <time>2010-05-13T07:30:51Z</time>
      </trkpt>
      <trkpt lat="48.62574" lon="2.07397">
        <ele>154</ele>
        <time>2010-05-13T07:30:52Z</time>
      </trkpt>
      <trkpt lat="48.62575" lon="2.07394">
        <ele>154</ele>
        <time>2010-05-13T07:30:53Z</time>
      </trkpt>
      <trkpt lat="48.62575" lon="2.07392">
        <ele>155</ele>
        <time>2010-05-13T07:30:54Z</time>
      </trkpt>
      <trkpt lat="48.62576" lon="2.0739">
        <ele>155</ele>
        <time>2010-05-13T07:30:55Z</time>
      </trkpt>
      <trkpt lat="48.62576" lon="2.07388">
        <ele>155</ele>
        <time>2010-05-13T07:30:56Z</time>
      </trkpt>
      <trkpt lat="48.62577" lon="2.07386">
        <ele>155</ele>
        <time>2010-05-13T07:30:57Z</time>
      </trkpt>
      <trkpt lat="48.62578" lon="2.07385">
        <ele>155</ele>
        <time>2010-05-13T07:30:58Z</time>
      </trkpt>
      <trkpt lat="48.6258" lon="2.07382">
        <ele>155</ele>
        <time>2010-05-13T07:31:00Z</time>
      </trkpt>
      <trkpt lat="48.62581" lon="2.07381">
        <ele>155</ele>
        <time>2010-05-13T07:31:01Z</time>
      </trkpt>
      <trkpt lat="48.62583" lon="2.07378">
        <ele>155</ele>
        <time>2010-05-13T07:31:03Z</time>
      </trkpt>
      <trkpt lat="48.62584" lon="2.07375">
        <ele>155</ele>
        <time>2010-05-13T07:31:04Z</time>
      </trkpt>
      <trkpt lat="48.62585" lon="2.07373">
        <ele>155</ele>
        <time>2010-05-13T07:31:05Z</time>
      </trkpt>
      <trkpt lat="48.62587" lon="2.0737">
        <ele>155</ele>
        <time>2010-05-13T07:31:06Z</time>
      </trkpt>
      <trkpt lat="48.62588" lon="2.07367">
        <ele>155</ele>
        <time>2010-05-13T07:31:07Z</time>
      </trkpt>
      <trkpt lat="48.6259" lon="2.07363">
        <ele>155</ele>
        <time>2010-05-13T07:31:09Z</time>
      </trkpt>
      <trkpt lat="48.62591" lon="2.07362">
        <ele>155</ele>
        <time>2010-05-13T07:31:10Z</time>
      </trkpt>
      <trkpt lat="48.62592" lon="2.0736">
        <ele>155</ele>
        <time>2010-05-13T07:31:11Z</time>
      </trkpt>
      <trkpt lat="48.62593" lon="2.07357">
        <ele>155</ele>
        <time>2010-05-13T07:31:13Z</time>
      </trkpt>
      <trkpt lat="48.62594" lon="2.07355">
        <ele>154</ele>
        <time>2010-05-13T07:31:14Z</time>
      </trkpt>
      <trkpt lat="48.62595" lon="2.07353">
        <ele>153</ele>
        <time>2010-05-13T07:31:15Z</time>
      </trkpt>
      <trkpt lat="48.62596" lon="2.07351">
        <ele>152</ele>
        <time>2010-05-13T07:31:16Z</time>
      </trkpt>
      <trkpt lat="48.62597" lon="2.07349">
        <ele>151</ele>
        <time>2010-05-13T07:31:17Z</time>
      </trkpt>
      <trkpt lat="48.62597" lon="2.07347">
        <ele>150</ele>
        <time>2010-05-13T07:31:18Z</time>
      </trkpt>
      <trkpt lat="48.62597" lon="2.07344">
        <ele>149</ele>
        <time>2010-05-13T07:31:19Z</time>
      </trkpt>
      <trkpt lat="48.62597" lon="2.07342">
        <ele>148</ele>
        <time>2010-05-13T07:31:19Z</time>
      </trkpt>
      <trkpt lat="48.62596" lon="2.0734">
        <ele>148</ele>
        <time>2010-05-13T07:31:20Z</time>
      </trkpt>
      <trkpt lat="48.62595" lon="2.07337">
        <ele>148</ele>
        <time>2010-05-13T07:31:22Z</time>
      </trkpt>
      <trkpt lat="48.62594" lon="2.07334">
        <ele>148</ele>
        <time>2010-05-13T07:31:22Z</time>
      </trkpt>
      <trkpt lat="48.62594" lon="2.07333">
        <ele>148</ele>
        <time>2010-05-13T07:31:24Z</time>
      </trkpt>
      <trkpt lat="48.62593" lon="2.07331">
        <ele>148</ele>
        <time>2010-05-13T07:31:25Z</time>
      </trkpt>
      <trkpt lat="48.62592" lon="2.07329">
        <ele>148</ele>
        <time>2010-05-13T07:31:26Z</time>
      </trkpt>
      <trkpt lat="48.62591" lon="2.07327">
        <ele>148</ele>
        <time>2010-05-13T07:31:27Z</time>
      </trkpt>
      <trkpt lat="48.62591" lon="2.07325">
        <ele>148</ele>
        <time>2010-05-13T07:31:28Z</time>
      </trkpt>
      <trkpt lat="48.6259" lon="2.07324">
        <ele>149</ele>
        <time>2010-05-13T07:31:29Z</time>
      </trkpt>
      <trkpt lat="48.62589" lon="2.07322">
        <ele>149</ele>
        <time>2010-05-13T07:31:30Z</time>
      </trkpt>
      <trkpt lat="48.62588" lon="2.0732">
        <ele>149</ele>
        <time>2010-05-13T07:31:31Z</time>
      </trkpt>
      <trkpt lat="48.62586" lon="2.07319">
        <ele>149</ele>
        <time>2010-05-13T07:31:32Z</time>
      </trkpt>
      <trkpt lat="48.62585" lon="2.07318">
        <ele>149</ele>
        <time>2010-05-13T07:31:33Z</time>
      </trkpt>
      <trkpt lat="48.62584" lon="2.07316">
        <ele>149</ele>
        <time>2010-05-13T07:31:34Z</time>
      </trkpt>
      <trkpt lat="48.62583" lon="2.07314">
        <ele>149</ele>
        <time>2010-05-13T07:31:35Z</time>
      </trkpt>
      <trkpt lat="48.62582" lon="2.07312">
        <ele>149</ele>
        <time>2010-05-13T07:31:36Z</time>
      </trkpt>
      <trkpt lat="48.62581" lon="2.0731">
        <ele>149</ele>
        <time>2010-05-13T07:31:37Z</time>
      </trkpt>
      <trkpt lat="48.6258" lon="2.07308">
        <ele>149</ele>
        <time>2010-05-13T07:31:38Z</time>
      </trkpt>
      <trkpt lat="48.62579" lon="2.07306">
        <ele>149</ele>
        <time>2010-05-13T07:31:39Z</time>
      </trkpt>
      <trkpt lat="48.62579" lon="2.07304">
        <ele>149</ele>
        <time>2010-05-13T07:31:39Z</time>
      </trkpt>
      <trkpt lat="48.6258" lon="2.073">
        <ele>149</ele>
        <time>2010-05-13T07:31:41Z</time>
      </trkpt>
      <trkpt lat="48.62581" lon="2.07298">
        <ele>149</ele>
        <time>2010-05-13T07:31:42Z</time>
      </trkpt>
      <trkpt lat="48.62582" lon="2.07296">
        <ele>149</ele>
        <time>2010-05-13T07:31:43Z</time>
      </trkpt>
      <trkpt lat="48.62582" lon="2.07293">
        <ele>149</ele>
        <time>2010-05-13T07:31:45Z</time>
      </trkpt>
      <trkpt lat="48.62583" lon="2.07291">
        <ele>149</ele>
        <time>2010-05-13T07:31:46Z</time>
      </trkpt>
      <trkpt lat="48.62584" lon="2.07289">
        <ele>149</ele>
        <time>2010-05-13T07:31:47Z</time>
      </trkpt>
      <trkpt lat="48.62585" lon="2.07287">
        <ele>149</ele>
        <time>2010-05-13T07:31:48Z</time>
      </trkpt>
      <trkpt lat="48.62585" lon="2.07285">
        <ele>149</ele>
        <time>2010-05-13T07:31:49Z</time>
      </trkpt>
      <trkpt lat="48.62586" lon="2.07283">
        <ele>148</ele>
        <time>2010-05-13T07:31:49Z</time>
      </trkpt>
      <trkpt lat="48.62586" lon="2.07281">
        <ele>148</ele>
        <time>2010-05-13T07:31:50Z</time>
      </trkpt>
      <trkpt lat="48.62587" lon="2.07278">
        <ele>148</ele>
        <time>2010-05-13T07:31:52Z</time>
      </trkpt>
      <trkpt lat="48.62588" lon="2.07276">
        <ele>148</ele>
        <time>2010-05-13T07:31:54Z</time>
      </trkpt>
      <trkpt lat="48.62589" lon="2.07273">
        <ele>148</ele>
        <time>2010-05-13T07:31:55Z</time>
      </trkpt>
      <trkpt lat="48.6259" lon="2.07271">
        <ele>148</ele>
        <time>2010-05-13T07:31:57Z</time>
      </trkpt>
      <trkpt lat="48.62591" lon="2.07269">
        <ele>148</ele>
        <time>2010-05-13T07:31:58Z</time>
      </trkpt>
      <trkpt lat="48.62592" lon="2.07267">
        <ele>148</ele>
        <time>2010-05-13T07:31:59Z</time>
      </trkpt>
      <trkpt lat="48.62594" lon="2.07264">
        <ele>147</ele>
        <time>2010-05-13T07:32:01Z</time>
      </trkpt>
      <trkpt lat="48.62596" lon="2.07261">
        <ele>147</ele>
        <time>2010-05-13T07:32:02Z</time>
      </trkpt>
      <trkpt lat="48.62598" lon="2.07258">
        <ele>147</ele>
        <time>2010-05-13T07:32:05Z</time>
      </trkpt>
      <trkpt lat="48.62599" lon="2.07257">
        <ele>147</ele>
        <time>2010-05-13T07:32:06Z</time>
      </trkpt>
      <trkpt lat="48.626" lon="2.07256">
        <ele>147</ele>
        <time>2010-05-13T07:32:06Z</time>
      </trkpt>
      <trkpt lat="48.62602" lon="2.07255">
        <ele>147</ele>
        <time>2010-05-13T07:32:08Z</time>
      </trkpt>
      <trkpt lat="48.62603" lon="2.07253">
        <ele>147</ele>
        <time>2010-05-13T07:32:08Z</time>
      </trkpt>
      <trkpt lat="48.62605" lon="2.07252">
        <ele>147</ele>
        <time>2010-05-13T07:32:11Z</time>
      </trkpt>
      <trkpt lat="48.62606" lon="2.07251">
        <ele>147</ele>
        <time>2010-05-13T07:32:12Z</time>
      </trkpt>
      <trkpt lat="48.62608" lon="2.07247">
        <ele>148</ele>
        <time>2010-05-13T07:32:14Z</time>
      </trkpt>
      <trkpt lat="48.6261" lon="2.07246">
        <ele>149</ele>
        <time>2010-05-13T07:32:15Z</time>
      </trkpt>
      <trkpt lat="48.6261" lon="2.07244">
        <ele>149</ele>
        <time>2010-05-13T07:32:16Z</time>
      </trkpt>
      <trkpt lat="48.62611" lon="2.07241">
        <ele>149</ele>
        <time>2010-05-13T07:32:17Z</time>
      </trkpt>
      <trkpt lat="48.62612" lon="2.07239">
        <ele>149</ele>
        <time>2010-05-13T07:32:18Z</time>
      </trkpt>
      <trkpt lat="48.62612" lon="2.07237">
        <ele>149</ele>
        <time>2010-05-13T07:32:19Z</time>
      </trkpt>
      <trkpt lat="48.62613" lon="2.07235">
        <ele>149</ele>
        <time>2010-05-13T07:32:20Z</time>
      </trkpt>
      <trkpt lat="48.62614" lon="2.07233">
        <ele>149</ele>
        <time>2010-05-13T07:32:21Z</time>
      </trkpt>
      <trkpt lat="48.62615" lon="2.07231">
        <ele>149</ele>
        <time>2010-05-13T07:32:22Z</time>
      </trkpt>
      <trkpt lat="48.62615" lon="2.07229">
        <ele>149</ele>
        <time>2010-05-13T07:32:23Z</time>
      </trkpt>
      <trkpt lat="48.62615" lon="2.07227">
        <ele>149</ele>
        <time>2010-05-13T07:32:23Z</time>
      </trkpt>
      <trkpt lat="48.62615" lon="2.07225">
        <ele>149</ele>
        <time>2010-05-13T07:32:25Z</time>
      </trkpt>
      <trkpt lat="48.62615" lon="2.07223">
        <ele>149</ele>
        <time>2010-05-13T07:32:26Z</time>
      </trkpt>
      <trkpt lat="48.62615" lon="2.0722">
        <ele>149</ele>
        <time>2010-05-13T07:32:27Z</time>
      </trkpt>
      <trkpt lat="48.62616" lon="2.07218">
        <ele>149</ele>
        <time>2010-05-13T07:32:28Z</time>
      </trkpt>
      <trkpt lat="48.62616" lon="2.07215">
        <ele>149</ele>
        <time>2010-05-13T07:32:29Z</time>
      </trkpt>
      <trkpt lat="48.62617" lon="2.07213">
        <ele>149</ele>
        <time>2010-05-13T07:32:30Z</time>
      </trkpt>
      <trkpt lat="48.62618" lon="2.0721">
        <ele>149</ele>
        <time>2010-05-13T07:32:31Z</time>
      </trkpt>
      <trkpt lat="48.62618" lon="2.07208">
        <ele>149</ele>
        <time>2010-05-13T07:32:32Z</time>
      </trkpt>
      <trkpt lat="48.62619" lon="2.07206">
        <ele>149</ele>
        <time>2010-05-13T07:32:33Z</time>
      </trkpt>
      <trkpt lat="48.62619" lon="2.07204">
        <ele>149</ele>
        <time>2010-05-13T07:32:34Z</time>
      </trkpt>
      <trkpt lat="48.6262" lon="2.07201">
        <ele>149</ele>
        <time>2010-05-13T07:32:35Z</time>
      </trkpt>
      <trkpt lat="48.62621" lon="2.07199">
        <ele>149</ele>
        <time>2010-05-13T07:32:36Z</time>
      </trkpt>
      <trkpt lat="48.62622" lon="2.07197">
        <ele>149</ele>
        <time>2010-05-13T07:32:37Z</time>
      </trkpt>
      <trkpt lat="48.62623" lon="2.07195">
        <ele>149</ele>
        <time>2010-05-13T07:32:38Z</time>
      </trkpt>
      <trkpt lat="48.62624" lon="2.07193">
        <ele>149</ele>
        <time>2010-05-13T07:32:38Z</time>
      </trkpt>
      <trkpt lat="48.62626" lon="2.07191">
        <ele>149</ele>
        <time>2010-05-13T07:32:40Z</time>
      </trkpt>
      <trkpt lat="48.62627" lon="2.07189">
        <ele>149</ele>
        <time>2010-05-13T07:32:41Z</time>
      </trkpt>
      <trkpt lat="48.62627" lon="2.07187">
        <ele>149</ele>
        <time>2010-05-13T07:32:42Z</time>
      </trkpt>
      <trkpt lat="48.62629" lon="2.07184">
        <ele>149</ele>
        <time>2010-05-13T07:32:43Z</time>
      </trkpt>
      <trkpt lat="48.62631" lon="2.07182">
        <ele>149</ele>
        <time>2010-05-13T07:32:44Z</time>
      </trkpt>
      <trkpt lat="48.62633" lon="2.07181">
        <ele>149</ele>
        <time>2010-05-13T07:32:45Z</time>
      </trkpt>
      <trkpt lat="48.62635" lon="2.0718">
        <ele>149</ele>
        <time>2010-05-13T07:32:46Z</time>
      </trkpt>
      <trkpt lat="48.62636" lon="2.07179">
        <ele>149</ele>
        <time>2010-05-13T07:32:46Z</time>
      </trkpt>
      <trkpt lat="48.62638" lon="2.07178">
        <ele>149</ele>
        <time>2010-05-13T07:32:48Z</time>
      </trkpt>
      <trkpt lat="48.62639" lon="2.07176">
        <ele>149</ele>
        <time>2010-05-13T07:32:50Z</time>
      </trkpt>
      <trkpt lat="48.62641" lon="2.07175">
        <ele>149</ele>
        <time>2010-05-13T07:32:51Z</time>
      </trkpt>
      <trkpt lat="48.62642" lon="2.07174">
        <ele>149</ele>
        <time>2010-05-13T07:32:52Z</time>
      </trkpt>
      <trkpt lat="48.62644" lon="2.07172">
        <ele>149</ele>
        <time>2010-05-13T07:32:52Z</time>
      </trkpt>
      <trkpt lat="48.62645" lon="2.07171">
        <ele>149</ele>
        <time>2010-05-13T07:32:54Z</time>
      </trkpt>
      <trkpt lat="48.62646" lon="2.0717">
        <ele>149</ele>
        <time>2010-05-13T07:32:55Z</time>
      </trkpt>
      <trkpt lat="48.62647" lon="2.07168">
        <ele>149</ele>
        <time>2010-05-13T07:32:56Z</time>
      </trkpt>
      <trkpt lat="48.62649" lon="2.07166">
        <ele>149</ele>
        <time>2010-05-13T07:32:57Z</time>
      </trkpt>
      <trkpt lat="48.6265" lon="2.07165">
        <ele>149</ele>
        <time>2010-05-13T07:32:58Z</time>
      </trkpt>
      <trkpt lat="48.62651" lon="2.07163">
        <ele>148</ele>
        <time>2010-05-13T07:32:59Z</time>
      </trkpt>
      <trkpt lat="48.62653" lon="2.0716">
        <ele>148</ele>
        <time>2010-05-13T07:33:00Z</time>
      </trkpt>
      <trkpt lat="48.62653" lon="2.07158">
        <ele>148</ele>
        <time>2010-05-13T07:33:02Z</time>
      </trkpt>
      <trkpt lat="48.62654" lon="2.07156">
        <ele>148</ele>
        <time>2010-05-13T07:33:03Z</time>
      </trkpt>
      <trkpt lat="48.62654" lon="2.07154">
        <ele>148</ele>
        <time>2010-05-13T07:33:04Z</time>
      </trkpt>
      <trkpt lat="48.62653" lon="2.07151">
        <ele>148</ele>
        <time>2010-05-13T07:33:04Z</time>
      </trkpt>
      <trkpt lat="48.62653" lon="2.07149">
        <ele>148</ele>
        <time>2010-05-13T07:33:06Z</time>
      </trkpt>
      <trkpt lat="48.62653" lon="2.07147">
        <ele>148</ele>
        <time>2010-05-13T07:33:07Z</time>
      </trkpt>
      <trkpt lat="48.62654" lon="2.07145">
        <ele>148</ele>
        <time>2010-05-13T07:33:07Z</time>
      </trkpt>
      <trkpt lat="48.62654" lon="2.07143">
        <ele>148</ele>
        <time>2010-05-13T07:33:09Z</time>
      </trkpt>
      <trkpt lat="48.62654" lon="2.07141">
        <ele>148</ele>
        <time>2010-05-13T07:33:10Z</time>
      </trkpt>
      <trkpt lat="48.62655" lon="2.07139">
        <ele>148</ele>
        <time>2010-05-13T07:33:11Z</time>
      </trkpt>
      <trkpt lat="48.62655" lon="2.07136">
        <ele>148</ele>
        <time>2010-05-13T07:33:12Z</time>
      </trkpt>
      <trkpt lat="48.62656" lon="2.07134">
        <ele>148</ele>
        <time>2010-05-13T07:33:13Z</time>
      </trkpt>
      <trkpt lat="48.62656" lon="2.07131">
        <ele>148</ele>
        <time>2010-05-13T07:33:13Z</time>
      </trkpt>
      <trkpt lat="48.62657" lon="2.07129">
        <ele>148</ele>
        <time>2010-05-13T07:33:15Z</time>
      </trkpt>
      <trkpt lat="48.62658" lon="2.07126">
        <ele>148</ele>
        <time>2010-05-13T07:33:16Z</time>
      </trkpt>
      <trkpt lat="48.62658" lon="2.07123">
        <ele>148</ele>
        <time>2010-05-13T07:33:17Z</time>
      </trkpt>
      <trkpt lat="48.62659" lon="2.0712">
        <ele>148</ele>
        <time>2010-05-13T07:33:18Z</time>
      </trkpt>
      <trkpt lat="48.6266" lon="2.07117">
        <ele>148</ele>
        <time>2010-05-13T07:33:18Z</time>
      </trkpt>
      <trkpt lat="48.62662" lon="2.07115">
        <ele>148</ele>
        <time>2010-05-13T07:33:20Z</time>
      </trkpt>
      <trkpt lat="48.62663" lon="2.07111">
        <ele>148</ele>
        <time>2010-05-13T07:33:21Z</time>
      </trkpt>
      <trkpt lat="48.62665" lon="2.0711">
        <ele>148</ele>
        <time>2010-05-13T07:33:22Z</time>
      </trkpt>
      <trkpt lat="48.62666" lon="2.07109">
        <ele>148</ele>
        <time>2010-05-13T07:33:23Z</time>
      </trkpt>
      <trkpt lat="48.62668" lon="2.07107">
        <ele>148</ele>
        <time>2010-05-13T07:33:24Z</time>
      </trkpt>
      <trkpt lat="48.62669" lon="2.07106">
        <ele>148</ele>
        <time>2010-05-13T07:33:25Z</time>
      </trkpt>
      <trkpt lat="48.62671" lon="2.07104">
        <ele>148</ele>
        <time>2010-05-13T07:33:26Z</time>
      </trkpt>
      <trkpt lat="48.62673" lon="2.07102">
        <ele>148</ele>
        <time>2010-05-13T07:33:27Z</time>
      </trkpt>
      <trkpt lat="48.62675" lon="2.07102">
        <ele>148</ele>
        <time>2010-05-13T07:33:28Z</time>
      </trkpt>
      <trkpt lat="48.62677" lon="2.07102">
        <ele>148</ele>
        <time>2010-05-13T07:33:29Z</time>
      </trkpt>
      <trkpt lat="48.62678" lon="2.07101">
        <ele>148</ele>
        <time>2010-05-13T07:33:30Z</time>
      </trkpt>
      <trkpt lat="48.6268" lon="2.07101">
        <ele>147</ele>
        <time>2010-05-13T07:33:31Z</time>
      </trkpt>
      <trkpt lat="48.62681" lon="2.07101">
        <ele>147</ele>
        <time>2010-05-13T07:33:32Z</time>
      </trkpt>
      <trkpt lat="48.62683" lon="2.071">
        <ele>147</ele>
        <time>2010-05-13T07:33:33Z</time>
      </trkpt>
      <trkpt lat="48.62685" lon="2.071">
        <ele>147</ele>
        <time>2010-05-13T07:33:34Z</time>
      </trkpt>
      <trkpt lat="48.62686" lon="2.07099">
        <ele>146</ele>
        <time>2010-05-13T07:33:35Z</time>
      </trkpt>
      <trkpt lat="48.62688" lon="2.07099">
        <ele>146</ele>
        <time>2010-05-13T07:33:36Z</time>
      </trkpt>
      <trkpt lat="48.62689" lon="2.07099">
        <ele>146</ele>
        <time>2010-05-13T07:33:37Z</time>
      </trkpt>
      <trkpt lat="48.62691" lon="2.071">
        <ele>146</ele>
        <time>2010-05-13T07:33:38Z</time>
      </trkpt>
      <trkpt lat="48.62692" lon="2.071">
        <ele>146</ele>
        <time>2010-05-13T07:33:39Z</time>
      </trkpt>
      <trkpt lat="48.62694" lon="2.07101">
        <ele>146</ele>
        <time>2010-05-13T07:33:40Z</time>
      </trkpt>
      <trkpt lat="48.62696" lon="2.07101">
        <ele>146</ele>
        <time>2010-05-13T07:33:41Z</time>
      </trkpt>
      <trkpt lat="48.62698" lon="2.07101">
        <ele>146</ele>
        <time>2010-05-13T07:33:42Z</time>
      </trkpt>
      <trkpt lat="48.627" lon="2.07101">
        <ele>146</ele>
        <time>2010-05-13T07:33:43Z</time>
      </trkpt>
      <trkpt lat="48.62702" lon="2.07102">
        <ele>146</ele>
        <time>2010-05-13T07:33:44Z</time>
      </trkpt>
      <trkpt lat="48.62704" lon="2.07102">
        <ele>146</ele>
        <time>2010-05-13T07:33:45Z</time>
      </trkpt>
      <trkpt lat="48.62705" lon="2.07102">
        <ele>146</ele>
        <time>2010-05-13T07:33:46Z</time>
      </trkpt>
      <trkpt lat="48.62707" lon="2.07102">
        <ele>146</ele>
        <time>2010-05-13T07:33:46Z</time>
      </trkpt>
      <trkpt lat="48.62709" lon="2.07103">
        <ele>146</ele>
        <time>2010-05-13T07:33:48Z</time>
      </trkpt>
      <trkpt lat="48.6271" lon="2.07104">
        <ele>146</ele>
        <time>2010-05-13T07:33:49Z</time>
      </trkpt>
      <trkpt lat="48.62711" lon="2.07105">
        <ele>146</ele>
        <time>2010-05-13T07:33:50Z</time>
      </trkpt>
      <trkpt lat="48.62713" lon="2.07105">
        <ele>146</ele>
        <time>2010-05-13T07:33:51Z</time>
      </trkpt>
      <trkpt lat="48.62715" lon="2.07105">
        <ele>146</ele>
        <time>2010-05-13T07:33:52Z</time>
      </trkpt>
      <trkpt lat="48.62716" lon="2.07105">
        <ele>146</ele>
        <time>2010-05-13T07:33:53Z</time>
      </trkpt>
      <trkpt lat="48.62718" lon="2.07106">
        <ele>146</ele>
        <time>2010-05-13T07:33:54Z</time>
      </trkpt>
      <trkpt lat="48.62719" lon="2.07105">
        <ele>146</ele>
        <time>2010-05-13T07:33:55Z</time>
      </trkpt>
      <trkpt lat="48.6272" lon="2.07105">
        <ele>146</ele>
        <time>2010-05-13T07:33:56Z</time>
      </trkpt>
      <trkpt lat="48.62722" lon="2.07105">
        <ele>146</ele>
        <time>2010-05-13T07:33:57Z</time>
      </trkpt>
      <trkpt lat="48.62724" lon="2.07106">
        <ele>146</ele>
        <time>2010-05-13T07:33:58Z</time>
      </trkpt>
      <trkpt lat="48.62725" lon="2.07106">
        <ele>146</ele>
        <time>2010-05-13T07:33:59Z</time>
      </trkpt>
      <trkpt lat="48.62727" lon="2.07107">
        <ele>146</ele>
        <time>2010-05-13T07:34:00Z</time>
      </trkpt>
      <trkpt lat="48.62729" lon="2.07107">
        <ele>146</ele>
        <time>2010-05-13T07:34:01Z</time>
      </trkpt>
      <trkpt lat="48.6273" lon="2.07107">
        <ele>146</ele>
        <time>2010-05-13T07:34:02Z</time>
      </trkpt>
      <trkpt lat="48.62732" lon="2.07108">
        <ele>146</ele>
        <time>2010-05-13T07:34:03Z</time>
      </trkpt>
      <trkpt lat="48.62733" lon="2.07108">
        <ele>146</ele>
        <time>2010-05-13T07:34:04Z</time>
      </trkpt>
      <trkpt lat="48.62734" lon="2.07108">
        <ele>145</ele>
        <time>2010-05-13T07:34:05Z</time>
      </trkpt>
      <trkpt lat="48.62736" lon="2.07108">
        <ele>145</ele>
        <time>2010-05-13T07:34:05Z</time>
      </trkpt>
      <trkpt lat="48.62737" lon="2.07108">
        <ele>145</ele>
        <time>2010-05-13T07:34:07Z</time>
      </trkpt>
      <trkpt lat="48.62739" lon="2.07109">
        <ele>145</ele>
        <time>2010-05-13T07:34:08Z</time>
      </trkpt>
      <trkpt lat="48.62741" lon="2.07109">
        <ele>145</ele>
        <time>2010-05-13T07:34:09Z</time>
      </trkpt>
      <trkpt lat="48.62742" lon="2.0711">
        <ele>145</ele>
        <time>2010-05-13T07:34:10Z</time>
      </trkpt>
      <trkpt lat="48.62744" lon="2.07111">
        <ele>145</ele>
        <time>2010-05-13T07:34:11Z</time>
      </trkpt>
      <trkpt lat="48.62746" lon="2.07111">
        <ele>145</ele>
        <time>2010-05-13T07:34:12Z</time>
      </trkpt>
      <trkpt lat="48.62747" lon="2.07111">
        <ele>145</ele>
        <time>2010-05-13T07:34:13Z</time>
      </trkpt>
      <trkpt lat="48.62749" lon="2.07112">
        <ele>145</ele>
        <time>2010-05-13T07:34:14Z</time>
      </trkpt>
      <trkpt lat="48.6275" lon="2.07112">
        <ele>145</ele>
        <time>2010-05-13T07:34:15Z</time>
      </trkpt>
      <trkpt lat="48.62752" lon="2.07113">
        <ele>145</ele>
        <time>2010-05-13T07:34:16Z</time>
      </trkpt>
      <trkpt lat="48.62753" lon="2.07113">
        <ele>145</ele>
        <time>2010-05-13T07:34:17Z</time>
      </trkpt>
      <trkpt lat="48.62755" lon="2.07113">
        <ele>145</ele>
        <time>2010-05-13T07:34:17Z</time>
      </trkpt>
      <trkpt lat="48.62756" lon="2.07114">
        <ele>145</ele>
        <time>2010-05-13T07:34:19Z</time>
      </trkpt>
      <trkpt lat="48.62757" lon="2.07115">
        <ele>145</ele>
        <time>2010-05-13T07:34:20Z</time>
      </trkpt>
      <trkpt lat="48.62759" lon="2.07115">
        <ele>144</ele>
        <time>2010-05-13T07:34:20Z</time>
      </trkpt>
      <trkpt lat="48.62761" lon="2.07116">
        <ele>143</ele>
        <time>2010-05-13T07:34:22Z</time>
      </trkpt>
      <trkpt lat="48.62762" lon="2.07116">
        <ele>143</ele>
        <time>2010-05-13T07:34:23Z</time>
      </trkpt>
      <trkpt lat="48.62764" lon="2.07115">
        <ele>142</ele>
        <time>2010-05-13T07:34:24Z</time>
      </trkpt>
      <trkpt lat="48.62766" lon="2.07115">
        <ele>142</ele>
        <time>2010-05-13T07:34:25Z</time>
      </trkpt>
      <trkpt lat="48.62768" lon="2.07115">
        <ele>141</ele>
        <time>2010-05-13T07:34:26Z</time>
      </trkpt>
      <trkpt lat="48.62769" lon="2.07116">
        <ele>141</ele>
        <time>2010-05-13T07:34:27Z</time>
      </trkpt>
      <trkpt lat="48.62771" lon="2.07116">
        <ele>141</ele>
        <time>2010-05-13T07:34:28Z</time>
      </trkpt>
      <trkpt lat="48.62773" lon="2.07117">
        <ele>141</ele>
        <time>2010-05-13T07:34:29Z</time>
      </trkpt>
      <trkpt lat="48.62774" lon="2.07117">
        <ele>140</ele>
        <time>2010-05-13T07:34:30Z</time>
      </trkpt>
      <trkpt lat="48.62776" lon="2.07118">
        <ele>140</ele>
        <time>2010-05-13T07:34:31Z</time>
      </trkpt>
      <trkpt lat="48.62778" lon="2.07118">
        <ele>139</ele>
        <time>2010-05-13T07:34:31Z</time>
      </trkpt>
      <trkpt lat="48.6278" lon="2.07118">
        <ele>138</ele>
        <time>2010-05-13T07:34:33Z</time>
      </trkpt>
      <trkpt lat="48.62781" lon="2.07118">
        <ele>138</ele>
        <time>2010-05-13T07:34:34Z</time>
      </trkpt>
      <trkpt lat="48.62783" lon="2.07119">
        <ele>138</ele>
        <time>2010-05-13T07:34:35Z</time>
      </trkpt>
      <trkpt lat="48.62785" lon="2.07119">
        <ele>138</ele>
        <time>2010-05-13T07:34:36Z</time>
      </trkpt>
      <trkpt lat="48.62786" lon="2.0712">
        <ele>138</ele>
        <time>2010-05-13T07:34:37Z</time>
      </trkpt>
      <trkpt lat="48.62788" lon="2.0712">
        <ele>138</ele>
        <time>2010-05-13T07:34:38Z</time>
      </trkpt>
      <trkpt lat="48.6279" lon="2.07121">
        <ele>138</ele>
        <time>2010-05-13T07:34:39Z</time>
      </trkpt>
      <trkpt lat="48.62791" lon="2.07121">
        <ele>138</ele>
        <time>2010-05-13T07:34:39Z</time>
      </trkpt>
      <trkpt lat="48.62793" lon="2.07121">
        <ele>138</ele>
        <time>2010-05-13T07:34:41Z</time>
      </trkpt>
      <trkpt lat="48.62795" lon="2.07122">
        <ele>138</ele>
        <time>2010-05-13T07:34:42Z</time>
      </trkpt>
      <trkpt lat="48.62796" lon="2.07122">
        <ele>138</ele>
        <time>2010-05-13T07:34:43Z</time>
      </trkpt>
      <trkpt lat="48.62799" lon="2.07123">
        <ele>138</ele>
        <time>2010-05-13T07:34:44Z</time>
      </trkpt>
      <trkpt lat="48.628" lon="2.07124">
        <ele>138</ele>
        <time>2010-05-13T07:34:44Z</time>
      </trkpt>
      <trkpt lat="48.62802" lon="2.07124">
        <ele>138</ele>
        <time>2010-05-13T07:34:46Z</time>
      </trkpt>
      <trkpt lat="48.62803" lon="2.07124">
        <ele>138</ele>
        <time>2010-05-13T07:34:47Z</time>
      </trkpt>
      <trkpt lat="48.62804" lon="2.07124">
        <ele>138</ele>
        <time>2010-05-13T07:34:48Z</time>
      </trkpt>
      <trkpt lat="48.62806" lon="2.07124">
        <ele>138</ele>
        <time>2010-05-13T07:34:49Z</time>
      </trkpt>
      <trkpt lat="48.62808" lon="2.07124">
        <ele>138</ele>
        <time>2010-05-13T07:34:50Z</time>
      </trkpt>
      <trkpt lat="48.6281" lon="2.07125">
        <ele>138</ele>
        <time>2010-05-13T07:34:51Z</time>
      </trkpt>
      <trkpt lat="48.62811" lon="2.07125">
        <ele>138</ele>
        <time>2010-05-13T07:34:52Z</time>
      </trkpt>
      <trkpt lat="48.62813" lon="2.07126">
        <ele>138</ele>
        <time>2010-05-13T07:34:53Z</time>
      </trkpt>
      <trkpt lat="48.62815" lon="2.07126">
        <ele>138</ele>
        <time>2010-05-13T07:34:54Z</time>
      </trkpt>
      <trkpt lat="48.62816" lon="2.07127">
        <ele>138</ele>
        <time>2010-05-13T07:34:54Z</time>
      </trkpt>
      <trkpt lat="48.62818" lon="2.07127">
        <ele>138</ele>
        <time>2010-05-13T07:34:55Z</time>
      </trkpt>
      <trkpt lat="48.62819" lon="2.07127">
        <ele>138</ele>
        <time>2010-05-13T07:34:56Z</time>
      </trkpt>
      <trkpt lat="48.62821" lon="2.07127">
        <ele>138</ele>
        <time>2010-05-13T07:34:58Z</time>
      </trkpt>
      <trkpt lat="48.62823" lon="2.07128">
        <ele>138</ele>
        <time>2010-05-13T07:34:59Z</time>
      </trkpt>
      <trkpt lat="48.62825" lon="2.07128">
        <ele>138</ele>
        <time>2010-05-13T07:35:00Z</time>
      </trkpt>
      <trkpt lat="48.62826" lon="2.07128">
        <ele>138</ele>
        <time>2010-05-13T07:35:01Z</time>
      </trkpt>
      <trkpt lat="48.62828" lon="2.07129">
        <ele>138</ele>
        <time>2010-05-13T07:35:02Z</time>
      </trkpt>
      <trkpt lat="48.62829" lon="2.07129">
        <ele>138</ele>
        <time>2010-05-13T07:35:03Z</time>
      </trkpt>
      <trkpt lat="48.62831" lon="2.07129">
        <ele>138</ele>
        <time>2010-05-13T07:35:04Z</time>
      </trkpt>
      <trkpt lat="48.62832" lon="2.07129">
        <ele>138</ele>
        <time>2010-05-13T07:35:05Z</time>
      </trkpt>
      <trkpt lat="48.62834" lon="2.07129">
        <ele>138</ele>
        <time>2010-05-13T07:35:07Z</time>
      </trkpt>
      <trkpt lat="48.62835" lon="2.07129">
        <ele>138</ele>
        <time>2010-05-13T07:35:09Z</time>
      </trkpt>
      <trkpt lat="48.62836" lon="2.07131">
        <ele>138</ele>
        <time>2010-05-13T07:35:13Z</time>
      </trkpt>
      <trkpt lat="48.62838" lon="2.07133">
        <ele>138</ele>
        <time>2010-05-13T07:35:16Z</time>
      </trkpt>
      <trkpt lat="48.62838" lon="2.07134">
        <ele>138</ele>
        <time>2010-05-13T07:35:20Z</time>
      </trkpt>
      <trkpt lat="48.62839" lon="2.07133">
        <ele>141</ele>
        <time>2010-05-13T07:35:25Z</time>
      </trkpt>
      <trkpt lat="48.62838" lon="2.07131">
        <ele>142</ele>
        <time>2010-05-13T07:35:26Z</time>
      </trkpt>
      <trkpt lat="48.62838" lon="2.07129">
        <ele>143</ele>
        <time>2010-05-13T07:35:28Z</time>
      </trkpt>
      <trkpt lat="48.62837" lon="2.07127">
        <ele>143</ele>
        <time>2010-05-13T07:35:32Z</time>
      </trkpt>
      <trkpt lat="48.62836" lon="2.07125">
        <ele>143</ele>
        <time>2010-05-13T07:35:42Z</time>
      </trkpt>
      <trkpt lat="48.62837" lon="2.07124">
        <ele>140</ele>
        <time>2010-05-13T07:35:48Z</time>
      </trkpt>
      <trkpt lat="48.62836" lon="2.07122">
        <ele>136</ele>
        <time>2010-05-13T07:35:54Z</time>
      </trkpt>
      <trkpt lat="48.62837" lon="2.07119">
        <ele>133</ele>
        <time>2010-05-13T07:35:58Z</time>
      </trkpt>
      <trkpt lat="48.62839" lon="2.07119">
        <ele>133</ele>
        <time>2010-05-13T07:36:00Z</time>
      </trkpt>
      <trkpt lat="48.62839" lon="2.07121">
        <ele>133</ele>
        <time>2010-05-13T07:36:03Z</time>
      </trkpt>
      <trkpt lat="48.62838" lon="2.0712">
        <ele>132</ele>
        <time>2010-05-13T07:36:12Z</time>
      </trkpt>
      <trkpt lat="48.62837" lon="2.07118">
        <ele>125</ele>
        <time>2010-05-13T07:36:21Z</time>
      </trkpt>
      <trkpt lat="48.62835" lon="2.07116">
        <ele>123</ele>
        <time>2010-05-13T07:36:22Z</time>
      </trkpt>
      <trkpt lat="48.62835" lon="2.07114">
        <ele>122</ele>
        <time>2010-05-13T07:36:24Z</time>
      </trkpt>
      <trkpt lat="48.62835" lon="2.07113">
        <ele>121</ele>
        <time>2010-05-13T07:36:25Z</time>
      </trkpt>
      <trkpt lat="48.62835" lon="2.07111">
        <ele>120</ele>
        <time>2010-05-13T07:36:26Z</time>
      </trkpt>
      <trkpt lat="48.62834" lon="2.07109">
        <ele>120</ele>
        <time>2010-05-13T07:36:27Z</time>
      </trkpt>
      <trkpt lat="48.62834" lon="2.07107">
        <ele>120</ele>
        <time>2010-05-13T07:36:28Z</time>
      </trkpt>
      <trkpt lat="48.62834" lon="2.07105">
        <ele>120</ele>
        <time>2010-05-13T07:36:29Z</time>
      </trkpt>
      <trkpt lat="48.62834" lon="2.07103">
        <ele>120</ele>
        <time>2010-05-13T07:36:30Z</time>
      </trkpt>
      <trkpt lat="48.62834" lon="2.07101">
        <ele>120</ele>
        <time>2010-05-13T07:36:31Z</time>
      </trkpt>
      <trkpt lat="48.62834" lon="2.07099">
        <ele>120</ele>
        <time>2010-05-13T07:36:32Z</time>
      </trkpt>
      <trkpt lat="48.62834" lon="2.07098">
        <ele>120</ele>
        <time>2010-05-13T07:36:32Z</time>
      </trkpt>
      <trkpt lat="48.62833" lon="2.07096">
        <ele>120</ele>
        <time>2010-05-13T07:36:34Z</time>
      </trkpt>
      <trkpt lat="48.62833" lon="2.07094">
        <ele>120</ele>
        <time>2010-05-13T07:36:35Z</time>
      </trkpt>
      <trkpt lat="48.62833" lon="2.07092">
        <ele>120</ele>
        <time>2010-05-13T07:36:36Z</time>
      </trkpt>
      <trkpt lat="48.62833" lon="2.0709">
        <ele>120</ele>
        <time>2010-05-13T07:36:37Z</time>
      </trkpt>
      <trkpt lat="48.62833" lon="2.07087">
        <ele>120</ele>
        <time>2010-05-13T07:36:37Z</time>
      </trkpt>
      <trkpt lat="48.62833" lon="2.07084">
        <ele>120</ele>
        <time>2010-05-13T07:36:39Z</time>
      </trkpt>
      <trkpt lat="48.62833" lon="2.07081">
        <ele>121</ele>
        <time>2010-05-13T07:36:40Z</time>
      </trkpt>
      <trkpt lat="48.62832" lon="2.07077">
        <ele>122</ele>
        <time>2010-05-13T07:36:41Z</time>
      </trkpt>
      <trkpt lat="48.62832" lon="2.07074">
        <ele>123</ele>
        <time>2010-05-13T07:36:42Z</time>
      </trkpt>
      <trkpt lat="48.62832" lon="2.0707">
        <ele>124</ele>
        <time>2010-05-13T07:36:43Z</time>
      </trkpt>
      <trkpt lat="48.62831" lon="2.07067">
        <ele>124</ele>
        <time>2010-05-13T07:36:43Z</time>
      </trkpt>
      <trkpt lat="48.62831" lon="2.07064">
        <ele>124</ele>
        <time>2010-05-13T07:36:45Z</time>
      </trkpt>
      <trkpt lat="48.6283" lon="2.07061">
        <ele>124</ele>
        <time>2010-05-13T07:36:46Z</time>
      </trkpt>
      <trkpt lat="48.6283" lon="2.07059">
        <ele>124</ele>
        <time>2010-05-13T07:36:47Z</time>
      </trkpt>
      <trkpt lat="48.6283" lon="2.07057">
        <ele>124</ele>
        <time>2010-05-13T07:36:48Z</time>
      </trkpt>
      <trkpt lat="48.6283" lon="2.07055">
        <ele>124</ele>
        <time>2010-05-13T07:36:48Z</time>
      </trkpt>
      <trkpt lat="48.6283" lon="2.07052">
        <ele>124</ele>
        <time>2010-05-13T07:36:51Z</time>
      </trkpt>
      <trkpt lat="48.6283" lon="2.0705">
        <ele>124</ele>
        <time>2010-05-13T07:36:52Z</time>
      </trkpt>
      <trkpt lat="48.6283" lon="2.07048">
        <ele>124</ele>
        <time>2010-05-13T07:36:52Z</time>
      </trkpt>
      <trkpt lat="48.6283" lon="2.07046">
        <ele>124</ele>
        <time>2010-05-13T07:36:54Z</time>
      </trkpt>
      <trkpt lat="48.6283" lon="2.07044">
        <ele>124</ele>
        <time>2010-05-13T07:36:55Z</time>
      </trkpt>
      <trkpt lat="48.6283" lon="2.07042">
        <ele>124</ele>
        <time>2010-05-13T07:36:56Z</time>
      </trkpt>
      <trkpt lat="48.6283" lon="2.0704">
        <ele>124</ele>
        <time>2010-05-13T07:36:56Z</time>
      </trkpt>
      <trkpt lat="48.6283" lon="2.07038">
        <ele>124</ele>
        <time>2010-05-13T07:36:58Z</time>
      </trkpt>
      <trkpt lat="48.62829" lon="2.07036">
        <ele>124</ele>
        <time>2010-05-13T07:36:59Z</time>
      </trkpt>
      <trkpt lat="48.62829" lon="2.07033">
        <ele>124</ele>
        <time>2010-05-13T07:37:01Z</time>
      </trkpt>
      <trkpt lat="48.62829" lon="2.07031">
        <ele>124</ele>
        <time>2010-05-13T07:37:02Z</time>
      </trkpt>
      <trkpt lat="48.62828" lon="2.07029">
        <ele>124</ele>
        <time>2010-05-13T07:37:03Z</time>
      </trkpt>
      <trkpt lat="48.62828" lon="2.07028">
        <ele>124</ele>
        <time>2010-05-13T07:37:04Z</time>
      </trkpt>
      <trkpt lat="48.62828" lon="2.07026">
        <ele>124</ele>
        <time>2010-05-13T07:37:06Z</time>
      </trkpt>
      <trkpt lat="48.62827" lon="2.07026">
        <ele>124</ele>
        <time>2010-05-13T07:37:09Z</time>
      </trkpt>
      <trkpt lat="48.62826" lon="2.07023">
        <ele>124</ele>
        <time>2010-05-13T07:37:14Z</time>
      </trkpt>
      <trkpt lat="48.62825" lon="2.07021">
        <ele>124</ele>
        <time>2010-05-13T07:37:15Z</time>
      </trkpt>
      <trkpt lat="48.62825" lon="2.07018">
        <ele>124</ele>
        <time>2010-05-13T07:37:16Z</time>
      </trkpt>
      <trkpt lat="48.62824" lon="2.07015">
        <ele>124</ele>
        <time>2010-05-13T07:37:17Z</time>
      </trkpt>
      <trkpt lat="48.62824" lon="2.07012">
        <ele>124</ele>
        <time>2010-05-13T07:37:18Z</time>
      </trkpt>
      <trkpt lat="48.62823" lon="2.07009">
        <ele>124</ele>
        <time>2010-05-13T07:37:19Z</time>
      </trkpt>
      <trkpt lat="48.62823" lon="2.07006">
        <ele>124</ele>
        <time>2010-05-13T07:37:20Z</time>
      </trkpt>
      <trkpt lat="48.62823" lon="2.07004">
        <ele>124</ele>
        <time>2010-05-13T07:37:22Z</time>
      </trkpt>
      <trkpt lat="48.62824" lon="2.07001">
        <ele>126</ele>
        <time>2010-05-13T07:37:27Z</time>
      </trkpt>
      <trkpt lat="48.62824" lon="2.06999">
        <ele>128</ele>
        <time>2010-05-13T07:37:30Z</time>
      </trkpt>
      <trkpt lat="48.62823" lon="2.06997">
        <ele>129</ele>
        <time>2010-05-13T07:37:31Z</time>
      </trkpt>
      <trkpt lat="48.62823" lon="2.06995">
        <ele>130</ele>
        <time>2010-05-13T07:37:32Z</time>
      </trkpt>
      <trkpt lat="48.62823" lon="2.06994">
        <ele>131</ele>
        <time>2010-05-13T07:37:33Z</time>
      </trkpt>
      <trkpt lat="48.62823" lon="2.06992">
        <ele>132</ele>
        <time>2010-05-13T07:37:34Z</time>
      </trkpt>
      <trkpt lat="48.62823" lon="2.0699">
        <ele>133</ele>
        <time>2010-05-13T07:37:35Z</time>
      </trkpt>
      <trkpt lat="48.62823" lon="2.06988">
        <ele>134</ele>
        <time>2010-05-13T07:37:36Z</time>
      </trkpt>
      <trkpt lat="48.62822" lon="2.06986">
        <ele>135</ele>
        <time>2010-05-13T07:37:37Z</time>
      </trkpt>
      <trkpt lat="48.62822" lon="2.06983">
        <ele>136</ele>
        <time>2010-05-13T07:37:38Z</time>
      </trkpt>
      <trkpt lat="48.62822" lon="2.06981">
        <ele>137</ele>
        <time>2010-05-13T07:37:39Z</time>
      </trkpt>
      <trkpt lat="48.62822" lon="2.06978">
        <ele>138</ele>
        <time>2010-05-13T07:37:40Z</time>
      </trkpt>
      <trkpt lat="48.62821" lon="2.06976">
        <ele>138</ele>
        <time>2010-05-13T07:37:41Z</time>
      </trkpt>
      <trkpt lat="48.62821" lon="2.06974">
        <ele>138</ele>
        <time>2010-05-13T07:37:42Z</time>
      </trkpt>
      <trkpt lat="48.6282" lon="2.06972">
        <ele>138</ele>
        <time>2010-05-13T07:37:43Z</time>
      </trkpt>
      <trkpt lat="48.6282" lon="2.06969">
        <ele>138</ele>
        <time>2010-05-13T07:37:44Z</time>
      </trkpt>
      <trkpt lat="48.6282" lon="2.06967">
        <ele>138</ele>
        <time>2010-05-13T07:37:45Z</time>
      </trkpt>
      <trkpt lat="48.6282" lon="2.06965">
        <ele>138</ele>
        <time>2010-05-13T07:37:46Z</time>
      </trkpt>
      <trkpt lat="48.6282" lon="2.06962">
        <ele>138</ele>
        <time>2010-05-13T07:37:47Z</time>
      </trkpt>
      <trkpt lat="48.62819" lon="2.06961">
        <ele>138</ele>
        <time>2010-05-13T07:37:48Z</time>
      </trkpt>
      <trkpt lat="48.62819" lon="2.06959">
        <ele>138</ele>
        <time>2010-05-13T07:37:49Z</time>
      </trkpt>
      <trkpt lat="48.62819" lon="2.06957">
        <ele>137</ele>
        <time>2010-05-13T07:37:50Z</time>
      </trkpt>
      <trkpt lat="48.62819" lon="2.06955">
        <ele>137</ele>
        <time>2010-05-13T07:37:51Z</time>
      </trkpt>
      <trkpt lat="48.62818" lon="2.06952">
        <ele>137</ele>
        <time>2010-05-13T07:37:52Z</time>
      </trkpt>
      <trkpt lat="48.62818" lon="2.0695">
        <ele>137</ele>
        <time>2010-05-13T07:37:53Z</time>
      </trkpt>
      <trkpt lat="48.62818" lon="2.06947">
        <ele>137</ele>
        <time>2010-05-13T07:37:54Z</time>
      </trkpt>
      <trkpt lat="48.62817" lon="2.06944">
        <ele>137</ele>
        <time>2010-05-13T07:37:55Z</time>
      </trkpt>
      <trkpt lat="48.62817" lon="2.0694">
        <ele>137</ele>
        <time>2010-05-13T07:37:56Z</time>
      </trkpt>
      <trkpt lat="48.62817" lon="2.06936">
        <ele>137</ele>
        <time>2010-05-13T07:37:56Z</time>
      </trkpt>
      <trkpt lat="48.62816" lon="2.06933">
        <ele>137</ele>
        <time>2010-05-13T07:37:58Z</time>
      </trkpt>
      <trkpt lat="48.62816" lon="2.0693">
        <ele>136</ele>
        <time>2010-05-13T07:37:59Z</time>
      </trkpt>
      <trkpt lat="48.62815" lon="2.06926">
        <ele>135</ele>
        <time>2010-05-13T07:38:00Z</time>
      </trkpt>
      <trkpt lat="48.62815" lon="2.06923">
        <ele>134</ele>
        <time>2010-05-13T07:38:01Z</time>
      </trkpt>
      <trkpt lat="48.62815" lon="2.06919">
        <ele>133</ele>
        <time>2010-05-13T07:38:02Z</time>
      </trkpt>
      <trkpt lat="48.62814" lon="2.06916">
        <ele>132</ele>
        <time>2010-05-13T07:38:03Z</time>
      </trkpt>
      <trkpt lat="48.62815" lon="2.06912">
        <ele>132</ele>
        <time>2010-05-13T07:38:03Z</time>
      </trkpt>
      <trkpt lat="48.62814" lon="2.0691">
        <ele>131</ele>
        <time>2010-05-13T07:38:05Z</time>
      </trkpt>
      <trkpt lat="48.62814" lon="2.06907">
        <ele>131</ele>
        <time>2010-05-13T07:38:06Z</time>
      </trkpt>
      <trkpt lat="48.62813" lon="2.06904">
        <ele>130</ele>
        <time>2010-05-13T07:38:07Z</time>
      </trkpt>
      <trkpt lat="48.62813" lon="2.06901">
        <ele>129</ele>
        <time>2010-05-13T07:38:08Z</time>
      </trkpt>
      <trkpt lat="48.62813" lon="2.06899">
        <ele>128</ele>
        <time>2010-05-13T07:38:09Z</time>
      </trkpt>
      <trkpt lat="48.62812" lon="2.06896">
        <ele>128</ele>
        <time>2010-05-13T07:38:10Z</time>
      </trkpt>
      <trkpt lat="48.62812" lon="2.06893">
        <ele>128</ele>
        <time>2010-05-13T07:38:11Z</time>
      </trkpt>
      <trkpt lat="48.62812" lon="2.06891">
        <ele>128</ele>
        <time>2010-05-13T07:38:12Z</time>
      </trkpt>
      <trkpt lat="48.62811" lon="2.06888">
        <ele>128</ele>
        <time>2010-05-13T07:38:13Z</time>
      </trkpt>
      <trkpt lat="48.62811" lon="2.06885">
        <ele>128</ele>
        <time>2010-05-13T07:38:14Z</time>
      </trkpt>
      <trkpt lat="48.62811" lon="2.06883">
        <ele>128</ele>
        <time>2010-05-13T07:38:15Z</time>
      </trkpt>
      <trkpt lat="48.62811" lon="2.0688">
        <ele>128</ele>
        <time>2010-05-13T07:38:16Z</time>
      </trkpt>
      <trkpt lat="48.62811" lon="2.06878">
        <ele>128</ele>
        <time>2010-05-13T07:38:17Z</time>
      </trkpt>
      <trkpt lat="48.62811" lon="2.06875">
        <ele>128</ele>
        <time>2010-05-13T07:38:18Z</time>
      </trkpt>
      <trkpt lat="48.62811" lon="2.06873">
        <ele>128</ele>
        <time>2010-05-13T07:38:18Z</time>
      </trkpt>
      <trkpt lat="48.6281" lon="2.06871">
        <ele>128</ele>
        <time>2010-05-13T07:38:20Z</time>
      </trkpt>
      <trkpt lat="48.6281" lon="2.06868">
        <ele>128</ele>
        <time>2010-05-13T07:38:20Z</time>
      </trkpt>
      <trkpt lat="48.6281" lon="2.06866">
        <ele>128</ele>
        <time>2010-05-13T07:38:22Z</time>
      </trkpt>
      <trkpt lat="48.6281" lon="2.06863">
        <ele>128</ele>
        <time>2010-05-13T07:38:22Z</time>
      </trkpt>
      <trkpt lat="48.6281" lon="2.0686">
        <ele>128</ele>
        <time>2010-05-13T07:38:24Z</time>
      </trkpt>
      <trkpt lat="48.6281" lon="2.06858">
        <ele>128</ele>
        <time>2010-05-13T07:38:25Z</time>
      </trkpt>
      <trkpt lat="48.6281" lon="2.06855">
        <ele>128</ele>
        <time>2010-05-13T07:38:26Z</time>
      </trkpt>
      <trkpt lat="48.62809" lon="2.06852">
        <ele>128</ele>
        <time>2010-05-13T07:38:26Z</time>
      </trkpt>
      <trkpt lat="48.62809" lon="2.0685">
        <ele>128</ele>
        <time>2010-05-13T07:38:28Z</time>
      </trkpt>
      <trkpt lat="48.62809" lon="2.06847">
        <ele>128</ele>
        <time>2010-05-13T07:38:29Z</time>
      </trkpt>
      <trkpt lat="48.62809" lon="2.06845">
        <ele>128</ele>
        <time>2010-05-13T07:38:30Z</time>
      </trkpt>
      <trkpt lat="48.62809" lon="2.06842">
        <ele>128</ele>
        <time>2010-05-13T07:38:31Z</time>
      </trkpt>
      <trkpt lat="48.62809" lon="2.0684">
        <ele>128</ele>
        <time>2010-05-13T07:38:32Z</time>
      </trkpt>
      <trkpt lat="48.62809" lon="2.06837">
        <ele>128</ele>
        <time>2010-05-13T07:38:32Z</time>
      </trkpt>
      <trkpt lat="48.62809" lon="2.06835">
        <ele>128</ele>
        <time>2010-05-13T07:38:34Z</time>
      </trkpt>
      <trkpt lat="48.62809" lon="2.06832">
        <ele>128</ele>
        <time>2010-05-13T07:38:35Z</time>
      </trkpt>
      <trkpt lat="48.62809" lon="2.06829">
        <ele>128</ele>
        <time>2010-05-13T07:38:36Z</time>
      </trkpt>
      <trkpt lat="48.62809" lon="2.06827">
        <ele>128</ele>
        <time>2010-05-13T07:38:37Z</time>
      </trkpt>
      <trkpt lat="48.62809" lon="2.06824">
        <ele>128</ele>
        <time>2010-05-13T07:38:38Z</time>
      </trkpt>
      <trkpt lat="48.62808" lon="2.06822">
        <ele>128</ele>
        <time>2010-05-13T07:38:39Z</time>
      </trkpt>
      <trkpt lat="48.62808" lon="2.06819">
        <ele>128</ele>
        <time>2010-05-13T07:38:40Z</time>
      </trkpt>
      <trkpt lat="48.62809" lon="2.06817">
        <ele>128</ele>
        <time>2010-05-13T07:38:41Z</time>
      </trkpt>
      <trkpt lat="48.62809" lon="2.06815">
        <ele>128</ele>
        <time>2010-05-13T07:38:42Z</time>
      </trkpt>
      <trkpt lat="48.62809" lon="2.06812">
        <ele>128</ele>
        <time>2010-05-13T07:38:42Z</time>
      </trkpt>
      <trkpt lat="48.62809" lon="2.0681">
        <ele>128</ele>
        <time>2010-05-13T07:38:44Z</time>
      </trkpt>
      <trkpt lat="48.62809" lon="2.06807">
        <ele>128</ele>
        <time>2010-05-13T07:38:45Z</time>
      </trkpt>
      <trkpt lat="48.62809" lon="2.06805">
        <ele>128</ele>
        <time>2010-05-13T07:38:46Z</time>
      </trkpt>
      <trkpt lat="48.62809" lon="2.06802">
        <ele>129</ele>
        <time>2010-05-13T07:38:47Z</time>
      </trkpt>
      <trkpt lat="48.62809" lon="2.06799">
        <ele>129</ele>
        <time>2010-05-13T07:38:48Z</time>
      </trkpt>
      <trkpt lat="48.62809" lon="2.06797">
        <ele>129</ele>
        <time>2010-05-13T07:38:49Z</time>
      </trkpt>
      <trkpt lat="48.62809" lon="2.06794">
        <ele>129</ele>
        <time>2010-05-13T07:38:50Z</time>
      </trkpt>
      <trkpt lat="48.62809" lon="2.06792">
        <ele>129</ele>
        <time>2010-05-13T07:38:51Z</time>
      </trkpt>
      <trkpt lat="48.62809" lon="2.0679">
        <ele>129</ele>
        <time>2010-05-13T07:38:52Z</time>
      </trkpt>
      <trkpt lat="48.62809" lon="2.06787">
        <ele>130</ele>
        <time>2010-05-13T07:38:53Z</time>
      </trkpt>
      <trkpt lat="48.62809" lon="2.06785">
        <ele>130</ele>
        <time>2010-05-13T07:38:54Z</time>
      </trkpt>
      <trkpt lat="48.6281" lon="2.06783">
        <ele>131</ele>
        <time>2010-05-13T07:38:55Z</time>
      </trkpt>
      <trkpt lat="48.6281" lon="2.0678">
        <ele>132</ele>
        <time>2010-05-13T07:38:56Z</time>
      </trkpt>
      <trkpt lat="48.6281" lon="2.06777">
        <ele>133</ele>
        <time>2010-05-13T07:38:57Z</time>
      </trkpt>
      <trkpt lat="48.6281" lon="2.06775">
        <ele>134</ele>
        <time>2010-05-13T07:38:58Z</time>
      </trkpt>
      <trkpt lat="48.6281" lon="2.06772">
        <ele>135</ele>
        <time>2010-05-13T07:38:59Z</time>
      </trkpt>
      <trkpt lat="48.62809" lon="2.0677">
        <ele>136</ele>
        <time>2010-05-13T07:39:00Z</time>
      </trkpt>
      <trkpt lat="48.6281" lon="2.06767">
        <ele>137</ele>
        <time>2010-05-13T07:39:00Z</time>
      </trkpt>
      <trkpt lat="48.6281" lon="2.06764">
        <ele>138</ele>
        <time>2010-05-13T07:39:02Z</time>
      </trkpt>
      <trkpt lat="48.6281" lon="2.06762">
        <ele>139</ele>
        <time>2010-05-13T07:39:03Z</time>
      </trkpt>
      <trkpt lat="48.6281" lon="2.06759">
        <ele>140</ele>
        <time>2010-05-13T07:39:04Z</time>
      </trkpt>
      <trkpt lat="48.6281" lon="2.06756">
        <ele>141</ele>
        <time>2010-05-13T07:39:05Z</time>
      </trkpt>
      <trkpt lat="48.6281" lon="2.06754">
        <ele>142</ele>
        <time>2010-05-13T07:39:06Z</time>
      </trkpt>
      <trkpt lat="48.62811" lon="2.06751">
        <ele>143</ele>
        <time>2010-05-13T07:39:07Z</time>
      </trkpt>
      <trkpt lat="48.62812" lon="2.06749">
        <ele>144</ele>
        <time>2010-05-13T07:39:08Z</time>
      </trkpt>
      <trkpt lat="48.62812" lon="2.06747">
        <ele>145</ele>
        <time>2010-05-13T07:39:09Z</time>
      </trkpt>
      <trkpt lat="48.62812" lon="2.06744">
        <ele>146</ele>
        <time>2010-05-13T07:39:10Z</time>
      </trkpt>
      <trkpt lat="48.62812" lon="2.06742">
        <ele>146</ele>
        <time>2010-05-13T07:39:10Z</time>
      </trkpt>
      <trkpt lat="48.62811" lon="2.0674">
        <ele>146</ele>
        <time>2010-05-13T07:39:12Z</time>
      </trkpt>
      <trkpt lat="48.62811" lon="2.06738">
        <ele>146</ele>
        <time>2010-05-13T07:39:13Z</time>
      </trkpt>
      <trkpt lat="48.62811" lon="2.06736">
        <ele>146</ele>
        <time>2010-05-13T07:39:14Z</time>
      </trkpt>
      <trkpt lat="48.6281" lon="2.06734">
        <ele>146</ele>
        <time>2010-05-13T07:39:15Z</time>
      </trkpt>
      <trkpt lat="48.62809" lon="2.06731">
        <ele>146</ele>
        <time>2010-05-13T07:39:16Z</time>
      </trkpt>
      <trkpt lat="48.62808" lon="2.06728">
        <ele>146</ele>
        <time>2010-05-13T07:39:17Z</time>
      </trkpt>
      <trkpt lat="48.62808" lon="2.06724">
        <ele>146</ele>
        <time>2010-05-13T07:39:18Z</time>
      </trkpt>
      <trkpt lat="48.62808" lon="2.06721">
        <ele>146</ele>
        <time>2010-05-13T07:39:19Z</time>
      </trkpt>
      <trkpt lat="48.62807" lon="2.06718">
        <ele>146</ele>
        <time>2010-05-13T07:39:20Z</time>
      </trkpt>
      <trkpt lat="48.62807" lon="2.06715">
        <ele>146</ele>
        <time>2010-05-13T07:39:21Z</time>
      </trkpt>
      <trkpt lat="48.62806" lon="2.06712">
        <ele>146</ele>
        <time>2010-05-13T07:39:22Z</time>
      </trkpt>
      <trkpt lat="48.62806" lon="2.06709">
        <ele>146</ele>
        <time>2010-05-13T07:39:23Z</time>
      </trkpt>
      <trkpt lat="48.62806" lon="2.06707">
        <ele>145</ele>
        <time>2010-05-13T07:39:24Z</time>
      </trkpt>
      <trkpt lat="48.62806" lon="2.06704">
        <ele>144</ele>
        <time>2010-05-13T07:39:25Z</time>
      </trkpt>
      <trkpt lat="48.62806" lon="2.06702">
        <ele>144</ele>
        <time>2010-05-13T07:39:26Z</time>
      </trkpt>
      <trkpt lat="48.62806" lon="2.067">
        <ele>144</ele>
        <time>2010-05-13T07:39:27Z</time>
      </trkpt>
      <trkpt lat="48.62807" lon="2.06698">
        <ele>143</ele>
        <time>2010-05-13T07:39:28Z</time>
      </trkpt>
      <trkpt lat="48.62807" lon="2.06695">
        <ele>143</ele>
        <time>2010-05-13T07:39:29Z</time>
      </trkpt>
      <trkpt lat="48.62808" lon="2.06692">
        <ele>143</ele>
        <time>2010-05-13T07:39:30Z</time>
      </trkpt>
      <trkpt lat="48.62808" lon="2.06689">
        <ele>143</ele>
        <time>2010-05-13T07:39:31Z</time>
      </trkpt>
      <trkpt lat="48.62808" lon="2.06686">
        <ele>143</ele>
        <time>2010-05-13T07:39:31Z</time>
      </trkpt>
      <trkpt lat="48.62808" lon="2.06683">
        <ele>143</ele>
        <time>2010-05-13T07:39:33Z</time>
      </trkpt>
      <trkpt lat="48.62808" lon="2.06679">
        <ele>143</ele>
        <time>2010-05-13T07:39:34Z</time>
      </trkpt>
      <trkpt lat="48.62808" lon="2.06677">
        <ele>143</ele>
        <time>2010-05-13T07:39:34Z</time>
      </trkpt>
      <trkpt lat="48.62807" lon="2.06675">
        <ele>143</ele>
        <time>2010-05-13T07:39:36Z</time>
      </trkpt>
      <trkpt lat="48.62807" lon="2.06672">
        <ele>143</ele>
        <time>2010-05-13T07:39:37Z</time>
      </trkpt>
      <trkpt lat="48.62807" lon="2.06669">
        <ele>143</ele>
        <time>2010-05-13T07:39:39Z</time>
      </trkpt>
      <trkpt lat="48.62807" lon="2.06667">
        <ele>143</ele>
        <time>2010-05-13T07:39:40Z</time>
      </trkpt>
      <trkpt lat="48.62807" lon="2.06665">
        <ele>143</ele>
        <time>2010-05-13T07:39:41Z</time>
      </trkpt>
      <trkpt lat="48.62806" lon="2.06662">
        <ele>143</ele>
        <time>2010-05-13T07:39:42Z</time>
      </trkpt>
      <trkpt lat="48.62806" lon="2.06659">
        <ele>143</ele>
        <time>2010-05-13T07:39:43Z</time>
      </trkpt>
      <trkpt lat="48.62806" lon="2.06657">
        <ele>143</ele>
        <time>2010-05-13T07:39:44Z</time>
      </trkpt>
      <trkpt lat="48.62806" lon="2.06655">
        <ele>143</ele>
        <time>2010-05-13T07:39:45Z</time>
      </trkpt>
      <trkpt lat="48.62806" lon="2.06652">
        <ele>143</ele>
        <time>2010-05-13T07:39:46Z</time>
      </trkpt>
      <trkpt lat="48.62805" lon="2.0665">
        <ele>143</ele>
        <time>2010-05-13T07:39:47Z</time>
      </trkpt>
      <trkpt lat="48.62806" lon="2.06647">
        <ele>143</ele>
        <time>2010-05-13T07:39:48Z</time>
      </trkpt>
      <trkpt lat="48.62806" lon="2.06645">
        <ele>143</ele>
        <time>2010-05-13T07:39:49Z</time>
      </trkpt>
      <trkpt lat="48.62806" lon="2.06643">
        <ele>143</ele>
        <time>2010-05-13T07:39:50Z</time>
      </trkpt>
      <trkpt lat="48.62806" lon="2.0664">
        <ele>143</ele>
        <time>2010-05-13T07:39:51Z</time>
      </trkpt>
      <trkpt lat="48.62806" lon="2.06637">
        <ele>143</ele>
        <time>2010-05-13T07:39:52Z</time>
      </trkpt>
      <trkpt lat="48.62806" lon="2.06634">
        <ele>143</ele>
        <time>2010-05-13T07:39:53Z</time>
      </trkpt>
      <trkpt lat="48.62806" lon="2.06631">
        <ele>143</ele>
        <time>2010-05-13T07:39:54Z</time>
      </trkpt>
      <trkpt lat="48.62805" lon="2.06628">
        <ele>143</ele>
        <time>2010-05-13T07:39:55Z</time>
      </trkpt>
      <trkpt lat="48.62806" lon="2.06625">
        <ele>143</ele>
        <time>2010-05-13T07:39:56Z</time>
      </trkpt>
      <trkpt lat="48.62805" lon="2.06621">
        <ele>143</ele>
        <time>2010-05-13T07:39:56Z</time>
      </trkpt>
      <trkpt lat="48.62805" lon="2.06617">
        <ele>142</ele>
        <time>2010-05-13T07:39:58Z</time>
      </trkpt>
      <trkpt lat="48.62805" lon="2.06614">
        <ele>142</ele>
        <time>2010-05-13T07:39:59Z</time>
      </trkpt>
      <trkpt lat="48.62805" lon="2.06611">
        <ele>142</ele>
        <time>2010-05-13T07:40:00Z</time>
      </trkpt>
      <trkpt lat="48.62805" lon="2.06609">
        <ele>142</ele>
        <time>2010-05-13T07:40:01Z</time>
      </trkpt>
      <trkpt lat="48.62805" lon="2.06606">
        <ele>142</ele>
        <time>2010-05-13T07:40:01Z</time>
      </trkpt>
      <trkpt lat="48.62805" lon="2.06603">
        <ele>142</ele>
        <time>2010-05-13T07:40:03Z</time>
      </trkpt>
      <trkpt lat="48.62805" lon="2.06601">
        <ele>142</ele>
        <time>2010-05-13T07:40:04Z</time>
      </trkpt>
      <trkpt lat="48.62805" lon="2.06598">
        <ele>142</ele>
        <time>2010-05-13T07:40:05Z</time>
      </trkpt>
      <trkpt lat="48.62804" lon="2.06595">
        <ele>142</ele>
        <time>2010-05-13T07:40:06Z</time>
      </trkpt>
      <trkpt lat="48.62804" lon="2.06592">
        <ele>142</ele>
        <time>2010-05-13T07:40:07Z</time>
      </trkpt>
      <trkpt lat="48.62804" lon="2.0659">
        <ele>142</ele>
        <time>2010-05-13T07:40:08Z</time>
      </trkpt>
      <trkpt lat="48.62804" lon="2.06587">
        <ele>142</ele>
        <time>2010-05-13T07:40:08Z</time>
      </trkpt>
      <trkpt lat="48.62804" lon="2.06584">
        <ele>142</ele>
        <time>2010-05-13T07:40:10Z</time>
      </trkpt>
      <trkpt lat="48.62804" lon="2.06581">
        <ele>142</ele>
        <time>2010-05-13T07:40:11Z</time>
      </trkpt>
      <trkpt lat="48.62803" lon="2.06578">
        <ele>142</ele>
        <time>2010-05-13T07:40:12Z</time>
      </trkpt>
      <trkpt lat="48.62803" lon="2.06576">
        <ele>142</ele>
        <time>2010-05-13T07:40:13Z</time>
      </trkpt>
      <trkpt lat="48.62802" lon="2.06573">
        <ele>142</ele>
        <time>2010-05-13T07:40:14Z</time>
      </trkpt>
      <trkpt lat="48.62802" lon="2.0657">
        <ele>142</ele>
        <time>2010-05-13T07:40:15Z</time>
      </trkpt>
      <trkpt lat="48.62801" lon="2.06568">
        <ele>142</ele>
        <time>2010-05-13T07:40:16Z</time>
      </trkpt>
      <trkpt lat="48.62801" lon="2.06565">
        <ele>142</ele>
        <time>2010-05-13T07:40:17Z</time>
      </trkpt>
      <trkpt lat="48.62801" lon="2.06562">
        <ele>142</ele>
        <time>2010-05-13T07:40:18Z</time>
      </trkpt>
      <trkpt lat="48.62802" lon="2.06559">
        <ele>142</ele>
        <time>2010-05-13T07:40:19Z</time>
      </trkpt>
      <trkpt lat="48.62802" lon="2.06556">
        <ele>142</ele>
        <time>2010-05-13T07:40:20Z</time>
      </trkpt>
      <trkpt lat="48.62802" lon="2.06553">
        <ele>142</ele>
        <time>2010-05-13T07:40:20Z</time>
      </trkpt>
      <trkpt lat="48.62802" lon="2.0655">
        <ele>142</ele>
        <time>2010-05-13T07:40:22Z</time>
      </trkpt>
      <trkpt lat="48.62802" lon="2.06547">
        <ele>142</ele>
        <time>2010-05-13T07:40:22Z</time>
      </trkpt>
      <trkpt lat="48.62802" lon="2.06545">
        <ele>142</ele>
        <time>2010-05-13T07:40:24Z</time>
      </trkpt>
      <trkpt lat="48.62802" lon="2.06543">
        <ele>142</ele>
        <time>2010-05-13T07:40:25Z</time>
      </trkpt>
      <trkpt lat="48.62802" lon="2.0654">
        <ele>142</ele>
        <time>2010-05-13T07:40:26Z</time>
      </trkpt>
      <trkpt lat="48.62802" lon="2.06538">
        <ele>142</ele>
        <time>2010-05-13T07:40:27Z</time>
      </trkpt>
      <trkpt lat="48.62802" lon="2.06535">
        <ele>143</ele>
        <time>2010-05-13T07:40:28Z</time>
      </trkpt>
      <trkpt lat="48.62802" lon="2.06533">
        <ele>143</ele>
        <time>2010-05-13T07:40:29Z</time>
      </trkpt>
      <trkpt lat="48.62801" lon="2.06531">
        <ele>144</ele>
        <time>2010-05-13T07:40:30Z</time>
      </trkpt>
      <trkpt lat="48.62801" lon="2.06528">
        <ele>144</ele>
        <time>2010-05-13T07:40:31Z</time>
      </trkpt>
      <trkpt lat="48.62801" lon="2.06526">
        <ele>144</ele>
        <time>2010-05-13T07:40:32Z</time>
      </trkpt>
      <trkpt lat="48.628" lon="2.06523">
        <ele>144</ele>
        <time>2010-05-13T07:40:32Z</time>
      </trkpt>
      <trkpt lat="48.628" lon="2.0652">
        <ele>144</ele>
        <time>2010-05-13T07:40:34Z</time>
      </trkpt>
      <trkpt lat="48.628" lon="2.06517">
        <ele>144</ele>
        <time>2010-05-13T07:40:35Z</time>
      </trkpt>
      <trkpt lat="48.628" lon="2.06514">
        <ele>144</ele>
        <time>2010-05-13T07:40:36Z</time>
      </trkpt>
      <trkpt lat="48.628" lon="2.06511">
        <ele>144</ele>
        <time>2010-05-13T07:40:37Z</time>
      </trkpt>
      <trkpt lat="48.628" lon="2.06509">
        <ele>144</ele>
        <time>2010-05-13T07:40:38Z</time>
      </trkpt>
      <trkpt lat="48.628" lon="2.06506">
        <ele>144</ele>
        <time>2010-05-13T07:40:39Z</time>
      </trkpt>
      <trkpt lat="48.628" lon="2.06504">
        <ele>144</ele>
        <time>2010-05-13T07:40:40Z</time>
      </trkpt>
      <trkpt lat="48.62799" lon="2.06502">
        <ele>144</ele>
        <time>2010-05-13T07:40:41Z</time>
      </trkpt>
      <trkpt lat="48.62799" lon="2.065">
        <ele>144</ele>
        <time>2010-05-13T07:40:42Z</time>
      </trkpt>
      <trkpt lat="48.62799" lon="2.06498">
        <ele>144</ele>
        <time>2010-05-13T07:40:43Z</time>
      </trkpt>
      <trkpt lat="48.62799" lon="2.06495">
        <ele>144</ele>
        <time>2010-05-13T07:40:44Z</time>
      </trkpt>
      <trkpt lat="48.62799" lon="2.06493">
        <ele>144</ele>
        <time>2010-05-13T07:40:45Z</time>
      </trkpt>
      <trkpt lat="48.62799" lon="2.06491">
        <ele>144</ele>
        <time>2010-05-13T07:40:46Z</time>
      </trkpt>
      <trkpt lat="48.62799" lon="2.06489">
        <ele>145</ele>
        <time>2010-05-13T07:40:47Z</time>
      </trkpt>
      <trkpt lat="48.62799" lon="2.06486">
        <ele>145</ele>
        <time>2010-05-13T07:40:48Z</time>
      </trkpt>
      <trkpt lat="48.62798" lon="2.06484">
        <ele>145</ele>
        <time>2010-05-13T07:40:48Z</time>
      </trkpt>
      <trkpt lat="48.62798" lon="2.06482">
        <ele>145</ele>
        <time>2010-05-13T07:40:50Z</time>
      </trkpt>
      <trkpt lat="48.62798" lon="2.0648">
        <ele>145</ele>
        <time>2010-05-13T07:40:51Z</time>
      </trkpt>
      <trkpt lat="48.62797" lon="2.06478">
        <ele>145</ele>
        <time>2010-05-13T07:40:52Z</time>
      </trkpt>
      <trkpt lat="48.62797" lon="2.06475">
        <ele>145</ele>
        <time>2010-05-13T07:40:53Z</time>
      </trkpt>
      <trkpt lat="48.62797" lon="2.06473">
        <ele>145</ele>
        <time>2010-05-13T07:40:54Z</time>
      </trkpt>
      <trkpt lat="48.62797" lon="2.0647">
        <ele>145</ele>
        <time>2010-05-13T07:40:55Z</time>
      </trkpt>
      <trkpt lat="48.62797" lon="2.06468">
        <ele>145</ele>
        <time>2010-05-13T07:40:56Z</time>
      </trkpt>
      <trkpt lat="48.62797" lon="2.06465">
        <ele>145</ele>
        <time>2010-05-13T07:40:56Z</time>
      </trkpt>
      <trkpt lat="48.62797" lon="2.06463">
        <ele>145</ele>
        <time>2010-05-13T07:40:58Z</time>
      </trkpt>
      <trkpt lat="48.62797" lon="2.06461">
        <ele>145</ele>
        <time>2010-05-13T07:40:59Z</time>
      </trkpt>
      <trkpt lat="48.62797" lon="2.06458">
        <ele>145</ele>
        <time>2010-05-13T07:41:00Z</time>
      </trkpt>
      <trkpt lat="48.62796" lon="2.06456">
        <ele>145</ele>
        <time>2010-05-13T07:41:00Z</time>
      </trkpt>
      <trkpt lat="48.62796" lon="2.06453">
        <ele>145</ele>
        <time>2010-05-13T07:41:02Z</time>
      </trkpt>
      <trkpt lat="48.62796" lon="2.06451">
        <ele>145</ele>
        <time>2010-05-13T07:41:03Z</time>
      </trkpt>
      <trkpt lat="48.62796" lon="2.06449">
        <ele>145</ele>
        <time>2010-05-13T07:41:04Z</time>
      </trkpt>
      <trkpt lat="48.62796" lon="2.06447">
        <ele>145</ele>
        <time>2010-05-13T07:41:04Z</time>
      </trkpt>
      <trkpt lat="48.62796" lon="2.06445">
        <ele>145</ele>
        <time>2010-05-13T07:41:06Z</time>
      </trkpt>
      <trkpt lat="48.62796" lon="2.06443">
        <ele>145</ele>
        <time>2010-05-13T07:41:07Z</time>
      </trkpt>
      <trkpt lat="48.62796" lon="2.0644">
        <ele>145</ele>
        <time>2010-05-13T07:41:08Z</time>
      </trkpt>
      <trkpt lat="48.62796" lon="2.06438">
        <ele>145</ele>
        <time>2010-05-13T07:41:08Z</time>
      </trkpt>
      <trkpt lat="48.62796" lon="2.06436">
        <ele>145</ele>
        <time>2010-05-13T07:41:10Z</time>
      </trkpt>
      <trkpt lat="48.62796" lon="2.06434">
        <ele>146</ele>
        <time>2010-05-13T07:41:11Z</time>
      </trkpt>
      <trkpt lat="48.62796" lon="2.06432">
        <ele>147</ele>
        <time>2010-05-13T07:41:12Z</time>
      </trkpt>
      <trkpt lat="48.62796" lon="2.0643">
        <ele>148</ele>
        <time>2010-05-13T07:41:13Z</time>
      </trkpt>
      <trkpt lat="48.62796" lon="2.06428">
        <ele>148</ele>
        <time>2010-05-13T07:41:14Z</time>
      </trkpt>
      <trkpt lat="48.62796" lon="2.06425">
        <ele>148</ele>
        <time>2010-05-13T07:41:15Z</time>
      </trkpt>
      <trkpt lat="48.62796" lon="2.06423">
        <ele>149</ele>
        <time>2010-05-13T07:41:16Z</time>
      </trkpt>
      <trkpt lat="48.62796" lon="2.06422">
        <ele>149</ele>
        <time>2010-05-13T07:41:17Z</time>
      </trkpt>
      <trkpt lat="48.62796" lon="2.0642">
        <ele>150</ele>
        <time>2010-05-13T07:41:18Z</time>
      </trkpt>
      <trkpt lat="48.62796" lon="2.06416">
        <ele>152</ele>
        <time>2010-05-13T07:41:20Z</time>
      </trkpt>
      <trkpt lat="48.62795" lon="2.06414">
        <ele>153</ele>
        <time>2010-05-13T07:41:21Z</time>
      </trkpt>
      <trkpt lat="48.62795" lon="2.06412">
        <ele>154</ele>
        <time>2010-05-13T07:41:22Z</time>
      </trkpt>
      <trkpt lat="48.62795" lon="2.0641">
        <ele>155</ele>
        <time>2010-05-13T07:41:23Z</time>
      </trkpt>
      <trkpt lat="48.62795" lon="2.06408">
        <ele>156</ele>
        <time>2010-05-13T07:41:24Z</time>
      </trkpt>
      <trkpt lat="48.62795" lon="2.06406">
        <ele>157</ele>
        <time>2010-05-13T07:41:25Z</time>
      </trkpt>
      <trkpt lat="48.62795" lon="2.06404">
        <ele>158</ele>
        <time>2010-05-13T07:41:26Z</time>
      </trkpt>
      <trkpt lat="48.62795" lon="2.06401">
        <ele>159</ele>
        <time>2010-05-13T07:41:27Z</time>
      </trkpt>
      <trkpt lat="48.62795" lon="2.06399">
        <ele>159</ele>
        <time>2010-05-13T07:41:28Z</time>
      </trkpt>
      <trkpt lat="48.62794" lon="2.06397">
        <ele>159</ele>
        <time>2010-05-13T07:41:29Z</time>
      </trkpt>
      <trkpt lat="48.62794" lon="2.06395">
        <ele>159</ele>
        <time>2010-05-13T07:41:30Z</time>
      </trkpt>
      <trkpt lat="48.62794" lon="2.06393">
        <ele>159</ele>
        <time>2010-05-13T07:41:31Z</time>
      </trkpt>
      <trkpt lat="48.62794" lon="2.06392">
        <ele>159</ele>
        <time>2010-05-13T07:41:32Z</time>
      </trkpt>
      <trkpt lat="48.62794" lon="2.0639">
        <ele>159</ele>
        <time>2010-05-13T07:41:33Z</time>
      </trkpt>
      <trkpt lat="48.62793" lon="2.06387">
        <ele>159</ele>
        <time>2010-05-13T07:41:35Z</time>
      </trkpt>
      <trkpt lat="48.62793" lon="2.06385">
        <ele>159</ele>
        <time>2010-05-13T07:41:36Z</time>
      </trkpt>
      <trkpt lat="48.62793" lon="2.06383">
        <ele>159</ele>
        <time>2010-05-13T07:41:37Z</time>
      </trkpt>
      <trkpt lat="48.62793" lon="2.06381">
        <ele>159</ele>
        <time>2010-05-13T07:41:38Z</time>
      </trkpt>
      <trkpt lat="48.62793" lon="2.06379">
        <ele>160</ele>
        <time>2010-05-13T07:41:39Z</time>
      </trkpt>
      <trkpt lat="48.62793" lon="2.06377">
        <ele>160</ele>
        <time>2010-05-13T07:41:40Z</time>
      </trkpt>
      <trkpt lat="48.62793" lon="2.06375">
        <ele>160</ele>
        <time>2010-05-13T07:41:41Z</time>
      </trkpt>
      <trkpt lat="48.62792" lon="2.06373">
        <ele>160</ele>
        <time>2010-05-13T07:41:42Z</time>
      </trkpt>
      <trkpt lat="48.62792" lon="2.06371">
        <ele>160</ele>
        <time>2010-05-13T07:41:43Z</time>
      </trkpt>
      <trkpt lat="48.62792" lon="2.06369">
        <ele>160</ele>
        <time>2010-05-13T07:41:44Z</time>
      </trkpt>
      <trkpt lat="48.62792" lon="2.06367">
        <ele>160</ele>
        <time>2010-05-13T07:41:45Z</time>
      </trkpt>
      <trkpt lat="48.62792" lon="2.06365">
        <ele>160</ele>
        <time>2010-05-13T07:41:46Z</time>
      </trkpt>
      <trkpt lat="48.62792" lon="2.06363">
        <ele>160</ele>
        <time>2010-05-13T07:41:47Z</time>
      </trkpt>
      <trkpt lat="48.62792" lon="2.06361">
        <ele>160</ele>
        <time>2010-05-13T07:41:48Z</time>
      </trkpt>
      <trkpt lat="48.62792" lon="2.06359">
        <ele>160</ele>
        <time>2010-05-13T07:41:49Z</time>
      </trkpt>
      <trkpt lat="48.62792" lon="2.06358">
        <ele>160</ele>
        <time>2010-05-13T07:41:50Z</time>
      </trkpt>
      <trkpt lat="48.62792" lon="2.06354">
        <ele>159</ele>
        <time>2010-05-13T07:41:52Z</time>
      </trkpt>
      <trkpt lat="48.62791" lon="2.06352">
        <ele>158</ele>
        <time>2010-05-13T07:41:52Z</time>
      </trkpt>
      <trkpt lat="48.62791" lon="2.0635">
        <ele>158</ele>
        <time>2010-05-13T07:41:54Z</time>
      </trkpt>
      <trkpt lat="48.62791" lon="2.06348">
        <ele>157</ele>
        <time>2010-05-13T07:41:54Z</time>
      </trkpt>
      <trkpt lat="48.62791" lon="2.06346">
        <ele>156</ele>
        <time>2010-05-13T07:41:56Z</time>
      </trkpt>
      <trkpt lat="48.62791" lon="2.06344">
        <ele>155</ele>
        <time>2010-05-13T07:41:57Z</time>
      </trkpt>
      <trkpt lat="48.6279" lon="2.06342">
        <ele>154</ele>
        <time>2010-05-13T07:41:58Z</time>
      </trkpt>
      <trkpt lat="48.6279" lon="2.0634">
        <ele>153</ele>
        <time>2010-05-13T07:41:59Z</time>
      </trkpt>
      <trkpt lat="48.6279" lon="2.06338">
        <ele>152</ele>
        <time>2010-05-13T07:42:00Z</time>
      </trkpt>
      <trkpt lat="48.62791" lon="2.06336">
        <ele>152</ele>
        <time>2010-05-13T07:42:01Z</time>
      </trkpt>
      <trkpt lat="48.6279" lon="2.06333">
        <ele>151</ele>
        <time>2010-05-13T07:42:02Z</time>
      </trkpt>
      <trkpt lat="48.6279" lon="2.06332">
        <ele>151</ele>
        <time>2010-05-13T07:42:03Z</time>
      </trkpt>
      <trkpt lat="48.6279" lon="2.0633">
        <ele>151</ele>
        <time>2010-05-13T07:42:03Z</time>
      </trkpt>
      <trkpt lat="48.6279" lon="2.06328">
        <ele>151</ele>
        <time>2010-05-13T07:42:05Z</time>
      </trkpt>
      <trkpt lat="48.6279" lon="2.06326">
        <ele>151</ele>
        <time>2010-05-13T07:42:06Z</time>
      </trkpt>
      <trkpt lat="48.6279" lon="2.06324">
        <ele>151</ele>
        <time>2010-05-13T07:42:07Z</time>
      </trkpt>
      <trkpt lat="48.6279" lon="2.06322">
        <ele>151</ele>
        <time>2010-05-13T07:42:08Z</time>
      </trkpt>
      <trkpt lat="48.62789" lon="2.0632">
        <ele>151</ele>
        <time>2010-05-13T07:42:08Z</time>
      </trkpt>
      <trkpt lat="48.62789" lon="2.06317">
        <ele>151</ele>
        <time>2010-05-13T07:42:10Z</time>
      </trkpt>
      <trkpt lat="48.62789" lon="2.06315">
        <ele>151</ele>
        <time>2010-05-13T07:42:11Z</time>
      </trkpt>
      <trkpt lat="48.62789" lon="2.06312">
        <ele>151</ele>
        <time>2010-05-13T07:42:12Z</time>
      </trkpt>
      <trkpt lat="48.62789" lon="2.06308">
        <ele>151</ele>
        <time>2010-05-13T07:42:12Z</time>
      </trkpt>
      <trkpt lat="48.62789" lon="2.06303">
        <ele>151</ele>
        <time>2010-05-13T07:42:14Z</time>
      </trkpt>
      <trkpt lat="48.62788" lon="2.06299">
        <ele>151</ele>
        <time>2010-05-13T07:42:15Z</time>
      </trkpt>
      <trkpt lat="48.62788" lon="2.06296">
        <ele>151</ele>
        <time>2010-05-13T07:42:16Z</time>
      </trkpt>
      <trkpt lat="48.62788" lon="2.06292">
        <ele>151</ele>
        <time>2010-05-13T07:42:17Z</time>
      </trkpt>
      <trkpt lat="48.62788" lon="2.06289">
        <ele>152</ele>
        <time>2010-05-13T07:42:18Z</time>
      </trkpt>
      <trkpt lat="48.62788" lon="2.06284">
        <ele>153</ele>
        <time>2010-05-13T07:42:19Z</time>
      </trkpt>
      <trkpt lat="48.62787" lon="2.0628">
        <ele>154</ele>
        <time>2010-05-13T07:42:20Z</time>
      </trkpt>
      <trkpt lat="48.62787" lon="2.06274">
        <ele>154</ele>
        <time>2010-05-13T07:42:20Z</time>
      </trkpt>
      <trkpt lat="48.62787" lon="2.06269">
        <ele>155</ele>
        <time>2010-05-13T07:42:22Z</time>
      </trkpt>
      <trkpt lat="48.62786" lon="2.06265">
        <ele>155</ele>
        <time>2010-05-13T07:42:22Z</time>
      </trkpt>
      <trkpt lat="48.62786" lon="2.06261">
        <ele>155</ele>
        <time>2010-05-13T07:42:23Z</time>
      </trkpt>
      <trkpt lat="48.62786" lon="2.06256">
        <ele>155</ele>
        <time>2010-05-13T07:42:25Z</time>
      </trkpt>
      <trkpt lat="48.62786" lon="2.06251">
        <ele>155</ele>
        <time>2010-05-13T07:42:26Z</time>
      </trkpt>
      <trkpt lat="48.62785" lon="2.06245">
        <ele>155</ele>
        <time>2010-05-13T07:42:27Z</time>
      </trkpt>
      <trkpt lat="48.62784" lon="2.0624">
        <ele>155</ele>
        <time>2010-05-13T07:42:28Z</time>
      </trkpt>
      <trkpt lat="48.62784" lon="2.06235">
        <ele>155</ele>
        <time>2010-05-13T07:42:29Z</time>
      </trkpt>
      <trkpt lat="48.62783" lon="2.0623">
        <ele>155</ele>
        <time>2010-05-13T07:42:30Z</time>
      </trkpt>
      <trkpt lat="48.62783" lon="2.06226">
        <ele>155</ele>
        <time>2010-05-13T07:42:31Z</time>
      </trkpt>
      <trkpt lat="48.62783" lon="2.06221">
        <ele>155</ele>
        <time>2010-05-13T07:42:32Z</time>
      </trkpt>
      <trkpt lat="48.62783" lon="2.06216">
        <ele>155</ele>
        <time>2010-05-13T07:42:32Z</time>
      </trkpt>
      <trkpt lat="48.62783" lon="2.06212">
        <ele>155</ele>
        <time>2010-05-13T07:42:34Z</time>
      </trkpt>
      <trkpt lat="48.62783" lon="2.06207">
        <ele>155</ele>
        <time>2010-05-13T07:42:35Z</time>
      </trkpt>
      <trkpt lat="48.62782" lon="2.06202">
        <ele>155</ele>
        <time>2010-05-13T07:42:36Z</time>
      </trkpt>
      <trkpt lat="48.62781" lon="2.06196">
        <ele>155</ele>
        <time>2010-05-13T07:42:37Z</time>
      </trkpt>
      <trkpt lat="48.62781" lon="2.0619">
        <ele>155</ele>
        <time>2010-05-13T07:42:38Z</time>
      </trkpt>
      <trkpt lat="48.62781" lon="2.06185">
        <ele>155</ele>
        <time>2010-05-13T07:42:39Z</time>
      </trkpt>
      <trkpt lat="48.6278" lon="2.06179">
        <ele>155</ele>
        <time>2010-05-13T07:42:40Z</time>
      </trkpt>
      <trkpt lat="48.6278" lon="2.06172">
        <ele>155</ele>
        <time>2010-05-13T07:42:41Z</time>
      </trkpt>
      <trkpt lat="48.62779" lon="2.06165">
        <ele>155</ele>
        <time>2010-05-13T07:42:42Z</time>
      </trkpt>
      <trkpt lat="48.62779" lon="2.06158">
        <ele>155</ele>
        <time>2010-05-13T07:42:43Z</time>
      </trkpt>
      <trkpt lat="48.62779" lon="2.0615">
        <ele>155</ele>
        <time>2010-05-13T07:42:44Z</time>
      </trkpt>
      <trkpt lat="48.62778" lon="2.06142">
        <ele>155</ele>
        <time>2010-05-13T07:42:45Z</time>
      </trkpt>
      <trkpt lat="48.62777" lon="2.06133">
        <ele>155</ele>
        <time>2010-05-13T07:42:46Z</time>
      </trkpt>
      <trkpt lat="48.62776" lon="2.06124">
        <ele>155</ele>
        <time>2010-05-13T07:42:46Z</time>
      </trkpt>
      <trkpt lat="48.62776" lon="2.06114">
        <ele>155</ele>
        <time>2010-05-13T07:42:48Z</time>
      </trkpt>
      <trkpt lat="48.62776" lon="2.06103">
        <ele>155</ele>
        <time>2010-05-13T07:42:49Z</time>
      </trkpt>
      <trkpt lat="48.62775" lon="2.06092">
        <ele>155</ele>
        <time>2010-05-13T07:42:50Z</time>
      </trkpt>
      <trkpt lat="48.62775" lon="2.06081">
        <ele>155</ele>
        <time>2010-05-13T07:42:51Z</time>
      </trkpt>
      <trkpt lat="48.62775" lon="2.06071">
        <ele>155</ele>
        <time>2010-05-13T07:42:52Z</time>
      </trkpt>
      <trkpt lat="48.62775" lon="2.06061">
        <ele>155</ele>
        <time>2010-05-13T07:42:53Z</time>
      </trkpt>
      <trkpt lat="48.62774" lon="2.06051">
        <ele>155</ele>
        <time>2010-05-13T07:42:54Z</time>
      </trkpt>
      <trkpt lat="48.62774" lon="2.06041">
        <ele>155</ele>
        <time>2010-05-13T07:42:55Z</time>
      </trkpt>
      <trkpt lat="48.62774" lon="2.06032">
        <ele>155</ele>
        <time>2010-05-13T07:42:56Z</time>
      </trkpt>
      <trkpt lat="48.62773" lon="2.06023">
        <ele>155</ele>
        <time>2010-05-13T07:42:57Z</time>
      </trkpt>
      <trkpt lat="48.62773" lon="2.06014">
        <ele>155</ele>
        <time>2010-05-13T07:42:58Z</time>
      </trkpt>
      <trkpt lat="48.62773" lon="2.06005">
        <ele>155</ele>
        <time>2010-05-13T07:42:59Z</time>
      </trkpt>
      <trkpt lat="48.62773" lon="2.05996">
        <ele>155</ele>
        <time>2010-05-13T07:43:00Z</time>
      </trkpt>
      <trkpt lat="48.62773" lon="2.05989">
        <ele>155</ele>
        <time>2010-05-13T07:43:01Z</time>
      </trkpt>
      <trkpt lat="48.62773" lon="2.05981">
        <ele>155</ele>
        <time>2010-05-13T07:43:02Z</time>
      </trkpt>
      <trkpt lat="48.62772" lon="2.05973">
        <ele>155</ele>
        <time>2010-05-13T07:43:03Z</time>
      </trkpt>
      <trkpt lat="48.62772" lon="2.05966">
        <ele>155</ele>
        <time>2010-05-13T07:43:04Z</time>
      </trkpt>
      <trkpt lat="48.62771" lon="2.05959">
        <ele>155</ele>
        <time>2010-05-13T07:43:05Z</time>
      </trkpt>
      <trkpt lat="48.62771" lon="2.05951">
        <ele>155</ele>
        <time>2010-05-13T07:43:06Z</time>
      </trkpt>
      <trkpt lat="48.6277" lon="2.05945">
        <ele>155</ele>
        <time>2010-05-13T07:43:07Z</time>
      </trkpt>
      <trkpt lat="48.6277" lon="2.05939">
        <ele>155</ele>
        <time>2010-05-13T07:43:07Z</time>
      </trkpt>
      <trkpt lat="48.6277" lon="2.05933">
        <ele>155</ele>
        <time>2010-05-13T07:43:09Z</time>
      </trkpt>
      <trkpt lat="48.6277" lon="2.05927">
        <ele>155</ele>
        <time>2010-05-13T07:43:10Z</time>
      </trkpt>
      <trkpt lat="48.62768" lon="2.05921">
        <ele>155</ele>
        <time>2010-05-13T07:43:10Z</time>
      </trkpt>
      <trkpt lat="48.62767" lon="2.05916">
        <ele>155</ele>
        <time>2010-05-13T07:43:11Z</time>
      </trkpt>
      <trkpt lat="48.62767" lon="2.05911">
        <ele>155</ele>
        <time>2010-05-13T07:43:13Z</time>
      </trkpt>
      <trkpt lat="48.62768" lon="2.05907">
        <ele>155</ele>
        <time>2010-05-13T07:43:14Z</time>
      </trkpt>
      <trkpt lat="48.62768" lon="2.05903">
        <ele>155</ele>
        <time>2010-05-13T07:43:15Z</time>
      </trkpt>
      <trkpt lat="48.62768" lon="2.05899">
        <ele>155</ele>
        <time>2010-05-13T07:43:15Z</time>
      </trkpt>
      <trkpt lat="48.62768" lon="2.05895">
        <ele>155</ele>
        <time>2010-05-13T07:43:16Z</time>
      </trkpt>
      <trkpt lat="48.62769" lon="2.05891">
        <ele>155</ele>
        <time>2010-05-13T07:43:18Z</time>
      </trkpt>
      <trkpt lat="48.6277" lon="2.05888">
        <ele>155</ele>
        <time>2010-05-13T07:43:19Z</time>
      </trkpt>
      <trkpt lat="48.62769" lon="2.05885">
        <ele>155</ele>
        <time>2010-05-13T07:43:20Z</time>
      </trkpt>
      <trkpt lat="48.62769" lon="2.05882">
        <ele>155</ele>
        <time>2010-05-13T07:43:21Z</time>
      </trkpt>
      <trkpt lat="48.62769" lon="2.0588">
        <ele>155</ele>
        <time>2010-05-13T07:43:22Z</time>
      </trkpt>
      <trkpt lat="48.62769" lon="2.05879">
        <ele>155</ele>
        <time>2010-05-13T07:43:23Z</time>
      </trkpt>
      <trkpt lat="48.62769" lon="2.05877">
        <ele>155</ele>
        <time>2010-05-13T07:43:24Z</time>
      </trkpt>
      <trkpt lat="48.62769" lon="2.05875">
        <ele>155</ele>
        <time>2010-05-13T07:43:25Z</time>
      </trkpt>
      <trkpt lat="48.62768" lon="2.05873">
        <ele>155</ele>
        <time>2010-05-13T07:43:26Z</time>
      </trkpt>
      <trkpt lat="48.62768" lon="2.05871">
        <ele>155</ele>
        <time>2010-05-13T07:43:27Z</time>
      </trkpt>
      <trkpt lat="48.62768" lon="2.05869">
        <ele>155</ele>
        <time>2010-05-13T07:43:28Z</time>
      </trkpt>
      <trkpt lat="48.62768" lon="2.05866">
        <ele>155</ele>
        <time>2010-05-13T07:43:29Z</time>
      </trkpt>
      <trkpt lat="48.62768" lon="2.05864">
        <ele>155</ele>
        <time>2010-05-13T07:43:30Z</time>
      </trkpt>
      <trkpt lat="48.62768" lon="2.05861">
        <ele>155</ele>
        <time>2010-05-13T07:43:31Z</time>
      </trkpt>
      <trkpt lat="48.62768" lon="2.05859">
        <ele>155</ele>
        <time>2010-05-13T07:43:32Z</time>
      </trkpt>
      <trkpt lat="48.62767" lon="2.05857">
        <ele>155</ele>
        <time>2010-05-13T07:43:33Z</time>
      </trkpt>
      <trkpt lat="48.62766" lon="2.05854">
        <ele>156</ele>
        <time>2010-05-13T07:43:34Z</time>
      </trkpt>
      <trkpt lat="48.62766" lon="2.05851">
        <ele>157</ele>
        <time>2010-05-13T07:43:34Z</time>
      </trkpt>
      <trkpt lat="48.62766" lon="2.05849">
        <ele>158</ele>
        <time>2010-05-13T07:43:36Z</time>
      </trkpt>
      <trkpt lat="48.62766" lon="2.05847">
        <ele>159</ele>
        <time>2010-05-13T07:43:37Z</time>
      </trkpt>
      <trkpt lat="48.62766" lon="2.05845">
        <ele>160</ele>
        <time>2010-05-13T07:43:38Z</time>
      </trkpt>
      <trkpt lat="48.62765" lon="2.05843">
        <ele>161</ele>
        <time>2010-05-13T07:43:39Z</time>
      </trkpt>
      <trkpt lat="48.62764" lon="2.0584">
        <ele>162</ele>
        <time>2010-05-13T07:43:40Z</time>
      </trkpt>
      <trkpt lat="48.62763" lon="2.05838">
        <ele>162</ele>
        <time>2010-05-13T07:43:41Z</time>
      </trkpt>
      <trkpt lat="48.62763" lon="2.05836">
        <ele>163</ele>
        <time>2010-05-13T07:43:42Z</time>
      </trkpt>
      <trkpt lat="48.62762" lon="2.05833">
        <ele>164</ele>
        <time>2010-05-13T07:43:43Z</time>
      </trkpt>
      <trkpt lat="48.62762" lon="2.0583">
        <ele>164</ele>
        <time>2010-05-13T07:43:44Z</time>
      </trkpt>
      <trkpt lat="48.62761" lon="2.05828">
        <ele>165</ele>
        <time>2010-05-13T07:43:45Z</time>
      </trkpt>
      <trkpt lat="48.62761" lon="2.05825">
        <ele>165</ele>
        <time>2010-05-13T07:43:46Z</time>
      </trkpt>
      <trkpt lat="48.6276" lon="2.05823">
        <ele>165</ele>
        <time>2010-05-13T07:43:47Z</time>
      </trkpt>
      <trkpt lat="48.62759" lon="2.05821">
        <ele>166</ele>
        <time>2010-05-13T07:43:48Z</time>
      </trkpt>
      <trkpt lat="48.62758" lon="2.05819">
        <ele>166</ele>
        <time>2010-05-13T07:43:49Z</time>
      </trkpt>
      <trkpt lat="48.62758" lon="2.05817">
        <ele>166</ele>
        <time>2010-05-13T07:43:50Z</time>
      </trkpt>
      <trkpt lat="48.62757" lon="2.05815">
        <ele>166</ele>
        <time>2010-05-13T07:43:51Z</time>
      </trkpt>
      <trkpt lat="48.62757" lon="2.05813">
        <ele>167</ele>
        <time>2010-05-13T07:43:52Z</time>
      </trkpt>
      <trkpt lat="48.62756" lon="2.05811">
        <ele>167</ele>
        <time>2010-05-13T07:43:53Z</time>
      </trkpt>
      <trkpt lat="48.62756" lon="2.05808">
        <ele>167</ele>
        <time>2010-05-13T07:43:54Z</time>
      </trkpt>
      <trkpt lat="48.62755" lon="2.05806">
        <ele>167</ele>
        <time>2010-05-13T07:43:55Z</time>
      </trkpt>
      <trkpt lat="48.62755" lon="2.05804">
        <ele>167</ele>
        <time>2010-05-13T07:43:56Z</time>
      </trkpt>
      <trkpt lat="48.62754" lon="2.05801">
        <ele>167</ele>
        <time>2010-05-13T07:43:57Z</time>
      </trkpt>
      <trkpt lat="48.62754" lon="2.05799">
        <ele>167</ele>
        <time>2010-05-13T07:43:58Z</time>
      </trkpt>
      <trkpt lat="48.62753" lon="2.05797">
        <ele>167</ele>
        <time>2010-05-13T07:43:59Z</time>
      </trkpt>
      <trkpt lat="48.62753" lon="2.05795">
        <ele>167</ele>
        <time>2010-05-13T07:44:00Z</time>
      </trkpt>
      <trkpt lat="48.62752" lon="2.05792">
        <ele>167</ele>
        <time>2010-05-13T07:44:01Z</time>
      </trkpt>
      <trkpt lat="48.62752" lon="2.0579">
        <ele>167</ele>
        <time>2010-05-13T07:44:02Z</time>
      </trkpt>
      <trkpt lat="48.62751" lon="2.05787">
        <ele>167</ele>
        <time>2010-05-13T07:44:03Z</time>
      </trkpt>
      <trkpt lat="48.6275" lon="2.05785">
        <ele>167</ele>
        <time>2010-05-13T07:44:04Z</time>
      </trkpt>
      <trkpt lat="48.6275" lon="2.05782">
        <ele>167</ele>
        <time>2010-05-13T07:44:05Z</time>
      </trkpt>
      <trkpt lat="48.62749" lon="2.0578">
        <ele>167</ele>
        <time>2010-05-13T07:44:06Z</time>
      </trkpt>
      <trkpt lat="48.62748" lon="2.05779">
        <ele>167</ele>
        <time>2010-05-13T07:44:07Z</time>
      </trkpt>
      <trkpt lat="48.62748" lon="2.05777">
        <ele>167</ele>
        <time>2010-05-13T07:44:08Z</time>
      </trkpt>
      <trkpt lat="48.62747" lon="2.05775">
        <ele>167</ele>
        <time>2010-05-13T07:44:09Z</time>
      </trkpt>
      <trkpt lat="48.62746" lon="2.05773">
        <ele>167</ele>
        <time>2010-05-13T07:44:10Z</time>
      </trkpt>
      <trkpt lat="48.62746" lon="2.05771">
        <ele>167</ele>
        <time>2010-05-13T07:44:11Z</time>
      </trkpt>
      <trkpt lat="48.62745" lon="2.05769">
        <ele>167</ele>
        <time>2010-05-13T07:44:11Z</time>
      </trkpt>
      <trkpt lat="48.62744" lon="2.05767">
        <ele>167</ele>
        <time>2010-05-13T07:44:13Z</time>
      </trkpt>
      <trkpt lat="48.62744" lon="2.05764">
        <ele>167</ele>
        <time>2010-05-13T07:44:14Z</time>
      </trkpt>
      <trkpt lat="48.62743" lon="2.05761">
        <ele>167</ele>
        <time>2010-05-13T07:44:15Z</time>
      </trkpt>
      <trkpt lat="48.62743" lon="2.05759">
        <ele>167</ele>
        <time>2010-05-13T07:44:16Z</time>
      </trkpt>
      <trkpt lat="48.62742" lon="2.05756">
        <ele>167</ele>
        <time>2010-05-13T07:44:17Z</time>
      </trkpt>
      <trkpt lat="48.62742" lon="2.05753">
        <ele>167</ele>
        <time>2010-05-13T07:44:18Z</time>
      </trkpt>
      <trkpt lat="48.62741" lon="2.0575">
        <ele>167</ele>
        <time>2010-05-13T07:44:19Z</time>
      </trkpt>
      <trkpt lat="48.6274" lon="2.05748">
        <ele>167</ele>
        <time>2010-05-13T07:44:20Z</time>
      </trkpt>
      <trkpt lat="48.62739" lon="2.05746">
        <ele>167</ele>
        <time>2010-05-13T07:44:21Z</time>
      </trkpt>
      <trkpt lat="48.62738" lon="2.05745">
        <ele>167</ele>
        <time>2010-05-13T07:44:21Z</time>
      </trkpt>
      <trkpt lat="48.62736" lon="2.05743">
        <ele>167</ele>
        <time>2010-05-13T07:44:24Z</time>
      </trkpt>
      <trkpt lat="48.62734" lon="2.05743">
        <ele>167</ele>
        <time>2010-05-13T07:44:25Z</time>
      </trkpt>
      <trkpt lat="48.62731" lon="2.05744">
        <ele>167</ele>
        <time>2010-05-13T07:44:26Z</time>
      </trkpt>
      <trkpt lat="48.62729" lon="2.05746">
        <ele>167</ele>
        <time>2010-05-13T07:44:27Z</time>
      </trkpt>
      <trkpt lat="48.62727" lon="2.05749">
        <ele>167</ele>
        <time>2010-05-13T07:44:28Z</time>
      </trkpt>
      <trkpt lat="48.62726" lon="2.05752">
        <ele>167</ele>
        <time>2010-05-13T07:44:28Z</time>
      </trkpt>
      <trkpt lat="48.62725" lon="2.05754">
        <ele>167</ele>
        <time>2010-05-13T07:44:29Z</time>
      </trkpt>
      <trkpt lat="48.62723" lon="2.05758">
        <ele>167</ele>
        <time>2010-05-13T07:44:31Z</time>
      </trkpt>
      <trkpt lat="48.62722" lon="2.05761">
        <ele>167</ele>
        <time>2010-05-13T07:44:32Z</time>
      </trkpt>
      <trkpt lat="48.62721" lon="2.05764">
        <ele>167</ele>
        <time>2010-05-13T07:44:32Z</time>
      </trkpt>
      <trkpt lat="48.62719" lon="2.05766">
        <ele>167</ele>
        <time>2010-05-13T07:44:34Z</time>
      </trkpt>
      <trkpt lat="48.62718" lon="2.05769">
        <ele>167</ele>
        <time>2010-05-13T07:44:35Z</time>
      </trkpt>
      <trkpt lat="48.62717" lon="2.05771">
        <ele>167</ele>
        <time>2010-05-13T07:44:36Z</time>
      </trkpt>
      <trkpt lat="48.62716" lon="2.05774">
        <ele>166</ele>
        <time>2010-05-13T07:44:37Z</time>
      </trkpt>
      <trkpt lat="48.62714" lon="2.05777">
        <ele>166</ele>
        <time>2010-05-13T07:44:38Z</time>
      </trkpt>
      <trkpt lat="48.62713" lon="2.05779">
        <ele>166</ele>
        <time>2010-05-13T07:44:39Z</time>
      </trkpt>
      <trkpt lat="48.62711" lon="2.05781">
        <ele>165</ele>
        <time>2010-05-13T07:44:40Z</time>
      </trkpt>
      <trkpt lat="48.6271" lon="2.05784">
        <ele>165</ele>
        <time>2010-05-13T07:44:41Z</time>
      </trkpt>
      <trkpt lat="48.62709" lon="2.05786">
        <ele>164</ele>
        <time>2010-05-13T07:44:42Z</time>
      </trkpt>
      <trkpt lat="48.62708" lon="2.05787">
        <ele>164</ele>
        <time>2010-05-13T07:44:43Z</time>
      </trkpt>
      <trkpt lat="48.62706" lon="2.05789">
        <ele>163</ele>
        <time>2010-05-13T07:44:44Z</time>
      </trkpt>
      <trkpt lat="48.62705" lon="2.05791">
        <ele>162</ele>
        <time>2010-05-13T07:44:44Z</time>
      </trkpt>
      <trkpt lat="48.62703" lon="2.05794">
        <ele>162</ele>
        <time>2010-05-13T07:44:46Z</time>
      </trkpt>
      <trkpt lat="48.62702" lon="2.05796">
        <ele>161</ele>
        <time>2010-05-13T07:44:46Z</time>
      </trkpt>
      <trkpt lat="48.627" lon="2.05798">
        <ele>161</ele>
        <time>2010-05-13T07:44:47Z</time>
      </trkpt>
      <trkpt lat="48.62699" lon="2.058">
        <ele>161</ele>
        <time>2010-05-13T07:44:49Z</time>
      </trkpt>
      <trkpt lat="48.62697" lon="2.05802">
        <ele>160</ele>
        <time>2010-05-13T07:44:50Z</time>
      </trkpt>
      <trkpt lat="48.62695" lon="2.05805">
        <ele>160</ele>
        <time>2010-05-13T07:44:51Z</time>
      </trkpt>
      <trkpt lat="48.62693" lon="2.05807">
        <ele>160</ele>
        <time>2010-05-13T07:44:52Z</time>
      </trkpt>
      <trkpt lat="48.62691" lon="2.05809">
        <ele>159</ele>
        <time>2010-05-13T07:44:53Z</time>
      </trkpt>
      <trkpt lat="48.6269" lon="2.05811">
        <ele>159</ele>
        <time>2010-05-13T07:44:53Z</time>
      </trkpt>
      <trkpt lat="48.62688" lon="2.05813">
        <ele>158</ele>
        <time>2010-05-13T07:44:54Z</time>
      </trkpt>
      <trkpt lat="48.62687" lon="2.05815">
        <ele>158</ele>
        <time>2010-05-13T07:44:56Z</time>
      </trkpt>
      <trkpt lat="48.62686" lon="2.05816">
        <ele>158</ele>
        <time>2010-05-13T07:44:56Z</time>
      </trkpt>
      <trkpt lat="48.62685" lon="2.05817">
        <ele>158</ele>
        <time>2010-05-13T07:44:58Z</time>
      </trkpt>
      <trkpt lat="48.62683" lon="2.05819">
        <ele>157</ele>
        <time>2010-05-13T07:44:59Z</time>
      </trkpt>
      <trkpt lat="48.62682" lon="2.0582">
        <ele>157</ele>
        <time>2010-05-13T07:45:00Z</time>
      </trkpt>
      <trkpt lat="48.62681" lon="2.05822">
        <ele>157</ele>
        <time>2010-05-13T07:45:01Z</time>
      </trkpt>
      <trkpt lat="48.62679" lon="2.05823">
        <ele>156</ele>
        <time>2010-05-13T07:45:02Z</time>
      </trkpt>
      <trkpt lat="48.62678" lon="2.05825">
        <ele>156</ele>
        <time>2010-05-13T07:45:03Z</time>
      </trkpt>
      <trkpt lat="48.62677" lon="2.05827">
        <ele>155</ele>
        <time>2010-05-13T07:45:04Z</time>
      </trkpt>
      <trkpt lat="48.62675" lon="2.05829">
        <ele>155</ele>
        <time>2010-05-13T07:45:05Z</time>
      </trkpt>
      <trkpt lat="48.62672" lon="2.05832">
        <ele>155</ele>
        <time>2010-05-13T07:45:06Z</time>
      </trkpt>
      <trkpt lat="48.62669" lon="2.05834">
        <ele>155</ele>
        <time>2010-05-13T07:45:07Z</time>
      </trkpt>
      <trkpt lat="48.62666" lon="2.05838">
        <ele>154</ele>
        <time>2010-05-13T07:45:08Z</time>
      </trkpt>
      <trkpt lat="48.62662" lon="2.05842">
        <ele>154</ele>
        <time>2010-05-13T07:45:09Z</time>
      </trkpt>
      <trkpt lat="48.62658" lon="2.05845">
        <ele>154</ele>
        <time>2010-05-13T07:45:10Z</time>
      </trkpt>
      <trkpt lat="48.62654" lon="2.05848">
        <ele>154</ele>
        <time>2010-05-13T07:45:11Z</time>
      </trkpt>
      <trkpt lat="48.62651" lon="2.05852">
        <ele>154</ele>
        <time>2010-05-13T07:45:12Z</time>
      </trkpt>
      <trkpt lat="48.62647" lon="2.05854">
        <ele>154</ele>
        <time>2010-05-13T07:45:13Z</time>
      </trkpt>
      <trkpt lat="48.62644" lon="2.05857">
        <ele>154</ele>
        <time>2010-05-13T07:45:13Z</time>
      </trkpt>
      <trkpt lat="48.6264" lon="2.0586">
        <ele>154</ele>
        <time>2010-05-13T07:45:15Z</time>
      </trkpt>
      <trkpt lat="48.62636" lon="2.05863">
        <ele>153</ele>
        <time>2010-05-13T07:45:16Z</time>
      </trkpt>
      <trkpt lat="48.62632" lon="2.05867">
        <ele>153</ele>
        <time>2010-05-13T07:45:17Z</time>
      </trkpt>
      <trkpt lat="48.62627" lon="2.0587">
        <ele>153</ele>
        <time>2010-05-13T07:45:18Z</time>
      </trkpt>
      <trkpt lat="48.62623" lon="2.05873">
        <ele>152</ele>
        <time>2010-05-13T07:45:19Z</time>
      </trkpt>
      <trkpt lat="48.62619" lon="2.05876">
        <ele>152</ele>
        <time>2010-05-13T07:45:20Z</time>
      </trkpt>
      <trkpt lat="48.62614" lon="2.0588">
        <ele>151</ele>
        <time>2010-05-13T07:45:20Z</time>
      </trkpt>
      <trkpt lat="48.6261" lon="2.05883">
        <ele>151</ele>
        <time>2010-05-13T07:45:21Z</time>
      </trkpt>
      <trkpt lat="48.62605" lon="2.05887">
        <ele>151</ele>
        <time>2010-05-13T07:45:23Z</time>
      </trkpt>
      <trkpt lat="48.626" lon="2.0589">
        <ele>151</ele>
        <time>2010-05-13T07:45:24Z</time>
      </trkpt>
      <trkpt lat="48.62595" lon="2.05893">
        <ele>151</ele>
        <time>2010-05-13T07:45:24Z</time>
      </trkpt>
      <trkpt lat="48.6259" lon="2.05896">
        <ele>151</ele>
        <time>2010-05-13T07:45:25Z</time>
      </trkpt>
      <trkpt lat="48.62585" lon="2.05899">
        <ele>151</ele>
        <time>2010-05-13T07:45:27Z</time>
      </trkpt>
      <trkpt lat="48.6258" lon="2.05902">
        <ele>150</ele>
        <time>2010-05-13T07:45:28Z</time>
      </trkpt>
      <trkpt lat="48.62575" lon="2.05906">
        <ele>150</ele>
        <time>2010-05-13T07:45:29Z</time>
      </trkpt>
      <trkpt lat="48.62569" lon="2.05909">
        <ele>149</ele>
        <time>2010-05-13T07:45:30Z</time>
      </trkpt>
      <trkpt lat="48.62564" lon="2.05913">
        <ele>148</ele>
        <time>2010-05-13T07:45:31Z</time>
      </trkpt>
      <trkpt lat="48.62559" lon="2.05915">
        <ele>147</ele>
        <time>2010-05-13T07:45:32Z</time>
      </trkpt>
      <trkpt lat="48.62553" lon="2.05918">
        <ele>147</ele>
        <time>2010-05-13T07:45:33Z</time>
      </trkpt>
      <trkpt lat="48.62548" lon="2.05922">
        <ele>147</ele>
        <time>2010-05-13T07:45:34Z</time>
      </trkpt>
      <trkpt lat="48.62543" lon="2.05925">
        <ele>147</ele>
        <time>2010-05-13T07:45:34Z</time>
      </trkpt>
      <trkpt lat="48.62537" lon="2.05929">
        <ele>147</ele>
        <time>2010-05-13T07:45:35Z</time>
      </trkpt>
      <trkpt lat="48.62533" lon="2.05932">
        <ele>147</ele>
        <time>2010-05-13T07:45:37Z</time>
      </trkpt>
      <trkpt lat="48.62528" lon="2.05936">
        <ele>147</ele>
        <time>2010-05-13T07:45:37Z</time>
      </trkpt>
      <trkpt lat="48.62523" lon="2.0594">
        <ele>147</ele>
        <time>2010-05-13T07:45:39Z</time>
      </trkpt>
      <trkpt lat="48.62518" lon="2.05944">
        <ele>147</ele>
        <time>2010-05-13T07:45:40Z</time>
      </trkpt>
      <trkpt lat="48.62513" lon="2.05949">
        <ele>147</ele>
        <time>2010-05-13T07:45:41Z</time>
      </trkpt>
      <trkpt lat="48.62508" lon="2.05953">
        <ele>147</ele>
        <time>2010-05-13T07:45:42Z</time>
      </trkpt>
      <trkpt lat="48.62504" lon="2.05957">
        <ele>147</ele>
        <time>2010-05-13T07:45:43Z</time>
      </trkpt>
      <trkpt lat="48.625" lon="2.05962">
        <ele>147</ele>
        <time>2010-05-13T07:45:44Z</time>
      </trkpt>
      <trkpt lat="48.62495" lon="2.05968">
        <ele>147</ele>
        <time>2010-05-13T07:45:45Z</time>
      </trkpt>
      <trkpt lat="48.62491" lon="2.05973">
        <ele>147</ele>
        <time>2010-05-13T07:45:46Z</time>
      </trkpt>
      <trkpt lat="48.62487" lon="2.05978">
        <ele>147</ele>
        <time>2010-05-13T07:45:47Z</time>
      </trkpt>
      <trkpt lat="48.62483" lon="2.05983">
        <ele>147</ele>
        <time>2010-05-13T07:45:48Z</time>
      </trkpt>
      <trkpt lat="48.62478" lon="2.05988">
        <ele>147</ele>
        <time>2010-05-13T07:45:49Z</time>
      </trkpt>
      <trkpt lat="48.62474" lon="2.05994">
        <ele>148</ele>
        <time>2010-05-13T07:45:50Z</time>
      </trkpt>
      <trkpt lat="48.62469" lon="2.05999">
        <ele>149</ele>
        <time>2010-05-13T07:45:51Z</time>
      </trkpt>
      <trkpt lat="48.62465" lon="2.06005">
        <ele>150</ele>
        <time>2010-05-13T07:45:52Z</time>
      </trkpt>
      <trkpt lat="48.6246" lon="2.0601">
        <ele>151</ele>
        <time>2010-05-13T07:45:53Z</time>
      </trkpt>
      <trkpt lat="48.62455" lon="2.06016">
        <ele>152</ele>
        <time>2010-05-13T07:45:54Z</time>
      </trkpt>
      <trkpt lat="48.6245" lon="2.06021">
        <ele>152</ele>
        <time>2010-05-13T07:45:55Z</time>
      </trkpt>
      <trkpt lat="48.62446" lon="2.06027">
        <ele>153</ele>
        <time>2010-05-13T07:45:56Z</time>
      </trkpt>
      <trkpt lat="48.62442" lon="2.06032">
        <ele>154</ele>
        <time>2010-05-13T07:45:57Z</time>
      </trkpt>
      <trkpt lat="48.62438" lon="2.06036">
        <ele>155</ele>
        <time>2010-05-13T07:45:58Z</time>
      </trkpt>
      <trkpt lat="48.62434" lon="2.06041">
        <ele>156</ele>
        <time>2010-05-13T07:45:59Z</time>
      </trkpt>
      <trkpt lat="48.6243" lon="2.06045">
        <ele>157</ele>
        <time>2010-05-13T07:46:00Z</time>
      </trkpt>
      <trkpt lat="48.62425" lon="2.0605">
        <ele>158</ele>
        <time>2010-05-13T07:46:01Z</time>
      </trkpt>
      <trkpt lat="48.6242" lon="2.06054">
        <ele>158</ele>
        <time>2010-05-13T07:46:02Z</time>
      </trkpt>
      <trkpt lat="48.62416" lon="2.06058">
        <ele>159</ele>
        <time>2010-05-13T07:46:03Z</time>
      </trkpt>
      <trkpt lat="48.62411" lon="2.06062">
        <ele>159</ele>
        <time>2010-05-13T07:46:04Z</time>
      </trkpt>
      <trkpt lat="48.62407" lon="2.06066">
        <ele>159</ele>
        <time>2010-05-13T07:46:05Z</time>
      </trkpt>
      <trkpt lat="48.62402" lon="2.0607">
        <ele>159</ele>
        <time>2010-05-13T07:46:05Z</time>
      </trkpt>
      <trkpt lat="48.62398" lon="2.06073">
        <ele>160</ele>
        <time>2010-05-13T07:46:06Z</time>
      </trkpt>
      <trkpt lat="48.62393" lon="2.06076">
        <ele>160</ele>
        <time>2010-05-13T07:46:08Z</time>
      </trkpt>
      <trkpt lat="48.62389" lon="2.0608">
        <ele>160</ele>
        <time>2010-05-13T07:46:08Z</time>
      </trkpt>
      <trkpt lat="48.62385" lon="2.06084">
        <ele>160</ele>
        <time>2010-05-13T07:46:10Z</time>
      </trkpt>
      <trkpt lat="48.62381" lon="2.06086">
        <ele>160</ele>
        <time>2010-05-13T07:46:11Z</time>
      </trkpt>
      <trkpt lat="48.62376" lon="2.0609">
        <ele>160</ele>
        <time>2010-05-13T07:46:12Z</time>
      </trkpt>
      <trkpt lat="48.62371" lon="2.06093">
        <ele>160</ele>
        <time>2010-05-13T07:46:12Z</time>
      </trkpt>
      <trkpt lat="48.62367" lon="2.06096">
        <ele>160</ele>
        <time>2010-05-13T07:46:13Z</time>
      </trkpt>
      <trkpt lat="48.62362" lon="2.06099">
        <ele>160</ele>
        <time>2010-05-13T07:46:14Z</time>
      </trkpt>
      <trkpt lat="48.62359" lon="2.06102">
        <ele>160</ele>
        <time>2010-05-13T07:46:16Z</time>
      </trkpt>
      <trkpt lat="48.62355" lon="2.06105">
        <ele>160</ele>
        <time>2010-05-13T07:46:17Z</time>
      </trkpt>
      <trkpt lat="48.62351" lon="2.06107">
        <ele>160</ele>
        <time>2010-05-13T07:46:18Z</time>
      </trkpt>
      <trkpt lat="48.62347" lon="2.0611">
        <ele>160</ele>
        <time>2010-05-13T07:46:18Z</time>
      </trkpt>
      <trkpt lat="48.62343" lon="2.0611">
        <ele>160</ele>
        <time>2010-05-13T07:46:20Z</time>
      </trkpt>
      <trkpt lat="48.6234" lon="2.06109">
        <ele>160</ele>
        <time>2010-05-13T07:46:21Z</time>
      </trkpt>
      <trkpt lat="48.62337" lon="2.06106">
        <ele>160</ele>
        <time>2010-05-13T07:46:22Z</time>
      </trkpt>
      <trkpt lat="48.62335" lon="2.06103">
        <ele>160</ele>
        <time>2010-05-13T07:46:23Z</time>
      </trkpt>
      <trkpt lat="48.62333" lon="2.06098">
        <ele>160</ele>
        <time>2010-05-13T07:46:24Z</time>
      </trkpt>
      <trkpt lat="48.62331" lon="2.06092">
        <ele>160</ele>
        <time>2010-05-13T07:46:25Z</time>
      </trkpt>
      <trkpt lat="48.62329" lon="2.06086">
        <ele>160</ele>
        <time>2010-05-13T07:46:26Z</time>
      </trkpt>
      <trkpt lat="48.62326" lon="2.06079">
        <ele>160</ele>
        <time>2010-05-13T07:46:27Z</time>
      </trkpt>
      <trkpt lat="48.62324" lon="2.06073">
        <ele>160</ele>
        <time>2010-05-13T07:46:28Z</time>
      </trkpt>
      <trkpt lat="48.62322" lon="2.06067">
        <ele>160</ele>
        <time>2010-05-13T07:46:29Z</time>
      </trkpt>
      <trkpt lat="48.6232" lon="2.06062">
        <ele>160</ele>
        <time>2010-05-13T07:46:30Z</time>
      </trkpt>
      <trkpt lat="48.62318" lon="2.06055">
        <ele>160</ele>
        <time>2010-05-13T07:46:31Z</time>
      </trkpt>
      <trkpt lat="48.62315" lon="2.06049">
        <ele>160</ele>
        <time>2010-05-13T07:46:32Z</time>
      </trkpt>
      <trkpt lat="48.62313" lon="2.06043">
        <ele>160</ele>
        <time>2010-05-13T07:46:33Z</time>
      </trkpt>
      <trkpt lat="48.62311" lon="2.06037">
        <ele>159</ele>
        <time>2010-05-13T07:46:34Z</time>
      </trkpt>
      <trkpt lat="48.62308" lon="2.06031">
        <ele>159</ele>
        <time>2010-05-13T07:46:35Z</time>
      </trkpt>
      <trkpt lat="48.62307" lon="2.06025">
        <ele>158</ele>
        <time>2010-05-13T07:46:36Z</time>
      </trkpt>
      <trkpt lat="48.62304" lon="2.06018">
        <ele>157</ele>
        <time>2010-05-13T07:46:37Z</time>
      </trkpt>
      <trkpt lat="48.62302" lon="2.06011">
        <ele>156</ele>
        <time>2010-05-13T07:46:38Z</time>
      </trkpt>
      <trkpt lat="48.623" lon="2.06004">
        <ele>156</ele>
        <time>2010-05-13T07:46:39Z</time>
      </trkpt>
      <trkpt lat="48.62297" lon="2.05998">
        <ele>155</ele>
        <time>2010-05-13T07:46:40Z</time>
      </trkpt>
      <trkpt lat="48.62295" lon="2.05991">
        <ele>155</ele>
        <time>2010-05-13T07:46:41Z</time>
      </trkpt>
      <trkpt lat="48.62293" lon="2.05985">
        <ele>155</ele>
        <time>2010-05-13T07:46:42Z</time>
      </trkpt>
      <trkpt lat="48.6229" lon="2.05977">
        <ele>155</ele>
        <time>2010-05-13T07:46:42Z</time>
      </trkpt>
      <trkpt lat="48.62288" lon="2.0597">
        <ele>155</ele>
        <time>2010-05-13T07:46:44Z</time>
      </trkpt>
      <trkpt lat="48.62285" lon="2.05963">
        <ele>155</ele>
        <time>2010-05-13T07:46:45Z</time>
      </trkpt>
      <trkpt lat="48.62283" lon="2.05956">
        <ele>155</ele>
        <time>2010-05-13T07:46:46Z</time>
      </trkpt>
      <trkpt lat="48.62281" lon="2.05951">
        <ele>154</ele>
        <time>2010-05-13T07:46:47Z</time>
      </trkpt>
      <trkpt lat="48.62279" lon="2.05946">
        <ele>154</ele>
        <time>2010-05-13T07:46:48Z</time>
      </trkpt>
      <trkpt lat="48.62277" lon="2.0594">
        <ele>154</ele>
        <time>2010-05-13T07:46:49Z</time>
      </trkpt>
      <trkpt lat="48.62275" lon="2.05933">
        <ele>154</ele>
        <time>2010-05-13T07:46:50Z</time>
      </trkpt>
      <trkpt lat="48.62273" lon="2.05927">
        <ele>154</ele>
        <time>2010-05-13T07:46:51Z</time>
      </trkpt>
      <trkpt lat="48.6227" lon="2.05921">
        <ele>153</ele>
        <time>2010-05-13T07:46:52Z</time>
      </trkpt>
      <trkpt lat="48.62269" lon="2.05914">
        <ele>152</ele>
        <time>2010-05-13T07:46:53Z</time>
      </trkpt>
      <trkpt lat="48.62267" lon="2.05907">
        <ele>152</ele>
        <time>2010-05-13T07:46:54Z</time>
      </trkpt>
      <trkpt lat="48.62261" lon="2.05892">
        <ele>151</ele>
        <time>2010-05-13T07:46:55Z</time>
      </trkpt>
      <trkpt lat="48.62258" lon="2.05887">
        <ele>151</ele>
        <time>2010-05-13T07:46:57Z</time>
      </trkpt>
      <trkpt lat="48.62255" lon="2.05881">
        <ele>151</ele>
        <time>2010-05-13T07:46:58Z</time>
      </trkpt>
      <trkpt lat="48.62251" lon="2.05875">
        <ele>150</ele>
        <time>2010-05-13T07:46:59Z</time>
      </trkpt>
      <trkpt lat="48.62248" lon="2.0587">
        <ele>150</ele>
        <time>2010-05-13T07:47:00Z</time>
      </trkpt>
      <trkpt lat="48.62246" lon="2.05865">
        <ele>150</ele>
        <time>2010-05-13T07:47:01Z</time>
      </trkpt>
      <trkpt lat="48.62243" lon="2.0586">
        <ele>149</ele>
        <time>2010-05-13T07:47:02Z</time>
      </trkpt>
      <trkpt lat="48.62243" lon="2.05853">
        <ele>149</ele>
        <time>2010-05-13T07:47:03Z</time>
      </trkpt>
      <trkpt lat="48.62241" lon="2.05847">
        <ele>149</ele>
        <time>2010-05-13T07:47:04Z</time>
      </trkpt>
      <trkpt lat="48.62239" lon="2.05841">
        <ele>149</ele>
        <time>2010-05-13T07:47:05Z</time>
      </trkpt>
      <trkpt lat="48.62236" lon="2.05836">
        <ele>150</ele>
        <time>2010-05-13T07:47:06Z</time>
      </trkpt>
      <trkpt lat="48.62233" lon="2.05829">
        <ele>151</ele>
        <time>2010-05-13T07:47:07Z</time>
      </trkpt>
      <trkpt lat="48.62231" lon="2.05823">
        <ele>152</ele>
        <time>2010-05-13T07:47:08Z</time>
      </trkpt>
      <trkpt lat="48.62229" lon="2.05818">
        <ele>153</ele>
        <time>2010-05-13T07:47:09Z</time>
      </trkpt>
      <trkpt lat="48.62227" lon="2.05812">
        <ele>154</ele>
        <time>2010-05-13T07:47:10Z</time>
      </trkpt>
      <trkpt lat="48.62225" lon="2.05808">
        <ele>155</ele>
        <time>2010-05-13T07:47:11Z</time>
      </trkpt>
      <trkpt lat="48.62223" lon="2.05802">
        <ele>156</ele>
        <time>2010-05-13T07:47:12Z</time>
      </trkpt>
      <trkpt lat="48.62221" lon="2.05796">
        <ele>157</ele>
        <time>2010-05-13T07:47:13Z</time>
      </trkpt>
      <trkpt lat="48.62219" lon="2.0579">
        <ele>158</ele>
        <time>2010-05-13T07:47:14Z</time>
      </trkpt>
      <trkpt lat="48.62217" lon="2.05785">
        <ele>159</ele>
        <time>2010-05-13T07:47:15Z</time>
      </trkpt>
      <trkpt lat="48.62215" lon="2.05779">
        <ele>159</ele>
        <time>2010-05-13T07:47:16Z</time>
      </trkpt>
      <trkpt lat="48.62213" lon="2.05773">
        <ele>159</ele>
        <time>2010-05-13T07:47:17Z</time>
      </trkpt>
      <trkpt lat="48.62212" lon="2.05768">
        <ele>160</ele>
        <time>2010-05-13T07:47:18Z</time>
      </trkpt>
      <trkpt lat="48.6221" lon="2.05763">
        <ele>160</ele>
        <time>2010-05-13T07:47:19Z</time>
      </trkpt>
      <trkpt lat="48.62209" lon="2.05758">
        <ele>161</ele>
        <time>2010-05-13T07:47:20Z</time>
      </trkpt>
      <trkpt lat="48.62208" lon="2.05754">
        <ele>162</ele>
        <time>2010-05-13T07:47:21Z</time>
      </trkpt>
      <trkpt lat="48.62207" lon="2.05747">
        <ele>162</ele>
        <time>2010-05-13T07:47:22Z</time>
      </trkpt>
      <trkpt lat="48.62208" lon="2.05741">
        <ele>162</ele>
        <time>2010-05-13T07:47:23Z</time>
      </trkpt>
      <trkpt lat="48.62209" lon="2.05734">
        <ele>162</ele>
        <time>2010-05-13T07:47:24Z</time>
      </trkpt>
      <trkpt lat="48.6221" lon="2.05728">
        <ele>162</ele>
        <time>2010-05-13T07:47:25Z</time>
      </trkpt>
      <trkpt lat="48.6221" lon="2.05723">
        <ele>161</ele>
        <time>2010-05-13T07:47:26Z</time>
      </trkpt>
      <trkpt lat="48.62211" lon="2.05719">
        <ele>160</ele>
        <time>2010-05-13T07:47:27Z</time>
      </trkpt>
      <trkpt lat="48.62212" lon="2.05715">
        <ele>159</ele>
        <time>2010-05-13T07:47:28Z</time>
      </trkpt>
      <trkpt lat="48.62213" lon="2.05711">
        <ele>158</ele>
        <time>2010-05-13T07:47:29Z</time>
      </trkpt>
      <trkpt lat="48.62215" lon="2.05706">
        <ele>157</ele>
        <time>2010-05-13T07:47:30Z</time>
      </trkpt>
      <trkpt lat="48.62217" lon="2.05701">
        <ele>157</ele>
        <time>2010-05-13T07:47:31Z</time>
      </trkpt>
      <trkpt lat="48.62218" lon="2.05697">
        <ele>157</ele>
        <time>2010-05-13T07:47:32Z</time>
      </trkpt>
      <trkpt lat="48.62218" lon="2.05693">
        <ele>157</ele>
        <time>2010-05-13T07:47:33Z</time>
      </trkpt>
      <trkpt lat="48.62219" lon="2.05689">
        <ele>157</ele>
        <time>2010-05-13T07:47:34Z</time>
      </trkpt>
      <trkpt lat="48.6222" lon="2.05684">
        <ele>157</ele>
        <time>2010-05-13T07:47:34Z</time>
      </trkpt>
      <trkpt lat="48.62221" lon="2.05681">
        <ele>157</ele>
        <time>2010-05-13T07:47:36Z</time>
      </trkpt>
      <trkpt lat="48.62221" lon="2.05677">
        <ele>157</ele>
        <time>2010-05-13T07:47:37Z</time>
      </trkpt>
      <trkpt lat="48.62222" lon="2.05671">
        <ele>157</ele>
        <time>2010-05-13T07:47:38Z</time>
      </trkpt>
      <trkpt lat="48.62223" lon="2.05666">
        <ele>157</ele>
        <time>2010-05-13T07:47:40Z</time>
      </trkpt>
      <trkpt lat="48.62225" lon="2.0566">
        <ele>157</ele>
        <time>2010-05-13T07:47:42Z</time>
      </trkpt>
      <trkpt lat="48.62227" lon="2.05654">
        <ele>157</ele>
        <time>2010-05-13T07:47:43Z</time>
      </trkpt>
      <trkpt lat="48.62229" lon="2.05648">
        <ele>157</ele>
        <time>2010-05-13T07:47:44Z</time>
      </trkpt>
      <trkpt lat="48.62231" lon="2.05643">
        <ele>157</ele>
        <time>2010-05-13T07:47:45Z</time>
      </trkpt>
      <trkpt lat="48.62232" lon="2.05635">
        <ele>157</ele>
        <time>2010-05-13T07:47:47Z</time>
      </trkpt>
      <trkpt lat="48.62234" lon="2.05625">
        <ele>157</ele>
        <time>2010-05-13T07:47:48Z</time>
      </trkpt>
      <trkpt lat="48.62239" lon="2.05587">
        <ele>156</ele>
        <time>2010-05-13T07:47:56Z</time>
      </trkpt>
      <trkpt lat="48.6224" lon="2.05581">
        <ele>155</ele>
        <time>2010-05-13T07:47:57Z</time>
      </trkpt>
      <trkpt lat="48.62241" lon="2.05577">
        <ele>154</ele>
        <time>2010-05-13T07:47:58Z</time>
      </trkpt>
      <trkpt lat="48.62241" lon="2.0557">
        <ele>153</ele>
        <time>2010-05-13T07:47:59Z</time>
      </trkpt>
      <trkpt lat="48.62242" lon="2.05566">
        <ele>153</ele>
        <time>2010-05-13T07:48:00Z</time>
      </trkpt>
      <trkpt lat="48.62239" lon="2.05554">
        <ele>153</ele>
        <time>2010-05-13T07:48:04Z</time>
      </trkpt>
      <trkpt lat="48.6224" lon="2.05552">
        <ele>153</ele>
        <time>2010-05-13T07:48:05Z</time>
      </trkpt>
      <trkpt lat="48.62239" lon="2.05547">
        <ele>153</ele>
        <time>2010-05-13T07:48:06Z</time>
      </trkpt>
      <trkpt lat="48.62241" lon="2.05543">
        <ele>153</ele>
        <time>2010-05-13T07:48:08Z</time>
      </trkpt>
      <trkpt lat="48.62241" lon="2.05539">
        <ele>153</ele>
        <time>2010-05-13T07:48:09Z</time>
      </trkpt>
      <trkpt lat="48.62241" lon="2.05537">
        <ele>153</ele>
        <time>2010-05-13T07:48:10Z</time>
      </trkpt>
      <trkpt lat="48.6224" lon="2.05534">
        <ele>153</ele>
        <time>2010-05-13T07:48:11Z</time>
      </trkpt>
      <trkpt lat="48.6224" lon="2.05531">
        <ele>153</ele>
        <time>2010-05-13T07:48:13Z</time>
      </trkpt>
      <trkpt lat="48.62239" lon="2.05529">
        <ele>153</ele>
        <time>2010-05-13T07:48:14Z</time>
      </trkpt>
      <trkpt lat="48.62239" lon="2.05527">
        <ele>153</ele>
        <time>2010-05-13T07:48:15Z</time>
      </trkpt>
      <trkpt lat="48.62238" lon="2.05526">
        <ele>153</ele>
        <time>2010-05-13T07:48:16Z</time>
      </trkpt>
      <trkpt lat="48.62237" lon="2.05524">
        <ele>154</ele>
        <time>2010-05-13T07:48:18Z</time>
      </trkpt>
      <trkpt lat="48.62237" lon="2.05522">
        <ele>154</ele>
        <time>2010-05-13T07:48:19Z</time>
      </trkpt>
      <trkpt lat="48.62237" lon="2.05519">
        <ele>154</ele>
        <time>2010-05-13T07:48:20Z</time>
      </trkpt>
      <trkpt lat="48.62238" lon="2.05517">
        <ele>154</ele>
        <time>2010-05-13T07:48:21Z</time>
      </trkpt>
      <trkpt lat="48.62239" lon="2.05515">
        <ele>154</ele>
        <time>2010-05-13T07:48:22Z</time>
      </trkpt>
      <trkpt lat="48.62239" lon="2.05512">
        <ele>154</ele>
        <time>2010-05-13T07:48:23Z</time>
      </trkpt>
      <trkpt lat="48.62238" lon="2.05509">
        <ele>154</ele>
        <time>2010-05-13T07:48:24Z</time>
      </trkpt>
      <trkpt lat="48.62239" lon="2.05507">
        <ele>153</ele>
        <time>2010-05-13T07:48:25Z</time>
      </trkpt>
      <trkpt lat="48.62239" lon="2.05504">
        <ele>152</ele>
        <time>2010-05-13T07:48:26Z</time>
      </trkpt>
      <trkpt lat="48.62239" lon="2.05501">
        <ele>152</ele>
        <time>2010-05-13T07:48:27Z</time>
      </trkpt>
      <trkpt lat="48.62239" lon="2.05499">
        <ele>151</ele>
        <time>2010-05-13T07:48:28Z</time>
      </trkpt>
      <trkpt lat="48.6224" lon="2.05495">
        <ele>151</ele>
        <time>2010-05-13T07:48:29Z</time>
      </trkpt>
      <trkpt lat="48.62241" lon="2.05493">
        <ele>151</ele>
        <time>2010-05-13T07:48:30Z</time>
      </trkpt>
      <trkpt lat="48.62241" lon="2.05491">
        <ele>150</ele>
        <time>2010-05-13T07:48:31Z</time>
      </trkpt>
      <trkpt lat="48.62242" lon="2.05489">
        <ele>150</ele>
        <time>2010-05-13T07:48:32Z</time>
      </trkpt>
      <trkpt lat="48.62241" lon="2.05486">
        <ele>150</ele>
        <time>2010-05-13T07:48:32Z</time>
      </trkpt>
      <trkpt lat="48.62241" lon="2.05483">
        <ele>150</ele>
        <time>2010-05-13T07:48:34Z</time>
      </trkpt>
      <trkpt lat="48.62242" lon="2.05481">
        <ele>150</ele>
        <time>2010-05-13T07:48:35Z</time>
      </trkpt>
      <trkpt lat="48.62242" lon="2.05478">
        <ele>149</ele>
        <time>2010-05-13T07:48:37Z</time>
      </trkpt>
      <trkpt lat="48.62242" lon="2.05476">
        <ele>149</ele>
        <time>2010-05-13T07:48:38Z</time>
      </trkpt>
      <trkpt lat="48.62242" lon="2.05473">
        <ele>149</ele>
        <time>2010-05-13T07:48:39Z</time>
      </trkpt>
      <trkpt lat="48.62243" lon="2.0547">
        <ele>149</ele>
        <time>2010-05-13T07:48:40Z</time>
      </trkpt>
      <trkpt lat="48.62243" lon="2.05468">
        <ele>149</ele>
        <time>2010-05-13T07:48:40Z</time>
      </trkpt>
      <trkpt lat="48.62243" lon="2.05466">
        <ele>149</ele>
        <time>2010-05-13T07:48:43Z</time>
      </trkpt>
      <trkpt lat="48.62245" lon="2.05462">
        <ele>149</ele>
        <time>2010-05-13T07:48:45Z</time>
      </trkpt>
      <trkpt lat="48.62245" lon="2.0546">
        <ele>149</ele>
        <time>2010-05-13T07:48:46Z</time>
      </trkpt>
      <trkpt lat="48.62245" lon="2.05458">
        <ele>149</ele>
        <time>2010-05-13T07:48:47Z</time>
      </trkpt>
      <trkpt lat="48.62245" lon="2.05456">
        <ele>148</ele>
        <time>2010-05-13T07:48:48Z</time>
      </trkpt>
      <trkpt lat="48.62245" lon="2.05454">
        <ele>147</ele>
        <time>2010-05-13T07:48:49Z</time>
      </trkpt>
      <trkpt lat="48.62245" lon="2.05452">
        <ele>145</ele>
        <time>2010-05-13T07:48:51Z</time>
      </trkpt>
      <trkpt lat="48.62244" lon="2.0545">
        <ele>143</ele>
        <time>2010-05-13T07:48:53Z</time>
      </trkpt>
      <trkpt lat="48.62244" lon="2.05448">
        <ele>142</ele>
        <time>2010-05-13T07:48:54Z</time>
      </trkpt>
      <trkpt lat="48.62243" lon="2.05446">
        <ele>140</ele>
        <time>2010-05-13T07:48:56Z</time>
      </trkpt>
      <trkpt lat="48.62243" lon="2.05444">
        <ele>140</ele>
        <time>2010-05-13T07:48:57Z</time>
      </trkpt>
      <trkpt lat="48.62244" lon="2.05442">
        <ele>140</ele>
        <time>2010-05-13T07:48:59Z</time>
      </trkpt>
      <trkpt lat="48.62246" lon="2.0544">
        <ele>140</ele>
        <time>2010-05-13T07:49:01Z</time>
      </trkpt>
      <trkpt lat="48.62247" lon="2.05439">
        <ele>141</ele>
        <time>2010-05-13T07:49:07Z</time>
      </trkpt>
      <trkpt lat="48.62248" lon="2.05441">
        <ele>146</ele>
        <time>2010-05-13T07:49:12Z</time>
      </trkpt>
      <trkpt lat="48.62247" lon="2.05439">
        <ele>150</ele>
        <time>2010-05-13T07:49:18Z</time>
      </trkpt>
      <trkpt lat="48.62245" lon="2.05439">
        <ele>151</ele>
        <time>2010-05-13T07:49:19Z</time>
      </trkpt>
      <trkpt lat="48.62244" lon="2.05439">
        <ele>152</ele>
        <time>2010-05-13T07:49:20Z</time>
      </trkpt>
      <trkpt lat="48.62244" lon="2.05442">
        <ele>155</ele>
        <time>2010-05-13T07:49:24Z</time>
      </trkpt>
      <trkpt lat="48.62243" lon="2.0544">
        <ele>155</ele>
        <time>2010-05-13T07:49:27Z</time>
      </trkpt>
      <trkpt lat="48.62244" lon="2.05437">
        <ele>155</ele>
        <time>2010-05-13T07:49:30Z</time>
      </trkpt>
      <trkpt lat="48.62245" lon="2.05434">
        <ele>155</ele>
        <time>2010-05-13T07:49:31Z</time>
      </trkpt>
      <trkpt lat="48.62245" lon="2.05431">
        <ele>155</ele>
        <time>2010-05-13T07:49:32Z</time>
      </trkpt>
      <trkpt lat="48.62246" lon="2.05429">
        <ele>154</ele>
        <time>2010-05-13T07:49:33Z</time>
      </trkpt>
      <trkpt lat="48.62246" lon="2.05427">
        <ele>153</ele>
        <time>2010-05-13T07:49:34Z</time>
      </trkpt>
      <trkpt lat="48.62245" lon="2.05423">
        <ele>151</ele>
        <time>2010-05-13T07:49:36Z</time>
      </trkpt>
      <trkpt lat="48.62245" lon="2.05421">
        <ele>150</ele>
        <time>2010-05-13T07:49:37Z</time>
      </trkpt>
      <trkpt lat="48.62246" lon="2.05417">
        <ele>149</ele>
        <time>2010-05-13T07:49:39Z</time>
      </trkpt>
      <trkpt lat="48.62247" lon="2.05415">
        <ele>148</ele>
        <time>2010-05-13T07:49:41Z</time>
      </trkpt>
      <trkpt lat="48.62247" lon="2.05413">
        <ele>148</ele>
        <time>2010-05-13T07:49:43Z</time>
      </trkpt>
      <trkpt lat="48.62248" lon="2.05411">
        <ele>148</ele>
        <time>2010-05-13T07:49:46Z</time>
      </trkpt>
      <trkpt lat="48.62247" lon="2.05409">
        <ele>148</ele>
        <time>2010-05-13T07:49:48Z</time>
      </trkpt>
      <trkpt lat="48.62247" lon="2.05411">
        <ele>148</ele>
        <time>2010-05-13T07:49:59Z</time>
      </trkpt>
      <trkpt lat="48.62248" lon="2.05411">
        <ele>148</ele>
        <time>2010-05-13T07:50:03Z</time>
      </trkpt>
      <trkpt lat="48.6225" lon="2.05408">
        <ele>148</ele>
        <time>2010-05-13T07:50:06Z</time>
      </trkpt>
      <trkpt lat="48.62249" lon="2.05403">
        <ele>148</ele>
        <time>2010-05-13T07:50:10Z</time>
      </trkpt>
      <trkpt lat="48.62247" lon="2.05401">
        <ele>148</ele>
        <time>2010-05-13T07:50:11Z</time>
      </trkpt>
      <trkpt lat="48.62248" lon="2.05398">
        <ele>148</ele>
        <time>2010-05-13T07:50:13Z</time>
      </trkpt>
      <trkpt lat="48.62248" lon="2.05396">
        <ele>148</ele>
        <time>2010-05-13T07:50:13Z</time>
      </trkpt>
      <trkpt lat="48.62248" lon="2.05391">
        <ele>148</ele>
        <time>2010-05-13T07:50:15Z</time>
      </trkpt>
      <trkpt lat="48.62248" lon="2.05387">
        <ele>148</ele>
        <time>2010-05-13T07:50:16Z</time>
      </trkpt>
      <trkpt lat="48.62249" lon="2.05385">
        <ele>147</ele>
        <time>2010-05-13T07:50:17Z</time>
      </trkpt>
      <trkpt lat="48.62251" lon="2.05377">
        <ele>146</ele>
        <time>2010-05-13T07:50:20Z</time>
      </trkpt>
      <trkpt lat="48.62251" lon="2.05375">
        <ele>145</ele>
        <time>2010-05-13T07:50:21Z</time>
      </trkpt>
      <trkpt lat="48.62252" lon="2.05372">
        <ele>144</ele>
        <time>2010-05-13T07:50:22Z</time>
      </trkpt>
      <trkpt lat="48.62252" lon="2.05371">
        <ele>143</ele>
        <time>2010-05-13T07:50:23Z</time>
      </trkpt>
      <trkpt lat="48.62253" lon="2.05368">
        <ele>142</ele>
        <time>2010-05-13T07:50:24Z</time>
      </trkpt>
      <trkpt lat="48.62253" lon="2.05366">
        <ele>141</ele>
        <time>2010-05-13T07:50:24Z</time>
      </trkpt>
      <trkpt lat="48.62253" lon="2.05364">
        <ele>141</ele>
        <time>2010-05-13T07:50:26Z</time>
      </trkpt>
      <trkpt lat="48.62254" lon="2.05361">
        <ele>141</ele>
        <time>2010-05-13T07:50:27Z</time>
      </trkpt>
      <trkpt lat="48.62254" lon="2.05358">
        <ele>141</ele>
        <time>2010-05-13T07:50:28Z</time>
      </trkpt>
      <trkpt lat="48.62254" lon="2.05356">
        <ele>141</ele>
        <time>2010-05-13T07:50:29Z</time>
      </trkpt>
      <trkpt lat="48.62254" lon="2.05353">
        <ele>141</ele>
        <time>2010-05-13T07:50:30Z</time>
      </trkpt>
      <trkpt lat="48.62254" lon="2.05351">
        <ele>141</ele>
        <time>2010-05-13T07:50:31Z</time>
      </trkpt>
      <trkpt lat="48.62255" lon="2.05348">
        <ele>141</ele>
        <time>2010-05-13T07:50:32Z</time>
      </trkpt>
      <trkpt lat="48.62255" lon="2.05347">
        <ele>141</ele>
        <time>2010-05-13T07:50:33Z</time>
      </trkpt>
      <trkpt lat="48.62256" lon="2.05344">
        <ele>141</ele>
        <time>2010-05-13T07:50:34Z</time>
      </trkpt>
      <trkpt lat="48.62255" lon="2.05341">
        <ele>141</ele>
        <time>2010-05-13T07:50:34Z</time>
      </trkpt>
      <trkpt lat="48.62256" lon="2.05338">
        <ele>141</ele>
        <time>2010-05-13T07:50:36Z</time>
      </trkpt>
      <trkpt lat="48.62257" lon="2.05336">
        <ele>141</ele>
        <time>2010-05-13T07:50:37Z</time>
      </trkpt>
      <trkpt lat="48.62258" lon="2.05333">
        <ele>142</ele>
        <time>2010-05-13T07:50:38Z</time>
      </trkpt>
      <trkpt lat="48.62259" lon="2.0533">
        <ele>143</ele>
        <time>2010-05-13T07:50:39Z</time>
      </trkpt>
      <trkpt lat="48.62259" lon="2.05327">
        <ele>144</ele>
        <time>2010-05-13T07:50:40Z</time>
      </trkpt>
      <trkpt lat="48.62258" lon="2.05325">
        <ele>144</ele>
        <time>2010-05-13T07:50:42Z</time>
      </trkpt>
      <trkpt lat="48.62259" lon="2.05323">
        <ele>144</ele>
        <time>2010-05-13T07:50:43Z</time>
      </trkpt>
      <trkpt lat="48.62259" lon="2.05318">
        <ele>144</ele>
        <time>2010-05-13T07:50:45Z</time>
      </trkpt>
      <trkpt lat="48.62259" lon="2.05312">
        <ele>144</ele>
        <time>2010-05-13T07:50:47Z</time>
      </trkpt>
      <trkpt lat="48.62259" lon="2.0531">
        <ele>144</ele>
        <time>2010-05-13T07:50:48Z</time>
      </trkpt>
      <trkpt lat="48.62259" lon="2.05308">
        <ele>144</ele>
        <time>2010-05-13T07:50:49Z</time>
      </trkpt>
      <trkpt lat="48.6226" lon="2.05305">
        <ele>144</ele>
        <time>2010-05-13T07:50:50Z</time>
      </trkpt>
      <trkpt lat="48.6226" lon="2.05303">
        <ele>144</ele>
        <time>2010-05-13T07:50:51Z</time>
      </trkpt>
      <trkpt lat="48.62261" lon="2.05299">
        <ele>144</ele>
        <time>2010-05-13T07:50:51Z</time>
      </trkpt>
      <trkpt lat="48.62261" lon="2.05297">
        <ele>144</ele>
        <time>2010-05-13T07:50:53Z</time>
      </trkpt>
      <trkpt lat="48.62262" lon="2.05294">
        <ele>144</ele>
        <time>2010-05-13T07:50:54Z</time>
      </trkpt>
      <trkpt lat="48.62263" lon="2.05291">
        <ele>144</ele>
        <time>2010-05-13T07:50:55Z</time>
      </trkpt>
      <trkpt lat="48.62263" lon="2.05287">
        <ele>144</ele>
        <time>2010-05-13T07:50:56Z</time>
      </trkpt>
      <trkpt lat="48.62264" lon="2.05284">
        <ele>144</ele>
        <time>2010-05-13T07:50:57Z</time>
      </trkpt>
      <trkpt lat="48.62264" lon="2.05282">
        <ele>144</ele>
        <time>2010-05-13T07:50:58Z</time>
      </trkpt>
      <trkpt lat="48.62265" lon="2.05277">
        <ele>144</ele>
        <time>2010-05-13T07:51:00Z</time>
      </trkpt>
      <trkpt lat="48.62265" lon="2.05275">
        <ele>143</ele>
        <time>2010-05-13T07:51:01Z</time>
      </trkpt>
      <trkpt lat="48.62265" lon="2.05273">
        <ele>142</ele>
        <time>2010-05-13T07:51:02Z</time>
      </trkpt>
      <trkpt lat="48.62266" lon="2.05271">
        <ele>141</ele>
        <time>2010-05-13T07:51:03Z</time>
      </trkpt>
      <trkpt lat="48.62266" lon="2.05269">
        <ele>140</ele>
        <time>2010-05-13T07:51:04Z</time>
      </trkpt>
      <trkpt lat="48.62265" lon="2.05267">
        <ele>139</ele>
        <time>2010-05-13T07:51:05Z</time>
      </trkpt>
      <trkpt lat="48.62266" lon="2.05265">
        <ele>138</ele>
        <time>2010-05-13T07:51:06Z</time>
      </trkpt>
      <trkpt lat="48.62266" lon="2.05262">
        <ele>137</ele>
        <time>2010-05-13T07:51:07Z</time>
      </trkpt>
      <trkpt lat="48.62266" lon="2.0526">
        <ele>136</ele>
        <time>2010-05-13T07:51:08Z</time>
      </trkpt>
      <trkpt lat="48.62267" lon="2.05258">
        <ele>135</ele>
        <time>2010-05-13T07:51:09Z</time>
      </trkpt>
      <trkpt lat="48.62268" lon="2.05255">
        <ele>134</ele>
        <time>2010-05-13T07:51:10Z</time>
      </trkpt>
      <trkpt lat="48.62268" lon="2.05253">
        <ele>134</ele>
        <time>2010-05-13T07:51:11Z</time>
      </trkpt>
      <trkpt lat="48.6227" lon="2.05249">
        <ele>134</ele>
        <time>2010-05-13T07:51:13Z</time>
      </trkpt>
      <trkpt lat="48.6227" lon="2.05247">
        <ele>134</ele>
        <time>2010-05-13T07:51:14Z</time>
      </trkpt>
      <trkpt lat="48.62271" lon="2.05245">
        <ele>134</ele>
        <time>2010-05-13T07:51:15Z</time>
      </trkpt>
      <trkpt lat="48.62272" lon="2.05243">
        <ele>134</ele>
        <time>2010-05-13T07:51:16Z</time>
      </trkpt>
      <trkpt lat="48.62272" lon="2.05241">
        <ele>134</ele>
        <time>2010-05-13T07:51:17Z</time>
      </trkpt>
      <trkpt lat="48.62273" lon="2.05238">
        <ele>134</ele>
        <time>2010-05-13T07:51:18Z</time>
      </trkpt>
      <trkpt lat="48.62274" lon="2.05237">
        <ele>134</ele>
        <time>2010-05-13T07:51:19Z</time>
      </trkpt>
      <trkpt lat="48.62274" lon="2.05234">
        <ele>134</ele>
        <time>2010-05-13T07:51:20Z</time>
      </trkpt>
      <trkpt lat="48.62274" lon="2.05232">
        <ele>134</ele>
        <time>2010-05-13T07:51:21Z</time>
      </trkpt>
      <trkpt lat="48.62274" lon="2.0523">
        <ele>134</ele>
        <time>2010-05-13T07:51:22Z</time>
      </trkpt>
      <trkpt lat="48.62274" lon="2.05228">
        <ele>134</ele>
        <time>2010-05-13T07:51:23Z</time>
      </trkpt>
      <trkpt lat="48.62274" lon="2.05225">
        <ele>134</ele>
        <time>2010-05-13T07:51:24Z</time>
      </trkpt>
      <trkpt lat="48.62275" lon="2.05222">
        <ele>134</ele>
        <time>2010-05-13T07:51:25Z</time>
      </trkpt>
      <trkpt lat="48.62276" lon="2.0522">
        <ele>134</ele>
        <time>2010-05-13T07:51:26Z</time>
      </trkpt>
      <trkpt lat="48.62278" lon="2.05212">
        <ele>134</ele>
        <time>2010-05-13T07:51:29Z</time>
      </trkpt>
      <trkpt lat="48.62278" lon="2.05206">
        <ele>134</ele>
        <time>2010-05-13T07:51:30Z</time>
      </trkpt>
      <trkpt lat="48.6228" lon="2.05202">
        <ele>134</ele>
        <time>2010-05-13T07:51:31Z</time>
      </trkpt>
      <trkpt lat="48.6228" lon="2.05199">
        <ele>134</ele>
        <time>2010-05-13T07:51:31Z</time>
      </trkpt>
      <trkpt lat="48.62281" lon="2.05197">
        <ele>133</ele>
        <time>2010-05-13T07:51:32Z</time>
      </trkpt>
      <trkpt lat="48.62282" lon="2.05195">
        <ele>133</ele>
        <time>2010-05-13T07:51:33Z</time>
      </trkpt>
      <trkpt lat="48.62283" lon="2.05193">
        <ele>133</ele>
        <time>2010-05-13T07:51:35Z</time>
      </trkpt>
      <trkpt lat="48.62284" lon="2.0519">
        <ele>133</ele>
        <time>2010-05-13T07:51:36Z</time>
      </trkpt>
      <trkpt lat="48.62285" lon="2.05187">
        <ele>133</ele>
        <time>2010-05-13T07:51:37Z</time>
      </trkpt>
      <trkpt lat="48.62286" lon="2.05185">
        <ele>133</ele>
        <time>2010-05-13T07:51:38Z</time>
      </trkpt>
      <trkpt lat="48.62287" lon="2.05182">
        <ele>133</ele>
        <time>2010-05-13T07:51:39Z</time>
      </trkpt>
      <trkpt lat="48.62287" lon="2.0518">
        <ele>133</ele>
        <time>2010-05-13T07:51:40Z</time>
      </trkpt>
      <trkpt lat="48.62287" lon="2.05177">
        <ele>133</ele>
        <time>2010-05-13T07:51:41Z</time>
      </trkpt>
      <trkpt lat="48.62287" lon="2.05174">
        <ele>134</ele>
        <time>2010-05-13T07:51:42Z</time>
      </trkpt>
      <trkpt lat="48.62288" lon="2.05171">
        <ele>135</ele>
        <time>2010-05-13T07:51:43Z</time>
      </trkpt>
      <trkpt lat="48.62288" lon="2.05169">
        <ele>135</ele>
        <time>2010-05-13T07:51:44Z</time>
      </trkpt>
      <trkpt lat="48.62287" lon="2.05166">
        <ele>136</ele>
        <time>2010-05-13T07:51:45Z</time>
      </trkpt>
      <trkpt lat="48.62287" lon="2.05164">
        <ele>136</ele>
        <time>2010-05-13T07:51:46Z</time>
      </trkpt>
      <trkpt lat="48.62288" lon="2.05161">
        <ele>137</ele>
        <time>2010-05-13T07:51:46Z</time>
      </trkpt>
      <trkpt lat="48.62288" lon="2.05159">
        <ele>138</ele>
        <time>2010-05-13T07:51:48Z</time>
      </trkpt>
      <trkpt lat="48.62288" lon="2.05156">
        <ele>139</ele>
        <time>2010-05-13T07:51:49Z</time>
      </trkpt>
      <trkpt lat="48.62288" lon="2.05153">
        <ele>140</ele>
        <time>2010-05-13T07:51:50Z</time>
      </trkpt>
      <trkpt lat="48.62287" lon="2.05151">
        <ele>141</ele>
        <time>2010-05-13T07:51:51Z</time>
      </trkpt>
      <trkpt lat="48.62287" lon="2.05148">
        <ele>142</ele>
        <time>2010-05-13T07:51:52Z</time>
      </trkpt>
      <trkpt lat="48.62287" lon="2.05146">
        <ele>143</ele>
        <time>2010-05-13T07:51:53Z</time>
      </trkpt>
      <trkpt lat="48.62287" lon="2.05144">
        <ele>143</ele>
        <time>2010-05-13T07:51:54Z</time>
      </trkpt>
      <trkpt lat="48.62287" lon="2.05141">
        <ele>143</ele>
        <time>2010-05-13T07:51:54Z</time>
      </trkpt>
      <trkpt lat="48.62288" lon="2.05139">
        <ele>144</ele>
        <time>2010-05-13T07:51:56Z</time>
      </trkpt>
      <trkpt lat="48.62289" lon="2.05137">
        <ele>145</ele>
        <time>2010-05-13T07:51:57Z</time>
      </trkpt>
      <trkpt lat="48.62289" lon="2.05135">
        <ele>146</ele>
        <time>2010-05-13T07:51:58Z</time>
      </trkpt>
      <trkpt lat="48.62289" lon="2.05133">
        <ele>146</ele>
        <time>2010-05-13T07:51:59Z</time>
      </trkpt>
      <trkpt lat="48.62289" lon="2.05131">
        <ele>146</ele>
        <time>2010-05-13T07:52:00Z</time>
      </trkpt>
      <trkpt lat="48.62289" lon="2.05128">
        <ele>146</ele>
        <time>2010-05-13T07:52:00Z</time>
      </trkpt>
      <trkpt lat="48.62289" lon="2.05126">
        <ele>146</ele>
        <time>2010-05-13T07:52:02Z</time>
      </trkpt>
      <trkpt lat="48.62289" lon="2.05124">
        <ele>146</ele>
        <time>2010-05-13T07:52:03Z</time>
      </trkpt>
      <trkpt lat="48.62287" lon="2.05121">
        <ele>146</ele>
        <time>2010-05-13T07:52:05Z</time>
      </trkpt>
      <trkpt lat="48.62288" lon="2.05118">
        <ele>144</ele>
        <time>2010-05-13T07:52:07Z</time>
      </trkpt>
      <trkpt lat="48.62288" lon="2.05116">
        <ele>143</ele>
        <time>2010-05-13T07:52:08Z</time>
      </trkpt>
      <trkpt lat="48.62289" lon="2.05114">
        <ele>142</ele>
        <time>2010-05-13T07:52:09Z</time>
      </trkpt>
      <trkpt lat="48.62289" lon="2.05112">
        <ele>142</ele>
        <time>2010-05-13T07:52:10Z</time>
      </trkpt>
      <trkpt lat="48.6229" lon="2.05111">
        <ele>142</ele>
        <time>2010-05-13T07:52:11Z</time>
      </trkpt>
      <trkpt lat="48.62291" lon="2.05108">
        <ele>142</ele>
        <time>2010-05-13T07:52:12Z</time>
      </trkpt>
      <trkpt lat="48.62291" lon="2.05105">
        <ele>142</ele>
        <time>2010-05-13T07:52:14Z</time>
      </trkpt>
      <trkpt lat="48.62291" lon="2.05103">
        <ele>142</ele>
        <time>2010-05-13T07:52:15Z</time>
      </trkpt>
      <trkpt lat="48.62291" lon="2.05101">
        <ele>142</ele>
        <time>2010-05-13T07:52:16Z</time>
      </trkpt>
      <trkpt lat="48.62292" lon="2.05098">
        <ele>142</ele>
        <time>2010-05-13T07:52:17Z</time>
      </trkpt>
      <trkpt lat="48.62292" lon="2.05096">
        <ele>142</ele>
        <time>2010-05-13T07:52:18Z</time>
      </trkpt>
      <trkpt lat="48.62292" lon="2.05093">
        <ele>141</ele>
        <time>2010-05-13T07:52:20Z</time>
      </trkpt>
      <trkpt lat="48.62292" lon="2.05091">
        <ele>140</ele>
        <time>2010-05-13T07:52:21Z</time>
      </trkpt>
      <trkpt lat="48.62292" lon="2.05088">
        <ele>139</ele>
        <time>2010-05-13T07:52:22Z</time>
      </trkpt>
      <trkpt lat="48.62291" lon="2.05086">
        <ele>138</ele>
        <time>2010-05-13T07:52:22Z</time>
      </trkpt>
      <trkpt lat="48.6229" lon="2.05084">
        <ele>137</ele>
        <time>2010-05-13T07:52:24Z</time>
      </trkpt>
      <trkpt lat="48.62289" lon="2.05081">
        <ele>135</ele>
        <time>2010-05-13T07:52:26Z</time>
      </trkpt>
      <trkpt lat="48.6229" lon="2.05079">
        <ele>134</ele>
        <time>2010-05-13T07:52:27Z</time>
      </trkpt>
      <trkpt lat="48.62289" lon="2.05076">
        <ele>133</ele>
        <time>2010-05-13T07:52:28Z</time>
      </trkpt>
      <trkpt lat="48.62289" lon="2.05074">
        <ele>132</ele>
        <time>2010-05-13T07:52:29Z</time>
      </trkpt>
      <trkpt lat="48.62289" lon="2.05071">
        <ele>131</ele>
        <time>2010-05-13T07:52:29Z</time>
      </trkpt>
      <trkpt lat="48.62289" lon="2.05069">
        <ele>130</ele>
        <time>2010-05-13T07:52:31Z</time>
      </trkpt>
      <trkpt lat="48.62289" lon="2.05067">
        <ele>129</ele>
        <time>2010-05-13T07:52:32Z</time>
      </trkpt>
      <trkpt lat="48.62288" lon="2.05065">
        <ele>128</ele>
        <time>2010-05-13T07:52:32Z</time>
      </trkpt>
      <trkpt lat="48.62287" lon="2.05063">
        <ele>127</ele>
        <time>2010-05-13T07:52:34Z</time>
      </trkpt>
      <trkpt lat="48.62287" lon="2.05059">
        <ele>126</ele>
        <time>2010-05-13T07:52:35Z</time>
      </trkpt>
      <trkpt lat="48.62288" lon="2.05056">
        <ele>125</ele>
        <time>2010-05-13T07:52:36Z</time>
      </trkpt>
      <trkpt lat="48.62288" lon="2.05054">
        <ele>124</ele>
        <time>2010-05-13T07:52:37Z</time>
      </trkpt>
      <trkpt lat="48.62289" lon="2.05052">
        <ele>123</ele>
        <time>2010-05-13T07:52:38Z</time>
      </trkpt>
      <trkpt lat="48.6229" lon="2.0505">
        <ele>122</ele>
        <time>2010-05-13T07:52:39Z</time>
      </trkpt>
      <trkpt lat="48.62292" lon="2.05049">
        <ele>121</ele>
        <time>2010-05-13T07:52:40Z</time>
      </trkpt>
      <trkpt lat="48.62293" lon="2.05048">
        <ele>120</ele>
        <time>2010-05-13T07:52:41Z</time>
      </trkpt>
      <trkpt lat="48.62294" lon="2.05047">
        <ele>120</ele>
        <time>2010-05-13T07:52:42Z</time>
      </trkpt>
      <trkpt lat="48.62296" lon="2.05046">
        <ele>120</ele>
        <time>2010-05-13T07:52:43Z</time>
      </trkpt>
      <trkpt lat="48.62297" lon="2.05043">
        <ele>120</ele>
        <time>2010-05-13T07:52:45Z</time>
      </trkpt>
      <trkpt lat="48.62298" lon="2.05042">
        <ele>120</ele>
        <time>2010-05-13T07:52:47Z</time>
      </trkpt>
      <trkpt lat="48.623" lon="2.0504">
        <ele>119</ele>
        <time>2010-05-13T07:52:48Z</time>
      </trkpt>
      <trkpt lat="48.62302" lon="2.05038">
        <ele>118</ele>
        <time>2010-05-13T07:52:49Z</time>
      </trkpt>
      <trkpt lat="48.62306" lon="2.05034">
        <ele>117</ele>
        <time>2010-05-13T07:52:50Z</time>
      </trkpt>
      <trkpt lat="48.62309" lon="2.05033">
        <ele>116</ele>
        <time>2010-05-13T07:52:52Z</time>
      </trkpt>
      <trkpt lat="48.62311" lon="2.05031">
        <ele>116</ele>
        <time>2010-05-13T07:52:53Z</time>
      </trkpt>
      <trkpt lat="48.62313" lon="2.0503">
        <ele>116</ele>
        <time>2010-05-13T07:52:54Z</time>
      </trkpt>
      <trkpt lat="48.62315" lon="2.05028">
        <ele>116</ele>
        <time>2010-05-13T07:52:55Z</time>
      </trkpt>
      <trkpt lat="48.62317" lon="2.05027">
        <ele>116</ele>
        <time>2010-05-13T07:52:56Z</time>
      </trkpt>
      <trkpt lat="48.62319" lon="2.05026">
        <ele>116</ele>
        <time>2010-05-13T07:52:57Z</time>
      </trkpt>
      <trkpt lat="48.6232" lon="2.05025">
        <ele>116</ele>
        <time>2010-05-13T07:52:58Z</time>
      </trkpt>
      <trkpt lat="48.62322" lon="2.05023">
        <ele>116</ele>
        <time>2010-05-13T07:52:59Z</time>
      </trkpt>
      <trkpt lat="48.62324" lon="2.05023">
        <ele>116</ele>
        <time>2010-05-13T07:53:00Z</time>
      </trkpt>
      <trkpt lat="48.62325" lon="2.05022">
        <ele>116</ele>
        <time>2010-05-13T07:53:01Z</time>
      </trkpt>
      <trkpt lat="48.62327" lon="2.05021">
        <ele>117</ele>
        <time>2010-05-13T07:53:02Z</time>
      </trkpt>
      <trkpt lat="48.62329" lon="2.05021">
        <ele>118</ele>
        <time>2010-05-13T07:53:03Z</time>
      </trkpt>
      <trkpt lat="48.62331" lon="2.0502">
        <ele>119</ele>
        <time>2010-05-13T07:53:04Z</time>
      </trkpt>
      <trkpt lat="48.62333" lon="2.05019">
        <ele>120</ele>
        <time>2010-05-13T07:53:04Z</time>
      </trkpt>
      <trkpt lat="48.62334" lon="2.05017">
        <ele>120</ele>
        <time>2010-05-13T07:53:06Z</time>
      </trkpt>
      <trkpt lat="48.62336" lon="2.05015">
        <ele>120</ele>
        <time>2010-05-13T07:53:07Z</time>
      </trkpt>
      <trkpt lat="48.62338" lon="2.05014">
        <ele>121</ele>
        <time>2010-05-13T07:53:08Z</time>
      </trkpt>
      <trkpt lat="48.6234" lon="2.05013">
        <ele>122</ele>
        <time>2010-05-13T07:53:09Z</time>
      </trkpt>
      <trkpt lat="48.62342" lon="2.05011">
        <ele>122</ele>
        <time>2010-05-13T07:53:10Z</time>
      </trkpt>
      <trkpt lat="48.62344" lon="2.0501">
        <ele>123</ele>
        <time>2010-05-13T07:53:11Z</time>
      </trkpt>
      <trkpt lat="48.62346" lon="2.0501">
        <ele>124</ele>
        <time>2010-05-13T07:53:12Z</time>
      </trkpt>
      <trkpt lat="48.62349" lon="2.05008">
        <ele>125</ele>
        <time>2010-05-13T07:53:12Z</time>
      </trkpt>
      <trkpt lat="48.62352" lon="2.05006">
        <ele>126</ele>
        <time>2010-05-13T07:53:14Z</time>
      </trkpt>
      <trkpt lat="48.62354" lon="2.05005">
        <ele>127</ele>
        <time>2010-05-13T07:53:15Z</time>
      </trkpt>
      <trkpt lat="48.62355" lon="2.05003">
        <ele>128</ele>
        <time>2010-05-13T07:53:15Z</time>
      </trkpt>
      <trkpt lat="48.62357" lon="2.05002">
        <ele>129</ele>
        <time>2010-05-13T07:53:17Z</time>
      </trkpt>
      <trkpt lat="48.6236" lon="2.05">
        <ele>130</ele>
        <time>2010-05-13T07:53:18Z</time>
      </trkpt>
      <trkpt lat="48.62362" lon="2.04999">
        <ele>131</ele>
        <time>2010-05-13T07:53:19Z</time>
      </trkpt>
      <trkpt lat="48.62365" lon="2.04997">
        <ele>133</ele>
        <time>2010-05-13T07:53:20Z</time>
      </trkpt>
      <trkpt lat="48.62366" lon="2.04995">
        <ele>134</ele>
        <time>2010-05-13T07:53:22Z</time>
      </trkpt>
      <trkpt lat="48.62367" lon="2.04993">
        <ele>135</ele>
        <time>2010-05-13T07:53:23Z</time>
      </trkpt>
      <trkpt lat="48.62369" lon="2.04992">
        <ele>136</ele>
        <time>2010-05-13T07:53:24Z</time>
      </trkpt>
      <trkpt lat="48.6237" lon="2.0499">
        <ele>136</ele>
        <time>2010-05-13T07:53:25Z</time>
      </trkpt>
      <trkpt lat="48.62372" lon="2.04988">
        <ele>136</ele>
        <time>2010-05-13T07:53:26Z</time>
      </trkpt>
      <trkpt lat="48.62373" lon="2.04986">
        <ele>136</ele>
        <time>2010-05-13T07:53:27Z</time>
      </trkpt>
      <trkpt lat="48.62374" lon="2.04985">
        <ele>136</ele>
        <time>2010-05-13T07:53:28Z</time>
      </trkpt>
      <trkpt lat="48.62376" lon="2.04983">
        <ele>136</ele>
        <time>2010-05-13T07:53:28Z</time>
      </trkpt>
      <trkpt lat="48.62377" lon="2.04982">
        <ele>136</ele>
        <time>2010-05-13T07:53:30Z</time>
      </trkpt>
      <trkpt lat="48.6238" lon="2.04979">
        <ele>136</ele>
        <time>2010-05-13T07:53:32Z</time>
      </trkpt>
      <trkpt lat="48.62381" lon="2.04979">
        <ele>136</ele>
        <time>2010-05-13T07:53:33Z</time>
      </trkpt>
      <trkpt lat="48.62382" lon="2.04979">
        <ele>136</ele>
        <time>2010-05-13T07:53:33Z</time>
      </trkpt>
      <trkpt lat="48.62384" lon="2.04979">
        <ele>136</ele>
        <time>2010-05-13T07:53:35Z</time>
      </trkpt>
      <trkpt lat="48.62385" lon="2.04979">
        <ele>136</ele>
        <time>2010-05-13T07:53:36Z</time>
      </trkpt>
      <trkpt lat="48.62386" lon="2.04979">
        <ele>135</ele>
        <time>2010-05-13T07:53:37Z</time>
      </trkpt>
      <trkpt lat="48.62388" lon="2.04979">
        <ele>135</ele>
        <time>2010-05-13T07:53:38Z</time>
      </trkpt>
      <trkpt lat="48.62389" lon="2.04979">
        <ele>135</ele>
        <time>2010-05-13T07:53:39Z</time>
      </trkpt>
      <trkpt lat="48.62391" lon="2.04978">
        <ele>135</ele>
        <time>2010-05-13T07:53:40Z</time>
      </trkpt>
      <trkpt lat="48.62393" lon="2.04978">
        <ele>135</ele>
        <time>2010-05-13T07:53:41Z</time>
      </trkpt>
      <trkpt lat="48.62395" lon="2.04978">
        <ele>135</ele>
        <time>2010-05-13T07:53:42Z</time>
      </trkpt>
      <trkpt lat="48.62397" lon="2.04978">
        <ele>135</ele>
        <time>2010-05-13T07:53:44Z</time>
      </trkpt>
      <trkpt lat="48.624" lon="2.04979">
        <ele>135</ele>
        <time>2010-05-13T07:53:45Z</time>
      </trkpt>
      <trkpt lat="48.62401" lon="2.0498">
        <ele>135</ele>
        <time>2010-05-13T07:53:46Z</time>
      </trkpt>
      <trkpt lat="48.62404" lon="2.0498">
        <ele>135</ele>
        <time>2010-05-13T07:53:47Z</time>
      </trkpt>
      <trkpt lat="48.62406" lon="2.0498">
        <ele>135</ele>
        <time>2010-05-13T07:53:49Z</time>
      </trkpt>
      <trkpt lat="48.62408" lon="2.0498">
        <ele>135</ele>
        <time>2010-05-13T07:53:50Z</time>
      </trkpt>
      <trkpt lat="48.62409" lon="2.0498">
        <ele>135</ele>
        <time>2010-05-13T07:53:51Z</time>
      </trkpt>
      <trkpt lat="48.62411" lon="2.04979">
        <ele>135</ele>
        <time>2010-05-13T07:53:52Z</time>
      </trkpt>
      <trkpt lat="48.62412" lon="2.04978">
        <ele>135</ele>
        <time>2010-05-13T07:53:53Z</time>
      </trkpt>
      <trkpt lat="48.62414" lon="2.04978">
        <ele>135</ele>
        <time>2010-05-13T07:53:54Z</time>
      </trkpt>
      <trkpt lat="48.62416" lon="2.04977">
        <ele>135</ele>
        <time>2010-05-13T07:53:55Z</time>
      </trkpt>
      <trkpt lat="48.62417" lon="2.04977">
        <ele>135</ele>
        <time>2010-05-13T07:53:56Z</time>
      </trkpt>
      <trkpt lat="48.62419" lon="2.04978">
        <ele>135</ele>
        <time>2010-05-13T07:53:56Z</time>
      </trkpt>
      <trkpt lat="48.62421" lon="2.04978">
        <ele>135</ele>
        <time>2010-05-13T07:53:58Z</time>
      </trkpt>
      <trkpt lat="48.62422" lon="2.0498">
        <ele>135</ele>
        <time>2010-05-13T07:53:58Z</time>
      </trkpt>
      <trkpt lat="48.62424" lon="2.0498">
        <ele>135</ele>
        <time>2010-05-13T07:54:00Z</time>
      </trkpt>
      <trkpt lat="48.62426" lon="2.04981">
        <ele>135</ele>
        <time>2010-05-13T07:54:01Z</time>
      </trkpt>
      <trkpt lat="48.62427" lon="2.04982">
        <ele>135</ele>
        <time>2010-05-13T07:54:02Z</time>
      </trkpt>
      <trkpt lat="48.62428" lon="2.04983">
        <ele>135</ele>
        <time>2010-05-13T07:54:03Z</time>
      </trkpt>
      <trkpt lat="48.6243" lon="2.04984">
        <ele>135</ele>
        <time>2010-05-13T07:54:04Z</time>
      </trkpt>
      <trkpt lat="48.62432" lon="2.04984">
        <ele>135</ele>
        <time>2010-05-13T07:54:06Z</time>
      </trkpt>
      <trkpt lat="48.62434" lon="2.04988">
        <ele>135</ele>
        <time>2010-05-13T07:54:07Z</time>
      </trkpt>
      <trkpt lat="48.62436" lon="2.0499">
        <ele>135</ele>
        <time>2010-05-13T07:54:10Z</time>
      </trkpt>
      <trkpt lat="48.62438" lon="2.0499">
        <ele>135</ele>
        <time>2010-05-13T07:54:11Z</time>
      </trkpt>
      <trkpt lat="48.6244" lon="2.0499">
        <ele>135</ele>
        <time>2010-05-13T07:54:12Z</time>
      </trkpt>
      <trkpt lat="48.62443" lon="2.0499">
        <ele>135</ele>
        <time>2010-05-13T07:54:13Z</time>
      </trkpt>
      <trkpt lat="48.62445" lon="2.0499">
        <ele>135</ele>
        <time>2010-05-13T07:54:14Z</time>
      </trkpt>
      <trkpt lat="48.62447" lon="2.04991">
        <ele>135</ele>
        <time>2010-05-13T07:54:15Z</time>
      </trkpt>
      <trkpt lat="48.62449" lon="2.04992">
        <ele>135</ele>
        <time>2010-05-13T07:54:16Z</time>
      </trkpt>
      <trkpt lat="48.62451" lon="2.04993">
        <ele>135</ele>
        <time>2010-05-13T07:54:17Z</time>
      </trkpt>
      <trkpt lat="48.62452" lon="2.04994">
        <ele>135</ele>
        <time>2010-05-13T07:54:18Z</time>
      </trkpt>
      <trkpt lat="48.62454" lon="2.04996">
        <ele>135</ele>
        <time>2010-05-13T07:54:19Z</time>
      </trkpt>
      <trkpt lat="48.62455" lon="2.04998">
        <ele>135</ele>
        <time>2010-05-13T07:54:20Z</time>
      </trkpt>
      <trkpt lat="48.62457" lon="2.04999">
        <ele>135</ele>
        <time>2010-05-13T07:54:21Z</time>
      </trkpt>
      <trkpt lat="48.62459" lon="2.05">
        <ele>135</ele>
        <time>2010-05-13T07:54:22Z</time>
      </trkpt>
      <trkpt lat="48.62461" lon="2.05001">
        <ele>135</ele>
        <time>2010-05-13T07:54:23Z</time>
      </trkpt>
      <trkpt lat="48.62462" lon="2.05001">
        <ele>135</ele>
        <time>2010-05-13T07:54:24Z</time>
      </trkpt>
      <trkpt lat="48.62464" lon="2.05003">
        <ele>135</ele>
        <time>2010-05-13T07:54:25Z</time>
      </trkpt>
      <trkpt lat="48.62465" lon="2.05003">
        <ele>135</ele>
        <time>2010-05-13T07:54:26Z</time>
      </trkpt>
      <trkpt lat="48.62466" lon="2.05004">
        <ele>135</ele>
        <time>2010-05-13T07:54:27Z</time>
      </trkpt>
      <trkpt lat="48.62468" lon="2.05006">
        <ele>135</ele>
        <time>2010-05-13T07:54:28Z</time>
      </trkpt>
      <trkpt lat="48.6247" lon="2.05006">
        <ele>135</ele>
        <time>2010-05-13T07:54:29Z</time>
      </trkpt>
      <trkpt lat="48.62472" lon="2.05006">
        <ele>135</ele>
        <time>2010-05-13T07:54:29Z</time>
      </trkpt>
      <trkpt lat="48.62473" lon="2.05007">
        <ele>135</ele>
        <time>2010-05-13T07:54:31Z</time>
      </trkpt>
      <trkpt lat="48.62475" lon="2.05007">
        <ele>135</ele>
        <time>2010-05-13T07:54:32Z</time>
      </trkpt>
      <trkpt lat="48.62477" lon="2.05008">
        <ele>135</ele>
        <time>2010-05-13T07:54:33Z</time>
      </trkpt>
      <trkpt lat="48.62479" lon="2.05009">
        <ele>135</ele>
        <time>2010-05-13T07:54:34Z</time>
      </trkpt>
      <trkpt lat="48.62481" lon="2.05009">
        <ele>135</ele>
        <time>2010-05-13T07:54:35Z</time>
      </trkpt>
      <trkpt lat="48.62482" lon="2.0501">
        <ele>135</ele>
        <time>2010-05-13T07:54:36Z</time>
      </trkpt>
      <trkpt lat="48.62484" lon="2.05011">
        <ele>135</ele>
        <time>2010-05-13T07:54:37Z</time>
      </trkpt>
      <trkpt lat="48.62486" lon="2.05013">
        <ele>135</ele>
        <time>2010-05-13T07:54:39Z</time>
      </trkpt>
      <trkpt lat="48.62488" lon="2.05013">
        <ele>135</ele>
        <time>2010-05-13T07:54:40Z</time>
      </trkpt>
      <trkpt lat="48.62489" lon="2.05014">
        <ele>135</ele>
        <time>2010-05-13T07:54:41Z</time>
      </trkpt>
      <trkpt lat="48.62491" lon="2.05015">
        <ele>135</ele>
        <time>2010-05-13T07:54:42Z</time>
      </trkpt>
      <trkpt lat="48.62493" lon="2.05016">
        <ele>135</ele>
        <time>2010-05-13T07:54:43Z</time>
      </trkpt>
      <trkpt lat="48.62494" lon="2.05017">
        <ele>135</ele>
        <time>2010-05-13T07:54:43Z</time>
      </trkpt>
      <trkpt lat="48.62496" lon="2.05018">
        <ele>135</ele>
        <time>2010-05-13T07:54:45Z</time>
      </trkpt>
      <trkpt lat="48.62497" lon="2.05019">
        <ele>135</ele>
        <time>2010-05-13T07:54:46Z</time>
      </trkpt>
      <trkpt lat="48.62499" lon="2.0502">
        <ele>135</ele>
        <time>2010-05-13T07:54:47Z</time>
      </trkpt>
      <trkpt lat="48.625" lon="2.05021">
        <ele>135</ele>
        <time>2010-05-13T07:54:48Z</time>
      </trkpt>
      <trkpt lat="48.62501" lon="2.05022">
        <ele>135</ele>
        <time>2010-05-13T07:54:49Z</time>
      </trkpt>
      <trkpt lat="48.62503" lon="2.05023">
        <ele>135</ele>
        <time>2010-05-13T07:54:50Z</time>
      </trkpt>
      <trkpt lat="48.62505" lon="2.05024">
        <ele>135</ele>
        <time>2010-05-13T07:54:51Z</time>
      </trkpt>
      <trkpt lat="48.62507" lon="2.05024">
        <ele>135</ele>
        <time>2010-05-13T07:54:52Z</time>
      </trkpt>
      <trkpt lat="48.62508" lon="2.05025">
        <ele>135</ele>
        <time>2010-05-13T07:54:53Z</time>
      </trkpt>
      <trkpt lat="48.6251" lon="2.05025">
        <ele>135</ele>
        <time>2010-05-13T07:54:54Z</time>
      </trkpt>
      <trkpt lat="48.62511" lon="2.05026">
        <ele>135</ele>
        <time>2010-05-13T07:54:55Z</time>
      </trkpt>
      <trkpt lat="48.62513" lon="2.05027">
        <ele>135</ele>
        <time>2010-05-13T07:54:55Z</time>
      </trkpt>
      <trkpt lat="48.62514" lon="2.05028">
        <ele>135</ele>
        <time>2010-05-13T07:54:57Z</time>
      </trkpt>
      <trkpt lat="48.62515" lon="2.05029">
        <ele>135</ele>
        <time>2010-05-13T07:54:58Z</time>
      </trkpt>
      <trkpt lat="48.62516" lon="2.0503">
        <ele>135</ele>
        <time>2010-05-13T07:54:59Z</time>
      </trkpt>
      <trkpt lat="48.62518" lon="2.05032">
        <ele>135</ele>
        <time>2010-05-13T07:55:00Z</time>
      </trkpt>
      <trkpt lat="48.62519" lon="2.05033">
        <ele>135</ele>
        <time>2010-05-13T07:55:01Z</time>
      </trkpt>
      <trkpt lat="48.6252" lon="2.05035">
        <ele>135</ele>
        <time>2010-05-13T07:55:02Z</time>
      </trkpt>
      <trkpt lat="48.62523" lon="2.05036">
        <ele>135</ele>
        <time>2010-05-13T07:55:04Z</time>
      </trkpt>
      <trkpt lat="48.62525" lon="2.05037">
        <ele>135</ele>
        <time>2010-05-13T07:55:05Z</time>
      </trkpt>
      <trkpt lat="48.62527" lon="2.05037">
        <ele>135</ele>
        <time>2010-05-13T07:55:06Z</time>
      </trkpt>
      <trkpt lat="48.62529" lon="2.05038">
        <ele>134</ele>
        <time>2010-05-13T07:55:07Z</time>
      </trkpt>
      <trkpt lat="48.6253" lon="2.05039">
        <ele>134</ele>
        <time>2010-05-13T07:55:08Z</time>
      </trkpt>
      <trkpt lat="48.62532" lon="2.0504">
        <ele>133</ele>
        <time>2010-05-13T07:55:09Z</time>
      </trkpt>
      <trkpt lat="48.62533" lon="2.05041">
        <ele>133</ele>
        <time>2010-05-13T07:55:10Z</time>
      </trkpt>
      <trkpt lat="48.62535" lon="2.05041">
        <ele>132</ele>
        <time>2010-05-13T07:55:11Z</time>
      </trkpt>
      <trkpt lat="48.62536" lon="2.05043">
        <ele>132</ele>
        <time>2010-05-13T07:55:12Z</time>
      </trkpt>
      <trkpt lat="48.62537" lon="2.05044">
        <ele>131</ele>
        <time>2010-05-13T07:55:13Z</time>
      </trkpt>
      <trkpt lat="48.62539" lon="2.05046">
        <ele>131</ele>
        <time>2010-05-13T07:55:14Z</time>
      </trkpt>
      <trkpt lat="48.62541" lon="2.05047">
        <ele>131</ele>
        <time>2010-05-13T07:55:15Z</time>
      </trkpt>
      <trkpt lat="48.62543" lon="2.05049">
        <ele>130</ele>
        <time>2010-05-13T07:55:16Z</time>
      </trkpt>
      <trkpt lat="48.62545" lon="2.0505">
        <ele>130</ele>
        <time>2010-05-13T07:55:17Z</time>
      </trkpt>
      <trkpt lat="48.62546" lon="2.05051">
        <ele>130</ele>
        <time>2010-05-13T07:55:18Z</time>
      </trkpt>
      <trkpt lat="48.62547" lon="2.05051">
        <ele>130</ele>
        <time>2010-05-13T07:55:19Z</time>
      </trkpt>
      <trkpt lat="48.62549" lon="2.05052">
        <ele>130</ele>
        <time>2010-05-13T07:55:20Z</time>
      </trkpt>
      <trkpt lat="48.6255" lon="2.05053">
        <ele>130</ele>
        <time>2010-05-13T07:55:21Z</time>
      </trkpt>
      <trkpt lat="48.62552" lon="2.05054">
        <ele>130</ele>
        <time>2010-05-13T07:55:22Z</time>
      </trkpt>
      <trkpt lat="48.62554" lon="2.05055">
        <ele>130</ele>
        <time>2010-05-13T07:55:23Z</time>
      </trkpt>
      <trkpt lat="48.62555" lon="2.05056">
        <ele>130</ele>
        <time>2010-05-13T07:55:24Z</time>
      </trkpt>
      <trkpt lat="48.62556" lon="2.05057">
        <ele>130</ele>
        <time>2010-05-13T07:55:24Z</time>
      </trkpt>
      <trkpt lat="48.62558" lon="2.05058">
        <ele>130</ele>
        <time>2010-05-13T07:55:26Z</time>
      </trkpt>
      <trkpt lat="48.62559" lon="2.05059">
        <ele>130</ele>
        <time>2010-05-13T07:55:27Z</time>
      </trkpt>
      <trkpt lat="48.62561" lon="2.0506">
        <ele>130</ele>
        <time>2010-05-13T07:55:28Z</time>
      </trkpt>
      <trkpt lat="48.62562" lon="2.05061">
        <ele>130</ele>
        <time>2010-05-13T07:55:29Z</time>
      </trkpt>
      <trkpt lat="48.62564" lon="2.05062">
        <ele>130</ele>
        <time>2010-05-13T07:55:30Z</time>
      </trkpt>
      <trkpt lat="48.62566" lon="2.05062">
        <ele>130</ele>
        <time>2010-05-13T07:55:31Z</time>
      </trkpt>
      <trkpt lat="48.62567" lon="2.05063">
        <ele>130</ele>
        <time>2010-05-13T07:55:32Z</time>
      </trkpt>
      <trkpt lat="48.62569" lon="2.05063">
        <ele>130</ele>
        <time>2010-05-13T07:55:33Z</time>
      </trkpt>
      <trkpt lat="48.62571" lon="2.05063">
        <ele>130</ele>
        <time>2010-05-13T07:55:33Z</time>
      </trkpt>
      <trkpt lat="48.62573" lon="2.05063">
        <ele>130</ele>
        <time>2010-05-13T07:55:35Z</time>
      </trkpt>
      <trkpt lat="48.62574" lon="2.05063">
        <ele>130</ele>
        <time>2010-05-13T07:55:35Z</time>
      </trkpt>
      <trkpt lat="48.62575" lon="2.05064">
        <ele>130</ele>
        <time>2010-05-13T07:55:36Z</time>
      </trkpt>
      <trkpt lat="48.62577" lon="2.05064">
        <ele>130</ele>
        <time>2010-05-13T07:55:37Z</time>
      </trkpt>
      <trkpt lat="48.62578" lon="2.05065">
        <ele>130</ele>
        <time>2010-05-13T07:55:39Z</time>
      </trkpt>
      <trkpt lat="48.6258" lon="2.05066">
        <ele>130</ele>
        <time>2010-05-13T07:55:40Z</time>
      </trkpt>
      <trkpt lat="48.62581" lon="2.05066">
        <ele>130</ele>
        <time>2010-05-13T07:55:40Z</time>
      </trkpt>
      <trkpt lat="48.62583" lon="2.05066">
        <ele>130</ele>
        <time>2010-05-13T07:55:42Z</time>
      </trkpt>
      <trkpt lat="48.62585" lon="2.05067">
        <ele>130</ele>
        <time>2010-05-13T07:55:43Z</time>
      </trkpt>
      <trkpt lat="48.62588" lon="2.05067">
        <ele>130</ele>
        <time>2010-05-13T07:55:44Z</time>
      </trkpt>
      <trkpt lat="48.6259" lon="2.05067">
        <ele>130</ele>
        <time>2010-05-13T07:55:45Z</time>
      </trkpt>
      <trkpt lat="48.62592" lon="2.05068">
        <ele>130</ele>
        <time>2010-05-13T07:55:46Z</time>
      </trkpt>
      <trkpt lat="48.62593" lon="2.05068">
        <ele>130</ele>
        <time>2010-05-13T07:55:47Z</time>
      </trkpt>
      <trkpt lat="48.62595" lon="2.05068">
        <ele>130</ele>
        <time>2010-05-13T07:55:48Z</time>
      </trkpt>
      <trkpt lat="48.62597" lon="2.05069">
        <ele>132</ele>
        <time>2010-05-13T07:55:49Z</time>
      </trkpt>
      <trkpt lat="48.62599" lon="2.05069">
        <ele>132</ele>
        <time>2010-05-13T07:55:51Z</time>
      </trkpt>
      <trkpt lat="48.626" lon="2.05069">
        <ele>132</ele>
        <time>2010-05-13T07:55:52Z</time>
      </trkpt>
      <trkpt lat="48.62602" lon="2.0507">
        <ele>133</ele>
        <time>2010-05-13T07:55:52Z</time>
      </trkpt>
      <trkpt lat="48.62603" lon="2.0507">
        <ele>133</ele>
        <time>2010-05-13T07:55:54Z</time>
      </trkpt>
      <trkpt lat="48.62605" lon="2.0507">
        <ele>133</ele>
        <time>2010-05-13T07:55:54Z</time>
      </trkpt>
      <trkpt lat="48.62606" lon="2.05071">
        <ele>133</ele>
        <time>2010-05-13T07:55:56Z</time>
      </trkpt>
      <trkpt lat="48.62608" lon="2.0507">
        <ele>133</ele>
        <time>2010-05-13T07:55:57Z</time>
      </trkpt>
      <trkpt lat="48.62609" lon="2.0507">
        <ele>134</ele>
        <time>2010-05-13T07:55:58Z</time>
      </trkpt>
      <trkpt lat="48.62611" lon="2.0507">
        <ele>134</ele>
        <time>2010-05-13T07:55:59Z</time>
      </trkpt>
      <trkpt lat="48.62613" lon="2.05069">
        <ele>135</ele>
        <time>2010-05-13T07:56:00Z</time>
      </trkpt>
      <trkpt lat="48.62615" lon="2.05069">
        <ele>135</ele>
        <time>2010-05-13T07:56:01Z</time>
      </trkpt>
      <trkpt lat="48.62617" lon="2.05069">
        <ele>135</ele>
        <time>2010-05-13T07:56:01Z</time>
      </trkpt>
      <trkpt lat="48.62619" lon="2.05069">
        <ele>135</ele>
        <time>2010-05-13T07:56:03Z</time>
      </trkpt>
      <trkpt lat="48.62621" lon="2.05069">
        <ele>135</ele>
        <time>2010-05-13T07:56:04Z</time>
      </trkpt>
      <trkpt lat="48.62623" lon="2.0507">
        <ele>135</ele>
        <time>2010-05-13T07:56:05Z</time>
      </trkpt>
      <trkpt lat="48.62625" lon="2.05071">
        <ele>136</ele>
        <time>2010-05-13T07:56:05Z</time>
      </trkpt>
      <trkpt lat="48.62627" lon="2.05072">
        <ele>136</ele>
        <time>2010-05-13T07:56:07Z</time>
      </trkpt>
      <trkpt lat="48.62628" lon="2.05072">
        <ele>136</ele>
        <time>2010-05-13T07:56:08Z</time>
      </trkpt>
      <trkpt lat="48.6263" lon="2.05072">
        <ele>136</ele>
        <time>2010-05-13T07:56:08Z</time>
      </trkpt>
      <trkpt lat="48.62631" lon="2.05072">
        <ele>136</ele>
        <time>2010-05-13T07:56:10Z</time>
      </trkpt>
      <trkpt lat="48.62633" lon="2.05071">
        <ele>137</ele>
        <time>2010-05-13T07:56:12Z</time>
      </trkpt>
      <trkpt lat="48.62635" lon="2.0507">
        <ele>138</ele>
        <time>2010-05-13T07:56:14Z</time>
      </trkpt>
      <trkpt lat="48.62636" lon="2.0507">
        <ele>138</ele>
        <time>2010-05-13T07:56:15Z</time>
      </trkpt>
      <trkpt lat="48.62638" lon="2.0507">
        <ele>138</ele>
        <time>2010-05-13T07:56:16Z</time>
      </trkpt>
      <trkpt lat="48.62639" lon="2.0507">
        <ele>138</ele>
        <time>2010-05-13T07:56:18Z</time>
      </trkpt>
      <trkpt lat="48.62641" lon="2.0507">
        <ele>138</ele>
        <time>2010-05-13T07:56:19Z</time>
      </trkpt>
      <trkpt lat="48.62642" lon="2.0507">
        <ele>138</ele>
        <time>2010-05-13T07:56:20Z</time>
      </trkpt>
      <trkpt lat="48.62644" lon="2.0507">
        <ele>138</ele>
        <time>2010-05-13T07:56:20Z</time>
      </trkpt>
      <trkpt lat="48.62647" lon="2.05071">
        <ele>138</ele>
        <time>2010-05-13T07:56:22Z</time>
      </trkpt>
      <trkpt lat="48.62648" lon="2.05072">
        <ele>138</ele>
        <time>2010-05-13T07:56:23Z</time>
      </trkpt>
      <trkpt lat="48.6265" lon="2.05072">
        <ele>138</ele>
        <time>2010-05-13T07:56:24Z</time>
      </trkpt>
      <trkpt lat="48.62653" lon="2.05073">
        <ele>137</ele>
        <time>2010-05-13T07:56:25Z</time>
      </trkpt>
      <trkpt lat="48.62654" lon="2.05074">
        <ele>136</ele>
        <time>2010-05-13T07:56:25Z</time>
      </trkpt>
      <trkpt lat="48.62656" lon="2.05074">
        <ele>135</ele>
        <time>2010-05-13T07:56:27Z</time>
      </trkpt>
      <trkpt lat="48.62657" lon="2.05076">
        <ele>134</ele>
        <time>2010-05-13T07:56:28Z</time>
      </trkpt>
      <trkpt lat="48.62659" lon="2.05078">
        <ele>132</ele>
        <time>2010-05-13T07:56:29Z</time>
      </trkpt>
      <trkpt lat="48.62661" lon="2.05078">
        <ele>131</ele>
        <time>2010-05-13T07:56:31Z</time>
      </trkpt>
      <trkpt lat="48.62662" lon="2.05079">
        <ele>129</ele>
        <time>2010-05-13T07:56:33Z</time>
      </trkpt>
      <trkpt lat="48.62664" lon="2.0508">
        <ele>127</ele>
        <time>2010-05-13T07:56:34Z</time>
      </trkpt>
      <trkpt lat="48.62666" lon="2.05082">
        <ele>127</ele>
        <time>2010-05-13T07:56:38Z</time>
      </trkpt>
      <trkpt lat="48.62667" lon="2.05082">
        <ele>127</ele>
        <time>2010-05-13T07:56:39Z</time>
      </trkpt>
      <trkpt lat="48.62669" lon="2.05082">
        <ele>127</ele>
        <time>2010-05-13T07:56:40Z</time>
      </trkpt>
      <trkpt lat="48.62671" lon="2.05084">
        <ele>126</ele>
        <time>2010-05-13T07:56:41Z</time>
      </trkpt>
      <trkpt lat="48.62673" lon="2.05085">
        <ele>126</ele>
        <time>2010-05-13T07:56:42Z</time>
      </trkpt>
      <trkpt lat="48.62675" lon="2.05086">
        <ele>125</ele>
        <time>2010-05-13T07:56:42Z</time>
      </trkpt>
      <trkpt lat="48.62677" lon="2.05087">
        <ele>125</ele>
        <time>2010-05-13T07:56:44Z</time>
      </trkpt>
      <trkpt lat="48.62679" lon="2.05088">
        <ele>125</ele>
        <time>2010-05-13T07:56:45Z</time>
      </trkpt>
      <trkpt lat="48.62681" lon="2.05088">
        <ele>125</ele>
        <time>2010-05-13T07:56:46Z</time>
      </trkpt>
      <trkpt lat="48.62684" lon="2.05089">
        <ele>125</ele>
        <time>2010-05-13T07:56:46Z</time>
      </trkpt>
      <trkpt lat="48.62685" lon="2.05089">
        <ele>125</ele>
        <time>2010-05-13T07:56:48Z</time>
      </trkpt>
      <trkpt lat="48.62686" lon="2.0509">
        <ele>125</ele>
        <time>2010-05-13T07:56:49Z</time>
      </trkpt>
      <trkpt lat="48.62689" lon="2.05091">
        <ele>125</ele>
        <time>2010-05-13T07:56:50Z</time>
      </trkpt>
      <trkpt lat="48.62691" lon="2.05092">
        <ele>125</ele>
        <time>2010-05-13T07:56:51Z</time>
      </trkpt>
      <trkpt lat="48.62693" lon="2.05092">
        <ele>125</ele>
        <time>2010-05-13T07:56:52Z</time>
      </trkpt>
      <trkpt lat="48.62695" lon="2.05093">
        <ele>126</ele>
        <time>2010-05-13T07:56:53Z</time>
      </trkpt>
      <trkpt lat="48.62696" lon="2.05093">
        <ele>127</ele>
        <time>2010-05-13T07:56:54Z</time>
      </trkpt>
      <trkpt lat="48.62698" lon="2.05094">
        <ele>128</ele>
        <time>2010-05-13T07:56:54Z</time>
      </trkpt>
      <trkpt lat="48.62699" lon="2.05095">
        <ele>128</ele>
        <time>2010-05-13T07:56:56Z</time>
      </trkpt>
      <trkpt lat="48.627" lon="2.05095">
        <ele>128</ele>
        <time>2010-05-13T07:56:57Z</time>
      </trkpt>
      <trkpt lat="48.62703" lon="2.05097">
        <ele>128</ele>
        <time>2010-05-13T07:56:59Z</time>
      </trkpt>
      <trkpt lat="48.62705" lon="2.05098">
        <ele>128</ele>
        <time>2010-05-13T07:57:00Z</time>
      </trkpt>
      <trkpt lat="48.62706" lon="2.051">
        <ele>128</ele>
        <time>2010-05-13T07:57:01Z</time>
      </trkpt>
      <trkpt lat="48.62708" lon="2.051">
        <ele>128</ele>
        <time>2010-05-13T07:57:01Z</time>
      </trkpt>
      <trkpt lat="48.62709" lon="2.051">
        <ele>128</ele>
        <time>2010-05-13T07:57:03Z</time>
      </trkpt>
      <trkpt lat="48.62713" lon="2.05102">
        <ele>128</ele>
        <time>2010-05-13T07:57:05Z</time>
      </trkpt>
      <trkpt lat="48.62714" lon="2.05103">
        <ele>128</ele>
        <time>2010-05-13T07:57:06Z</time>
      </trkpt>
      <trkpt lat="48.62717" lon="2.05103">
        <ele>128</ele>
        <time>2010-05-13T07:57:07Z</time>
      </trkpt>
      <trkpt lat="48.62719" lon="2.05104">
        <ele>128</ele>
        <time>2010-05-13T07:57:09Z</time>
      </trkpt>
      <trkpt lat="48.62721" lon="2.05105">
        <ele>128</ele>
        <time>2010-05-13T07:57:10Z</time>
      </trkpt>
      <trkpt lat="48.62722" lon="2.05105">
        <ele>129</ele>
        <time>2010-05-13T07:57:10Z</time>
      </trkpt>
      <trkpt lat="48.62724" lon="2.05106">
        <ele>130</ele>
        <time>2010-05-13T07:57:12Z</time>
      </trkpt>
      <trkpt lat="48.62725" lon="2.05106">
        <ele>131</ele>
        <time>2010-05-13T07:57:13Z</time>
      </trkpt>
      <trkpt lat="48.62727" lon="2.05106">
        <ele>132</ele>
        <time>2010-05-13T07:57:14Z</time>
      </trkpt>
      <trkpt lat="48.62728" lon="2.05106">
        <ele>133</ele>
        <time>2010-05-13T07:57:15Z</time>
      </trkpt>
      <trkpt lat="48.6273" lon="2.05107">
        <ele>135</ele>
        <time>2010-05-13T07:57:17Z</time>
      </trkpt>
      <trkpt lat="48.62733" lon="2.05107">
        <ele>136</ele>
        <time>2010-05-13T07:57:18Z</time>
      </trkpt>
      <trkpt lat="48.62735" lon="2.05106">
        <ele>136</ele>
        <time>2010-05-13T07:57:21Z</time>
      </trkpt>
      <trkpt lat="48.62736" lon="2.05106">
        <ele>136</ele>
        <time>2010-05-13T07:57:22Z</time>
      </trkpt>
      <trkpt lat="48.62738" lon="2.05106">
        <ele>136</ele>
        <time>2010-05-13T07:57:23Z</time>
      </trkpt>
      <trkpt lat="48.6274" lon="2.05107">
        <ele>136</ele>
        <time>2010-05-13T07:57:24Z</time>
      </trkpt>
      <trkpt lat="48.62743" lon="2.05107">
        <ele>136</ele>
        <time>2010-05-13T07:57:25Z</time>
      </trkpt>
      <trkpt lat="48.62746" lon="2.0511">
        <ele>134</ele>
        <time>2010-05-13T07:57:29Z</time>
      </trkpt>
      <trkpt lat="48.62747" lon="2.0511">
        <ele>133</ele>
        <time>2010-05-13T07:57:29Z</time>
      </trkpt>
      <trkpt lat="48.6275" lon="2.05109">
        <ele>133</ele>
        <time>2010-05-13T07:57:31Z</time>
      </trkpt>
      <trkpt lat="48.62752" lon="2.05108">
        <ele>132</ele>
        <time>2010-05-13T07:57:32Z</time>
      </trkpt>
      <trkpt lat="48.62755" lon="2.05108">
        <ele>132</ele>
        <time>2010-05-13T07:57:33Z</time>
      </trkpt>
      <trkpt lat="48.62757" lon="2.05107">
        <ele>132</ele>
        <time>2010-05-13T07:57:34Z</time>
      </trkpt>
      <trkpt lat="48.62758" lon="2.05107">
        <ele>132</ele>
        <time>2010-05-13T07:57:35Z</time>
      </trkpt>
      <trkpt lat="48.6276" lon="2.05106">
        <ele>132</ele>
        <time>2010-05-13T07:57:36Z</time>
      </trkpt>
      <trkpt lat="48.62761" lon="2.05105">
        <ele>132</ele>
        <time>2010-05-13T07:57:37Z</time>
      </trkpt>
      <trkpt lat="48.62763" lon="2.05105">
        <ele>132</ele>
        <time>2010-05-13T07:57:37Z</time>
      </trkpt>
      <trkpt lat="48.62764" lon="2.05104">
        <ele>132</ele>
        <time>2010-05-13T07:57:39Z</time>
      </trkpt>
      <trkpt lat="48.62766" lon="2.05103">
        <ele>132</ele>
        <time>2010-05-13T07:57:39Z</time>
      </trkpt>
      <trkpt lat="48.62768" lon="2.05102">
        <ele>132</ele>
        <time>2010-05-13T07:57:40Z</time>
      </trkpt>
      <trkpt lat="48.6277" lon="2.05102">
        <ele>132</ele>
        <time>2010-05-13T07:57:41Z</time>
      </trkpt>
      <trkpt lat="48.62772" lon="2.05103">
        <ele>132</ele>
        <time>2010-05-13T07:57:43Z</time>
      </trkpt>
      <trkpt lat="48.62773" lon="2.05103">
        <ele>132</ele>
        <time>2010-05-13T07:57:44Z</time>
      </trkpt>
      <trkpt lat="48.62775" lon="2.05103">
        <ele>132</ele>
        <time>2010-05-13T07:57:45Z</time>
      </trkpt>
      <trkpt lat="48.62777" lon="2.05102">
        <ele>132</ele>
        <time>2010-05-13T07:57:46Z</time>
      </trkpt>
      <trkpt lat="48.62778" lon="2.05102">
        <ele>132</ele>
        <time>2010-05-13T07:57:46Z</time>
      </trkpt>
      <trkpt lat="48.6278" lon="2.051">
        <ele>132</ele>
        <time>2010-05-13T07:57:47Z</time>
      </trkpt>
      <trkpt lat="48.62781" lon="2.05099">
        <ele>132</ele>
        <time>2010-05-13T07:57:48Z</time>
      </trkpt>
      <trkpt lat="48.62783" lon="2.05096">
        <ele>132</ele>
        <time>2010-05-13T07:57:51Z</time>
      </trkpt>
      <trkpt lat="48.62784" lon="2.05093">
        <ele>132</ele>
        <time>2010-05-13T07:57:53Z</time>
      </trkpt>
      <trkpt lat="48.62785" lon="2.05091">
        <ele>132</ele>
        <time>2010-05-13T07:57:53Z</time>
      </trkpt>
      <trkpt lat="48.62787" lon="2.05088">
        <ele>131</ele>
        <time>2010-05-13T07:57:55Z</time>
      </trkpt>
      <trkpt lat="48.62787" lon="2.05086">
        <ele>131</ele>
        <time>2010-05-13T07:57:56Z</time>
      </trkpt>
      <trkpt lat="48.62788" lon="2.05083">
        <ele>131</ele>
        <time>2010-05-13T07:57:57Z</time>
      </trkpt>
      <trkpt lat="48.62788" lon="2.05081">
        <ele>131</ele>
        <time>2010-05-13T07:57:59Z</time>
      </trkpt>
      <trkpt lat="48.62789" lon="2.05079">
        <ele>131</ele>
        <time>2010-05-13T07:58:00Z</time>
      </trkpt>
      <trkpt lat="48.6279" lon="2.05078">
        <ele>131</ele>
        <time>2010-05-13T07:58:01Z</time>
      </trkpt>
      <trkpt lat="48.62791" lon="2.05076">
        <ele>130</ele>
        <time>2010-05-13T07:58:02Z</time>
      </trkpt>
      <trkpt lat="48.62792" lon="2.05074">
        <ele>129</ele>
        <time>2010-05-13T07:58:02Z</time>
      </trkpt>
      <trkpt lat="48.62792" lon="2.05072">
        <ele>128</ele>
        <time>2010-05-13T07:58:04Z</time>
      </trkpt>
      <trkpt lat="48.62793" lon="2.0507">
        <ele>128</ele>
        <time>2010-05-13T07:58:05Z</time>
      </trkpt>
      <trkpt lat="48.62795" lon="2.05069">
        <ele>127</ele>
        <time>2010-05-13T07:58:05Z</time>
      </trkpt>
      <trkpt lat="48.62796" lon="2.05067">
        <ele>127</ele>
        <time>2010-05-13T07:58:07Z</time>
      </trkpt>
      <trkpt lat="48.62797" lon="2.05065">
        <ele>127</ele>
        <time>2010-05-13T07:58:07Z</time>
      </trkpt>
      <trkpt lat="48.62799" lon="2.05062">
        <ele>125</ele>
        <time>2010-05-13T07:58:09Z</time>
      </trkpt>
      <trkpt lat="48.628" lon="2.05059">
        <ele>123</ele>
        <time>2010-05-13T07:58:11Z</time>
      </trkpt>
      <trkpt lat="48.62801" lon="2.05056">
        <ele>122</ele>
        <time>2010-05-13T07:58:12Z</time>
      </trkpt>
      <trkpt lat="48.62802" lon="2.05054">
        <ele>121</ele>
        <time>2010-05-13T07:58:13Z</time>
      </trkpt>
      <trkpt lat="48.62802" lon="2.05051">
        <ele>121</ele>
        <time>2010-05-13T07:58:14Z</time>
      </trkpt>
      <trkpt lat="48.62803" lon="2.05049">
        <ele>121</ele>
        <time>2010-05-13T07:58:16Z</time>
      </trkpt>
      <trkpt lat="48.62803" lon="2.05046">
        <ele>121</ele>
        <time>2010-05-13T07:58:17Z</time>
      </trkpt>
      <trkpt lat="48.62803" lon="2.05043">
        <ele>121</ele>
        <time>2010-05-13T07:58:17Z</time>
      </trkpt>
      <trkpt lat="48.62804" lon="2.05041">
        <ele>121</ele>
        <time>2010-05-13T07:58:19Z</time>
      </trkpt>
      <trkpt lat="48.62805" lon="2.05039">
        <ele>121</ele>
        <time>2010-05-13T07:58:20Z</time>
      </trkpt>
      <trkpt lat="48.62805" lon="2.05037">
        <ele>121</ele>
        <time>2010-05-13T07:58:20Z</time>
      </trkpt>
      <trkpt lat="48.62805" lon="2.05034">
        <ele>121</ele>
        <time>2010-05-13T07:58:21Z</time>
      </trkpt>
      <trkpt lat="48.62805" lon="2.05032">
        <ele>121</ele>
        <time>2010-05-13T07:58:23Z</time>
      </trkpt>
      <trkpt lat="48.62806" lon="2.05029">
        <ele>121</ele>
        <time>2010-05-13T07:58:24Z</time>
      </trkpt>
      <trkpt lat="48.62806" lon="2.05026">
        <ele>121</ele>
        <time>2010-05-13T07:58:25Z</time>
      </trkpt>
      <trkpt lat="48.62806" lon="2.05024">
        <ele>121</ele>
        <time>2010-05-13T07:58:26Z</time>
      </trkpt>
      <trkpt lat="48.62807" lon="2.05022">
        <ele>120</ele>
        <time>2010-05-13T07:58:27Z</time>
      </trkpt>
      <trkpt lat="48.62807" lon="2.05019">
        <ele>119</ele>
        <time>2010-05-13T07:58:28Z</time>
      </trkpt>
      <trkpt lat="48.62807" lon="2.05016">
        <ele>119</ele>
        <time>2010-05-13T07:58:29Z</time>
      </trkpt>
      <trkpt lat="48.62807" lon="2.05014">
        <ele>118</ele>
        <time>2010-05-13T07:58:30Z</time>
      </trkpt>
      <trkpt lat="48.62807" lon="2.05012">
        <ele>118</ele>
        <time>2010-05-13T07:58:30Z</time>
      </trkpt>
      <trkpt lat="48.62808" lon="2.0501">
        <ele>117</ele>
        <time>2010-05-13T07:58:32Z</time>
      </trkpt>
      <trkpt lat="48.62808" lon="2.05008">
        <ele>116</ele>
        <time>2010-05-13T07:58:33Z</time>
      </trkpt>
      <trkpt lat="48.62809" lon="2.05005">
        <ele>115</ele>
        <time>2010-05-13T07:58:34Z</time>
      </trkpt>
      <trkpt lat="48.6281" lon="2.05002">
        <ele>114</ele>
        <time>2010-05-13T07:58:35Z</time>
      </trkpt>
      <trkpt lat="48.6281" lon="2.04999">
        <ele>113</ele>
        <time>2010-05-13T07:58:35Z</time>
      </trkpt>
      <trkpt lat="48.62812" lon="2.04996">
        <ele>112</ele>
        <time>2010-05-13T07:58:37Z</time>
      </trkpt>
      <trkpt lat="48.62813" lon="2.04992">
        <ele>111</ele>
        <time>2010-05-13T07:58:38Z</time>
      </trkpt>
      <trkpt lat="48.62814" lon="2.04989">
        <ele>111</ele>
        <time>2010-05-13T07:58:39Z</time>
      </trkpt>
      <trkpt lat="48.62815" lon="2.04986">
        <ele>111</ele>
        <time>2010-05-13T07:58:39Z</time>
      </trkpt>
      <trkpt lat="48.62815" lon="2.04983">
        <ele>111</ele>
        <time>2010-05-13T07:58:40Z</time>
      </trkpt>
      <trkpt lat="48.62816" lon="2.0498">
        <ele>111</ele>
        <time>2010-05-13T07:58:42Z</time>
      </trkpt>
      <trkpt lat="48.62817" lon="2.04977">
        <ele>111</ele>
        <time>2010-05-13T07:58:43Z</time>
      </trkpt>
      <trkpt lat="48.62817" lon="2.04975">
        <ele>111</ele>
        <time>2010-05-13T07:58:44Z</time>
      </trkpt>
      <trkpt lat="48.62818" lon="2.04973">
        <ele>111</ele>
        <time>2010-05-13T07:58:45Z</time>
      </trkpt>
      <trkpt lat="48.62818" lon="2.04971">
        <ele>111</ele>
        <time>2010-05-13T07:58:46Z</time>
      </trkpt>
      <trkpt lat="48.62818" lon="2.04968">
        <ele>111</ele>
        <time>2010-05-13T07:58:47Z</time>
      </trkpt>
      <trkpt lat="48.62818" lon="2.04966">
        <ele>111</ele>
        <time>2010-05-13T07:58:48Z</time>
      </trkpt>
      <trkpt lat="48.62819" lon="2.04963">
        <ele>111</ele>
        <time>2010-05-13T07:58:49Z</time>
      </trkpt>
      <trkpt lat="48.6282" lon="2.0496">
        <ele>111</ele>
        <time>2010-05-13T07:58:50Z</time>
      </trkpt>
      <trkpt lat="48.62821" lon="2.04957">
        <ele>111</ele>
        <time>2010-05-13T07:58:51Z</time>
      </trkpt>
      <trkpt lat="48.62822" lon="2.04954">
        <ele>111</ele>
        <time>2010-05-13T07:58:52Z</time>
      </trkpt>
      <trkpt lat="48.62823" lon="2.0495">
        <ele>112</ele>
        <time>2010-05-13T07:58:53Z</time>
      </trkpt>
      <trkpt lat="48.62824" lon="2.04947">
        <ele>112</ele>
        <time>2010-05-13T07:58:53Z</time>
      </trkpt>
      <trkpt lat="48.62826" lon="2.04944">
        <ele>113</ele>
        <time>2010-05-13T07:58:55Z</time>
      </trkpt>
      <trkpt lat="48.62826" lon="2.04942">
        <ele>114</ele>
        <time>2010-05-13T07:58:56Z</time>
      </trkpt>
      <trkpt lat="48.62827" lon="2.04939">
        <ele>114</ele>
        <time>2010-05-13T07:58:57Z</time>
      </trkpt>
      <trkpt lat="48.62827" lon="2.04937">
        <ele>115</ele>
        <time>2010-05-13T07:58:58Z</time>
      </trkpt>
      <trkpt lat="48.62828" lon="2.04935">
        <ele>115</ele>
        <time>2010-05-13T07:58:59Z</time>
      </trkpt>
      <trkpt lat="48.62828" lon="2.04933">
        <ele>115</ele>
        <time>2010-05-13T07:59:00Z</time>
      </trkpt>
      <trkpt lat="48.62829" lon="2.04931">
        <ele>115</ele>
        <time>2010-05-13T07:59:01Z</time>
      </trkpt>
      <trkpt lat="48.6283" lon="2.04929">
        <ele>115</ele>
        <time>2010-05-13T07:59:02Z</time>
      </trkpt>
      <trkpt lat="48.62831" lon="2.04927">
        <ele>115</ele>
        <time>2010-05-13T07:59:03Z</time>
      </trkpt>
      <trkpt lat="48.62832" lon="2.04924">
        <ele>115</ele>
        <time>2010-05-13T07:59:04Z</time>
      </trkpt>
      <trkpt lat="48.62833" lon="2.04922">
        <ele>115</ele>
        <time>2010-05-13T07:59:05Z</time>
      </trkpt>
      <trkpt lat="48.62834" lon="2.04919">
        <ele>115</ele>
        <time>2010-05-13T07:59:06Z</time>
      </trkpt>
      <trkpt lat="48.62836" lon="2.04915">
        <ele>115</ele>
        <time>2010-05-13T07:59:08Z</time>
      </trkpt>
      <trkpt lat="48.62836" lon="2.04913">
        <ele>115</ele>
        <time>2010-05-13T07:59:08Z</time>
      </trkpt>
      <trkpt lat="48.62837" lon="2.04912">
        <ele>115</ele>
        <time>2010-05-13T07:59:10Z</time>
      </trkpt>
      <trkpt lat="48.62838" lon="2.0491">
        <ele>115</ele>
        <time>2010-05-13T07:59:11Z</time>
      </trkpt>
      <trkpt lat="48.62839" lon="2.04907">
        <ele>115</ele>
        <time>2010-05-13T07:59:12Z</time>
      </trkpt>
      <trkpt lat="48.6284" lon="2.04905">
        <ele>115</ele>
        <time>2010-05-13T07:59:13Z</time>
      </trkpt>
      <trkpt lat="48.62841" lon="2.04903">
        <ele>115</ele>
        <time>2010-05-13T07:59:14Z</time>
      </trkpt>
      <trkpt lat="48.62842" lon="2.04901">
        <ele>115</ele>
        <time>2010-05-13T07:59:15Z</time>
      </trkpt>
      <trkpt lat="48.62843" lon="2.04899">
        <ele>115</ele>
        <time>2010-05-13T07:59:16Z</time>
      </trkpt>
      <trkpt lat="48.62844" lon="2.04897">
        <ele>115</ele>
        <time>2010-05-13T07:59:17Z</time>
      </trkpt>
      <trkpt lat="48.62845" lon="2.04895">
        <ele>115</ele>
        <time>2010-05-13T07:59:18Z</time>
      </trkpt>
      <trkpt lat="48.62847" lon="2.04894">
        <ele>115</ele>
        <time>2010-05-13T07:59:19Z</time>
      </trkpt>
      <trkpt lat="48.62848" lon="2.04892">
        <ele>115</ele>
        <time>2010-05-13T07:59:20Z</time>
      </trkpt>
      <trkpt lat="48.62849" lon="2.0489">
        <ele>115</ele>
        <time>2010-05-13T07:59:21Z</time>
      </trkpt>
      <trkpt lat="48.6285" lon="2.04889">
        <ele>115</ele>
        <time>2010-05-13T07:59:22Z</time>
      </trkpt>
      <trkpt lat="48.6285" lon="2.04887">
        <ele>115</ele>
        <time>2010-05-13T07:59:23Z</time>
      </trkpt>
      <trkpt lat="48.62852" lon="2.04884">
        <ele>116</ele>
        <time>2010-05-13T07:59:25Z</time>
      </trkpt>
      <trkpt lat="48.62853" lon="2.04882">
        <ele>116</ele>
        <time>2010-05-13T07:59:26Z</time>
      </trkpt>
      <trkpt lat="48.62854" lon="2.0488">
        <ele>116</ele>
        <time>2010-05-13T07:59:27Z</time>
      </trkpt>
      <trkpt lat="48.62855" lon="2.04879">
        <ele>116</ele>
        <time>2010-05-13T07:59:28Z</time>
      </trkpt>
      <trkpt lat="48.62856" lon="2.04877">
        <ele>116</ele>
        <time>2010-05-13T07:59:28Z</time>
      </trkpt>
      <trkpt lat="48.62858" lon="2.04875">
        <ele>116</ele>
        <time>2010-05-13T07:59:31Z</time>
      </trkpt>
      <trkpt lat="48.62859" lon="2.04874">
        <ele>116</ele>
        <time>2010-05-13T07:59:32Z</time>
      </trkpt>
      <trkpt lat="48.62861" lon="2.04872">
        <ele>116</ele>
        <time>2010-05-13T07:59:34Z</time>
      </trkpt>
      <trkpt lat="48.62863" lon="2.04871">
        <ele>116</ele>
        <time>2010-05-13T07:59:35Z</time>
      </trkpt>
      <trkpt lat="48.62865" lon="2.0487">
        <ele>116</ele>
        <time>2010-05-13T07:59:36Z</time>
      </trkpt>
      <trkpt lat="48.62867" lon="2.0487">
        <ele>116</ele>
        <time>2010-05-13T07:59:36Z</time>
      </trkpt>
      <trkpt lat="48.62868" lon="2.04869">
        <ele>116</ele>
        <time>2010-05-13T07:59:38Z</time>
      </trkpt>
      <trkpt lat="48.62869" lon="2.04868">
        <ele>116</ele>
        <time>2010-05-13T07:59:39Z</time>
      </trkpt>
      <trkpt lat="48.62871" lon="2.04865">
        <ele>116</ele>
        <time>2010-05-13T07:59:40Z</time>
      </trkpt>
      <trkpt lat="48.62873" lon="2.04864">
        <ele>116</ele>
        <time>2010-05-13T07:59:43Z</time>
      </trkpt>
      <trkpt lat="48.62875" lon="2.04864">
        <ele>116</ele>
        <time>2010-05-13T07:59:44Z</time>
      </trkpt>
      <trkpt lat="48.62876" lon="2.04862">
        <ele>116</ele>
        <time>2010-05-13T07:59:45Z</time>
      </trkpt>
      <trkpt lat="48.62877" lon="2.04861">
        <ele>117</ele>
        <time>2010-05-13T07:59:45Z</time>
      </trkpt>
      <trkpt lat="48.62879" lon="2.0486">
        <ele>118</ele>
        <time>2010-05-13T07:59:48Z</time>
      </trkpt>
      <trkpt lat="48.62881" lon="2.04859">
        <ele>118</ele>
        <time>2010-05-13T07:59:49Z</time>
      </trkpt>
      <trkpt lat="48.62882" lon="2.04858">
        <ele>118</ele>
        <time>2010-05-13T07:59:50Z</time>
      </trkpt>
      <trkpt lat="48.62884" lon="2.04857">
        <ele>118</ele>
        <time>2010-05-13T07:59:51Z</time>
      </trkpt>
      <trkpt lat="48.62885" lon="2.04856">
        <ele>119</ele>
        <time>2010-05-13T07:59:52Z</time>
      </trkpt>
      <trkpt lat="48.62887" lon="2.04856">
        <ele>119</ele>
        <time>2010-05-13T07:59:53Z</time>
      </trkpt>
      <trkpt lat="48.62888" lon="2.04855">
        <ele>119</ele>
        <time>2010-05-13T07:59:54Z</time>
      </trkpt>
      <trkpt lat="48.62889" lon="2.04854">
        <ele>119</ele>
        <time>2010-05-13T07:59:55Z</time>
      </trkpt>
      <trkpt lat="48.62891" lon="2.04854">
        <ele>120</ele>
        <time>2010-05-13T07:59:56Z</time>
      </trkpt>
      <trkpt lat="48.62892" lon="2.04854">
        <ele>120</ele>
        <time>2010-05-13T07:59:56Z</time>
      </trkpt>
      <trkpt lat="48.62894" lon="2.04854">
        <ele>120</ele>
        <time>2010-05-13T07:59:58Z</time>
      </trkpt>
      <trkpt lat="48.62895" lon="2.04854">
        <ele>121</ele>
        <time>2010-05-13T07:59:59Z</time>
      </trkpt>
      <trkpt lat="48.62896" lon="2.04854">
        <ele>121</ele>
        <time>2010-05-13T08:00:00Z</time>
      </trkpt>
      <trkpt lat="48.62898" lon="2.04853">
        <ele>121</ele>
        <time>2010-05-13T08:00:00Z</time>
      </trkpt>
      <trkpt lat="48.62899" lon="2.04852">
        <ele>121</ele>
        <time>2010-05-13T08:00:02Z</time>
      </trkpt>
      <trkpt lat="48.629" lon="2.04852">
        <ele>121</ele>
        <time>2010-05-13T08:00:03Z</time>
      </trkpt>
      <trkpt lat="48.62902" lon="2.04851">
        <ele>121</ele>
        <time>2010-05-13T08:00:04Z</time>
      </trkpt>
      <trkpt lat="48.62905" lon="2.04851">
        <ele>121</ele>
        <time>2010-05-13T08:00:05Z</time>
      </trkpt>
      <trkpt lat="48.62907" lon="2.0485">
        <ele>121</ele>
        <time>2010-05-13T08:00:06Z</time>
      </trkpt>
      <trkpt lat="48.62909" lon="2.04849">
        <ele>121</ele>
        <time>2010-05-13T08:00:07Z</time>
      </trkpt>
      <trkpt lat="48.62912" lon="2.04846">
        <ele>121</ele>
        <time>2010-05-13T08:00:08Z</time>
      </trkpt>
      <trkpt lat="48.62914" lon="2.04844">
        <ele>121</ele>
        <time>2010-05-13T08:00:09Z</time>
      </trkpt>
      <trkpt lat="48.62917" lon="2.04844">
        <ele>121</ele>
        <time>2010-05-13T08:00:10Z</time>
      </trkpt>
      <trkpt lat="48.62919" lon="2.04844">
        <ele>121</ele>
        <time>2010-05-13T08:00:11Z</time>
      </trkpt>
      <trkpt lat="48.62921" lon="2.04843">
        <ele>121</ele>
        <time>2010-05-13T08:00:12Z</time>
      </trkpt>
      <trkpt lat="48.62923" lon="2.04843">
        <ele>121</ele>
        <time>2010-05-13T08:00:13Z</time>
      </trkpt>
      <trkpt lat="48.62924" lon="2.04843">
        <ele>121</ele>
        <time>2010-05-13T08:00:14Z</time>
      </trkpt>
      <trkpt lat="48.62926" lon="2.04842">
        <ele>121</ele>
        <time>2010-05-13T08:00:15Z</time>
      </trkpt>
      <trkpt lat="48.62927" lon="2.04842">
        <ele>121</ele>
        <time>2010-05-13T08:00:16Z</time>
      </trkpt>
      <trkpt lat="48.62929" lon="2.04842">
        <ele>121</ele>
        <time>2010-05-13T08:00:17Z</time>
      </trkpt>
      <trkpt lat="48.6293" lon="2.04841">
        <ele>121</ele>
        <time>2010-05-13T08:00:18Z</time>
      </trkpt>
      <trkpt lat="48.62932" lon="2.04841">
        <ele>121</ele>
        <time>2010-05-13T08:00:20Z</time>
      </trkpt>
      <trkpt lat="48.62933" lon="2.04841">
        <ele>121</ele>
        <time>2010-05-13T08:00:21Z</time>
      </trkpt>
      <trkpt lat="48.62935" lon="2.04841">
        <ele>122</ele>
        <time>2010-05-13T08:00:22Z</time>
      </trkpt>
      <trkpt lat="48.62937" lon="2.0484">
        <ele>123</ele>
        <time>2010-05-13T08:00:24Z</time>
      </trkpt>
      <trkpt lat="48.62939" lon="2.04839">
        <ele>123</ele>
        <time>2010-05-13T08:00:25Z</time>
      </trkpt>
      <trkpt lat="48.6294" lon="2.04838">
        <ele>123</ele>
        <time>2010-05-13T08:00:26Z</time>
      </trkpt>
      <trkpt lat="48.62942" lon="2.04838">
        <ele>123</ele>
        <time>2010-05-13T08:00:27Z</time>
      </trkpt>
      <trkpt lat="48.62943" lon="2.04837">
        <ele>124</ele>
        <time>2010-05-13T08:00:28Z</time>
      </trkpt>
      <trkpt lat="48.62945" lon="2.04837">
        <ele>124</ele>
        <time>2010-05-13T08:00:29Z</time>
      </trkpt>
      <trkpt lat="48.62947" lon="2.04836">
        <ele>124</ele>
        <time>2010-05-13T08:00:30Z</time>
      </trkpt>
      <trkpt lat="48.62949" lon="2.04837">
        <ele>124</ele>
        <time>2010-05-13T08:00:31Z</time>
      </trkpt>
      <trkpt lat="48.6295" lon="2.04836">
        <ele>124</ele>
        <time>2010-05-13T08:00:32Z</time>
      </trkpt>
      <trkpt lat="48.62952" lon="2.04836">
        <ele>124</ele>
        <time>2010-05-13T08:00:33Z</time>
      </trkpt>
      <trkpt lat="48.62954" lon="2.04833">
        <ele>124</ele>
        <time>2010-05-13T08:00:35Z</time>
      </trkpt>
      <trkpt lat="48.62955" lon="2.04832">
        <ele>124</ele>
        <time>2010-05-13T08:00:36Z</time>
      </trkpt>
      <trkpt lat="48.62956" lon="2.0483">
        <ele>124</ele>
        <time>2010-05-13T08:00:37Z</time>
      </trkpt>
      <trkpt lat="48.62957" lon="2.04828">
        <ele>124</ele>
        <time>2010-05-13T08:00:38Z</time>
      </trkpt>
      <trkpt lat="48.62958" lon="2.04826">
        <ele>124</ele>
        <time>2010-05-13T08:00:40Z</time>
      </trkpt>
      <trkpt lat="48.62957" lon="2.04826">
        <ele>124</ele>
        <time>2010-05-13T08:00:43Z</time>
      </trkpt>
      <trkpt lat="48.62956" lon="2.04828">
        <ele>124</ele>
        <time>2010-05-13T08:00:44Z</time>
      </trkpt>
      <trkpt lat="48.62955" lon="2.0483">
        <ele>124</ele>
        <time>2010-05-13T08:00:45Z</time>
      </trkpt>
      <trkpt lat="48.62953" lon="2.04833">
        <ele>123</ele>
        <time>2010-05-13T08:00:47Z</time>
      </trkpt>
      <trkpt lat="48.62951" lon="2.04833">
        <ele>123</ele>
        <time>2010-05-13T08:00:48Z</time>
      </trkpt>
      <trkpt lat="48.6295" lon="2.04834">
        <ele>122</ele>
        <time>2010-05-13T08:00:49Z</time>
      </trkpt>
      <trkpt lat="48.62947" lon="2.04838">
        <ele>122</ele>
        <time>2010-05-13T08:00:51Z</time>
      </trkpt>
      <trkpt lat="48.62945" lon="2.04839">
        <ele>121</ele>
        <time>2010-05-13T08:00:52Z</time>
      </trkpt>
      <trkpt lat="48.62943" lon="2.04839">
        <ele>121</ele>
        <time>2010-05-13T08:00:53Z</time>
      </trkpt>
      <trkpt lat="48.6294" lon="2.0484">
        <ele>121</ele>
        <time>2010-05-13T08:00:54Z</time>
      </trkpt>
      <trkpt lat="48.62938" lon="2.0484">
        <ele>121</ele>
        <time>2010-05-13T08:00:55Z</time>
      </trkpt>
      <trkpt lat="48.62936" lon="2.04841">
        <ele>121</ele>
        <time>2010-05-13T08:00:56Z</time>
      </trkpt>
      <trkpt lat="48.62934" lon="2.04841">
        <ele>121</ele>
        <time>2010-05-13T08:00:57Z</time>
      </trkpt>
      <trkpt lat="48.62931" lon="2.04842">
        <ele>121</ele>
        <time>2010-05-13T08:00:58Z</time>
      </trkpt>
      <trkpt lat="48.62929" lon="2.04843">
        <ele>121</ele>
        <time>2010-05-13T08:00:59Z</time>
      </trkpt>
      <trkpt lat="48.62927" lon="2.04843">
        <ele>121</ele>
        <time>2010-05-13T08:00:59Z</time>
      </trkpt>
      <trkpt lat="48.62925" lon="2.04844">
        <ele>121</ele>
        <time>2010-05-13T08:01:01Z</time>
      </trkpt>
      <trkpt lat="48.62923" lon="2.04844">
        <ele>121</ele>
        <time>2010-05-13T08:01:02Z</time>
      </trkpt>
      <trkpt lat="48.62921" lon="2.04844">
        <ele>121</ele>
        <time>2010-05-13T08:01:03Z</time>
      </trkpt>
      <trkpt lat="48.6292" lon="2.04844">
        <ele>121</ele>
        <time>2010-05-13T08:01:04Z</time>
      </trkpt>
      <trkpt lat="48.62918" lon="2.04845">
        <ele>121</ele>
        <time>2010-05-13T08:01:05Z</time>
      </trkpt>
      <trkpt lat="48.62916" lon="2.04845">
        <ele>121</ele>
        <time>2010-05-13T08:01:06Z</time>
      </trkpt>
      <trkpt lat="48.62914" lon="2.04846">
        <ele>121</ele>
        <time>2010-05-13T08:01:07Z</time>
      </trkpt>
      <trkpt lat="48.62913" lon="2.04847">
        <ele>121</ele>
        <time>2010-05-13T08:01:08Z</time>
      </trkpt>
      <trkpt lat="48.62911" lon="2.04847">
        <ele>121</ele>
        <time>2010-05-13T08:01:09Z</time>
      </trkpt>
      <trkpt lat="48.6291" lon="2.04847">
        <ele>121</ele>
        <time>2010-05-13T08:01:10Z</time>
      </trkpt>
      <trkpt lat="48.62907" lon="2.04846">
        <ele>121</ele>
        <time>2010-05-13T08:01:11Z</time>
      </trkpt>
      <trkpt lat="48.62906" lon="2.04846">
        <ele>121</ele>
        <time>2010-05-13T08:01:11Z</time>
      </trkpt>
      <trkpt lat="48.62904" lon="2.04847">
        <ele>121</ele>
        <time>2010-05-13T08:01:13Z</time>
      </trkpt>
      <trkpt lat="48.62903" lon="2.04848">
        <ele>121</ele>
        <time>2010-05-13T08:01:13Z</time>
      </trkpt>
      <trkpt lat="48.62901" lon="2.04848">
        <ele>121</ele>
        <time>2010-05-13T08:01:15Z</time>
      </trkpt>
      <trkpt lat="48.629" lon="2.04848">
        <ele>121</ele>
        <time>2010-05-13T08:01:16Z</time>
      </trkpt>
      <trkpt lat="48.62898" lon="2.04848">
        <ele>121</ele>
        <time>2010-05-13T08:01:17Z</time>
      </trkpt>
      <trkpt lat="48.62896" lon="2.04849">
        <ele>121</ele>
        <time>2010-05-13T08:01:17Z</time>
      </trkpt>
      <trkpt lat="48.62894" lon="2.0485">
        <ele>121</ele>
        <time>2010-05-13T08:01:19Z</time>
      </trkpt>
      <trkpt lat="48.62892" lon="2.0485">
        <ele>121</ele>
        <time>2010-05-13T08:01:20Z</time>
      </trkpt>
      <trkpt lat="48.6289" lon="2.04851">
        <ele>121</ele>
        <time>2010-05-13T08:01:21Z</time>
      </trkpt>
      <trkpt lat="48.62888" lon="2.04852">
        <ele>121</ele>
        <time>2010-05-13T08:01:22Z</time>
      </trkpt>
      <trkpt lat="48.62886" lon="2.04853">
        <ele>121</ele>
        <time>2010-05-13T08:01:23Z</time>
      </trkpt>
      <trkpt lat="48.62884" lon="2.04853">
        <ele>121</ele>
        <time>2010-05-13T08:01:24Z</time>
      </trkpt>
      <trkpt lat="48.62883" lon="2.04853">
        <ele>121</ele>
        <time>2010-05-13T08:01:25Z</time>
      </trkpt>
      <trkpt lat="48.62881" lon="2.04854">
        <ele>121</ele>
        <time>2010-05-13T08:01:26Z</time>
      </trkpt>
      <trkpt lat="48.62879" lon="2.04856">
        <ele>121</ele>
        <time>2010-05-13T08:01:26Z</time>
      </trkpt>
      <trkpt lat="48.62877" lon="2.04857">
        <ele>121</ele>
        <time>2010-05-13T08:01:28Z</time>
      </trkpt>
      <trkpt lat="48.62876" lon="2.04858">
        <ele>121</ele>
        <time>2010-05-13T08:01:29Z</time>
      </trkpt>
      <trkpt lat="48.62874" lon="2.04859">
        <ele>121</ele>
        <time>2010-05-13T08:01:30Z</time>
      </trkpt>
      <trkpt lat="48.62872" lon="2.04859">
        <ele>121</ele>
        <time>2010-05-13T08:01:31Z</time>
      </trkpt>
      <trkpt lat="48.6287" lon="2.04861">
        <ele>121</ele>
        <time>2010-05-13T08:01:32Z</time>
      </trkpt>
      <trkpt lat="48.62869" lon="2.04862">
        <ele>121</ele>
        <time>2010-05-13T08:01:33Z</time>
      </trkpt>
      <trkpt lat="48.62867" lon="2.04863">
        <ele>121</ele>
        <time>2010-05-13T08:01:34Z</time>
      </trkpt>
      <trkpt lat="48.62865" lon="2.04865">
        <ele>121</ele>
        <time>2010-05-13T08:01:35Z</time>
      </trkpt>
      <trkpt lat="48.62864" lon="2.04867">
        <ele>121</ele>
        <time>2010-05-13T08:01:36Z</time>
      </trkpt>
      <trkpt lat="48.62863" lon="2.04868">
        <ele>121</ele>
        <time>2010-05-13T08:01:37Z</time>
      </trkpt>
      <trkpt lat="48.62861" lon="2.04869">
        <ele>121</ele>
        <time>2010-05-13T08:01:37Z</time>
      </trkpt>
      <trkpt lat="48.6286" lon="2.04871">
        <ele>121</ele>
        <time>2010-05-13T08:01:39Z</time>
      </trkpt>
      <trkpt lat="48.62859" lon="2.04873">
        <ele>121</ele>
        <time>2010-05-13T08:01:40Z</time>
      </trkpt>
      <trkpt lat="48.62858" lon="2.04873">
        <ele>121</ele>
        <time>2010-05-13T08:01:41Z</time>
      </trkpt>
      <trkpt lat="48.62856" lon="2.04875">
        <ele>121</ele>
        <time>2010-05-13T08:01:42Z</time>
      </trkpt>
      <trkpt lat="48.62855" lon="2.04877">
        <ele>121</ele>
        <time>2010-05-13T08:01:43Z</time>
      </trkpt>
      <trkpt lat="48.62853" lon="2.04878">
        <ele>121</ele>
        <time>2010-05-13T08:01:44Z</time>
      </trkpt>
      <trkpt lat="48.62852" lon="2.0488">
        <ele>121</ele>
        <time>2010-05-13T08:01:45Z</time>
      </trkpt>
      <trkpt lat="48.62851" lon="2.04882">
        <ele>121</ele>
        <time>2010-05-13T08:01:46Z</time>
      </trkpt>
      <trkpt lat="48.62849" lon="2.04885">
        <ele>121</ele>
        <time>2010-05-13T08:01:48Z</time>
      </trkpt>
      <trkpt lat="48.62847" lon="2.04889">
        <ele>121</ele>
        <time>2010-05-13T08:01:49Z</time>
      </trkpt>
      <trkpt lat="48.62846" lon="2.0489">
        <ele>121</ele>
        <time>2010-05-13T08:01:51Z</time>
      </trkpt>
      <trkpt lat="48.62844" lon="2.04893">
        <ele>121</ele>
        <time>2010-05-13T08:01:52Z</time>
      </trkpt>
      <trkpt lat="48.62843" lon="2.04895">
        <ele>121</ele>
        <time>2010-05-13T08:01:53Z</time>
      </trkpt>
      <trkpt lat="48.62843" lon="2.04896">
        <ele>121</ele>
        <time>2010-05-13T08:01:54Z</time>
      </trkpt>
      <trkpt lat="48.62842" lon="2.04899">
        <ele>122</ele>
        <time>2010-05-13T08:01:55Z</time>
      </trkpt>
      <trkpt lat="48.62841" lon="2.04901">
        <ele>123</ele>
        <time>2010-05-13T08:01:56Z</time>
      </trkpt>
      <trkpt lat="48.6284" lon="2.04902">
        <ele>124</ele>
        <time>2010-05-13T08:01:57Z</time>
      </trkpt>
      <trkpt lat="48.6284" lon="2.04905">
        <ele>125</ele>
        <time>2010-05-13T08:01:57Z</time>
      </trkpt>
      <trkpt lat="48.6284" lon="2.04907">
        <ele>125</ele>
        <time>2010-05-13T08:01:59Z</time>
      </trkpt>
      <trkpt lat="48.62839" lon="2.0491">
        <ele>126</ele>
        <time>2010-05-13T08:02:00Z</time>
      </trkpt>
      <trkpt lat="48.62838" lon="2.04913">
        <ele>126</ele>
        <time>2010-05-13T08:02:01Z</time>
      </trkpt>
      <trkpt lat="48.62837" lon="2.04915">
        <ele>127</ele>
        <time>2010-05-13T08:02:02Z</time>
      </trkpt>
      <trkpt lat="48.62836" lon="2.04918">
        <ele>127</ele>
        <time>2010-05-13T08:02:02Z</time>
      </trkpt>
      <trkpt lat="48.62836" lon="2.04921">
        <ele>127</ele>
        <time>2010-05-13T08:02:04Z</time>
      </trkpt>
      <trkpt lat="48.62835" lon="2.04923">
        <ele>127</ele>
        <time>2010-05-13T08:02:05Z</time>
      </trkpt>
      <trkpt lat="48.62835" lon="2.04926">
        <ele>127</ele>
        <time>2010-05-13T08:02:06Z</time>
      </trkpt>
      <trkpt lat="48.62834" lon="2.04928">
        <ele>127</ele>
        <time>2010-05-13T08:02:07Z</time>
      </trkpt>
      <trkpt lat="48.62834" lon="2.04931">
        <ele>128</ele>
        <time>2010-05-13T08:02:07Z</time>
      </trkpt>
      <trkpt lat="48.62833" lon="2.04932">
        <ele>128</ele>
        <time>2010-05-13T08:02:09Z</time>
      </trkpt>
      <trkpt lat="48.62832" lon="2.04934">
        <ele>128</ele>
        <time>2010-05-13T08:02:10Z</time>
      </trkpt>
      <trkpt lat="48.62831" lon="2.04936">
        <ele>128</ele>
        <time>2010-05-13T08:02:11Z</time>
      </trkpt>
      <trkpt lat="48.6283" lon="2.04938">
        <ele>128</ele>
        <time>2010-05-13T08:02:11Z</time>
      </trkpt>
      <trkpt lat="48.62829" lon="2.04941">
        <ele>129</ele>
        <time>2010-05-13T08:02:13Z</time>
      </trkpt>
      <trkpt lat="48.62828" lon="2.04944">
        <ele>129</ele>
        <time>2010-05-13T08:02:13Z</time>
      </trkpt>
      <trkpt lat="48.62827" lon="2.04946">
        <ele>129</ele>
        <time>2010-05-13T08:02:15Z</time>
      </trkpt>
      <trkpt lat="48.62826" lon="2.04949">
        <ele>130</ele>
        <time>2010-05-13T08:02:16Z</time>
      </trkpt>
      <trkpt lat="48.62826" lon="2.04951">
        <ele>130</ele>
        <time>2010-05-13T08:02:17Z</time>
      </trkpt>
      <trkpt lat="48.62825" lon="2.04953">
        <ele>130</ele>
        <time>2010-05-13T08:02:18Z</time>
      </trkpt>
      <trkpt lat="48.62824" lon="2.04956">
        <ele>131</ele>
        <time>2010-05-13T08:02:19Z</time>
      </trkpt>
      <trkpt lat="48.62824" lon="2.04958">
        <ele>131</ele>
        <time>2010-05-13T08:02:20Z</time>
      </trkpt>
      <trkpt lat="48.62823" lon="2.0496">
        <ele>131</ele>
        <time>2010-05-13T08:02:21Z</time>
      </trkpt>
      <trkpt lat="48.62822" lon="2.04962">
        <ele>132</ele>
        <time>2010-05-13T08:02:21Z</time>
      </trkpt>
      <trkpt lat="48.62822" lon="2.04964">
        <ele>132</ele>
        <time>2010-05-13T08:02:22Z</time>
      </trkpt>
      <trkpt lat="48.62821" lon="2.04967">
        <ele>132</ele>
        <time>2010-05-13T08:02:24Z</time>
      </trkpt>
      <trkpt lat="48.62821" lon="2.04969">
        <ele>132</ele>
        <time>2010-05-13T08:02:24Z</time>
      </trkpt>
      <trkpt lat="48.62822" lon="2.04971">
        <ele>132</ele>
        <time>2010-05-13T08:02:27Z</time>
      </trkpt>
      <trkpt lat="48.62823" lon="2.04973">
        <ele>132</ele>
        <time>2010-05-13T08:02:28Z</time>
      </trkpt>
      <trkpt lat="48.62825" lon="2.04974">
        <ele>132</ele>
        <time>2010-05-13T08:02:30Z</time>
      </trkpt>
      <trkpt lat="48.62827" lon="2.04973">
        <ele>132</ele>
        <time>2010-05-13T08:02:32Z</time>
      </trkpt>
      <trkpt lat="48.62828" lon="2.04972">
        <ele>132</ele>
        <time>2010-05-13T08:02:34Z</time>
      </trkpt>
      <trkpt lat="48.62829" lon="2.04972">
        <ele>132</ele>
        <time>2010-05-13T08:02:36Z</time>
      </trkpt>
      <trkpt lat="48.62831" lon="2.04971">
        <ele>132</ele>
        <time>2010-05-13T08:02:38Z</time>
      </trkpt>
      <trkpt lat="48.62833" lon="2.04971">
        <ele>132</ele>
        <time>2010-05-13T08:02:39Z</time>
      </trkpt>
      <trkpt lat="48.62834" lon="2.04971">
        <ele>132</ele>
        <time>2010-05-13T08:02:40Z</time>
      </trkpt>
      <trkpt lat="48.62836" lon="2.04971">
        <ele>132</ele>
        <time>2010-05-13T08:02:40Z</time>
      </trkpt>
      <trkpt lat="48.62838" lon="2.04972">
        <ele>132</ele>
        <time>2010-05-13T08:02:42Z</time>
      </trkpt>
      <trkpt lat="48.6284" lon="2.04972">
        <ele>132</ele>
        <time>2010-05-13T08:02:43Z</time>
      </trkpt>
      <trkpt lat="48.62842" lon="2.04972">
        <ele>132</ele>
        <time>2010-05-13T08:02:44Z</time>
      </trkpt>
      <trkpt lat="48.62844" lon="2.04972">
        <ele>132</ele>
        <time>2010-05-13T08:02:45Z</time>
      </trkpt>
      <trkpt lat="48.62845" lon="2.04972">
        <ele>132</ele>
        <time>2010-05-13T08:02:46Z</time>
      </trkpt>
      <trkpt lat="48.62847" lon="2.04972">
        <ele>132</ele>
        <time>2010-05-13T08:02:47Z</time>
      </trkpt>
      <trkpt lat="48.62848" lon="2.04972">
        <ele>132</ele>
        <time>2010-05-13T08:02:48Z</time>
      </trkpt>
      <trkpt lat="48.6285" lon="2.04972">
        <ele>132</ele>
        <time>2010-05-13T08:02:50Z</time>
      </trkpt>
      <trkpt lat="48.62852" lon="2.04973">
        <ele>132</ele>
        <time>2010-05-13T08:02:51Z</time>
      </trkpt>
      <trkpt lat="48.62854" lon="2.04973">
        <ele>131</ele>
        <time>2010-05-13T08:02:52Z</time>
      </trkpt>
      <trkpt lat="48.62855" lon="2.04973">
        <ele>130</ele>
        <time>2010-05-13T08:02:53Z</time>
      </trkpt>
      <trkpt lat="48.62856" lon="2.04973">
        <ele>129</ele>
        <time>2010-05-13T08:02:54Z</time>
      </trkpt>
      <trkpt lat="48.62858" lon="2.04974">
        <ele>129</ele>
        <time>2010-05-13T08:02:54Z</time>
      </trkpt>
      <trkpt lat="48.6286" lon="2.04974">
        <ele>128</ele>
        <time>2010-05-13T08:02:55Z</time>
      </trkpt>
      <trkpt lat="48.62862" lon="2.04974">
        <ele>128</ele>
        <time>2010-05-13T08:02:57Z</time>
      </trkpt>
      <trkpt lat="48.62864" lon="2.04974">
        <ele>128</ele>
        <time>2010-05-13T08:02:58Z</time>
      </trkpt>
      <trkpt lat="48.62866" lon="2.04974">
        <ele>128</ele>
        <time>2010-05-13T08:02:59Z</time>
      </trkpt>
      <trkpt lat="48.62868" lon="2.04974">
        <ele>128</ele>
        <time>2010-05-13T08:02:59Z</time>
      </trkpt>
      <trkpt lat="48.62869" lon="2.04973">
        <ele>128</ele>
        <time>2010-05-13T08:03:01Z</time>
      </trkpt>
      <trkpt lat="48.6287" lon="2.04973">
        <ele>128</ele>
        <time>2010-05-13T08:03:02Z</time>
      </trkpt>
      <trkpt lat="48.62872" lon="2.04974">
        <ele>128</ele>
        <time>2010-05-13T08:03:03Z</time>
      </trkpt>
      <trkpt lat="48.62874" lon="2.04974">
        <ele>128</ele>
        <time>2010-05-13T08:03:03Z</time>
      </trkpt>
      <trkpt lat="48.62876" lon="2.04975">
        <ele>128</ele>
        <time>2010-05-13T08:03:05Z</time>
      </trkpt>
      <trkpt lat="48.62877" lon="2.04976">
        <ele>128</ele>
        <time>2010-05-13T08:03:06Z</time>
      </trkpt>
      <trkpt lat="48.62878" lon="2.04976">
        <ele>128</ele>
        <time>2010-05-13T08:03:07Z</time>
      </trkpt>
      <trkpt lat="48.6288" lon="2.04977">
        <ele>128</ele>
        <time>2010-05-13T08:03:07Z</time>
      </trkpt>
      <trkpt lat="48.62881" lon="2.04977">
        <ele>128</ele>
        <time>2010-05-13T08:03:08Z</time>
      </trkpt>
      <trkpt lat="48.62884" lon="2.04978">
        <ele>128</ele>
        <time>2010-05-13T08:03:11Z</time>
      </trkpt>
      <trkpt lat="48.62885" lon="2.04979">
        <ele>128</ele>
        <time>2010-05-13T08:03:12Z</time>
      </trkpt>
      <trkpt lat="48.62888" lon="2.04979">
        <ele>128</ele>
        <time>2010-05-13T08:03:14Z</time>
      </trkpt>
      <trkpt lat="48.62889" lon="2.04978">
        <ele>128</ele>
        <time>2010-05-13T08:03:15Z</time>
      </trkpt>
      <trkpt lat="48.62892" lon="2.04979">
        <ele>128</ele>
        <time>2010-05-13T08:03:16Z</time>
      </trkpt>
      <trkpt lat="48.62893" lon="2.0498">
        <ele>128</ele>
        <time>2010-05-13T08:03:17Z</time>
      </trkpt>
      <trkpt lat="48.62895" lon="2.0498">
        <ele>128</ele>
        <time>2010-05-13T08:03:18Z</time>
      </trkpt>
      <trkpt lat="48.62896" lon="2.04981">
        <ele>128</ele>
        <time>2010-05-13T08:03:19Z</time>
      </trkpt>
      <trkpt lat="48.62897" lon="2.04981">
        <ele>128</ele>
        <time>2010-05-13T08:03:20Z</time>
      </trkpt>
      <trkpt lat="48.62899" lon="2.04983">
        <ele>128</ele>
        <time>2010-05-13T08:03:22Z</time>
      </trkpt>
      <trkpt lat="48.62901" lon="2.04984">
        <ele>128</ele>
        <time>2010-05-13T08:03:22Z</time>
      </trkpt>
      <trkpt lat="48.62902" lon="2.04985">
        <ele>128</ele>
        <time>2010-05-13T08:03:24Z</time>
      </trkpt>
      <trkpt lat="48.62905" lon="2.04986">
        <ele>128</ele>
        <time>2010-05-13T08:03:25Z</time>
      </trkpt>
      <trkpt lat="48.62907" lon="2.04986">
        <ele>128</ele>
        <time>2010-05-13T08:03:26Z</time>
      </trkpt>
      <trkpt lat="48.62908" lon="2.04986">
        <ele>129</ele>
        <time>2010-05-13T08:03:27Z</time>
      </trkpt>
      <trkpt lat="48.6291" lon="2.04987">
        <ele>130</ele>
        <time>2010-05-13T08:03:28Z</time>
      </trkpt>
      <trkpt lat="48.62911" lon="2.04988">
        <ele>131</ele>
        <time>2010-05-13T08:03:29Z</time>
      </trkpt>
      <trkpt lat="48.62913" lon="2.04988">
        <ele>132</ele>
        <time>2010-05-13T08:03:30Z</time>
      </trkpt>
      <trkpt lat="48.62915" lon="2.0499">
        <ele>132</ele>
        <time>2010-05-13T08:03:31Z</time>
      </trkpt>
      <trkpt lat="48.62916" lon="2.0499">
        <ele>132</ele>
        <time>2010-05-13T08:03:34Z</time>
      </trkpt>
      <trkpt lat="48.62918" lon="2.04991">
        <ele>132</ele>
        <time>2010-05-13T08:03:35Z</time>
      </trkpt>
      <trkpt lat="48.6292" lon="2.04992">
        <ele>132</ele>
        <time>2010-05-13T08:03:36Z</time>
      </trkpt>
      <trkpt lat="48.62922" lon="2.04993">
        <ele>132</ele>
        <time>2010-05-13T08:03:37Z</time>
      </trkpt>
      <trkpt lat="48.62923" lon="2.04993">
        <ele>132</ele>
        <time>2010-05-13T08:03:38Z</time>
      </trkpt>
      <trkpt lat="48.62924" lon="2.04993">
        <ele>132</ele>
        <time>2010-05-13T08:03:39Z</time>
      </trkpt>
      <trkpt lat="48.62926" lon="2.04994">
        <ele>132</ele>
        <time>2010-05-13T08:03:40Z</time>
      </trkpt>
      <trkpt lat="48.62927" lon="2.04995">
        <ele>132</ele>
        <time>2010-05-13T08:03:41Z</time>
      </trkpt>
      <trkpt lat="48.62929" lon="2.04995">
        <ele>132</ele>
        <time>2010-05-13T08:03:42Z</time>
      </trkpt>
      <trkpt lat="48.6293" lon="2.04996">
        <ele>132</ele>
        <time>2010-05-13T08:03:43Z</time>
      </trkpt>
      <trkpt lat="48.62932" lon="2.04996">
        <ele>132</ele>
        <time>2010-05-13T08:03:44Z</time>
      </trkpt>
      <trkpt lat="48.62934" lon="2.04997">
        <ele>132</ele>
        <time>2010-05-13T08:03:46Z</time>
      </trkpt>
      <trkpt lat="48.62936" lon="2.04997">
        <ele>132</ele>
        <time>2010-05-13T08:03:47Z</time>
      </trkpt>
      <trkpt lat="48.62938" lon="2.04998">
        <ele>132</ele>
        <time>2010-05-13T08:03:48Z</time>
      </trkpt>
      <trkpt lat="48.62939" lon="2.04999">
        <ele>132</ele>
        <time>2010-05-13T08:03:49Z</time>
      </trkpt>
      <trkpt lat="48.62941" lon="2.05">
        <ele>132</ele>
        <time>2010-05-13T08:03:50Z</time>
      </trkpt>
      <trkpt lat="48.62943" lon="2.05001">
        <ele>132</ele>
        <time>2010-05-13T08:03:51Z</time>
      </trkpt>
      <trkpt lat="48.62945" lon="2.05002">
        <ele>132</ele>
        <time>2010-05-13T08:03:52Z</time>
      </trkpt>
      <trkpt lat="48.62946" lon="2.05003">
        <ele>132</ele>
        <time>2010-05-13T08:03:53Z</time>
      </trkpt>
      <trkpt lat="48.62948" lon="2.05003">
        <ele>132</ele>
        <time>2010-05-13T08:03:54Z</time>
      </trkpt>
      <trkpt lat="48.6295" lon="2.05003">
        <ele>132</ele>
        <time>2010-05-13T08:03:55Z</time>
      </trkpt>
      <trkpt lat="48.62953" lon="2.05004">
        <ele>131</ele>
        <time>2010-05-13T08:03:56Z</time>
      </trkpt>
      <trkpt lat="48.62956" lon="2.05005">
        <ele>130</ele>
        <time>2010-05-13T08:03:57Z</time>
      </trkpt>
      <trkpt lat="48.62958" lon="2.05005">
        <ele>129</ele>
        <time>2010-05-13T08:03:58Z</time>
      </trkpt>
      <trkpt lat="48.6296" lon="2.05006">
        <ele>129</ele>
        <time>2010-05-13T08:03:59Z</time>
      </trkpt>
      <trkpt lat="48.62963" lon="2.05006">
        <ele>129</ele>
        <time>2010-05-13T08:04:00Z</time>
      </trkpt>
      <trkpt lat="48.62965" lon="2.05006">
        <ele>129</ele>
        <time>2010-05-13T08:04:00Z</time>
      </trkpt>
      <trkpt lat="48.62968" lon="2.05006">
        <ele>129</ele>
        <time>2010-05-13T08:04:02Z</time>
      </trkpt>
      <trkpt lat="48.6297" lon="2.05007">
        <ele>129</ele>
        <time>2010-05-13T08:04:02Z</time>
      </trkpt>
      <trkpt lat="48.62972" lon="2.05006">
        <ele>129</ele>
        <time>2010-05-13T08:04:04Z</time>
      </trkpt>
      <trkpt lat="48.62974" lon="2.05006">
        <ele>129</ele>
        <time>2010-05-13T08:04:05Z</time>
      </trkpt>
      <trkpt lat="48.62977" lon="2.05005">
        <ele>129</ele>
        <time>2010-05-13T08:04:06Z</time>
      </trkpt>
      <trkpt lat="48.62978" lon="2.05005">
        <ele>129</ele>
        <time>2010-05-13T08:04:07Z</time>
      </trkpt>
      <trkpt lat="48.6298" lon="2.05005">
        <ele>130</ele>
        <time>2010-05-13T08:04:08Z</time>
      </trkpt>
      <trkpt lat="48.62982" lon="2.05005">
        <ele>131</ele>
        <time>2010-05-13T08:04:09Z</time>
      </trkpt>
      <trkpt lat="48.62984" lon="2.05005">
        <ele>131</ele>
        <time>2010-05-13T08:04:10Z</time>
      </trkpt>
      <trkpt lat="48.62986" lon="2.05005">
        <ele>132</ele>
        <time>2010-05-13T08:04:11Z</time>
      </trkpt>
      <trkpt lat="48.62988" lon="2.05005">
        <ele>132</ele>
        <time>2010-05-13T08:04:12Z</time>
      </trkpt>
      <trkpt lat="48.6299" lon="2.05005">
        <ele>132</ele>
        <time>2010-05-13T08:04:12Z</time>
      </trkpt>
      <trkpt lat="48.62991" lon="2.05006">
        <ele>132</ele>
        <time>2010-05-13T08:04:13Z</time>
      </trkpt>
      <trkpt lat="48.62994" lon="2.05007">
        <ele>133</ele>
        <time>2010-05-13T08:04:16Z</time>
      </trkpt>
      <trkpt lat="48.62996" lon="2.05007">
        <ele>133</ele>
        <time>2010-05-13T08:04:17Z</time>
      </trkpt>
      <trkpt lat="48.62997" lon="2.05008">
        <ele>134</ele>
        <time>2010-05-13T08:04:18Z</time>
      </trkpt>
      <trkpt lat="48.62999" lon="2.05008">
        <ele>134</ele>
        <time>2010-05-13T08:04:18Z</time>
      </trkpt>
      <trkpt lat="48.63" lon="2.05008">
        <ele>135</ele>
        <time>2010-05-13T08:04:19Z</time>
      </trkpt>
      <trkpt lat="48.63002" lon="2.05009">
        <ele>136</ele>
        <time>2010-05-13T08:04:21Z</time>
      </trkpt>
      <trkpt lat="48.63004" lon="2.0501">
        <ele>136</ele>
        <time>2010-05-13T08:04:22Z</time>
      </trkpt>
      <trkpt lat="48.63006" lon="2.05011">
        <ele>136</ele>
        <time>2010-05-13T08:04:24Z</time>
      </trkpt>
      <trkpt lat="48.63007" lon="2.05013">
        <ele>136</ele>
        <time>2010-05-13T08:04:25Z</time>
      </trkpt>
      <trkpt lat="48.63009" lon="2.05013">
        <ele>136</ele>
        <time>2010-05-13T08:04:26Z</time>
      </trkpt>
      <trkpt lat="48.63009" lon="2.05015">
        <ele>136</ele>
        <time>2010-05-13T08:04:27Z</time>
      </trkpt>
      <trkpt lat="48.63011" lon="2.05016">
        <ele>136</ele>
        <time>2010-05-13T08:04:28Z</time>
      </trkpt>
      <trkpt lat="48.63013" lon="2.05019">
        <ele>136</ele>
        <time>2010-05-13T08:04:30Z</time>
      </trkpt>
      <trkpt lat="48.63015" lon="2.0502">
        <ele>136</ele>
        <time>2010-05-13T08:04:31Z</time>
      </trkpt>
      <trkpt lat="48.63017" lon="2.05022">
        <ele>136</ele>
        <time>2010-05-13T08:04:32Z</time>
      </trkpt>
      <trkpt lat="48.63019" lon="2.05023">
        <ele>136</ele>
        <time>2010-05-13T08:04:33Z</time>
      </trkpt>
      <trkpt lat="48.63021" lon="2.05023">
        <ele>136</ele>
        <time>2010-05-13T08:04:34Z</time>
      </trkpt>
      <trkpt lat="48.63022" lon="2.05026">
        <ele>136</ele>
        <time>2010-05-13T08:04:36Z</time>
      </trkpt>
      <trkpt lat="48.63024" lon="2.05027">
        <ele>136</ele>
        <time>2010-05-13T08:04:37Z</time>
      </trkpt>
      <trkpt lat="48.63025" lon="2.05029">
        <ele>136</ele>
        <time>2010-05-13T08:04:38Z</time>
      </trkpt>
      <trkpt lat="48.63025" lon="2.05031">
        <ele>136</ele>
        <time>2010-05-13T08:04:39Z</time>
      </trkpt>
      <trkpt lat="48.63026" lon="2.05032">
        <ele>136</ele>
        <time>2010-05-13T08:04:40Z</time>
      </trkpt>
      <trkpt lat="48.63027" lon="2.05036">
        <ele>136</ele>
        <time>2010-05-13T08:04:44Z</time>
      </trkpt>
      <trkpt lat="48.63029" lon="2.05041">
        <ele>136</ele>
        <time>2010-05-13T08:04:45Z</time>
      </trkpt>
      <trkpt lat="48.63031" lon="2.05044">
        <ele>136</ele>
        <time>2010-05-13T08:04:46Z</time>
      </trkpt>
      <trkpt lat="48.63032" lon="2.05046">
        <ele>135</ele>
        <time>2010-05-13T08:04:47Z</time>
      </trkpt>
      <trkpt lat="48.63032" lon="2.05048">
        <ele>135</ele>
        <time>2010-05-13T08:04:48Z</time>
      </trkpt>
      <trkpt lat="48.63032" lon="2.0505">
        <ele>134</ele>
        <time>2010-05-13T08:04:49Z</time>
      </trkpt>
      <trkpt lat="48.63034" lon="2.05051">
        <ele>134</ele>
        <time>2010-05-13T08:04:50Z</time>
      </trkpt>
      <trkpt lat="48.63036" lon="2.05052">
        <ele>133</ele>
        <time>2010-05-13T08:04:51Z</time>
      </trkpt>
      <trkpt lat="48.63038" lon="2.05053">
        <ele>133</ele>
        <time>2010-05-13T08:04:52Z</time>
      </trkpt>
      <trkpt lat="48.6304" lon="2.05054">
        <ele>133</ele>
        <time>2010-05-13T08:04:53Z</time>
      </trkpt>
      <trkpt lat="48.63042" lon="2.05055">
        <ele>132</ele>
        <time>2010-05-13T08:04:54Z</time>
      </trkpt>
      <trkpt lat="48.63043" lon="2.05056">
        <ele>132</ele>
        <time>2010-05-13T08:04:55Z</time>
      </trkpt>
      <trkpt lat="48.63045" lon="2.05057">
        <ele>131</ele>
        <time>2010-05-13T08:04:56Z</time>
      </trkpt>
      <trkpt lat="48.63046" lon="2.05058">
        <ele>130</ele>
        <time>2010-05-13T08:04:57Z</time>
      </trkpt>
      <trkpt lat="48.63047" lon="2.05059">
        <ele>129</ele>
        <time>2010-05-13T08:04:58Z</time>
      </trkpt>
      <trkpt lat="48.63048" lon="2.0506">
        <ele>129</ele>
        <time>2010-05-13T08:04:59Z</time>
      </trkpt>
      <trkpt lat="48.6305" lon="2.05062">
        <ele>127</ele>
        <time>2010-05-13T08:05:02Z</time>
      </trkpt>
      <trkpt lat="48.63051" lon="2.05063">
        <ele>127</ele>
        <time>2010-05-13T08:05:03Z</time>
      </trkpt>
      <trkpt lat="48.63057" lon="2.0507">
        <ele>127</ele>
        <time>2010-05-13T08:05:06Z</time>
      </trkpt>
      <trkpt lat="48.63061" lon="2.05074">
        <ele>126</ele>
        <time>2010-05-13T08:05:08Z</time>
      </trkpt>
      <trkpt lat="48.63064" lon="2.05075">
        <ele>126</ele>
        <time>2010-05-13T08:05:09Z</time>
      </trkpt>
      <trkpt lat="48.63068" lon="2.05073">
        <ele>125</ele>
        <time>2010-05-13T08:05:09Z</time>
      </trkpt>
      <trkpt lat="48.6307" lon="2.05074">
        <ele>125</ele>
        <time>2010-05-13T08:05:11Z</time>
      </trkpt>
      <trkpt lat="48.63075" lon="2.05078">
        <ele>124</ele>
        <time>2010-05-13T08:05:14Z</time>
      </trkpt>
      <trkpt lat="48.63079" lon="2.05079">
        <ele>124</ele>
        <time>2010-05-13T08:05:15Z</time>
      </trkpt>
      <trkpt lat="48.6308" lon="2.0508">
        <ele>124</ele>
        <time>2010-05-13T08:05:16Z</time>
      </trkpt>
      <trkpt lat="48.63083" lon="2.05081">
        <ele>124</ele>
        <time>2010-05-13T08:05:17Z</time>
      </trkpt>
      <trkpt lat="48.63086" lon="2.05082">
        <ele>124</ele>
        <time>2010-05-13T08:05:18Z</time>
      </trkpt>
      <trkpt lat="48.63088" lon="2.05083">
        <ele>124</ele>
        <time>2010-05-13T08:05:19Z</time>
      </trkpt>
      <trkpt lat="48.63089" lon="2.05085">
        <ele>124</ele>
        <time>2010-05-13T08:05:20Z</time>
      </trkpt>
      <trkpt lat="48.63092" lon="2.05087">
        <ele>124</ele>
        <time>2010-05-13T08:05:21Z</time>
      </trkpt>
      <trkpt lat="48.63093" lon="2.05087">
        <ele>125</ele>
        <time>2010-05-13T08:05:23Z</time>
      </trkpt>
      <trkpt lat="48.63095" lon="2.05087">
        <ele>125</ele>
        <time>2010-05-13T08:05:24Z</time>
      </trkpt>
      <trkpt lat="48.63096" lon="2.05087">
        <ele>125</ele>
        <time>2010-05-13T08:05:25Z</time>
      </trkpt>
      <trkpt lat="48.63098" lon="2.05088">
        <ele>125</ele>
        <time>2010-05-13T08:05:26Z</time>
      </trkpt>
      <trkpt lat="48.63099" lon="2.05088">
        <ele>125</ele>
        <time>2010-05-13T08:05:26Z</time>
      </trkpt>
      <trkpt lat="48.63103" lon="2.05088">
        <ele>125</ele>
        <time>2010-05-13T08:05:29Z</time>
      </trkpt>
      <trkpt lat="48.63105" lon="2.05088">
        <ele>124</ele>
        <time>2010-05-13T08:05:31Z</time>
      </trkpt>
      <trkpt lat="48.63108" lon="2.05088">
        <ele>124</ele>
        <time>2010-05-13T08:05:32Z</time>
      </trkpt>
      <trkpt lat="48.6311" lon="2.05088">
        <ele>124</ele>
        <time>2010-05-13T08:05:33Z</time>
      </trkpt>
      <trkpt lat="48.63112" lon="2.05087">
        <ele>123</ele>
        <time>2010-05-13T08:05:34Z</time>
      </trkpt>
      <trkpt lat="48.63113" lon="2.05085">
        <ele>122</ele>
        <time>2010-05-13T08:05:36Z</time>
      </trkpt>
      <trkpt lat="48.63115" lon="2.05085">
        <ele>122</ele>
        <time>2010-05-13T08:05:37Z</time>
      </trkpt>
      <trkpt lat="48.63118" lon="2.05085">
        <ele>122</ele>
        <time>2010-05-13T08:05:38Z</time>
      </trkpt>
      <trkpt lat="48.63119" lon="2.05084">
        <ele>122</ele>
        <time>2010-05-13T08:05:39Z</time>
      </trkpt>
      <trkpt lat="48.63121" lon="2.05083">
        <ele>121</ele>
        <time>2010-05-13T08:05:40Z</time>
      </trkpt>
      <trkpt lat="48.63123" lon="2.05083">
        <ele>121</ele>
        <time>2010-05-13T08:05:41Z</time>
      </trkpt>
      <trkpt lat="48.63125" lon="2.05083">
        <ele>121</ele>
        <time>2010-05-13T08:05:43Z</time>
      </trkpt>
      <trkpt lat="48.63126" lon="2.05081">
        <ele>121</ele>
        <time>2010-05-13T08:05:46Z</time>
      </trkpt>
      <trkpt lat="48.63126" lon="2.05083">
        <ele>121</ele>
        <time>2010-05-13T08:05:48Z</time>
      </trkpt>
      <trkpt lat="48.63126" lon="2.05085">
        <ele>120</ele>
        <time>2010-05-13T08:05:48Z</time>
      </trkpt>
      <trkpt lat="48.63127" lon="2.05087">
        <ele>120</ele>
        <time>2010-05-13T08:05:50Z</time>
      </trkpt>
      <trkpt lat="48.63127" lon="2.05089">
        <ele>120</ele>
        <time>2010-05-13T08:05:50Z</time>
      </trkpt>
      <trkpt lat="48.63127" lon="2.05092">
        <ele>120</ele>
        <time>2010-05-13T08:05:52Z</time>
      </trkpt>
      <trkpt lat="48.63129" lon="2.05096">
        <ele>120</ele>
        <time>2010-05-13T08:05:53Z</time>
      </trkpt>
      <trkpt lat="48.6313" lon="2.05098">
        <ele>120</ele>
        <time>2010-05-13T08:05:53Z</time>
      </trkpt>
      <trkpt lat="48.63129" lon="2.05102">
        <ele>120</ele>
        <time>2010-05-13T08:05:54Z</time>
      </trkpt>
      <trkpt lat="48.63129" lon="2.05106">
        <ele>121</ele>
        <time>2010-05-13T08:05:56Z</time>
      </trkpt>
      <trkpt lat="48.6313" lon="2.05109">
        <ele>122</ele>
        <time>2010-05-13T08:05:56Z</time>
      </trkpt>
      <trkpt lat="48.6313" lon="2.05112">
        <ele>123</ele>
        <time>2010-05-13T08:05:58Z</time>
      </trkpt>
      <trkpt lat="48.63131" lon="2.05115">
        <ele>124</ele>
        <time>2010-05-13T08:05:59Z</time>
      </trkpt>
      <trkpt lat="48.63131" lon="2.05118">
        <ele>125</ele>
        <time>2010-05-13T08:06:00Z</time>
      </trkpt>
      <trkpt lat="48.63132" lon="2.05121">
        <ele>126</ele>
        <time>2010-05-13T08:06:00Z</time>
      </trkpt>
      <trkpt lat="48.63132" lon="2.05123">
        <ele>127</ele>
        <time>2010-05-13T08:06:02Z</time>
      </trkpt>
      <trkpt lat="48.63132" lon="2.05126">
        <ele>128</ele>
        <time>2010-05-13T08:06:03Z</time>
      </trkpt>
      <trkpt lat="48.63132" lon="2.05128">
        <ele>129</ele>
        <time>2010-05-13T08:06:04Z</time>
      </trkpt>
      <trkpt lat="48.63133" lon="2.05131">
        <ele>130</ele>
        <time>2010-05-13T08:06:04Z</time>
      </trkpt>
      <trkpt lat="48.63133" lon="2.05134">
        <ele>130</ele>
        <time>2010-05-13T08:06:06Z</time>
      </trkpt>
      <trkpt lat="48.63133" lon="2.05136">
        <ele>131</ele>
        <time>2010-05-13T08:06:07Z</time>
      </trkpt>
      <trkpt lat="48.63133" lon="2.05138">
        <ele>131</ele>
        <time>2010-05-13T08:06:08Z</time>
      </trkpt>
      <trkpt lat="48.63134" lon="2.05141">
        <ele>131</ele>
        <time>2010-05-13T08:06:08Z</time>
      </trkpt>
      <trkpt lat="48.63134" lon="2.05143">
        <ele>131</ele>
        <time>2010-05-13T08:06:10Z</time>
      </trkpt>
      <trkpt lat="48.63134" lon="2.05145">
        <ele>132</ele>
        <time>2010-05-13T08:06:11Z</time>
      </trkpt>
      <trkpt lat="48.63134" lon="2.05148">
        <ele>132</ele>
        <time>2010-05-13T08:06:12Z</time>
      </trkpt>
      <trkpt lat="48.63135" lon="2.05151">
        <ele>132</ele>
        <time>2010-05-13T08:06:13Z</time>
      </trkpt>
      <trkpt lat="48.63135" lon="2.05155">
        <ele>132</ele>
        <time>2010-05-13T08:06:14Z</time>
      </trkpt>
      <trkpt lat="48.63135" lon="2.05159">
        <ele>132</ele>
        <time>2010-05-13T08:06:15Z</time>
      </trkpt>
      <trkpt lat="48.63135" lon="2.05163">
        <ele>132</ele>
        <time>2010-05-13T08:06:16Z</time>
      </trkpt>
      <trkpt lat="48.63135" lon="2.05165">
        <ele>132</ele>
        <time>2010-05-13T08:06:16Z</time>
      </trkpt>
      <trkpt lat="48.63135" lon="2.05168">
        <ele>133</ele>
        <time>2010-05-13T08:06:17Z</time>
      </trkpt>
      <trkpt lat="48.63135" lon="2.05171">
        <ele>133</ele>
        <time>2010-05-13T08:06:18Z</time>
      </trkpt>
      <trkpt lat="48.63135" lon="2.05173">
        <ele>134</ele>
        <time>2010-05-13T08:06:20Z</time>
      </trkpt>
      <trkpt lat="48.63135" lon="2.05175">
        <ele>134</ele>
        <time>2010-05-13T08:06:20Z</time>
      </trkpt>
      <trkpt lat="48.63133" lon="2.0518">
        <ele>134</ele>
        <time>2010-05-13T08:06:21Z</time>
      </trkpt>
      <trkpt lat="48.63132" lon="2.05184">
        <ele>134</ele>
        <time>2010-05-13T08:06:23Z</time>
      </trkpt>
      <trkpt lat="48.63134" lon="2.05187">
        <ele>135</ele>
        <time>2010-05-13T08:06:25Z</time>
      </trkpt>
      <trkpt lat="48.63136" lon="2.05188">
        <ele>135</ele>
        <time>2010-05-13T08:06:26Z</time>
      </trkpt>
      <trkpt lat="48.63139" lon="2.05187">
        <ele>135</ele>
        <time>2010-05-13T08:06:28Z</time>
      </trkpt>
      <trkpt lat="48.63141" lon="2.05184">
        <ele>135</ele>
        <time>2010-05-13T08:06:29Z</time>
      </trkpt>
      <trkpt lat="48.63142" lon="2.05181">
        <ele>135</ele>
        <time>2010-05-13T08:06:30Z</time>
      </trkpt>
      <trkpt lat="48.63143" lon="2.05177">
        <ele>135</ele>
        <time>2010-05-13T08:06:30Z</time>
      </trkpt>
      <trkpt lat="48.63143" lon="2.05175">
        <ele>135</ele>
        <time>2010-05-13T08:06:31Z</time>
      </trkpt>
      <trkpt lat="48.63143" lon="2.05171">
        <ele>134</ele>
        <time>2010-05-13T08:06:33Z</time>
      </trkpt>
      <trkpt lat="48.63143" lon="2.05168">
        <ele>133</ele>
        <time>2010-05-13T08:06:34Z</time>
      </trkpt>
      <trkpt lat="48.63143" lon="2.05166">
        <ele>132</ele>
        <time>2010-05-13T08:06:35Z</time>
      </trkpt>
      <trkpt lat="48.63144" lon="2.05164">
        <ele>131</ele>
        <time>2010-05-13T08:06:36Z</time>
      </trkpt>
      <trkpt lat="48.63144" lon="2.05162">
        <ele>129</ele>
        <time>2010-05-13T08:06:37Z</time>
      </trkpt>
      <trkpt lat="48.63143" lon="2.0516">
        <ele>128</ele>
        <time>2010-05-13T08:06:38Z</time>
      </trkpt>
      <trkpt lat="48.63142" lon="2.05156">
        <ele>125</ele>
        <time>2010-05-13T08:06:40Z</time>
      </trkpt>
      <trkpt lat="48.63143" lon="2.05154">
        <ele>124</ele>
        <time>2010-05-13T08:06:40Z</time>
      </trkpt>
      <trkpt lat="48.63144" lon="2.05151">
        <ele>123</ele>
        <time>2010-05-13T08:06:42Z</time>
      </trkpt>
      <trkpt lat="48.63144" lon="2.05149">
        <ele>122</ele>
        <time>2010-05-13T08:06:43Z</time>
      </trkpt>
      <trkpt lat="48.63144" lon="2.05147">
        <ele>121</ele>
        <time>2010-05-13T08:06:44Z</time>
      </trkpt>
      <trkpt lat="48.63144" lon="2.05145">
        <ele>119</ele>
        <time>2010-05-13T08:06:46Z</time>
      </trkpt>
      <trkpt lat="48.63144" lon="2.05143">
        <ele>118</ele>
        <time>2010-05-13T08:06:47Z</time>
      </trkpt>
      <trkpt lat="48.63144" lon="2.05142">
        <ele>117</ele>
        <time>2010-05-13T08:06:48Z</time>
      </trkpt>
      <trkpt lat="48.63144" lon="2.05139">
        <ele>116</ele>
        <time>2010-05-13T08:06:49Z</time>
      </trkpt>
      <trkpt lat="48.63144" lon="2.05137">
        <ele>114</ele>
        <time>2010-05-13T08:06:51Z</time>
      </trkpt>
      <trkpt lat="48.63143" lon="2.05135">
        <ele>112</ele>
        <time>2010-05-13T08:06:53Z</time>
      </trkpt>
      <trkpt lat="48.63142" lon="2.05134">
        <ele>108</ele>
        <time>2010-05-13T08:06:57Z</time>
      </trkpt>
      <trkpt lat="48.63141" lon="2.05135">
        <ele>103</ele>
        <time>2010-05-13T08:07:01Z</time>
      </trkpt>
      <trkpt lat="48.6314" lon="2.05136">
        <ele>101</ele>
        <time>2010-05-13T08:07:04Z</time>
      </trkpt>
      <trkpt lat="48.63139" lon="2.05134">
        <ele>98</ele>
        <time>2010-05-13T08:07:07Z</time>
      </trkpt>
      <trkpt lat="48.63139" lon="2.05131">
        <ele>98</ele>
        <time>2010-05-13T08:07:07Z</time>
      </trkpt>
      <trkpt lat="48.63139" lon="2.05129">
        <ele>98</ele>
        <time>2010-05-13T08:07:09Z</time>
      </trkpt>
      <trkpt lat="48.63138" lon="2.05127">
        <ele>98</ele>
        <time>2010-05-13T08:07:10Z</time>
      </trkpt>
      <trkpt lat="48.63138" lon="2.05125">
        <ele>98</ele>
        <time>2010-05-13T08:07:11Z</time>
      </trkpt>
      <trkpt lat="48.63137" lon="2.05123">
        <ele>101</ele>
        <time>2010-05-13T08:07:14Z</time>
      </trkpt>
      <trkpt lat="48.63136" lon="2.05122">
        <ele>104</ele>
        <time>2010-05-13T08:07:17Z</time>
      </trkpt>
      <trkpt lat="48.63134" lon="2.05122">
        <ele>107</ele>
        <time>2010-05-13T08:07:21Z</time>
      </trkpt>
      <trkpt lat="48.63133" lon="2.05122">
        <ele>110</ele>
        <time>2010-05-13T08:07:23Z</time>
      </trkpt>
      <trkpt lat="48.63133" lon="2.05124">
        <ele>112</ele>
        <time>2010-05-13T08:07:26Z</time>
      </trkpt>
      <trkpt lat="48.63132" lon="2.05125">
        <ele>113</ele>
        <time>2010-05-13T08:07:26Z</time>
      </trkpt>
      <trkpt lat="48.63134" lon="2.05122">
        <ele>115</ele>
        <time>2010-05-13T08:07:31Z</time>
      </trkpt>
      <trkpt lat="48.63135" lon="2.0512">
        <ele>115</ele>
        <time>2010-05-13T08:07:32Z</time>
      </trkpt>
      <trkpt lat="48.63136" lon="2.05119">
        <ele>115</ele>
        <time>2010-05-13T08:07:33Z</time>
      </trkpt>
      <trkpt lat="48.63137" lon="2.05117">
        <ele>115</ele>
        <time>2010-05-13T08:07:34Z</time>
      </trkpt>
      <trkpt lat="48.63138" lon="2.05115">
        <ele>115</ele>
        <time>2010-05-13T08:07:35Z</time>
      </trkpt>
      <trkpt lat="48.63138" lon="2.05109">
        <ele>115</ele>
        <time>2010-05-13T08:07:37Z</time>
      </trkpt>
      <trkpt lat="48.63138" lon="2.05106">
        <ele>114</ele>
        <time>2010-05-13T08:07:39Z</time>
      </trkpt>
      <trkpt lat="48.63139" lon="2.05103">
        <ele>113</ele>
        <time>2010-05-13T08:07:40Z</time>
      </trkpt>
      <trkpt lat="48.63139" lon="2.05099">
        <ele>112</ele>
        <time>2010-05-13T08:07:41Z</time>
      </trkpt>
      <trkpt lat="48.63139" lon="2.05094">
        <ele>111</ele>
        <time>2010-05-13T08:07:42Z</time>
      </trkpt>
      <trkpt lat="48.63139" lon="2.05089">
        <ele>110</ele>
        <time>2010-05-13T08:07:43Z</time>
      </trkpt>
      <trkpt lat="48.63139" lon="2.05084">
        <ele>109</ele>
        <time>2010-05-13T08:07:44Z</time>
      </trkpt>
      <trkpt lat="48.63138" lon="2.05079">
        <ele>109</ele>
        <time>2010-05-13T08:07:45Z</time>
      </trkpt>
      <trkpt lat="48.63138" lon="2.05076">
        <ele>109</ele>
        <time>2010-05-13T08:07:46Z</time>
      </trkpt>
      <trkpt lat="48.63138" lon="2.05073">
        <ele>109</ele>
        <time>2010-05-13T08:07:47Z</time>
      </trkpt>
      <trkpt lat="48.6314" lon="2.0507">
        <ele>109</ele>
        <time>2010-05-13T08:07:48Z</time>
      </trkpt>
      <trkpt lat="48.63141" lon="2.05069">
        <ele>109</ele>
        <time>2010-05-13T08:07:49Z</time>
      </trkpt>
      <trkpt lat="48.63143" lon="2.05067">
        <ele>109</ele>
        <time>2010-05-13T08:07:50Z</time>
      </trkpt>
      <trkpt lat="48.63145" lon="2.05066">
        <ele>109</ele>
        <time>2010-05-13T08:07:51Z</time>
      </trkpt>
      <trkpt lat="48.63146" lon="2.05065">
        <ele>109</ele>
        <time>2010-05-13T08:07:52Z</time>
      </trkpt>
      <trkpt lat="48.63148" lon="2.05063">
        <ele>109</ele>
        <time>2010-05-13T08:07:53Z</time>
      </trkpt>
      <trkpt lat="48.6315" lon="2.05063">
        <ele>109</ele>
        <time>2010-05-13T08:07:54Z</time>
      </trkpt>
      <trkpt lat="48.63152" lon="2.05061">
        <ele>109</ele>
        <time>2010-05-13T08:07:56Z</time>
      </trkpt>
      <trkpt lat="48.63155" lon="2.05058">
        <ele>111</ele>
        <time>2010-05-13T08:07:59Z</time>
      </trkpt>
      <trkpt lat="48.63156" lon="2.05058">
        <ele>112</ele>
        <time>2010-05-13T08:08:00Z</time>
      </trkpt>
      <trkpt lat="48.63159" lon="2.05056">
        <ele>113</ele>
        <time>2010-05-13T08:08:02Z</time>
      </trkpt>
      <trkpt lat="48.63161" lon="2.05056">
        <ele>113</ele>
        <time>2010-05-13T08:08:02Z</time>
      </trkpt>
      <trkpt lat="48.63163" lon="2.05054">
        <ele>113</ele>
        <time>2010-05-13T08:08:05Z</time>
      </trkpt>
      <trkpt lat="48.63165" lon="2.05053">
        <ele>113</ele>
        <time>2010-05-13T08:08:06Z</time>
      </trkpt>
      <trkpt lat="48.63166" lon="2.05054">
        <ele>113</ele>
        <time>2010-05-13T08:08:07Z</time>
      </trkpt>
      <trkpt lat="48.63167" lon="2.05056">
        <ele>113</ele>
        <time>2010-05-13T08:08:08Z</time>
      </trkpt>
      <trkpt lat="48.63168" lon="2.05059">
        <ele>113</ele>
        <time>2010-05-13T08:08:09Z</time>
      </trkpt>
      <trkpt lat="48.6317" lon="2.05062">
        <ele>113</ele>
        <time>2010-05-13T08:08:10Z</time>
      </trkpt>
      <trkpt lat="48.63171" lon="2.05064">
        <ele>113</ele>
        <time>2010-05-13T08:08:11Z</time>
      </trkpt>
      <trkpt lat="48.63173" lon="2.05066">
        <ele>113</ele>
        <time>2010-05-13T08:08:11Z</time>
      </trkpt>
      <trkpt lat="48.63174" lon="2.05068">
        <ele>113</ele>
        <time>2010-05-13T08:08:13Z</time>
      </trkpt>
      <trkpt lat="48.63175" lon="2.0507">
        <ele>113</ele>
        <time>2010-05-13T08:08:14Z</time>
      </trkpt>
      <trkpt lat="48.63176" lon="2.05072">
        <ele>113</ele>
        <time>2010-05-13T08:08:15Z</time>
      </trkpt>
      <trkpt lat="48.63177" lon="2.05075">
        <ele>113</ele>
        <time>2010-05-13T08:08:16Z</time>
      </trkpt>
      <trkpt lat="48.63178" lon="2.05077">
        <ele>113</ele>
        <time>2010-05-13T08:08:17Z</time>
      </trkpt>
      <trkpt lat="48.63179" lon="2.0508">
        <ele>113</ele>
        <time>2010-05-13T08:08:18Z</time>
      </trkpt>
      <trkpt lat="48.6318" lon="2.05083">
        <ele>113</ele>
        <time>2010-05-13T08:08:19Z</time>
      </trkpt>
      <trkpt lat="48.63182" lon="2.05085">
        <ele>113</ele>
        <time>2010-05-13T08:08:20Z</time>
      </trkpt>
      <trkpt lat="48.63183" lon="2.05087">
        <ele>113</ele>
        <time>2010-05-13T08:08:21Z</time>
      </trkpt>
      <trkpt lat="48.63185" lon="2.05089">
        <ele>113</ele>
        <time>2010-05-13T08:08:22Z</time>
      </trkpt>
      <trkpt lat="48.63187" lon="2.05092">
        <ele>113</ele>
        <time>2010-05-13T08:08:23Z</time>
      </trkpt>
      <trkpt lat="48.63188" lon="2.05094">
        <ele>113</ele>
        <time>2010-05-13T08:08:24Z</time>
      </trkpt>
      <trkpt lat="48.63191" lon="2.05097">
        <ele>113</ele>
        <time>2010-05-13T08:08:25Z</time>
      </trkpt>
      <trkpt lat="48.63193" lon="2.051">
        <ele>113</ele>
        <time>2010-05-13T08:08:27Z</time>
      </trkpt>
      <trkpt lat="48.63194" lon="2.05101">
        <ele>113</ele>
        <time>2010-05-13T08:08:28Z</time>
      </trkpt>
      <trkpt lat="48.63196" lon="2.05106">
        <ele>114</ele>
        <time>2010-05-13T08:08:30Z</time>
      </trkpt>
      <trkpt lat="48.63198" lon="2.05108">
        <ele>114</ele>
        <time>2010-05-13T08:08:32Z</time>
      </trkpt>
      <trkpt lat="48.63199" lon="2.05109">
        <ele>115</ele>
        <time>2010-05-13T08:08:33Z</time>
      </trkpt>
      <trkpt lat="48.63202" lon="2.05112">
        <ele>115</ele>
        <time>2010-05-13T08:08:34Z</time>
      </trkpt>
      <trkpt lat="48.63204" lon="2.05113">
        <ele>116</ele>
        <time>2010-05-13T08:08:35Z</time>
      </trkpt>
      <trkpt lat="48.63205" lon="2.05116">
        <ele>117</ele>
        <time>2010-05-13T08:08:36Z</time>
      </trkpt>
      <trkpt lat="48.63208" lon="2.05118">
        <ele>119</ele>
        <time>2010-05-13T08:08:38Z</time>
      </trkpt>
      <trkpt lat="48.6321" lon="2.0512">
        <ele>119</ele>
        <time>2010-05-13T08:08:39Z</time>
      </trkpt>
      <trkpt lat="48.63212" lon="2.05121">
        <ele>119</ele>
        <time>2010-05-13T08:08:41Z</time>
      </trkpt>
      <trkpt lat="48.63213" lon="2.05122">
        <ele>119</ele>
        <time>2010-05-13T08:08:43Z</time>
      </trkpt>
      <trkpt lat="48.63214" lon="2.05123">
        <ele>119</ele>
        <time>2010-05-13T08:08:44Z</time>
      </trkpt>
      <trkpt lat="48.63216" lon="2.05124">
        <ele>119</ele>
        <time>2010-05-13T08:08:44Z</time>
      </trkpt>
      <trkpt lat="48.63217" lon="2.05125">
        <ele>119</ele>
        <time>2010-05-13T08:08:46Z</time>
      </trkpt>
      <trkpt lat="48.6322" lon="2.05127">
        <ele>119</ele>
        <time>2010-05-13T08:08:47Z</time>
      </trkpt>
      <trkpt lat="48.63221" lon="2.05129">
        <ele>119</ele>
        <time>2010-05-13T08:08:48Z</time>
      </trkpt>
      <trkpt lat="48.63223" lon="2.0513">
        <ele>120</ele>
        <time>2010-05-13T08:08:49Z</time>
      </trkpt>
      <trkpt lat="48.63225" lon="2.05131">
        <ele>120</ele>
        <time>2010-05-13T08:08:50Z</time>
      </trkpt>
      <trkpt lat="48.63226" lon="2.05133">
        <ele>121</ele>
        <time>2010-05-13T08:08:51Z</time>
      </trkpt>
      <trkpt lat="48.63228" lon="2.05134">
        <ele>122</ele>
        <time>2010-05-13T08:08:52Z</time>
      </trkpt>
      <trkpt lat="48.63229" lon="2.05136">
        <ele>122</ele>
        <time>2010-05-13T08:08:53Z</time>
      </trkpt>
      <trkpt lat="48.63232" lon="2.05139">
        <ele>123</ele>
        <time>2010-05-13T08:08:55Z</time>
      </trkpt>
      <trkpt lat="48.63234" lon="2.05141">
        <ele>123</ele>
        <time>2010-05-13T08:08:56Z</time>
      </trkpt>
      <trkpt lat="48.63235" lon="2.05143">
        <ele>123</ele>
        <time>2010-05-13T08:08:58Z</time>
      </trkpt>
      <trkpt lat="48.63237" lon="2.05145">
        <ele>123</ele>
        <time>2010-05-13T08:08:59Z</time>
      </trkpt>
      <trkpt lat="48.63239" lon="2.05147">
        <ele>124</ele>
        <time>2010-05-13T08:09:00Z</time>
      </trkpt>
      <trkpt lat="48.6324" lon="2.05149">
        <ele>124</ele>
        <time>2010-05-13T08:09:01Z</time>
      </trkpt>
      <trkpt lat="48.63242" lon="2.05152">
        <ele>124</ele>
        <time>2010-05-13T08:09:03Z</time>
      </trkpt>
      <trkpt lat="48.63243" lon="2.05153">
        <ele>124</ele>
        <time>2010-05-13T08:09:03Z</time>
      </trkpt>
      <trkpt lat="48.63245" lon="2.05154">
        <ele>124</ele>
        <time>2010-05-13T08:09:04Z</time>
      </trkpt>
      <trkpt lat="48.63247" lon="2.05155">
        <ele>124</ele>
        <time>2010-05-13T08:09:06Z</time>
      </trkpt>
      <trkpt lat="48.63249" lon="2.05156">
        <ele>125</ele>
        <time>2010-05-13T08:09:07Z</time>
      </trkpt>
      <trkpt lat="48.6325" lon="2.05156">
        <ele>125</ele>
        <time>2010-05-13T08:09:08Z</time>
      </trkpt>
      <trkpt lat="48.63252" lon="2.05157">
        <ele>126</ele>
        <time>2010-05-13T08:09:09Z</time>
      </trkpt>
      <trkpt lat="48.63254" lon="2.0516">
        <ele>127</ele>
        <time>2010-05-13T08:09:11Z</time>
      </trkpt>
      <trkpt lat="48.63257" lon="2.05161">
        <ele>127</ele>
        <time>2010-05-13T08:09:12Z</time>
      </trkpt>
      <trkpt lat="48.63259" lon="2.05163">
        <ele>127</ele>
        <time>2010-05-13T08:09:13Z</time>
      </trkpt>
      <trkpt lat="48.6326" lon="2.05165">
        <ele>127</ele>
        <time>2010-05-13T08:09:14Z</time>
      </trkpt>
      <trkpt lat="48.63262" lon="2.05165">
        <ele>127</ele>
        <time>2010-05-13T08:09:15Z</time>
      </trkpt>
      <trkpt lat="48.63264" lon="2.05166">
        <ele>127</ele>
        <time>2010-05-13T08:09:16Z</time>
      </trkpt>
      <trkpt lat="48.63265" lon="2.05166">
        <ele>128</ele>
        <time>2010-05-13T08:09:17Z</time>
      </trkpt>
      <trkpt lat="48.63267" lon="2.05166">
        <ele>128</ele>
        <time>2010-05-13T08:09:18Z</time>
      </trkpt>
      <trkpt lat="48.63268" lon="2.05167">
        <ele>129</ele>
        <time>2010-05-13T08:09:19Z</time>
      </trkpt>
      <trkpt lat="48.6327" lon="2.05168">
        <ele>129</ele>
        <time>2010-05-13T08:09:20Z</time>
      </trkpt>
      <trkpt lat="48.63271" lon="2.05168">
        <ele>130</ele>
        <time>2010-05-13T08:09:21Z</time>
      </trkpt>
      <trkpt lat="48.63273" lon="2.05169">
        <ele>130</ele>
        <time>2010-05-13T08:09:22Z</time>
      </trkpt>
      <trkpt lat="48.63275" lon="2.0517">
        <ele>131</ele>
        <time>2010-05-13T08:09:23Z</time>
      </trkpt>
      <trkpt lat="48.63277" lon="2.05171">
        <ele>131</ele>
        <time>2010-05-13T08:09:24Z</time>
      </trkpt>
      <trkpt lat="48.63279" lon="2.05172">
        <ele>131</ele>
        <time>2010-05-13T08:09:25Z</time>
      </trkpt>
      <trkpt lat="48.6328" lon="2.05173">
        <ele>131</ele>
        <time>2010-05-13T08:09:26Z</time>
      </trkpt>
      <trkpt lat="48.63282" lon="2.05173">
        <ele>131</ele>
        <time>2010-05-13T08:09:27Z</time>
      </trkpt>
      <trkpt lat="48.63283" lon="2.05174">
        <ele>131</ele>
        <time>2010-05-13T08:09:28Z</time>
      </trkpt>
      <trkpt lat="48.63285" lon="2.05174">
        <ele>131</ele>
        <time>2010-05-13T08:09:29Z</time>
      </trkpt>
      <trkpt lat="48.63286" lon="2.05175">
        <ele>131</ele>
        <time>2010-05-13T08:09:30Z</time>
      </trkpt>
      <trkpt lat="48.63287" lon="2.05175">
        <ele>131</ele>
        <time>2010-05-13T08:09:31Z</time>
      </trkpt>
      <trkpt lat="48.63289" lon="2.05175">
        <ele>131</ele>
        <time>2010-05-13T08:09:32Z</time>
      </trkpt>
      <trkpt lat="48.6329" lon="2.05175">
        <ele>131</ele>
        <time>2010-05-13T08:09:33Z</time>
      </trkpt>
      <trkpt lat="48.63291" lon="2.05176">
        <ele>131</ele>
        <time>2010-05-13T08:09:33Z</time>
      </trkpt>
      <trkpt lat="48.63293" lon="2.05177">
        <ele>131</ele>
        <time>2010-05-13T08:09:34Z</time>
      </trkpt>
      <trkpt lat="48.63295" lon="2.05176">
        <ele>131</ele>
        <time>2010-05-13T08:09:37Z</time>
      </trkpt>
      <trkpt lat="48.63299" lon="2.05176">
        <ele>131</ele>
        <time>2010-05-13T08:09:37Z</time>
      </trkpt>
      <trkpt lat="48.63302" lon="2.05176">
        <ele>131</ele>
        <time>2010-05-13T08:09:38Z</time>
      </trkpt>
      <trkpt lat="48.63303" lon="2.05176">
        <ele>131</ele>
        <time>2010-05-13T08:09:40Z</time>
      </trkpt>
      <trkpt lat="48.63306" lon="2.05177">
        <ele>131</ele>
        <time>2010-05-13T08:09:42Z</time>
      </trkpt>
      <trkpt lat="48.63307" lon="2.05179">
        <ele>131</ele>
        <time>2010-05-13T08:09:43Z</time>
      </trkpt>
      <trkpt lat="48.63309" lon="2.05179">
        <ele>131</ele>
        <time>2010-05-13T08:09:44Z</time>
      </trkpt>
      <trkpt lat="48.6331" lon="2.05179">
        <ele>131</ele>
        <time>2010-05-13T08:09:45Z</time>
      </trkpt>
      <trkpt lat="48.63311" lon="2.0518">
        <ele>131</ele>
        <time>2010-05-13T08:09:46Z</time>
      </trkpt>
      <trkpt lat="48.63313" lon="2.05181">
        <ele>131</ele>
        <time>2010-05-13T08:09:46Z</time>
      </trkpt>
      <trkpt lat="48.63315" lon="2.05181">
        <ele>130</ele>
        <time>2010-05-13T08:09:49Z</time>
      </trkpt>
      <trkpt lat="48.63317" lon="2.05181">
        <ele>130</ele>
        <time>2010-05-13T08:09:49Z</time>
      </trkpt>
      <trkpt lat="48.63318" lon="2.05182">
        <ele>130</ele>
        <time>2010-05-13T08:09:50Z</time>
      </trkpt>
      <trkpt lat="48.6332" lon="2.05184">
        <ele>130</ele>
        <time>2010-05-13T08:09:55Z</time>
      </trkpt>
      <trkpt lat="48.63322" lon="2.05183">
        <ele>130</ele>
        <time>2010-05-13T08:09:55Z</time>
      </trkpt>
      <trkpt lat="48.63324" lon="2.05182">
        <ele>130</ele>
        <time>2010-05-13T08:09:56Z</time>
      </trkpt>
      <trkpt lat="48.63323" lon="2.05181">
        <ele>130</ele>
        <time>2010-05-13T08:10:03Z</time>
      </trkpt>
      <trkpt lat="48.63322" lon="2.05181">
        <ele>134</ele>
        <time>2010-05-13T08:10:07Z</time>
      </trkpt>
      <trkpt lat="48.6332" lon="2.05182">
        <ele>134</ele>
        <time>2010-05-13T08:10:10Z</time>
      </trkpt>
      <trkpt lat="48.6332" lon="2.05184">
        <ele>135</ele>
        <time>2010-05-13T08:10:13Z</time>
      </trkpt>
      <trkpt lat="48.63319" lon="2.05186">
        <ele>135</ele>
        <time>2010-05-13T08:10:17Z</time>
      </trkpt>
      <trkpt lat="48.63321" lon="2.05186">
        <ele>135</ele>
        <time>2010-05-13T08:10:18Z</time>
      </trkpt>
      <trkpt lat="48.63321" lon="2.05189">
        <ele>135</ele>
        <time>2010-05-13T08:10:21Z</time>
      </trkpt>
      <trkpt lat="48.63323" lon="2.0519">
        <ele>135</ele>
        <time>2010-05-13T08:10:23Z</time>
      </trkpt>
      <trkpt lat="48.63324" lon="2.05191">
        <ele>135</ele>
        <time>2010-05-13T08:10:25Z</time>
      </trkpt>
      <trkpt lat="48.63326" lon="2.05192">
        <ele>135</ele>
        <time>2010-05-13T08:10:26Z</time>
      </trkpt>
      <trkpt lat="48.63328" lon="2.05192">
        <ele>135</ele>
        <time>2010-05-13T08:10:28Z</time>
      </trkpt>
      <trkpt lat="48.6333" lon="2.05193">
        <ele>135</ele>
        <time>2010-05-13T08:10:28Z</time>
      </trkpt>
      <trkpt lat="48.63332" lon="2.05193">
        <ele>135</ele>
        <time>2010-05-13T08:10:30Z</time>
      </trkpt>
      <trkpt lat="48.63333" lon="2.05195">
        <ele>136</ele>
        <time>2010-05-13T08:10:31Z</time>
      </trkpt>
      <trkpt lat="48.63335" lon="2.05195">
        <ele>136</ele>
        <time>2010-05-13T08:10:33Z</time>
      </trkpt>
      <trkpt lat="48.63337" lon="2.05196">
        <ele>137</ele>
        <time>2010-05-13T08:10:33Z</time>
      </trkpt>
      <trkpt lat="48.63339" lon="2.05197">
        <ele>137</ele>
        <time>2010-05-13T08:10:34Z</time>
      </trkpt>
      <trkpt lat="48.6334" lon="2.05197">
        <ele>138</ele>
        <time>2010-05-13T08:10:35Z</time>
      </trkpt>
      <trkpt lat="48.63342" lon="2.05197">
        <ele>138</ele>
        <time>2010-05-13T08:10:36Z</time>
      </trkpt>
      <trkpt lat="48.63343" lon="2.05196">
        <ele>138</ele>
        <time>2010-05-13T08:10:38Z</time>
      </trkpt>
      <trkpt lat="48.63344" lon="2.05197">
        <ele>139</ele>
        <time>2010-05-13T08:10:38Z</time>
      </trkpt>
      <trkpt lat="48.63346" lon="2.05198">
        <ele>139</ele>
        <time>2010-05-13T08:10:39Z</time>
      </trkpt>
      <trkpt lat="48.63348" lon="2.05198">
        <ele>140</ele>
        <time>2010-05-13T08:10:40Z</time>
      </trkpt>
      <trkpt lat="48.6335" lon="2.05198">
        <ele>140</ele>
        <time>2010-05-13T08:10:41Z</time>
      </trkpt>
      <trkpt lat="48.63352" lon="2.05198">
        <ele>140</ele>
        <time>2010-05-13T08:10:43Z</time>
      </trkpt>
      <trkpt lat="48.63354" lon="2.05198">
        <ele>140</ele>
        <time>2010-05-13T08:10:43Z</time>
      </trkpt>
      <trkpt lat="48.63355" lon="2.052">
        <ele>140</ele>
        <time>2010-05-13T08:10:45Z</time>
      </trkpt>
      <trkpt lat="48.63357" lon="2.05202">
        <ele>140</ele>
        <time>2010-05-13T08:10:46Z</time>
      </trkpt>
      <trkpt lat="48.63358" lon="2.05203">
        <ele>140</ele>
        <time>2010-05-13T08:10:48Z</time>
      </trkpt>
      <trkpt lat="48.6336" lon="2.05204">
        <ele>140</ele>
        <time>2010-05-13T08:10:48Z</time>
      </trkpt>
      <trkpt lat="48.63362" lon="2.05204">
        <ele>140</ele>
        <time>2010-05-13T08:10:50Z</time>
      </trkpt>
      <trkpt lat="48.63367" lon="2.052">
        <ele>140</ele>
        <time>2010-05-13T08:10:52Z</time>
      </trkpt>
      <trkpt lat="48.6337" lon="2.052">
        <ele>140</ele>
        <time>2010-05-13T08:10:53Z</time>
      </trkpt>
      <trkpt lat="48.63373" lon="2.05201">
        <ele>140</ele>
        <time>2010-05-13T08:10:54Z</time>
      </trkpt>
      <trkpt lat="48.63376" lon="2.05202">
        <ele>139</ele>
        <time>2010-05-13T08:10:55Z</time>
      </trkpt>
      <trkpt lat="48.63379" lon="2.05204">
        <ele>138</ele>
        <time>2010-05-13T08:10:56Z</time>
      </trkpt>
      <trkpt lat="48.63381" lon="2.05203">
        <ele>137</ele>
        <time>2010-05-13T08:10:58Z</time>
      </trkpt>
      <trkpt lat="48.63383" lon="2.05204">
        <ele>135</ele>
        <time>2010-05-13T08:10:59Z</time>
      </trkpt>
      <trkpt lat="48.63384" lon="2.05205">
        <ele>134</ele>
        <time>2010-05-13T08:11:00Z</time>
      </trkpt>
      <trkpt lat="48.63387" lon="2.05207">
        <ele>133</ele>
        <time>2010-05-13T08:11:03Z</time>
      </trkpt>
      <trkpt lat="48.63388" lon="2.05208">
        <ele>133</ele>
        <time>2010-05-13T08:11:03Z</time>
      </trkpt>
      <trkpt lat="48.6339" lon="2.05208">
        <ele>133</ele>
        <time>2010-05-13T08:11:04Z</time>
      </trkpt>
      <trkpt lat="48.63392" lon="2.05209">
        <ele>133</ele>
        <time>2010-05-13T08:11:05Z</time>
      </trkpt>
      <trkpt lat="48.63393" lon="2.0521">
        <ele>133</ele>
        <time>2010-05-13T08:11:06Z</time>
      </trkpt>
      <trkpt lat="48.63394" lon="2.0521">
        <ele>133</ele>
        <time>2010-05-13T08:11:08Z</time>
      </trkpt>
      <trkpt lat="48.63396" lon="2.05211">
        <ele>133</ele>
        <time>2010-05-13T08:11:08Z</time>
      </trkpt>
      <trkpt lat="48.63398" lon="2.05212">
        <ele>133</ele>
        <time>2010-05-13T08:11:10Z</time>
      </trkpt>
      <trkpt lat="48.63402" lon="2.05213">
        <ele>133</ele>
        <time>2010-05-13T08:11:14Z</time>
      </trkpt>
      <trkpt lat="48.63405" lon="2.05214">
        <ele>133</ele>
        <time>2010-05-13T08:11:14Z</time>
      </trkpt>
      <trkpt lat="48.63409" lon="2.05216">
        <ele>133</ele>
        <time>2010-05-13T08:11:16Z</time>
      </trkpt>
      <trkpt lat="48.63411" lon="2.05216">
        <ele>133</ele>
        <time>2010-05-13T08:11:18Z</time>
      </trkpt>
      <trkpt lat="48.63413" lon="2.05215">
        <ele>133</ele>
        <time>2010-05-13T08:11:19Z</time>
      </trkpt>
      <trkpt lat="48.63415" lon="2.05215">
        <ele>133</ele>
        <time>2010-05-13T08:11:19Z</time>
      </trkpt>
      <trkpt lat="48.63416" lon="2.05215">
        <ele>133</ele>
        <time>2010-05-13T08:11:20Z</time>
      </trkpt>
      <trkpt lat="48.63418" lon="2.05215">
        <ele>133</ele>
        <time>2010-05-13T08:11:21Z</time>
      </trkpt>
      <trkpt lat="48.6342" lon="2.05215">
        <ele>133</ele>
        <time>2010-05-13T08:11:22Z</time>
      </trkpt>
      <trkpt lat="48.63421" lon="2.05214">
        <ele>133</ele>
        <time>2010-05-13T08:11:24Z</time>
      </trkpt>
      <trkpt lat="48.63426" lon="2.05213">
        <ele>133</ele>
        <time>2010-05-13T08:11:26Z</time>
      </trkpt>
      <trkpt lat="48.63428" lon="2.05212">
        <ele>133</ele>
        <time>2010-05-13T08:11:27Z</time>
      </trkpt>
      <trkpt lat="48.63432" lon="2.05212">
        <ele>133</ele>
        <time>2010-05-13T08:11:30Z</time>
      </trkpt>
      <trkpt lat="48.63433" lon="2.05212">
        <ele>133</ele>
        <time>2010-05-13T08:11:30Z</time>
      </trkpt>
      <trkpt lat="48.63436" lon="2.0521">
        <ele>133</ele>
        <time>2010-05-13T08:11:32Z</time>
      </trkpt>
      <trkpt lat="48.63438" lon="2.0521">
        <ele>133</ele>
        <time>2010-05-13T08:11:33Z</time>
      </trkpt>
      <trkpt lat="48.6344" lon="2.0521">
        <ele>133</ele>
        <time>2010-05-13T08:11:35Z</time>
      </trkpt>
      <trkpt lat="48.63443" lon="2.05205">
        <ele>132</ele>
        <time>2010-05-13T08:11:40Z</time>
      </trkpt>
      <trkpt lat="48.63454" lon="2.05197">
        <ele>132</ele>
        <time>2010-05-13T08:11:44Z</time>
      </trkpt>
      <trkpt lat="48.63458" lon="2.05199">
        <ele>132</ele>
        <time>2010-05-13T08:11:46Z</time>
      </trkpt>
      <trkpt lat="48.63461" lon="2.052">
        <ele>132</ele>
        <time>2010-05-13T08:11:46Z</time>
      </trkpt>
      <trkpt lat="48.63466" lon="2.05194">
        <ele>134</ele>
        <time>2010-05-13T08:11:48Z</time>
      </trkpt>
      <trkpt lat="48.63468" lon="2.05192">
        <ele>136</ele>
        <time>2010-05-13T08:11:49Z</time>
      </trkpt>
      <trkpt lat="48.63471" lon="2.05181">
        <ele>141</ele>
        <time>2010-05-13T08:11:55Z</time>
      </trkpt>
      <trkpt lat="48.63477" lon="2.05174">
        <ele>142</ele>
        <time>2010-05-13T08:11:56Z</time>
      </trkpt>
      <trkpt lat="48.63478" lon="2.0517">
        <ele>143</ele>
        <time>2010-05-13T08:11:57Z</time>
      </trkpt>
      <trkpt lat="48.6348" lon="2.05169">
        <ele>144</ele>
        <time>2010-05-13T08:11:58Z</time>
      </trkpt>
      <trkpt lat="48.63483" lon="2.05168">
        <ele>146</ele>
        <time>2010-05-13T08:12:01Z</time>
      </trkpt>
      <trkpt lat="48.63484" lon="2.05168">
        <ele>147</ele>
        <time>2010-05-13T08:12:02Z</time>
      </trkpt>
      <trkpt lat="48.63486" lon="2.05167">
        <ele>147</ele>
        <time>2010-05-13T08:12:02Z</time>
      </trkpt>
      <trkpt lat="48.63486" lon="2.05165">
        <ele>147</ele>
        <time>2010-05-13T08:12:04Z</time>
      </trkpt>
      <trkpt lat="48.63487" lon="2.05163">
        <ele>147</ele>
        <time>2010-05-13T08:12:05Z</time>
      </trkpt>
      <trkpt lat="48.63488" lon="2.05162">
        <ele>147</ele>
        <time>2010-05-13T08:12:06Z</time>
      </trkpt>
      <trkpt lat="48.6349" lon="2.05162">
        <ele>147</ele>
        <time>2010-05-13T08:12:07Z</time>
      </trkpt>
      <trkpt lat="48.6349" lon="2.05158">
        <ele>148</ele>
        <time>2010-05-13T08:12:11Z</time>
      </trkpt>
      <trkpt lat="48.63492" lon="2.05156">
        <ele>148</ele>
        <time>2010-05-13T08:12:11Z</time>
      </trkpt>
      <trkpt lat="48.63507" lon="2.05143">
        <ele>148</ele>
        <time>2010-05-13T08:12:21Z</time>
      </trkpt>
      <trkpt lat="48.63513" lon="2.05136">
        <ele>148</ele>
        <time>2010-05-13T08:12:23Z</time>
      </trkpt>
      <trkpt lat="48.63516" lon="2.05128">
        <ele>148</ele>
        <time>2010-05-13T08:12:24Z</time>
      </trkpt>
      <trkpt lat="48.63522" lon="2.05118">
        <ele>148</ele>
        <time>2010-05-13T08:12:30Z</time>
      </trkpt>
      <trkpt lat="48.63527" lon="2.05116">
        <ele>148</ele>
        <time>2010-05-13T08:12:30Z</time>
      </trkpt>
      <trkpt lat="48.6353" lon="2.05112">
        <ele>148</ele>
        <time>2010-05-13T08:12:32Z</time>
      </trkpt>
      <trkpt lat="48.63531" lon="2.0511">
        <ele>148</ele>
        <time>2010-05-13T08:12:33Z</time>
      </trkpt>
      <trkpt lat="48.63533" lon="2.05107">
        <ele>148</ele>
        <time>2010-05-13T08:12:35Z</time>
      </trkpt>
      <trkpt lat="48.63536" lon="2.05106">
        <ele>148</ele>
        <time>2010-05-13T08:12:35Z</time>
      </trkpt>
      <trkpt lat="48.63537" lon="2.05104">
        <ele>148</ele>
        <time>2010-05-13T08:12:36Z</time>
      </trkpt>
      <trkpt lat="48.63537" lon="2.05101">
        <ele>148</ele>
        <time>2010-05-13T08:12:37Z</time>
      </trkpt>
      <trkpt lat="48.63538" lon="2.05096">
        <ele>147</ele>
        <time>2010-05-13T08:12:40Z</time>
      </trkpt>
      <trkpt lat="48.6354" lon="2.05094">
        <ele>146</ele>
        <time>2010-05-13T08:12:40Z</time>
      </trkpt>
      <trkpt lat="48.63541" lon="2.05092">
        <ele>145</ele>
        <time>2010-05-13T08:12:42Z</time>
      </trkpt>
      <trkpt lat="48.63543" lon="2.0509">
        <ele>145</ele>
        <time>2010-05-13T08:12:42Z</time>
      </trkpt>
      <trkpt lat="48.63544" lon="2.05087">
        <ele>145</ele>
        <time>2010-05-13T08:12:43Z</time>
      </trkpt>
      <trkpt lat="48.63546" lon="2.05085">
        <ele>145</ele>
        <time>2010-05-13T08:12:45Z</time>
      </trkpt>
      <trkpt lat="48.63547" lon="2.05083">
        <ele>145</ele>
        <time>2010-05-13T08:12:45Z</time>
      </trkpt>
      <trkpt lat="48.63548" lon="2.05081">
        <ele>144</ele>
        <time>2010-05-13T08:12:46Z</time>
      </trkpt>
      <trkpt lat="48.63549" lon="2.05079">
        <ele>144</ele>
        <time>2010-05-13T08:12:47Z</time>
      </trkpt>
      <trkpt lat="48.6355" lon="2.05078">
        <ele>143</ele>
        <time>2010-05-13T08:12:48Z</time>
      </trkpt>
      <trkpt lat="48.63552" lon="2.05075">
        <ele>143</ele>
        <time>2010-05-13T08:12:52Z</time>
      </trkpt>
      <trkpt lat="48.63552" lon="2.05073">
        <ele>143</ele>
        <time>2010-05-13T08:12:53Z</time>
      </trkpt>
      <trkpt lat="48.63553" lon="2.05072">
        <ele>145</ele>
        <time>2010-05-13T08:12:57Z</time>
      </trkpt>
      <trkpt lat="48.63553" lon="2.0507">
        <ele>147</ele>
        <time>2010-05-13T08:12:58Z</time>
      </trkpt>
      <trkpt lat="48.63556" lon="2.0507">
        <ele>149</ele>
        <time>2010-05-13T08:13:00Z</time>
      </trkpt>
      <trkpt lat="48.63556" lon="2.05068">
        <ele>150</ele>
        <time>2010-05-13T08:13:03Z</time>
      </trkpt>
      <trkpt lat="48.63557" lon="2.05067">
        <ele>150</ele>
        <time>2010-05-13T08:13:03Z</time>
      </trkpt>
      <trkpt lat="48.63559" lon="2.05067">
        <ele>150</ele>
        <time>2010-05-13T08:13:04Z</time>
      </trkpt>
      <trkpt lat="48.63561" lon="2.05066">
        <ele>150</ele>
        <time>2010-05-13T08:13:05Z</time>
      </trkpt>
      <trkpt lat="48.63563" lon="2.05064">
        <ele>150</ele>
        <time>2010-05-13T08:13:06Z</time>
      </trkpt>
      <trkpt lat="48.63564" lon="2.05063">
        <ele>150</ele>
        <time>2010-05-13T08:13:08Z</time>
      </trkpt>
      <trkpt lat="48.63565" lon="2.05061">
        <ele>151</ele>
        <time>2010-05-13T08:13:08Z</time>
      </trkpt>
      <trkpt lat="48.63566" lon="2.05058">
        <ele>151</ele>
        <time>2010-05-13T08:13:10Z</time>
      </trkpt>
      <trkpt lat="48.63568" lon="2.05055">
        <ele>151</ele>
        <time>2010-05-13T08:13:13Z</time>
      </trkpt>
      <trkpt lat="48.6357" lon="2.05054">
        <ele>152</ele>
        <time>2010-05-13T08:13:13Z</time>
      </trkpt>
      <trkpt lat="48.63571" lon="2.05053">
        <ele>152</ele>
        <time>2010-05-13T08:13:14Z</time>
      </trkpt>
      <trkpt lat="48.63573" lon="2.05052">
        <ele>152</ele>
        <time>2010-05-13T08:13:16Z</time>
      </trkpt>
      <trkpt lat="48.63575" lon="2.05049">
        <ele>152</ele>
        <time>2010-05-13T08:13:18Z</time>
      </trkpt>
      <trkpt lat="48.63577" lon="2.05049">
        <ele>152</ele>
        <time>2010-05-13T08:13:18Z</time>
      </trkpt>
      <trkpt lat="48.63579" lon="2.05047">
        <ele>152</ele>
        <time>2010-05-13T08:13:19Z</time>
      </trkpt>
      <trkpt lat="48.6358" lon="2.05045">
        <ele>152</ele>
        <time>2010-05-13T08:13:20Z</time>
      </trkpt>
      <trkpt lat="48.63582" lon="2.05043">
        <ele>152</ele>
        <time>2010-05-13T08:13:22Z</time>
      </trkpt>
      <trkpt lat="48.63583" lon="2.05043">
        <ele>152</ele>
        <time>2010-05-13T08:13:22Z</time>
      </trkpt>
      <trkpt lat="48.63585" lon="2.0504">
        <ele>152</ele>
        <time>2010-05-13T08:13:24Z</time>
      </trkpt>
      <trkpt lat="48.63586" lon="2.05037">
        <ele>152</ele>
        <time>2010-05-13T08:13:24Z</time>
      </trkpt>
      <trkpt lat="48.63588" lon="2.05035">
        <ele>152</ele>
        <time>2010-05-13T08:13:25Z</time>
      </trkpt>
      <trkpt lat="48.63591" lon="2.05035">
        <ele>152</ele>
        <time>2010-05-13T08:13:27Z</time>
      </trkpt>
      <trkpt lat="48.63593" lon="2.05034">
        <ele>152</ele>
        <time>2010-05-13T08:13:27Z</time>
      </trkpt>
      <trkpt lat="48.63595" lon="2.05033">
        <ele>152</ele>
        <time>2010-05-13T08:13:28Z</time>
      </trkpt>
      <trkpt lat="48.63596" lon="2.05033">
        <ele>152</ele>
        <time>2010-05-13T08:13:29Z</time>
      </trkpt>
      <trkpt lat="48.63597" lon="2.05032">
        <ele>153</ele>
        <time>2010-05-13T08:13:30Z</time>
      </trkpt>
      <trkpt lat="48.63599" lon="2.05031">
        <ele>153</ele>
        <time>2010-05-13T08:13:31Z</time>
      </trkpt>
      <trkpt lat="48.636" lon="2.05031">
        <ele>153</ele>
        <time>2010-05-13T08:13:32Z</time>
      </trkpt>
      <trkpt lat="48.63602" lon="2.0503">
        <ele>154</ele>
        <time>2010-05-13T08:13:33Z</time>
      </trkpt>
      <trkpt lat="48.63603" lon="2.0503">
        <ele>154</ele>
        <time>2010-05-13T08:13:34Z</time>
      </trkpt>
      <trkpt lat="48.63605" lon="2.0503">
        <ele>155</ele>
        <time>2010-05-13T08:13:35Z</time>
      </trkpt>
      <trkpt lat="48.63607" lon="2.05029">
        <ele>156</ele>
        <time>2010-05-13T08:13:37Z</time>
      </trkpt>
      <trkpt lat="48.63609" lon="2.05028">
        <ele>157</ele>
        <time>2010-05-13T08:13:37Z</time>
      </trkpt>
      <trkpt lat="48.6361" lon="2.05026">
        <ele>157</ele>
        <time>2010-05-13T08:13:38Z</time>
      </trkpt>
      <trkpt lat="48.63612" lon="2.05025">
        <ele>157</ele>
        <time>2010-05-13T08:13:39Z</time>
      </trkpt>
      <trkpt lat="48.63613" lon="2.05025">
        <ele>157</ele>
        <time>2010-05-13T08:13:41Z</time>
      </trkpt>
      <trkpt lat="48.63615" lon="2.05022">
        <ele>157</ele>
        <time>2010-05-13T08:13:42Z</time>
      </trkpt>
      <trkpt lat="48.63616" lon="2.05021">
        <ele>157</ele>
        <time>2010-05-13T08:13:44Z</time>
      </trkpt>
      <trkpt lat="48.63618" lon="2.0502">
        <ele>157</ele>
        <time>2010-05-13T08:13:45Z</time>
      </trkpt>
      <trkpt lat="48.6362" lon="2.05019">
        <ele>157</ele>
        <time>2010-05-13T08:13:45Z</time>
      </trkpt>
      <trkpt lat="48.63621" lon="2.05018">
        <ele>157</ele>
        <time>2010-05-13T08:13:46Z</time>
      </trkpt>
      <trkpt lat="48.63622" lon="2.05017">
        <ele>157</ele>
        <time>2010-05-13T08:13:47Z</time>
      </trkpt>
      <trkpt lat="48.63624" lon="2.05016">
        <ele>157</ele>
        <time>2010-05-13T08:13:48Z</time>
      </trkpt>
      <trkpt lat="48.63625" lon="2.05013">
        <ele>157</ele>
        <time>2010-05-13T08:13:50Z</time>
      </trkpt>
      <trkpt lat="48.63626" lon="2.05011">
        <ele>157</ele>
        <time>2010-05-13T08:13:50Z</time>
      </trkpt>
      <trkpt lat="48.63627" lon="2.05009">
        <ele>157</ele>
        <time>2010-05-13T08:13:52Z</time>
      </trkpt>
      <trkpt lat="48.63628" lon="2.05009">
        <ele>157</ele>
        <time>2010-05-13T08:13:56Z</time>
      </trkpt>
      <trkpt lat="48.63629" lon="2.05007">
        <ele>157</ele>
        <time>2010-05-13T08:14:01Z</time>
      </trkpt>
      <trkpt lat="48.6363" lon="2.05007">
        <ele>157</ele>
        <time>2010-05-13T08:14:03Z</time>
      </trkpt>
      <trkpt lat="48.63631" lon="2.05011">
        <ele>157</ele>
        <time>2010-05-13T08:14:10Z</time>
      </trkpt>
      <trkpt lat="48.63632" lon="2.05013">
        <ele>157</ele>
        <time>2010-05-13T08:14:11Z</time>
      </trkpt>
      <trkpt lat="48.63631" lon="2.05017">
        <ele>157</ele>
        <time>2010-05-13T08:14:12Z</time>
      </trkpt>
      <trkpt lat="48.63632" lon="2.05019">
        <ele>157</ele>
        <time>2010-05-13T08:14:13Z</time>
      </trkpt>
      <trkpt lat="48.63632" lon="2.05022">
        <ele>157</ele>
        <time>2010-05-13T08:14:13Z</time>
      </trkpt>
      <trkpt lat="48.63631" lon="2.05026">
        <ele>157</ele>
        <time>2010-05-13T08:14:14Z</time>
      </trkpt>
      <trkpt lat="48.63631" lon="2.05029">
        <ele>157</ele>
        <time>2010-05-13T08:14:15Z</time>
      </trkpt>
      <trkpt lat="48.63631" lon="2.05031">
        <ele>158</ele>
        <time>2010-05-13T08:14:17Z</time>
      </trkpt>
      <trkpt lat="48.63631" lon="2.05034">
        <ele>158</ele>
        <time>2010-05-13T08:14:17Z</time>
      </trkpt>
      <trkpt lat="48.63631" lon="2.05038">
        <ele>159</ele>
        <time>2010-05-13T08:14:18Z</time>
      </trkpt>
      <trkpt lat="48.63632" lon="2.05041">
        <ele>160</ele>
        <time>2010-05-13T08:14:19Z</time>
      </trkpt>
      <trkpt lat="48.63633" lon="2.05043">
        <ele>160</ele>
        <time>2010-05-13T08:14:20Z</time>
      </trkpt>
      <trkpt lat="48.63634" lon="2.05045">
        <ele>160</ele>
        <time>2010-05-13T08:14:21Z</time>
      </trkpt>
      <trkpt lat="48.63635" lon="2.05048">
        <ele>160</ele>
        <time>2010-05-13T08:14:22Z</time>
      </trkpt>
      <trkpt lat="48.63635" lon="2.05051">
        <ele>160</ele>
        <time>2010-05-13T08:14:23Z</time>
      </trkpt>
      <trkpt lat="48.63636" lon="2.05054">
        <ele>160</ele>
        <time>2010-05-13T08:14:24Z</time>
      </trkpt>
      <trkpt lat="48.63636" lon="2.05056">
        <ele>160</ele>
        <time>2010-05-13T08:14:25Z</time>
      </trkpt>
      <trkpt lat="48.63637" lon="2.05059">
        <ele>160</ele>
        <time>2010-05-13T08:14:26Z</time>
      </trkpt>
      <trkpt lat="48.63637" lon="2.0506">
        <ele>160</ele>
        <time>2010-05-13T08:14:27Z</time>
      </trkpt>
      <trkpt lat="48.63637" lon="2.05062">
        <ele>161</ele>
        <time>2010-05-13T08:14:28Z</time>
      </trkpt>
      <trkpt lat="48.63639" lon="2.05065">
        <ele>161</ele>
        <time>2010-05-13T08:14:30Z</time>
      </trkpt>
      <trkpt lat="48.6364" lon="2.05066">
        <ele>162</ele>
        <time>2010-05-13T08:14:32Z</time>
      </trkpt>
      <trkpt lat="48.63642" lon="2.05066">
        <ele>163</ele>
        <time>2010-05-13T08:14:34Z</time>
      </trkpt>
      <trkpt lat="48.63644" lon="2.05067">
        <ele>166</ele>
        <time>2010-05-13T08:14:37Z</time>
      </trkpt>
      <trkpt lat="48.63645" lon="2.05067">
        <ele>170</ele>
        <time>2010-05-13T08:14:50Z</time>
      </trkpt>
      <trkpt lat="48.63647" lon="2.05068">
        <ele>170</ele>
        <time>2010-05-13T08:14:51Z</time>
      </trkpt>
      <trkpt lat="48.63648" lon="2.05068">
        <ele>170</ele>
        <time>2010-05-13T08:14:53Z</time>
      </trkpt>
      <trkpt lat="48.63646" lon="2.0507">
        <ele>170</ele>
        <time>2010-05-13T08:14:55Z</time>
      </trkpt>
      <trkpt lat="48.63645" lon="2.05069">
        <ele>170</ele>
        <time>2010-05-13T08:14:56Z</time>
      </trkpt>
      <trkpt lat="48.63644" lon="2.05069">
        <ele>170</ele>
        <time>2010-05-13T08:14:57Z</time>
      </trkpt>
      <trkpt lat="48.63642" lon="2.05069">
        <ele>169</ele>
        <time>2010-05-13T08:14:58Z</time>
      </trkpt>
      <trkpt lat="48.63641" lon="2.05073">
        <ele>167</ele>
        <time>2010-05-13T08:15:01Z</time>
      </trkpt>
      <trkpt lat="48.63642" lon="2.05077">
        <ele>166</ele>
        <time>2010-05-13T08:15:01Z</time>
      </trkpt>
      <trkpt lat="48.63644" lon="2.0508">
        <ele>165</ele>
        <time>2010-05-13T08:15:02Z</time>
      </trkpt>
      <trkpt lat="48.63645" lon="2.05084">
        <ele>164</ele>
        <time>2010-05-13T08:15:04Z</time>
      </trkpt>
      <trkpt lat="48.63646" lon="2.05087">
        <ele>164</ele>
        <time>2010-05-13T08:15:04Z</time>
      </trkpt>
      <trkpt lat="48.63646" lon="2.05091">
        <ele>163</ele>
        <time>2010-05-13T08:15:06Z</time>
      </trkpt>
      <trkpt lat="48.63646" lon="2.05094">
        <ele>163</ele>
        <time>2010-05-13T08:15:06Z</time>
      </trkpt>
      <trkpt lat="48.63646" lon="2.05096">
        <ele>163</ele>
        <time>2010-05-13T08:15:07Z</time>
      </trkpt>
      <trkpt lat="48.63647" lon="2.05098">
        <ele>163</ele>
        <time>2010-05-13T08:15:08Z</time>
      </trkpt>
      <trkpt lat="48.63648" lon="2.05101">
        <ele>163</ele>
        <time>2010-05-13T08:15:09Z</time>
      </trkpt>
      <trkpt lat="48.63649" lon="2.05103">
        <ele>163</ele>
        <time>2010-05-13T08:15:11Z</time>
      </trkpt>
      <trkpt lat="48.6365" lon="2.05105">
        <ele>163</ele>
        <time>2010-05-13T08:15:11Z</time>
      </trkpt>
      <trkpt lat="48.63649" lon="2.05108">
        <ele>163</ele>
        <time>2010-05-13T08:15:12Z</time>
      </trkpt>
      <trkpt lat="48.63649" lon="2.05111">
        <ele>163</ele>
        <time>2010-05-13T08:15:14Z</time>
      </trkpt>
      <trkpt lat="48.63649" lon="2.05114">
        <ele>163</ele>
        <time>2010-05-13T08:15:14Z</time>
      </trkpt>
      <trkpt lat="48.6365" lon="2.05115">
        <ele>163</ele>
        <time>2010-05-13T08:15:15Z</time>
      </trkpt>
      <trkpt lat="48.63651" lon="2.05116">
        <ele>163</ele>
        <time>2010-05-13T08:15:16Z</time>
      </trkpt>
      <trkpt lat="48.63652" lon="2.05118">
        <ele>163</ele>
        <time>2010-05-13T08:15:17Z</time>
      </trkpt>
      <trkpt lat="48.63653" lon="2.0512">
        <ele>163</ele>
        <time>2010-05-13T08:15:18Z</time>
      </trkpt>
      <trkpt lat="48.63653" lon="2.05122">
        <ele>163</ele>
        <time>2010-05-13T08:15:20Z</time>
      </trkpt>
      <trkpt lat="48.63655" lon="2.05126">
        <ele>163</ele>
        <time>2010-05-13T08:15:23Z</time>
      </trkpt>
      <trkpt lat="48.63656" lon="2.05128">
        <ele>163</ele>
        <time>2010-05-13T08:15:23Z</time>
      </trkpt>
      <trkpt lat="48.63655" lon="2.05132">
        <ele>163</ele>
        <time>2010-05-13T08:15:24Z</time>
      </trkpt>
      <trkpt lat="48.63656" lon="2.05135">
        <ele>164</ele>
        <time>2010-05-13T08:15:25Z</time>
      </trkpt>
      <trkpt lat="48.63656" lon="2.05137">
        <ele>164</ele>
        <time>2010-05-13T08:15:26Z</time>
      </trkpt>
      <trkpt lat="48.63657" lon="2.05139">
        <ele>164</ele>
        <time>2010-05-13T08:15:28Z</time>
      </trkpt>
      <trkpt lat="48.63658" lon="2.05142">
        <ele>164</ele>
        <time>2010-05-13T08:15:28Z</time>
      </trkpt>
      <trkpt lat="48.63659" lon="2.05145">
        <ele>164</ele>
        <time>2010-05-13T08:15:30Z</time>
      </trkpt>
      <trkpt lat="48.6366" lon="2.05148">
        <ele>164</ele>
        <time>2010-05-13T08:15:30Z</time>
      </trkpt>
      <trkpt lat="48.6366" lon="2.0515">
        <ele>164</ele>
        <time>2010-05-13T08:15:32Z</time>
      </trkpt>
      <trkpt lat="48.63662" lon="2.05154">
        <ele>164</ele>
        <time>2010-05-13T08:15:33Z</time>
      </trkpt>
      <trkpt lat="48.63662" lon="2.05156">
        <ele>164</ele>
        <time>2010-05-13T08:15:34Z</time>
      </trkpt>
      <trkpt lat="48.63663" lon="2.05158">
        <ele>164</ele>
        <time>2010-05-13T08:15:36Z</time>
      </trkpt>
      <trkpt lat="48.63663" lon="2.05161">
        <ele>164</ele>
        <time>2010-05-13T08:15:37Z</time>
      </trkpt>
      <trkpt lat="48.63664" lon="2.05163">
        <ele>164</ele>
        <time>2010-05-13T08:15:38Z</time>
      </trkpt>
      <trkpt lat="48.63663" lon="2.05167">
        <ele>164</ele>
        <time>2010-05-13T08:15:40Z</time>
      </trkpt>
      <trkpt lat="48.63665" lon="2.0517">
        <ele>164</ele>
        <time>2010-05-13T08:15:41Z</time>
      </trkpt>
      <trkpt lat="48.63665" lon="2.05173">
        <ele>164</ele>
        <time>2010-05-13T08:15:43Z</time>
      </trkpt>
      <trkpt lat="48.63665" lon="2.05176">
        <ele>164</ele>
        <time>2010-05-13T08:15:43Z</time>
      </trkpt>
      <trkpt lat="48.63664" lon="2.05179">
        <ele>164</ele>
        <time>2010-05-13T08:15:44Z</time>
      </trkpt>
      <trkpt lat="48.63665" lon="2.05181">
        <ele>164</ele>
        <time>2010-05-13T08:15:46Z</time>
      </trkpt>
      <trkpt lat="48.63665" lon="2.05183">
        <ele>164</ele>
        <time>2010-05-13T08:15:46Z</time>
      </trkpt>
      <trkpt lat="48.63668" lon="2.05187">
        <ele>164</ele>
        <time>2010-05-13T08:15:48Z</time>
      </trkpt>
      <trkpt lat="48.63668" lon="2.05189">
        <ele>164</ele>
        <time>2010-05-13T08:15:49Z</time>
      </trkpt>
      <trkpt lat="48.63669" lon="2.05192">
        <ele>164</ele>
        <time>2010-05-13T08:15:50Z</time>
      </trkpt>
      <trkpt lat="48.6367" lon="2.05194">
        <ele>164</ele>
        <time>2010-05-13T08:15:51Z</time>
      </trkpt>
      <trkpt lat="48.63671" lon="2.05196">
        <ele>164</ele>
        <time>2010-05-13T08:15:52Z</time>
      </trkpt>
      <trkpt lat="48.63671" lon="2.05199">
        <ele>164</ele>
        <time>2010-05-13T08:15:53Z</time>
      </trkpt>
      <trkpt lat="48.63672" lon="2.05201">
        <ele>164</ele>
        <time>2010-05-13T08:15:54Z</time>
      </trkpt>
      <trkpt lat="48.63673" lon="2.05203">
        <ele>164</ele>
        <time>2010-05-13T08:15:55Z</time>
      </trkpt>
      <trkpt lat="48.63672" lon="2.05207">
        <ele>164</ele>
        <time>2010-05-13T08:15:56Z</time>
      </trkpt>
      <trkpt lat="48.63673" lon="2.0521">
        <ele>164</ele>
        <time>2010-05-13T08:15:58Z</time>
      </trkpt>
      <trkpt lat="48.63673" lon="2.05214">
        <ele>164</ele>
        <time>2010-05-13T08:15:59Z</time>
      </trkpt>
      <trkpt lat="48.63675" lon="2.05216">
        <ele>164</ele>
        <time>2010-05-13T08:15:59Z</time>
      </trkpt>
      <trkpt lat="48.63676" lon="2.05217">
        <ele>164</ele>
        <time>2010-05-13T08:16:00Z</time>
      </trkpt>
      <trkpt lat="48.63679" lon="2.05218">
        <ele>164</ele>
        <time>2010-05-13T08:16:04Z</time>
      </trkpt>
      <trkpt lat="48.63682" lon="2.05218">
        <ele>164</ele>
        <time>2010-05-13T08:16:05Z</time>
      </trkpt>
      <trkpt lat="48.63686" lon="2.05214">
        <ele>164</ele>
        <time>2010-05-13T08:16:06Z</time>
      </trkpt>
      <trkpt lat="48.63689" lon="2.05214">
        <ele>164</ele>
        <time>2010-05-13T08:16:07Z</time>
      </trkpt>
      <trkpt lat="48.63691" lon="2.05213">
        <ele>164</ele>
        <time>2010-05-13T08:16:08Z</time>
      </trkpt>
      <trkpt lat="48.63693" lon="2.05211">
        <ele>164</ele>
        <time>2010-05-13T08:16:09Z</time>
      </trkpt>
      <trkpt lat="48.63695" lon="2.0521">
        <ele>164</ele>
        <time>2010-05-13T08:16:10Z</time>
      </trkpt>
      <trkpt lat="48.63697" lon="2.05207">
        <ele>164</ele>
        <time>2010-05-13T08:16:11Z</time>
      </trkpt>
      <trkpt lat="48.63698" lon="2.05204">
        <ele>164</ele>
        <time>2010-05-13T08:16:12Z</time>
      </trkpt>
      <trkpt lat="48.63702" lon="2.052">
        <ele>164</ele>
        <time>2010-05-13T08:16:16Z</time>
      </trkpt>
      <trkpt lat="48.63706" lon="2.05198">
        <ele>164</ele>
        <time>2010-05-13T08:16:16Z</time>
      </trkpt>
      <trkpt lat="48.63709" lon="2.05196">
        <ele>165</ele>
        <time>2010-05-13T08:16:17Z</time>
      </trkpt>
      <trkpt lat="48.63712" lon="2.05195">
        <ele>165</ele>
        <time>2010-05-13T08:16:18Z</time>
      </trkpt>
      <trkpt lat="48.63714" lon="2.05195">
        <ele>165</ele>
        <time>2010-05-13T08:16:19Z</time>
      </trkpt>
      <trkpt lat="48.63717" lon="2.05189">
        <ele>166</ele>
        <time>2010-05-13T08:16:24Z</time>
      </trkpt>
      <trkpt lat="48.63717" lon="2.05185">
        <ele>166</ele>
        <time>2010-05-13T08:16:24Z</time>
      </trkpt>
      <trkpt lat="48.63717" lon="2.05183">
        <ele>166</ele>
        <time>2010-05-13T08:16:25Z</time>
      </trkpt>
      <trkpt lat="48.63718" lon="2.05181">
        <ele>166</ele>
        <time>2010-05-13T08:16:26Z</time>
      </trkpt>
      <trkpt lat="48.6372" lon="2.0518">
        <ele>166</ele>
        <time>2010-05-13T08:16:27Z</time>
      </trkpt>
      <trkpt lat="48.63721" lon="2.05178">
        <ele>166</ele>
        <time>2010-05-13T08:16:28Z</time>
      </trkpt>
      <trkpt lat="48.63724" lon="2.05176">
        <ele>166</ele>
        <time>2010-05-13T08:16:31Z</time>
      </trkpt>
      <trkpt lat="48.63725" lon="2.05176">
        <ele>166</ele>
        <time>2010-05-13T08:16:31Z</time>
      </trkpt>
      <trkpt lat="48.63727" lon="2.05175">
        <ele>166</ele>
        <time>2010-05-13T08:16:33Z</time>
      </trkpt>
      <trkpt lat="48.63728" lon="2.05173">
        <ele>166</ele>
        <time>2010-05-13T08:16:34Z</time>
      </trkpt>
      <trkpt lat="48.63729" lon="2.05169">
        <ele>166</ele>
        <time>2010-05-13T08:16:36Z</time>
      </trkpt>
      <trkpt lat="48.63731" lon="2.05168">
        <ele>165</ele>
        <time>2010-05-13T08:16:37Z</time>
      </trkpt>
      <trkpt lat="48.63732" lon="2.05166">
        <ele>163</ele>
        <time>2010-05-13T08:16:39Z</time>
      </trkpt>
      <trkpt lat="48.63733" lon="2.05166">
        <ele>163</ele>
        <time>2010-05-13T08:16:40Z</time>
      </trkpt>
      <trkpt lat="48.63736" lon="2.05163">
        <ele>163</ele>
        <time>2010-05-13T08:16:44Z</time>
      </trkpt>
      <trkpt lat="48.63738" lon="2.05165">
        <ele>163</ele>
        <time>2010-05-13T08:16:44Z</time>
      </trkpt>
      <trkpt lat="48.6374" lon="2.05162">
        <ele>163</ele>
        <time>2010-05-13T08:16:46Z</time>
      </trkpt>
      <trkpt lat="48.6374" lon="2.05159">
        <ele>163</ele>
        <time>2010-05-13T08:16:47Z</time>
      </trkpt>
      <trkpt lat="48.63742" lon="2.05157">
        <ele>163</ele>
        <time>2010-05-13T08:16:48Z</time>
      </trkpt>
      <trkpt lat="48.63744" lon="2.05155">
        <ele>163</ele>
        <time>2010-05-13T08:16:49Z</time>
      </trkpt>
      <trkpt lat="48.63747" lon="2.05153">
        <ele>163</ele>
        <time>2010-05-13T08:16:50Z</time>
      </trkpt>
      <trkpt lat="48.63748" lon="2.05153">
        <ele>163</ele>
        <time>2010-05-13T08:16:52Z</time>
      </trkpt>
      <trkpt lat="48.63749" lon="2.05151">
        <ele>163</ele>
        <time>2010-05-13T08:16:53Z</time>
      </trkpt>
      <trkpt lat="48.6375" lon="2.05148">
        <ele>163</ele>
        <time>2010-05-13T08:16:54Z</time>
      </trkpt>
      <trkpt lat="48.63752" lon="2.05146">
        <ele>163</ele>
        <time>2010-05-13T08:16:55Z</time>
      </trkpt>
      <trkpt lat="48.63754" lon="2.05144">
        <ele>163</ele>
        <time>2010-05-13T08:16:56Z</time>
      </trkpt>
      <trkpt lat="48.63754" lon="2.05142">
        <ele>163</ele>
        <time>2010-05-13T08:16:57Z</time>
      </trkpt>
      <trkpt lat="48.63756" lon="2.0514">
        <ele>163</ele>
        <time>2010-05-13T08:16:58Z</time>
      </trkpt>
      <trkpt lat="48.63758" lon="2.05138">
        <ele>163</ele>
        <time>2010-05-13T08:17:00Z</time>
      </trkpt>
      <trkpt lat="48.63761" lon="2.05136">
        <ele>163</ele>
        <time>2010-05-13T08:17:01Z</time>
      </trkpt>
      <trkpt lat="48.63763" lon="2.05134">
        <ele>163</ele>
        <time>2010-05-13T08:17:02Z</time>
      </trkpt>
      <trkpt lat="48.63765" lon="2.05133">
        <ele>163</ele>
        <time>2010-05-13T08:17:03Z</time>
      </trkpt>
      <trkpt lat="48.63766" lon="2.0513">
        <ele>163</ele>
        <time>2010-05-13T08:17:04Z</time>
      </trkpt>
      <trkpt lat="48.63768" lon="2.05128">
        <ele>163</ele>
        <time>2010-05-13T08:17:05Z</time>
      </trkpt>
      <trkpt lat="48.6377" lon="2.05128">
        <ele>163</ele>
        <time>2010-05-13T08:17:06Z</time>
      </trkpt>
      <trkpt lat="48.63769" lon="2.05125">
        <ele>163</ele>
        <time>2010-05-13T08:17:08Z</time>
      </trkpt>
      <trkpt lat="48.63769" lon="2.05123">
        <ele>163</ele>
        <time>2010-05-13T08:17:10Z</time>
      </trkpt>
      <trkpt lat="48.63771" lon="2.05121">
        <ele>163</ele>
        <time>2010-05-13T08:17:11Z</time>
      </trkpt>
      <trkpt lat="48.63771" lon="2.05119">
        <ele>164</ele>
        <time>2010-05-13T08:17:12Z</time>
      </trkpt>
      <trkpt lat="48.63781" lon="2.05116">
        <ele>166</ele>
        <time>2010-05-13T08:17:21Z</time>
      </trkpt>
      <trkpt lat="48.63782" lon="2.05118">
        <ele>167</ele>
        <time>2010-05-13T08:17:22Z</time>
      </trkpt>
      <trkpt lat="48.63787" lon="2.05129">
        <ele>173</ele>
        <time>2010-05-13T08:17:29Z</time>
      </trkpt>
      <trkpt lat="48.63789" lon="2.05133">
        <ele>174</ele>
        <time>2010-05-13T08:17:30Z</time>
      </trkpt>
      <trkpt lat="48.63789" lon="2.05135">
        <ele>174</ele>
        <time>2010-05-13T08:17:31Z</time>
      </trkpt>
      <trkpt lat="48.63789" lon="2.05139">
        <ele>174</ele>
        <time>2010-05-13T08:17:32Z</time>
      </trkpt>
      <trkpt lat="48.6379" lon="2.05142">
        <ele>175</ele>
        <time>2010-05-13T08:17:33Z</time>
      </trkpt>
      <trkpt lat="48.6379" lon="2.05144">
        <ele>175</ele>
        <time>2010-05-13T08:17:34Z</time>
      </trkpt>
      <trkpt lat="48.63791" lon="2.05147">
        <ele>176</ele>
        <time>2010-05-13T08:17:35Z</time>
      </trkpt>
      <trkpt lat="48.63791" lon="2.05149">
        <ele>177</ele>
        <time>2010-05-13T08:17:36Z</time>
      </trkpt>
      <trkpt lat="48.63791" lon="2.05152">
        <ele>177</ele>
        <time>2010-05-13T08:17:37Z</time>
      </trkpt>
      <trkpt lat="48.63791" lon="2.05155">
        <ele>178</ele>
        <time>2010-05-13T08:17:38Z</time>
      </trkpt>
      <trkpt lat="48.63791" lon="2.05158">
        <ele>178</ele>
        <time>2010-05-13T08:17:39Z</time>
      </trkpt>
      <trkpt lat="48.63791" lon="2.05161">
        <ele>178</ele>
        <time>2010-05-13T08:17:40Z</time>
      </trkpt>
      <trkpt lat="48.63791" lon="2.05163">
        <ele>178</ele>
        <time>2010-05-13T08:17:42Z</time>
      </trkpt>
      <trkpt lat="48.63792" lon="2.05166">
        <ele>178</ele>
        <time>2010-05-13T08:17:42Z</time>
      </trkpt>
      <trkpt lat="48.63793" lon="2.05167">
        <ele>178</ele>
        <time>2010-05-13T08:17:43Z</time>
      </trkpt>
      <trkpt lat="48.63795" lon="2.05169">
        <ele>178</ele>
        <time>2010-05-13T08:17:44Z</time>
      </trkpt>
      <trkpt lat="48.63796" lon="2.0517">
        <ele>178</ele>
        <time>2010-05-13T08:17:45Z</time>
      </trkpt>
      <trkpt lat="48.63798" lon="2.05172">
        <ele>178</ele>
        <time>2010-05-13T08:17:46Z</time>
      </trkpt>
      <trkpt lat="48.63799" lon="2.05174">
        <ele>178</ele>
        <time>2010-05-13T08:17:47Z</time>
      </trkpt>
      <trkpt lat="48.638" lon="2.05175">
        <ele>178</ele>
        <time>2010-05-13T08:17:48Z</time>
      </trkpt>
      <trkpt lat="48.63802" lon="2.05178">
        <ele>178</ele>
        <time>2010-05-13T08:17:49Z</time>
      </trkpt>
      <trkpt lat="48.63803" lon="2.0518">
        <ele>178</ele>
        <time>2010-05-13T08:17:50Z</time>
      </trkpt>
      <trkpt lat="48.63803" lon="2.05183">
        <ele>178</ele>
        <time>2010-05-13T08:17:51Z</time>
      </trkpt>
      <trkpt lat="48.63803" lon="2.05186">
        <ele>178</ele>
        <time>2010-05-13T08:17:53Z</time>
      </trkpt>
      <trkpt lat="48.63804" lon="2.05189">
        <ele>178</ele>
        <time>2010-05-13T08:17:53Z</time>
      </trkpt>
      <trkpt lat="48.63806" lon="2.05191">
        <ele>178</ele>
        <time>2010-05-13T08:17:54Z</time>
      </trkpt>
      <trkpt lat="48.63807" lon="2.05194">
        <ele>178</ele>
        <time>2010-05-13T08:17:56Z</time>
      </trkpt>
      <trkpt lat="48.63808" lon="2.05198">
        <ele>178</ele>
        <time>2010-05-13T08:17:56Z</time>
      </trkpt>
      <trkpt lat="48.63809" lon="2.052">
        <ele>178</ele>
        <time>2010-05-13T08:17:57Z</time>
      </trkpt>
      <trkpt lat="48.63811" lon="2.05203">
        <ele>178</ele>
        <time>2010-05-13T08:17:58Z</time>
      </trkpt>
      <trkpt lat="48.63813" lon="2.05204">
        <ele>178</ele>
        <time>2010-05-13T08:17:59Z</time>
      </trkpt>
      <trkpt lat="48.63814" lon="2.05206">
        <ele>178</ele>
        <time>2010-05-13T08:18:00Z</time>
      </trkpt>
      <trkpt lat="48.63814" lon="2.05208">
        <ele>178</ele>
        <time>2010-05-13T08:18:01Z</time>
      </trkpt>
      <trkpt lat="48.63815" lon="2.0521">
        <ele>178</ele>
        <time>2010-05-13T08:18:03Z</time>
      </trkpt>
      <trkpt lat="48.63815" lon="2.05213">
        <ele>178</ele>
        <time>2010-05-13T08:18:04Z</time>
      </trkpt>
      <trkpt lat="48.63816" lon="2.05215">
        <ele>178</ele>
        <time>2010-05-13T08:18:05Z</time>
      </trkpt>
      <trkpt lat="48.63817" lon="2.05218">
        <ele>178</ele>
        <time>2010-05-13T08:18:06Z</time>
      </trkpt>
      <trkpt lat="48.63818" lon="2.05219">
        <ele>178</ele>
        <time>2010-05-13T08:18:07Z</time>
      </trkpt>
      <trkpt lat="48.6382" lon="2.0522">
        <ele>178</ele>
        <time>2010-05-13T08:18:08Z</time>
      </trkpt>
      <trkpt lat="48.63821" lon="2.05223">
        <ele>178</ele>
        <time>2010-05-13T08:18:10Z</time>
      </trkpt>
      <trkpt lat="48.63821" lon="2.05225">
        <ele>178</ele>
        <time>2010-05-13T08:18:11Z</time>
      </trkpt>
      <trkpt lat="48.63822" lon="2.05227">
        <ele>178</ele>
        <time>2010-05-13T08:18:12Z</time>
      </trkpt>
      <trkpt lat="48.63822" lon="2.0523">
        <ele>178</ele>
        <time>2010-05-13T08:18:14Z</time>
      </trkpt>
      <trkpt lat="48.63821" lon="2.05232">
        <ele>178</ele>
        <time>2010-05-13T08:18:15Z</time>
      </trkpt>
      <trkpt lat="48.63821" lon="2.05235">
        <ele>178</ele>
        <time>2010-05-13T08:18:16Z</time>
      </trkpt>
      <trkpt lat="48.63822" lon="2.05237">
        <ele>178</ele>
        <time>2010-05-13T08:18:17Z</time>
      </trkpt>
      <trkpt lat="48.63822" lon="2.05241">
        <ele>178</ele>
        <time>2010-05-13T08:18:18Z</time>
      </trkpt>
      <trkpt lat="48.63823" lon="2.05243">
        <ele>178</ele>
        <time>2010-05-13T08:18:19Z</time>
      </trkpt>
      <trkpt lat="48.63825" lon="2.05244">
        <ele>177</ele>
        <time>2010-05-13T08:18:20Z</time>
      </trkpt>
      <trkpt lat="48.63828" lon="2.05244">
        <ele>176</ele>
        <time>2010-05-13T08:18:21Z</time>
      </trkpt>
      <trkpt lat="48.6383" lon="2.05243">
        <ele>176</ele>
        <time>2010-05-13T08:18:23Z</time>
      </trkpt>
      <trkpt lat="48.63831" lon="2.05243">
        <ele>175</ele>
        <time>2010-05-13T08:18:23Z</time>
      </trkpt>
      <trkpt lat="48.63833" lon="2.05244">
        <ele>175</ele>
        <time>2010-05-13T08:18:24Z</time>
      </trkpt>
      <trkpt lat="48.63836" lon="2.05243">
        <ele>175</ele>
        <time>2010-05-13T08:18:25Z</time>
      </trkpt>
      <trkpt lat="48.63839" lon="2.05242">
        <ele>175</ele>
        <time>2010-05-13T08:18:26Z</time>
      </trkpt>
      <trkpt lat="48.63841" lon="2.05242">
        <ele>175</ele>
        <time>2010-05-13T08:18:27Z</time>
      </trkpt>
      <trkpt lat="48.63844" lon="2.05243">
        <ele>175</ele>
        <time>2010-05-13T08:18:29Z</time>
      </trkpt>
      <trkpt lat="48.63846" lon="2.05243">
        <ele>175</ele>
        <time>2010-05-13T08:18:29Z</time>
      </trkpt>
      <trkpt lat="48.63848" lon="2.05243">
        <ele>175</ele>
        <time>2010-05-13T08:18:30Z</time>
      </trkpt>
      <trkpt lat="48.63849" lon="2.05243">
        <ele>175</ele>
        <time>2010-05-13T08:18:31Z</time>
      </trkpt>
      <trkpt lat="48.63851" lon="2.05243">
        <ele>175</ele>
        <time>2010-05-13T08:18:32Z</time>
      </trkpt>
      <trkpt lat="48.63853" lon="2.05244">
        <ele>175</ele>
        <time>2010-05-13T08:18:33Z</time>
      </trkpt>
      <trkpt lat="48.63855" lon="2.05245">
        <ele>175</ele>
        <time>2010-05-13T08:18:35Z</time>
      </trkpt>
      <trkpt lat="48.63857" lon="2.05246">
        <ele>175</ele>
        <time>2010-05-13T08:18:35Z</time>
      </trkpt>
      <trkpt lat="48.63858" lon="2.05246">
        <ele>175</ele>
        <time>2010-05-13T08:18:36Z</time>
      </trkpt>
      <trkpt lat="48.6386" lon="2.05246">
        <ele>175</ele>
        <time>2010-05-13T08:18:37Z</time>
      </trkpt>
      <trkpt lat="48.63862" lon="2.05247">
        <ele>175</ele>
        <time>2010-05-13T08:18:38Z</time>
      </trkpt>
      <trkpt lat="48.63864" lon="2.05247">
        <ele>175</ele>
        <time>2010-05-13T08:18:40Z</time>
      </trkpt>
      <trkpt lat="48.63866" lon="2.05248">
        <ele>174</ele>
        <time>2010-05-13T08:18:40Z</time>
      </trkpt>
      <trkpt lat="48.63868" lon="2.05249">
        <ele>174</ele>
        <time>2010-05-13T08:18:41Z</time>
      </trkpt>
      <trkpt lat="48.6387" lon="2.05249">
        <ele>174</ele>
        <time>2010-05-13T08:18:42Z</time>
      </trkpt>
      <trkpt lat="48.63872" lon="2.0525">
        <ele>174</ele>
        <time>2010-05-13T08:18:43Z</time>
      </trkpt>
      <trkpt lat="48.63874" lon="2.0525">
        <ele>173</ele>
        <time>2010-05-13T08:18:44Z</time>
      </trkpt>
      <trkpt lat="48.63875" lon="2.0525">
        <ele>173</ele>
        <time>2010-05-13T08:18:45Z</time>
      </trkpt>
      <trkpt lat="48.63877" lon="2.0525">
        <ele>173</ele>
        <time>2010-05-13T08:18:46Z</time>
      </trkpt>
      <trkpt lat="48.63879" lon="2.0525">
        <ele>172</ele>
        <time>2010-05-13T08:18:47Z</time>
      </trkpt>
      <trkpt lat="48.63881" lon="2.05251">
        <ele>172</ele>
        <time>2010-05-13T08:18:48Z</time>
      </trkpt>
      <trkpt lat="48.63883" lon="2.0525">
        <ele>172</ele>
        <time>2010-05-13T08:18:50Z</time>
      </trkpt>
      <trkpt lat="48.63885" lon="2.0525">
        <ele>171</ele>
        <time>2010-05-13T08:18:50Z</time>
      </trkpt>
      <trkpt lat="48.63887" lon="2.0525">
        <ele>171</ele>
        <time>2010-05-13T08:18:51Z</time>
      </trkpt>
      <trkpt lat="48.63889" lon="2.0525">
        <ele>171</ele>
        <time>2010-05-13T08:18:52Z</time>
      </trkpt>
      <trkpt lat="48.6389" lon="2.05249">
        <ele>171</ele>
        <time>2010-05-13T08:18:53Z</time>
      </trkpt>
      <trkpt lat="48.63893" lon="2.05249">
        <ele>170</ele>
        <time>2010-05-13T08:18:54Z</time>
      </trkpt>
      <trkpt lat="48.63895" lon="2.05248">
        <ele>170</ele>
        <time>2010-05-13T08:18:56Z</time>
      </trkpt>
      <trkpt lat="48.63897" lon="2.05249">
        <ele>170</ele>
        <time>2010-05-13T08:18:56Z</time>
      </trkpt>
      <trkpt lat="48.63899" lon="2.05249">
        <ele>170</ele>
        <time>2010-05-13T08:18:57Z</time>
      </trkpt>
      <trkpt lat="48.63902" lon="2.0525">
        <ele>170</ele>
        <time>2010-05-13T08:18:58Z</time>
      </trkpt>
      <trkpt lat="48.63904" lon="2.05253">
        <ele>170</ele>
        <time>2010-05-13T08:18:59Z</time>
      </trkpt>
      <trkpt lat="48.63905" lon="2.05255">
        <ele>170</ele>
        <time>2010-05-13T08:19:00Z</time>
      </trkpt>
      <trkpt lat="48.63907" lon="2.05258">
        <ele>170</ele>
        <time>2010-05-13T08:19:01Z</time>
      </trkpt>
      <trkpt lat="48.63908" lon="2.05261">
        <ele>170</ele>
        <time>2010-05-13T08:19:02Z</time>
      </trkpt>
      <trkpt lat="48.63909" lon="2.05264">
        <ele>170</ele>
        <time>2010-05-13T08:19:03Z</time>
      </trkpt>
      <trkpt lat="48.6391" lon="2.05266">
        <ele>170</ele>
        <time>2010-05-13T08:19:04Z</time>
      </trkpt>
      <trkpt lat="48.63912" lon="2.05269">
        <ele>170</ele>
        <time>2010-05-13T08:19:05Z</time>
      </trkpt>
      <trkpt lat="48.63913" lon="2.05273">
        <ele>170</ele>
        <time>2010-05-13T08:19:06Z</time>
      </trkpt>
      <trkpt lat="48.63914" lon="2.05276">
        <ele>169</ele>
        <time>2010-05-13T08:19:07Z</time>
      </trkpt>
      <trkpt lat="48.63915" lon="2.05278">
        <ele>169</ele>
        <time>2010-05-13T08:19:08Z</time>
      </trkpt>
      <trkpt lat="48.63916" lon="2.05281">
        <ele>169</ele>
        <time>2010-05-13T08:19:09Z</time>
      </trkpt>
      <trkpt lat="48.63918" lon="2.05283">
        <ele>169</ele>
        <time>2010-05-13T08:19:10Z</time>
      </trkpt>
      <trkpt lat="48.63919" lon="2.05285">
        <ele>169</ele>
        <time>2010-05-13T08:19:11Z</time>
      </trkpt>
      <trkpt lat="48.63921" lon="2.05288">
        <ele>169</ele>
        <time>2010-05-13T08:19:13Z</time>
      </trkpt>
      <trkpt lat="48.63922" lon="2.05291">
        <ele>169</ele>
        <time>2010-05-13T08:19:14Z</time>
      </trkpt>
      <trkpt lat="48.63923" lon="2.05294">
        <ele>169</ele>
        <time>2010-05-13T08:19:14Z</time>
      </trkpt>
      <trkpt lat="48.63925" lon="2.05298">
        <ele>169</ele>
        <time>2010-05-13T08:19:15Z</time>
      </trkpt>
      <trkpt lat="48.63926" lon="2.053">
        <ele>169</ele>
        <time>2010-05-13T08:19:17Z</time>
      </trkpt>
      <trkpt lat="48.63927" lon="2.05303">
        <ele>169</ele>
        <time>2010-05-13T08:19:17Z</time>
      </trkpt>
      <trkpt lat="48.63928" lon="2.05306">
        <ele>169</ele>
        <time>2010-05-13T08:19:18Z</time>
      </trkpt>
      <trkpt lat="48.63929" lon="2.05309">
        <ele>169</ele>
        <time>2010-05-13T08:19:20Z</time>
      </trkpt>
      <trkpt lat="48.6393" lon="2.05312">
        <ele>169</ele>
        <time>2010-05-13T08:19:20Z</time>
      </trkpt>
      <trkpt lat="48.63931" lon="2.05315">
        <ele>169</ele>
        <time>2010-05-13T08:19:21Z</time>
      </trkpt>
      <trkpt lat="48.63933" lon="2.05319">
        <ele>169</ele>
        <time>2010-05-13T08:19:23Z</time>
      </trkpt>
      <trkpt lat="48.63934" lon="2.05323">
        <ele>169</ele>
        <time>2010-05-13T08:19:23Z</time>
      </trkpt>
      <trkpt lat="48.63936" lon="2.05327">
        <ele>169</ele>
        <time>2010-05-13T08:19:24Z</time>
      </trkpt>
      <trkpt lat="48.63938" lon="2.05332">
        <ele>169</ele>
        <time>2010-05-13T08:19:26Z</time>
      </trkpt>
      <trkpt lat="48.6394" lon="2.05338">
        <ele>169</ele>
        <time>2010-05-13T08:19:26Z</time>
      </trkpt>
      <trkpt lat="48.63942" lon="2.05343">
        <ele>169</ele>
        <time>2010-05-13T08:19:28Z</time>
      </trkpt>
      <trkpt lat="48.63944" lon="2.05348">
        <ele>169</ele>
        <time>2010-05-13T08:19:28Z</time>
      </trkpt>
      <trkpt lat="48.63947" lon="2.05354">
        <ele>169</ele>
        <time>2010-05-13T08:19:29Z</time>
      </trkpt>
      <trkpt lat="48.63949" lon="2.0536">
        <ele>169</ele>
        <time>2010-05-13T08:19:30Z</time>
      </trkpt>
      <trkpt lat="48.63952" lon="2.05366">
        <ele>169</ele>
        <time>2010-05-13T08:19:32Z</time>
      </trkpt>
      <trkpt lat="48.63955" lon="2.05372">
        <ele>169</ele>
        <time>2010-05-13T08:19:33Z</time>
      </trkpt>
      <trkpt lat="48.63958" lon="2.05378">
        <ele>169</ele>
        <time>2010-05-13T08:19:33Z</time>
      </trkpt>
      <trkpt lat="48.6396" lon="2.05383">
        <ele>169</ele>
        <time>2010-05-13T08:19:34Z</time>
      </trkpt>
      <trkpt lat="48.63963" lon="2.05387">
        <ele>169</ele>
        <time>2010-05-13T08:19:35Z</time>
      </trkpt>
      <trkpt lat="48.63964" lon="2.05392">
        <ele>169</ele>
        <time>2010-05-13T08:19:36Z</time>
      </trkpt>
      <trkpt lat="48.63966" lon="2.05396">
        <ele>169</ele>
        <time>2010-05-13T08:19:38Z</time>
      </trkpt>
      <trkpt lat="48.63968" lon="2.054">
        <ele>169</ele>
        <time>2010-05-13T08:19:38Z</time>
      </trkpt>
      <trkpt lat="48.6397" lon="2.05405">
        <ele>169</ele>
        <time>2010-05-13T08:19:39Z</time>
      </trkpt>
      <trkpt lat="48.63972" lon="2.0541">
        <ele>169</ele>
        <time>2010-05-13T08:19:40Z</time>
      </trkpt>
      <trkpt lat="48.63975" lon="2.05415">
        <ele>169</ele>
        <time>2010-05-13T08:19:41Z</time>
      </trkpt>
      <trkpt lat="48.63977" lon="2.0542">
        <ele>169</ele>
        <time>2010-05-13T08:19:43Z</time>
      </trkpt>
      <trkpt lat="48.6398" lon="2.05426">
        <ele>169</ele>
        <time>2010-05-13T08:19:43Z</time>
      </trkpt>
      <trkpt lat="48.63982" lon="2.05431">
        <ele>169</ele>
        <time>2010-05-13T08:19:44Z</time>
      </trkpt>
      <trkpt lat="48.63985" lon="2.05437">
        <ele>169</ele>
        <time>2010-05-13T08:19:45Z</time>
      </trkpt>
      <trkpt lat="48.63987" lon="2.05442">
        <ele>169</ele>
        <time>2010-05-13T08:19:46Z</time>
      </trkpt>
      <trkpt lat="48.6399" lon="2.05447">
        <ele>169</ele>
        <time>2010-05-13T08:19:47Z</time>
      </trkpt>
      <trkpt lat="48.63992" lon="2.05451">
        <ele>169</ele>
        <time>2010-05-13T08:19:49Z</time>
      </trkpt>
      <trkpt lat="48.63994" lon="2.05456">
        <ele>169</ele>
        <time>2010-05-13T08:19:49Z</time>
      </trkpt>
      <trkpt lat="48.63997" lon="2.05461">
        <ele>169</ele>
        <time>2010-05-13T08:19:50Z</time>
      </trkpt>
      <trkpt lat="48.63999" lon="2.05466">
        <ele>169</ele>
        <time>2010-05-13T08:19:51Z</time>
      </trkpt>
      <trkpt lat="48.64002" lon="2.05471">
        <ele>169</ele>
        <time>2010-05-13T08:19:52Z</time>
      </trkpt>
      <trkpt lat="48.64005" lon="2.05477">
        <ele>169</ele>
        <time>2010-05-13T08:19:53Z</time>
      </trkpt>
      <trkpt lat="48.64008" lon="2.05483">
        <ele>169</ele>
        <time>2010-05-13T08:19:55Z</time>
      </trkpt>
      <trkpt lat="48.64012" lon="2.05489">
        <ele>169</ele>
        <time>2010-05-13T08:19:55Z</time>
      </trkpt>
      <trkpt lat="48.64015" lon="2.05494">
        <ele>169</ele>
        <time>2010-05-13T08:19:56Z</time>
      </trkpt>
      <trkpt lat="48.64018" lon="2.055">
        <ele>169</ele>
        <time>2010-05-13T08:19:57Z</time>
      </trkpt>
      <trkpt lat="48.64021" lon="2.05507">
        <ele>169</ele>
        <time>2010-05-13T08:19:58Z</time>
      </trkpt>
      <trkpt lat="48.64024" lon="2.05513">
        <ele>169</ele>
        <time>2010-05-13T08:19:59Z</time>
      </trkpt>
      <trkpt lat="48.64027" lon="2.05519">
        <ele>169</ele>
        <time>2010-05-13T08:20:00Z</time>
      </trkpt>
      <trkpt lat="48.6403" lon="2.05525">
        <ele>169</ele>
        <time>2010-05-13T08:20:01Z</time>
      </trkpt>
      <trkpt lat="48.64033" lon="2.05531">
        <ele>169</ele>
        <time>2010-05-13T08:20:02Z</time>
      </trkpt>
      <trkpt lat="48.64036" lon="2.05537">
        <ele>169</ele>
        <time>2010-05-13T08:20:03Z</time>
      </trkpt>
      <trkpt lat="48.6404" lon="2.05543">
        <ele>169</ele>
        <time>2010-05-13T08:20:04Z</time>
      </trkpt>
      <trkpt lat="48.64043" lon="2.05549">
        <ele>169</ele>
        <time>2010-05-13T08:20:05Z</time>
      </trkpt>
      <trkpt lat="48.64045" lon="2.05554">
        <ele>169</ele>
        <time>2010-05-13T08:20:06Z</time>
      </trkpt>
      <trkpt lat="48.64048" lon="2.0556">
        <ele>169</ele>
        <time>2010-05-13T08:20:07Z</time>
      </trkpt>
      <trkpt lat="48.64051" lon="2.05565">
        <ele>169</ele>
        <time>2010-05-13T08:20:08Z</time>
      </trkpt>
      <trkpt lat="48.64054" lon="2.05571">
        <ele>169</ele>
        <time>2010-05-13T08:20:09Z</time>
      </trkpt>
      <trkpt lat="48.64057" lon="2.05577">
        <ele>169</ele>
        <time>2010-05-13T08:20:11Z</time>
      </trkpt>
      <trkpt lat="48.64061" lon="2.05582">
        <ele>169</ele>
        <time>2010-05-13T08:20:11Z</time>
      </trkpt>
      <trkpt lat="48.64064" lon="2.05588">
        <ele>169</ele>
        <time>2010-05-13T08:20:12Z</time>
      </trkpt>
      <trkpt lat="48.64068" lon="2.05594">
        <ele>169</ele>
        <time>2010-05-13T08:20:14Z</time>
      </trkpt>
      <trkpt lat="48.64071" lon="2.056">
        <ele>169</ele>
        <time>2010-05-13T08:20:14Z</time>
      </trkpt>
      <trkpt lat="48.64075" lon="2.05607">
        <ele>169</ele>
        <time>2010-05-13T08:20:16Z</time>
      </trkpt>
      <trkpt lat="48.64078" lon="2.05612">
        <ele>169</ele>
        <time>2010-05-13T08:20:16Z</time>
      </trkpt>
      <trkpt lat="48.64082" lon="2.05617">
        <ele>169</ele>
        <time>2010-05-13T08:20:17Z</time>
      </trkpt>
      <trkpt lat="48.64085" lon="2.05623">
        <ele>169</ele>
        <time>2010-05-13T08:20:18Z</time>
      </trkpt>
      <trkpt lat="48.64088" lon="2.05628">
        <ele>169</ele>
        <time>2010-05-13T08:20:19Z</time>
      </trkpt>
      <trkpt lat="48.64091" lon="2.05634">
        <ele>169</ele>
        <time>2010-05-13T08:20:20Z</time>
      </trkpt>
      <trkpt lat="48.64094" lon="2.05638">
        <ele>169</ele>
        <time>2010-05-13T08:20:21Z</time>
      </trkpt>
      <trkpt lat="48.64098" lon="2.05643">
        <ele>169</ele>
        <time>2010-05-13T08:20:22Z</time>
      </trkpt>
      <trkpt lat="48.64101" lon="2.05648">
        <ele>169</ele>
        <time>2010-05-13T08:20:23Z</time>
      </trkpt>
      <trkpt lat="48.64104" lon="2.05653">
        <ele>169</ele>
        <time>2010-05-13T08:20:24Z</time>
      </trkpt>
      <trkpt lat="48.64107" lon="2.05658">
        <ele>169</ele>
        <time>2010-05-13T08:20:25Z</time>
      </trkpt>
      <trkpt lat="48.64111" lon="2.05663">
        <ele>169</ele>
        <time>2010-05-13T08:20:27Z</time>
      </trkpt>
      <trkpt lat="48.64114" lon="2.05669">
        <ele>169</ele>
        <time>2010-05-13T08:20:27Z</time>
      </trkpt>
      <trkpt lat="48.64118" lon="2.05675">
        <ele>169</ele>
        <time>2010-05-13T08:20:28Z</time>
      </trkpt>
      <trkpt lat="48.64121" lon="2.0568">
        <ele>169</ele>
        <time>2010-05-13T08:20:29Z</time>
      </trkpt>
      <trkpt lat="48.64124" lon="2.05685">
        <ele>169</ele>
        <time>2010-05-13T08:20:30Z</time>
      </trkpt>
      <trkpt lat="48.64127" lon="2.05689">
        <ele>169</ele>
        <time>2010-05-13T08:20:31Z</time>
      </trkpt>
      <trkpt lat="48.64129" lon="2.05693">
        <ele>169</ele>
        <time>2010-05-13T08:20:32Z</time>
      </trkpt>
      <trkpt lat="48.64132" lon="2.05696">
        <ele>169</ele>
        <time>2010-05-13T08:20:33Z</time>
      </trkpt>
      <trkpt lat="48.64134" lon="2.05699">
        <ele>169</ele>
        <time>2010-05-13T08:20:34Z</time>
      </trkpt>
      <trkpt lat="48.64136" lon="2.05701">
        <ele>169</ele>
        <time>2010-05-13T08:20:35Z</time>
      </trkpt>
      <trkpt lat="48.64138" lon="2.05703">
        <ele>169</ele>
        <time>2010-05-13T08:20:36Z</time>
      </trkpt>
      <trkpt lat="48.6414" lon="2.05705">
        <ele>169</ele>
        <time>2010-05-13T08:20:37Z</time>
      </trkpt>
      <trkpt lat="48.64142" lon="2.05707">
        <ele>169</ele>
        <time>2010-05-13T08:20:38Z</time>
      </trkpt>
      <trkpt lat="48.64144" lon="2.05708">
        <ele>169</ele>
        <time>2010-05-13T08:20:40Z</time>
      </trkpt>
      <trkpt lat="48.64147" lon="2.05709">
        <ele>169</ele>
        <time>2010-05-13T08:20:44Z</time>
      </trkpt>
      <trkpt lat="48.64149" lon="2.05708">
        <ele>169</ele>
        <time>2010-05-13T08:20:44Z</time>
      </trkpt>
      <trkpt lat="48.6415" lon="2.05706">
        <ele>169</ele>
        <time>2010-05-13T08:20:45Z</time>
      </trkpt>
      <trkpt lat="48.64151" lon="2.05704">
        <ele>169</ele>
        <time>2010-05-13T08:20:46Z</time>
      </trkpt>
      <trkpt lat="48.64153" lon="2.05701">
        <ele>169</ele>
        <time>2010-05-13T08:20:48Z</time>
      </trkpt>
      <trkpt lat="48.64155" lon="2.05699">
        <ele>169</ele>
        <time>2010-05-13T08:20:51Z</time>
      </trkpt>
      <trkpt lat="48.64158" lon="2.05696">
        <ele>169</ele>
        <time>2010-05-13T08:20:52Z</time>
      </trkpt>
      <trkpt lat="48.64158" lon="2.05694">
        <ele>169</ele>
        <time>2010-05-13T08:20:53Z</time>
      </trkpt>
      <trkpt lat="48.64159" lon="2.05692">
        <ele>169</ele>
        <time>2010-05-13T08:20:54Z</time>
      </trkpt>
      <trkpt lat="48.6416" lon="2.05691">
        <ele>169</ele>
        <time>2010-05-13T08:20:55Z</time>
      </trkpt>
      <trkpt lat="48.64162" lon="2.05689">
        <ele>169</ele>
        <time>2010-05-13T08:20:56Z</time>
      </trkpt>
      <trkpt lat="48.64163" lon="2.05687">
        <ele>169</ele>
        <time>2010-05-13T08:20:57Z</time>
      </trkpt>
      <trkpt lat="48.64164" lon="2.05685">
        <ele>169</ele>
        <time>2010-05-13T08:20:58Z</time>
      </trkpt>
      <trkpt lat="48.64165" lon="2.05684">
        <ele>169</ele>
        <time>2010-05-13T08:20:59Z</time>
      </trkpt>
      <trkpt lat="48.64167" lon="2.05682">
        <ele>169</ele>
        <time>2010-05-13T08:21:00Z</time>
      </trkpt>
      <trkpt lat="48.64168" lon="2.0568">
        <ele>169</ele>
        <time>2010-05-13T08:21:01Z</time>
      </trkpt>
      <trkpt lat="48.64169" lon="2.05678">
        <ele>169</ele>
        <time>2010-05-13T08:21:02Z</time>
      </trkpt>
      <trkpt lat="48.6417" lon="2.05676">
        <ele>169</ele>
        <time>2010-05-13T08:21:03Z</time>
      </trkpt>
      <trkpt lat="48.64171" lon="2.05674">
        <ele>169</ele>
        <time>2010-05-13T08:21:04Z</time>
      </trkpt>
      <trkpt lat="48.64172" lon="2.05673">
        <ele>169</ele>
        <time>2010-05-13T08:21:05Z</time>
      </trkpt>
      <trkpt lat="48.64174" lon="2.05671">
        <ele>169</ele>
        <time>2010-05-13T08:21:06Z</time>
      </trkpt>
      <trkpt lat="48.64175" lon="2.05669">
        <ele>169</ele>
        <time>2010-05-13T08:21:07Z</time>
      </trkpt>
      <trkpt lat="48.64176" lon="2.05667">
        <ele>169</ele>
        <time>2010-05-13T08:21:08Z</time>
      </trkpt>
      <trkpt lat="48.64178" lon="2.05666">
        <ele>169</ele>
        <time>2010-05-13T08:21:09Z</time>
      </trkpt>
      <trkpt lat="48.64179" lon="2.05664">
        <ele>169</ele>
        <time>2010-05-13T08:21:10Z</time>
      </trkpt>
      <trkpt lat="48.6418" lon="2.05662">
        <ele>169</ele>
        <time>2010-05-13T08:21:12Z</time>
      </trkpt>
      <trkpt lat="48.64181" lon="2.0566">
        <ele>170</ele>
        <time>2010-05-13T08:21:12Z</time>
      </trkpt>
      <trkpt lat="48.64181" lon="2.05658">
        <ele>170</ele>
        <time>2010-05-13T08:21:14Z</time>
      </trkpt>
      <trkpt lat="48.64182" lon="2.05656">
        <ele>170</ele>
        <time>2010-05-13T08:21:14Z</time>
      </trkpt>
      <trkpt lat="48.64183" lon="2.05654">
        <ele>170</ele>
        <time>2010-05-13T08:21:15Z</time>
      </trkpt>
      <trkpt lat="48.64184" lon="2.05652">
        <ele>170</ele>
        <time>2010-05-13T08:21:17Z</time>
      </trkpt>
      <trkpt lat="48.64185" lon="2.0565">
        <ele>170</ele>
        <time>2010-05-13T08:21:17Z</time>
      </trkpt>
      <trkpt lat="48.64186" lon="2.05648">
        <ele>170</ele>
        <time>2010-05-13T08:21:18Z</time>
      </trkpt>
      <trkpt lat="48.64187" lon="2.05646">
        <ele>170</ele>
        <time>2010-05-13T08:21:19Z</time>
      </trkpt>
      <trkpt lat="48.64189" lon="2.05645">
        <ele>170</ele>
        <time>2010-05-13T08:21:20Z</time>
      </trkpt>
      <trkpt lat="48.6419" lon="2.05644">
        <ele>170</ele>
        <time>2010-05-13T08:21:21Z</time>
      </trkpt>
      <trkpt lat="48.64191" lon="2.05642">
        <ele>170</ele>
        <time>2010-05-13T08:21:22Z</time>
      </trkpt>
      <trkpt lat="48.64192" lon="2.0564">
        <ele>170</ele>
        <time>2010-05-13T08:21:23Z</time>
      </trkpt>
      <trkpt lat="48.64193" lon="2.05638">
        <ele>170</ele>
        <time>2010-05-13T08:21:24Z</time>
      </trkpt>
      <trkpt lat="48.64194" lon="2.05636">
        <ele>170</ele>
        <time>2010-05-13T08:21:25Z</time>
      </trkpt>
      <trkpt lat="48.64195" lon="2.05634">
        <ele>170</ele>
        <time>2010-05-13T08:21:26Z</time>
      </trkpt>
      <trkpt lat="48.64196" lon="2.05632">
        <ele>170</ele>
        <time>2010-05-13T08:21:27Z</time>
      </trkpt>
      <trkpt lat="48.64197" lon="2.0563">
        <ele>170</ele>
        <time>2010-05-13T08:21:28Z</time>
      </trkpt>
      <trkpt lat="48.64198" lon="2.05628">
        <ele>170</ele>
        <time>2010-05-13T08:21:29Z</time>
      </trkpt>
      <trkpt lat="48.64199" lon="2.05626">
        <ele>170</ele>
        <time>2010-05-13T08:21:30Z</time>
      </trkpt>
      <trkpt lat="48.642" lon="2.05624">
        <ele>170</ele>
        <time>2010-05-13T08:21:31Z</time>
      </trkpt>
      <trkpt lat="48.642" lon="2.05623">
        <ele>170</ele>
        <time>2010-05-13T08:21:32Z</time>
      </trkpt>
      <trkpt lat="48.64202" lon="2.05621">
        <ele>170</ele>
        <time>2010-05-13T08:21:33Z</time>
      </trkpt>
      <trkpt lat="48.64202" lon="2.05619">
        <ele>170</ele>
        <time>2010-05-13T08:21:34Z</time>
      </trkpt>
      <trkpt lat="48.64203" lon="2.05617">
        <ele>170</ele>
        <time>2010-05-13T08:21:35Z</time>
      </trkpt>
      <trkpt lat="48.64204" lon="2.05615">
        <ele>170</ele>
        <time>2010-05-13T08:21:36Z</time>
      </trkpt>
      <trkpt lat="48.64205" lon="2.05613">
        <ele>170</ele>
        <time>2010-05-13T08:21:38Z</time>
      </trkpt>
      <trkpt lat="48.64207" lon="2.05611">
        <ele>170</ele>
        <time>2010-05-13T08:21:38Z</time>
      </trkpt>
      <trkpt lat="48.64208" lon="2.05609">
        <ele>170</ele>
        <time>2010-05-13T08:21:39Z</time>
      </trkpt>
      <trkpt lat="48.64209" lon="2.05607">
        <ele>170</ele>
        <time>2010-05-13T08:21:40Z</time>
      </trkpt>
      <trkpt lat="48.6421" lon="2.05605">
        <ele>170</ele>
        <time>2010-05-13T08:21:41Z</time>
      </trkpt>
      <trkpt lat="48.64211" lon="2.05604">
        <ele>170</ele>
        <time>2010-05-13T08:21:42Z</time>
      </trkpt>
      <trkpt lat="48.64212" lon="2.05602">
        <ele>170</ele>
        <time>2010-05-13T08:21:43Z</time>
      </trkpt>
      <trkpt lat="48.64214" lon="2.05598">
        <ele>170</ele>
        <time>2010-05-13T08:21:45Z</time>
      </trkpt>
      <trkpt lat="48.64214" lon="2.05597">
        <ele>170</ele>
        <time>2010-05-13T08:21:46Z</time>
      </trkpt>
      <trkpt lat="48.64216" lon="2.05593">
        <ele>170</ele>
        <time>2010-05-13T08:21:48Z</time>
      </trkpt>
      <trkpt lat="48.64217" lon="2.05591">
        <ele>170</ele>
        <time>2010-05-13T08:21:49Z</time>
      </trkpt>
      <trkpt lat="48.64218" lon="2.05589">
        <ele>170</ele>
        <time>2010-05-13T08:21:50Z</time>
      </trkpt>
      <trkpt lat="48.64218" lon="2.05587">
        <ele>170</ele>
        <time>2010-05-13T08:21:51Z</time>
      </trkpt>
      <trkpt lat="48.6422" lon="2.05583">
        <ele>170</ele>
        <time>2010-05-13T08:21:53Z</time>
      </trkpt>
      <trkpt lat="48.64221" lon="2.05582">
        <ele>170</ele>
        <time>2010-05-13T08:21:54Z</time>
      </trkpt>
      <trkpt lat="48.64222" lon="2.0558">
        <ele>170</ele>
        <time>2010-05-13T08:21:55Z</time>
      </trkpt>
      <trkpt lat="48.64223" lon="2.05578">
        <ele>170</ele>
        <time>2010-05-13T08:21:56Z</time>
      </trkpt>
      <trkpt lat="48.64224" lon="2.05577">
        <ele>170</ele>
        <time>2010-05-13T08:21:57Z</time>
      </trkpt>
      <trkpt lat="48.64225" lon="2.05575">
        <ele>170</ele>
        <time>2010-05-13T08:21:59Z</time>
      </trkpt>
      <trkpt lat="48.64226" lon="2.05573">
        <ele>170</ele>
        <time>2010-05-13T08:21:59Z</time>
      </trkpt>
      <trkpt lat="48.64227" lon="2.05571">
        <ele>170</ele>
        <time>2010-05-13T08:22:00Z</time>
      </trkpt>
      <trkpt lat="48.64228" lon="2.05569">
        <ele>170</ele>
        <time>2010-05-13T08:22:01Z</time>
      </trkpt>
      <trkpt lat="48.6423" lon="2.05567">
        <ele>170</ele>
        <time>2010-05-13T08:22:02Z</time>
      </trkpt>
      <trkpt lat="48.64231" lon="2.05565">
        <ele>170</ele>
        <time>2010-05-13T08:22:03Z</time>
      </trkpt>
      <trkpt lat="48.64232" lon="2.05564">
        <ele>170</ele>
        <time>2010-05-13T08:22:04Z</time>
      </trkpt>
      <trkpt lat="48.64234" lon="2.05562">
        <ele>170</ele>
        <time>2010-05-13T08:22:05Z</time>
      </trkpt>
      <trkpt lat="48.64235" lon="2.0556">
        <ele>170</ele>
        <time>2010-05-13T08:22:06Z</time>
      </trkpt>
      <trkpt lat="48.64236" lon="2.05558">
        <ele>170</ele>
        <time>2010-05-13T08:22:07Z</time>
      </trkpt>
      <trkpt lat="48.64237" lon="2.05556">
        <ele>170</ele>
        <time>2010-05-13T08:22:08Z</time>
      </trkpt>
      <trkpt lat="48.64238" lon="2.05554">
        <ele>170</ele>
        <time>2010-05-13T08:22:09Z</time>
      </trkpt>
      <trkpt lat="48.6424" lon="2.05552">
        <ele>170</ele>
        <time>2010-05-13T08:22:10Z</time>
      </trkpt>
      <trkpt lat="48.64241" lon="2.0555">
        <ele>170</ele>
        <time>2010-05-13T08:22:11Z</time>
      </trkpt>
      <trkpt lat="48.64242" lon="2.05548">
        <ele>170</ele>
        <time>2010-05-13T08:22:12Z</time>
      </trkpt>
      <trkpt lat="48.64243" lon="2.05546">
        <ele>170</ele>
        <time>2010-05-13T08:22:13Z</time>
      </trkpt>
      <trkpt lat="48.64244" lon="2.05544">
        <ele>170</ele>
        <time>2010-05-13T08:22:14Z</time>
      </trkpt>
      <trkpt lat="48.64244" lon="2.05542">
        <ele>170</ele>
        <time>2010-05-13T08:22:15Z</time>
      </trkpt>
      <trkpt lat="48.64246" lon="2.05541">
        <ele>170</ele>
        <time>2010-05-13T08:22:16Z</time>
      </trkpt>
      <trkpt lat="48.64248" lon="2.0554">
        <ele>170</ele>
        <time>2010-05-13T08:22:17Z</time>
      </trkpt>
      <trkpt lat="48.64249" lon="2.05538">
        <ele>170</ele>
        <time>2010-05-13T08:22:18Z</time>
      </trkpt>
      <trkpt lat="48.64251" lon="2.05537">
        <ele>170</ele>
        <time>2010-05-13T08:22:19Z</time>
      </trkpt>
      <trkpt lat="48.64252" lon="2.05535">
        <ele>170</ele>
        <time>2010-05-13T08:22:20Z</time>
      </trkpt>
      <trkpt lat="48.64253" lon="2.05533">
        <ele>171</ele>
        <time>2010-05-13T08:22:21Z</time>
      </trkpt>
      <trkpt lat="48.64255" lon="2.05531">
        <ele>171</ele>
        <time>2010-05-13T08:22:22Z</time>
      </trkpt>
      <trkpt lat="48.64256" lon="2.05529">
        <ele>171</ele>
        <time>2010-05-13T08:22:23Z</time>
      </trkpt>
      <trkpt lat="48.64257" lon="2.05527">
        <ele>171</ele>
        <time>2010-05-13T08:22:24Z</time>
      </trkpt>
      <trkpt lat="48.64258" lon="2.05525">
        <ele>172</ele>
        <time>2010-05-13T08:22:25Z</time>
      </trkpt>
      <trkpt lat="48.64259" lon="2.05523">
        <ele>172</ele>
        <time>2010-05-13T08:22:26Z</time>
      </trkpt>
      <trkpt lat="48.6426" lon="2.05521">
        <ele>172</ele>
        <time>2010-05-13T08:22:27Z</time>
      </trkpt>
      <trkpt lat="48.64261" lon="2.05519">
        <ele>172</ele>
        <time>2010-05-13T08:22:28Z</time>
      </trkpt>
      <trkpt lat="48.64262" lon="2.05517">
        <ele>172</ele>
        <time>2010-05-13T08:22:29Z</time>
      </trkpt>
      <trkpt lat="48.64263" lon="2.05515">
        <ele>172</ele>
        <time>2010-05-13T08:22:30Z</time>
      </trkpt>
      <trkpt lat="48.64264" lon="2.05514">
        <ele>172</ele>
        <time>2010-05-13T08:22:31Z</time>
      </trkpt>
      <trkpt lat="48.64265" lon="2.05512">
        <ele>172</ele>
        <time>2010-05-13T08:22:32Z</time>
      </trkpt>
      <trkpt lat="48.64266" lon="2.0551">
        <ele>172</ele>
        <time>2010-05-13T08:22:33Z</time>
      </trkpt>
      <trkpt lat="48.64267" lon="2.05508">
        <ele>172</ele>
        <time>2010-05-13T08:22:34Z</time>
      </trkpt>
      <trkpt lat="48.64268" lon="2.05506">
        <ele>172</ele>
        <time>2010-05-13T08:22:35Z</time>
      </trkpt>
      <trkpt lat="48.6427" lon="2.05502">
        <ele>172</ele>
        <time>2010-05-13T08:22:37Z</time>
      </trkpt>
      <trkpt lat="48.64271" lon="2.055">
        <ele>172</ele>
        <time>2010-05-13T08:22:39Z</time>
      </trkpt>
      <trkpt lat="48.64272" lon="2.05498">
        <ele>172</ele>
        <time>2010-05-13T08:22:39Z</time>
      </trkpt>
      <trkpt lat="48.64273" lon="2.05495">
        <ele>172</ele>
        <time>2010-05-13T08:22:40Z</time>
      </trkpt>
      <trkpt lat="48.64274" lon="2.05493">
        <ele>172</ele>
        <time>2010-05-13T08:22:41Z</time>
      </trkpt>
      <trkpt lat="48.64275" lon="2.05491">
        <ele>172</ele>
        <time>2010-05-13T08:22:42Z</time>
      </trkpt>
      <trkpt lat="48.64276" lon="2.05488">
        <ele>172</ele>
        <time>2010-05-13T08:22:43Z</time>
      </trkpt>
      <trkpt lat="48.64277" lon="2.05486">
        <ele>172</ele>
        <time>2010-05-13T08:22:45Z</time>
      </trkpt>
      <trkpt lat="48.64279" lon="2.05483">
        <ele>172</ele>
        <time>2010-05-13T08:22:45Z</time>
      </trkpt>
      <trkpt lat="48.6428" lon="2.05481">
        <ele>172</ele>
        <time>2010-05-13T08:22:46Z</time>
      </trkpt>
      <trkpt lat="48.64281" lon="2.05479">
        <ele>172</ele>
        <time>2010-05-13T08:22:47Z</time>
      </trkpt>
      <trkpt lat="48.64282" lon="2.05477">
        <ele>172</ele>
        <time>2010-05-13T08:22:48Z</time>
      </trkpt>
      <trkpt lat="48.64282" lon="2.05475">
        <ele>172</ele>
        <time>2010-05-13T08:22:49Z</time>
      </trkpt>
      <trkpt lat="48.64283" lon="2.05472">
        <ele>172</ele>
        <time>2010-05-13T08:22:50Z</time>
      </trkpt>
      <trkpt lat="48.64284" lon="2.05469">
        <ele>172</ele>
        <time>2010-05-13T08:22:51Z</time>
      </trkpt>
      <trkpt lat="48.64285" lon="2.05467">
        <ele>172</ele>
        <time>2010-05-13T08:22:52Z</time>
      </trkpt>
      <trkpt lat="48.64286" lon="2.05464">
        <ele>172</ele>
        <time>2010-05-13T08:22:53Z</time>
      </trkpt>
      <trkpt lat="48.64286" lon="2.05462">
        <ele>172</ele>
        <time>2010-05-13T08:22:54Z</time>
      </trkpt>
      <trkpt lat="48.64287" lon="2.0546">
        <ele>172</ele>
        <time>2010-05-13T08:22:55Z</time>
      </trkpt>
      <trkpt lat="48.64288" lon="2.05458">
        <ele>172</ele>
        <time>2010-05-13T08:22:56Z</time>
      </trkpt>
      <trkpt lat="48.6429" lon="2.05456">
        <ele>172</ele>
        <time>2010-05-13T08:22:57Z</time>
      </trkpt>
      <trkpt lat="48.64291" lon="2.05455">
        <ele>172</ele>
        <time>2010-05-13T08:22:58Z</time>
      </trkpt>
      <trkpt lat="48.64292" lon="2.05452">
        <ele>172</ele>
        <time>2010-05-13T08:22:59Z</time>
      </trkpt>
      <trkpt lat="48.64293" lon="2.0545">
        <ele>172</ele>
        <time>2010-05-13T08:23:00Z</time>
      </trkpt>
      <trkpt lat="48.64294" lon="2.05448">
        <ele>172</ele>
        <time>2010-05-13T08:23:01Z</time>
      </trkpt>
      <trkpt lat="48.64294" lon="2.05445">
        <ele>172</ele>
        <time>2010-05-13T08:23:02Z</time>
      </trkpt>
      <trkpt lat="48.64295" lon="2.05443">
        <ele>172</ele>
        <time>2010-05-13T08:23:03Z</time>
      </trkpt>
      <trkpt lat="48.64296" lon="2.05441">
        <ele>172</ele>
        <time>2010-05-13T08:23:04Z</time>
      </trkpt>
      <trkpt lat="48.64297" lon="2.05439">
        <ele>172</ele>
        <time>2010-05-13T08:23:05Z</time>
      </trkpt>
      <trkpt lat="48.64298" lon="2.05437">
        <ele>172</ele>
        <time>2010-05-13T08:23:06Z</time>
      </trkpt>
      <trkpt lat="48.64299" lon="2.05435">
        <ele>172</ele>
        <time>2010-05-13T08:23:07Z</time>
      </trkpt>
      <trkpt lat="48.643" lon="2.05433">
        <ele>172</ele>
        <time>2010-05-13T08:23:08Z</time>
      </trkpt>
      <trkpt lat="48.643" lon="2.05431">
        <ele>172</ele>
        <time>2010-05-13T08:23:09Z</time>
      </trkpt>
      <trkpt lat="48.64301" lon="2.05429">
        <ele>172</ele>
        <time>2010-05-13T08:23:10Z</time>
      </trkpt>
      <trkpt lat="48.64302" lon="2.05427">
        <ele>172</ele>
        <time>2010-05-13T08:23:11Z</time>
      </trkpt>
      <trkpt lat="48.64302" lon="2.05425">
        <ele>172</ele>
        <time>2010-05-13T08:23:12Z</time>
      </trkpt>
      <trkpt lat="48.64303" lon="2.05422">
        <ele>172</ele>
        <time>2010-05-13T08:23:14Z</time>
      </trkpt>
      <trkpt lat="48.64303" lon="2.0542">
        <ele>172</ele>
        <time>2010-05-13T08:23:14Z</time>
      </trkpt>
      <trkpt lat="48.64304" lon="2.05418">
        <ele>172</ele>
        <time>2010-05-13T08:23:15Z</time>
      </trkpt>
      <trkpt lat="48.64305" lon="2.05416">
        <ele>172</ele>
        <time>2010-05-13T08:23:16Z</time>
      </trkpt>
      <trkpt lat="48.64306" lon="2.05414">
        <ele>172</ele>
        <time>2010-05-13T08:23:17Z</time>
      </trkpt>
      <trkpt lat="48.64306" lon="2.05411">
        <ele>172</ele>
        <time>2010-05-13T08:23:18Z</time>
      </trkpt>
      <trkpt lat="48.64307" lon="2.05408">
        <ele>172</ele>
        <time>2010-05-13T08:23:19Z</time>
      </trkpt>
      <trkpt lat="48.64307" lon="2.05406">
        <ele>172</ele>
        <time>2010-05-13T08:23:20Z</time>
      </trkpt>
      <trkpt lat="48.64307" lon="2.05403">
        <ele>172</ele>
        <time>2010-05-13T08:23:21Z</time>
      </trkpt>
      <trkpt lat="48.64308" lon="2.05401">
        <ele>172</ele>
        <time>2010-05-13T08:23:22Z</time>
      </trkpt>
      <trkpt lat="48.64308" lon="2.05399">
        <ele>172</ele>
        <time>2010-05-13T08:23:23Z</time>
      </trkpt>
      <trkpt lat="48.64309" lon="2.05396">
        <ele>172</ele>
        <time>2010-05-13T08:23:24Z</time>
      </trkpt>
      <trkpt lat="48.6431" lon="2.05394">
        <ele>172</ele>
        <time>2010-05-13T08:23:25Z</time>
      </trkpt>
      <trkpt lat="48.64311" lon="2.05392">
        <ele>172</ele>
        <time>2010-05-13T08:23:26Z</time>
      </trkpt>
      <trkpt lat="48.64312" lon="2.0539">
        <ele>172</ele>
        <time>2010-05-13T08:23:27Z</time>
      </trkpt>
      <trkpt lat="48.64313" lon="2.05388">
        <ele>172</ele>
        <time>2010-05-13T08:23:28Z</time>
      </trkpt>
      <trkpt lat="48.64314" lon="2.05386">
        <ele>172</ele>
        <time>2010-05-13T08:23:29Z</time>
      </trkpt>
      <trkpt lat="48.64315" lon="2.05384">
        <ele>172</ele>
        <time>2010-05-13T08:23:30Z</time>
      </trkpt>
      <trkpt lat="48.64316" lon="2.05381">
        <ele>172</ele>
        <time>2010-05-13T08:23:32Z</time>
      </trkpt>
      <trkpt lat="48.64317" lon="2.05379">
        <ele>172</ele>
        <time>2010-05-13T08:23:33Z</time>
      </trkpt>
      <trkpt lat="48.64318" lon="2.05377">
        <ele>172</ele>
        <time>2010-05-13T08:23:34Z</time>
      </trkpt>
      <trkpt lat="48.64319" lon="2.05375">
        <ele>172</ele>
        <time>2010-05-13T08:23:36Z</time>
      </trkpt>
      <trkpt lat="48.6432" lon="2.05373">
        <ele>172</ele>
        <time>2010-05-13T08:23:36Z</time>
      </trkpt>
      <trkpt lat="48.64321" lon="2.0537">
        <ele>172</ele>
        <time>2010-05-13T08:23:37Z</time>
      </trkpt>
      <trkpt lat="48.64322" lon="2.05368">
        <ele>172</ele>
        <time>2010-05-13T08:23:38Z</time>
      </trkpt>
      <trkpt lat="48.64323" lon="2.05365">
        <ele>172</ele>
        <time>2010-05-13T08:23:39Z</time>
      </trkpt>
      <trkpt lat="48.64324" lon="2.05362">
        <ele>172</ele>
        <time>2010-05-13T08:23:40Z</time>
      </trkpt>
      <trkpt lat="48.64325" lon="2.0536">
        <ele>172</ele>
        <time>2010-05-13T08:23:41Z</time>
      </trkpt>
      <trkpt lat="48.64326" lon="2.05357">
        <ele>172</ele>
        <time>2010-05-13T08:23:42Z</time>
      </trkpt>
      <trkpt lat="48.64326" lon="2.05355">
        <ele>172</ele>
        <time>2010-05-13T08:23:43Z</time>
      </trkpt>
      <trkpt lat="48.64327" lon="2.05352">
        <ele>172</ele>
        <time>2010-05-13T08:23:44Z</time>
      </trkpt>
      <trkpt lat="48.64328" lon="2.05349">
        <ele>172</ele>
        <time>2010-05-13T08:23:45Z</time>
      </trkpt>
      <trkpt lat="48.64329" lon="2.05347">
        <ele>172</ele>
        <time>2010-05-13T08:23:47Z</time>
      </trkpt>
      <trkpt lat="48.6433" lon="2.05345">
        <ele>172</ele>
        <time>2010-05-13T08:23:47Z</time>
      </trkpt>
      <trkpt lat="48.64331" lon="2.05342">
        <ele>172</ele>
        <time>2010-05-13T08:23:48Z</time>
      </trkpt>
      <trkpt lat="48.64332" lon="2.0534">
        <ele>172</ele>
        <time>2010-05-13T08:23:49Z</time>
      </trkpt>
      <trkpt lat="48.64333" lon="2.05339">
        <ele>172</ele>
        <time>2010-05-13T08:23:50Z</time>
      </trkpt>
      <trkpt lat="48.64334" lon="2.05337">
        <ele>172</ele>
        <time>2010-05-13T08:23:51Z</time>
      </trkpt>
      <trkpt lat="48.64335" lon="2.05335">
        <ele>172</ele>
        <time>2010-05-13T08:23:52Z</time>
      </trkpt>
      <trkpt lat="48.64336" lon="2.05332">
        <ele>172</ele>
        <time>2010-05-13T08:23:53Z</time>
      </trkpt>
      <trkpt lat="48.64336" lon="2.0533">
        <ele>172</ele>
        <time>2010-05-13T08:23:54Z</time>
      </trkpt>
      <trkpt lat="48.64337" lon="2.05328">
        <ele>172</ele>
        <time>2010-05-13T08:23:55Z</time>
      </trkpt>
      <trkpt lat="48.64338" lon="2.05325">
        <ele>172</ele>
        <time>2010-05-13T08:23:56Z</time>
      </trkpt>
      <trkpt lat="48.6434" lon="2.05322">
        <ele>172</ele>
        <time>2010-05-13T08:23:58Z</time>
      </trkpt>
      <trkpt lat="48.64341" lon="2.0532">
        <ele>172</ele>
        <time>2010-05-13T08:23:58Z</time>
      </trkpt>
      <trkpt lat="48.64342" lon="2.05317">
        <ele>172</ele>
        <time>2010-05-13T08:23:59Z</time>
      </trkpt>
      <trkpt lat="48.64344" lon="2.05315">
        <ele>172</ele>
        <time>2010-05-13T08:24:00Z</time>
      </trkpt>
      <trkpt lat="48.64345" lon="2.05312">
        <ele>172</ele>
        <time>2010-05-13T08:24:01Z</time>
      </trkpt>
      <trkpt lat="48.64346" lon="2.0531">
        <ele>172</ele>
        <time>2010-05-13T08:24:02Z</time>
      </trkpt>
      <trkpt lat="48.64347" lon="2.05307">
        <ele>172</ele>
        <time>2010-05-13T08:24:03Z</time>
      </trkpt>
      <trkpt lat="48.64348" lon="2.05305">
        <ele>172</ele>
        <time>2010-05-13T08:24:04Z</time>
      </trkpt>
      <trkpt lat="48.64348" lon="2.05303">
        <ele>172</ele>
        <time>2010-05-13T08:24:05Z</time>
      </trkpt>
      <trkpt lat="48.64349" lon="2.05301">
        <ele>172</ele>
        <time>2010-05-13T08:24:06Z</time>
      </trkpt>
      <trkpt lat="48.6435" lon="2.05299">
        <ele>172</ele>
        <time>2010-05-13T08:24:07Z</time>
      </trkpt>
      <trkpt lat="48.64351" lon="2.05296">
        <ele>172</ele>
        <time>2010-05-13T08:24:08Z</time>
      </trkpt>
      <trkpt lat="48.64352" lon="2.05294">
        <ele>172</ele>
        <time>2010-05-13T08:24:09Z</time>
      </trkpt>
      <trkpt lat="48.64353" lon="2.05292">
        <ele>172</ele>
        <time>2010-05-13T08:24:10Z</time>
      </trkpt>
      <trkpt lat="48.64354" lon="2.0529">
        <ele>172</ele>
        <time>2010-05-13T08:24:11Z</time>
      </trkpt>
      <trkpt lat="48.64355" lon="2.05288">
        <ele>172</ele>
        <time>2010-05-13T08:24:12Z</time>
      </trkpt>
      <trkpt lat="48.64356" lon="2.05286">
        <ele>172</ele>
        <time>2010-05-13T08:24:13Z</time>
      </trkpt>
      <trkpt lat="48.64357" lon="2.05284">
        <ele>172</ele>
        <time>2010-05-13T08:24:15Z</time>
      </trkpt>
      <trkpt lat="48.64358" lon="2.05282">
        <ele>172</ele>
        <time>2010-05-13T08:24:15Z</time>
      </trkpt>
      <trkpt lat="48.64359" lon="2.05279">
        <ele>172</ele>
        <time>2010-05-13T08:24:16Z</time>
      </trkpt>
      <trkpt lat="48.6436" lon="2.05277">
        <ele>172</ele>
        <time>2010-05-13T08:24:17Z</time>
      </trkpt>
      <trkpt lat="48.64361" lon="2.05275">
        <ele>172</ele>
        <time>2010-05-13T08:24:18Z</time>
      </trkpt>
      <trkpt lat="48.64361" lon="2.05273">
        <ele>172</ele>
        <time>2010-05-13T08:24:19Z</time>
      </trkpt>
      <trkpt lat="48.64362" lon="2.05271">
        <ele>172</ele>
        <time>2010-05-13T08:24:20Z</time>
      </trkpt>
      <trkpt lat="48.64363" lon="2.05269">
        <ele>172</ele>
        <time>2010-05-13T08:24:21Z</time>
      </trkpt>
      <trkpt lat="48.64364" lon="2.05268">
        <ele>172</ele>
        <time>2010-05-13T08:24:22Z</time>
      </trkpt>
      <trkpt lat="48.64365" lon="2.05266">
        <ele>172</ele>
        <time>2010-05-13T08:24:23Z</time>
      </trkpt>
      <trkpt lat="48.64366" lon="2.05264">
        <ele>172</ele>
        <time>2010-05-13T08:24:24Z</time>
      </trkpt>
      <trkpt lat="48.64368" lon="2.05262">
        <ele>172</ele>
        <time>2010-05-13T08:24:25Z</time>
      </trkpt>
      <trkpt lat="48.64369" lon="2.0526">
        <ele>172</ele>
        <time>2010-05-13T08:24:26Z</time>
      </trkpt>
      <trkpt lat="48.6437" lon="2.05258">
        <ele>172</ele>
        <time>2010-05-13T08:24:27Z</time>
      </trkpt>
      <trkpt lat="48.64371" lon="2.05256">
        <ele>172</ele>
        <time>2010-05-13T08:24:28Z</time>
      </trkpt>
      <trkpt lat="48.64372" lon="2.05254">
        <ele>172</ele>
        <time>2010-05-13T08:24:29Z</time>
      </trkpt>
      <trkpt lat="48.64374" lon="2.05252">
        <ele>172</ele>
        <time>2010-05-13T08:24:30Z</time>
      </trkpt>
      <trkpt lat="48.64375" lon="2.0525">
        <ele>172</ele>
        <time>2010-05-13T08:24:31Z</time>
      </trkpt>
      <trkpt lat="48.64376" lon="2.05249">
        <ele>172</ele>
        <time>2010-05-13T08:24:32Z</time>
      </trkpt>
      <trkpt lat="48.64377" lon="2.05246">
        <ele>172</ele>
        <time>2010-05-13T08:24:33Z</time>
      </trkpt>
      <trkpt lat="48.64377" lon="2.05245">
        <ele>172</ele>
        <time>2010-05-13T08:24:34Z</time>
      </trkpt>
      <trkpt lat="48.64379" lon="2.05242">
        <ele>172</ele>
        <time>2010-05-13T08:24:35Z</time>
      </trkpt>
      <trkpt lat="48.6438" lon="2.05241">
        <ele>171</ele>
        <time>2010-05-13T08:24:36Z</time>
      </trkpt>
      <trkpt lat="48.64381" lon="2.05239">
        <ele>171</ele>
        <time>2010-05-13T08:24:37Z</time>
      </trkpt>
      <trkpt lat="48.64383" lon="2.05236">
        <ele>171</ele>
        <time>2010-05-13T08:24:39Z</time>
      </trkpt>
      <trkpt lat="48.64384" lon="2.05235">
        <ele>171</ele>
        <time>2010-05-13T08:24:40Z</time>
      </trkpt>
      <trkpt lat="48.64386" lon="2.05234">
        <ele>171</ele>
        <time>2010-05-13T08:24:41Z</time>
      </trkpt>
      <trkpt lat="48.64387" lon="2.05232">
        <ele>171</ele>
        <time>2010-05-13T08:24:42Z</time>
      </trkpt>
      <trkpt lat="48.64388" lon="2.0523">
        <ele>171</ele>
        <time>2010-05-13T08:24:43Z</time>
      </trkpt>
      <trkpt lat="48.64389" lon="2.05228">
        <ele>171</ele>
        <time>2010-05-13T08:24:44Z</time>
      </trkpt>
      <trkpt lat="48.64391" lon="2.05225">
        <ele>171</ele>
        <time>2010-05-13T08:24:46Z</time>
      </trkpt>
      <trkpt lat="48.64392" lon="2.05223">
        <ele>171</ele>
        <time>2010-05-13T08:24:47Z</time>
      </trkpt>
      <trkpt lat="48.64394" lon="2.05222">
        <ele>171</ele>
        <time>2010-05-13T08:24:48Z</time>
      </trkpt>
      <trkpt lat="48.64395" lon="2.05221">
        <ele>171</ele>
        <time>2010-05-13T08:24:49Z</time>
      </trkpt>
      <trkpt lat="48.64397" lon="2.05218">
        <ele>171</ele>
        <time>2010-05-13T08:24:51Z</time>
      </trkpt>
      <trkpt lat="48.64399" lon="2.05216">
        <ele>171</ele>
        <time>2010-05-13T08:24:52Z</time>
      </trkpt>
      <trkpt lat="48.644" lon="2.05214">
        <ele>171</ele>
        <time>2010-05-13T08:24:53Z</time>
      </trkpt>
      <trkpt lat="48.64402" lon="2.05212">
        <ele>171</ele>
        <time>2010-05-13T08:24:54Z</time>
      </trkpt>
      <trkpt lat="48.64403" lon="2.05211">
        <ele>171</ele>
        <time>2010-05-13T08:24:55Z</time>
      </trkpt>
      <trkpt lat="48.64405" lon="2.05209">
        <ele>171</ele>
        <time>2010-05-13T08:24:57Z</time>
      </trkpt>
      <trkpt lat="48.64407" lon="2.05208">
        <ele>171</ele>
        <time>2010-05-13T08:24:57Z</time>
      </trkpt>
      <trkpt lat="48.64408" lon="2.05206">
        <ele>171</ele>
        <time>2010-05-13T08:24:58Z</time>
      </trkpt>
      <trkpt lat="48.6441" lon="2.05205">
        <ele>171</ele>
        <time>2010-05-13T08:24:59Z</time>
      </trkpt>
      <trkpt lat="48.64411" lon="2.05203">
        <ele>171</ele>
        <time>2010-05-13T08:25:00Z</time>
      </trkpt>
      <trkpt lat="48.64413" lon="2.05201">
        <ele>171</ele>
        <time>2010-05-13T08:25:01Z</time>
      </trkpt>
      <trkpt lat="48.64414" lon="2.052">
        <ele>171</ele>
        <time>2010-05-13T08:25:02Z</time>
      </trkpt>
      <trkpt lat="48.64415" lon="2.05198">
        <ele>171</ele>
        <time>2010-05-13T08:25:03Z</time>
      </trkpt>
      <trkpt lat="48.64416" lon="2.05197">
        <ele>171</ele>
        <time>2010-05-13T08:25:04Z</time>
      </trkpt>
      <trkpt lat="48.64418" lon="2.05194">
        <ele>171</ele>
        <time>2010-05-13T08:25:06Z</time>
      </trkpt>
      <trkpt lat="48.64419" lon="2.05192">
        <ele>171</ele>
        <time>2010-05-13T08:25:07Z</time>
      </trkpt>
      <trkpt lat="48.64421" lon="2.0519">
        <ele>171</ele>
        <time>2010-05-13T08:25:08Z</time>
      </trkpt>
      <trkpt lat="48.64422" lon="2.05188">
        <ele>171</ele>
        <time>2010-05-13T08:25:09Z</time>
      </trkpt>
      <trkpt lat="48.64424" lon="2.05187">
        <ele>171</ele>
        <time>2010-05-13T08:25:10Z</time>
      </trkpt>
      <trkpt lat="48.64425" lon="2.05186">
        <ele>171</ele>
        <time>2010-05-13T08:25:11Z</time>
      </trkpt>
      <trkpt lat="48.64427" lon="2.05184">
        <ele>171</ele>
        <time>2010-05-13T08:25:12Z</time>
      </trkpt>
      <trkpt lat="48.64428" lon="2.05183">
        <ele>171</ele>
        <time>2010-05-13T08:25:13Z</time>
      </trkpt>
      <trkpt lat="48.64429" lon="2.05181">
        <ele>171</ele>
        <time>2010-05-13T08:25:14Z</time>
      </trkpt>
      <trkpt lat="48.64431" lon="2.0518">
        <ele>171</ele>
        <time>2010-05-13T08:25:15Z</time>
      </trkpt>
      <trkpt lat="48.64432" lon="2.05178">
        <ele>171</ele>
        <time>2010-05-13T08:25:16Z</time>
      </trkpt>
      <trkpt lat="48.64433" lon="2.05177">
        <ele>171</ele>
        <time>2010-05-13T08:25:17Z</time>
      </trkpt>
      <trkpt lat="48.64434" lon="2.05175">
        <ele>171</ele>
        <time>2010-05-13T08:25:18Z</time>
      </trkpt>
      <trkpt lat="48.64436" lon="2.05174">
        <ele>171</ele>
        <time>2010-05-13T08:25:19Z</time>
      </trkpt>
      <trkpt lat="48.64437" lon="2.05172">
        <ele>171</ele>
        <time>2010-05-13T08:25:20Z</time>
      </trkpt>
      <trkpt lat="48.64439" lon="2.05171">
        <ele>171</ele>
        <time>2010-05-13T08:25:21Z</time>
      </trkpt>
      <trkpt lat="48.6444" lon="2.05169">
        <ele>171</ele>
        <time>2010-05-13T08:25:22Z</time>
      </trkpt>
      <trkpt lat="48.64441" lon="2.05167">
        <ele>171</ele>
        <time>2010-05-13T08:25:23Z</time>
      </trkpt>
      <trkpt lat="48.64443" lon="2.05166">
        <ele>171</ele>
        <time>2010-05-13T08:25:24Z</time>
      </trkpt>
      <trkpt lat="48.64445" lon="2.05164">
        <ele>171</ele>
        <time>2010-05-13T08:25:25Z</time>
      </trkpt>
      <trkpt lat="48.64446" lon="2.05162">
        <ele>171</ele>
        <time>2010-05-13T08:25:26Z</time>
      </trkpt>
      <trkpt lat="48.64448" lon="2.0516">
        <ele>171</ele>
        <time>2010-05-13T08:25:27Z</time>
      </trkpt>
      <trkpt lat="48.6445" lon="2.05158">
        <ele>171</ele>
        <time>2010-05-13T08:25:28Z</time>
      </trkpt>
      <trkpt lat="48.64451" lon="2.05156">
        <ele>171</ele>
        <time>2010-05-13T08:25:29Z</time>
      </trkpt>
      <trkpt lat="48.64453" lon="2.05154">
        <ele>171</ele>
        <time>2010-05-13T08:25:30Z</time>
      </trkpt>
      <trkpt lat="48.64455" lon="2.05152">
        <ele>171</ele>
        <time>2010-05-13T08:25:31Z</time>
      </trkpt>
      <trkpt lat="48.64456" lon="2.0515">
        <ele>171</ele>
        <time>2010-05-13T08:25:32Z</time>
      </trkpt>
      <trkpt lat="48.64458" lon="2.05149">
        <ele>171</ele>
        <time>2010-05-13T08:25:33Z</time>
      </trkpt>
      <trkpt lat="48.64459" lon="2.05148">
        <ele>171</ele>
        <time>2010-05-13T08:25:34Z</time>
      </trkpt>
      <trkpt lat="48.64461" lon="2.05148">
        <ele>171</ele>
        <time>2010-05-13T08:25:35Z</time>
      </trkpt>
      <trkpt lat="48.64463" lon="2.05147">
        <ele>171</ele>
        <time>2010-05-13T08:25:36Z</time>
      </trkpt>
      <trkpt lat="48.64464" lon="2.05147">
        <ele>171</ele>
        <time>2010-05-13T08:25:37Z</time>
      </trkpt>
      <trkpt lat="48.64466" lon="2.05147">
        <ele>171</ele>
        <time>2010-05-13T08:25:38Z</time>
      </trkpt>
      <trkpt lat="48.64467" lon="2.05148">
        <ele>171</ele>
        <time>2010-05-13T08:25:41Z</time>
      </trkpt>
      <trkpt lat="48.64467" lon="2.05149">
        <ele>171</ele>
        <time>2010-05-13T08:25:48Z</time>
      </trkpt>
      <trkpt lat="48.64469" lon="2.0515">
        <ele>171</ele>
        <time>2010-05-13T08:25:49Z</time>
      </trkpt>
      <trkpt lat="48.6447" lon="2.0515">
        <ele>171</ele>
        <time>2010-05-13T08:25:50Z</time>
      </trkpt>
      <trkpt lat="48.64471" lon="2.05149">
        <ele>171</ele>
        <time>2010-05-13T08:25:51Z</time>
      </trkpt>
      <trkpt lat="48.64473" lon="2.05148">
        <ele>171</ele>
        <time>2010-05-13T08:25:52Z</time>
      </trkpt>
      <trkpt lat="48.64474" lon="2.05146">
        <ele>171</ele>
        <time>2010-05-13T08:25:53Z</time>
      </trkpt>
      <trkpt lat="48.64475" lon="2.05144">
        <ele>171</ele>
        <time>2010-05-13T08:25:54Z</time>
      </trkpt>
      <trkpt lat="48.64477" lon="2.05142">
        <ele>171</ele>
        <time>2010-05-13T08:25:55Z</time>
      </trkpt>
      <trkpt lat="48.64478" lon="2.0514">
        <ele>171</ele>
        <time>2010-05-13T08:25:56Z</time>
      </trkpt>
      <trkpt lat="48.64478" lon="2.05138">
        <ele>171</ele>
        <time>2010-05-13T08:25:57Z</time>
      </trkpt>
      <trkpt lat="48.64479" lon="2.05136">
        <ele>171</ele>
        <time>2010-05-13T08:25:58Z</time>
      </trkpt>
      <trkpt lat="48.64479" lon="2.05133">
        <ele>171</ele>
        <time>2010-05-13T08:25:59Z</time>
      </trkpt>
      <trkpt lat="48.6448" lon="2.05131">
        <ele>171</ele>
        <time>2010-05-13T08:26:00Z</time>
      </trkpt>
      <trkpt lat="48.64481" lon="2.05129">
        <ele>171</ele>
        <time>2010-05-13T08:26:01Z</time>
      </trkpt>
      <trkpt lat="48.64481" lon="2.05127">
        <ele>171</ele>
        <time>2010-05-13T08:26:02Z</time>
      </trkpt>
      <trkpt lat="48.64482" lon="2.05125">
        <ele>171</ele>
        <time>2010-05-13T08:26:04Z</time>
      </trkpt>
      <trkpt lat="48.64483" lon="2.05123">
        <ele>171</ele>
        <time>2010-05-13T08:26:04Z</time>
      </trkpt>
      <trkpt lat="48.64484" lon="2.05121">
        <ele>171</ele>
        <time>2010-05-13T08:26:05Z</time>
      </trkpt>
      <trkpt lat="48.64485" lon="2.05119">
        <ele>171</ele>
        <time>2010-05-13T08:26:06Z</time>
      </trkpt>
      <trkpt lat="48.64487" lon="2.05116">
        <ele>171</ele>
        <time>2010-05-13T08:26:07Z</time>
      </trkpt>
      <trkpt lat="48.64489" lon="2.05113">
        <ele>171</ele>
        <time>2010-05-13T08:26:08Z</time>
      </trkpt>
      <trkpt lat="48.6449" lon="2.0511">
        <ele>171</ele>
        <time>2010-05-13T08:26:09Z</time>
      </trkpt>
      <trkpt lat="48.64492" lon="2.05107">
        <ele>171</ele>
        <time>2010-05-13T08:26:10Z</time>
      </trkpt>
      <trkpt lat="48.64493" lon="2.05104">
        <ele>171</ele>
        <time>2010-05-13T08:26:11Z</time>
      </trkpt>
      <trkpt lat="48.64494" lon="2.05101">
        <ele>171</ele>
        <time>2010-05-13T08:26:12Z</time>
      </trkpt>
      <trkpt lat="48.64495" lon="2.05099">
        <ele>171</ele>
        <time>2010-05-13T08:26:14Z</time>
      </trkpt>
      <trkpt lat="48.64496" lon="2.05097">
        <ele>171</ele>
        <time>2010-05-13T08:26:15Z</time>
      </trkpt>
      <trkpt lat="48.64497" lon="2.05096">
        <ele>171</ele>
        <time>2010-05-13T08:26:15Z</time>
      </trkpt>
      <trkpt lat="48.64499" lon="2.05094">
        <ele>171</ele>
        <time>2010-05-13T08:26:16Z</time>
      </trkpt>
      <trkpt lat="48.645" lon="2.05092">
        <ele>171</ele>
        <time>2010-05-13T08:26:17Z</time>
      </trkpt>
      <trkpt lat="48.64501" lon="2.0509">
        <ele>171</ele>
        <time>2010-05-13T08:26:18Z</time>
      </trkpt>
      <trkpt lat="48.64503" lon="2.05088">
        <ele>171</ele>
        <time>2010-05-13T08:26:20Z</time>
      </trkpt>
      <trkpt lat="48.64504" lon="2.05086">
        <ele>171</ele>
        <time>2010-05-13T08:26:20Z</time>
      </trkpt>
      <trkpt lat="48.64505" lon="2.05084">
        <ele>171</ele>
        <time>2010-05-13T08:26:21Z</time>
      </trkpt>
      <trkpt lat="48.64506" lon="2.05082">
        <ele>171</ele>
        <time>2010-05-13T08:26:22Z</time>
      </trkpt>
      <trkpt lat="48.64507" lon="2.05081">
        <ele>171</ele>
        <time>2010-05-13T08:26:23Z</time>
      </trkpt>
      <trkpt lat="48.64508" lon="2.05079">
        <ele>171</ele>
        <time>2010-05-13T08:26:24Z</time>
      </trkpt>
      <trkpt lat="48.64509" lon="2.05077">
        <ele>171</ele>
        <time>2010-05-13T08:26:25Z</time>
      </trkpt>
      <trkpt lat="48.6451" lon="2.05075">
        <ele>171</ele>
        <time>2010-05-13T08:26:26Z</time>
      </trkpt>
      <trkpt lat="48.64511" lon="2.05074">
        <ele>171</ele>
        <time>2010-05-13T08:26:27Z</time>
      </trkpt>
      <trkpt lat="48.64511" lon="2.05072">
        <ele>171</ele>
        <time>2010-05-13T08:26:28Z</time>
      </trkpt>
      <trkpt lat="48.64512" lon="2.0507">
        <ele>171</ele>
        <time>2010-05-13T08:26:29Z</time>
      </trkpt>
      <trkpt lat="48.64514" lon="2.05067">
        <ele>171</ele>
        <time>2010-05-13T08:26:31Z</time>
      </trkpt>
      <trkpt lat="48.64515" lon="2.05066">
        <ele>171</ele>
        <time>2010-05-13T08:26:32Z</time>
      </trkpt>
      <trkpt lat="48.64515" lon="2.05064">
        <ele>171</ele>
        <time>2010-05-13T08:26:33Z</time>
      </trkpt>
      <trkpt lat="48.64517" lon="2.05062">
        <ele>171</ele>
        <time>2010-05-13T08:26:34Z</time>
      </trkpt>
      <trkpt lat="48.64518" lon="2.05061">
        <ele>171</ele>
        <time>2010-05-13T08:26:35Z</time>
      </trkpt>
      <trkpt lat="48.64519" lon="2.05059">
        <ele>171</ele>
        <time>2010-05-13T08:26:36Z</time>
      </trkpt>
      <trkpt lat="48.64521" lon="2.05057">
        <ele>171</ele>
        <time>2010-05-13T08:26:37Z</time>
      </trkpt>
      <trkpt lat="48.64523" lon="2.05054">
        <ele>171</ele>
        <time>2010-05-13T08:26:39Z</time>
      </trkpt>
      <trkpt lat="48.64524" lon="2.05053">
        <ele>171</ele>
        <time>2010-05-13T08:26:40Z</time>
      </trkpt>
      <trkpt lat="48.64526" lon="2.05051">
        <ele>171</ele>
        <time>2010-05-13T08:26:42Z</time>
      </trkpt>
      <trkpt lat="48.64528" lon="2.05049">
        <ele>171</ele>
        <time>2010-05-13T08:26:43Z</time>
      </trkpt>
      <trkpt lat="48.64529" lon="2.05047">
        <ele>171</ele>
        <time>2010-05-13T08:26:44Z</time>
      </trkpt>
      <trkpt lat="48.6453" lon="2.05045">
        <ele>171</ele>
        <time>2010-05-13T08:26:45Z</time>
      </trkpt>
      <trkpt lat="48.64532" lon="2.05043">
        <ele>171</ele>
        <time>2010-05-13T08:26:46Z</time>
      </trkpt>
      <trkpt lat="48.64534" lon="2.05041">
        <ele>171</ele>
        <time>2010-05-13T08:26:47Z</time>
      </trkpt>
      <trkpt lat="48.64535" lon="2.05039">
        <ele>171</ele>
        <time>2010-05-13T08:26:48Z</time>
      </trkpt>
      <trkpt lat="48.64536" lon="2.05036">
        <ele>171</ele>
        <time>2010-05-13T08:26:49Z</time>
      </trkpt>
      <trkpt lat="48.64537" lon="2.05034">
        <ele>171</ele>
        <time>2010-05-13T08:26:50Z</time>
      </trkpt>
      <trkpt lat="48.64538" lon="2.05032">
        <ele>171</ele>
        <time>2010-05-13T08:26:51Z</time>
      </trkpt>
      <trkpt lat="48.64539" lon="2.0503">
        <ele>171</ele>
        <time>2010-05-13T08:26:52Z</time>
      </trkpt>
      <trkpt lat="48.6454" lon="2.05028">
        <ele>171</ele>
        <time>2010-05-13T08:26:53Z</time>
      </trkpt>
      <trkpt lat="48.64541" lon="2.05027">
        <ele>171</ele>
        <time>2010-05-13T08:26:54Z</time>
      </trkpt>
      <trkpt lat="48.64543" lon="2.05025">
        <ele>171</ele>
        <time>2010-05-13T08:26:55Z</time>
      </trkpt>
      <trkpt lat="48.64544" lon="2.05023">
        <ele>171</ele>
        <time>2010-05-13T08:26:56Z</time>
      </trkpt>
      <trkpt lat="48.64546" lon="2.05022">
        <ele>171</ele>
        <time>2010-05-13T08:26:57Z</time>
      </trkpt>
      <trkpt lat="48.64547" lon="2.0502">
        <ele>171</ele>
        <time>2010-05-13T08:26:58Z</time>
      </trkpt>
      <trkpt lat="48.64549" lon="2.05017">
        <ele>171</ele>
        <time>2010-05-13T08:26:59Z</time>
      </trkpt>
      <trkpt lat="48.6455" lon="2.05016">
        <ele>171</ele>
        <time>2010-05-13T08:27:00Z</time>
      </trkpt>
      <trkpt lat="48.64551" lon="2.05014">
        <ele>171</ele>
        <time>2010-05-13T08:27:01Z</time>
      </trkpt>
      <trkpt lat="48.64552" lon="2.05012">
        <ele>171</ele>
        <time>2010-05-13T08:27:03Z</time>
      </trkpt>
      <trkpt lat="48.64553" lon="2.0501">
        <ele>171</ele>
        <time>2010-05-13T08:27:04Z</time>
      </trkpt>
      <trkpt lat="48.64553" lon="2.05008">
        <ele>171</ele>
        <time>2010-05-13T08:27:05Z</time>
      </trkpt>
      <trkpt lat="48.64554" lon="2.05006">
        <ele>170</ele>
        <time>2010-05-13T08:27:06Z</time>
      </trkpt>
      <trkpt lat="48.64554" lon="2.05003">
        <ele>170</ele>
        <time>2010-05-13T08:27:07Z</time>
      </trkpt>
      <trkpt lat="48.64555" lon="2.05001">
        <ele>170</ele>
        <time>2010-05-13T08:27:08Z</time>
      </trkpt>
      <trkpt lat="48.64556" lon="2.04998">
        <ele>170</ele>
        <time>2010-05-13T08:27:09Z</time>
      </trkpt>
      <trkpt lat="48.64558" lon="2.04996">
        <ele>170</ele>
        <time>2010-05-13T08:27:10Z</time>
      </trkpt>
      <trkpt lat="48.64559" lon="2.04994">
        <ele>170</ele>
        <time>2010-05-13T08:27:11Z</time>
      </trkpt>
      <trkpt lat="48.64561" lon="2.04992">
        <ele>170</ele>
        <time>2010-05-13T08:27:12Z</time>
      </trkpt>
      <trkpt lat="48.64563" lon="2.0499">
        <ele>170</ele>
        <time>2010-05-13T08:27:13Z</time>
      </trkpt>
      <trkpt lat="48.64564" lon="2.04988">
        <ele>170</ele>
        <time>2010-05-13T08:27:14Z</time>
      </trkpt>
      <trkpt lat="48.64565" lon="2.04986">
        <ele>170</ele>
        <time>2010-05-13T08:27:15Z</time>
      </trkpt>
      <trkpt lat="48.64567" lon="2.04984">
        <ele>170</ele>
        <time>2010-05-13T08:27:16Z</time>
      </trkpt>
      <trkpt lat="48.64569" lon="2.04982">
        <ele>170</ele>
        <time>2010-05-13T08:27:17Z</time>
      </trkpt>
      <trkpt lat="48.64569" lon="2.0498">
        <ele>170</ele>
        <time>2010-05-13T08:27:18Z</time>
      </trkpt>
      <trkpt lat="48.6457" lon="2.04978">
        <ele>170</ele>
        <time>2010-05-13T08:27:19Z</time>
      </trkpt>
      <trkpt lat="48.64571" lon="2.04976">
        <ele>170</ele>
        <time>2010-05-13T08:27:20Z</time>
      </trkpt>
      <trkpt lat="48.64572" lon="2.04974">
        <ele>170</ele>
        <time>2010-05-13T08:27:21Z</time>
      </trkpt>
      <trkpt lat="48.64573" lon="2.04972">
        <ele>170</ele>
        <time>2010-05-13T08:27:22Z</time>
      </trkpt>
      <trkpt lat="48.64574" lon="2.04969">
        <ele>170</ele>
        <time>2010-05-13T08:27:23Z</time>
      </trkpt>
      <trkpt lat="48.64575" lon="2.04967">
        <ele>170</ele>
        <time>2010-05-13T08:27:24Z</time>
      </trkpt>
      <trkpt lat="48.64576" lon="2.04966">
        <ele>170</ele>
        <time>2010-05-13T08:27:25Z</time>
      </trkpt>
      <trkpt lat="48.64578" lon="2.04964">
        <ele>170</ele>
        <time>2010-05-13T08:27:26Z</time>
      </trkpt>
      <trkpt lat="48.64579" lon="2.04962">
        <ele>170</ele>
        <time>2010-05-13T08:27:27Z</time>
      </trkpt>
      <trkpt lat="48.6458" lon="2.0496">
        <ele>170</ele>
        <time>2010-05-13T08:27:28Z</time>
      </trkpt>
      <trkpt lat="48.64581" lon="2.04958">
        <ele>170</ele>
        <time>2010-05-13T08:27:29Z</time>
      </trkpt>
      <trkpt lat="48.64582" lon="2.04956">
        <ele>170</ele>
        <time>2010-05-13T08:27:30Z</time>
      </trkpt>
      <trkpt lat="48.64583" lon="2.04953">
        <ele>170</ele>
        <time>2010-05-13T08:27:31Z</time>
      </trkpt>
      <trkpt lat="48.64584" lon="2.04951">
        <ele>170</ele>
        <time>2010-05-13T08:27:32Z</time>
      </trkpt>
      <trkpt lat="48.64585" lon="2.04949">
        <ele>170</ele>
        <time>2010-05-13T08:27:33Z</time>
      </trkpt>
      <trkpt lat="48.64586" lon="2.04947">
        <ele>170</ele>
        <time>2010-05-13T08:27:34Z</time>
      </trkpt>
      <trkpt lat="48.64587" lon="2.04945">
        <ele>170</ele>
        <time>2010-05-13T08:27:35Z</time>
      </trkpt>
      <trkpt lat="48.64588" lon="2.04943">
        <ele>170</ele>
        <time>2010-05-13T08:27:36Z</time>
      </trkpt>
      <trkpt lat="48.64589" lon="2.04941">
        <ele>170</ele>
        <time>2010-05-13T08:27:37Z</time>
      </trkpt>
      <trkpt lat="48.6459" lon="2.04939">
        <ele>170</ele>
        <time>2010-05-13T08:27:38Z</time>
      </trkpt>
      <trkpt lat="48.64592" lon="2.04937">
        <ele>170</ele>
        <time>2010-05-13T08:27:39Z</time>
      </trkpt>
      <trkpt lat="48.64593" lon="2.04934">
        <ele>170</ele>
        <time>2010-05-13T08:27:40Z</time>
      </trkpt>
      <trkpt lat="48.64595" lon="2.04932">
        <ele>170</ele>
        <time>2010-05-13T08:27:41Z</time>
      </trkpt>
      <trkpt lat="48.64596" lon="2.0493">
        <ele>170</ele>
        <time>2010-05-13T08:27:42Z</time>
      </trkpt>
      <trkpt lat="48.64597" lon="2.04929">
        <ele>170</ele>
        <time>2010-05-13T08:27:43Z</time>
      </trkpt>
      <trkpt lat="48.64598" lon="2.04927">
        <ele>170</ele>
        <time>2010-05-13T08:27:44Z</time>
      </trkpt>
      <trkpt lat="48.64598" lon="2.04925">
        <ele>170</ele>
        <time>2010-05-13T08:27:45Z</time>
      </trkpt>
      <trkpt lat="48.646" lon="2.04923">
        <ele>170</ele>
        <time>2010-05-13T08:27:46Z</time>
      </trkpt>
      <trkpt lat="48.64602" lon="2.0492">
        <ele>170</ele>
        <time>2010-05-13T08:27:47Z</time>
      </trkpt>
      <trkpt lat="48.64603" lon="2.04918">
        <ele>170</ele>
        <time>2010-05-13T08:27:48Z</time>
      </trkpt>
      <trkpt lat="48.64604" lon="2.04915">
        <ele>169</ele>
        <time>2010-05-13T08:27:49Z</time>
      </trkpt>
      <trkpt lat="48.64605" lon="2.04914">
        <ele>169</ele>
        <time>2010-05-13T08:27:50Z</time>
      </trkpt>
      <trkpt lat="48.64606" lon="2.04911">
        <ele>169</ele>
        <time>2010-05-13T08:27:51Z</time>
      </trkpt>
      <trkpt lat="48.64608" lon="2.04909">
        <ele>169</ele>
        <time>2010-05-13T08:27:52Z</time>
      </trkpt>
      <trkpt lat="48.64609" lon="2.04906">
        <ele>169</ele>
        <time>2010-05-13T08:27:53Z</time>
      </trkpt>
      <trkpt lat="48.6461" lon="2.04904">
        <ele>169</ele>
        <time>2010-05-13T08:27:54Z</time>
      </trkpt>
      <trkpt lat="48.64611" lon="2.04902">
        <ele>169</ele>
        <time>2010-05-13T08:27:55Z</time>
      </trkpt>
      <trkpt lat="48.64612" lon="2.049">
        <ele>169</ele>
        <time>2010-05-13T08:27:56Z</time>
      </trkpt>
      <trkpt lat="48.64613" lon="2.04898">
        <ele>169</ele>
        <time>2010-05-13T08:27:58Z</time>
      </trkpt>
      <trkpt lat="48.64615" lon="2.04895">
        <ele>169</ele>
        <time>2010-05-13T08:28:00Z</time>
      </trkpt>
      <trkpt lat="48.64616" lon="2.04892">
        <ele>169</ele>
        <time>2010-05-13T08:28:01Z</time>
      </trkpt>
      <trkpt lat="48.64616" lon="2.0489">
        <ele>169</ele>
        <time>2010-05-13T08:28:02Z</time>
      </trkpt>
      <trkpt lat="48.64618" lon="2.04888">
        <ele>169</ele>
        <time>2010-05-13T08:28:03Z</time>
      </trkpt>
      <trkpt lat="48.64619" lon="2.04886">
        <ele>169</ele>
        <time>2010-05-13T08:28:04Z</time>
      </trkpt>
      <trkpt lat="48.6462" lon="2.04884">
        <ele>169</ele>
        <time>2010-05-13T08:28:05Z</time>
      </trkpt>
      <trkpt lat="48.64621" lon="2.04883">
        <ele>169</ele>
        <time>2010-05-13T08:28:06Z</time>
      </trkpt>
      <trkpt lat="48.64623" lon="2.04881">
        <ele>169</ele>
        <time>2010-05-13T08:28:07Z</time>
      </trkpt>
      <trkpt lat="48.64624" lon="2.0488">
        <ele>169</ele>
        <time>2010-05-13T08:28:08Z</time>
      </trkpt>
      <trkpt lat="48.64626" lon="2.04878">
        <ele>169</ele>
        <time>2010-05-13T08:28:09Z</time>
      </trkpt>
      <trkpt lat="48.64627" lon="2.04877">
        <ele>169</ele>
        <time>2010-05-13T08:28:10Z</time>
      </trkpt>
      <trkpt lat="48.64629" lon="2.04875">
        <ele>169</ele>
        <time>2010-05-13T08:28:11Z</time>
      </trkpt>
      <trkpt lat="48.6463" lon="2.04873">
        <ele>169</ele>
        <time>2010-05-13T08:28:12Z</time>
      </trkpt>
      <trkpt lat="48.64631" lon="2.04871">
        <ele>169</ele>
        <time>2010-05-13T08:28:13Z</time>
      </trkpt>
      <trkpt lat="48.64633" lon="2.0487">
        <ele>169</ele>
        <time>2010-05-13T08:28:14Z</time>
      </trkpt>
      <trkpt lat="48.64634" lon="2.04869">
        <ele>169</ele>
        <time>2010-05-13T08:28:15Z</time>
      </trkpt>
      <trkpt lat="48.64635" lon="2.04868">
        <ele>169</ele>
        <time>2010-05-13T08:28:16Z</time>
      </trkpt>
      <trkpt lat="48.64637" lon="2.04867">
        <ele>169</ele>
        <time>2010-05-13T08:28:17Z</time>
      </trkpt>
      <trkpt lat="48.64638" lon="2.04865">
        <ele>169</ele>
        <time>2010-05-13T08:28:18Z</time>
      </trkpt>
      <trkpt lat="48.64639" lon="2.04863">
        <ele>169</ele>
        <time>2010-05-13T08:28:19Z</time>
      </trkpt>
      <trkpt lat="48.64641" lon="2.04861">
        <ele>169</ele>
        <time>2010-05-13T08:28:21Z</time>
      </trkpt>
      <trkpt lat="48.64642" lon="2.04859">
        <ele>169</ele>
        <time>2010-05-13T08:28:22Z</time>
      </trkpt>
      <trkpt lat="48.64642" lon="2.04858">
        <ele>169</ele>
        <time>2010-05-13T08:28:23Z</time>
      </trkpt>
      <trkpt lat="48.64643" lon="2.04856">
        <ele>169</ele>
        <time>2010-05-13T08:28:24Z</time>
      </trkpt>
      <trkpt lat="48.64645" lon="2.04854">
        <ele>169</ele>
        <time>2010-05-13T08:28:25Z</time>
      </trkpt>
      <trkpt lat="48.64646" lon="2.04852">
        <ele>169</ele>
        <time>2010-05-13T08:28:26Z</time>
      </trkpt>
      <trkpt lat="48.64647" lon="2.04851">
        <ele>169</ele>
        <time>2010-05-13T08:28:27Z</time>
      </trkpt>
      <trkpt lat="48.64647" lon="2.04849">
        <ele>169</ele>
        <time>2010-05-13T08:28:28Z</time>
      </trkpt>
      <trkpt lat="48.64648" lon="2.04847">
        <ele>169</ele>
        <time>2010-05-13T08:28:29Z</time>
      </trkpt>
      <trkpt lat="48.64649" lon="2.04845">
        <ele>169</ele>
        <time>2010-05-13T08:28:30Z</time>
      </trkpt>
      <trkpt lat="48.6465" lon="2.04843">
        <ele>169</ele>
        <time>2010-05-13T08:28:31Z</time>
      </trkpt>
      <trkpt lat="48.64651" lon="2.0484">
        <ele>169</ele>
        <time>2010-05-13T08:28:32Z</time>
      </trkpt>
      <trkpt lat="48.64651" lon="2.04838">
        <ele>169</ele>
        <time>2010-05-13T08:28:33Z</time>
      </trkpt>
      <trkpt lat="48.64652" lon="2.04836">
        <ele>169</ele>
        <time>2010-05-13T08:28:34Z</time>
      </trkpt>
      <trkpt lat="48.64653" lon="2.04833">
        <ele>169</ele>
        <time>2010-05-13T08:28:35Z</time>
      </trkpt>
      <trkpt lat="48.64654" lon="2.0483">
        <ele>169</ele>
        <time>2010-05-13T08:28:36Z</time>
      </trkpt>
      <trkpt lat="48.64653" lon="2.04828">
        <ele>169</ele>
        <time>2010-05-13T08:28:37Z</time>
      </trkpt>
      <trkpt lat="48.64654" lon="2.04825">
        <ele>169</ele>
        <time>2010-05-13T08:28:38Z</time>
      </trkpt>
      <trkpt lat="48.64654" lon="2.04823">
        <ele>169</ele>
        <time>2010-05-13T08:28:39Z</time>
      </trkpt>
      <trkpt lat="48.64654" lon="2.04821">
        <ele>169</ele>
        <time>2010-05-13T08:28:40Z</time>
      </trkpt>
      <trkpt lat="48.64654" lon="2.04819">
        <ele>169</ele>
        <time>2010-05-13T08:28:41Z</time>
      </trkpt>
      <trkpt lat="48.64655" lon="2.04816">
        <ele>169</ele>
        <time>2010-05-13T08:28:42Z</time>
      </trkpt>
      <trkpt lat="48.64655" lon="2.04814">
        <ele>170</ele>
        <time>2010-05-13T08:28:43Z</time>
      </trkpt>
      <trkpt lat="48.64656" lon="2.04812">
        <ele>170</ele>
        <time>2010-05-13T08:28:44Z</time>
      </trkpt>
      <trkpt lat="48.64656" lon="2.0481">
        <ele>170</ele>
        <time>2010-05-13T08:28:45Z</time>
      </trkpt>
      <trkpt lat="48.64657" lon="2.04807">
        <ele>170</ele>
        <time>2010-05-13T08:28:46Z</time>
      </trkpt>
      <trkpt lat="48.64657" lon="2.04805">
        <ele>170</ele>
        <time>2010-05-13T08:28:47Z</time>
      </trkpt>
      <trkpt lat="48.64658" lon="2.04803">
        <ele>171</ele>
        <time>2010-05-13T08:28:48Z</time>
      </trkpt>
      <trkpt lat="48.64659" lon="2.048">
        <ele>171</ele>
        <time>2010-05-13T08:28:49Z</time>
      </trkpt>
      <trkpt lat="48.6466" lon="2.04798">
        <ele>171</ele>
        <time>2010-05-13T08:28:50Z</time>
      </trkpt>
      <trkpt lat="48.6466" lon="2.04795">
        <ele>172</ele>
        <time>2010-05-13T08:28:51Z</time>
      </trkpt>
      <trkpt lat="48.64661" lon="2.04793">
        <ele>173</ele>
        <time>2010-05-13T08:28:52Z</time>
      </trkpt>
      <trkpt lat="48.64661" lon="2.0479">
        <ele>173</ele>
        <time>2010-05-13T08:28:53Z</time>
      </trkpt>
      <trkpt lat="48.64662" lon="2.04787">
        <ele>174</ele>
        <time>2010-05-13T08:28:54Z</time>
      </trkpt>
      <trkpt lat="48.64662" lon="2.04784">
        <ele>174</ele>
        <time>2010-05-13T08:28:55Z</time>
      </trkpt>
      <trkpt lat="48.64663" lon="2.04782">
        <ele>174</ele>
        <time>2010-05-13T08:28:56Z</time>
      </trkpt>
      <trkpt lat="48.64664" lon="2.0478">
        <ele>174</ele>
        <time>2010-05-13T08:28:57Z</time>
      </trkpt>
      <trkpt lat="48.64664" lon="2.04777">
        <ele>174</ele>
        <time>2010-05-13T08:28:58Z</time>
      </trkpt>
      <trkpt lat="48.64665" lon="2.04774">
        <ele>174</ele>
        <time>2010-05-13T08:28:59Z</time>
      </trkpt>
      <trkpt lat="48.64666" lon="2.04771">
        <ele>174</ele>
        <time>2010-05-13T08:29:00Z</time>
      </trkpt>
      <trkpt lat="48.64667" lon="2.04768">
        <ele>174</ele>
        <time>2010-05-13T08:29:01Z</time>
      </trkpt>
      <trkpt lat="48.64668" lon="2.04766">
        <ele>174</ele>
        <time>2010-05-13T08:29:02Z</time>
      </trkpt>
      <trkpt lat="48.64669" lon="2.04763">
        <ele>174</ele>
        <time>2010-05-13T08:29:03Z</time>
      </trkpt>
      <trkpt lat="48.6467" lon="2.04761">
        <ele>175</ele>
        <time>2010-05-13T08:29:04Z</time>
      </trkpt>
      <trkpt lat="48.64671" lon="2.04758">
        <ele>175</ele>
        <time>2010-05-13T08:29:05Z</time>
      </trkpt>
      <trkpt lat="48.64671" lon="2.04756">
        <ele>175</ele>
        <time>2010-05-13T08:29:06Z</time>
      </trkpt>
      <trkpt lat="48.64672" lon="2.04753">
        <ele>175</ele>
        <time>2010-05-13T08:29:07Z</time>
      </trkpt>
      <trkpt lat="48.64673" lon="2.0475">
        <ele>175</ele>
        <time>2010-05-13T08:29:08Z</time>
      </trkpt>
      <trkpt lat="48.64673" lon="2.04747">
        <ele>175</ele>
        <time>2010-05-13T08:29:09Z</time>
      </trkpt>
      <trkpt lat="48.64672" lon="2.04744">
        <ele>175</ele>
        <time>2010-05-13T08:29:10Z</time>
      </trkpt>
      <trkpt lat="48.64672" lon="2.04741">
        <ele>175</ele>
        <time>2010-05-13T08:29:11Z</time>
      </trkpt>
      <trkpt lat="48.64673" lon="2.04739">
        <ele>175</ele>
        <time>2010-05-13T08:29:12Z</time>
      </trkpt>
      <trkpt lat="48.64673" lon="2.04736">
        <ele>175</ele>
        <time>2010-05-13T08:29:13Z</time>
      </trkpt>
      <trkpt lat="48.64673" lon="2.04734">
        <ele>174</ele>
        <time>2010-05-13T08:29:14Z</time>
      </trkpt>
      <trkpt lat="48.64674" lon="2.04731">
        <ele>173</ele>
        <time>2010-05-13T08:29:15Z</time>
      </trkpt>
      <trkpt lat="48.64675" lon="2.04729">
        <ele>173</ele>
        <time>2010-05-13T08:29:16Z</time>
      </trkpt>
      <trkpt lat="48.64676" lon="2.04726">
        <ele>173</ele>
        <time>2010-05-13T08:29:17Z</time>
      </trkpt>
      <trkpt lat="48.64676" lon="2.04724">
        <ele>172</ele>
        <time>2010-05-13T08:29:18Z</time>
      </trkpt>
      <trkpt lat="48.64677" lon="2.04722">
        <ele>172</ele>
        <time>2010-05-13T08:29:19Z</time>
      </trkpt>
      <trkpt lat="48.64677" lon="2.04719">
        <ele>172</ele>
        <time>2010-05-13T08:29:20Z</time>
      </trkpt>
      <trkpt lat="48.64677" lon="2.04716">
        <ele>172</ele>
        <time>2010-05-13T08:29:21Z</time>
      </trkpt>
      <trkpt lat="48.64678" lon="2.04714">
        <ele>172</ele>
        <time>2010-05-13T08:29:22Z</time>
      </trkpt>
      <trkpt lat="48.64678" lon="2.04712">
        <ele>171</ele>
        <time>2010-05-13T08:29:23Z</time>
      </trkpt>
      <trkpt lat="48.64679" lon="2.0471">
        <ele>171</ele>
        <time>2010-05-13T08:29:24Z</time>
      </trkpt>
      <trkpt lat="48.64679" lon="2.04707">
        <ele>170</ele>
        <time>2010-05-13T08:29:25Z</time>
      </trkpt>
      <trkpt lat="48.6468" lon="2.04705">
        <ele>170</ele>
        <time>2010-05-13T08:29:26Z</time>
      </trkpt>
      <trkpt lat="48.64681" lon="2.04702">
        <ele>169</ele>
        <time>2010-05-13T08:29:27Z</time>
      </trkpt>
      <trkpt lat="48.64681" lon="2.047">
        <ele>169</ele>
        <time>2010-05-13T08:29:28Z</time>
      </trkpt>
      <trkpt lat="48.64682" lon="2.04698">
        <ele>168</ele>
        <time>2010-05-13T08:29:29Z</time>
      </trkpt>
      <trkpt lat="48.64682" lon="2.04695">
        <ele>168</ele>
        <time>2010-05-13T08:29:30Z</time>
      </trkpt>
      <trkpt lat="48.64683" lon="2.04692">
        <ele>168</ele>
        <time>2010-05-13T08:29:31Z</time>
      </trkpt>
      <trkpt lat="48.64683" lon="2.04689">
        <ele>168</ele>
        <time>2010-05-13T08:29:32Z</time>
      </trkpt>
      <trkpt lat="48.64684" lon="2.04687">
        <ele>168</ele>
        <time>2010-05-13T08:29:33Z</time>
      </trkpt>
      <trkpt lat="48.64685" lon="2.04684">
        <ele>168</ele>
        <time>2010-05-13T08:29:34Z</time>
      </trkpt>
      <trkpt lat="48.64686" lon="2.04682">
        <ele>168</ele>
        <time>2010-05-13T08:29:35Z</time>
      </trkpt>
      <trkpt lat="48.64687" lon="2.04679">
        <ele>168</ele>
        <time>2010-05-13T08:29:36Z</time>
      </trkpt>
      <trkpt lat="48.64687" lon="2.04677">
        <ele>168</ele>
        <time>2010-05-13T08:29:37Z</time>
      </trkpt>
      <trkpt lat="48.64688" lon="2.04674">
        <ele>168</ele>
        <time>2010-05-13T08:29:38Z</time>
      </trkpt>
      <trkpt lat="48.64689" lon="2.04672">
        <ele>168</ele>
        <time>2010-05-13T08:29:39Z</time>
      </trkpt>
      <trkpt lat="48.64689" lon="2.0467">
        <ele>168</ele>
        <time>2010-05-13T08:29:40Z</time>
      </trkpt>
      <trkpt lat="48.6469" lon="2.04668">
        <ele>168</ele>
        <time>2010-05-13T08:29:41Z</time>
      </trkpt>
      <trkpt lat="48.64691" lon="2.04666">
        <ele>168</ele>
        <time>2010-05-13T08:29:42Z</time>
      </trkpt>
      <trkpt lat="48.64691" lon="2.04663">
        <ele>168</ele>
        <time>2010-05-13T08:29:43Z</time>
      </trkpt>
      <trkpt lat="48.64692" lon="2.04661">
        <ele>168</ele>
        <time>2010-05-13T08:29:44Z</time>
      </trkpt>
      <trkpt lat="48.64693" lon="2.04659">
        <ele>168</ele>
        <time>2010-05-13T08:29:45Z</time>
      </trkpt>
      <trkpt lat="48.64693" lon="2.04657">
        <ele>168</ele>
        <time>2010-05-13T08:29:46Z</time>
      </trkpt>
      <trkpt lat="48.64694" lon="2.04654">
        <ele>168</ele>
        <time>2010-05-13T08:29:47Z</time>
      </trkpt>
      <trkpt lat="48.64694" lon="2.04652">
        <ele>168</ele>
        <time>2010-05-13T08:29:48Z</time>
      </trkpt>
      <trkpt lat="48.64695" lon="2.0465">
        <ele>168</ele>
        <time>2010-05-13T08:29:49Z</time>
      </trkpt>
      <trkpt lat="48.64696" lon="2.04648">
        <ele>168</ele>
        <time>2010-05-13T08:29:50Z</time>
      </trkpt>
      <trkpt lat="48.64696" lon="2.04646">
        <ele>168</ele>
        <time>2010-05-13T08:29:51Z</time>
      </trkpt>
      <trkpt lat="48.64697" lon="2.04644">
        <ele>168</ele>
        <time>2010-05-13T08:29:52Z</time>
      </trkpt>
      <trkpt lat="48.64698" lon="2.04642">
        <ele>168</ele>
        <time>2010-05-13T08:29:53Z</time>
      </trkpt>
      <trkpt lat="48.64698" lon="2.04639">
        <ele>168</ele>
        <time>2010-05-13T08:29:54Z</time>
      </trkpt>
      <trkpt lat="48.64699" lon="2.04637">
        <ele>168</ele>
        <time>2010-05-13T08:29:55Z</time>
      </trkpt>
      <trkpt lat="48.64701" lon="2.04635">
        <ele>168</ele>
        <time>2010-05-13T08:29:56Z</time>
      </trkpt>
      <trkpt lat="48.64703" lon="2.04634">
        <ele>168</ele>
        <time>2010-05-13T08:29:57Z</time>
      </trkpt>
      <trkpt lat="48.64705" lon="2.04632">
        <ele>168</ele>
        <time>2010-05-13T08:29:58Z</time>
      </trkpt>
      <trkpt lat="48.64706" lon="2.04631">
        <ele>168</ele>
        <time>2010-05-13T08:29:59Z</time>
      </trkpt>
      <trkpt lat="48.64708" lon="2.04631">
        <ele>168</ele>
        <time>2010-05-13T08:30:00Z</time>
      </trkpt>
      <trkpt lat="48.64711" lon="2.04631">
        <ele>168</ele>
        <time>2010-05-13T08:30:01Z</time>
      </trkpt>
      <trkpt lat="48.64712" lon="2.04631">
        <ele>168</ele>
        <time>2010-05-13T08:30:02Z</time>
      </trkpt>
      <trkpt lat="48.64714" lon="2.04632">
        <ele>168</ele>
        <time>2010-05-13T08:30:03Z</time>
      </trkpt>
      <trkpt lat="48.64716" lon="2.04632">
        <ele>168</ele>
        <time>2010-05-13T08:30:04Z</time>
      </trkpt>
      <trkpt lat="48.64717" lon="2.04633">
        <ele>168</ele>
        <time>2010-05-13T08:30:05Z</time>
      </trkpt>
      <trkpt lat="48.64719" lon="2.04633">
        <ele>168</ele>
        <time>2010-05-13T08:30:06Z</time>
      </trkpt>
      <trkpt lat="48.64721" lon="2.04634">
        <ele>168</ele>
        <time>2010-05-13T08:30:07Z</time>
      </trkpt>
      <trkpt lat="48.64722" lon="2.04634">
        <ele>168</ele>
        <time>2010-05-13T08:30:08Z</time>
      </trkpt>
      <trkpt lat="48.64724" lon="2.04634">
        <ele>168</ele>
        <time>2010-05-13T08:30:09Z</time>
      </trkpt>
      <trkpt lat="48.64726" lon="2.04634">
        <ele>168</ele>
        <time>2010-05-13T08:30:10Z</time>
      </trkpt>
      <trkpt lat="48.64728" lon="2.04634">
        <ele>168</ele>
        <time>2010-05-13T08:30:11Z</time>
      </trkpt>
      <trkpt lat="48.6473" lon="2.04634">
        <ele>168</ele>
        <time>2010-05-13T08:30:12Z</time>
      </trkpt>
      <trkpt lat="48.64732" lon="2.04634">
        <ele>168</ele>
        <time>2010-05-13T08:30:13Z</time>
      </trkpt>
      <trkpt lat="48.64733" lon="2.04635">
        <ele>168</ele>
        <time>2010-05-13T08:30:14Z</time>
      </trkpt>
      <trkpt lat="48.64735" lon="2.04635">
        <ele>168</ele>
        <time>2010-05-13T08:30:15Z</time>
      </trkpt>
      <trkpt lat="48.64737" lon="2.04635">
        <ele>168</ele>
        <time>2010-05-13T08:30:16Z</time>
      </trkpt>
      <trkpt lat="48.64738" lon="2.04636">
        <ele>168</ele>
        <time>2010-05-13T08:30:17Z</time>
      </trkpt>
      <trkpt lat="48.6474" lon="2.04636">
        <ele>168</ele>
        <time>2010-05-13T08:30:18Z</time>
      </trkpt>
      <trkpt lat="48.64741" lon="2.04637">
        <ele>168</ele>
        <time>2010-05-13T08:30:19Z</time>
      </trkpt>
      <trkpt lat="48.64743" lon="2.04637">
        <ele>168</ele>
        <time>2010-05-13T08:30:20Z</time>
      </trkpt>
      <trkpt lat="48.64745" lon="2.04638">
        <ele>168</ele>
        <time>2010-05-13T08:30:21Z</time>
      </trkpt>
      <trkpt lat="48.64747" lon="2.04639">
        <ele>168</ele>
        <time>2010-05-13T08:30:22Z</time>
      </trkpt>
      <trkpt lat="48.64748" lon="2.04639">
        <ele>168</ele>
        <time>2010-05-13T08:30:23Z</time>
      </trkpt>
      <trkpt lat="48.6475" lon="2.0464">
        <ele>168</ele>
        <time>2010-05-13T08:30:24Z</time>
      </trkpt>
      <trkpt lat="48.64751" lon="2.0464">
        <ele>168</ele>
        <time>2010-05-13T08:30:25Z</time>
      </trkpt>
      <trkpt lat="48.64753" lon="2.0464">
        <ele>168</ele>
        <time>2010-05-13T08:30:26Z</time>
      </trkpt>
      <trkpt lat="48.64754" lon="2.0464">
        <ele>168</ele>
        <time>2010-05-13T08:30:27Z</time>
      </trkpt>
      <trkpt lat="48.64756" lon="2.0464">
        <ele>168</ele>
        <time>2010-05-13T08:30:28Z</time>
      </trkpt>
      <trkpt lat="48.64758" lon="2.0464">
        <ele>168</ele>
        <time>2010-05-13T08:30:29Z</time>
      </trkpt>
      <trkpt lat="48.64759" lon="2.0464">
        <ele>168</ele>
        <time>2010-05-13T08:30:30Z</time>
      </trkpt>
      <trkpt lat="48.64761" lon="2.0464">
        <ele>168</ele>
        <time>2010-05-13T08:30:31Z</time>
      </trkpt>
      <trkpt lat="48.64762" lon="2.04641">
        <ele>168</ele>
        <time>2010-05-13T08:30:32Z</time>
      </trkpt>
      <trkpt lat="48.64764" lon="2.04641">
        <ele>168</ele>
        <time>2010-05-13T08:30:33Z</time>
      </trkpt>
      <trkpt lat="48.64765" lon="2.04642">
        <ele>168</ele>
        <time>2010-05-13T08:30:34Z</time>
      </trkpt>
      <trkpt lat="48.64767" lon="2.04642">
        <ele>168</ele>
        <time>2010-05-13T08:30:35Z</time>
      </trkpt>
      <trkpt lat="48.64769" lon="2.04642">
        <ele>168</ele>
        <time>2010-05-13T08:30:36Z</time>
      </trkpt>
      <trkpt lat="48.6477" lon="2.04643">
        <ele>168</ele>
        <time>2010-05-13T08:30:37Z</time>
      </trkpt>
      <trkpt lat="48.64772" lon="2.04644">
        <ele>168</ele>
        <time>2010-05-13T08:30:38Z</time>
      </trkpt>
      <trkpt lat="48.64774" lon="2.04644">
        <ele>168</ele>
        <time>2010-05-13T08:30:39Z</time>
      </trkpt>
      <trkpt lat="48.64775" lon="2.04645">
        <ele>168</ele>
        <time>2010-05-13T08:30:40Z</time>
      </trkpt>
      <trkpt lat="48.64777" lon="2.04645">
        <ele>168</ele>
        <time>2010-05-13T08:30:41Z</time>
      </trkpt>
      <trkpt lat="48.64779" lon="2.04646">
        <ele>168</ele>
        <time>2010-05-13T08:30:42Z</time>
      </trkpt>
      <trkpt lat="48.64781" lon="2.04646">
        <ele>168</ele>
        <time>2010-05-13T08:30:43Z</time>
      </trkpt>
      <trkpt lat="48.64782" lon="2.04646">
        <ele>168</ele>
        <time>2010-05-13T08:30:44Z</time>
      </trkpt>
      <trkpt lat="48.64784" lon="2.04646">
        <ele>168</ele>
        <time>2010-05-13T08:30:45Z</time>
      </trkpt>
      <trkpt lat="48.64786" lon="2.04647">
        <ele>168</ele>
        <time>2010-05-13T08:30:46Z</time>
      </trkpt>
      <trkpt lat="48.64787" lon="2.04648">
        <ele>168</ele>
        <time>2010-05-13T08:30:47Z</time>
      </trkpt>
      <trkpt lat="48.64789" lon="2.04648">
        <ele>168</ele>
        <time>2010-05-13T08:30:48Z</time>
      </trkpt>
      <trkpt lat="48.64791" lon="2.04649">
        <ele>168</ele>
        <time>2010-05-13T08:30:49Z</time>
      </trkpt>
      <trkpt lat="48.64793" lon="2.04649">
        <ele>168</ele>
        <time>2010-05-13T08:30:50Z</time>
      </trkpt>
      <trkpt lat="48.64794" lon="2.04649">
        <ele>168</ele>
        <time>2010-05-13T08:30:51Z</time>
      </trkpt>
      <trkpt lat="48.64796" lon="2.0465">
        <ele>168</ele>
        <time>2010-05-13T08:30:52Z</time>
      </trkpt>
      <trkpt lat="48.64798" lon="2.04651">
        <ele>167</ele>
        <time>2010-05-13T08:30:53Z</time>
      </trkpt>
      <trkpt lat="48.648" lon="2.04652">
        <ele>167</ele>
        <time>2010-05-13T08:30:54Z</time>
      </trkpt>
      <trkpt lat="48.64802" lon="2.04653">
        <ele>167</ele>
        <time>2010-05-13T08:30:55Z</time>
      </trkpt>
      <trkpt lat="48.64804" lon="2.04654">
        <ele>167</ele>
        <time>2010-05-13T08:30:56Z</time>
      </trkpt>
      <trkpt lat="48.64805" lon="2.04655">
        <ele>167</ele>
        <time>2010-05-13T08:30:57Z</time>
      </trkpt>
      <trkpt lat="48.64807" lon="2.04655">
        <ele>167</ele>
        <time>2010-05-13T08:30:58Z</time>
      </trkpt>
      <trkpt lat="48.64808" lon="2.04656">
        <ele>167</ele>
        <time>2010-05-13T08:30:59Z</time>
      </trkpt>
      <trkpt lat="48.64809" lon="2.04657">
        <ele>167</ele>
        <time>2010-05-13T08:31:00Z</time>
      </trkpt>
      <trkpt lat="48.64811" lon="2.04658">
        <ele>166</ele>
        <time>2010-05-13T08:31:01Z</time>
      </trkpt>
      <trkpt lat="48.64812" lon="2.0466">
        <ele>166</ele>
        <time>2010-05-13T08:31:02Z</time>
      </trkpt>
      <trkpt lat="48.64813" lon="2.04661">
        <ele>166</ele>
        <time>2010-05-13T08:31:03Z</time>
      </trkpt>
      <trkpt lat="48.64815" lon="2.04662">
        <ele>166</ele>
        <time>2010-05-13T08:31:04Z</time>
      </trkpt>
      <trkpt lat="48.64817" lon="2.04662">
        <ele>166</ele>
        <time>2010-05-13T08:31:05Z</time>
      </trkpt>
      <trkpt lat="48.64819" lon="2.04663">
        <ele>166</ele>
        <time>2010-05-13T08:31:06Z</time>
      </trkpt>
      <trkpt lat="48.64821" lon="2.04664">
        <ele>166</ele>
        <time>2010-05-13T08:31:07Z</time>
      </trkpt>
      <trkpt lat="48.64822" lon="2.04665">
        <ele>166</ele>
        <time>2010-05-13T08:31:08Z</time>
      </trkpt>
      <trkpt lat="48.64824" lon="2.04666">
        <ele>166</ele>
        <time>2010-05-13T08:31:09Z</time>
      </trkpt>
      <trkpt lat="48.64825" lon="2.04667">
        <ele>166</ele>
        <time>2010-05-13T08:31:10Z</time>
      </trkpt>
      <trkpt lat="48.64827" lon="2.04668">
        <ele>166</ele>
        <time>2010-05-13T08:31:11Z</time>
      </trkpt>
      <trkpt lat="48.64829" lon="2.04669">
        <ele>166</ele>
        <time>2010-05-13T08:31:12Z</time>
      </trkpt>
      <trkpt lat="48.6483" lon="2.04671">
        <ele>166</ele>
        <time>2010-05-13T08:31:13Z</time>
      </trkpt>
      <trkpt lat="48.64832" lon="2.04672">
        <ele>166</ele>
        <time>2010-05-13T08:31:14Z</time>
      </trkpt>
      <trkpt lat="48.64833" lon="2.04673">
        <ele>166</ele>
        <time>2010-05-13T08:31:15Z</time>
      </trkpt>
      <trkpt lat="48.64835" lon="2.04674">
        <ele>166</ele>
        <time>2010-05-13T08:31:16Z</time>
      </trkpt>
      <trkpt lat="48.64837" lon="2.04675">
        <ele>166</ele>
        <time>2010-05-13T08:31:17Z</time>
      </trkpt>
      <trkpt lat="48.64838" lon="2.04676">
        <ele>165</ele>
        <time>2010-05-13T08:31:18Z</time>
      </trkpt>
      <trkpt lat="48.6484" lon="2.04677">
        <ele>165</ele>
        <time>2010-05-13T08:31:19Z</time>
      </trkpt>
      <trkpt lat="48.64841" lon="2.04679">
        <ele>165</ele>
        <time>2010-05-13T08:31:20Z</time>
      </trkpt>
      <trkpt lat="48.64843" lon="2.0468">
        <ele>165</ele>
        <time>2010-05-13T08:31:21Z</time>
      </trkpt>
      <trkpt lat="48.64844" lon="2.04682">
        <ele>165</ele>
        <time>2010-05-13T08:31:22Z</time>
      </trkpt>
      <trkpt lat="48.64846" lon="2.04683">
        <ele>165</ele>
        <time>2010-05-13T08:31:23Z</time>
      </trkpt>
      <trkpt lat="48.64847" lon="2.04684">
        <ele>165</ele>
        <time>2010-05-13T08:31:24Z</time>
      </trkpt>
      <trkpt lat="48.64849" lon="2.04685">
        <ele>164</ele>
        <time>2010-05-13T08:31:25Z</time>
      </trkpt>
      <trkpt lat="48.64851" lon="2.04686">
        <ele>164</ele>
        <time>2010-05-13T08:31:26Z</time>
      </trkpt>
      <trkpt lat="48.64852" lon="2.04687">
        <ele>164</ele>
        <time>2010-05-13T08:31:27Z</time>
      </trkpt>
      <trkpt lat="48.64854" lon="2.04688">
        <ele>164</ele>
        <time>2010-05-13T08:31:28Z</time>
      </trkpt>
      <trkpt lat="48.64856" lon="2.04688">
        <ele>164</ele>
        <time>2010-05-13T08:31:29Z</time>
      </trkpt>
      <trkpt lat="48.64858" lon="2.04689">
        <ele>164</ele>
        <time>2010-05-13T08:31:30Z</time>
      </trkpt>
      <trkpt lat="48.6486" lon="2.0469">
        <ele>163</ele>
        <time>2010-05-13T08:31:31Z</time>
      </trkpt>
      <trkpt lat="48.64862" lon="2.04691">
        <ele>163</ele>
        <time>2010-05-13T08:31:32Z</time>
      </trkpt>
      <trkpt lat="48.64864" lon="2.04692">
        <ele>163</ele>
        <time>2010-05-13T08:31:33Z</time>
      </trkpt>
      <trkpt lat="48.64866" lon="2.04693">
        <ele>163</ele>
        <time>2010-05-13T08:31:34Z</time>
      </trkpt>
      <trkpt lat="48.64867" lon="2.04694">
        <ele>163</ele>
        <time>2010-05-13T08:31:35Z</time>
      </trkpt>
      <trkpt lat="48.64869" lon="2.04695">
        <ele>163</ele>
        <time>2010-05-13T08:31:36Z</time>
      </trkpt>
      <trkpt lat="48.64871" lon="2.04696">
        <ele>163</ele>
        <time>2010-05-13T08:31:37Z</time>
      </trkpt>
      <trkpt lat="48.64873" lon="2.04697">
        <ele>163</ele>
        <time>2010-05-13T08:31:38Z</time>
      </trkpt>
      <trkpt lat="48.64875" lon="2.04698">
        <ele>163</ele>
        <time>2010-05-13T08:31:39Z</time>
      </trkpt>
      <trkpt lat="48.64877" lon="2.047">
        <ele>163</ele>
        <time>2010-05-13T08:31:40Z</time>
      </trkpt>
      <trkpt lat="48.64879" lon="2.04701">
        <ele>163</ele>
        <time>2010-05-13T08:31:41Z</time>
      </trkpt>
      <trkpt lat="48.64881" lon="2.04703">
        <ele>163</ele>
        <time>2010-05-13T08:31:42Z</time>
      </trkpt>
      <trkpt lat="48.64883" lon="2.04704">
        <ele>163</ele>
        <time>2010-05-13T08:31:43Z</time>
      </trkpt>
      <trkpt lat="48.64885" lon="2.04705">
        <ele>163</ele>
        <time>2010-05-13T08:31:44Z</time>
      </trkpt>
      <trkpt lat="48.64887" lon="2.04706">
        <ele>163</ele>
        <time>2010-05-13T08:31:45Z</time>
      </trkpt>
      <trkpt lat="48.64889" lon="2.04707">
        <ele>163</ele>
        <time>2010-05-13T08:31:46Z</time>
      </trkpt>
      <trkpt lat="48.64891" lon="2.04708">
        <ele>163</ele>
        <time>2010-05-13T08:31:47Z</time>
      </trkpt>
      <trkpt lat="48.64892" lon="2.04709">
        <ele>163</ele>
        <time>2010-05-13T08:31:48Z</time>
      </trkpt>
      <trkpt lat="48.64894" lon="2.0471">
        <ele>163</ele>
        <time>2010-05-13T08:31:49Z</time>
      </trkpt>
      <trkpt lat="48.64896" lon="2.04711">
        <ele>163</ele>
        <time>2010-05-13T08:31:50Z</time>
      </trkpt>
      <trkpt lat="48.64898" lon="2.04712">
        <ele>163</ele>
        <time>2010-05-13T08:31:51Z</time>
      </trkpt>
      <trkpt lat="48.649" lon="2.04713">
        <ele>163</ele>
        <time>2010-05-13T08:31:52Z</time>
      </trkpt>
      <trkpt lat="48.64901" lon="2.04714">
        <ele>162</ele>
        <time>2010-05-13T08:31:53Z</time>
      </trkpt>
      <trkpt lat="48.64903" lon="2.04715">
        <ele>162</ele>
        <time>2010-05-13T08:31:54Z</time>
      </trkpt>
      <trkpt lat="48.64905" lon="2.04716">
        <ele>162</ele>
        <time>2010-05-13T08:31:55Z</time>
      </trkpt>
      <trkpt lat="48.64906" lon="2.04717">
        <ele>162</ele>
        <time>2010-05-13T08:31:56Z</time>
      </trkpt>
      <trkpt lat="48.64908" lon="2.04718">
        <ele>162</ele>
        <time>2010-05-13T08:31:57Z</time>
      </trkpt>
      <trkpt lat="48.6491" lon="2.04719">
        <ele>162</ele>
        <time>2010-05-13T08:31:58Z</time>
      </trkpt>
      <trkpt lat="48.64912" lon="2.0472">
        <ele>162</ele>
        <time>2010-05-13T08:31:59Z</time>
      </trkpt>
      <trkpt lat="48.64913" lon="2.04721">
        <ele>162</ele>
        <time>2010-05-13T08:32:00Z</time>
      </trkpt>
      <trkpt lat="48.64915" lon="2.04722">
        <ele>162</ele>
        <time>2010-05-13T08:32:01Z</time>
      </trkpt>
      <trkpt lat="48.64917" lon="2.04723">
        <ele>162</ele>
        <time>2010-05-13T08:32:02Z</time>
      </trkpt>
      <trkpt lat="48.64919" lon="2.04724">
        <ele>162</ele>
        <time>2010-05-13T08:32:03Z</time>
      </trkpt>
      <trkpt lat="48.64921" lon="2.04725">
        <ele>162</ele>
        <time>2010-05-13T08:32:04Z</time>
      </trkpt>
      <trkpt lat="48.64922" lon="2.04726">
        <ele>162</ele>
        <time>2010-05-13T08:32:05Z</time>
      </trkpt>
      <trkpt lat="48.64924" lon="2.04727">
        <ele>162</ele>
        <time>2010-05-13T08:32:06Z</time>
      </trkpt>
      <trkpt lat="48.64926" lon="2.04728">
        <ele>162</ele>
        <time>2010-05-13T08:32:07Z</time>
      </trkpt>
      <trkpt lat="48.64928" lon="2.04729">
        <ele>162</ele>
        <time>2010-05-13T08:32:08Z</time>
      </trkpt>
      <trkpt lat="48.6493" lon="2.0473">
        <ele>161</ele>
        <time>2010-05-13T08:32:09Z</time>
      </trkpt>
      <trkpt lat="48.64931" lon="2.04731">
        <ele>161</ele>
        <time>2010-05-13T08:32:10Z</time>
      </trkpt>
      <trkpt lat="48.64933" lon="2.04732">
        <ele>161</ele>
        <time>2010-05-13T08:32:11Z</time>
      </trkpt>
      <trkpt lat="48.64935" lon="2.04733">
        <ele>161</ele>
        <time>2010-05-13T08:32:12Z</time>
      </trkpt>
      <trkpt lat="48.64937" lon="2.04735">
        <ele>161</ele>
        <time>2010-05-13T08:32:13Z</time>
      </trkpt>
      <trkpt lat="48.64939" lon="2.04736">
        <ele>161</ele>
        <time>2010-05-13T08:32:14Z</time>
      </trkpt>
      <trkpt lat="48.64941" lon="2.04737">
        <ele>161</ele>
        <time>2010-05-13T08:32:15Z</time>
      </trkpt>
      <trkpt lat="48.64942" lon="2.04737">
        <ele>161</ele>
        <time>2010-05-13T08:32:16Z</time>
      </trkpt>
      <trkpt lat="48.64944" lon="2.04738">
        <ele>161</ele>
        <time>2010-05-13T08:32:17Z</time>
      </trkpt>
      <trkpt lat="48.64946" lon="2.04739">
        <ele>161</ele>
        <time>2010-05-13T08:32:18Z</time>
      </trkpt>
      <trkpt lat="48.64947" lon="2.0474">
        <ele>161</ele>
        <time>2010-05-13T08:32:19Z</time>
      </trkpt>
      <trkpt lat="48.64949" lon="2.04741">
        <ele>161</ele>
        <time>2010-05-13T08:32:20Z</time>
      </trkpt>
      <trkpt lat="48.64951" lon="2.04741">
        <ele>161</ele>
        <time>2010-05-13T08:32:21Z</time>
      </trkpt>
      <trkpt lat="48.64953" lon="2.04742">
        <ele>161</ele>
        <time>2010-05-13T08:32:22Z</time>
      </trkpt>
      <trkpt lat="48.64954" lon="2.04743">
        <ele>161</ele>
        <time>2010-05-13T08:32:23Z</time>
      </trkpt>
      <trkpt lat="48.64956" lon="2.04744">
        <ele>161</ele>
        <time>2010-05-13T08:32:24Z</time>
      </trkpt>
      <trkpt lat="48.64957" lon="2.04746">
        <ele>161</ele>
        <time>2010-05-13T08:32:25Z</time>
      </trkpt>
      <trkpt lat="48.64959" lon="2.04747">
        <ele>161</ele>
        <time>2010-05-13T08:32:26Z</time>
      </trkpt>
      <trkpt lat="48.6496" lon="2.04748">
        <ele>161</ele>
        <time>2010-05-13T08:32:27Z</time>
      </trkpt>
      <trkpt lat="48.64961" lon="2.0475">
        <ele>161</ele>
        <time>2010-05-13T08:32:28Z</time>
      </trkpt>
      <trkpt lat="48.64963" lon="2.04751">
        <ele>161</ele>
        <time>2010-05-13T08:32:29Z</time>
      </trkpt>
      <trkpt lat="48.64965" lon="2.04752">
        <ele>161</ele>
        <time>2010-05-13T08:32:30Z</time>
      </trkpt>
      <trkpt lat="48.64967" lon="2.04754">
        <ele>161</ele>
        <time>2010-05-13T08:32:31Z</time>
      </trkpt>
      <trkpt lat="48.64969" lon="2.04755">
        <ele>161</ele>
        <time>2010-05-13T08:32:32Z</time>
      </trkpt>
      <trkpt lat="48.6497" lon="2.04757">
        <ele>161</ele>
        <time>2010-05-13T08:32:33Z</time>
      </trkpt>
      <trkpt lat="48.64972" lon="2.04758">
        <ele>161</ele>
        <time>2010-05-13T08:32:34Z</time>
      </trkpt>
      <trkpt lat="48.64973" lon="2.04759">
        <ele>161</ele>
        <time>2010-05-13T08:32:35Z</time>
      </trkpt>
      <trkpt lat="48.64974" lon="2.0476">
        <ele>161</ele>
        <time>2010-05-13T08:32:36Z</time>
      </trkpt>
      <trkpt lat="48.64976" lon="2.04761">
        <ele>161</ele>
        <time>2010-05-13T08:32:37Z</time>
      </trkpt>
      <trkpt lat="48.64978" lon="2.04762">
        <ele>161</ele>
        <time>2010-05-13T08:32:38Z</time>
      </trkpt>
      <trkpt lat="48.64979" lon="2.04763">
        <ele>161</ele>
        <time>2010-05-13T08:32:39Z</time>
      </trkpt>
      <trkpt lat="48.64981" lon="2.04764">
        <ele>161</ele>
        <time>2010-05-13T08:32:40Z</time>
      </trkpt>
      <trkpt lat="48.64982" lon="2.04765">
        <ele>161</ele>
        <time>2010-05-13T08:32:41Z</time>
      </trkpt>
      <trkpt lat="48.64984" lon="2.04767">
        <ele>161</ele>
        <time>2010-05-13T08:32:42Z</time>
      </trkpt>
      <trkpt lat="48.64986" lon="2.04768">
        <ele>161</ele>
        <time>2010-05-13T08:32:43Z</time>
      </trkpt>
      <trkpt lat="48.64988" lon="2.0477">
        <ele>161</ele>
        <time>2010-05-13T08:32:44Z</time>
      </trkpt>
      <trkpt lat="48.64989" lon="2.04772">
        <ele>161</ele>
        <time>2010-05-13T08:32:45Z</time>
      </trkpt>
      <trkpt lat="48.64991" lon="2.04773">
        <ele>161</ele>
        <time>2010-05-13T08:32:46Z</time>
      </trkpt>
      <trkpt lat="48.64992" lon="2.04775">
        <ele>161</ele>
        <time>2010-05-13T08:32:47Z</time>
      </trkpt>
      <trkpt lat="48.64993" lon="2.04777">
        <ele>161</ele>
        <time>2010-05-13T08:32:48Z</time>
      </trkpt>
      <trkpt lat="48.64995" lon="2.04778">
        <ele>161</ele>
        <time>2010-05-13T08:32:49Z</time>
      </trkpt>
      <trkpt lat="48.64995" lon="2.04781">
        <ele>161</ele>
        <time>2010-05-13T08:32:51Z</time>
      </trkpt>
      <trkpt lat="48.64996" lon="2.04788">
        <ele>161</ele>
        <time>2010-05-13T08:32:54Z</time>
      </trkpt>
      <trkpt lat="48.64998" lon="2.04791">
        <ele>161</ele>
        <time>2010-05-13T08:32:55Z</time>
      </trkpt>
      <trkpt lat="48.64999" lon="2.04793">
        <ele>161</ele>
        <time>2010-05-13T08:32:56Z</time>
      </trkpt>
      <trkpt lat="48.64999" lon="2.04795">
        <ele>161</ele>
        <time>2010-05-13T08:32:57Z</time>
      </trkpt>
      <trkpt lat="48.65001" lon="2.04799">
        <ele>161</ele>
        <time>2010-05-13T08:32:58Z</time>
      </trkpt>
      <trkpt lat="48.65005" lon="2.048">
        <ele>161</ele>
        <time>2010-05-13T08:32:59Z</time>
      </trkpt>
      <trkpt lat="48.65008" lon="2.04799">
        <ele>161</ele>
        <time>2010-05-13T08:33:00Z</time>
      </trkpt>
      <trkpt lat="48.65009" lon="2.04799">
        <ele>161</ele>
        <time>2010-05-13T08:33:01Z</time>
      </trkpt>
      <trkpt lat="48.65012" lon="2.04797">
        <ele>161</ele>
        <time>2010-05-13T08:33:03Z</time>
      </trkpt>
      <trkpt lat="48.65012" lon="2.04795">
        <ele>161</ele>
        <time>2010-05-13T08:33:05Z</time>
      </trkpt>
      <trkpt lat="48.65013" lon="2.04792">
        <ele>161</ele>
        <time>2010-05-13T08:33:06Z</time>
      </trkpt>
      <trkpt lat="48.65014" lon="2.0479">
        <ele>161</ele>
        <time>2010-05-13T08:33:07Z</time>
      </trkpt>
      <trkpt lat="48.65015" lon="2.04789">
        <ele>161</ele>
        <time>2010-05-13T08:33:08Z</time>
      </trkpt>
      <trkpt lat="48.65016" lon="2.04787">
        <ele>161</ele>
        <time>2010-05-13T08:33:09Z</time>
      </trkpt>
      <trkpt lat="48.65018" lon="2.04785">
        <ele>161</ele>
        <time>2010-05-13T08:33:10Z</time>
      </trkpt>
      <trkpt lat="48.65019" lon="2.04784">
        <ele>161</ele>
        <time>2010-05-13T08:33:11Z</time>
      </trkpt>
      <trkpt lat="48.6502" lon="2.04782">
        <ele>161</ele>
        <time>2010-05-13T08:33:13Z</time>
      </trkpt>
      <trkpt lat="48.65022" lon="2.0478">
        <ele>161</ele>
        <time>2010-05-13T08:33:15Z</time>
      </trkpt>
      <trkpt lat="48.65023" lon="2.04778">
        <ele>161</ele>
        <time>2010-05-13T08:33:16Z</time>
      </trkpt>
      <trkpt lat="48.65025" lon="2.04775">
        <ele>161</ele>
        <time>2010-05-13T08:33:18Z</time>
      </trkpt>
      <trkpt lat="48.65027" lon="2.04775">
        <ele>161</ele>
        <time>2010-05-13T08:33:19Z</time>
      </trkpt>
      <trkpt lat="48.6503" lon="2.04775">
        <ele>161</ele>
        <time>2010-05-13T08:33:21Z</time>
      </trkpt>
      <trkpt lat="48.65032" lon="2.04774">
        <ele>161</ele>
        <time>2010-05-13T08:33:22Z</time>
      </trkpt>
      <trkpt lat="48.65034" lon="2.04775">
        <ele>161</ele>
        <time>2010-05-13T08:33:23Z</time>
      </trkpt>
      <trkpt lat="48.65036" lon="2.04774">
        <ele>161</ele>
        <time>2010-05-13T08:33:24Z</time>
      </trkpt>
      <trkpt lat="48.65037" lon="2.04774">
        <ele>162</ele>
        <time>2010-05-13T08:33:25Z</time>
      </trkpt>
      <trkpt lat="48.65039" lon="2.04774">
        <ele>162</ele>
        <time>2010-05-13T08:33:26Z</time>
      </trkpt>
      <trkpt lat="48.65041" lon="2.04773">
        <ele>162</ele>
        <time>2010-05-13T08:33:27Z</time>
      </trkpt>
      <trkpt lat="48.65043" lon="2.04773">
        <ele>163</ele>
        <time>2010-05-13T08:33:28Z</time>
      </trkpt>
      <trkpt lat="48.65045" lon="2.04774">
        <ele>163</ele>
        <time>2010-05-13T08:33:29Z</time>
      </trkpt>
      <trkpt lat="48.65048" lon="2.04773">
        <ele>163</ele>
        <time>2010-05-13T08:33:30Z</time>
      </trkpt>
      <trkpt lat="48.65051" lon="2.04773">
        <ele>163</ele>
        <time>2010-05-13T08:33:31Z</time>
      </trkpt>
      <trkpt lat="48.65053" lon="2.04771">
        <ele>163</ele>
        <time>2010-05-13T08:33:32Z</time>
      </trkpt>
      <trkpt lat="48.65056" lon="2.0477">
        <ele>163</ele>
        <time>2010-05-13T08:33:33Z</time>
      </trkpt>
      <trkpt lat="48.65057" lon="2.0477">
        <ele>163</ele>
        <time>2010-05-13T08:33:34Z</time>
      </trkpt>
      <trkpt lat="48.65059" lon="2.04771">
        <ele>163</ele>
        <time>2010-05-13T08:33:35Z</time>
      </trkpt>
      <trkpt lat="48.65061" lon="2.04771">
        <ele>163</ele>
        <time>2010-05-13T08:33:36Z</time>
      </trkpt>
      <trkpt lat="48.65063" lon="2.0477">
        <ele>163</ele>
        <time>2010-05-13T08:33:37Z</time>
      </trkpt>
      <trkpt lat="48.65066" lon="2.0477">
        <ele>163</ele>
        <time>2010-05-13T08:33:38Z</time>
      </trkpt>
      <trkpt lat="48.65067" lon="2.04769">
        <ele>163</ele>
        <time>2010-05-13T08:33:39Z</time>
      </trkpt>
      <trkpt lat="48.65069" lon="2.04768">
        <ele>163</ele>
        <time>2010-05-13T08:33:41Z</time>
      </trkpt>
      <trkpt lat="48.6507" lon="2.04768">
        <ele>163</ele>
        <time>2010-05-13T08:33:42Z</time>
      </trkpt>
      <trkpt lat="48.65072" lon="2.04767">
        <ele>163</ele>
        <time>2010-05-13T08:33:43Z</time>
      </trkpt>
      <trkpt lat="48.65074" lon="2.04766">
        <ele>163</ele>
        <time>2010-05-13T08:33:44Z</time>
      </trkpt>
      <trkpt lat="48.65076" lon="2.04766">
        <ele>163</ele>
        <time>2010-05-13T08:33:45Z</time>
      </trkpt>
      <trkpt lat="48.65078" lon="2.04765">
        <ele>163</ele>
        <time>2010-05-13T08:33:46Z</time>
      </trkpt>
      <trkpt lat="48.65079" lon="2.04765">
        <ele>163</ele>
        <time>2010-05-13T08:33:47Z</time>
      </trkpt>
      <trkpt lat="48.65081" lon="2.04766">
        <ele>163</ele>
        <time>2010-05-13T08:33:48Z</time>
      </trkpt>
      <trkpt lat="48.65083" lon="2.04766">
        <ele>162</ele>
        <time>2010-05-13T08:33:49Z</time>
      </trkpt>
      <trkpt lat="48.65084" lon="2.04767">
        <ele>161</ele>
        <time>2010-05-13T08:33:50Z</time>
      </trkpt>
      <trkpt lat="48.65086" lon="2.04767">
        <ele>161</ele>
        <time>2010-05-13T08:33:51Z</time>
      </trkpt>
      <trkpt lat="48.65089" lon="2.04766">
        <ele>161</ele>
        <time>2010-05-13T08:33:52Z</time>
      </trkpt>
      <trkpt lat="48.65091" lon="2.04764">
        <ele>161</ele>
        <time>2010-05-13T08:33:53Z</time>
      </trkpt>
      <trkpt lat="48.65093" lon="2.04763">
        <ele>161</ele>
        <time>2010-05-13T08:33:54Z</time>
      </trkpt>
      <trkpt lat="48.65094" lon="2.04762">
        <ele>161</ele>
        <time>2010-05-13T08:33:55Z</time>
      </trkpt>
      <trkpt lat="48.65095" lon="2.04761">
        <ele>161</ele>
        <time>2010-05-13T08:33:56Z</time>
      </trkpt>
      <trkpt lat="48.65097" lon="2.04761">
        <ele>161</ele>
        <time>2010-05-13T08:33:57Z</time>
      </trkpt>
      <trkpt lat="48.65099" lon="2.04761">
        <ele>161</ele>
        <time>2010-05-13T08:33:58Z</time>
      </trkpt>
      <trkpt lat="48.651" lon="2.04761">
        <ele>161</ele>
        <time>2010-05-13T08:33:59Z</time>
      </trkpt>
      <trkpt lat="48.65103" lon="2.04761">
        <ele>161</ele>
        <time>2010-05-13T08:34:00Z</time>
      </trkpt>
      <trkpt lat="48.65105" lon="2.04759">
        <ele>161</ele>
        <time>2010-05-13T08:34:01Z</time>
      </trkpt>
      <trkpt lat="48.65107" lon="2.04758">
        <ele>161</ele>
        <time>2010-05-13T08:34:02Z</time>
      </trkpt>
      <trkpt lat="48.65108" lon="2.04757">
        <ele>161</ele>
        <time>2010-05-13T08:34:04Z</time>
      </trkpt>
      <trkpt lat="48.65109" lon="2.04758">
        <ele>161</ele>
        <time>2010-05-13T08:34:05Z</time>
      </trkpt>
      <trkpt lat="48.65111" lon="2.04759">
        <ele>161</ele>
        <time>2010-05-13T08:34:06Z</time>
      </trkpt>
      <trkpt lat="48.65112" lon="2.0476">
        <ele>161</ele>
        <time>2010-05-13T08:34:07Z</time>
      </trkpt>
      <trkpt lat="48.65114" lon="2.04761">
        <ele>161</ele>
        <time>2010-05-13T08:34:08Z</time>
      </trkpt>
      <trkpt lat="48.65116" lon="2.04762">
        <ele>161</ele>
        <time>2010-05-13T08:34:09Z</time>
      </trkpt>
      <trkpt lat="48.65118" lon="2.04763">
        <ele>161</ele>
        <time>2010-05-13T08:34:10Z</time>
      </trkpt>
      <trkpt lat="48.6512" lon="2.04764">
        <ele>161</ele>
        <time>2010-05-13T08:34:11Z</time>
      </trkpt>
      <trkpt lat="48.65123" lon="2.04765">
        <ele>161</ele>
        <time>2010-05-13T08:34:12Z</time>
      </trkpt>
      <trkpt lat="48.65124" lon="2.04766">
        <ele>161</ele>
        <time>2010-05-13T08:34:13Z</time>
      </trkpt>
      <trkpt lat="48.65126" lon="2.04768">
        <ele>161</ele>
        <time>2010-05-13T08:34:14Z</time>
      </trkpt>
      <trkpt lat="48.65128" lon="2.04768">
        <ele>162</ele>
        <time>2010-05-13T08:34:16Z</time>
      </trkpt>
      <trkpt lat="48.6513" lon="2.04769">
        <ele>162</ele>
        <time>2010-05-13T08:34:17Z</time>
      </trkpt>
      <trkpt lat="48.65132" lon="2.04769">
        <ele>162</ele>
        <time>2010-05-13T08:34:18Z</time>
      </trkpt>
      <trkpt lat="48.65134" lon="2.04768">
        <ele>162</ele>
        <time>2010-05-13T08:34:20Z</time>
      </trkpt>
      <trkpt lat="48.65135" lon="2.0477">
        <ele>162</ele>
        <time>2010-05-13T08:34:22Z</time>
      </trkpt>
      <trkpt lat="48.65137" lon="2.04772">
        <ele>162</ele>
        <time>2010-05-13T08:34:24Z</time>
      </trkpt>
      <trkpt lat="48.65139" lon="2.04772">
        <ele>162</ele>
        <time>2010-05-13T08:34:25Z</time>
      </trkpt>
      <trkpt lat="48.6514" lon="2.04773">
        <ele>162</ele>
        <time>2010-05-13T08:34:27Z</time>
      </trkpt>
      <trkpt lat="48.65142" lon="2.04776">
        <ele>162</ele>
        <time>2010-05-13T08:34:29Z</time>
      </trkpt>
      <trkpt lat="48.65143" lon="2.04779">
        <ele>162</ele>
        <time>2010-05-13T08:34:31Z</time>
      </trkpt>
      <trkpt lat="48.65145" lon="2.0478">
        <ele>162</ele>
        <time>2010-05-13T08:34:32Z</time>
      </trkpt>
      <trkpt lat="48.65146" lon="2.04783">
        <ele>162</ele>
        <time>2010-05-13T08:34:34Z</time>
      </trkpt>
      <trkpt lat="48.65148" lon="2.04784">
        <ele>161</ele>
        <time>2010-05-13T08:34:35Z</time>
      </trkpt>
      <trkpt lat="48.65149" lon="2.04787">
        <ele>161</ele>
        <time>2010-05-13T08:34:37Z</time>
      </trkpt>
      <trkpt lat="48.65152" lon="2.0479">
        <ele>160</ele>
        <time>2010-05-13T08:34:39Z</time>
      </trkpt>
      <trkpt lat="48.65153" lon="2.04791">
        <ele>159</ele>
        <time>2010-05-13T08:34:40Z</time>
      </trkpt>
      <trkpt lat="48.65155" lon="2.04793">
        <ele>159</ele>
        <time>2010-05-13T08:34:41Z</time>
      </trkpt>
      <trkpt lat="48.65156" lon="2.04795">
        <ele>159</ele>
        <time>2010-05-13T08:34:42Z</time>
      </trkpt>
      <trkpt lat="48.65158" lon="2.04797">
        <ele>159</ele>
        <time>2010-05-13T08:34:43Z</time>
      </trkpt>
      <trkpt lat="48.6516" lon="2.04799">
        <ele>159</ele>
        <time>2010-05-13T08:34:44Z</time>
      </trkpt>
      <trkpt lat="48.65162" lon="2.048">
        <ele>159</ele>
        <time>2010-05-13T08:34:45Z</time>
      </trkpt>
      <trkpt lat="48.65164" lon="2.04801">
        <ele>159</ele>
        <time>2010-05-13T08:34:46Z</time>
      </trkpt>
      <trkpt lat="48.65166" lon="2.04802">
        <ele>159</ele>
        <time>2010-05-13T08:34:47Z</time>
      </trkpt>
      <trkpt lat="48.65167" lon="2.04804">
        <ele>159</ele>
        <time>2010-05-13T08:34:48Z</time>
      </trkpt>
      <trkpt lat="48.65168" lon="2.04805">
        <ele>159</ele>
        <time>2010-05-13T08:34:49Z</time>
      </trkpt>
      <trkpt lat="48.6517" lon="2.04807">
        <ele>159</ele>
        <time>2010-05-13T08:34:50Z</time>
      </trkpt>
      <trkpt lat="48.65172" lon="2.04808">
        <ele>159</ele>
        <time>2010-05-13T08:34:51Z</time>
      </trkpt>
      <trkpt lat="48.65174" lon="2.0481">
        <ele>159</ele>
        <time>2010-05-13T08:34:52Z</time>
      </trkpt>
      <trkpt lat="48.65175" lon="2.04812">
        <ele>159</ele>
        <time>2010-05-13T08:34:53Z</time>
      </trkpt>
      <trkpt lat="48.65177" lon="2.04814">
        <ele>159</ele>
        <time>2010-05-13T08:34:54Z</time>
      </trkpt>
      <trkpt lat="48.65179" lon="2.04817">
        <ele>159</ele>
        <time>2010-05-13T08:34:55Z</time>
      </trkpt>
      <trkpt lat="48.65181" lon="2.04819">
        <ele>159</ele>
        <time>2010-05-13T08:34:56Z</time>
      </trkpt>
      <trkpt lat="48.65185" lon="2.04822">
        <ele>160</ele>
        <time>2010-05-13T08:34:57Z</time>
      </trkpt>
      <trkpt lat="48.65188" lon="2.04825">
        <ele>161</ele>
        <time>2010-05-13T08:34:58Z</time>
      </trkpt>
      <trkpt lat="48.6519" lon="2.04827">
        <ele>162</ele>
        <time>2010-05-13T08:34:59Z</time>
      </trkpt>
      <trkpt lat="48.65192" lon="2.04829">
        <ele>163</ele>
        <time>2010-05-13T08:35:00Z</time>
      </trkpt>
      <trkpt lat="48.65194" lon="2.04832">
        <ele>164</ele>
        <time>2010-05-13T08:35:01Z</time>
      </trkpt>
      <trkpt lat="48.65197" lon="2.04835">
        <ele>165</ele>
        <time>2010-05-13T08:35:02Z</time>
      </trkpt>
      <trkpt lat="48.652" lon="2.04837">
        <ele>166</ele>
        <time>2010-05-13T08:35:03Z</time>
      </trkpt>
      <trkpt lat="48.65202" lon="2.0484">
        <ele>167</ele>
        <time>2010-05-13T08:35:04Z</time>
      </trkpt>
      <trkpt lat="48.65205" lon="2.04843">
        <ele>168</ele>
        <time>2010-05-13T08:35:05Z</time>
      </trkpt>
      <trkpt lat="48.65207" lon="2.04846">
        <ele>169</ele>
        <time>2010-05-13T08:35:06Z</time>
      </trkpt>
      <trkpt lat="48.6521" lon="2.0485">
        <ele>169</ele>
        <time>2010-05-13T08:35:07Z</time>
      </trkpt>
      <trkpt lat="48.65213" lon="2.04854">
        <ele>169</ele>
        <time>2010-05-13T08:35:08Z</time>
      </trkpt>
      <trkpt lat="48.65216" lon="2.04858">
        <ele>169</ele>
        <time>2010-05-13T08:35:09Z</time>
      </trkpt>
      <trkpt lat="48.65219" lon="2.04862">
        <ele>170</ele>
        <time>2010-05-13T08:35:10Z</time>
      </trkpt>
      <trkpt lat="48.65223" lon="2.04867">
        <ele>170</ele>
        <time>2010-05-13T08:35:11Z</time>
      </trkpt>
      <trkpt lat="48.65226" lon="2.04872">
        <ele>170</ele>
        <time>2010-05-13T08:35:12Z</time>
      </trkpt>
      <trkpt lat="48.65231" lon="2.04877">
        <ele>170</ele>
        <time>2010-05-13T08:35:13Z</time>
      </trkpt>
      <trkpt lat="48.65235" lon="2.04883">
        <ele>171</ele>
        <time>2010-05-13T08:35:14Z</time>
      </trkpt>
      <trkpt lat="48.6524" lon="2.04889">
        <ele>171</ele>
        <time>2010-05-13T08:35:15Z</time>
      </trkpt>
      <trkpt lat="48.65245" lon="2.04895">
        <ele>171</ele>
        <time>2010-05-13T08:35:16Z</time>
      </trkpt>
      <trkpt lat="48.6525" lon="2.04902">
        <ele>171</ele>
        <time>2010-05-13T08:35:17Z</time>
      </trkpt>
      <trkpt lat="48.65255" lon="2.04909">
        <ele>172</ele>
        <time>2010-05-13T08:35:18Z</time>
      </trkpt>
      <trkpt lat="48.6526" lon="2.04917">
        <ele>172</ele>
        <time>2010-05-13T08:35:19Z</time>
      </trkpt>
      <trkpt lat="48.65265" lon="2.04925">
        <ele>172</ele>
        <time>2010-05-13T08:35:20Z</time>
      </trkpt>
      <trkpt lat="48.65271" lon="2.04933">
        <ele>172</ele>
        <time>2010-05-13T08:35:21Z</time>
      </trkpt>
      <trkpt lat="48.65276" lon="2.0494">
        <ele>173</ele>
        <time>2010-05-13T08:35:22Z</time>
      </trkpt>
      <trkpt lat="48.65281" lon="2.04947">
        <ele>173</ele>
        <time>2010-05-13T08:35:23Z</time>
      </trkpt>
      <trkpt lat="48.65286" lon="2.04954">
        <ele>173</ele>
        <time>2010-05-13T08:35:24Z</time>
      </trkpt>
      <trkpt lat="48.65291" lon="2.04961">
        <ele>173</ele>
        <time>2010-05-13T08:35:25Z</time>
      </trkpt>
      <trkpt lat="48.65296" lon="2.04969">
        <ele>174</ele>
        <time>2010-05-13T08:35:26Z</time>
      </trkpt>
      <trkpt lat="48.65301" lon="2.04976">
        <ele>174</ele>
        <time>2010-05-13T08:35:27Z</time>
      </trkpt>
      <trkpt lat="48.65306" lon="2.04984">
        <ele>174</ele>
        <time>2010-05-13T08:35:28Z</time>
      </trkpt>
      <trkpt lat="48.65311" lon="2.04991">
        <ele>174</ele>
        <time>2010-05-13T08:35:29Z</time>
      </trkpt>
      <trkpt lat="48.65317" lon="2.04998">
        <ele>174</ele>
        <time>2010-05-13T08:35:30Z</time>
      </trkpt>
      <trkpt lat="48.65322" lon="2.05006">
        <ele>174</ele>
        <time>2010-05-13T08:35:31Z</time>
      </trkpt>
      <trkpt lat="48.65328" lon="2.05014">
        <ele>174</ele>
        <time>2010-05-13T08:35:32Z</time>
      </trkpt>
      <trkpt lat="48.65333" lon="2.05022">
        <ele>174</ele>
        <time>2010-05-13T08:35:33Z</time>
      </trkpt>
      <trkpt lat="48.65339" lon="2.0503">
        <ele>174</ele>
        <time>2010-05-13T08:35:34Z</time>
      </trkpt>
      <trkpt lat="48.65344" lon="2.05037">
        <ele>174</ele>
        <time>2010-05-13T08:35:35Z</time>
      </trkpt>
      <trkpt lat="48.65349" lon="2.05045">
        <ele>174</ele>
        <time>2010-05-13T08:35:36Z</time>
      </trkpt>
      <trkpt lat="48.65355" lon="2.05052">
        <ele>174</ele>
        <time>2010-05-13T08:35:37Z</time>
      </trkpt>
      <trkpt lat="48.65361" lon="2.05058">
        <ele>174</ele>
        <time>2010-05-13T08:35:38Z</time>
      </trkpt>
      <trkpt lat="48.65365" lon="2.05065">
        <ele>174</ele>
        <time>2010-05-13T08:35:39Z</time>
      </trkpt>
      <trkpt lat="48.6537" lon="2.05072">
        <ele>174</ele>
        <time>2010-05-13T08:35:40Z</time>
      </trkpt>
      <trkpt lat="48.65375" lon="2.05077">
        <ele>174</ele>
        <time>2010-05-13T08:35:41Z</time>
      </trkpt>
      <trkpt lat="48.65379" lon="2.05082">
        <ele>174</ele>
        <time>2010-05-13T08:35:42Z</time>
      </trkpt>
      <trkpt lat="48.65384" lon="2.05088">
        <ele>174</ele>
        <time>2010-05-13T08:35:43Z</time>
      </trkpt>
      <trkpt lat="48.65388" lon="2.05093">
        <ele>174</ele>
        <time>2010-05-13T08:35:44Z</time>
      </trkpt>
      <trkpt lat="48.65393" lon="2.05099">
        <ele>174</ele>
        <time>2010-05-13T08:35:45Z</time>
      </trkpt>
      <trkpt lat="48.65398" lon="2.05104">
        <ele>174</ele>
        <time>2010-05-13T08:35:46Z</time>
      </trkpt>
      <trkpt lat="48.65402" lon="2.0511">
        <ele>174</ele>
        <time>2010-05-13T08:35:47Z</time>
      </trkpt>
      <trkpt lat="48.65407" lon="2.05116">
        <ele>174</ele>
        <time>2010-05-13T08:35:48Z</time>
      </trkpt>
      <trkpt lat="48.65413" lon="2.05122">
        <ele>174</ele>
        <time>2010-05-13T08:35:49Z</time>
      </trkpt>
      <trkpt lat="48.65418" lon="2.05127">
        <ele>174</ele>
        <time>2010-05-13T08:35:50Z</time>
      </trkpt>
      <trkpt lat="48.65424" lon="2.05133">
        <ele>174</ele>
        <time>2010-05-13T08:35:51Z</time>
      </trkpt>
      <trkpt lat="48.65429" lon="2.05138">
        <ele>174</ele>
        <time>2010-05-13T08:35:52Z</time>
      </trkpt>
      <trkpt lat="48.65435" lon="2.05143">
        <ele>174</ele>
        <time>2010-05-13T08:35:53Z</time>
      </trkpt>
      <trkpt lat="48.65442" lon="2.05147">
        <ele>174</ele>
        <time>2010-05-13T08:35:54Z</time>
      </trkpt>
      <trkpt lat="48.65449" lon="2.05151">
        <ele>174</ele>
        <time>2010-05-13T08:35:55Z</time>
      </trkpt>
      <trkpt lat="48.65456" lon="2.05155">
        <ele>174</ele>
        <time>2010-05-13T08:35:56Z</time>
      </trkpt>
      <trkpt lat="48.65463" lon="2.05158">
        <ele>174</ele>
        <time>2010-05-13T08:35:57Z</time>
      </trkpt>
      <trkpt lat="48.65471" lon="2.05162">
        <ele>174</ele>
        <time>2010-05-13T08:35:58Z</time>
      </trkpt>
      <trkpt lat="48.65478" lon="2.05165">
        <ele>174</ele>
        <time>2010-05-13T08:35:59Z</time>
      </trkpt>
      <trkpt lat="48.65486" lon="2.05168">
        <ele>174</ele>
        <time>2010-05-13T08:36:00Z</time>
      </trkpt>
      <trkpt lat="48.65493" lon="2.05172">
        <ele>174</ele>
        <time>2010-05-13T08:36:01Z</time>
      </trkpt>
      <trkpt lat="48.65501" lon="2.05175">
        <ele>174</ele>
        <time>2010-05-13T08:36:02Z</time>
      </trkpt>
      <trkpt lat="48.65509" lon="2.05179">
        <ele>174</ele>
        <time>2010-05-13T08:36:03Z</time>
      </trkpt>
      <trkpt lat="48.65517" lon="2.05183">
        <ele>174</ele>
        <time>2010-05-13T08:36:04Z</time>
      </trkpt>
      <trkpt lat="48.65525" lon="2.05187">
        <ele>174</ele>
        <time>2010-05-13T08:36:05Z</time>
      </trkpt>
      <trkpt lat="48.65533" lon="2.05191">
        <ele>174</ele>
        <time>2010-05-13T08:36:06Z</time>
      </trkpt>
      <trkpt lat="48.65541" lon="2.05195">
        <ele>174</ele>
        <time>2010-05-13T08:36:07Z</time>
      </trkpt>
      <trkpt lat="48.65549" lon="2.052">
        <ele>174</ele>
        <time>2010-05-13T08:36:08Z</time>
      </trkpt>
      <trkpt lat="48.65557" lon="2.05204">
        <ele>174</ele>
        <time>2010-05-13T08:36:09Z</time>
      </trkpt>
      <trkpt lat="48.65565" lon="2.05207">
        <ele>174</ele>
        <time>2010-05-13T08:36:10Z</time>
      </trkpt>
      <trkpt lat="48.65573" lon="2.05211">
        <ele>174</ele>
        <time>2010-05-13T08:36:11Z</time>
      </trkpt>
      <trkpt lat="48.6558" lon="2.05216">
        <ele>174</ele>
        <time>2010-05-13T08:36:12Z</time>
      </trkpt>
      <trkpt lat="48.65588" lon="2.0522">
        <ele>174</ele>
        <time>2010-05-13T08:36:13Z</time>
      </trkpt>
      <trkpt lat="48.65595" lon="2.05224">
        <ele>174</ele>
        <time>2010-05-13T08:36:14Z</time>
      </trkpt>
      <trkpt lat="48.65603" lon="2.05228">
        <ele>174</ele>
        <time>2010-05-13T08:36:15Z</time>
      </trkpt>
      <trkpt lat="48.6561" lon="2.05232">
        <ele>174</ele>
        <time>2010-05-13T08:36:16Z</time>
      </trkpt>
      <trkpt lat="48.65617" lon="2.05237">
        <ele>175</ele>
        <time>2010-05-13T08:36:17Z</time>
      </trkpt>
      <trkpt lat="48.65624" lon="2.05242">
        <ele>175</ele>
        <time>2010-05-13T08:36:18Z</time>
      </trkpt>
      <trkpt lat="48.65632" lon="2.05247">
        <ele>175</ele>
        <time>2010-05-13T08:36:19Z</time>
      </trkpt>
      <trkpt lat="48.65639" lon="2.05252">
        <ele>175</ele>
        <time>2010-05-13T08:36:20Z</time>
      </trkpt>
      <trkpt lat="48.65647" lon="2.05258">
        <ele>175</ele>
        <time>2010-05-13T08:36:21Z</time>
      </trkpt>
      <trkpt lat="48.65655" lon="2.05264">
        <ele>175</ele>
        <time>2010-05-13T08:36:22Z</time>
      </trkpt>
      <trkpt lat="48.65663" lon="2.0527">
        <ele>175</ele>
        <time>2010-05-13T08:36:23Z</time>
      </trkpt>
      <trkpt lat="48.65671" lon="2.05276">
        <ele>175</ele>
        <time>2010-05-13T08:36:24Z</time>
      </trkpt>
      <trkpt lat="48.65679" lon="2.05283">
        <ele>175</ele>
        <time>2010-05-13T08:36:25Z</time>
      </trkpt>
      <trkpt lat="48.65688" lon="2.0529">
        <ele>175</ele>
        <time>2010-05-13T08:36:26Z</time>
      </trkpt>
      <trkpt lat="48.65697" lon="2.05296">
        <ele>175</ele>
        <time>2010-05-13T08:36:27Z</time>
      </trkpt>
      <trkpt lat="48.65705" lon="2.05302">
        <ele>175</ele>
        <time>2010-05-13T08:36:28Z</time>
      </trkpt>
      <trkpt lat="48.65713" lon="2.05307">
        <ele>175</ele>
        <time>2010-05-13T08:36:29Z</time>
      </trkpt>
      <trkpt lat="48.65721" lon="2.05312">
        <ele>175</ele>
        <time>2010-05-13T08:36:30Z</time>
      </trkpt>
      <trkpt lat="48.65729" lon="2.05317">
        <ele>175</ele>
        <time>2010-05-13T08:36:31Z</time>
      </trkpt>
      <trkpt lat="48.65736" lon="2.05321">
        <ele>175</ele>
        <time>2010-05-13T08:36:32Z</time>
      </trkpt>
      <trkpt lat="48.65744" lon="2.05325">
        <ele>175</ele>
        <time>2010-05-13T08:36:33Z</time>
      </trkpt>
      <trkpt lat="48.65751" lon="2.05329">
        <ele>175</ele>
        <time>2010-05-13T08:36:34Z</time>
      </trkpt>
      <trkpt lat="48.6576" lon="2.05332">
        <ele>175</ele>
        <time>2010-05-13T08:36:35Z</time>
      </trkpt>
      <trkpt lat="48.65768" lon="2.05335">
        <ele>175</ele>
        <time>2010-05-13T08:36:36Z</time>
      </trkpt>
      <trkpt lat="48.65776" lon="2.05339">
        <ele>175</ele>
        <time>2010-05-13T08:36:37Z</time>
      </trkpt>
      <trkpt lat="48.65784" lon="2.05343">
        <ele>175</ele>
        <time>2010-05-13T08:36:38Z</time>
      </trkpt>
      <trkpt lat="48.65792" lon="2.05347">
        <ele>175</ele>
        <time>2010-05-13T08:36:39Z</time>
      </trkpt>
      <trkpt lat="48.658" lon="2.0535">
        <ele>175</ele>
        <time>2010-05-13T08:36:40Z</time>
      </trkpt>
      <trkpt lat="48.65808" lon="2.05354">
        <ele>175</ele>
        <time>2010-05-13T08:36:41Z</time>
      </trkpt>
      <trkpt lat="48.65816" lon="2.05356">
        <ele>175</ele>
        <time>2010-05-13T08:36:42Z</time>
      </trkpt>
      <trkpt lat="48.65824" lon="2.0536">
        <ele>175</ele>
        <time>2010-05-13T08:36:43Z</time>
      </trkpt>
      <trkpt lat="48.65831" lon="2.05363">
        <ele>175</ele>
        <time>2010-05-13T08:36:44Z</time>
      </trkpt>
      <trkpt lat="48.65839" lon="2.05366">
        <ele>175</ele>
        <time>2010-05-13T08:36:45Z</time>
      </trkpt>
      <trkpt lat="48.65847" lon="2.05369">
        <ele>175</ele>
        <time>2010-05-13T08:36:46Z</time>
      </trkpt>
      <trkpt lat="48.65854" lon="2.05373">
        <ele>175</ele>
        <time>2010-05-13T08:36:47Z</time>
      </trkpt>
      <trkpt lat="48.65862" lon="2.05376">
        <ele>175</ele>
        <time>2010-05-13T08:36:48Z</time>
      </trkpt>
      <trkpt lat="48.65869" lon="2.05379">
        <ele>175</ele>
        <time>2010-05-13T08:36:49Z</time>
      </trkpt>
      <trkpt lat="48.65875" lon="2.05382">
        <ele>175</ele>
        <time>2010-05-13T08:36:50Z</time>
      </trkpt>
      <trkpt lat="48.65882" lon="2.05385">
        <ele>175</ele>
        <time>2010-05-13T08:36:51Z</time>
      </trkpt>
      <trkpt lat="48.65888" lon="2.05388">
        <ele>175</ele>
        <time>2010-05-13T08:36:52Z</time>
      </trkpt>
      <trkpt lat="48.65894" lon="2.05391">
        <ele>175</ele>
        <time>2010-05-13T08:36:53Z</time>
      </trkpt>
      <trkpt lat="48.65899" lon="2.05394">
        <ele>175</ele>
        <time>2010-05-13T08:36:54Z</time>
      </trkpt>
      <trkpt lat="48.65905" lon="2.05397">
        <ele>175</ele>
        <time>2010-05-13T08:36:55Z</time>
      </trkpt>
      <trkpt lat="48.6591" lon="2.05399">
        <ele>175</ele>
        <time>2010-05-13T08:36:56Z</time>
      </trkpt>
      <trkpt lat="48.65916" lon="2.05401">
        <ele>175</ele>
        <time>2010-05-13T08:36:57Z</time>
      </trkpt>
      <trkpt lat="48.65921" lon="2.05403">
        <ele>175</ele>
        <time>2010-05-13T08:36:58Z</time>
      </trkpt>
      <trkpt lat="48.65926" lon="2.05404">
        <ele>175</ele>
        <time>2010-05-13T08:36:59Z</time>
      </trkpt>
      <trkpt lat="48.6593" lon="2.05405">
        <ele>175</ele>
        <time>2010-05-13T08:37:00Z</time>
      </trkpt>
      <trkpt lat="48.65935" lon="2.05406">
        <ele>175</ele>
        <time>2010-05-13T08:37:01Z</time>
      </trkpt>
      <trkpt lat="48.65939" lon="2.05406">
        <ele>175</ele>
        <time>2010-05-13T08:37:02Z</time>
      </trkpt>
      <trkpt lat="48.65944" lon="2.05407">
        <ele>175</ele>
        <time>2010-05-13T08:37:03Z</time>
      </trkpt>
      <trkpt lat="48.65948" lon="2.05407">
        <ele>175</ele>
        <time>2010-05-13T08:37:04Z</time>
      </trkpt>
      <trkpt lat="48.65953" lon="2.05408">
        <ele>175</ele>
        <time>2010-05-13T08:37:05Z</time>
      </trkpt>
      <trkpt lat="48.65958" lon="2.05408">
        <ele>175</ele>
        <time>2010-05-13T08:37:06Z</time>
      </trkpt>
      <trkpt lat="48.65964" lon="2.05409">
        <ele>175</ele>
        <time>2010-05-13T08:37:07Z</time>
      </trkpt>
      <trkpt lat="48.65971" lon="2.0541">
        <ele>175</ele>
        <time>2010-05-13T08:37:08Z</time>
      </trkpt>
      <trkpt lat="48.65977" lon="2.05411">
        <ele>175</ele>
        <time>2010-05-13T08:37:09Z</time>
      </trkpt>
      <trkpt lat="48.65984" lon="2.05412">
        <ele>175</ele>
        <time>2010-05-13T08:37:10Z</time>
      </trkpt>
      <trkpt lat="48.65992" lon="2.05413">
        <ele>175</ele>
        <time>2010-05-13T08:37:11Z</time>
      </trkpt>
      <trkpt lat="48.65999" lon="2.05414">
        <ele>175</ele>
        <time>2010-05-13T08:37:12Z</time>
      </trkpt>
      <trkpt lat="48.66007" lon="2.05415">
        <ele>175</ele>
        <time>2010-05-13T08:37:13Z</time>
      </trkpt>
      <trkpt lat="48.66015" lon="2.05416">
        <ele>175</ele>
        <time>2010-05-13T08:37:14Z</time>
      </trkpt>
      <trkpt lat="48.66023" lon="2.05417">
        <ele>175</ele>
        <time>2010-05-13T08:37:15Z</time>
      </trkpt>
      <trkpt lat="48.66031" lon="2.05418">
        <ele>175</ele>
        <time>2010-05-13T08:37:16Z</time>
      </trkpt>
      <trkpt lat="48.66039" lon="2.0542">
        <ele>175</ele>
        <time>2010-05-13T08:37:17Z</time>
      </trkpt>
      <trkpt lat="48.66048" lon="2.05421">
        <ele>175</ele>
        <time>2010-05-13T08:37:18Z</time>
      </trkpt>
      <trkpt lat="48.66056" lon="2.05423">
        <ele>175</ele>
        <time>2010-05-13T08:37:19Z</time>
      </trkpt>
      <trkpt lat="48.66064" lon="2.05425">
        <ele>175</ele>
        <time>2010-05-13T08:37:20Z</time>
      </trkpt>
      <trkpt lat="48.66073" lon="2.05426">
        <ele>175</ele>
        <time>2010-05-13T08:37:21Z</time>
      </trkpt>
      <trkpt lat="48.66081" lon="2.05428">
        <ele>175</ele>
        <time>2010-05-13T08:37:22Z</time>
      </trkpt>
      <trkpt lat="48.66089" lon="2.0543">
        <ele>175</ele>
        <time>2010-05-13T08:37:23Z</time>
      </trkpt>
      <trkpt lat="48.66096" lon="2.05431">
        <ele>175</ele>
        <time>2010-05-13T08:37:24Z</time>
      </trkpt>
      <trkpt lat="48.66104" lon="2.05433">
        <ele>175</ele>
        <time>2010-05-13T08:37:25Z</time>
      </trkpt>
      <trkpt lat="48.66111" lon="2.05434">
        <ele>175</ele>
        <time>2010-05-13T08:37:26Z</time>
      </trkpt>
      <trkpt lat="48.66118" lon="2.05436">
        <ele>175</ele>
        <time>2010-05-13T08:37:27Z</time>
      </trkpt>
      <trkpt lat="48.66125" lon="2.05437">
        <ele>175</ele>
        <time>2010-05-13T08:37:28Z</time>
      </trkpt>
      <trkpt lat="48.66132" lon="2.05438">
        <ele>175</ele>
        <time>2010-05-13T08:37:29Z</time>
      </trkpt>
      <trkpt lat="48.66139" lon="2.0544">
        <ele>175</ele>
        <time>2010-05-13T08:37:30Z</time>
      </trkpt>
      <trkpt lat="48.66146" lon="2.05441">
        <ele>175</ele>
        <time>2010-05-13T08:37:31Z</time>
      </trkpt>
      <trkpt lat="48.66153" lon="2.05442">
        <ele>175</ele>
        <time>2010-05-13T08:37:32Z</time>
      </trkpt>
      <trkpt lat="48.66159" lon="2.05442">
        <ele>175</ele>
        <time>2010-05-13T08:37:33Z</time>
      </trkpt>
      <trkpt lat="48.66166" lon="2.05443">
        <ele>175</ele>
        <time>2010-05-13T08:37:34Z</time>
      </trkpt>
      <trkpt lat="48.66172" lon="2.05443">
        <ele>175</ele>
        <time>2010-05-13T08:37:35Z</time>
      </trkpt>
      <trkpt lat="48.66178" lon="2.05443">
        <ele>175</ele>
        <time>2010-05-13T08:37:36Z</time>
      </trkpt>
      <trkpt lat="48.66185" lon="2.05443">
        <ele>175</ele>
        <time>2010-05-13T08:37:37Z</time>
      </trkpt>
      <trkpt lat="48.66191" lon="2.05442">
        <ele>175</ele>
        <time>2010-05-13T08:37:38Z</time>
      </trkpt>
      <trkpt lat="48.66198" lon="2.05442">
        <ele>175</ele>
        <time>2010-05-13T08:37:39Z</time>
      </trkpt>
      <trkpt lat="48.66205" lon="2.05441">
        <ele>175</ele>
        <time>2010-05-13T08:37:40Z</time>
      </trkpt>
      <trkpt lat="48.66211" lon="2.05441">
        <ele>175</ele>
        <time>2010-05-13T08:37:41Z</time>
      </trkpt>
      <trkpt lat="48.66218" lon="2.0544">
        <ele>175</ele>
        <time>2010-05-13T08:37:42Z</time>
      </trkpt>
      <trkpt lat="48.66225" lon="2.0544">
        <ele>175</ele>
        <time>2010-05-13T08:37:43Z</time>
      </trkpt>
      <trkpt lat="48.66231" lon="2.05439">
        <ele>175</ele>
        <time>2010-05-13T08:37:44Z</time>
      </trkpt>
      <trkpt lat="48.66238" lon="2.05439">
        <ele>175</ele>
        <time>2010-05-13T08:37:45Z</time>
      </trkpt>
      <trkpt lat="48.66245" lon="2.05438">
        <ele>175</ele>
        <time>2010-05-13T08:37:46Z</time>
      </trkpt>
      <trkpt lat="48.66252" lon="2.05437">
        <ele>175</ele>
        <time>2010-05-13T08:37:47Z</time>
      </trkpt>
      <trkpt lat="48.66259" lon="2.05437">
        <ele>175</ele>
        <time>2010-05-13T08:37:48Z</time>
      </trkpt>
      <trkpt lat="48.66266" lon="2.05436">
        <ele>175</ele>
        <time>2010-05-13T08:37:49Z</time>
      </trkpt>
      <trkpt lat="48.66274" lon="2.05435">
        <ele>175</ele>
        <time>2010-05-13T08:37:50Z</time>
      </trkpt>
      <trkpt lat="48.66281" lon="2.05435">
        <ele>175</ele>
        <time>2010-05-13T08:37:51Z</time>
      </trkpt>
      <trkpt lat="48.66289" lon="2.05434">
        <ele>175</ele>
        <time>2010-05-13T08:37:52Z</time>
      </trkpt>
      <trkpt lat="48.66296" lon="2.05433">
        <ele>175</ele>
        <time>2010-05-13T08:37:53Z</time>
      </trkpt>
      <trkpt lat="48.66303" lon="2.05432">
        <ele>175</ele>
        <time>2010-05-13T08:37:54Z</time>
      </trkpt>
      <trkpt lat="48.66309" lon="2.05431">
        <ele>175</ele>
        <time>2010-05-13T08:37:55Z</time>
      </trkpt>
      <trkpt lat="48.66316" lon="2.05431">
        <ele>175</ele>
        <time>2010-05-13T08:37:56Z</time>
      </trkpt>
      <trkpt lat="48.66323" lon="2.0543">
        <ele>175</ele>
        <time>2010-05-13T08:37:57Z</time>
      </trkpt>
      <trkpt lat="48.6633" lon="2.0543">
        <ele>175</ele>
        <time>2010-05-13T08:37:58Z</time>
      </trkpt>
      <trkpt lat="48.66337" lon="2.05429">
        <ele>175</ele>
        <time>2010-05-13T08:37:59Z</time>
      </trkpt>
      <trkpt lat="48.66345" lon="2.05428">
        <ele>175</ele>
        <time>2010-05-13T08:38:00Z</time>
      </trkpt>
      <trkpt lat="48.66352" lon="2.05426">
        <ele>175</ele>
        <time>2010-05-13T08:38:01Z</time>
      </trkpt>
      <trkpt lat="48.66359" lon="2.05425">
        <ele>175</ele>
        <time>2010-05-13T08:38:02Z</time>
      </trkpt>
      <trkpt lat="48.66366" lon="2.05424">
        <ele>175</ele>
        <time>2010-05-13T08:38:03Z</time>
      </trkpt>
      <trkpt lat="48.66373" lon="2.05423">
        <ele>175</ele>
        <time>2010-05-13T08:38:04Z</time>
      </trkpt>
      <trkpt lat="48.6638" lon="2.05422">
        <ele>175</ele>
        <time>2010-05-13T08:38:05Z</time>
      </trkpt>
      <trkpt lat="48.66388" lon="2.05421">
        <ele>175</ele>
        <time>2010-05-13T08:38:06Z</time>
      </trkpt>
      <trkpt lat="48.66395" lon="2.0542">
        <ele>175</ele>
        <time>2010-05-13T08:38:07Z</time>
      </trkpt>
      <trkpt lat="48.66402" lon="2.05419">
        <ele>175</ele>
        <time>2010-05-13T08:38:08Z</time>
      </trkpt>
      <trkpt lat="48.66409" lon="2.05417">
        <ele>175</ele>
        <time>2010-05-13T08:38:09Z</time>
      </trkpt>
      <trkpt lat="48.66416" lon="2.05416">
        <ele>175</ele>
        <time>2010-05-13T08:38:10Z</time>
      </trkpt>
      <trkpt lat="48.66423" lon="2.05415">
        <ele>175</ele>
        <time>2010-05-13T08:38:11Z</time>
      </trkpt>
      <trkpt lat="48.6643" lon="2.05414">
        <ele>174</ele>
        <time>2010-05-13T08:38:12Z</time>
      </trkpt>
      <trkpt lat="48.66437" lon="2.05413">
        <ele>174</ele>
        <time>2010-05-13T08:38:13Z</time>
      </trkpt>
      <trkpt lat="48.66444" lon="2.05412">
        <ele>174</ele>
        <time>2010-05-13T08:38:14Z</time>
      </trkpt>
      <trkpt lat="48.66452" lon="2.05411">
        <ele>174</ele>
        <time>2010-05-13T08:38:15Z</time>
      </trkpt>
      <trkpt lat="48.66459" lon="2.0541">
        <ele>174</ele>
        <time>2010-05-13T08:38:16Z</time>
      </trkpt>
      <trkpt lat="48.66466" lon="2.05408">
        <ele>174</ele>
        <time>2010-05-13T08:38:17Z</time>
      </trkpt>
      <trkpt lat="48.66473" lon="2.05407">
        <ele>174</ele>
        <time>2010-05-13T08:38:18Z</time>
      </trkpt>
      <trkpt lat="48.6648" lon="2.05405">
        <ele>174</ele>
        <time>2010-05-13T08:38:19Z</time>
      </trkpt>
      <trkpt lat="48.66488" lon="2.05404">
        <ele>173</ele>
        <time>2010-05-13T08:38:20Z</time>
      </trkpt>
      <trkpt lat="48.66495" lon="2.05404">
        <ele>173</ele>
        <time>2010-05-13T08:38:21Z</time>
      </trkpt>
      <trkpt lat="48.66502" lon="2.05403">
        <ele>173</ele>
        <time>2010-05-13T08:38:22Z</time>
      </trkpt>
      <trkpt lat="48.66509" lon="2.05402">
        <ele>173</ele>
        <time>2010-05-13T08:38:23Z</time>
      </trkpt>
      <trkpt lat="48.66516" lon="2.054">
        <ele>173</ele>
        <time>2010-05-13T08:38:24Z</time>
      </trkpt>
      <trkpt lat="48.66523" lon="2.05399">
        <ele>173</ele>
        <time>2010-05-13T08:38:25Z</time>
      </trkpt>
      <trkpt lat="48.66529" lon="2.05398">
        <ele>173</ele>
        <time>2010-05-13T08:38:26Z</time>
      </trkpt>
      <trkpt lat="48.66536" lon="2.05396">
        <ele>173</ele>
        <time>2010-05-13T08:38:27Z</time>
      </trkpt>
      <trkpt lat="48.66543" lon="2.05393">
        <ele>173</ele>
        <time>2010-05-13T08:38:28Z</time>
      </trkpt>
      <trkpt lat="48.66549" lon="2.05391">
        <ele>173</ele>
        <time>2010-05-13T08:38:29Z</time>
      </trkpt>
      <trkpt lat="48.66556" lon="2.05389">
        <ele>173</ele>
        <time>2010-05-13T08:38:30Z</time>
      </trkpt>
      <trkpt lat="48.66563" lon="2.05386">
        <ele>173</ele>
        <time>2010-05-13T08:38:31Z</time>
      </trkpt>
      <trkpt lat="48.66569" lon="2.05384">
        <ele>173</ele>
        <time>2010-05-13T08:38:32Z</time>
      </trkpt>
      <trkpt lat="48.66576" lon="2.05382">
        <ele>173</ele>
        <time>2010-05-13T08:38:33Z</time>
      </trkpt>
      <trkpt lat="48.66582" lon="2.05379">
        <ele>172</ele>
        <time>2010-05-13T08:38:34Z</time>
      </trkpt>
      <trkpt lat="48.66589" lon="2.05375">
        <ele>172</ele>
        <time>2010-05-13T08:38:35Z</time>
      </trkpt>
      <trkpt lat="48.66596" lon="2.05372">
        <ele>172</ele>
        <time>2010-05-13T08:38:36Z</time>
      </trkpt>
      <trkpt lat="48.66603" lon="2.05368">
        <ele>172</ele>
        <time>2010-05-13T08:38:37Z</time>
      </trkpt>
      <trkpt lat="48.6661" lon="2.05364">
        <ele>172</ele>
        <time>2010-05-13T08:38:38Z</time>
      </trkpt>
      <trkpt lat="48.66616" lon="2.05359">
        <ele>172</ele>
        <time>2010-05-13T08:38:39Z</time>
      </trkpt>
      <trkpt lat="48.66623" lon="2.05355">
        <ele>171</ele>
        <time>2010-05-13T08:38:40Z</time>
      </trkpt>
      <trkpt lat="48.6663" lon="2.0535">
        <ele>171</ele>
        <time>2010-05-13T08:38:41Z</time>
      </trkpt>
      <trkpt lat="48.66637" lon="2.05345">
        <ele>171</ele>
        <time>2010-05-13T08:38:42Z</time>
      </trkpt>
      <trkpt lat="48.66644" lon="2.0534">
        <ele>171</ele>
        <time>2010-05-13T08:38:43Z</time>
      </trkpt>
      <trkpt lat="48.6665" lon="2.05335">
        <ele>171</ele>
        <time>2010-05-13T08:38:44Z</time>
      </trkpt>
      <trkpt lat="48.66656" lon="2.0533">
        <ele>171</ele>
        <time>2010-05-13T08:38:45Z</time>
      </trkpt>
      <trkpt lat="48.66663" lon="2.05326">
        <ele>171</ele>
        <time>2010-05-13T08:38:46Z</time>
      </trkpt>
      <trkpt lat="48.66669" lon="2.05321">
        <ele>171</ele>
        <time>2010-05-13T08:38:47Z</time>
      </trkpt>
      <trkpt lat="48.66675" lon="2.05316">
        <ele>171</ele>
        <time>2010-05-13T08:38:48Z</time>
      </trkpt>
      <trkpt lat="48.66681" lon="2.05312">
        <ele>171</ele>
        <time>2010-05-13T08:38:49Z</time>
      </trkpt>
      <trkpt lat="48.66687" lon="2.05307">
        <ele>171</ele>
        <time>2010-05-13T08:38:50Z</time>
      </trkpt>
      <trkpt lat="48.66694" lon="2.05303">
        <ele>170</ele>
        <time>2010-05-13T08:38:51Z</time>
      </trkpt>
      <trkpt lat="48.667" lon="2.05299">
        <ele>170</ele>
        <time>2010-05-13T08:38:52Z</time>
      </trkpt>
      <trkpt lat="48.66707" lon="2.05295">
        <ele>170</ele>
        <time>2010-05-13T08:38:53Z</time>
      </trkpt>
      <trkpt lat="48.66713" lon="2.05291">
        <ele>170</ele>
        <time>2010-05-13T08:38:54Z</time>
      </trkpt>
      <trkpt lat="48.66719" lon="2.05288">
        <ele>170</ele>
        <time>2010-05-13T08:38:55Z</time>
      </trkpt>
      <trkpt lat="48.66725" lon="2.05285">
        <ele>170</ele>
        <time>2010-05-13T08:38:56Z</time>
      </trkpt>
      <trkpt lat="48.66731" lon="2.05282">
        <ele>170</ele>
        <time>2010-05-13T08:38:57Z</time>
      </trkpt>
      <trkpt lat="48.66737" lon="2.0528">
        <ele>170</ele>
        <time>2010-05-13T08:38:58Z</time>
      </trkpt>
      <trkpt lat="48.66743" lon="2.05278">
        <ele>170</ele>
        <time>2010-05-13T08:38:59Z</time>
      </trkpt>
      <trkpt lat="48.66749" lon="2.05276">
        <ele>170</ele>
        <time>2010-05-13T08:39:00Z</time>
      </trkpt>
      <trkpt lat="48.66756" lon="2.05275">
        <ele>170</ele>
        <time>2010-05-13T08:39:01Z</time>
      </trkpt>
      <trkpt lat="48.66762" lon="2.05275">
        <ele>170</ele>
        <time>2010-05-13T08:39:02Z</time>
      </trkpt>
      <trkpt lat="48.66768" lon="2.05275">
        <ele>170</ele>
        <time>2010-05-13T08:39:03Z</time>
      </trkpt>
      <trkpt lat="48.66773" lon="2.05276">
        <ele>170</ele>
        <time>2010-05-13T08:39:04Z</time>
      </trkpt>
      <trkpt lat="48.66778" lon="2.05277">
        <ele>170</ele>
        <time>2010-05-13T08:39:05Z</time>
      </trkpt>
      <trkpt lat="48.66782" lon="2.05278">
        <ele>170</ele>
        <time>2010-05-13T08:39:06Z</time>
      </trkpt>
      <trkpt lat="48.66786" lon="2.05279">
        <ele>170</ele>
        <time>2010-05-13T08:39:07Z</time>
      </trkpt>
      <trkpt lat="48.66791" lon="2.0528">
        <ele>170</ele>
        <time>2010-05-13T08:39:08Z</time>
      </trkpt>
      <trkpt lat="48.66795" lon="2.05281">
        <ele>170</ele>
        <time>2010-05-13T08:39:09Z</time>
      </trkpt>
      <trkpt lat="48.66798" lon="2.05282">
        <ele>170</ele>
        <time>2010-05-13T08:39:10Z</time>
      </trkpt>
      <trkpt lat="48.66802" lon="2.05283">
        <ele>170</ele>
        <time>2010-05-13T08:39:11Z</time>
      </trkpt>
      <trkpt lat="48.66806" lon="2.05284">
        <ele>170</ele>
        <time>2010-05-13T08:39:12Z</time>
      </trkpt>
      <trkpt lat="48.6681" lon="2.05284">
        <ele>170</ele>
        <time>2010-05-13T08:39:13Z</time>
      </trkpt>
      <trkpt lat="48.66814" lon="2.05284">
        <ele>170</ele>
        <time>2010-05-13T08:39:14Z</time>
      </trkpt>
      <trkpt lat="48.66817" lon="2.05285">
        <ele>170</ele>
        <time>2010-05-13T08:39:15Z</time>
      </trkpt>
      <trkpt lat="48.66821" lon="2.05285">
        <ele>170</ele>
        <time>2010-05-13T08:39:16Z</time>
      </trkpt>
      <trkpt lat="48.66824" lon="2.05285">
        <ele>170</ele>
        <time>2010-05-13T08:39:17Z</time>
      </trkpt>
      <trkpt lat="48.66827" lon="2.05285">
        <ele>170</ele>
        <time>2010-05-13T08:39:18Z</time>
      </trkpt>
      <trkpt lat="48.66829" lon="2.05285">
        <ele>170</ele>
        <time>2010-05-13T08:39:19Z</time>
      </trkpt>
      <trkpt lat="48.6683" lon="2.05285">
        <ele>170</ele>
        <time>2010-05-13T08:39:20Z</time>
      </trkpt>
      <trkpt lat="48.66832" lon="2.05285">
        <ele>170</ele>
        <time>2010-05-13T08:39:21Z</time>
      </trkpt>
      <trkpt lat="48.66833" lon="2.05285">
        <ele>170</ele>
        <time>2010-05-13T08:39:22Z</time>
      </trkpt>
      <trkpt lat="48.66835" lon="2.05285">
        <ele>170</ele>
        <time>2010-05-13T08:39:23Z</time>
      </trkpt>
      <trkpt lat="48.66836" lon="2.05284">
        <ele>170</ele>
        <time>2010-05-13T08:39:24Z</time>
      </trkpt>
      <trkpt lat="48.66837" lon="2.05283">
        <ele>170</ele>
        <time>2010-05-13T08:39:25Z</time>
      </trkpt>
      <trkpt lat="48.66839" lon="2.05283">
        <ele>170</ele>
        <time>2010-05-13T08:39:26Z</time>
      </trkpt>
      <trkpt lat="48.66841" lon="2.05282">
        <ele>170</ele>
        <time>2010-05-13T08:39:27Z</time>
      </trkpt>
      <trkpt lat="48.66842" lon="2.05281">
        <ele>170</ele>
        <time>2010-05-13T08:39:28Z</time>
      </trkpt>
      <trkpt lat="48.66844" lon="2.0528">
        <ele>170</ele>
        <time>2010-05-13T08:39:29Z</time>
      </trkpt>
      <trkpt lat="48.66845" lon="2.05279">
        <ele>170</ele>
        <time>2010-05-13T08:39:30Z</time>
      </trkpt>
      <trkpt lat="48.66846" lon="2.05278">
        <ele>170</ele>
        <time>2010-05-13T08:39:31Z</time>
      </trkpt>
      <trkpt lat="48.66848" lon="2.05276">
        <ele>170</ele>
        <time>2010-05-13T08:39:33Z</time>
      </trkpt>
      <trkpt lat="48.6685" lon="2.05274">
        <ele>170</ele>
        <time>2010-05-13T08:39:35Z</time>
      </trkpt>
      <trkpt lat="48.66851" lon="2.05272">
        <ele>170</ele>
        <time>2010-05-13T08:39:37Z</time>
      </trkpt>
      <trkpt lat="48.66853" lon="2.0527">
        <ele>170</ele>
        <time>2010-05-13T08:39:39Z</time>
      </trkpt>
      <trkpt lat="48.66855" lon="2.05268">
        <ele>170</ele>
        <time>2010-05-13T08:39:41Z</time>
      </trkpt>
      <trkpt lat="48.66857" lon="2.05266">
        <ele>170</ele>
        <time>2010-05-13T08:39:43Z</time>
      </trkpt>
      <trkpt lat="48.66858" lon="2.05264">
        <ele>170</ele>
        <time>2010-05-13T08:39:44Z</time>
      </trkpt>
      <trkpt lat="48.66858" lon="2.05261">
        <ele>170</ele>
        <time>2010-05-13T08:39:45Z</time>
      </trkpt>
      <trkpt lat="48.66859" lon="2.05258">
        <ele>170</ele>
        <time>2010-05-13T08:39:46Z</time>
      </trkpt>
      <trkpt lat="48.66859" lon="2.05255">
        <ele>170</ele>
        <time>2010-05-13T08:39:47Z</time>
      </trkpt>
      <trkpt lat="48.66859" lon="2.05252">
        <ele>170</ele>
        <time>2010-05-13T08:39:48Z</time>
      </trkpt>
      <trkpt lat="48.6686" lon="2.0525">
        <ele>170</ele>
        <time>2010-05-13T08:39:49Z</time>
      </trkpt>
      <trkpt lat="48.6686" lon="2.05247">
        <ele>170</ele>
        <time>2010-05-13T08:39:50Z</time>
      </trkpt>
      <trkpt lat="48.6686" lon="2.05245">
        <ele>170</ele>
        <time>2010-05-13T08:39:51Z</time>
      </trkpt>
      <trkpt lat="48.6686" lon="2.05242">
        <ele>170</ele>
        <time>2010-05-13T08:39:52Z</time>
      </trkpt>
      <trkpt lat="48.66861" lon="2.0524">
        <ele>170</ele>
        <time>2010-05-13T08:39:53Z</time>
      </trkpt>
      <trkpt lat="48.66862" lon="2.05237">
        <ele>170</ele>
        <time>2010-05-13T08:39:54Z</time>
      </trkpt>
      <trkpt lat="48.66863" lon="2.05234">
        <ele>170</ele>
        <time>2010-05-13T08:39:55Z</time>
      </trkpt>
      <trkpt lat="48.66864" lon="2.05232">
        <ele>170</ele>
        <time>2010-05-13T08:39:56Z</time>
      </trkpt>
      <trkpt lat="48.66865" lon="2.05229">
        <ele>170</ele>
        <time>2010-05-13T08:39:57Z</time>
      </trkpt>
      <trkpt lat="48.66866" lon="2.05227">
        <ele>170</ele>
        <time>2010-05-13T08:39:58Z</time>
      </trkpt>
      <trkpt lat="48.66866" lon="2.05224">
        <ele>170</ele>
        <time>2010-05-13T08:39:59Z</time>
      </trkpt>
      <trkpt lat="48.66867" lon="2.05222">
        <ele>170</ele>
        <time>2010-05-13T08:40:00Z</time>
      </trkpt>
      <trkpt lat="48.66868" lon="2.0522">
        <ele>170</ele>
        <time>2010-05-13T08:40:01Z</time>
      </trkpt>
      <trkpt lat="48.66869" lon="2.05218">
        <ele>170</ele>
        <time>2010-05-13T08:40:03Z</time>
      </trkpt>
      <trkpt lat="48.6687" lon="2.05216">
        <ele>170</ele>
        <time>2010-05-13T08:40:05Z</time>
      </trkpt>
      <trkpt lat="48.66871" lon="2.05214">
        <ele>170</ele>
        <time>2010-05-13T08:40:06Z</time>
      </trkpt>
      <trkpt lat="48.66871" lon="2.05212">
        <ele>170</ele>
        <time>2010-05-13T08:40:07Z</time>
      </trkpt>
      <trkpt lat="48.66872" lon="2.0521">
        <ele>170</ele>
        <time>2010-05-13T08:40:08Z</time>
      </trkpt>
      <trkpt lat="48.66873" lon="2.05208">
        <ele>170</ele>
        <time>2010-05-13T08:40:09Z</time>
      </trkpt>
      <trkpt lat="48.66874" lon="2.05206">
        <ele>170</ele>
        <time>2010-05-13T08:40:10Z</time>
      </trkpt>
      <trkpt lat="48.66875" lon="2.05205">
        <ele>170</ele>
        <time>2010-05-13T08:40:11Z</time>
      </trkpt>
      <trkpt lat="48.66875" lon="2.05203">
        <ele>170</ele>
        <time>2010-05-13T08:40:12Z</time>
      </trkpt>
      <trkpt lat="48.66876" lon="2.05201">
        <ele>170</ele>
        <time>2010-05-13T08:40:13Z</time>
      </trkpt>
      <trkpt lat="48.66877" lon="2.05198">
        <ele>170</ele>
        <time>2010-05-13T08:40:14Z</time>
      </trkpt>
      <trkpt lat="48.66878" lon="2.05196">
        <ele>170</ele>
        <time>2010-05-13T08:40:15Z</time>
      </trkpt>
      <trkpt lat="48.66879" lon="2.05193">
        <ele>170</ele>
        <time>2010-05-13T08:40:16Z</time>
      </trkpt>
      <trkpt lat="48.66879" lon="2.05191">
        <ele>170</ele>
        <time>2010-05-13T08:40:17Z</time>
      </trkpt>
      <trkpt lat="48.6688" lon="2.05188">
        <ele>170</ele>
        <time>2010-05-13T08:40:18Z</time>
      </trkpt>
      <trkpt lat="48.66881" lon="2.05186">
        <ele>170</ele>
        <time>2010-05-13T08:40:19Z</time>
      </trkpt>
      <trkpt lat="48.66882" lon="2.05183">
        <ele>170</ele>
        <time>2010-05-13T08:40:20Z</time>
      </trkpt>
      <trkpt lat="48.66883" lon="2.0518">
        <ele>170</ele>
        <time>2010-05-13T08:40:21Z</time>
      </trkpt>
      <trkpt lat="48.66884" lon="2.05178">
        <ele>170</ele>
        <time>2010-05-13T08:40:22Z</time>
      </trkpt>
      <trkpt lat="48.66885" lon="2.05176">
        <ele>170</ele>
        <time>2010-05-13T08:40:23Z</time>
      </trkpt>
      <trkpt lat="48.66885" lon="2.05173">
        <ele>170</ele>
        <time>2010-05-13T08:40:24Z</time>
      </trkpt>
      <trkpt lat="48.66886" lon="2.05171">
        <ele>170</ele>
        <time>2010-05-13T08:40:25Z</time>
      </trkpt>
      <trkpt lat="48.66887" lon="2.05169">
        <ele>170</ele>
        <time>2010-05-13T08:40:26Z</time>
      </trkpt>
      <trkpt lat="48.66888" lon="2.05167">
        <ele>170</ele>
        <time>2010-05-13T08:40:27Z</time>
      </trkpt>
      <trkpt lat="48.66889" lon="2.05165">
        <ele>170</ele>
        <time>2010-05-13T08:40:28Z</time>
      </trkpt>
      <trkpt lat="48.6689" lon="2.05163">
        <ele>170</ele>
        <time>2010-05-13T08:40:29Z</time>
      </trkpt>
      <trkpt lat="48.66891" lon="2.05161">
        <ele>170</ele>
        <time>2010-05-13T08:40:30Z</time>
      </trkpt>
      <trkpt lat="48.66891" lon="2.05159">
        <ele>170</ele>
        <time>2010-05-13T08:40:31Z</time>
      </trkpt>
      <trkpt lat="48.66892" lon="2.05156">
        <ele>170</ele>
        <time>2010-05-13T08:40:32Z</time>
      </trkpt>
      <trkpt lat="48.66893" lon="2.05154">
        <ele>170</ele>
        <time>2010-05-13T08:40:33Z</time>
      </trkpt>
      <trkpt lat="48.66893" lon="2.05152">
        <ele>170</ele>
        <time>2010-05-13T08:40:34Z</time>
      </trkpt>
      <trkpt lat="48.66894" lon="2.0515">
        <ele>170</ele>
        <time>2010-05-13T08:40:37Z</time>
      </trkpt>
      <trkpt lat="48.66893" lon="2.05152">
        <ele>170</ele>
        <time>2010-05-13T08:40:41Z</time>
      </trkpt>
      <trkpt lat="48.66895" lon="2.05155">
        <ele>170</ele>
        <time>2010-05-13T08:40:43Z</time>
      </trkpt>
      <trkpt lat="48.66897" lon="2.05156">
        <ele>170</ele>
        <time>2010-05-13T08:40:45Z</time>
      </trkpt>
      <trkpt lat="48.66897" lon="2.05158">
        <ele>170</ele>
        <time>2010-05-13T08:40:49Z</time>
      </trkpt>
      <trkpt lat="48.66898" lon="2.0516">
        <ele>170</ele>
        <time>2010-05-13T08:40:56Z</time>
      </trkpt>
      <trkpt lat="48.66899" lon="2.05158">
        <ele>170</ele>
        <time>2010-05-13T08:41:08Z</time>
      </trkpt>
      <trkpt lat="48.66901" lon="2.05157">
        <ele>170</ele>
        <time>2010-05-13T08:41:10Z</time>
      </trkpt>
      <trkpt lat="48.66901" lon="2.05159">
        <ele>170</ele>
        <time>2010-05-13T08:41:12Z</time>
      </trkpt>
      <trkpt lat="48.66902" lon="2.05162">
        <ele>170</ele>
        <time>2010-05-13T08:41:13Z</time>
      </trkpt>
      <trkpt lat="48.66903" lon="2.05164">
        <ele>170</ele>
        <time>2010-05-13T08:41:14Z</time>
      </trkpt>
      <trkpt lat="48.66904" lon="2.05165">
        <ele>170</ele>
        <time>2010-05-13T08:41:15Z</time>
      </trkpt>
      <trkpt lat="48.66906" lon="2.05167">
        <ele>170</ele>
        <time>2010-05-13T08:41:16Z</time>
      </trkpt>
      <trkpt lat="48.66908" lon="2.05168">
        <ele>170</ele>
        <time>2010-05-13T08:41:17Z</time>
      </trkpt>
      <trkpt lat="48.6691" lon="2.0517">
        <ele>170</ele>
        <time>2010-05-13T08:41:18Z</time>
      </trkpt>
      <trkpt lat="48.66911" lon="2.05171">
        <ele>170</ele>
        <time>2010-05-13T08:41:19Z</time>
      </trkpt>
      <trkpt lat="48.66913" lon="2.05173">
        <ele>170</ele>
        <time>2010-05-13T08:41:20Z</time>
      </trkpt>
      <trkpt lat="48.66915" lon="2.05175">
        <ele>170</ele>
        <time>2010-05-13T08:41:21Z</time>
      </trkpt>
      <trkpt lat="48.66916" lon="2.05177">
        <ele>170</ele>
        <time>2010-05-13T08:41:22Z</time>
      </trkpt>
      <trkpt lat="48.66918" lon="2.0518">
        <ele>170</ele>
        <time>2010-05-13T08:41:23Z</time>
      </trkpt>
      <trkpt lat="48.6692" lon="2.05183">
        <ele>170</ele>
        <time>2010-05-13T08:41:24Z</time>
      </trkpt>
      <trkpt lat="48.66922" lon="2.05185">
        <ele>170</ele>
        <time>2010-05-13T08:41:25Z</time>
      </trkpt>
      <trkpt lat="48.66923" lon="2.05187">
        <ele>170</ele>
        <time>2010-05-13T08:41:26Z</time>
      </trkpt>
      <trkpt lat="48.66925" lon="2.05189">
        <ele>169</ele>
        <time>2010-05-13T08:41:27Z</time>
      </trkpt>
      <trkpt lat="48.66927" lon="2.05191">
        <ele>169</ele>
        <time>2010-05-13T08:41:28Z</time>
      </trkpt>
      <trkpt lat="48.6693" lon="2.05193">
        <ele>169</ele>
        <time>2010-05-13T08:41:29Z</time>
      </trkpt>
      <trkpt lat="48.66931" lon="2.05194">
        <ele>168</ele>
        <time>2010-05-13T08:41:30Z</time>
      </trkpt>
      <trkpt lat="48.66933" lon="2.05197">
        <ele>168</ele>
        <time>2010-05-13T08:41:31Z</time>
      </trkpt>
      <trkpt lat="48.66934" lon="2.05198">
        <ele>168</ele>
        <time>2010-05-13T08:41:32Z</time>
      </trkpt>
      <trkpt lat="48.66936" lon="2.052">
        <ele>168</ele>
        <time>2010-05-13T08:41:33Z</time>
      </trkpt>
      <trkpt lat="48.66938" lon="2.05201">
        <ele>168</ele>
        <time>2010-05-13T08:41:34Z</time>
      </trkpt>
      <trkpt lat="48.66939" lon="2.05203">
        <ele>168</ele>
        <time>2010-05-13T08:41:35Z</time>
      </trkpt>
      <trkpt lat="48.66941" lon="2.05205">
        <ele>168</ele>
        <time>2010-05-13T08:41:37Z</time>
      </trkpt>
      <trkpt lat="48.66942" lon="2.05206">
        <ele>168</ele>
        <time>2010-05-13T08:41:38Z</time>
      </trkpt>
      <trkpt lat="48.66943" lon="2.05208">
        <ele>168</ele>
        <time>2010-05-13T08:41:39Z</time>
      </trkpt>
      <trkpt lat="48.66945" lon="2.0521">
        <ele>167</ele>
        <time>2010-05-13T08:41:40Z</time>
      </trkpt>
      <trkpt lat="48.66946" lon="2.05212">
        <ele>167</ele>
        <time>2010-05-13T08:41:41Z</time>
      </trkpt>
      <trkpt lat="48.66948" lon="2.05213">
        <ele>167</ele>
        <time>2010-05-13T08:41:42Z</time>
      </trkpt>
      <trkpt lat="48.66949" lon="2.05214">
        <ele>167</ele>
        <time>2010-05-13T08:41:43Z</time>
      </trkpt>
      <trkpt lat="48.6695" lon="2.05216">
        <ele>166</ele>
        <time>2010-05-13T08:41:44Z</time>
      </trkpt>
      <trkpt lat="48.66951" lon="2.05217">
        <ele>166</ele>
        <time>2010-05-13T08:41:45Z</time>
      </trkpt>
      <trkpt lat="48.66953" lon="2.05219">
        <ele>166</ele>
        <time>2010-05-13T08:41:46Z</time>
      </trkpt>
      <trkpt lat="48.66955" lon="2.0522">
        <ele>166</ele>
        <time>2010-05-13T08:41:47Z</time>
      </trkpt>
      <trkpt lat="48.66957" lon="2.05222">
        <ele>166</ele>
        <time>2010-05-13T08:41:48Z</time>
      </trkpt>
      <trkpt lat="48.6696" lon="2.05223">
        <ele>166</ele>
        <time>2010-05-13T08:41:49Z</time>
      </trkpt>
      <trkpt lat="48.66962" lon="2.05224">
        <ele>166</ele>
        <time>2010-05-13T08:41:50Z</time>
      </trkpt>
      <trkpt lat="48.66963" lon="2.05225">
        <ele>166</ele>
        <time>2010-05-13T08:41:51Z</time>
      </trkpt>
      <trkpt lat="48.66964" lon="2.05227">
        <ele>166</ele>
        <time>2010-05-13T08:41:52Z</time>
      </trkpt>
      <trkpt lat="48.66966" lon="2.05228">
        <ele>166</ele>
        <time>2010-05-13T08:41:53Z</time>
      </trkpt>
      <trkpt lat="48.66967" lon="2.05229">
        <ele>166</ele>
        <time>2010-05-13T08:41:54Z</time>
      </trkpt>
      <trkpt lat="48.66969" lon="2.0523">
        <ele>166</ele>
        <time>2010-05-13T08:41:55Z</time>
      </trkpt>
      <trkpt lat="48.6697" lon="2.05233">
        <ele>166</ele>
        <time>2010-05-13T08:41:57Z</time>
      </trkpt>
      <trkpt lat="48.66971" lon="2.05234">
        <ele>166</ele>
        <time>2010-05-13T08:41:58Z</time>
      </trkpt>
      <trkpt lat="48.66973" lon="2.05237">
        <ele>166</ele>
        <time>2010-05-13T08:42:00Z</time>
      </trkpt>
      <trkpt lat="48.66975" lon="2.05238">
        <ele>166</ele>
        <time>2010-05-13T08:42:02Z</time>
      </trkpt>
      <trkpt lat="48.66976" lon="2.05239">
        <ele>166</ele>
        <time>2010-05-13T08:42:03Z</time>
      </trkpt>
      <trkpt lat="48.66978" lon="2.0524">
        <ele>166</ele>
        <time>2010-05-13T08:42:04Z</time>
      </trkpt>
      <trkpt lat="48.6698" lon="2.05241">
        <ele>166</ele>
        <time>2010-05-13T08:42:05Z</time>
      </trkpt>
      <trkpt lat="48.66981" lon="2.05242">
        <ele>166</ele>
        <time>2010-05-13T08:42:06Z</time>
      </trkpt>
      <trkpt lat="48.66983" lon="2.05242">
        <ele>166</ele>
        <time>2010-05-13T08:42:07Z</time>
      </trkpt>
      <trkpt lat="48.66984" lon="2.05243">
        <ele>166</ele>
        <time>2010-05-13T08:42:08Z</time>
      </trkpt>
      <trkpt lat="48.66985" lon="2.05243">
        <ele>166</ele>
        <time>2010-05-13T08:42:09Z</time>
      </trkpt>
      <trkpt lat="48.66987" lon="2.05245">
        <ele>166</ele>
        <time>2010-05-13T08:42:10Z</time>
      </trkpt>
      <trkpt lat="48.66989" lon="2.05246">
        <ele>166</ele>
        <time>2010-05-13T08:42:11Z</time>
      </trkpt>
      <trkpt lat="48.6699" lon="2.05247">
        <ele>166</ele>
        <time>2010-05-13T08:42:12Z</time>
      </trkpt>
      <trkpt lat="48.66992" lon="2.05247">
        <ele>166</ele>
        <time>2010-05-13T08:42:13Z</time>
      </trkpt>
      <trkpt lat="48.66993" lon="2.05248">
        <ele>166</ele>
        <time>2010-05-13T08:42:14Z</time>
      </trkpt>
      <trkpt lat="48.66994" lon="2.0525">
        <ele>166</ele>
        <time>2010-05-13T08:42:15Z</time>
      </trkpt>
      <trkpt lat="48.66996" lon="2.0525">
        <ele>166</ele>
        <time>2010-05-13T08:42:16Z</time>
      </trkpt>
      <trkpt lat="48.66998" lon="2.05252">
        <ele>166</ele>
        <time>2010-05-13T08:42:17Z</time>
      </trkpt>
      <trkpt lat="48.67" lon="2.05253">
        <ele>166</ele>
        <time>2010-05-13T08:42:18Z</time>
      </trkpt>
      <trkpt lat="48.67001" lon="2.05255">
        <ele>166</ele>
        <time>2010-05-13T08:42:19Z</time>
      </trkpt>
      <trkpt lat="48.67003" lon="2.05257">
        <ele>166</ele>
        <time>2010-05-13T08:42:20Z</time>
      </trkpt>
      <trkpt lat="48.67006" lon="2.05258">
        <ele>166</ele>
        <time>2010-05-13T08:42:21Z</time>
      </trkpt>
      <trkpt lat="48.67007" lon="2.05259">
        <ele>166</ele>
        <time>2010-05-13T08:42:22Z</time>
      </trkpt>
      <trkpt lat="48.67008" lon="2.05261">
        <ele>166</ele>
        <time>2010-05-13T08:42:23Z</time>
      </trkpt>
      <trkpt lat="48.67011" lon="2.05263">
        <ele>166</ele>
        <time>2010-05-13T08:42:25Z</time>
      </trkpt>
      <trkpt lat="48.67012" lon="2.05264">
        <ele>166</ele>
        <time>2010-05-13T08:42:26Z</time>
      </trkpt>
      <trkpt lat="48.67014" lon="2.05266">
        <ele>166</ele>
        <time>2010-05-13T08:42:27Z</time>
      </trkpt>
      <trkpt lat="48.67015" lon="2.05267">
        <ele>166</ele>
        <time>2010-05-13T08:42:28Z</time>
      </trkpt>
      <trkpt lat="48.67017" lon="2.05268">
        <ele>166</ele>
        <time>2010-05-13T08:42:29Z</time>
      </trkpt>
      <trkpt lat="48.6702" lon="2.05268">
        <ele>166</ele>
        <time>2010-05-13T08:42:30Z</time>
      </trkpt>
      <trkpt lat="48.67022" lon="2.05269">
        <ele>166</ele>
        <time>2010-05-13T08:42:31Z</time>
      </trkpt>
      <trkpt lat="48.67023" lon="2.0527">
        <ele>166</ele>
        <time>2010-05-13T08:42:32Z</time>
      </trkpt>
      <trkpt lat="48.67025" lon="2.05272">
        <ele>166</ele>
        <time>2010-05-13T08:42:33Z</time>
      </trkpt>
      <trkpt lat="48.67027" lon="2.05273">
        <ele>166</ele>
        <time>2010-05-13T08:42:34Z</time>
      </trkpt>
      <trkpt lat="48.67028" lon="2.05276">
        <ele>166</ele>
        <time>2010-05-13T08:42:35Z</time>
      </trkpt>
      <trkpt lat="48.6703" lon="2.05278">
        <ele>166</ele>
        <time>2010-05-13T08:42:36Z</time>
      </trkpt>
      <trkpt lat="48.67031" lon="2.05279">
        <ele>166</ele>
        <time>2010-05-13T08:42:37Z</time>
      </trkpt>
      <trkpt lat="48.67033" lon="2.0528">
        <ele>166</ele>
        <time>2010-05-13T08:42:38Z</time>
      </trkpt>
      <trkpt lat="48.67035" lon="2.05281">
        <ele>166</ele>
        <time>2010-05-13T08:42:39Z</time>
      </trkpt>
      <trkpt lat="48.67036" lon="2.05283">
        <ele>166</ele>
        <time>2010-05-13T08:42:40Z</time>
      </trkpt>
      <trkpt lat="48.67037" lon="2.05285">
        <ele>166</ele>
        <time>2010-05-13T08:42:41Z</time>
      </trkpt>
      <trkpt lat="48.67039" lon="2.05286">
        <ele>166</ele>
        <time>2010-05-13T08:42:42Z</time>
      </trkpt>
      <trkpt lat="48.6704" lon="2.05287">
        <ele>166</ele>
        <time>2010-05-13T08:42:43Z</time>
      </trkpt>
      <trkpt lat="48.67042" lon="2.05289">
        <ele>166</ele>
        <time>2010-05-13T08:42:44Z</time>
      </trkpt>
      <trkpt lat="48.67043" lon="2.0529">
        <ele>166</ele>
        <time>2010-05-13T08:42:45Z</time>
      </trkpt>
      <trkpt lat="48.67045" lon="2.05293">
        <ele>166</ele>
        <time>2010-05-13T08:42:47Z</time>
      </trkpt>
      <trkpt lat="48.67047" lon="2.05294">
        <ele>166</ele>
        <time>2010-05-13T08:42:48Z</time>
      </trkpt>
      <trkpt lat="48.67048" lon="2.05295">
        <ele>166</ele>
        <time>2010-05-13T08:42:49Z</time>
      </trkpt>
      <trkpt lat="48.67049" lon="2.05296">
        <ele>166</ele>
        <time>2010-05-13T08:42:50Z</time>
      </trkpt>
      <trkpt lat="48.67052" lon="2.05297">
        <ele>166</ele>
        <time>2010-05-13T08:42:51Z</time>
      </trkpt>
      <trkpt lat="48.67053" lon="2.05297">
        <ele>166</ele>
        <time>2010-05-13T08:42:52Z</time>
      </trkpt>
      <trkpt lat="48.67055" lon="2.05299">
        <ele>166</ele>
        <time>2010-05-13T08:42:54Z</time>
      </trkpt>
      <trkpt lat="48.67056" lon="2.053">
        <ele>166</ele>
        <time>2010-05-13T08:42:55Z</time>
      </trkpt>
      <trkpt lat="48.67058" lon="2.053">
        <ele>166</ele>
        <time>2010-05-13T08:42:56Z</time>
      </trkpt>
      <trkpt lat="48.6706" lon="2.05302">
        <ele>166</ele>
        <time>2010-05-13T08:42:58Z</time>
      </trkpt>
      <trkpt lat="48.67062" lon="2.05304">
        <ele>166</ele>
        <time>2010-05-13T08:43:00Z</time>
      </trkpt>
      <trkpt lat="48.67064" lon="2.05305">
        <ele>166</ele>
        <time>2010-05-13T08:43:01Z</time>
      </trkpt>
      <trkpt lat="48.67065" lon="2.05305">
        <ele>166</ele>
        <time>2010-05-13T08:43:02Z</time>
      </trkpt>
      <trkpt lat="48.67068" lon="2.05307">
        <ele>166</ele>
        <time>2010-05-13T08:43:04Z</time>
      </trkpt>
      <trkpt lat="48.6707" lon="2.05307">
        <ele>166</ele>
        <time>2010-05-13T08:43:05Z</time>
      </trkpt>
      <trkpt lat="48.67072" lon="2.05309">
        <ele>166</ele>
        <time>2010-05-13T08:43:06Z</time>
      </trkpt>
      <trkpt lat="48.67074" lon="2.0531">
        <ele>166</ele>
        <time>2010-05-13T08:43:07Z</time>
      </trkpt>
      <trkpt lat="48.67076" lon="2.05311">
        <ele>166</ele>
        <time>2010-05-13T08:43:08Z</time>
      </trkpt>
      <trkpt lat="48.67078" lon="2.05311">
        <ele>166</ele>
        <time>2010-05-13T08:43:09Z</time>
      </trkpt>
      <trkpt lat="48.6708" lon="2.05312">
        <ele>166</ele>
        <time>2010-05-13T08:43:10Z</time>
      </trkpt>
      <trkpt lat="48.67082" lon="2.05312">
        <ele>166</ele>
        <time>2010-05-13T08:43:11Z</time>
      </trkpt>
      <trkpt lat="48.67083" lon="2.05313">
        <ele>166</ele>
        <time>2010-05-13T08:43:12Z</time>
      </trkpt>
      <trkpt lat="48.67084" lon="2.05313">
        <ele>166</ele>
        <time>2010-05-13T08:43:13Z</time>
      </trkpt>
      <trkpt lat="48.67086" lon="2.05314">
        <ele>166</ele>
        <time>2010-05-13T08:43:14Z</time>
      </trkpt>
      <trkpt lat="48.67088" lon="2.05314">
        <ele>166</ele>
        <time>2010-05-13T08:43:15Z</time>
      </trkpt>
      <trkpt lat="48.6709" lon="2.05314">
        <ele>166</ele>
        <time>2010-05-13T08:43:16Z</time>
      </trkpt>
      <trkpt lat="48.67091" lon="2.05315">
        <ele>166</ele>
        <time>2010-05-13T08:43:17Z</time>
      </trkpt>
      <trkpt lat="48.67093" lon="2.05316">
        <ele>166</ele>
        <time>2010-05-13T08:43:18Z</time>
      </trkpt>
      <trkpt lat="48.67095" lon="2.05318">
        <ele>166</ele>
        <time>2010-05-13T08:43:19Z</time>
      </trkpt>
      <trkpt lat="48.67098" lon="2.0532">
        <ele>166</ele>
        <time>2010-05-13T08:43:20Z</time>
      </trkpt>
      <trkpt lat="48.671" lon="2.05322">
        <ele>166</ele>
        <time>2010-05-13T08:43:21Z</time>
      </trkpt>
      <trkpt lat="48.67102" lon="2.05322">
        <ele>166</ele>
        <time>2010-05-13T08:43:22Z</time>
      </trkpt>
      <trkpt lat="48.67105" lon="2.05323">
        <ele>166</ele>
        <time>2010-05-13T08:43:23Z</time>
      </trkpt>
      <trkpt lat="48.67106" lon="2.05324">
        <ele>166</ele>
        <time>2010-05-13T08:43:24Z</time>
      </trkpt>
      <trkpt lat="48.67108" lon="2.05324">
        <ele>166</ele>
        <time>2010-05-13T08:43:25Z</time>
      </trkpt>
      <trkpt lat="48.6711" lon="2.05324">
        <ele>166</ele>
        <time>2010-05-13T08:43:26Z</time>
      </trkpt>
      <trkpt lat="48.67113" lon="2.05324">
        <ele>166</ele>
        <time>2010-05-13T08:43:27Z</time>
      </trkpt>
      <trkpt lat="48.67116" lon="2.05324">
        <ele>166</ele>
        <time>2010-05-13T08:43:28Z</time>
      </trkpt>
      <trkpt lat="48.67118" lon="2.05326">
        <ele>166</ele>
        <time>2010-05-13T08:43:29Z</time>
      </trkpt>
      <trkpt lat="48.67122" lon="2.05327">
        <ele>166</ele>
        <time>2010-05-13T08:43:30Z</time>
      </trkpt>
      <trkpt lat="48.67125" lon="2.05329">
        <ele>166</ele>
        <time>2010-05-13T08:43:31Z</time>
      </trkpt>
      <trkpt lat="48.67129" lon="2.0533">
        <ele>166</ele>
        <time>2010-05-13T08:43:32Z</time>
      </trkpt>
      <trkpt lat="48.67132" lon="2.05331">
        <ele>166</ele>
        <time>2010-05-13T08:43:33Z</time>
      </trkpt>
      <trkpt lat="48.67136" lon="2.05333">
        <ele>165</ele>
        <time>2010-05-13T08:43:34Z</time>
      </trkpt>
      <trkpt lat="48.67139" lon="2.05334">
        <ele>165</ele>
        <time>2010-05-13T08:43:35Z</time>
      </trkpt>
      <trkpt lat="48.67142" lon="2.05336">
        <ele>164</ele>
        <time>2010-05-13T08:43:36Z</time>
      </trkpt>
      <trkpt lat="48.67146" lon="2.05339">
        <ele>164</ele>
        <time>2010-05-13T08:43:37Z</time>
      </trkpt>
      <trkpt lat="48.6715" lon="2.05341">
        <ele>164</ele>
        <time>2010-05-13T08:43:38Z</time>
      </trkpt>
      <trkpt lat="48.67154" lon="2.05343">
        <ele>164</ele>
        <time>2010-05-13T08:43:39Z</time>
      </trkpt>
      <trkpt lat="48.67156" lon="2.05344">
        <ele>164</ele>
        <time>2010-05-13T08:43:40Z</time>
      </trkpt>
      <trkpt lat="48.67158" lon="2.05345">
        <ele>164</ele>
        <time>2010-05-13T08:43:41Z</time>
      </trkpt>
      <trkpt lat="48.6716" lon="2.05347">
        <ele>164</ele>
        <time>2010-05-13T08:43:42Z</time>
      </trkpt>
      <trkpt lat="48.67163" lon="2.05348">
        <ele>164</ele>
        <time>2010-05-13T08:43:43Z</time>
      </trkpt>
      <trkpt lat="48.67165" lon="2.05349">
        <ele>165</ele>
        <time>2010-05-13T08:43:44Z</time>
      </trkpt>
      <trkpt lat="48.67167" lon="2.0535">
        <ele>166</ele>
        <time>2010-05-13T08:43:45Z</time>
      </trkpt>
      <trkpt lat="48.67168" lon="2.0535">
        <ele>167</ele>
        <time>2010-05-13T08:43:47Z</time>
      </trkpt>
      <trkpt lat="48.67168" lon="2.05348">
        <ele>167</ele>
        <time>2010-05-13T08:43:50Z</time>
      </trkpt>
      <trkpt lat="48.67169" lon="2.05346">
        <ele>167</ele>
        <time>2010-05-13T08:43:53Z</time>
      </trkpt>
      <trkpt lat="48.6717" lon="2.05344">
        <ele>168</ele>
        <time>2010-05-13T08:43:57Z</time>
      </trkpt>
      <trkpt lat="48.67172" lon="2.05344">
        <ele>169</ele>
        <time>2010-05-13T08:44:01Z</time>
      </trkpt>
      <trkpt lat="48.67173" lon="2.05345">
        <ele>169</ele>
        <time>2010-05-13T08:44:02Z</time>
      </trkpt>
      <trkpt lat="48.67174" lon="2.05346">
        <ele>169</ele>
        <time>2010-05-13T08:44:03Z</time>
      </trkpt>
      <trkpt lat="48.67175" lon="2.05347">
        <ele>169</ele>
        <time>2010-05-13T08:44:04Z</time>
      </trkpt>
      <trkpt lat="48.67177" lon="2.05349">
        <ele>170</ele>
        <time>2010-05-13T08:44:06Z</time>
      </trkpt>
      <trkpt lat="48.67179" lon="2.05349">
        <ele>170</ele>
        <time>2010-05-13T08:44:07Z</time>
      </trkpt>
      <trkpt lat="48.67181" lon="2.05351">
        <ele>170</ele>
        <time>2010-05-13T08:44:08Z</time>
      </trkpt>
      <trkpt lat="48.67182" lon="2.05351">
        <ele>171</ele>
        <time>2010-05-13T08:44:09Z</time>
      </trkpt>
      <trkpt lat="48.67184" lon="2.05352">
        <ele>171</ele>
        <time>2010-05-13T08:44:10Z</time>
      </trkpt>
      <trkpt lat="48.67186" lon="2.05352">
        <ele>171</ele>
        <time>2010-05-13T08:44:11Z</time>
      </trkpt>
      <trkpt lat="48.67187" lon="2.05353">
        <ele>171</ele>
        <time>2010-05-13T08:44:12Z</time>
      </trkpt>
      <trkpt lat="48.67189" lon="2.05354">
        <ele>171</ele>
        <time>2010-05-13T08:44:13Z</time>
      </trkpt>
      <trkpt lat="48.67191" lon="2.05354">
        <ele>171</ele>
        <time>2010-05-13T08:44:14Z</time>
      </trkpt>
      <trkpt lat="48.67193" lon="2.05354">
        <ele>171</ele>
        <time>2010-05-13T08:44:15Z</time>
      </trkpt>
      <trkpt lat="48.67194" lon="2.05354">
        <ele>171</ele>
        <time>2010-05-13T08:44:16Z</time>
      </trkpt>
      <trkpt lat="48.67196" lon="2.05354">
        <ele>171</ele>
        <time>2010-05-13T08:44:17Z</time>
      </trkpt>
      <trkpt lat="48.67199" lon="2.05354">
        <ele>171</ele>
        <time>2010-05-13T08:44:19Z</time>
      </trkpt>
      <trkpt lat="48.67201" lon="2.05353">
        <ele>171</ele>
        <time>2010-05-13T08:44:20Z</time>
      </trkpt>
      <trkpt lat="48.67202" lon="2.05353">
        <ele>171</ele>
        <time>2010-05-13T08:44:21Z</time>
      </trkpt>
      <trkpt lat="48.67204" lon="2.05353">
        <ele>171</ele>
        <time>2010-05-13T08:44:23Z</time>
      </trkpt>
      <trkpt lat="48.67205" lon="2.05353">
        <ele>171</ele>
        <time>2010-05-13T08:44:24Z</time>
      </trkpt>
      <trkpt lat="48.67207" lon="2.05354">
        <ele>171</ele>
        <time>2010-05-13T08:44:25Z</time>
      </trkpt>
      <trkpt lat="48.67208" lon="2.05354">
        <ele>171</ele>
        <time>2010-05-13T08:44:26Z</time>
      </trkpt>
      <trkpt lat="48.6721" lon="2.05354">
        <ele>171</ele>
        <time>2010-05-13T08:44:27Z</time>
      </trkpt>
      <trkpt lat="48.67211" lon="2.05354">
        <ele>171</ele>
        <time>2010-05-13T08:44:28Z</time>
      </trkpt>
      <trkpt lat="48.67213" lon="2.05354">
        <ele>171</ele>
        <time>2010-05-13T08:44:29Z</time>
      </trkpt>
      <trkpt lat="48.67215" lon="2.05355">
        <ele>171</ele>
        <time>2010-05-13T08:44:30Z</time>
      </trkpt>
      <trkpt lat="48.67217" lon="2.05355">
        <ele>171</ele>
        <time>2010-05-13T08:44:31Z</time>
      </trkpt>
      <trkpt lat="48.67218" lon="2.05355">
        <ele>171</ele>
        <time>2010-05-13T08:44:32Z</time>
      </trkpt>
      <trkpt lat="48.67219" lon="2.05356">
        <ele>171</ele>
        <time>2010-05-13T08:44:33Z</time>
      </trkpt>
      <trkpt lat="48.67221" lon="2.05356">
        <ele>171</ele>
        <time>2010-05-13T08:44:34Z</time>
      </trkpt>
      <trkpt lat="48.67222" lon="2.05356">
        <ele>171</ele>
        <time>2010-05-13T08:44:35Z</time>
      </trkpt>
      <trkpt lat="48.67225" lon="2.05356">
        <ele>171</ele>
        <time>2010-05-13T08:44:36Z</time>
      </trkpt>
      <trkpt lat="48.67226" lon="2.05356">
        <ele>171</ele>
        <time>2010-05-13T08:44:37Z</time>
      </trkpt>
      <trkpt lat="48.67228" lon="2.05356">
        <ele>171</ele>
        <time>2010-05-13T08:44:38Z</time>
      </trkpt>
      <trkpt lat="48.6723" lon="2.05357">
        <ele>171</ele>
        <time>2010-05-13T08:44:39Z</time>
      </trkpt>
      <trkpt lat="48.67231" lon="2.05357">
        <ele>171</ele>
        <time>2010-05-13T08:44:40Z</time>
      </trkpt>
      <trkpt lat="48.67233" lon="2.05356">
        <ele>171</ele>
        <time>2010-05-13T08:44:41Z</time>
      </trkpt>
      <trkpt lat="48.67235" lon="2.05357">
        <ele>171</ele>
        <time>2010-05-13T08:44:42Z</time>
      </trkpt>
      <trkpt lat="48.67236" lon="2.05357">
        <ele>171</ele>
        <time>2010-05-13T08:44:43Z</time>
      </trkpt>
      <trkpt lat="48.67238" lon="2.05358">
        <ele>171</ele>
        <time>2010-05-13T08:44:44Z</time>
      </trkpt>
      <trkpt lat="48.6724" lon="2.05358">
        <ele>171</ele>
        <time>2010-05-13T08:44:45Z</time>
      </trkpt>
      <trkpt lat="48.67242" lon="2.05358">
        <ele>171</ele>
        <time>2010-05-13T08:44:47Z</time>
      </trkpt>
      <trkpt lat="48.67243" lon="2.05357">
        <ele>171</ele>
        <time>2010-05-13T08:44:50Z</time>
      </trkpt>
      <trkpt lat="48.67245" lon="2.05357">
        <ele>171</ele>
        <time>2010-05-13T08:44:52Z</time>
      </trkpt>
      <trkpt lat="48.67247" lon="2.05357">
        <ele>171</ele>
        <time>2010-05-13T08:44:54Z</time>
      </trkpt>
      <trkpt lat="48.67248" lon="2.05358">
        <ele>171</ele>
        <time>2010-05-13T08:44:55Z</time>
      </trkpt>
      <trkpt lat="48.67249" lon="2.05358">
        <ele>171</ele>
        <time>2010-05-13T08:44:57Z</time>
      </trkpt>
      <trkpt lat="48.67251" lon="2.05358">
        <ele>171</ele>
        <time>2010-05-13T08:45:01Z</time>
      </trkpt>
      <trkpt lat="48.67252" lon="2.05358">
        <ele>171</ele>
        <time>2010-05-13T08:45:05Z</time>
      </trkpt>
      <trkpt lat="48.67253" lon="2.05358">
        <ele>171</ele>
        <time>2010-05-13T08:45:08Z</time>
      </trkpt>
      <trkpt lat="48.67253" lon="2.05359">
        <ele>171</ele>
        <time>2010-05-13T08:45:26Z</time>
      </trkpt>
      <trkpt lat="48.67254" lon="2.0536">
        <ele>171</ele>
        <time>2010-05-13T08:45:29Z</time>
      </trkpt>
      <trkpt lat="48.67253" lon="2.05359">
        <ele>171</ele>
        <time>2010-05-13T08:45:35Z</time>
      </trkpt>
      <trkpt lat="48.67252" lon="2.05359">
        <ele>171</ele>
        <time>2010-05-13T08:45:39Z</time>
      </trkpt>
      <trkpt lat="48.67253" lon="2.05359">
        <ele>171</ele>
        <time>2010-05-13T08:45:42Z</time>
      </trkpt>
      <trkpt lat="48.67254" lon="2.05359">
        <ele>171</ele>
        <time>2010-05-13T08:45:45Z</time>
      </trkpt>
      <trkpt lat="48.67256" lon="2.05357">
        <ele>171</ele>
        <time>2010-05-13T08:45:47Z</time>
      </trkpt>
      <trkpt lat="48.67257" lon="2.05356">
        <ele>171</ele>
        <time>2010-05-13T08:45:48Z</time>
      </trkpt>
      <trkpt lat="48.67258" lon="2.05356">
        <ele>171</ele>
        <time>2010-05-13T08:45:49Z</time>
      </trkpt>
      <trkpt lat="48.6726" lon="2.05355">
        <ele>171</ele>
        <time>2010-05-13T08:45:50Z</time>
      </trkpt>
      <trkpt lat="48.67261" lon="2.05354">
        <ele>171</ele>
        <time>2010-05-13T08:45:52Z</time>
      </trkpt>
      <trkpt lat="48.67263" lon="2.05354">
        <ele>171</ele>
        <time>2010-05-13T08:45:53Z</time>
      </trkpt>
      <trkpt lat="48.67264" lon="2.05354">
        <ele>171</ele>
        <time>2010-05-13T08:45:54Z</time>
      </trkpt>
      <trkpt lat="48.67266" lon="2.05353">
        <ele>171</ele>
        <time>2010-05-13T08:45:56Z</time>
      </trkpt>
      <trkpt lat="48.67268" lon="2.05353">
        <ele>171</ele>
        <time>2010-05-13T08:45:57Z</time>
      </trkpt>
      <trkpt lat="48.6727" lon="2.05355">
        <ele>171</ele>
        <time>2010-05-13T08:45:59Z</time>
      </trkpt>
      <trkpt lat="48.67272" lon="2.05354">
        <ele>171</ele>
        <time>2010-05-13T08:46:02Z</time>
      </trkpt>
      <trkpt lat="48.67273" lon="2.05354">
        <ele>171</ele>
        <time>2010-05-13T08:46:04Z</time>
      </trkpt>
      <trkpt lat="48.67274" lon="2.05353">
        <ele>171</ele>
        <time>2010-05-13T08:46:06Z</time>
      </trkpt>
      <trkpt lat="48.67276" lon="2.05353">
        <ele>169</ele>
        <time>2010-05-13T08:46:09Z</time>
      </trkpt>
      <trkpt lat="48.67277" lon="2.05353">
        <ele>168</ele>
        <time>2010-05-13T08:46:10Z</time>
      </trkpt>
      <trkpt lat="48.67279" lon="2.05352">
        <ele>166</ele>
        <time>2010-05-13T08:46:16Z</time>
      </trkpt>
      <trkpt lat="48.6728" lon="2.05352">
        <ele>166</ele>
        <time>2010-05-13T08:46:19Z</time>
      </trkpt>
      <trkpt lat="48.67279" lon="2.0535">
        <ele>166</ele>
        <time>2010-05-13T08:46:24Z</time>
      </trkpt>
      <trkpt lat="48.67281" lon="2.05349">
        <ele>166</ele>
        <time>2010-05-13T08:46:29Z</time>
      </trkpt>
      <trkpt lat="48.67281" lon="2.05347">
        <ele>168</ele>
        <time>2010-05-13T08:46:34Z</time>
      </trkpt>
      <trkpt lat="48.67283" lon="2.05345">
        <ele>168</ele>
        <time>2010-05-13T08:46:38Z</time>
      </trkpt>
      <trkpt lat="48.67283" lon="2.05343">
        <ele>170</ele>
        <time>2010-05-13T08:46:41Z</time>
      </trkpt>
      <trkpt lat="48.67284" lon="2.05344">
        <ele>172</ele>
        <time>2010-05-13T08:46:47Z</time>
      </trkpt>
      <trkpt lat="48.67285" lon="2.05346">
        <ele>172</ele>
        <time>2010-05-13T08:46:51Z</time>
      </trkpt>
      <trkpt lat="48.67287" lon="2.05344">
        <ele>169</ele>
        <time>2010-05-13T08:46:55Z</time>
      </trkpt>
      <trkpt lat="48.6729" lon="2.05344">
        <ele>166</ele>
        <time>2010-05-13T08:46:58Z</time>
      </trkpt>
      <trkpt lat="48.67292" lon="2.05344">
        <ele>165</ele>
        <time>2010-05-13T08:47:00Z</time>
      </trkpt>
      <trkpt lat="48.67294" lon="2.05344">
        <ele>165</ele>
        <time>2010-05-13T08:47:01Z</time>
      </trkpt>
      <trkpt lat="48.67295" lon="2.05343">
        <ele>165</ele>
        <time>2010-05-13T08:47:03Z</time>
      </trkpt>
      <trkpt lat="48.67297" lon="2.05343">
        <ele>165</ele>
        <time>2010-05-13T08:47:04Z</time>
      </trkpt>
      <trkpt lat="48.67298" lon="2.05343">
        <ele>165</ele>
        <time>2010-05-13T08:47:05Z</time>
      </trkpt>
      <trkpt lat="48.67301" lon="2.05343">
        <ele>165</ele>
        <time>2010-05-13T08:47:06Z</time>
      </trkpt>
      <trkpt lat="48.67303" lon="2.05343">
        <ele>165</ele>
        <time>2010-05-13T08:47:07Z</time>
      </trkpt>
      <trkpt lat="48.67304" lon="2.05342">
        <ele>165</ele>
        <time>2010-05-13T08:47:08Z</time>
      </trkpt>
      <trkpt lat="48.67306" lon="2.05342">
        <ele>165</ele>
        <time>2010-05-13T08:47:09Z</time>
      </trkpt>
      <trkpt lat="48.67308" lon="2.05342">
        <ele>165</ele>
        <time>2010-05-13T08:47:10Z</time>
      </trkpt>
      <trkpt lat="48.67309" lon="2.05342">
        <ele>165</ele>
        <time>2010-05-13T08:47:11Z</time>
      </trkpt>
      <trkpt lat="48.67311" lon="2.05342">
        <ele>165</ele>
        <time>2010-05-13T08:47:13Z</time>
      </trkpt>
      <trkpt lat="48.67313" lon="2.05341">
        <ele>165</ele>
        <time>2010-05-13T08:47:15Z</time>
      </trkpt>
      <trkpt lat="48.67315" lon="2.05341">
        <ele>165</ele>
        <time>2010-05-13T08:47:17Z</time>
      </trkpt>
      <trkpt lat="48.67316" lon="2.0534">
        <ele>165</ele>
        <time>2010-05-13T08:47:19Z</time>
      </trkpt>
      <trkpt lat="48.67319" lon="2.0534">
        <ele>164</ele>
        <time>2010-05-13T08:47:21Z</time>
      </trkpt>
      <trkpt lat="48.6732" lon="2.0534">
        <ele>164</ele>
        <time>2010-05-13T08:47:22Z</time>
      </trkpt>
      <trkpt lat="48.67322" lon="2.0534">
        <ele>164</ele>
        <time>2010-05-13T08:47:23Z</time>
      </trkpt>
      <trkpt lat="48.67323" lon="2.05339">
        <ele>164</ele>
        <time>2010-05-13T08:47:24Z</time>
      </trkpt>
      <trkpt lat="48.67325" lon="2.05338">
        <ele>164</ele>
        <time>2010-05-13T08:47:25Z</time>
      </trkpt>
      <trkpt lat="48.67326" lon="2.05338">
        <ele>164</ele>
        <time>2010-05-13T08:47:26Z</time>
      </trkpt>
      <trkpt lat="48.67328" lon="2.05337">
        <ele>164</ele>
        <time>2010-05-13T08:47:27Z</time>
      </trkpt>
      <trkpt lat="48.67329" lon="2.05337">
        <ele>164</ele>
        <time>2010-05-13T08:47:28Z</time>
      </trkpt>
      <trkpt lat="48.67331" lon="2.05337">
        <ele>164</ele>
        <time>2010-05-13T08:47:29Z</time>
      </trkpt>
      <trkpt lat="48.67332" lon="2.05337">
        <ele>164</ele>
        <time>2010-05-13T08:47:30Z</time>
      </trkpt>
      <trkpt lat="48.67334" lon="2.05336">
        <ele>164</ele>
        <time>2010-05-13T08:47:31Z</time>
      </trkpt>
      <trkpt lat="48.67336" lon="2.05335">
        <ele>164</ele>
        <time>2010-05-13T08:47:32Z</time>
      </trkpt>
      <trkpt lat="48.67338" lon="2.05334">
        <ele>164</ele>
        <time>2010-05-13T08:47:34Z</time>
      </trkpt>
      <trkpt lat="48.67339" lon="2.05334">
        <ele>164</ele>
        <time>2010-05-13T08:47:35Z</time>
      </trkpt>
      <trkpt lat="48.67341" lon="2.05333">
        <ele>164</ele>
        <time>2010-05-13T08:47:36Z</time>
      </trkpt>
      <trkpt lat="48.67342" lon="2.05332">
        <ele>164</ele>
        <time>2010-05-13T08:47:37Z</time>
      </trkpt>
      <trkpt lat="48.67343" lon="2.05332">
        <ele>164</ele>
        <time>2010-05-13T08:47:38Z</time>
      </trkpt>
      <trkpt lat="48.67345" lon="2.05332">
        <ele>164</ele>
        <time>2010-05-13T08:47:40Z</time>
      </trkpt>
      <trkpt lat="48.67346" lon="2.05332">
        <ele>164</ele>
        <time>2010-05-13T08:47:42Z</time>
      </trkpt>
      <trkpt lat="48.67348" lon="2.05333">
        <ele>165</ele>
        <time>2010-05-13T08:47:43Z</time>
      </trkpt>
      <trkpt lat="48.67349" lon="2.05334">
        <ele>166</ele>
        <time>2010-05-13T08:47:44Z</time>
      </trkpt>
      <trkpt lat="48.67351" lon="2.05334">
        <ele>167</ele>
        <time>2010-05-13T08:47:46Z</time>
      </trkpt>
      <trkpt lat="48.67356" lon="2.05331">
        <ele>168</ele>
        <time>2010-05-13T08:47:48Z</time>
      </trkpt>
      <trkpt lat="48.67358" lon="2.0533">
        <ele>169</ele>
        <time>2010-05-13T08:47:49Z</time>
      </trkpt>
      <trkpt lat="48.6736" lon="2.0533">
        <ele>169</ele>
        <time>2010-05-13T08:47:50Z</time>
      </trkpt>
      <trkpt lat="48.67362" lon="2.05328">
        <ele>171</ele>
        <time>2010-05-13T08:47:52Z</time>
      </trkpt>
      <trkpt lat="48.67363" lon="2.05327">
        <ele>172</ele>
        <time>2010-05-13T08:47:53Z</time>
      </trkpt>
      <trkpt lat="48.67371" lon="2.05323">
        <ele>168</ele>
        <time>2010-05-13T08:48:06Z</time>
      </trkpt>
      <trkpt lat="48.6737" lon="2.05323">
        <ele>166</ele>
        <time>2010-05-13T08:48:08Z</time>
      </trkpt>
      <trkpt lat="48.67368" lon="2.05323">
        <ele>161</ele>
        <time>2010-05-13T08:48:13Z</time>
      </trkpt>
      <trkpt lat="48.6737" lon="2.05323">
        <ele>159</ele>
        <time>2010-05-13T08:48:17Z</time>
      </trkpt>
      <trkpt lat="48.67372" lon="2.05321">
        <ele>159</ele>
        <time>2010-05-13T08:48:19Z</time>
      </trkpt>
      <trkpt lat="48.67374" lon="2.05322">
        <ele>159</ele>
        <time>2010-05-13T08:48:20Z</time>
      </trkpt>
      <trkpt lat="48.67375" lon="2.05322">
        <ele>159</ele>
        <time>2010-05-13T08:48:22Z</time>
      </trkpt>
      <trkpt lat="48.67377" lon="2.05322">
        <ele>159</ele>
        <time>2010-05-13T08:48:24Z</time>
      </trkpt>
      <trkpt lat="48.67379" lon="2.05322">
        <ele>161</ele>
        <time>2010-05-13T08:48:26Z</time>
      </trkpt>
      <trkpt lat="48.6738" lon="2.05321">
        <ele>161</ele>
        <time>2010-05-13T08:48:27Z</time>
      </trkpt>
      <trkpt lat="48.67381" lon="2.0532">
        <ele>161</ele>
        <time>2010-05-13T08:48:28Z</time>
      </trkpt>
      <trkpt lat="48.67382" lon="2.05319">
        <ele>162</ele>
        <time>2010-05-13T08:48:30Z</time>
      </trkpt>
      <trkpt lat="48.67385" lon="2.05319">
        <ele>162</ele>
        <time>2010-05-13T08:48:32Z</time>
      </trkpt>
      <trkpt lat="48.67387" lon="2.05319">
        <ele>163</ele>
        <time>2010-05-13T08:48:34Z</time>
      </trkpt>
      <trkpt lat="48.67388" lon="2.05318">
        <ele>163</ele>
        <time>2010-05-13T08:48:35Z</time>
      </trkpt>
      <trkpt lat="48.6739" lon="2.05317">
        <ele>164</ele>
        <time>2010-05-13T08:48:36Z</time>
      </trkpt>
      <trkpt lat="48.67392" lon="2.05316">
        <ele>164</ele>
        <time>2010-05-13T08:48:37Z</time>
      </trkpt>
      <trkpt lat="48.67394" lon="2.05315">
        <ele>164</ele>
        <time>2010-05-13T08:48:38Z</time>
      </trkpt>
      <trkpt lat="48.67396" lon="2.05314">
        <ele>164</ele>
        <time>2010-05-13T08:48:39Z</time>
      </trkpt>
      <trkpt lat="48.67397" lon="2.05314">
        <ele>164</ele>
        <time>2010-05-13T08:48:40Z</time>
      </trkpt>
      <trkpt lat="48.67398" lon="2.05313">
        <ele>164</ele>
        <time>2010-05-13T08:48:41Z</time>
      </trkpt>
      <trkpt lat="48.674" lon="2.05311">
        <ele>164</ele>
        <time>2010-05-13T08:48:42Z</time>
      </trkpt>
      <trkpt lat="48.67402" lon="2.0531">
        <ele>164</ele>
        <time>2010-05-13T08:48:43Z</time>
      </trkpt>
      <trkpt lat="48.67403" lon="2.0531">
        <ele>164</ele>
        <time>2010-05-13T08:48:44Z</time>
      </trkpt>
      <trkpt lat="48.67405" lon="2.0531">
        <ele>164</ele>
        <time>2010-05-13T08:48:45Z</time>
      </trkpt>
      <trkpt lat="48.67407" lon="2.0531">
        <ele>164</ele>
        <time>2010-05-13T08:48:46Z</time>
      </trkpt>
      <trkpt lat="48.67408" lon="2.0531">
        <ele>164</ele>
        <time>2010-05-13T08:48:47Z</time>
      </trkpt>
      <trkpt lat="48.6741" lon="2.05309">
        <ele>164</ele>
        <time>2010-05-13T08:48:48Z</time>
      </trkpt>
      <trkpt lat="48.67412" lon="2.05309">
        <ele>164</ele>
        <time>2010-05-13T08:48:50Z</time>
      </trkpt>
      <trkpt lat="48.67414" lon="2.05308">
        <ele>164</ele>
        <time>2010-05-13T08:48:51Z</time>
      </trkpt>
      <trkpt lat="48.67415" lon="2.05307">
        <ele>164</ele>
        <time>2010-05-13T08:48:52Z</time>
      </trkpt>
      <trkpt lat="48.67417" lon="2.05306">
        <ele>164</ele>
        <time>2010-05-13T08:48:53Z</time>
      </trkpt>
      <trkpt lat="48.67419" lon="2.05305">
        <ele>164</ele>
        <time>2010-05-13T08:48:54Z</time>
      </trkpt>
      <trkpt lat="48.67422" lon="2.05303">
        <ele>164</ele>
        <time>2010-05-13T08:48:55Z</time>
      </trkpt>
      <trkpt lat="48.67424" lon="2.05302">
        <ele>164</ele>
        <time>2010-05-13T08:48:56Z</time>
      </trkpt>
      <trkpt lat="48.67426" lon="2.053">
        <ele>163</ele>
        <time>2010-05-13T08:48:57Z</time>
      </trkpt>
      <trkpt lat="48.67427" lon="2.05299">
        <ele>163</ele>
        <time>2010-05-13T08:48:58Z</time>
      </trkpt>
      <trkpt lat="48.67428" lon="2.05298">
        <ele>163</ele>
        <time>2010-05-13T08:48:59Z</time>
      </trkpt>
      <trkpt lat="48.6743" lon="2.05298">
        <ele>163</ele>
        <time>2010-05-13T08:49:00Z</time>
      </trkpt>
      <trkpt lat="48.67432" lon="2.05297">
        <ele>163</ele>
        <time>2010-05-13T08:49:01Z</time>
      </trkpt>
      <trkpt lat="48.67433" lon="2.05296">
        <ele>163</ele>
        <time>2010-05-13T08:49:02Z</time>
      </trkpt>
      <trkpt lat="48.67435" lon="2.05295">
        <ele>163</ele>
        <time>2010-05-13T08:49:03Z</time>
      </trkpt>
      <trkpt lat="48.67435" lon="2.05294">
        <ele>163</ele>
        <time>2010-05-13T08:49:04Z</time>
      </trkpt>
      <trkpt lat="48.67437" lon="2.05291">
        <ele>163</ele>
        <time>2010-05-13T08:49:06Z</time>
      </trkpt>
      <trkpt lat="48.67439" lon="2.05288">
        <ele>162</ele>
        <time>2010-05-13T08:49:08Z</time>
      </trkpt>
      <trkpt lat="48.67442" lon="2.05286">
        <ele>161</ele>
        <time>2010-05-13T08:49:10Z</time>
      </trkpt>
      <trkpt lat="48.67443" lon="2.05285">
        <ele>161</ele>
        <time>2010-05-13T08:49:11Z</time>
      </trkpt>
      <trkpt lat="48.67445" lon="2.05284">
        <ele>160</ele>
        <time>2010-05-13T08:49:12Z</time>
      </trkpt>
      <trkpt lat="48.67446" lon="2.05281">
        <ele>160</ele>
        <time>2010-05-13T08:49:14Z</time>
      </trkpt>
      <trkpt lat="48.67449" lon="2.05278">
        <ele>159</ele>
        <time>2010-05-13T08:49:16Z</time>
      </trkpt>
      <trkpt lat="48.6745" lon="2.05278">
        <ele>158</ele>
        <time>2010-05-13T08:49:17Z</time>
      </trkpt>
      <trkpt lat="48.67451" lon="2.05277">
        <ele>158</ele>
        <time>2010-05-13T08:49:18Z</time>
      </trkpt>
      <trkpt lat="48.67452" lon="2.05276">
        <ele>157</ele>
        <time>2010-05-13T08:49:19Z</time>
      </trkpt>
      <trkpt lat="48.67454" lon="2.05275">
        <ele>157</ele>
        <time>2010-05-13T08:49:20Z</time>
      </trkpt>
      <trkpt lat="48.67455" lon="2.05273">
        <ele>156</ele>
        <time>2010-05-13T08:49:21Z</time>
      </trkpt>
      <trkpt lat="48.67456" lon="2.05272">
        <ele>156</ele>
        <time>2010-05-13T08:49:22Z</time>
      </trkpt>
      <trkpt lat="48.67459" lon="2.05269">
        <ele>155</ele>
        <time>2010-05-13T08:49:24Z</time>
      </trkpt>
      <trkpt lat="48.67461" lon="2.05268">
        <ele>154</ele>
        <time>2010-05-13T08:49:25Z</time>
      </trkpt>
      <trkpt lat="48.67463" lon="2.05267">
        <ele>154</ele>
        <time>2010-05-13T08:49:26Z</time>
      </trkpt>
      <trkpt lat="48.67466" lon="2.05267">
        <ele>154</ele>
        <time>2010-05-13T08:49:27Z</time>
      </trkpt>
      <trkpt lat="48.67468" lon="2.05266">
        <ele>153</ele>
        <time>2010-05-13T08:49:28Z</time>
      </trkpt>
      <trkpt lat="48.67471" lon="2.05266">
        <ele>153</ele>
        <time>2010-05-13T08:49:29Z</time>
      </trkpt>
      <trkpt lat="48.67473" lon="2.05266">
        <ele>153</ele>
        <time>2010-05-13T08:49:30Z</time>
      </trkpt>
      <trkpt lat="48.67474" lon="2.05265">
        <ele>153</ele>
        <time>2010-05-13T08:49:31Z</time>
      </trkpt>
      <trkpt lat="48.67477" lon="2.05264">
        <ele>153</ele>
        <time>2010-05-13T08:49:32Z</time>
      </trkpt>
      <trkpt lat="48.67479" lon="2.05264">
        <ele>153</ele>
        <time>2010-05-13T08:49:33Z</time>
      </trkpt>
      <trkpt lat="48.67481" lon="2.05264">
        <ele>153</ele>
        <time>2010-05-13T08:49:34Z</time>
      </trkpt>
      <trkpt lat="48.67483" lon="2.05264">
        <ele>153</ele>
        <time>2010-05-13T08:49:35Z</time>
      </trkpt>
      <trkpt lat="48.67485" lon="2.05263">
        <ele>153</ele>
        <time>2010-05-13T08:49:37Z</time>
      </trkpt>
      <trkpt lat="48.67486" lon="2.05262">
        <ele>153</ele>
        <time>2010-05-13T08:49:38Z</time>
      </trkpt>
      <trkpt lat="48.67488" lon="2.05261">
        <ele>153</ele>
        <time>2010-05-13T08:49:39Z</time>
      </trkpt>
      <trkpt lat="48.6749" lon="2.05259">
        <ele>153</ele>
        <time>2010-05-13T08:49:40Z</time>
      </trkpt>
      <trkpt lat="48.67492" lon="2.05259">
        <ele>153</ele>
        <time>2010-05-13T08:49:41Z</time>
      </trkpt>
      <trkpt lat="48.67494" lon="2.05258">
        <ele>153</ele>
        <time>2010-05-13T08:49:42Z</time>
      </trkpt>
      <trkpt lat="48.67496" lon="2.05258">
        <ele>153</ele>
        <time>2010-05-13T08:49:43Z</time>
      </trkpt>
      <trkpt lat="48.67497" lon="2.05258">
        <ele>153</ele>
        <time>2010-05-13T08:49:44Z</time>
      </trkpt>
      <trkpt lat="48.67499" lon="2.05257">
        <ele>153</ele>
        <time>2010-05-13T08:49:45Z</time>
      </trkpt>
      <trkpt lat="48.67501" lon="2.05256">
        <ele>153</ele>
        <time>2010-05-13T08:49:47Z</time>
      </trkpt>
      <trkpt lat="48.67503" lon="2.05256">
        <ele>153</ele>
        <time>2010-05-13T08:49:48Z</time>
      </trkpt>
      <trkpt lat="48.67504" lon="2.05255">
        <ele>153</ele>
        <time>2010-05-13T08:49:49Z</time>
      </trkpt>
      <trkpt lat="48.67506" lon="2.05255">
        <ele>154</ele>
        <time>2010-05-13T08:49:50Z</time>
      </trkpt>
      <trkpt lat="48.67507" lon="2.05254">
        <ele>155</ele>
        <time>2010-05-13T08:49:51Z</time>
      </trkpt>
      <trkpt lat="48.67509" lon="2.05254">
        <ele>156</ele>
        <time>2010-05-13T08:49:52Z</time>
      </trkpt>
      <trkpt lat="48.6751" lon="2.05252">
        <ele>158</ele>
        <time>2010-05-13T08:49:54Z</time>
      </trkpt>
      <trkpt lat="48.67513" lon="2.05251">
        <ele>158</ele>
        <time>2010-05-13T08:49:55Z</time>
      </trkpt>
      <trkpt lat="48.67515" lon="2.0525">
        <ele>159</ele>
        <time>2010-05-13T08:49:56Z</time>
      </trkpt>
      <trkpt lat="48.67516" lon="2.05249">
        <ele>159</ele>
        <time>2010-05-13T08:49:57Z</time>
      </trkpt>
      <trkpt lat="48.67518" lon="2.05247">
        <ele>159</ele>
        <time>2010-05-13T08:49:58Z</time>
      </trkpt>
      <trkpt lat="48.6752" lon="2.05246">
        <ele>159</ele>
        <time>2010-05-13T08:49:59Z</time>
      </trkpt>
      <trkpt lat="48.67522" lon="2.05244">
        <ele>159</ele>
        <time>2010-05-13T08:50:00Z</time>
      </trkpt>
      <trkpt lat="48.67525" lon="2.05242">
        <ele>159</ele>
        <time>2010-05-13T08:50:01Z</time>
      </trkpt>
      <trkpt lat="48.67526" lon="2.0524">
        <ele>159</ele>
        <time>2010-05-13T08:50:02Z</time>
      </trkpt>
      <trkpt lat="48.67529" lon="2.05238">
        <ele>159</ele>
        <time>2010-05-13T08:50:03Z</time>
      </trkpt>
      <trkpt lat="48.67531" lon="2.05237">
        <ele>159</ele>
        <time>2010-05-13T08:50:04Z</time>
      </trkpt>
      <trkpt lat="48.67533" lon="2.05236">
        <ele>159</ele>
        <time>2010-05-13T08:50:05Z</time>
      </trkpt>
      <trkpt lat="48.67534" lon="2.05235">
        <ele>159</ele>
        <time>2010-05-13T08:50:06Z</time>
      </trkpt>
      <trkpt lat="48.67536" lon="2.05233">
        <ele>159</ele>
        <time>2010-05-13T08:50:07Z</time>
      </trkpt>
      <trkpt lat="48.67539" lon="2.05232">
        <ele>159</ele>
        <time>2010-05-13T08:50:08Z</time>
      </trkpt>
      <trkpt lat="48.67541" lon="2.05232">
        <ele>159</ele>
        <time>2010-05-13T08:50:09Z</time>
      </trkpt>
      <trkpt lat="48.67542" lon="2.05231">
        <ele>158</ele>
        <time>2010-05-13T08:50:10Z</time>
      </trkpt>
      <trkpt lat="48.67544" lon="2.0523">
        <ele>158</ele>
        <time>2010-05-13T08:50:11Z</time>
      </trkpt>
      <trkpt lat="48.67546" lon="2.05229">
        <ele>158</ele>
        <time>2010-05-13T08:50:12Z</time>
      </trkpt>
      <trkpt lat="48.67548" lon="2.05228">
        <ele>157</ele>
        <time>2010-05-13T08:50:13Z</time>
      </trkpt>
      <trkpt lat="48.6755" lon="2.05227">
        <ele>157</ele>
        <time>2010-05-13T08:50:14Z</time>
      </trkpt>
      <trkpt lat="48.67552" lon="2.05225">
        <ele>156</ele>
        <time>2010-05-13T08:50:15Z</time>
      </trkpt>
      <trkpt lat="48.67554" lon="2.05224">
        <ele>156</ele>
        <time>2010-05-13T08:50:16Z</time>
      </trkpt>
      <trkpt lat="48.67556" lon="2.05223">
        <ele>156</ele>
        <time>2010-05-13T08:50:17Z</time>
      </trkpt>
      <trkpt lat="48.67557" lon="2.05222">
        <ele>156</ele>
        <time>2010-05-13T08:50:18Z</time>
      </trkpt>
      <trkpt lat="48.67559" lon="2.05221">
        <ele>155</ele>
        <time>2010-05-13T08:50:19Z</time>
      </trkpt>
      <trkpt lat="48.67562" lon="2.05221">
        <ele>155</ele>
        <time>2010-05-13T08:50:20Z</time>
      </trkpt>
      <trkpt lat="48.67564" lon="2.0522">
        <ele>155</ele>
        <time>2010-05-13T08:50:21Z</time>
      </trkpt>
      <trkpt lat="48.67566" lon="2.05219">
        <ele>155</ele>
        <time>2010-05-13T08:50:22Z</time>
      </trkpt>
      <trkpt lat="48.67568" lon="2.05218">
        <ele>155</ele>
        <time>2010-05-13T08:50:23Z</time>
      </trkpt>
      <trkpt lat="48.6757" lon="2.05218">
        <ele>155</ele>
        <time>2010-05-13T08:50:24Z</time>
      </trkpt>
      <trkpt lat="48.67572" lon="2.05217">
        <ele>154</ele>
        <time>2010-05-13T08:50:25Z</time>
      </trkpt>
      <trkpt lat="48.67575" lon="2.05216">
        <ele>153</ele>
        <time>2010-05-13T08:50:28Z</time>
      </trkpt>
      <trkpt lat="48.67579" lon="2.05215">
        <ele>152</ele>
        <time>2010-05-13T08:50:32Z</time>
      </trkpt>
      <trkpt lat="48.67583" lon="2.05214">
        <ele>151</ele>
        <time>2010-05-13T08:50:33Z</time>
      </trkpt>
      <trkpt lat="48.67586" lon="2.05214">
        <ele>150</ele>
        <time>2010-05-13T08:50:34Z</time>
      </trkpt>
      <trkpt lat="48.67589" lon="2.05214">
        <ele>149</ele>
        <time>2010-05-13T08:50:35Z</time>
      </trkpt>
      <trkpt lat="48.67592" lon="2.05215">
        <ele>148</ele>
        <time>2010-05-13T08:50:36Z</time>
      </trkpt>
      <trkpt lat="48.67596" lon="2.05215">
        <ele>147</ele>
        <time>2010-05-13T08:50:37Z</time>
      </trkpt>
      <trkpt lat="48.67598" lon="2.05215">
        <ele>146</ele>
        <time>2010-05-13T08:50:38Z</time>
      </trkpt>
      <trkpt lat="48.67599" lon="2.05215">
        <ele>145</ele>
        <time>2010-05-13T08:50:39Z</time>
      </trkpt>
      <trkpt lat="48.67601" lon="2.05214">
        <ele>145</ele>
        <time>2010-05-13T08:50:40Z</time>
      </trkpt>
      <trkpt lat="48.67604" lon="2.05214">
        <ele>144</ele>
        <time>2010-05-13T08:50:41Z</time>
      </trkpt>
      <trkpt lat="48.6761" lon="2.0521">
        <ele>143</ele>
        <time>2010-05-13T08:50:45Z</time>
      </trkpt>
      <trkpt lat="48.6761" lon="2.05207">
        <ele>142</ele>
        <time>2010-05-13T08:50:46Z</time>
      </trkpt>
      <trkpt lat="48.67612" lon="2.05206">
        <ele>141</ele>
        <time>2010-05-13T08:50:49Z</time>
      </trkpt>
      <trkpt lat="48.67615" lon="2.05206">
        <ele>140</ele>
        <time>2010-05-13T08:50:50Z</time>
      </trkpt>
      <trkpt lat="48.67618" lon="2.05208">
        <ele>139</ele>
        <time>2010-05-13T08:50:51Z</time>
      </trkpt>
      <trkpt lat="48.67619" lon="2.05207">
        <ele>139</ele>
        <time>2010-05-13T08:50:52Z</time>
      </trkpt>
      <trkpt lat="48.67621" lon="2.05208">
        <ele>138</ele>
        <time>2010-05-13T08:50:53Z</time>
      </trkpt>
      <trkpt lat="48.67623" lon="2.05209">
        <ele>138</ele>
        <time>2010-05-13T08:50:55Z</time>
      </trkpt>
      <trkpt lat="48.67624" lon="2.05209">
        <ele>138</ele>
        <time>2010-05-13T08:50:57Z</time>
      </trkpt>
      <trkpt lat="48.67626" lon="2.05209">
        <ele>138</ele>
        <time>2010-05-13T08:50:58Z</time>
      </trkpt>
      <trkpt lat="48.67629" lon="2.05207">
        <ele>138</ele>
        <time>2010-05-13T08:51:00Z</time>
      </trkpt>
      <trkpt lat="48.67631" lon="2.05205">
        <ele>138</ele>
        <time>2010-05-13T08:51:01Z</time>
      </trkpt>
      <trkpt lat="48.67635" lon="2.05205">
        <ele>138</ele>
        <time>2010-05-13T08:51:04Z</time>
      </trkpt>
      <trkpt lat="48.67638" lon="2.05204">
        <ele>138</ele>
        <time>2010-05-13T08:51:07Z</time>
      </trkpt>
      <trkpt lat="48.67642" lon="2.05207">
        <ele>138</ele>
        <time>2010-05-13T08:51:08Z</time>
      </trkpt>
      <trkpt lat="48.67645" lon="2.05208">
        <ele>138</ele>
        <time>2010-05-13T08:51:09Z</time>
      </trkpt>
      <trkpt lat="48.67648" lon="2.05206">
        <ele>138</ele>
        <time>2010-05-13T08:51:10Z</time>
      </trkpt>
      <trkpt lat="48.67649" lon="2.05206">
        <ele>138</ele>
        <time>2010-05-13T08:51:11Z</time>
      </trkpt>
      <trkpt lat="48.67651" lon="2.05206">
        <ele>138</ele>
        <time>2010-05-13T08:51:12Z</time>
      </trkpt>
      <trkpt lat="48.67654" lon="2.05206">
        <ele>138</ele>
        <time>2010-05-13T08:51:13Z</time>
      </trkpt>
      <trkpt lat="48.67656" lon="2.05207">
        <ele>138</ele>
        <time>2010-05-13T08:51:14Z</time>
      </trkpt>
      <trkpt lat="48.67659" lon="2.05208">
        <ele>138</ele>
        <time>2010-05-13T08:51:15Z</time>
      </trkpt>
      <trkpt lat="48.67662" lon="2.05208">
        <ele>138</ele>
        <time>2010-05-13T08:51:17Z</time>
      </trkpt>
      <trkpt lat="48.67664" lon="2.05208">
        <ele>138</ele>
        <time>2010-05-13T08:51:18Z</time>
      </trkpt>
      <trkpt lat="48.67666" lon="2.05209">
        <ele>138</ele>
        <time>2010-05-13T08:51:19Z</time>
      </trkpt>
      <trkpt lat="48.67667" lon="2.05209">
        <ele>138</ele>
        <time>2010-05-13T08:51:20Z</time>
      </trkpt>
      <trkpt lat="48.67668" lon="2.05209">
        <ele>138</ele>
        <time>2010-05-13T08:51:21Z</time>
      </trkpt>
      <trkpt lat="48.6767" lon="2.05209">
        <ele>138</ele>
        <time>2010-05-13T08:51:22Z</time>
      </trkpt>
      <trkpt lat="48.67671" lon="2.05208">
        <ele>138</ele>
        <time>2010-05-13T08:51:24Z</time>
      </trkpt>
      <trkpt lat="48.67673" lon="2.05208">
        <ele>138</ele>
        <time>2010-05-13T08:51:25Z</time>
      </trkpt>
      <trkpt lat="48.67674" lon="2.05207">
        <ele>138</ele>
        <time>2010-05-13T08:51:26Z</time>
      </trkpt>
      <trkpt lat="48.67676" lon="2.05207">
        <ele>138</ele>
        <time>2010-05-13T08:51:27Z</time>
      </trkpt>
      <trkpt lat="48.67679" lon="2.05206">
        <ele>137</ele>
        <time>2010-05-13T08:51:29Z</time>
      </trkpt>
      <trkpt lat="48.67681" lon="2.05207">
        <ele>137</ele>
        <time>2010-05-13T08:51:30Z</time>
      </trkpt>
      <trkpt lat="48.67683" lon="2.05208">
        <ele>137</ele>
        <time>2010-05-13T08:51:31Z</time>
      </trkpt>
      <trkpt lat="48.67684" lon="2.05208">
        <ele>136</ele>
        <time>2010-05-13T08:51:32Z</time>
      </trkpt>
      <trkpt lat="48.67687" lon="2.05209">
        <ele>136</ele>
        <time>2010-05-13T08:51:33Z</time>
      </trkpt>
      <trkpt lat="48.67689" lon="2.05209">
        <ele>136</ele>
        <time>2010-05-13T08:51:34Z</time>
      </trkpt>
      <trkpt lat="48.67691" lon="2.05211">
        <ele>135</ele>
        <time>2010-05-13T08:51:35Z</time>
      </trkpt>
      <trkpt lat="48.67693" lon="2.05211">
        <ele>135</ele>
        <time>2010-05-13T08:51:36Z</time>
      </trkpt>
      <trkpt lat="48.67694" lon="2.05211">
        <ele>135</ele>
        <time>2010-05-13T08:51:37Z</time>
      </trkpt>
      <trkpt lat="48.67695" lon="2.05212">
        <ele>135</ele>
        <time>2010-05-13T08:51:38Z</time>
      </trkpt>
      <trkpt lat="48.67697" lon="2.05213">
        <ele>135</ele>
        <time>2010-05-13T08:51:39Z</time>
      </trkpt>
      <trkpt lat="48.67698" lon="2.05214">
        <ele>135</ele>
        <time>2010-05-13T08:51:40Z</time>
      </trkpt>
      <trkpt lat="48.677" lon="2.05214">
        <ele>135</ele>
        <time>2010-05-13T08:51:41Z</time>
      </trkpt>
      <trkpt lat="48.67703" lon="2.05214">
        <ele>135</ele>
        <time>2010-05-13T08:51:42Z</time>
      </trkpt>
      <trkpt lat="48.67705" lon="2.05214">
        <ele>135</ele>
        <time>2010-05-13T08:51:43Z</time>
      </trkpt>
      <trkpt lat="48.67707" lon="2.05214">
        <ele>135</ele>
        <time>2010-05-13T08:51:44Z</time>
      </trkpt>
      <trkpt lat="48.67708" lon="2.05214">
        <ele>135</ele>
        <time>2010-05-13T08:51:45Z</time>
      </trkpt>
      <trkpt lat="48.67709" lon="2.05216">
        <ele>135</ele>
        <time>2010-05-13T08:51:47Z</time>
      </trkpt>
      <trkpt lat="48.67711" lon="2.05218">
        <ele>136</ele>
        <time>2010-05-13T08:51:50Z</time>
      </trkpt>
      <trkpt lat="48.67714" lon="2.05218">
        <ele>137</ele>
        <time>2010-05-13T08:51:51Z</time>
      </trkpt>
      <trkpt lat="48.67717" lon="2.05219">
        <ele>138</ele>
        <time>2010-05-13T08:51:52Z</time>
      </trkpt>
      <trkpt lat="48.67718" lon="2.05219">
        <ele>139</ele>
        <time>2010-05-13T08:51:53Z</time>
      </trkpt>
      <trkpt lat="48.67721" lon="2.0522">
        <ele>140</ele>
        <time>2010-05-13T08:51:54Z</time>
      </trkpt>
      <trkpt lat="48.67723" lon="2.05218">
        <ele>140</ele>
        <time>2010-05-13T08:51:55Z</time>
      </trkpt>
      <trkpt lat="48.67725" lon="2.05218">
        <ele>140</ele>
        <time>2010-05-13T08:51:56Z</time>
      </trkpt>
      <trkpt lat="48.67725" lon="2.05216">
        <ele>140</ele>
        <time>2010-05-13T08:51:57Z</time>
      </trkpt>
      <trkpt lat="48.67727" lon="2.05212">
        <ele>140</ele>
        <time>2010-05-13T08:51:59Z</time>
      </trkpt>
      <trkpt lat="48.67727" lon="2.0521">
        <ele>140</ele>
        <time>2010-05-13T08:52:00Z</time>
      </trkpt>
      <trkpt lat="48.67727" lon="2.05208">
        <ele>140</ele>
        <time>2010-05-13T08:52:04Z</time>
      </trkpt>
      <trkpt lat="48.67728" lon="2.05205">
        <ele>140</ele>
        <time>2010-05-13T08:52:08Z</time>
      </trkpt>
      <trkpt lat="48.67728" lon="2.05203">
        <ele>140</ele>
        <time>2010-05-13T08:52:09Z</time>
      </trkpt>
      <trkpt lat="48.67729" lon="2.052">
        <ele>140</ele>
        <time>2010-05-13T08:52:11Z</time>
      </trkpt>
      <trkpt lat="48.67729" lon="2.05198">
        <ele>140</ele>
        <time>2010-05-13T08:52:12Z</time>
      </trkpt>
      <trkpt lat="48.67728" lon="2.05196">
        <ele>140</ele>
        <time>2010-05-13T08:52:14Z</time>
      </trkpt>
      <trkpt lat="48.67727" lon="2.05193">
        <ele>140</ele>
        <time>2010-05-13T08:52:16Z</time>
      </trkpt>
      <trkpt lat="48.67726" lon="2.05191">
        <ele>140</ele>
        <time>2010-05-13T08:52:17Z</time>
      </trkpt>
      <trkpt lat="48.67724" lon="2.0519">
        <ele>140</ele>
        <time>2010-05-13T08:52:18Z</time>
      </trkpt>
      <trkpt lat="48.67723" lon="2.05189">
        <ele>140</ele>
        <time>2010-05-13T08:52:19Z</time>
      </trkpt>
      <trkpt lat="48.67721" lon="2.05189">
        <ele>140</ele>
        <time>2010-05-13T08:52:20Z</time>
      </trkpt>
      <trkpt lat="48.6772" lon="2.05188">
        <ele>140</ele>
        <time>2010-05-13T08:52:21Z</time>
      </trkpt>
      <trkpt lat="48.67719" lon="2.05188">
        <ele>140</ele>
        <time>2010-05-13T08:52:22Z</time>
      </trkpt>
      <trkpt lat="48.67718" lon="2.05187">
        <ele>140</ele>
        <time>2010-05-13T08:52:23Z</time>
      </trkpt>
      <trkpt lat="48.67715" lon="2.05186">
        <ele>140</ele>
        <time>2010-05-13T08:52:26Z</time>
      </trkpt>
      <trkpt lat="48.67714" lon="2.05186">
        <ele>140</ele>
        <time>2010-05-13T08:52:27Z</time>
      </trkpt>
      <trkpt lat="48.67713" lon="2.05185">
        <ele>140</ele>
        <time>2010-05-13T08:52:29Z</time>
      </trkpt>
      <trkpt lat="48.67711" lon="2.05185">
        <ele>140</ele>
        <time>2010-05-13T08:52:32Z</time>
      </trkpt>
      <trkpt lat="48.67709" lon="2.05182">
        <ele>140</ele>
        <time>2010-05-13T08:52:33Z</time>
      </trkpt>
      <trkpt lat="48.67708" lon="2.0518">
        <ele>140</ele>
        <time>2010-05-13T08:52:34Z</time>
      </trkpt>
      <trkpt lat="48.67707" lon="2.05178">
        <ele>141</ele>
        <time>2010-05-13T08:52:35Z</time>
      </trkpt>
      <trkpt lat="48.67706" lon="2.05177">
        <ele>143</ele>
        <time>2010-05-13T08:52:37Z</time>
      </trkpt>
      <trkpt lat="48.67704" lon="2.05178">
        <ele>145</ele>
        <time>2010-05-13T08:52:39Z</time>
      </trkpt>
      <trkpt lat="48.67702" lon="2.05178">
        <ele>146</ele>
        <time>2010-05-13T08:52:41Z</time>
      </trkpt>
      <trkpt lat="48.677" lon="2.05177">
        <ele>146</ele>
        <time>2010-05-13T08:52:42Z</time>
      </trkpt>
      <trkpt lat="48.67699" lon="2.05176">
        <ele>146</ele>
        <time>2010-05-13T08:52:43Z</time>
      </trkpt>
      <trkpt lat="48.67698" lon="2.05173">
        <ele>147</ele>
        <time>2010-05-13T08:52:44Z</time>
      </trkpt>
      <trkpt lat="48.67696" lon="2.0517">
        <ele>147</ele>
        <time>2010-05-13T08:52:45Z</time>
      </trkpt>
      <trkpt lat="48.67694" lon="2.0517">
        <ele>148</ele>
        <time>2010-05-13T08:52:46Z</time>
      </trkpt>
      <trkpt lat="48.67695" lon="2.05167">
        <ele>148</ele>
        <time>2010-05-13T08:52:48Z</time>
      </trkpt>
      <trkpt lat="48.67694" lon="2.05165">
        <ele>149</ele>
        <time>2010-05-13T08:52:49Z</time>
      </trkpt>
      <trkpt lat="48.67693" lon="2.05161">
        <ele>149</ele>
        <time>2010-05-13T08:52:50Z</time>
      </trkpt>
      <trkpt lat="48.67692" lon="2.05159">
        <ele>149</ele>
        <time>2010-05-13T08:52:51Z</time>
      </trkpt>
      <trkpt lat="48.6769" lon="2.05156">
        <ele>149</ele>
        <time>2010-05-13T08:52:52Z</time>
      </trkpt>
      <trkpt lat="48.67689" lon="2.05155">
        <ele>150</ele>
        <time>2010-05-13T08:52:53Z</time>
      </trkpt>
      <trkpt lat="48.67688" lon="2.05152">
        <ele>150</ele>
        <time>2010-05-13T08:52:54Z</time>
      </trkpt>
      <trkpt lat="48.67687" lon="2.0515">
        <ele>151</ele>
        <time>2010-05-13T08:52:55Z</time>
      </trkpt>
      <trkpt lat="48.67685" lon="2.05147">
        <ele>152</ele>
        <time>2010-05-13T08:52:57Z</time>
      </trkpt>
      <trkpt lat="48.67686" lon="2.05144">
        <ele>153</ele>
        <time>2010-05-13T08:52:59Z</time>
      </trkpt>
      <trkpt lat="48.67687" lon="2.05142">
        <ele>154</ele>
        <time>2010-05-13T08:53:00Z</time>
      </trkpt>
      <trkpt lat="48.67688" lon="2.05139">
        <ele>155</ele>
        <time>2010-05-13T08:53:01Z</time>
      </trkpt>
      <trkpt lat="48.67688" lon="2.05136">
        <ele>155</ele>
        <time>2010-05-13T08:53:02Z</time>
      </trkpt>
      <trkpt lat="48.67687" lon="2.05131">
        <ele>156</ele>
        <time>2010-05-13T08:53:05Z</time>
      </trkpt>
      <trkpt lat="48.67686" lon="2.05129">
        <ele>156</ele>
        <time>2010-05-13T08:53:06Z</time>
      </trkpt>
      <trkpt lat="48.67686" lon="2.05127">
        <ele>156</ele>
        <time>2010-05-13T08:53:07Z</time>
      </trkpt>
      <trkpt lat="48.67688" lon="2.05124">
        <ele>156</ele>
        <time>2010-05-13T08:53:08Z</time>
      </trkpt>
      <trkpt lat="48.67689" lon="2.05122">
        <ele>156</ele>
        <time>2010-05-13T08:53:09Z</time>
      </trkpt>
      <trkpt lat="48.67689" lon="2.05118">
        <ele>156</ele>
        <time>2010-05-13T08:53:10Z</time>
      </trkpt>
      <trkpt lat="48.6769" lon="2.05115">
        <ele>156</ele>
        <time>2010-05-13T08:53:11Z</time>
      </trkpt>
      <trkpt lat="48.67691" lon="2.05113">
        <ele>156</ele>
        <time>2010-05-13T08:53:12Z</time>
      </trkpt>
      <trkpt lat="48.67691" lon="2.05111">
        <ele>156</ele>
        <time>2010-05-13T08:53:13Z</time>
      </trkpt>
      <trkpt lat="48.67692" lon="2.05108">
        <ele>156</ele>
        <time>2010-05-13T08:53:14Z</time>
      </trkpt>
      <trkpt lat="48.67692" lon="2.05106">
        <ele>156</ele>
        <time>2010-05-13T08:53:15Z</time>
      </trkpt>
      <trkpt lat="48.67692" lon="2.05105">
        <ele>155</ele>
        <time>2010-05-13T08:53:16Z</time>
      </trkpt>
      <trkpt lat="48.67693" lon="2.05101">
        <ele>154</ele>
        <time>2010-05-13T08:53:18Z</time>
      </trkpt>
      <trkpt lat="48.67694" lon="2.05099">
        <ele>154</ele>
        <time>2010-05-13T08:53:19Z</time>
      </trkpt>
      <trkpt lat="48.67693" lon="2.05096">
        <ele>154</ele>
        <time>2010-05-13T08:53:20Z</time>
      </trkpt>
      <trkpt lat="48.67693" lon="2.05093">
        <ele>154</ele>
        <time>2010-05-13T08:53:21Z</time>
      </trkpt>
      <trkpt lat="48.67693" lon="2.05091">
        <ele>154</ele>
        <time>2010-05-13T08:53:22Z</time>
      </trkpt>
      <trkpt lat="48.67693" lon="2.05089">
        <ele>154</ele>
        <time>2010-05-13T08:53:23Z</time>
      </trkpt>
      <trkpt lat="48.67693" lon="2.05086">
        <ele>154</ele>
        <time>2010-05-13T08:53:24Z</time>
      </trkpt>
      <trkpt lat="48.67693" lon="2.05083">
        <ele>154</ele>
        <time>2010-05-13T08:53:25Z</time>
      </trkpt>
      <trkpt lat="48.67694" lon="2.0508">
        <ele>154</ele>
        <time>2010-05-13T08:53:26Z</time>
      </trkpt>
      <trkpt lat="48.67693" lon="2.05078">
        <ele>154</ele>
        <time>2010-05-13T08:53:27Z</time>
      </trkpt>
      <trkpt lat="48.67693" lon="2.05076">
        <ele>154</ele>
        <time>2010-05-13T08:53:28Z</time>
      </trkpt>
      <trkpt lat="48.67693" lon="2.05074">
        <ele>154</ele>
        <time>2010-05-13T08:53:29Z</time>
      </trkpt>
      <trkpt lat="48.67694" lon="2.05071">
        <ele>154</ele>
        <time>2010-05-13T08:53:31Z</time>
      </trkpt>
      <trkpt lat="48.67694" lon="2.05069">
        <ele>154</ele>
        <time>2010-05-13T08:53:32Z</time>
      </trkpt>
      <trkpt lat="48.67694" lon="2.05065">
        <ele>154</ele>
        <time>2010-05-13T08:53:33Z</time>
      </trkpt>
      <trkpt lat="48.67694" lon="2.05063">
        <ele>154</ele>
        <time>2010-05-13T08:53:34Z</time>
      </trkpt>
      <trkpt lat="48.67693" lon="2.0506">
        <ele>154</ele>
        <time>2010-05-13T08:53:36Z</time>
      </trkpt>
      <trkpt lat="48.67694" lon="2.05058">
        <ele>154</ele>
        <time>2010-05-13T08:53:37Z</time>
      </trkpt>
      <trkpt lat="48.67694" lon="2.05056">
        <ele>154</ele>
        <time>2010-05-13T08:53:38Z</time>
      </trkpt>
      <trkpt lat="48.67693" lon="2.05055">
        <ele>154</ele>
        <time>2010-05-13T08:53:39Z</time>
      </trkpt>
      <trkpt lat="48.67693" lon="2.05052">
        <ele>154</ele>
        <time>2010-05-13T08:53:40Z</time>
      </trkpt>
      <trkpt lat="48.67693" lon="2.0505">
        <ele>154</ele>
        <time>2010-05-13T08:53:41Z</time>
      </trkpt>
      <trkpt lat="48.67695" lon="2.05042">
        <ele>154</ele>
        <time>2010-05-13T08:53:45Z</time>
      </trkpt>
      <trkpt lat="48.67693" lon="2.05037">
        <ele>154</ele>
        <time>2010-05-13T08:53:46Z</time>
      </trkpt>
      <trkpt lat="48.67694" lon="2.05034">
        <ele>154</ele>
        <time>2010-05-13T08:53:47Z</time>
      </trkpt>
      <trkpt lat="48.67695" lon="2.05031">
        <ele>154</ele>
        <time>2010-05-13T08:53:48Z</time>
      </trkpt>
      <trkpt lat="48.67696" lon="2.05027">
        <ele>154</ele>
        <time>2010-05-13T08:53:49Z</time>
      </trkpt>
      <trkpt lat="48.67696" lon="2.05023">
        <ele>154</ele>
        <time>2010-05-13T08:53:51Z</time>
      </trkpt>
      <trkpt lat="48.67695" lon="2.0502">
        <ele>154</ele>
        <time>2010-05-13T08:53:53Z</time>
      </trkpt>
      <trkpt lat="48.67695" lon="2.05018">
        <ele>154</ele>
        <time>2010-05-13T08:53:54Z</time>
      </trkpt>
      <trkpt lat="48.67696" lon="2.05016">
        <ele>153</ele>
        <time>2010-05-13T08:53:55Z</time>
      </trkpt>
      <trkpt lat="48.67696" lon="2.05012">
        <ele>153</ele>
        <time>2010-05-13T08:53:57Z</time>
      </trkpt>
      <trkpt lat="48.67696" lon="2.0501">
        <ele>153</ele>
        <time>2010-05-13T08:53:58Z</time>
      </trkpt>
      <trkpt lat="48.67696" lon="2.05008">
        <ele>153</ele>
        <time>2010-05-13T08:53:59Z</time>
      </trkpt>
      <trkpt lat="48.67696" lon="2.05006">
        <ele>153</ele>
        <time>2010-05-13T08:54:00Z</time>
      </trkpt>
      <trkpt lat="48.67695" lon="2.05004">
        <ele>153</ele>
        <time>2010-05-13T08:54:01Z</time>
      </trkpt>
      <trkpt lat="48.67696" lon="2.05">
        <ele>153</ele>
        <time>2010-05-13T08:54:04Z</time>
      </trkpt>
      <trkpt lat="48.67698" lon="2.04995">
        <ele>153</ele>
        <time>2010-05-13T08:54:05Z</time>
      </trkpt>
      <trkpt lat="48.67698" lon="2.04992">
        <ele>153</ele>
        <time>2010-05-13T08:54:08Z</time>
      </trkpt>
      <trkpt lat="48.677" lon="2.04992">
        <ele>153</ele>
        <time>2010-05-13T08:54:09Z</time>
      </trkpt>
      <trkpt lat="48.67699" lon="2.04988">
        <ele>152</ele>
        <time>2010-05-13T08:54:10Z</time>
      </trkpt>
      <trkpt lat="48.67698" lon="2.04986">
        <ele>152</ele>
        <time>2010-05-13T08:54:11Z</time>
      </trkpt>
      <trkpt lat="48.677" lon="2.04985">
        <ele>152</ele>
        <time>2010-05-13T08:54:12Z</time>
      </trkpt>
      <trkpt lat="48.677" lon="2.04981">
        <ele>152</ele>
        <time>2010-05-13T08:54:13Z</time>
      </trkpt>
      <trkpt lat="48.677" lon="2.04976">
        <ele>152</ele>
        <time>2010-05-13T08:54:16Z</time>
      </trkpt>
      <trkpt lat="48.67699" lon="2.0497">
        <ele>152</ele>
        <time>2010-05-13T08:54:17Z</time>
      </trkpt>
      <trkpt lat="48.67699" lon="2.04968">
        <ele>152</ele>
        <time>2010-05-13T08:54:18Z</time>
      </trkpt>
      <trkpt lat="48.67701" lon="2.04966">
        <ele>152</ele>
        <time>2010-05-13T08:54:19Z</time>
      </trkpt>
      <trkpt lat="48.67702" lon="2.04963">
        <ele>152</ele>
        <time>2010-05-13T08:54:21Z</time>
      </trkpt>
      <trkpt lat="48.67702" lon="2.0496">
        <ele>152</ele>
        <time>2010-05-13T08:54:22Z</time>
      </trkpt>
      <trkpt lat="48.67702" lon="2.04958">
        <ele>152</ele>
        <time>2010-05-13T08:54:23Z</time>
      </trkpt>
      <trkpt lat="48.67702" lon="2.04955">
        <ele>152</ele>
        <time>2010-05-13T08:54:24Z</time>
      </trkpt>
      <trkpt lat="48.67702" lon="2.04953">
        <ele>152</ele>
        <time>2010-05-13T08:54:25Z</time>
      </trkpt>
      <trkpt lat="48.67703" lon="2.04951">
        <ele>152</ele>
        <time>2010-05-13T08:54:26Z</time>
      </trkpt>
      <trkpt lat="48.67705" lon="2.04936">
        <ele>152</ele>
        <time>2010-05-13T08:54:33Z</time>
      </trkpt>
      <trkpt lat="48.67704" lon="2.0493">
        <ele>152</ele>
        <time>2010-05-13T08:54:34Z</time>
      </trkpt>
      <trkpt lat="48.67705" lon="2.04923">
        <ele>152</ele>
        <time>2010-05-13T08:54:37Z</time>
      </trkpt>
      <trkpt lat="48.67703" lon="2.04921">
        <ele>152</ele>
        <time>2010-05-13T08:54:38Z</time>
      </trkpt>
      <trkpt lat="48.67702" lon="2.04917">
        <ele>152</ele>
        <time>2010-05-13T08:54:39Z</time>
      </trkpt>
      <trkpt lat="48.67701" lon="2.04914">
        <ele>152</ele>
        <time>2010-05-13T08:54:40Z</time>
      </trkpt>
      <trkpt lat="48.677" lon="2.0491">
        <ele>152</ele>
        <time>2010-05-13T08:54:41Z</time>
      </trkpt>
      <trkpt lat="48.67701" lon="2.0491">
        <ele>152</ele>
        <time>2010-05-13T08:54:42Z</time>
      </trkpt>
      <trkpt lat="48.67703" lon="2.04909">
        <ele>152</ele>
        <time>2010-05-13T08:54:44Z</time>
      </trkpt>
      <trkpt lat="48.67702" lon="2.04907">
        <ele>152</ele>
        <time>2010-05-13T08:54:45Z</time>
      </trkpt>
      <trkpt lat="48.67702" lon="2.04903">
        <ele>152</ele>
        <time>2010-05-13T08:54:47Z</time>
      </trkpt>
      <trkpt lat="48.677" lon="2.04898">
        <ele>152</ele>
        <time>2010-05-13T08:54:49Z</time>
      </trkpt>
      <trkpt lat="48.67698" lon="2.04891">
        <ele>152</ele>
        <time>2010-05-13T08:54:53Z</time>
      </trkpt>
      <trkpt lat="48.67697" lon="2.04887">
        <ele>152</ele>
        <time>2010-05-13T08:54:54Z</time>
      </trkpt>
      <trkpt lat="48.67695" lon="2.04883">
        <ele>153</ele>
        <time>2010-05-13T08:54:55Z</time>
      </trkpt>
      <trkpt lat="48.67694" lon="2.04879">
        <ele>153</ele>
        <time>2010-05-13T08:54:56Z</time>
      </trkpt>
      <trkpt lat="48.67694" lon="2.04876">
        <ele>153</ele>
        <time>2010-05-13T08:54:57Z</time>
      </trkpt>
      <trkpt lat="48.67693" lon="2.04874">
        <ele>153</ele>
        <time>2010-05-13T08:54:58Z</time>
      </trkpt>
      <trkpt lat="48.67693" lon="2.04873">
        <ele>153</ele>
        <time>2010-05-13T08:54:59Z</time>
      </trkpt>
      <trkpt lat="48.67691" lon="2.04871">
        <ele>153</ele>
        <time>2010-05-13T08:55:01Z</time>
      </trkpt>
      <trkpt lat="48.67689" lon="2.04869">
        <ele>153</ele>
        <time>2010-05-13T08:55:04Z</time>
      </trkpt>
      <trkpt lat="48.67688" lon="2.04866">
        <ele>153</ele>
        <time>2010-05-13T08:55:06Z</time>
      </trkpt>
      <trkpt lat="48.67687" lon="2.04865">
        <ele>153</ele>
        <time>2010-05-13T08:55:07Z</time>
      </trkpt>
      <trkpt lat="48.67686" lon="2.04862">
        <ele>154</ele>
        <time>2010-05-13T08:55:08Z</time>
      </trkpt>
      <trkpt lat="48.67685" lon="2.0486">
        <ele>155</ele>
        <time>2010-05-13T08:55:09Z</time>
      </trkpt>
      <trkpt lat="48.67684" lon="2.04858">
        <ele>155</ele>
        <time>2010-05-13T08:55:10Z</time>
      </trkpt>
      <trkpt lat="48.67683" lon="2.04856">
        <ele>156</ele>
        <time>2010-05-13T08:55:11Z</time>
      </trkpt>
      <trkpt lat="48.67682" lon="2.04853">
        <ele>157</ele>
        <time>2010-05-13T08:55:13Z</time>
      </trkpt>
      <trkpt lat="48.67681" lon="2.04851">
        <ele>158</ele>
        <time>2010-05-13T08:55:15Z</time>
      </trkpt>
      <trkpt lat="48.6768" lon="2.04849">
        <ele>159</ele>
        <time>2010-05-13T08:55:17Z</time>
      </trkpt>
      <trkpt lat="48.67679" lon="2.04847">
        <ele>159</ele>
        <time>2010-05-13T08:55:18Z</time>
      </trkpt>
      <trkpt lat="48.67678" lon="2.04844">
        <ele>159</ele>
        <time>2010-05-13T08:55:20Z</time>
      </trkpt>
      <trkpt lat="48.67678" lon="2.04842">
        <ele>159</ele>
        <time>2010-05-13T08:55:21Z</time>
      </trkpt>
      <trkpt lat="48.67678" lon="2.04841">
        <ele>159</ele>
        <time>2010-05-13T08:55:22Z</time>
      </trkpt>
      <trkpt lat="48.67678" lon="2.04838">
        <ele>159</ele>
        <time>2010-05-13T08:55:23Z</time>
      </trkpt>
      <trkpt lat="48.67678" lon="2.04837">
        <ele>159</ele>
        <time>2010-05-13T08:55:24Z</time>
      </trkpt>
      <trkpt lat="48.67678" lon="2.04833">
        <ele>159</ele>
        <time>2010-05-13T08:55:25Z</time>
      </trkpt>
      <trkpt lat="48.67678" lon="2.04831">
        <ele>159</ele>
        <time>2010-05-13T08:55:26Z</time>
      </trkpt>
      <trkpt lat="48.67677" lon="2.04829">
        <ele>159</ele>
        <time>2010-05-13T08:55:27Z</time>
      </trkpt>
      <trkpt lat="48.67677" lon="2.04826">
        <ele>159</ele>
        <time>2010-05-13T08:55:28Z</time>
      </trkpt>
      <trkpt lat="48.67677" lon="2.04824">
        <ele>160</ele>
        <time>2010-05-13T08:55:29Z</time>
      </trkpt>
      <trkpt lat="48.67677" lon="2.04822">
        <ele>160</ele>
        <time>2010-05-13T08:55:30Z</time>
      </trkpt>
      <trkpt lat="48.67676" lon="2.0482">
        <ele>160</ele>
        <time>2010-05-13T08:55:31Z</time>
      </trkpt>
      <trkpt lat="48.67675" lon="2.04818">
        <ele>160</ele>
        <time>2010-05-13T08:55:32Z</time>
      </trkpt>
      <trkpt lat="48.67675" lon="2.04815">
        <ele>160</ele>
        <time>2010-05-13T08:55:33Z</time>
      </trkpt>
      <trkpt lat="48.67674" lon="2.04814">
        <ele>160</ele>
        <time>2010-05-13T08:55:34Z</time>
      </trkpt>
      <trkpt lat="48.67674" lon="2.04812">
        <ele>160</ele>
        <time>2010-05-13T08:55:35Z</time>
      </trkpt>
      <trkpt lat="48.67673" lon="2.0481">
        <ele>161</ele>
        <time>2010-05-13T08:55:36Z</time>
      </trkpt>
      <trkpt lat="48.67672" lon="2.04808">
        <ele>161</ele>
        <time>2010-05-13T08:55:37Z</time>
      </trkpt>
      <trkpt lat="48.6767" lon="2.04806">
        <ele>161</ele>
        <time>2010-05-13T08:55:38Z</time>
      </trkpt>
      <trkpt lat="48.67669" lon="2.04804">
        <ele>161</ele>
        <time>2010-05-13T08:55:39Z</time>
      </trkpt>
      <trkpt lat="48.67667" lon="2.04801">
        <ele>161</ele>
        <time>2010-05-13T08:55:40Z</time>
      </trkpt>
      <trkpt lat="48.67666" lon="2.04799">
        <ele>161</ele>
        <time>2010-05-13T08:55:41Z</time>
      </trkpt>
      <trkpt lat="48.67664" lon="2.04795">
        <ele>161</ele>
        <time>2010-05-13T08:55:42Z</time>
      </trkpt>
      <trkpt lat="48.67662" lon="2.04792">
        <ele>161</ele>
        <time>2010-05-13T08:55:43Z</time>
      </trkpt>
      <trkpt lat="48.67661" lon="2.04789">
        <ele>161</ele>
        <time>2010-05-13T08:55:44Z</time>
      </trkpt>
      <trkpt lat="48.6766" lon="2.04787">
        <ele>162</ele>
        <time>2010-05-13T08:55:45Z</time>
      </trkpt>
      <trkpt lat="48.67659" lon="2.04785">
        <ele>162</ele>
        <time>2010-05-13T08:55:47Z</time>
      </trkpt>
      <trkpt lat="48.67657" lon="2.04782">
        <ele>162</ele>
        <time>2010-05-13T08:55:49Z</time>
      </trkpt>
      <trkpt lat="48.67656" lon="2.04779">
        <ele>162</ele>
        <time>2010-05-13T08:55:50Z</time>
      </trkpt>
      <trkpt lat="48.67655" lon="2.04776">
        <ele>162</ele>
        <time>2010-05-13T08:55:51Z</time>
      </trkpt>
      <trkpt lat="48.67653" lon="2.04773">
        <ele>162</ele>
        <time>2010-05-13T08:55:52Z</time>
      </trkpt>
      <trkpt lat="48.67652" lon="2.0477">
        <ele>162</ele>
        <time>2010-05-13T08:55:53Z</time>
      </trkpt>
      <trkpt lat="48.6765" lon="2.04768">
        <ele>162</ele>
        <time>2010-05-13T08:55:55Z</time>
      </trkpt>
      <trkpt lat="48.67649" lon="2.04766">
        <ele>162</ele>
        <time>2010-05-13T08:55:58Z</time>
      </trkpt>
      <trkpt lat="48.67647" lon="2.04766">
        <ele>162</ele>
        <time>2010-05-13T08:56:03Z</time>
      </trkpt>
      <trkpt lat="48.67645" lon="2.04766">
        <ele>162</ele>
        <time>2010-05-13T08:56:05Z</time>
      </trkpt>
      <trkpt lat="48.67646" lon="2.04769">
        <ele>162</ele>
        <time>2010-05-13T08:56:07Z</time>
      </trkpt>
      <trkpt lat="48.67647" lon="2.04769">
        <ele>158</ele>
        <time>2010-05-13T08:56:13Z</time>
      </trkpt>
      <trkpt lat="48.67647" lon="2.04771">
        <ele>158</ele>
        <time>2010-05-13T08:56:15Z</time>
      </trkpt>
      <trkpt lat="48.67647" lon="2.04773">
        <ele>156</ele>
        <time>2010-05-13T08:56:24Z</time>
      </trkpt>
      <trkpt lat="48.67648" lon="2.04774">
        <ele>156</ele>
        <time>2010-05-13T08:56:32Z</time>
      </trkpt>
      <trkpt lat="48.67649" lon="2.04776">
        <ele>156</ele>
        <time>2010-05-13T08:56:35Z</time>
      </trkpt>
      <trkpt lat="48.6765" lon="2.04775">
        <ele>156</ele>
        <time>2010-05-13T08:56:37Z</time>
      </trkpt>
      <trkpt lat="48.67652" lon="2.04774">
        <ele>156</ele>
        <time>2010-05-13T08:56:39Z</time>
      </trkpt>
      <trkpt lat="48.67654" lon="2.04772">
        <ele>156</ele>
        <time>2010-05-13T08:56:41Z</time>
      </trkpt>
      <trkpt lat="48.67655" lon="2.04769">
        <ele>156</ele>
        <time>2010-05-13T08:56:43Z</time>
      </trkpt>
      <trkpt lat="48.67657" lon="2.04767">
        <ele>156</ele>
        <time>2010-05-13T08:56:45Z</time>
      </trkpt>
      <trkpt lat="48.67658" lon="2.04765">
        <ele>156</ele>
        <time>2010-05-13T08:56:47Z</time>
      </trkpt>
      <trkpt lat="48.67659" lon="2.04765">
        <ele>156</ele>
        <time>2010-05-13T08:56:52Z</time>
      </trkpt>
      <trkpt lat="48.67661" lon="2.04766">
        <ele>156</ele>
        <time>2010-05-13T08:56:54Z</time>
      </trkpt>
      <trkpt lat="48.67662" lon="2.04767">
        <ele>154</ele>
        <time>2010-05-13T08:56:59Z</time>
      </trkpt>
      <trkpt lat="48.67661" lon="2.04765">
        <ele>154</ele>
        <time>2010-05-13T08:57:01Z</time>
      </trkpt>
      <trkpt lat="48.6766" lon="2.04764">
        <ele>154</ele>
        <time>2010-05-13T08:57:04Z</time>
      </trkpt>
      <trkpt lat="48.67657" lon="2.04763">
        <ele>154</ele>
        <time>2010-05-13T08:57:16Z</time>
      </trkpt>
      <trkpt lat="48.67657" lon="2.04765">
        <ele>156</ele>
        <time>2010-05-13T08:57:19Z</time>
      </trkpt>
      <trkpt lat="48.67658" lon="2.04765">
        <ele>156</ele>
        <time>2010-05-13T08:57:26Z</time>
      </trkpt>
      <trkpt lat="48.67658" lon="2.04763">
        <ele>156</ele>
        <time>2010-05-13T08:57:31Z</time>
      </trkpt>
      <trkpt lat="48.67657" lon="2.04761">
        <ele>156</ele>
        <time>2010-05-13T08:57:35Z</time>
      </trkpt>
      <trkpt lat="48.67659" lon="2.04761">
        <ele>156</ele>
        <time>2010-05-13T08:57:38Z</time>
      </trkpt>
      <trkpt lat="48.67657" lon="2.04762">
        <ele>156</ele>
        <time>2010-05-13T08:57:41Z</time>
      </trkpt>
      <trkpt lat="48.67656" lon="2.0476">
        <ele>158</ele>
        <time>2010-05-13T08:57:48Z</time>
      </trkpt>
      <trkpt lat="48.67655" lon="2.04761">
        <ele>159</ele>
        <time>2010-05-13T08:57:52Z</time>
      </trkpt>
      <trkpt lat="48.67656" lon="2.04763">
        <ele>159</ele>
        <time>2010-05-13T08:58:01Z</time>
      </trkpt>
      <trkpt lat="48.67658" lon="2.04764">
        <ele>158</ele>
        <time>2010-05-13T08:58:15Z</time>
      </trkpt>
      <trkpt lat="48.67657" lon="2.04762">
        <ele>158</ele>
        <time>2010-05-13T08:58:20Z</time>
      </trkpt>
      <trkpt lat="48.67659" lon="2.04762">
        <ele>158</ele>
        <time>2010-05-13T08:58:29Z</time>
      </trkpt>
      <trkpt lat="48.67658" lon="2.04764">
        <ele>158</ele>
        <time>2010-05-13T08:58:41Z</time>
      </trkpt>
      <trkpt lat="48.67659" lon="2.04762">
        <ele>158</ele>
        <time>2010-05-13T08:58:48Z</time>
      </trkpt>
      <trkpt lat="48.67658" lon="2.04764">
        <ele>158</ele>
        <time>2010-05-13T08:58:53Z</time>
      </trkpt>
      <trkpt lat="48.67657" lon="2.04765">
        <ele>158</ele>
        <time>2010-05-13T08:58:56Z</time>
      </trkpt>
      <trkpt lat="48.67657" lon="2.04762">
        <ele>158</ele>
        <time>2010-05-13T08:59:01Z</time>
      </trkpt>
      <trkpt lat="48.67657" lon="2.04764">
        <ele>159</ele>
        <time>2010-05-13T08:59:05Z</time>
      </trkpt>
      <trkpt lat="48.67658" lon="2.04764">
        <ele>159</ele>
        <time>2010-05-13T08:59:17Z</time>
      </trkpt>
      <trkpt lat="48.67659" lon="2.04762">
        <ele>160</ele>
        <time>2010-05-13T08:59:20Z</time>
      </trkpt>
      <trkpt lat="48.67659" lon="2.0476">
        <ele>161</ele>
        <time>2010-05-13T08:59:23Z</time>
      </trkpt>
      <trkpt lat="48.6766" lon="2.04762">
        <ele>161</ele>
        <time>2010-05-13T08:59:28Z</time>
      </trkpt>
      <trkpt lat="48.67659" lon="2.04763">
        <ele>161</ele>
        <time>2010-05-13T08:59:32Z</time>
      </trkpt>
      <trkpt lat="48.67656" lon="2.04762">
        <ele>161</ele>
        <time>2010-05-13T08:59:34Z</time>
      </trkpt>
      <trkpt lat="48.67655" lon="2.04762">
        <ele>161</ele>
        <time>2010-05-13T08:59:35Z</time>
      </trkpt>
      <trkpt lat="48.67654" lon="2.04762">
        <ele>161</ele>
        <time>2010-05-13T08:59:37Z</time>
      </trkpt>
      <trkpt lat="48.67655" lon="2.04763">
        <ele>161</ele>
        <time>2010-05-13T08:59:45Z</time>
      </trkpt>
      <trkpt lat="48.67657" lon="2.04763">
        <ele>161</ele>
        <time>2010-05-13T08:59:47Z</time>
      </trkpt>
      <trkpt lat="48.67658" lon="2.04762">
        <ele>161</ele>
        <time>2010-05-13T08:59:49Z</time>
      </trkpt>
      <trkpt lat="48.67659" lon="2.04764">
        <ele>161</ele>
        <time>2010-05-13T09:00:01Z</time>
      </trkpt>
      <trkpt lat="48.67658" lon="2.04764">
        <ele>161</ele>
        <time>2010-05-13T09:00:05Z</time>
      </trkpt>
      <trkpt lat="48.67656" lon="2.04767">
        <ele>161</ele>
        <time>2010-05-13T09:00:07Z</time>
      </trkpt>
      <trkpt lat="48.67655" lon="2.04769">
        <ele>161</ele>
        <time>2010-05-13T09:00:08Z</time>
      </trkpt>
      <trkpt lat="48.67654" lon="2.04771">
        <ele>160</ele>
        <time>2010-05-13T09:00:09Z</time>
      </trkpt>
      <trkpt lat="48.67653" lon="2.04772">
        <ele>160</ele>
        <time>2010-05-13T09:00:10Z</time>
      </trkpt>
      <trkpt lat="48.67651" lon="2.04772">
        <ele>160</ele>
        <time>2010-05-13T09:00:11Z</time>
      </trkpt>
      <trkpt lat="48.6765" lon="2.04772">
        <ele>160</ele>
        <time>2010-05-13T09:00:12Z</time>
      </trkpt>
      <trkpt lat="48.67649" lon="2.04772">
        <ele>160</ele>
        <time>2010-05-13T09:00:13Z</time>
      </trkpt>
      <trkpt lat="48.67647" lon="2.04773">
        <ele>160</ele>
        <time>2010-05-13T09:00:16Z</time>
      </trkpt>
      <trkpt lat="48.67647" lon="2.04775">
        <ele>160</ele>
        <time>2010-05-13T09:00:22Z</time>
      </trkpt>
      <trkpt lat="48.67648" lon="2.04776">
        <ele>159</ele>
        <time>2010-05-13T09:00:28Z</time>
      </trkpt>
      <trkpt lat="48.6765" lon="2.04777">
        <ele>158</ele>
        <time>2010-05-13T09:00:33Z</time>
      </trkpt>
      <trkpt lat="48.6765" lon="2.04779">
        <ele>158</ele>
        <time>2010-05-13T09:00:37Z</time>
      </trkpt>
      <trkpt lat="48.67653" lon="2.0478">
        <ele>158</ele>
        <time>2010-05-13T09:00:41Z</time>
      </trkpt>
      <trkpt lat="48.67655" lon="2.04781">
        <ele>158</ele>
        <time>2010-05-13T09:00:43Z</time>
      </trkpt>
      <trkpt lat="48.67656" lon="2.04781">
        <ele>158</ele>
        <time>2010-05-13T09:00:44Z</time>
      </trkpt>
      <trkpt lat="48.67657" lon="2.04779">
        <ele>158</ele>
        <time>2010-05-13T09:00:47Z</time>
      </trkpt>
      <trkpt lat="48.67656" lon="2.0478">
        <ele>156</ele>
        <time>2010-05-13T09:00:51Z</time>
      </trkpt>
      <trkpt lat="48.67653" lon="2.04782">
        <ele>156</ele>
        <time>2010-05-13T09:00:53Z</time>
      </trkpt>
      <trkpt lat="48.67652" lon="2.04782">
        <ele>156</ele>
        <time>2010-05-13T09:00:54Z</time>
      </trkpt>
      <trkpt lat="48.67651" lon="2.04783">
        <ele>156</ele>
        <time>2010-05-13T09:00:55Z</time>
      </trkpt>
      <trkpt lat="48.67649" lon="2.04783">
        <ele>156</ele>
        <time>2010-05-13T09:00:57Z</time>
      </trkpt>
      <trkpt lat="48.67647" lon="2.04782">
        <ele>157</ele>
        <time>2010-05-13T09:00:59Z</time>
      </trkpt>
      <trkpt lat="48.67646" lon="2.04782">
        <ele>159</ele>
        <time>2010-05-13T09:01:02Z</time>
      </trkpt>
      <trkpt lat="48.67645" lon="2.0478">
        <ele>160</ele>
        <time>2010-05-13T09:01:08Z</time>
      </trkpt>
      <trkpt lat="48.67645" lon="2.04782">
        <ele>161</ele>
        <time>2010-05-13T09:01:15Z</time>
      </trkpt>
      <trkpt lat="48.67645" lon="2.04783">
        <ele>161</ele>
        <time>2010-05-13T09:01:18Z</time>
      </trkpt>
      <trkpt lat="48.67645" lon="2.04785">
        <ele>161</ele>
        <time>2010-05-13T09:01:25Z</time>
      </trkpt>
      <trkpt lat="48.67646" lon="2.04784">
        <ele>157</ele>
        <time>2010-05-13T09:01:39Z</time>
      </trkpt>
      <trkpt lat="48.67647" lon="2.04783">
        <ele>160</ele>
        <time>2010-05-13T09:01:56Z</time>
      </trkpt>
      <trkpt lat="48.67648" lon="2.04784">
        <ele>160</ele>
        <time>2010-05-13T09:01:59Z</time>
      </trkpt>
      <trkpt lat="48.67648" lon="2.04782">
        <ele>160</ele>
        <time>2010-05-13T09:02:06Z</time>
      </trkpt>
      <trkpt lat="48.67647" lon="2.0478">
        <ele>160</ele>
        <time>2010-05-13T09:02:29Z</time>
      </trkpt>
      <trkpt lat="48.67647" lon="2.04778">
        <ele>160</ele>
        <time>2010-05-13T09:02:33Z</time>
      </trkpt>
      <trkpt lat="48.67647" lon="2.0478">
        <ele>160</ele>
        <time>2010-05-13T09:02:42Z</time>
      </trkpt>
      <trkpt lat="48.67648" lon="2.04782">
        <ele>160</ele>
        <time>2010-05-13T09:02:50Z</time>
      </trkpt>
      <trkpt lat="48.67648" lon="2.04784">
        <ele>160</ele>
        <time>2010-05-13T09:02:53Z</time>
      </trkpt>
      <trkpt lat="48.67647" lon="2.04786">
        <ele>160</ele>
        <time>2010-05-13T09:02:56Z</time>
      </trkpt>
      <trkpt lat="48.67647" lon="2.04785">
        <ele>160</ele>
        <time>2010-05-13T09:03:07Z</time>
      </trkpt>
      <trkpt lat="48.67646" lon="2.04783">
        <ele>160</ele>
        <time>2010-05-13T09:03:35Z</time>
      </trkpt>
      <trkpt lat="48.67647" lon="2.04784">
        <ele>160</ele>
        <time>2010-05-13T09:03:39Z</time>
      </trkpt>
      <trkpt lat="48.67649" lon="2.04785">
        <ele>160</ele>
        <time>2010-05-13T09:03:42Z</time>
      </trkpt>
      <trkpt lat="48.6765" lon="2.04785">
        <ele>160</ele>
        <time>2010-05-13T09:03:45Z</time>
      </trkpt>
      <trkpt lat="48.67651" lon="2.04786">
        <ele>160</ele>
        <time>2010-05-13T09:03:47Z</time>
      </trkpt>
      <trkpt lat="48.67652" lon="2.04788">
        <ele>160</ele>
        <time>2010-05-13T09:03:53Z</time>
      </trkpt>
      <trkpt lat="48.67654" lon="2.04789">
        <ele>160</ele>
        <time>2010-05-13T09:03:58Z</time>
      </trkpt>
      <trkpt lat="48.67656" lon="2.04789">
        <ele>160</ele>
        <time>2010-05-13T09:04:00Z</time>
      </trkpt>
      <trkpt lat="48.67657" lon="2.0479">
        <ele>160</ele>
        <time>2010-05-13T09:04:04Z</time>
      </trkpt>
      <trkpt lat="48.67658" lon="2.04791">
        <ele>160</ele>
        <time>2010-05-13T09:04:09Z</time>
      </trkpt>
      <trkpt lat="48.67657" lon="2.0479">
        <ele>160</ele>
        <time>2010-05-13T09:04:13Z</time>
      </trkpt>
      <trkpt lat="48.67658" lon="2.0479">
        <ele>160</ele>
        <time>2010-05-13T09:04:15Z</time>
      </trkpt>
      <trkpt lat="48.67658" lon="2.04788">
        <ele>160</ele>
        <time>2010-05-13T09:04:21Z</time>
      </trkpt>
      <trkpt lat="48.67656" lon="2.04786">
        <ele>160</ele>
        <time>2010-05-13T09:04:23Z</time>
      </trkpt>
      <trkpt lat="48.67658" lon="2.04788">
        <ele>160</ele>
        <time>2010-05-13T09:04:27Z</time>
      </trkpt>
      <trkpt lat="48.67659" lon="2.04788">
        <ele>160</ele>
        <time>2010-05-13T09:04:29Z</time>
      </trkpt>
      <trkpt lat="48.67662" lon="2.04789">
        <ele>160</ele>
        <time>2010-05-13T09:04:31Z</time>
      </trkpt>
      <trkpt lat="48.67663" lon="2.0479">
        <ele>159</ele>
        <time>2010-05-13T09:04:42Z</time>
      </trkpt>
      <trkpt lat="48.67665" lon="2.04792">
        <ele>159</ele>
        <time>2010-05-13T09:04:51Z</time>
      </trkpt>
      <trkpt lat="48.67667" lon="2.04793">
        <ele>159</ele>
        <time>2010-05-13T09:04:54Z</time>
      </trkpt>
      <trkpt lat="48.67669" lon="2.04794">
        <ele>159</ele>
        <time>2010-05-13T09:04:56Z</time>
      </trkpt>
      <trkpt lat="48.6767" lon="2.04795">
        <ele>159</ele>
        <time>2010-05-13T09:04:58Z</time>
      </trkpt>
      <trkpt lat="48.67669" lon="2.04797">
        <ele>158</ele>
        <time>2010-05-13T09:05:06Z</time>
      </trkpt>
      <trkpt lat="48.67668" lon="2.04796">
        <ele>158</ele>
        <time>2010-05-13T09:05:10Z</time>
      </trkpt>
      <trkpt lat="48.67669" lon="2.04795">
        <ele>157</ele>
        <time>2010-05-13T09:05:16Z</time>
      </trkpt>
      <trkpt lat="48.67667" lon="2.04793">
        <ele>155</ele>
        <time>2010-05-13T09:05:21Z</time>
      </trkpt>
      <trkpt lat="48.67665" lon="2.04792">
        <ele>155</ele>
        <time>2010-05-13T09:05:23Z</time>
      </trkpt>
      <trkpt lat="48.67663" lon="2.04792">
        <ele>154</ele>
        <time>2010-05-13T09:05:25Z</time>
      </trkpt>
      <trkpt lat="48.67661" lon="2.04792">
        <ele>154</ele>
        <time>2010-05-13T09:05:26Z</time>
      </trkpt>
      <trkpt lat="48.6766" lon="2.04793">
        <ele>154</ele>
        <time>2010-05-13T09:05:27Z</time>
      </trkpt>
      <trkpt lat="48.67658" lon="2.04792">
        <ele>154</ele>
        <time>2010-05-13T09:05:29Z</time>
      </trkpt>
      <trkpt lat="48.67657" lon="2.04791">
        <ele>154</ele>
        <time>2010-05-13T09:05:32Z</time>
      </trkpt>
      <trkpt lat="48.67656" lon="2.04789">
        <ele>154</ele>
        <time>2010-05-13T09:05:38Z</time>
      </trkpt>
      <trkpt lat="48.67655" lon="2.04787">
        <ele>155</ele>
        <time>2010-05-13T09:05:43Z</time>
      </trkpt>
      <trkpt lat="48.67654" lon="2.04788">
        <ele>157</ele>
        <time>2010-05-13T09:05:46Z</time>
      </trkpt>
      <trkpt lat="48.67653" lon="2.0479">
        <ele>160</ele>
        <time>2010-05-13T09:05:52Z</time>
      </trkpt>
      <trkpt lat="48.67654" lon="2.04791">
        <ele>160</ele>
        <time>2010-05-13T09:06:03Z</time>
      </trkpt>
      <trkpt lat="48.67655" lon="2.04789">
        <ele>160</ele>
        <time>2010-05-13T09:06:06Z</time>
      </trkpt>
      <trkpt lat="48.67655" lon="2.04787">
        <ele>158</ele>
        <time>2010-05-13T09:06:12Z</time>
      </trkpt>
      <trkpt lat="48.67654" lon="2.04788">
        <ele>162</ele>
        <time>2010-05-13T09:06:28Z</time>
      </trkpt>
      <trkpt lat="48.67654" lon="2.0479">
        <ele>165</ele>
        <time>2010-05-13T09:06:31Z</time>
      </trkpt>
      <trkpt lat="48.67654" lon="2.04791">
        <ele>167</ele>
        <time>2010-05-13T09:06:38Z</time>
      </trkpt>
      <trkpt lat="48.67655" lon="2.04793">
        <ele>167</ele>
        <time>2010-05-13T09:06:46Z</time>
      </trkpt>
      <trkpt lat="48.67656" lon="2.04794">
        <ele>166</ele>
        <time>2010-05-13T09:06:48Z</time>
      </trkpt>
      <trkpt lat="48.67657" lon="2.04794">
        <ele>158</ele>
        <time>2010-05-13T09:07:06Z</time>
      </trkpt>
      <trkpt lat="48.67658" lon="2.04795">
        <ele>158</ele>
        <time>2010-05-13T09:07:10Z</time>
      </trkpt>
      <trkpt lat="48.67657" lon="2.04795">
        <ele>158</ele>
        <time>2010-05-13T09:07:13Z</time>
      </trkpt>
      <trkpt lat="48.67657" lon="2.04797">
        <ele>158</ele>
        <time>2010-05-13T09:07:19Z</time>
      </trkpt>
      <trkpt lat="48.67658" lon="2.04798">
        <ele>158</ele>
        <time>2010-05-13T09:07:26Z</time>
      </trkpt>
      <trkpt lat="48.67659" lon="2.048">
        <ele>158</ele>
        <time>2010-05-13T09:07:32Z</time>
      </trkpt>
      <trkpt lat="48.67661" lon="2.04798">
        <ele>158</ele>
        <time>2010-05-13T09:07:39Z</time>
      </trkpt>
      <trkpt lat="48.67662" lon="2.04797">
        <ele>158</ele>
        <time>2010-05-13T09:07:40Z</time>
      </trkpt>
      <trkpt lat="48.67663" lon="2.04796">
        <ele>158</ele>
        <time>2010-05-13T09:07:43Z</time>
      </trkpt>
      <trkpt lat="48.67662" lon="2.04796">
        <ele>158</ele>
        <time>2010-05-13T09:07:51Z</time>
      </trkpt>
      <trkpt lat="48.6766" lon="2.04796">
        <ele>158</ele>
        <time>2010-05-13T09:07:58Z</time>
      </trkpt>
      <trkpt lat="48.67659" lon="2.04797">
        <ele>158</ele>
        <time>2010-05-13T09:08:01Z</time>
      </trkpt>
      <trkpt lat="48.67657" lon="2.04797">
        <ele>158</ele>
        <time>2010-05-13T09:08:08Z</time>
      </trkpt>
      <trkpt lat="48.67659" lon="2.04796">
        <ele>158</ele>
        <time>2010-05-13T09:08:30Z</time>
      </trkpt>
      <trkpt lat="48.67657" lon="2.04797">
        <ele>158</ele>
        <time>2010-05-13T09:08:43Z</time>
      </trkpt>
      <trkpt lat="48.67659" lon="2.04797">
        <ele>162</ele>
        <time>2010-05-13T09:09:01Z</time>
      </trkpt>
      <trkpt lat="48.6766" lon="2.04796">
        <ele>164</ele>
        <time>2010-05-13T09:09:07Z</time>
      </trkpt>
      <trkpt lat="48.67662" lon="2.04796">
        <ele>165</ele>
        <time>2010-05-13T09:09:10Z</time>
      </trkpt>
      <trkpt lat="48.67664" lon="2.04798">
        <ele>165</ele>
        <time>2010-05-13T09:09:12Z</time>
      </trkpt>
      <trkpt lat="48.67663" lon="2.04796">
        <ele>165</ele>
        <time>2010-05-13T09:09:16Z</time>
      </trkpt>
      <trkpt lat="48.67664" lon="2.04796">
        <ele>165</ele>
        <time>2010-05-13T09:09:18Z</time>
      </trkpt>
      <trkpt lat="48.67663" lon="2.04795">
        <ele>165</ele>
        <time>2010-05-13T09:09:21Z</time>
      </trkpt>
      <trkpt lat="48.67663" lon="2.04793">
        <ele>165</ele>
        <time>2010-05-13T09:09:24Z</time>
      </trkpt>
      <trkpt lat="48.67661" lon="2.04793">
        <ele>165</ele>
        <time>2010-05-13T09:09:27Z</time>
      </trkpt>
      <trkpt lat="48.6766" lon="2.04793">
        <ele>165</ele>
        <time>2010-05-13T09:09:29Z</time>
      </trkpt>
      <trkpt lat="48.67658" lon="2.04792">
        <ele>165</ele>
        <time>2010-05-13T09:09:31Z</time>
      </trkpt>
      <trkpt lat="48.67657" lon="2.04793">
        <ele>165</ele>
        <time>2010-05-13T09:09:38Z</time>
      </trkpt>
      <trkpt lat="48.67659" lon="2.04792">
        <ele>163</ele>
        <time>2010-05-13T09:09:57Z</time>
      </trkpt>
      <trkpt lat="48.67658" lon="2.0479">
        <ele>162</ele>
        <time>2010-05-13T09:10:00Z</time>
      </trkpt>
      <trkpt lat="48.67658" lon="2.04792">
        <ele>162</ele>
        <time>2010-05-13T09:10:08Z</time>
      </trkpt>
      <trkpt lat="48.67656" lon="2.04793">
        <ele>164</ele>
        <time>2010-05-13T09:10:14Z</time>
      </trkpt>
      <trkpt lat="48.67658" lon="2.04794">
        <ele>165</ele>
        <time>2010-05-13T09:10:19Z</time>
      </trkpt>
      <trkpt lat="48.6766" lon="2.04793">
        <ele>167</ele>
        <time>2010-05-13T09:10:26Z</time>
      </trkpt>
      <trkpt lat="48.67662" lon="2.04791">
        <ele>167</ele>
        <time>2010-05-13T09:10:28Z</time>
      </trkpt>
      <trkpt lat="48.67664" lon="2.04792">
        <ele>167</ele>
        <time>2010-05-13T09:10:29Z</time>
      </trkpt>
      <trkpt lat="48.67666" lon="2.04792">
        <ele>167</ele>
        <time>2010-05-13T09:10:30Z</time>
      </trkpt>
      <trkpt lat="48.67667" lon="2.0479">
        <ele>165</ele>
        <time>2010-05-13T09:10:32Z</time>
      </trkpt>
      <trkpt lat="48.67665" lon="2.04789">
        <ele>163</ele>
        <time>2010-05-13T09:10:34Z</time>
      </trkpt>
      <trkpt lat="48.67663" lon="2.04786">
        <ele>161</ele>
        <time>2010-05-13T09:10:36Z</time>
      </trkpt>
      <trkpt lat="48.67661" lon="2.04785">
        <ele>161</ele>
        <time>2010-05-13T09:10:37Z</time>
      </trkpt>
      <trkpt lat="48.6766" lon="2.04786">
        <ele>161</ele>
        <time>2010-05-13T09:10:38Z</time>
      </trkpt>
      <trkpt lat="48.6766" lon="2.04787">
        <ele>161</ele>
        <time>2010-05-13T09:10:40Z</time>
      </trkpt>
      <trkpt lat="48.67661" lon="2.0479">
        <ele>161</ele>
        <time>2010-05-13T09:10:41Z</time>
      </trkpt>
      <trkpt lat="48.67661" lon="2.04792">
        <ele>161</ele>
        <time>2010-05-13T09:10:42Z</time>
      </trkpt>
      <trkpt lat="48.67659" lon="2.04792">
        <ele>161</ele>
        <time>2010-05-13T09:10:43Z</time>
      </trkpt>
      <trkpt lat="48.67658" lon="2.04792">
        <ele>161</ele>
        <time>2010-05-13T09:10:44Z</time>
      </trkpt>
      <trkpt lat="48.67656" lon="2.04792">
        <ele>161</ele>
        <time>2010-05-13T09:10:45Z</time>
      </trkpt>
      <trkpt lat="48.67655" lon="2.04792">
        <ele>162</ele>
        <time>2010-05-13T09:10:47Z</time>
      </trkpt>
      <trkpt lat="48.67653" lon="2.04791">
        <ele>163</ele>
        <time>2010-05-13T09:10:49Z</time>
      </trkpt>
      <trkpt lat="48.67653" lon="2.04789">
        <ele>163</ele>
        <time>2010-05-13T09:10:50Z</time>
      </trkpt>
      <trkpt lat="48.67653" lon="2.04787">
        <ele>163</ele>
        <time>2010-05-13T09:10:51Z</time>
      </trkpt>
      <trkpt lat="48.67653" lon="2.04785">
        <ele>163</ele>
        <time>2010-05-13T09:10:52Z</time>
      </trkpt>
      <trkpt lat="48.67653" lon="2.04784">
        <ele>163</ele>
        <time>2010-05-13T09:10:53Z</time>
      </trkpt>
      <trkpt lat="48.67653" lon="2.04781">
        <ele>165</ele>
        <time>2010-05-13T09:10:55Z</time>
      </trkpt>
      <trkpt lat="48.67653" lon="2.04778">
        <ele>165</ele>
        <time>2010-05-13T09:10:57Z</time>
      </trkpt>
      <trkpt lat="48.67653" lon="2.04776">
        <ele>166</ele>
        <time>2010-05-13T09:10:58Z</time>
      </trkpt>
      <trkpt lat="48.67653" lon="2.04772">
        <ele>166</ele>
        <time>2010-05-13T09:11:00Z</time>
      </trkpt>
      <trkpt lat="48.67652" lon="2.0477">
        <ele>166</ele>
        <time>2010-05-13T09:11:01Z</time>
      </trkpt>
      <trkpt lat="48.67651" lon="2.04767">
        <ele>166</ele>
        <time>2010-05-13T09:11:02Z</time>
      </trkpt>
      <trkpt lat="48.6765" lon="2.04764">
        <ele>166</ele>
        <time>2010-05-13T09:11:03Z</time>
      </trkpt>
      <trkpt lat="48.6765" lon="2.04761">
        <ele>166</ele>
        <time>2010-05-13T09:11:04Z</time>
      </trkpt>
      <trkpt lat="48.67648" lon="2.04758">
        <ele>166</ele>
        <time>2010-05-13T09:11:05Z</time>
      </trkpt>
      <trkpt lat="48.67647" lon="2.04753">
        <ele>166</ele>
        <time>2010-05-13T09:11:06Z</time>
      </trkpt>
      <trkpt lat="48.67646" lon="2.04749">
        <ele>166</ele>
        <time>2010-05-13T09:11:07Z</time>
      </trkpt>
      <trkpt lat="48.67644" lon="2.04744">
        <ele>166</ele>
        <time>2010-05-13T09:11:08Z</time>
      </trkpt>
      <trkpt lat="48.67642" lon="2.04738">
        <ele>166</ele>
        <time>2010-05-13T09:11:09Z</time>
      </trkpt>
      <trkpt lat="48.6764" lon="2.04732">
        <ele>166</ele>
        <time>2010-05-13T09:11:10Z</time>
      </trkpt>
      <trkpt lat="48.6764" lon="2.04727">
        <ele>166</ele>
        <time>2010-05-13T09:11:11Z</time>
      </trkpt>
      <trkpt lat="48.6764" lon="2.04722">
        <ele>166</ele>
        <time>2010-05-13T09:11:12Z</time>
      </trkpt>
      <trkpt lat="48.67639" lon="2.04717">
        <ele>166</ele>
        <time>2010-05-13T09:11:13Z</time>
      </trkpt>
      <trkpt lat="48.67639" lon="2.04711">
        <ele>166</ele>
        <time>2010-05-13T09:11:14Z</time>
      </trkpt>
      <trkpt lat="48.67639" lon="2.04706">
        <ele>166</ele>
        <time>2010-05-13T09:11:15Z</time>
      </trkpt>
      <trkpt lat="48.67639" lon="2.04701">
        <ele>166</ele>
        <time>2010-05-13T09:11:16Z</time>
      </trkpt>
      <trkpt lat="48.67638" lon="2.04696">
        <ele>166</ele>
        <time>2010-05-13T09:11:17Z</time>
      </trkpt>
      <trkpt lat="48.67638" lon="2.04691">
        <ele>166</ele>
        <time>2010-05-13T09:11:18Z</time>
      </trkpt>
      <trkpt lat="48.67637" lon="2.04686">
        <ele>166</ele>
        <time>2010-05-13T09:11:19Z</time>
      </trkpt>
      <trkpt lat="48.67636" lon="2.04681">
        <ele>166</ele>
        <time>2010-05-13T09:11:20Z</time>
      </trkpt>
      <trkpt lat="48.67635" lon="2.04677">
        <ele>166</ele>
        <time>2010-05-13T09:11:21Z</time>
      </trkpt>
      <trkpt lat="48.67635" lon="2.04673">
        <ele>166</ele>
        <time>2010-05-13T09:11:22Z</time>
      </trkpt>
      <trkpt lat="48.67634" lon="2.0467">
        <ele>166</ele>
        <time>2010-05-13T09:11:23Z</time>
      </trkpt>
      <trkpt lat="48.67633" lon="2.04667">
        <ele>166</ele>
        <time>2010-05-13T09:11:24Z</time>
      </trkpt>
      <trkpt lat="48.67633" lon="2.04665">
        <ele>166</ele>
        <time>2010-05-13T09:11:25Z</time>
      </trkpt>
      <trkpt lat="48.67633" lon="2.04663">
        <ele>166</ele>
        <time>2010-05-13T09:11:26Z</time>
      </trkpt>
      <trkpt lat="48.67632" lon="2.0466">
        <ele>166</ele>
        <time>2010-05-13T09:11:27Z</time>
      </trkpt>
      <trkpt lat="48.67631" lon="2.04659">
        <ele>166</ele>
        <time>2010-05-13T09:11:28Z</time>
      </trkpt>
      <trkpt lat="48.6763" lon="2.04657">
        <ele>166</ele>
        <time>2010-05-13T09:11:29Z</time>
      </trkpt>
      <trkpt lat="48.67629" lon="2.04655">
        <ele>166</ele>
        <time>2010-05-13T09:11:30Z</time>
      </trkpt>
      <trkpt lat="48.67628" lon="2.04653">
        <ele>166</ele>
        <time>2010-05-13T09:11:31Z</time>
      </trkpt>
      <trkpt lat="48.67627" lon="2.04651">
        <ele>166</ele>
        <time>2010-05-13T09:11:32Z</time>
      </trkpt>
      <trkpt lat="48.67626" lon="2.04649">
        <ele>166</ele>
        <time>2010-05-13T09:11:34Z</time>
      </trkpt>
      <trkpt lat="48.67624" lon="2.04648">
        <ele>166</ele>
        <time>2010-05-13T09:11:35Z</time>
      </trkpt>
      <trkpt lat="48.67623" lon="2.04647">
        <ele>166</ele>
        <time>2010-05-13T09:11:36Z</time>
      </trkpt>
      <trkpt lat="48.67621" lon="2.04645">
        <ele>166</ele>
        <time>2010-05-13T09:11:37Z</time>
      </trkpt>
      <trkpt lat="48.67619" lon="2.04643">
        <ele>165</ele>
        <time>2010-05-13T09:11:38Z</time>
      </trkpt>
      <trkpt lat="48.67617" lon="2.04642">
        <ele>165</ele>
        <time>2010-05-13T09:11:39Z</time>
      </trkpt>
      <trkpt lat="48.67615" lon="2.0464">
        <ele>165</ele>
        <time>2010-05-13T09:11:40Z</time>
      </trkpt>
      <trkpt lat="48.67613" lon="2.04639">
        <ele>165</ele>
        <time>2010-05-13T09:11:41Z</time>
      </trkpt>
      <trkpt lat="48.67612" lon="2.04638">
        <ele>165</ele>
        <time>2010-05-13T09:11:42Z</time>
      </trkpt>
      <trkpt lat="48.6761" lon="2.04637">
        <ele>165</ele>
        <time>2010-05-13T09:11:43Z</time>
      </trkpt>
      <trkpt lat="48.67608" lon="2.04635">
        <ele>165</ele>
        <time>2010-05-13T09:11:44Z</time>
      </trkpt>
      <trkpt lat="48.67607" lon="2.04634">
        <ele>165</ele>
        <time>2010-05-13T09:11:45Z</time>
      </trkpt>
      <trkpt lat="48.67605" lon="2.04633">
        <ele>165</ele>
        <time>2010-05-13T09:11:46Z</time>
      </trkpt>
      <trkpt lat="48.67603" lon="2.04632">
        <ele>165</ele>
        <time>2010-05-13T09:11:47Z</time>
      </trkpt>
      <trkpt lat="48.67602" lon="2.04631">
        <ele>165</ele>
        <time>2010-05-13T09:11:48Z</time>
      </trkpt>
      <trkpt lat="48.676" lon="2.04631">
        <ele>165</ele>
        <time>2010-05-13T09:11:49Z</time>
      </trkpt>
      <trkpt lat="48.67599" lon="2.0463">
        <ele>165</ele>
        <time>2010-05-13T09:11:50Z</time>
      </trkpt>
      <trkpt lat="48.67597" lon="2.0463">
        <ele>165</ele>
        <time>2010-05-13T09:11:51Z</time>
      </trkpt>
      <trkpt lat="48.67595" lon="2.0463">
        <ele>165</ele>
        <time>2010-05-13T09:11:53Z</time>
      </trkpt>
      <trkpt lat="48.67594" lon="2.04629">
        <ele>165</ele>
        <time>2010-05-13T09:11:54Z</time>
      </trkpt>
      <trkpt lat="48.67592" lon="2.04628">
        <ele>165</ele>
        <time>2010-05-13T09:11:55Z</time>
      </trkpt>
      <trkpt lat="48.6759" lon="2.04627">
        <ele>165</ele>
        <time>2010-05-13T09:11:56Z</time>
      </trkpt>
      <trkpt lat="48.67588" lon="2.04627">
        <ele>165</ele>
        <time>2010-05-13T09:11:57Z</time>
      </trkpt>
      <trkpt lat="48.67586" lon="2.04626">
        <ele>165</ele>
        <time>2010-05-13T09:11:58Z</time>
      </trkpt>
      <trkpt lat="48.67584" lon="2.04626">
        <ele>165</ele>
        <time>2010-05-13T09:11:59Z</time>
      </trkpt>
      <trkpt lat="48.67583" lon="2.04625">
        <ele>165</ele>
        <time>2010-05-13T09:12:00Z</time>
      </trkpt>
      <trkpt lat="48.67581" lon="2.04625">
        <ele>165</ele>
        <time>2010-05-13T09:12:01Z</time>
      </trkpt>
      <trkpt lat="48.67579" lon="2.04624">
        <ele>165</ele>
        <time>2010-05-13T09:12:02Z</time>
      </trkpt>
      <trkpt lat="48.67577" lon="2.04624">
        <ele>165</ele>
        <time>2010-05-13T09:12:03Z</time>
      </trkpt>
      <trkpt lat="48.67575" lon="2.04623">
        <ele>165</ele>
        <time>2010-05-13T09:12:04Z</time>
      </trkpt>
      <trkpt lat="48.67574" lon="2.04623">
        <ele>165</ele>
        <time>2010-05-13T09:12:05Z</time>
      </trkpt>
      <trkpt lat="48.67572" lon="2.04622">
        <ele>165</ele>
        <time>2010-05-13T09:12:06Z</time>
      </trkpt>
      <trkpt lat="48.6757" lon="2.04621">
        <ele>165</ele>
        <time>2010-05-13T09:12:07Z</time>
      </trkpt>
      <trkpt lat="48.67569" lon="2.04621">
        <ele>165</ele>
        <time>2010-05-13T09:12:08Z</time>
      </trkpt>
      <trkpt lat="48.67567" lon="2.0462">
        <ele>165</ele>
        <time>2010-05-13T09:12:09Z</time>
      </trkpt>
      <trkpt lat="48.67566" lon="2.04621">
        <ele>165</ele>
        <time>2010-05-13T09:12:10Z</time>
      </trkpt>
      <trkpt lat="48.67565" lon="2.04621">
        <ele>165</ele>
        <time>2010-05-13T09:12:11Z</time>
      </trkpt>
      <trkpt lat="48.67562" lon="2.04619">
        <ele>165</ele>
        <time>2010-05-13T09:12:13Z</time>
      </trkpt>
      <trkpt lat="48.67561" lon="2.04618">
        <ele>165</ele>
        <time>2010-05-13T09:12:14Z</time>
      </trkpt>
      <trkpt lat="48.67559" lon="2.04618">
        <ele>165</ele>
        <time>2010-05-13T09:12:15Z</time>
      </trkpt>
      <trkpt lat="48.67557" lon="2.04617">
        <ele>165</ele>
        <time>2010-05-13T09:12:16Z</time>
      </trkpt>
      <trkpt lat="48.67555" lon="2.04617">
        <ele>165</ele>
        <time>2010-05-13T09:12:17Z</time>
      </trkpt>
      <trkpt lat="48.67553" lon="2.04616">
        <ele>165</ele>
        <time>2010-05-13T09:12:18Z</time>
      </trkpt>
      <trkpt lat="48.67551" lon="2.04615">
        <ele>165</ele>
        <time>2010-05-13T09:12:19Z</time>
      </trkpt>
      <trkpt lat="48.6755" lon="2.04615">
        <ele>165</ele>
        <time>2010-05-13T09:12:20Z</time>
      </trkpt>
      <trkpt lat="48.67548" lon="2.04614">
        <ele>165</ele>
        <time>2010-05-13T09:12:21Z</time>
      </trkpt>
      <trkpt lat="48.67546" lon="2.04613">
        <ele>165</ele>
        <time>2010-05-13T09:12:22Z</time>
      </trkpt>
      <trkpt lat="48.67544" lon="2.04612">
        <ele>165</ele>
        <time>2010-05-13T09:12:23Z</time>
      </trkpt>
      <trkpt lat="48.67542" lon="2.04611">
        <ele>165</ele>
        <time>2010-05-13T09:12:24Z</time>
      </trkpt>
      <trkpt lat="48.67541" lon="2.04611">
        <ele>165</ele>
        <time>2010-05-13T09:12:25Z</time>
      </trkpt>
      <trkpt lat="48.67539" lon="2.0461">
        <ele>165</ele>
        <time>2010-05-13T09:12:26Z</time>
      </trkpt>
      <trkpt lat="48.67537" lon="2.04609">
        <ele>166</ele>
        <time>2010-05-13T09:12:27Z</time>
      </trkpt>
      <trkpt lat="48.67535" lon="2.04609">
        <ele>166</ele>
        <time>2010-05-13T09:12:28Z</time>
      </trkpt>
      <trkpt lat="48.67533" lon="2.04609">
        <ele>167</ele>
        <time>2010-05-13T09:12:29Z</time>
      </trkpt>
      <trkpt lat="48.67532" lon="2.04608">
        <ele>167</ele>
        <time>2010-05-13T09:12:30Z</time>
      </trkpt>
      <trkpt lat="48.6753" lon="2.04608">
        <ele>168</ele>
        <time>2010-05-13T09:12:31Z</time>
      </trkpt>
      <trkpt lat="48.67529" lon="2.04607">
        <ele>169</ele>
        <time>2010-05-13T09:12:32Z</time>
      </trkpt>
      <trkpt lat="48.67526" lon="2.04607">
        <ele>169</ele>
        <time>2010-05-13T09:12:33Z</time>
      </trkpt>
      <trkpt lat="48.67524" lon="2.04606">
        <ele>170</ele>
        <time>2010-05-13T09:12:34Z</time>
      </trkpt>
      <trkpt lat="48.67522" lon="2.04606">
        <ele>170</ele>
        <time>2010-05-13T09:12:35Z</time>
      </trkpt>
      <trkpt lat="48.6752" lon="2.04605">
        <ele>170</ele>
        <time>2010-05-13T09:12:36Z</time>
      </trkpt>
      <trkpt lat="48.67518" lon="2.04605">
        <ele>170</ele>
        <time>2010-05-13T09:12:37Z</time>
      </trkpt>
      <trkpt lat="48.67516" lon="2.04605">
        <ele>170</ele>
        <time>2010-05-13T09:12:38Z</time>
      </trkpt>
      <trkpt lat="48.67514" lon="2.04604">
        <ele>170</ele>
        <time>2010-05-13T09:12:39Z</time>
      </trkpt>
      <trkpt lat="48.67512" lon="2.04604">
        <ele>170</ele>
        <time>2010-05-13T09:12:40Z</time>
      </trkpt>
      <trkpt lat="48.6751" lon="2.04604">
        <ele>170</ele>
        <time>2010-05-13T09:12:41Z</time>
      </trkpt>
      <trkpt lat="48.67508" lon="2.04604">
        <ele>170</ele>
        <time>2010-05-13T09:12:42Z</time>
      </trkpt>
      <trkpt lat="48.67506" lon="2.04603">
        <ele>170</ele>
        <time>2010-05-13T09:12:43Z</time>
      </trkpt>
      <trkpt lat="48.67505" lon="2.04603">
        <ele>170</ele>
        <time>2010-05-13T09:12:44Z</time>
      </trkpt>
      <trkpt lat="48.67503" lon="2.04603">
        <ele>170</ele>
        <time>2010-05-13T09:12:45Z</time>
      </trkpt>
      <trkpt lat="48.67502" lon="2.04602">
        <ele>170</ele>
        <time>2010-05-13T09:12:46Z</time>
      </trkpt>
      <trkpt lat="48.675" lon="2.04602">
        <ele>170</ele>
        <time>2010-05-13T09:12:47Z</time>
      </trkpt>
      <trkpt lat="48.67499" lon="2.04602">
        <ele>170</ele>
        <time>2010-05-13T09:12:48Z</time>
      </trkpt>
      <trkpt lat="48.67497" lon="2.04601">
        <ele>169</ele>
        <time>2010-05-13T09:12:49Z</time>
      </trkpt>
      <trkpt lat="48.67496" lon="2.04601">
        <ele>168</ele>
        <time>2010-05-13T09:12:50Z</time>
      </trkpt>
      <trkpt lat="48.67494" lon="2.04601">
        <ele>168</ele>
        <time>2010-05-13T09:12:51Z</time>
      </trkpt>
      <trkpt lat="48.67492" lon="2.046">
        <ele>167</ele>
        <time>2010-05-13T09:12:52Z</time>
      </trkpt>
      <trkpt lat="48.6749" lon="2.04599">
        <ele>167</ele>
        <time>2010-05-13T09:12:53Z</time>
      </trkpt>
      <trkpt lat="48.67488" lon="2.04598">
        <ele>167</ele>
        <time>2010-05-13T09:12:54Z</time>
      </trkpt>
      <trkpt lat="48.67486" lon="2.04597">
        <ele>167</ele>
        <time>2010-05-13T09:12:55Z</time>
      </trkpt>
      <trkpt lat="48.67485" lon="2.04597">
        <ele>167</ele>
        <time>2010-05-13T09:12:56Z</time>
      </trkpt>
      <trkpt lat="48.67483" lon="2.04596">
        <ele>167</ele>
        <time>2010-05-13T09:12:57Z</time>
      </trkpt>
      <trkpt lat="48.67481" lon="2.04595">
        <ele>167</ele>
        <time>2010-05-13T09:12:58Z</time>
      </trkpt>
      <trkpt lat="48.67479" lon="2.04594">
        <ele>167</ele>
        <time>2010-05-13T09:12:59Z</time>
      </trkpt>
      <trkpt lat="48.67478" lon="2.04594">
        <ele>167</ele>
        <time>2010-05-13T09:13:00Z</time>
      </trkpt>
      <trkpt lat="48.67476" lon="2.04593">
        <ele>166</ele>
        <time>2010-05-13T09:13:01Z</time>
      </trkpt>
      <trkpt lat="48.67474" lon="2.04593">
        <ele>166</ele>
        <time>2010-05-13T09:13:02Z</time>
      </trkpt>
      <trkpt lat="48.67473" lon="2.04593">
        <ele>166</ele>
        <time>2010-05-13T09:13:03Z</time>
      </trkpt>
      <trkpt lat="48.67472" lon="2.04593">
        <ele>165</ele>
        <time>2010-05-13T09:13:04Z</time>
      </trkpt>
      <trkpt lat="48.67471" lon="2.04594">
        <ele>164</ele>
        <time>2010-05-13T09:13:05Z</time>
      </trkpt>
      <trkpt lat="48.67469" lon="2.04593">
        <ele>163</ele>
        <time>2010-05-13T09:13:06Z</time>
      </trkpt>
      <trkpt lat="48.67467" lon="2.04592">
        <ele>162</ele>
        <time>2010-05-13T09:13:07Z</time>
      </trkpt>
      <trkpt lat="48.67465" lon="2.0459">
        <ele>162</ele>
        <time>2010-05-13T09:13:08Z</time>
      </trkpt>
      <trkpt lat="48.67463" lon="2.04589">
        <ele>161</ele>
        <time>2010-05-13T09:13:09Z</time>
      </trkpt>
      <trkpt lat="48.6746" lon="2.04588">
        <ele>161</ele>
        <time>2010-05-13T09:13:10Z</time>
      </trkpt>
      <trkpt lat="48.67459" lon="2.04587">
        <ele>161</ele>
        <time>2010-05-13T09:13:11Z</time>
      </trkpt>
      <trkpt lat="48.67457" lon="2.04586">
        <ele>161</ele>
        <time>2010-05-13T09:13:12Z</time>
      </trkpt>
      <trkpt lat="48.67455" lon="2.04585">
        <ele>161</ele>
        <time>2010-05-13T09:13:13Z</time>
      </trkpt>
      <trkpt lat="48.67454" lon="2.04585">
        <ele>161</ele>
        <time>2010-05-13T09:13:14Z</time>
      </trkpt>
      <trkpt lat="48.67452" lon="2.04585">
        <ele>161</ele>
        <time>2010-05-13T09:13:15Z</time>
      </trkpt>
      <trkpt lat="48.6745" lon="2.04585">
        <ele>161</ele>
        <time>2010-05-13T09:13:16Z</time>
      </trkpt>
      <trkpt lat="48.67449" lon="2.04585">
        <ele>161</ele>
        <time>2010-05-13T09:13:17Z</time>
      </trkpt>
      <trkpt lat="48.67447" lon="2.04584">
        <ele>161</ele>
        <time>2010-05-13T09:13:18Z</time>
      </trkpt>
      <trkpt lat="48.67445" lon="2.04583">
        <ele>161</ele>
        <time>2010-05-13T09:13:19Z</time>
      </trkpt>
      <trkpt lat="48.67443" lon="2.04582">
        <ele>161</ele>
        <time>2010-05-13T09:13:20Z</time>
      </trkpt>
      <trkpt lat="48.67442" lon="2.04582">
        <ele>161</ele>
        <time>2010-05-13T09:13:21Z</time>
      </trkpt>
      <trkpt lat="48.6744" lon="2.04581">
        <ele>161</ele>
        <time>2010-05-13T09:13:22Z</time>
      </trkpt>
      <trkpt lat="48.67438" lon="2.0458">
        <ele>161</ele>
        <time>2010-05-13T09:13:23Z</time>
      </trkpt>
      <trkpt lat="48.67436" lon="2.0458">
        <ele>161</ele>
        <time>2010-05-13T09:13:24Z</time>
      </trkpt>
      <trkpt lat="48.67434" lon="2.04578">
        <ele>161</ele>
        <time>2010-05-13T09:13:25Z</time>
      </trkpt>
      <trkpt lat="48.67433" lon="2.04578">
        <ele>162</ele>
        <time>2010-05-13T09:13:26Z</time>
      </trkpt>
      <trkpt lat="48.67431" lon="2.04577">
        <ele>163</ele>
        <time>2010-05-13T09:13:27Z</time>
      </trkpt>
      <trkpt lat="48.67429" lon="2.04576">
        <ele>163</ele>
        <time>2010-05-13T09:13:28Z</time>
      </trkpt>
      <trkpt lat="48.67427" lon="2.04575">
        <ele>164</ele>
        <time>2010-05-13T09:13:29Z</time>
      </trkpt>
      <trkpt lat="48.67425" lon="2.04573">
        <ele>165</ele>
        <time>2010-05-13T09:13:30Z</time>
      </trkpt>
      <trkpt lat="48.67423" lon="2.04573">
        <ele>165</ele>
        <time>2010-05-13T09:13:31Z</time>
      </trkpt>
      <trkpt lat="48.67421" lon="2.04572">
        <ele>166</ele>
        <time>2010-05-13T09:13:32Z</time>
      </trkpt>
      <trkpt lat="48.6742" lon="2.04571">
        <ele>166</ele>
        <time>2010-05-13T09:13:33Z</time>
      </trkpt>
      <trkpt lat="48.67418" lon="2.04571">
        <ele>167</ele>
        <time>2010-05-13T09:13:34Z</time>
      </trkpt>
      <trkpt lat="48.67416" lon="2.0457">
        <ele>167</ele>
        <time>2010-05-13T09:13:35Z</time>
      </trkpt>
      <trkpt lat="48.67415" lon="2.0457">
        <ele>167</ele>
        <time>2010-05-13T09:13:36Z</time>
      </trkpt>
      <trkpt lat="48.67413" lon="2.04569">
        <ele>167</ele>
        <time>2010-05-13T09:13:37Z</time>
      </trkpt>
      <trkpt lat="48.67411" lon="2.04568">
        <ele>167</ele>
        <time>2010-05-13T09:13:38Z</time>
      </trkpt>
      <trkpt lat="48.67409" lon="2.04567">
        <ele>167</ele>
        <time>2010-05-13T09:13:39Z</time>
      </trkpt>
      <trkpt lat="48.67407" lon="2.04567">
        <ele>167</ele>
        <time>2010-05-13T09:13:40Z</time>
      </trkpt>
      <trkpt lat="48.67405" lon="2.04566">
        <ele>167</ele>
        <time>2010-05-13T09:13:41Z</time>
      </trkpt>
      <trkpt lat="48.67403" lon="2.04565">
        <ele>167</ele>
        <time>2010-05-13T09:13:42Z</time>
      </trkpt>
      <trkpt lat="48.674" lon="2.04565">
        <ele>167</ele>
        <time>2010-05-13T09:13:43Z</time>
      </trkpt>
      <trkpt lat="48.67399" lon="2.04564">
        <ele>167</ele>
        <time>2010-05-13T09:13:44Z</time>
      </trkpt>
      <trkpt lat="48.67397" lon="2.04564">
        <ele>167</ele>
        <time>2010-05-13T09:13:45Z</time>
      </trkpt>
      <trkpt lat="48.67395" lon="2.04563">
        <ele>167</ele>
        <time>2010-05-13T09:13:46Z</time>
      </trkpt>
      <trkpt lat="48.67394" lon="2.04564">
        <ele>167</ele>
        <time>2010-05-13T09:13:47Z</time>
      </trkpt>
      <trkpt lat="48.67392" lon="2.04564">
        <ele>168</ele>
        <time>2010-05-13T09:13:48Z</time>
      </trkpt>
      <trkpt lat="48.6739" lon="2.04564">
        <ele>168</ele>
        <time>2010-05-13T09:13:49Z</time>
      </trkpt>
      <trkpt lat="48.67388" lon="2.04564">
        <ele>168</ele>
        <time>2010-05-13T09:13:50Z</time>
      </trkpt>
      <trkpt lat="48.67386" lon="2.04563">
        <ele>168</ele>
        <time>2010-05-13T09:13:51Z</time>
      </trkpt>
      <trkpt lat="48.67384" lon="2.04563">
        <ele>168</ele>
        <time>2010-05-13T09:13:52Z</time>
      </trkpt>
      <trkpt lat="48.67382" lon="2.04562">
        <ele>168</ele>
        <time>2010-05-13T09:13:53Z</time>
      </trkpt>
      <trkpt lat="48.6738" lon="2.04561">
        <ele>169</ele>
        <time>2010-05-13T09:13:54Z</time>
      </trkpt>
      <trkpt lat="48.67379" lon="2.0456">
        <ele>169</ele>
        <time>2010-05-13T09:13:55Z</time>
      </trkpt>
      <trkpt lat="48.67377" lon="2.04559">
        <ele>169</ele>
        <time>2010-05-13T09:13:56Z</time>
      </trkpt>
      <trkpt lat="48.67375" lon="2.04558">
        <ele>170</ele>
        <time>2010-05-13T09:13:57Z</time>
      </trkpt>
      <trkpt lat="48.67373" lon="2.04557">
        <ele>171</ele>
        <time>2010-05-13T09:13:58Z</time>
      </trkpt>
      <trkpt lat="48.67372" lon="2.04557">
        <ele>171</ele>
        <time>2010-05-13T09:13:59Z</time>
      </trkpt>
      <trkpt lat="48.6737" lon="2.04558">
        <ele>172</ele>
        <time>2010-05-13T09:14:00Z</time>
      </trkpt>
      <trkpt lat="48.67369" lon="2.04558">
        <ele>172</ele>
        <time>2010-05-13T09:14:01Z</time>
      </trkpt>
      <trkpt lat="48.67368" lon="2.04557">
        <ele>172</ele>
        <time>2010-05-13T09:14:02Z</time>
      </trkpt>
      <trkpt lat="48.67366" lon="2.04557">
        <ele>172</ele>
        <time>2010-05-13T09:14:03Z</time>
      </trkpt>
      <trkpt lat="48.67364" lon="2.04556">
        <ele>172</ele>
        <time>2010-05-13T09:14:04Z</time>
      </trkpt>
      <trkpt lat="48.67362" lon="2.04555">
        <ele>172</ele>
        <time>2010-05-13T09:14:06Z</time>
      </trkpt>
      <trkpt lat="48.6736" lon="2.04554">
        <ele>172</ele>
        <time>2010-05-13T09:14:07Z</time>
      </trkpt>
      <trkpt lat="48.67359" lon="2.04554">
        <ele>172</ele>
        <time>2010-05-13T09:14:08Z</time>
      </trkpt>
      <trkpt lat="48.67357" lon="2.04553">
        <ele>172</ele>
        <time>2010-05-13T09:14:09Z</time>
      </trkpt>
      <trkpt lat="48.67355" lon="2.04552">
        <ele>172</ele>
        <time>2010-05-13T09:14:10Z</time>
      </trkpt>
      <trkpt lat="48.67353" lon="2.04551">
        <ele>172</ele>
        <time>2010-05-13T09:14:11Z</time>
      </trkpt>
      <trkpt lat="48.67352" lon="2.04551">
        <ele>172</ele>
        <time>2010-05-13T09:14:12Z</time>
      </trkpt>
      <trkpt lat="48.6735" lon="2.0455">
        <ele>172</ele>
        <time>2010-05-13T09:14:13Z</time>
      </trkpt>
      <trkpt lat="48.67348" lon="2.0455">
        <ele>172</ele>
        <time>2010-05-13T09:14:14Z</time>
      </trkpt>
      <trkpt lat="48.67347" lon="2.04549">
        <ele>172</ele>
        <time>2010-05-13T09:14:15Z</time>
      </trkpt>
      <trkpt lat="48.67345" lon="2.04549">
        <ele>172</ele>
        <time>2010-05-13T09:14:16Z</time>
      </trkpt>
      <trkpt lat="48.67343" lon="2.04548">
        <ele>172</ele>
        <time>2010-05-13T09:14:17Z</time>
      </trkpt>
      <trkpt lat="48.6734" lon="2.04548">
        <ele>172</ele>
        <time>2010-05-13T09:14:18Z</time>
      </trkpt>
      <trkpt lat="48.67338" lon="2.04546">
        <ele>172</ele>
        <time>2010-05-13T09:14:20Z</time>
      </trkpt>
      <trkpt lat="48.67337" lon="2.04545">
        <ele>172</ele>
        <time>2010-05-13T09:14:21Z</time>
      </trkpt>
      <trkpt lat="48.67335" lon="2.04544">
        <ele>172</ele>
        <time>2010-05-13T09:14:22Z</time>
      </trkpt>
      <trkpt lat="48.67334" lon="2.04544">
        <ele>172</ele>
        <time>2010-05-13T09:14:23Z</time>
      </trkpt>
      <trkpt lat="48.67333" lon="2.04543">
        <ele>172</ele>
        <time>2010-05-13T09:14:24Z</time>
      </trkpt>
      <trkpt lat="48.67331" lon="2.04542">
        <ele>172</ele>
        <time>2010-05-13T09:14:25Z</time>
      </trkpt>
      <trkpt lat="48.6733" lon="2.04542">
        <ele>172</ele>
        <time>2010-05-13T09:14:26Z</time>
      </trkpt>
      <trkpt lat="48.67328" lon="2.04541">
        <ele>172</ele>
        <time>2010-05-13T09:14:27Z</time>
      </trkpt>
      <trkpt lat="48.67326" lon="2.0454">
        <ele>172</ele>
        <time>2010-05-13T09:14:28Z</time>
      </trkpt>
      <trkpt lat="48.67325" lon="2.0454">
        <ele>172</ele>
        <time>2010-05-13T09:14:29Z</time>
      </trkpt>
      <trkpt lat="48.67323" lon="2.04539">
        <ele>172</ele>
        <time>2010-05-13T09:14:30Z</time>
      </trkpt>
      <trkpt lat="48.67321" lon="2.04538">
        <ele>172</ele>
        <time>2010-05-13T09:14:31Z</time>
      </trkpt>
      <trkpt lat="48.67319" lon="2.04537">
        <ele>172</ele>
        <time>2010-05-13T09:14:32Z</time>
      </trkpt>
      <trkpt lat="48.67317" lon="2.04537">
        <ele>172</ele>
        <time>2010-05-13T09:14:33Z</time>
      </trkpt>
      <trkpt lat="48.67316" lon="2.04536">
        <ele>172</ele>
        <time>2010-05-13T09:14:34Z</time>
      </trkpt>
      <trkpt lat="48.67314" lon="2.04535">
        <ele>172</ele>
        <time>2010-05-13T09:14:35Z</time>
      </trkpt>
      <trkpt lat="48.67312" lon="2.04534">
        <ele>172</ele>
        <time>2010-05-13T09:14:36Z</time>
      </trkpt>
      <trkpt lat="48.6731" lon="2.04533">
        <ele>172</ele>
        <time>2010-05-13T09:14:37Z</time>
      </trkpt>
      <trkpt lat="48.67309" lon="2.04533">
        <ele>172</ele>
        <time>2010-05-13T09:14:38Z</time>
      </trkpt>
      <trkpt lat="48.67306" lon="2.04532">
        <ele>172</ele>
        <time>2010-05-13T09:14:40Z</time>
      </trkpt>
      <trkpt lat="48.67305" lon="2.04531">
        <ele>172</ele>
        <time>2010-05-13T09:14:41Z</time>
      </trkpt>
      <trkpt lat="48.67303" lon="2.04531">
        <ele>172</ele>
        <time>2010-05-13T09:14:42Z</time>
      </trkpt>
      <trkpt lat="48.67302" lon="2.04531">
        <ele>172</ele>
        <time>2010-05-13T09:14:43Z</time>
      </trkpt>
      <trkpt lat="48.673" lon="2.04531">
        <ele>172</ele>
        <time>2010-05-13T09:14:44Z</time>
      </trkpt>
      <trkpt lat="48.67299" lon="2.0453">
        <ele>172</ele>
        <time>2010-05-13T09:14:45Z</time>
      </trkpt>
      <trkpt lat="48.67297" lon="2.04529">
        <ele>172</ele>
        <time>2010-05-13T09:14:47Z</time>
      </trkpt>
      <trkpt lat="48.67295" lon="2.04528">
        <ele>172</ele>
        <time>2010-05-13T09:14:48Z</time>
      </trkpt>
      <trkpt lat="48.67293" lon="2.04528">
        <ele>172</ele>
        <time>2010-05-13T09:14:49Z</time>
      </trkpt>
      <trkpt lat="48.67292" lon="2.04526">
        <ele>172</ele>
        <time>2010-05-13T09:14:50Z</time>
      </trkpt>
      <trkpt lat="48.6729" lon="2.04525">
        <ele>172</ele>
        <time>2010-05-13T09:14:51Z</time>
      </trkpt>
      <trkpt lat="48.67289" lon="2.04521">
        <ele>172</ele>
        <time>2010-05-13T09:14:53Z</time>
      </trkpt>
      <trkpt lat="48.67291" lon="2.04518">
        <ele>172</ele>
        <time>2010-05-13T09:14:55Z</time>
      </trkpt>
      <trkpt lat="48.67292" lon="2.04516">
        <ele>171</ele>
        <time>2010-05-13T09:14:56Z</time>
      </trkpt>
      <trkpt lat="48.67293" lon="2.04514">
        <ele>170</ele>
        <time>2010-05-13T09:14:57Z</time>
      </trkpt>
      <trkpt lat="48.67294" lon="2.04512">
        <ele>169</ele>
        <time>2010-05-13T09:14:58Z</time>
      </trkpt>
      <trkpt lat="48.67295" lon="2.04509">
        <ele>169</ele>
        <time>2010-05-13T09:14:59Z</time>
      </trkpt>
      <trkpt lat="48.67296" lon="2.04507">
        <ele>169</ele>
        <time>2010-05-13T09:15:00Z</time>
      </trkpt>
      <trkpt lat="48.67296" lon="2.04504">
        <ele>169</ele>
        <time>2010-05-13T09:15:01Z</time>
      </trkpt>
      <trkpt lat="48.67296" lon="2.04501">
        <ele>169</ele>
        <time>2010-05-13T09:15:02Z</time>
      </trkpt>
      <trkpt lat="48.67297" lon="2.04498">
        <ele>169</ele>
        <time>2010-05-13T09:15:03Z</time>
      </trkpt>
      <trkpt lat="48.67298" lon="2.04496">
        <ele>169</ele>
        <time>2010-05-13T09:15:04Z</time>
      </trkpt>
      <trkpt lat="48.67299" lon="2.04493">
        <ele>169</ele>
        <time>2010-05-13T09:15:05Z</time>
      </trkpt>
      <trkpt lat="48.67299" lon="2.0449">
        <ele>169</ele>
        <time>2010-05-13T09:15:06Z</time>
      </trkpt>
      <trkpt lat="48.673" lon="2.04487">
        <ele>169</ele>
        <time>2010-05-13T09:15:07Z</time>
      </trkpt>
      <trkpt lat="48.673" lon="2.04484">
        <ele>169</ele>
        <time>2010-05-13T09:15:08Z</time>
      </trkpt>
      <trkpt lat="48.67301" lon="2.0448">
        <ele>169</ele>
        <time>2010-05-13T09:15:09Z</time>
      </trkpt>
      <trkpt lat="48.67301" lon="2.04476">
        <ele>169</ele>
        <time>2010-05-13T09:15:10Z</time>
      </trkpt>
      <trkpt lat="48.67301" lon="2.04472">
        <ele>169</ele>
        <time>2010-05-13T09:15:11Z</time>
      </trkpt>
      <trkpt lat="48.67302" lon="2.04468">
        <ele>169</ele>
        <time>2010-05-13T09:15:12Z</time>
      </trkpt>
      <trkpt lat="48.67302" lon="2.04465">
        <ele>169</ele>
        <time>2010-05-13T09:15:13Z</time>
      </trkpt>
      <trkpt lat="48.67302" lon="2.04462">
        <ele>169</ele>
        <time>2010-05-13T09:15:14Z</time>
      </trkpt>
      <trkpt lat="48.67302" lon="2.04459">
        <ele>169</ele>
        <time>2010-05-13T09:15:15Z</time>
      </trkpt>
      <trkpt lat="48.67301" lon="2.04457">
        <ele>169</ele>
        <time>2010-05-13T09:15:16Z</time>
      </trkpt>
      <trkpt lat="48.673" lon="2.04454">
        <ele>169</ele>
        <time>2010-05-13T09:15:17Z</time>
      </trkpt>
      <trkpt lat="48.673" lon="2.04451">
        <ele>169</ele>
        <time>2010-05-13T09:15:18Z</time>
      </trkpt>
      <trkpt lat="48.67299" lon="2.04448">
        <ele>169</ele>
        <time>2010-05-13T09:15:19Z</time>
      </trkpt>
      <trkpt lat="48.67299" lon="2.04445">
        <ele>169</ele>
        <time>2010-05-13T09:15:20Z</time>
      </trkpt>
      <trkpt lat="48.67299" lon="2.04442">
        <ele>169</ele>
        <time>2010-05-13T09:15:21Z</time>
      </trkpt>
      <trkpt lat="48.673" lon="2.04439">
        <ele>169</ele>
        <time>2010-05-13T09:15:22Z</time>
      </trkpt>
      <trkpt lat="48.67301" lon="2.04437">
        <ele>169</ele>
        <time>2010-05-13T09:15:23Z</time>
      </trkpt>
      <trkpt lat="48.67301" lon="2.04434">
        <ele>169</ele>
        <time>2010-05-13T09:15:24Z</time>
      </trkpt>
      <trkpt lat="48.67301" lon="2.04432">
        <ele>169</ele>
        <time>2010-05-13T09:15:25Z</time>
      </trkpt>
      <trkpt lat="48.67301" lon="2.04429">
        <ele>169</ele>
        <time>2010-05-13T09:15:26Z</time>
      </trkpt>
      <trkpt lat="48.673" lon="2.04426">
        <ele>169</ele>
        <time>2010-05-13T09:15:27Z</time>
      </trkpt>
      <trkpt lat="48.673" lon="2.04424">
        <ele>169</ele>
        <time>2010-05-13T09:15:28Z</time>
      </trkpt>
      <trkpt lat="48.673" lon="2.04421">
        <ele>169</ele>
        <time>2010-05-13T09:15:29Z</time>
      </trkpt>
      <trkpt lat="48.673" lon="2.04419">
        <ele>169</ele>
        <time>2010-05-13T09:15:30Z</time>
      </trkpt>
      <trkpt lat="48.67301" lon="2.04416">
        <ele>169</ele>
        <time>2010-05-13T09:15:31Z</time>
      </trkpt>
      <trkpt lat="48.67301" lon="2.04414">
        <ele>169</ele>
        <time>2010-05-13T09:15:32Z</time>
      </trkpt>
      <trkpt lat="48.67301" lon="2.04412">
        <ele>169</ele>
        <time>2010-05-13T09:15:33Z</time>
      </trkpt>
      <trkpt lat="48.67302" lon="2.0441">
        <ele>169</ele>
        <time>2010-05-13T09:15:34Z</time>
      </trkpt>
      <trkpt lat="48.67302" lon="2.04407">
        <ele>169</ele>
        <time>2010-05-13T09:15:35Z</time>
      </trkpt>
      <trkpt lat="48.67302" lon="2.04404">
        <ele>169</ele>
        <time>2010-05-13T09:15:36Z</time>
      </trkpt>
      <trkpt lat="48.67302" lon="2.04402">
        <ele>169</ele>
        <time>2010-05-13T09:15:37Z</time>
      </trkpt>
      <trkpt lat="48.67303" lon="2.04399">
        <ele>169</ele>
        <time>2010-05-13T09:15:38Z</time>
      </trkpt>
      <trkpt lat="48.67303" lon="2.04397">
        <ele>169</ele>
        <time>2010-05-13T09:15:39Z</time>
      </trkpt>
      <trkpt lat="48.67304" lon="2.04395">
        <ele>169</ele>
        <time>2010-05-13T09:15:40Z</time>
      </trkpt>
      <trkpt lat="48.67305" lon="2.04393">
        <ele>170</ele>
        <time>2010-05-13T09:15:41Z</time>
      </trkpt>
      <trkpt lat="48.67305" lon="2.04391">
        <ele>170</ele>
        <time>2010-05-13T09:15:42Z</time>
      </trkpt>
      <trkpt lat="48.67306" lon="2.04389">
        <ele>170</ele>
        <time>2010-05-13T09:15:43Z</time>
      </trkpt>
      <trkpt lat="48.67306" lon="2.04386">
        <ele>170</ele>
        <time>2010-05-13T09:15:44Z</time>
      </trkpt>
      <trkpt lat="48.67306" lon="2.04383">
        <ele>171</ele>
        <time>2010-05-13T09:15:45Z</time>
      </trkpt>
      <trkpt lat="48.67306" lon="2.04381">
        <ele>171</ele>
        <time>2010-05-13T09:15:46Z</time>
      </trkpt>
      <trkpt lat="48.67307" lon="2.04378">
        <ele>171</ele>
        <time>2010-05-13T09:15:47Z</time>
      </trkpt>
      <trkpt lat="48.67307" lon="2.04376">
        <ele>171</ele>
        <time>2010-05-13T09:15:48Z</time>
      </trkpt>
      <trkpt lat="48.67308" lon="2.04374">
        <ele>171</ele>
        <time>2010-05-13T09:15:49Z</time>
      </trkpt>
      <trkpt lat="48.67308" lon="2.04372">
        <ele>171</ele>
        <time>2010-05-13T09:15:50Z</time>
      </trkpt>
      <trkpt lat="48.67309" lon="2.04369">
        <ele>171</ele>
        <time>2010-05-13T09:15:51Z</time>
      </trkpt>
      <trkpt lat="48.67309" lon="2.04367">
        <ele>171</ele>
        <time>2010-05-13T09:15:52Z</time>
      </trkpt>
      <trkpt lat="48.6731" lon="2.04365">
        <ele>171</ele>
        <time>2010-05-13T09:15:53Z</time>
      </trkpt>
      <trkpt lat="48.6731" lon="2.04362">
        <ele>171</ele>
        <time>2010-05-13T09:15:54Z</time>
      </trkpt>
      <trkpt lat="48.67311" lon="2.0436">
        <ele>171</ele>
        <time>2010-05-13T09:15:55Z</time>
      </trkpt>
      <trkpt lat="48.67312" lon="2.04357">
        <ele>171</ele>
        <time>2010-05-13T09:15:56Z</time>
      </trkpt>
      <trkpt lat="48.67312" lon="2.04355">
        <ele>171</ele>
        <time>2010-05-13T09:15:57Z</time>
      </trkpt>
      <trkpt lat="48.67313" lon="2.04353">
        <ele>171</ele>
        <time>2010-05-13T09:15:58Z</time>
      </trkpt>
      <trkpt lat="48.67314" lon="2.0435">
        <ele>171</ele>
        <time>2010-05-13T09:15:59Z</time>
      </trkpt>
      <trkpt lat="48.67314" lon="2.04348">
        <ele>171</ele>
        <time>2010-05-13T09:16:00Z</time>
      </trkpt>
      <trkpt lat="48.67314" lon="2.04345">
        <ele>171</ele>
        <time>2010-05-13T09:16:01Z</time>
      </trkpt>
      <trkpt lat="48.67313" lon="2.04342">
        <ele>171</ele>
        <time>2010-05-13T09:16:02Z</time>
      </trkpt>
      <trkpt lat="48.67313" lon="2.04339">
        <ele>171</ele>
        <time>2010-05-13T09:16:03Z</time>
      </trkpt>
      <trkpt lat="48.67313" lon="2.04336">
        <ele>171</ele>
        <time>2010-05-13T09:16:04Z</time>
      </trkpt>
      <trkpt lat="48.67314" lon="2.04334">
        <ele>171</ele>
        <time>2010-05-13T09:16:05Z</time>
      </trkpt>
      <trkpt lat="48.67314" lon="2.04331">
        <ele>171</ele>
        <time>2010-05-13T09:16:06Z</time>
      </trkpt>
      <trkpt lat="48.67314" lon="2.04328">
        <ele>171</ele>
        <time>2010-05-13T09:16:07Z</time>
      </trkpt>
      <trkpt lat="48.67314" lon="2.04326">
        <ele>171</ele>
        <time>2010-05-13T09:16:08Z</time>
      </trkpt>
      <trkpt lat="48.67314" lon="2.04323">
        <ele>171</ele>
        <time>2010-05-13T09:16:09Z</time>
      </trkpt>
      <trkpt lat="48.67314" lon="2.0432">
        <ele>171</ele>
        <time>2010-05-13T09:16:10Z</time>
      </trkpt>
      <trkpt lat="48.67314" lon="2.04317">
        <ele>171</ele>
        <time>2010-05-13T09:16:11Z</time>
      </trkpt>
      <trkpt lat="48.67314" lon="2.04314">
        <ele>171</ele>
        <time>2010-05-13T09:16:12Z</time>
      </trkpt>
      <trkpt lat="48.67314" lon="2.04312">
        <ele>171</ele>
        <time>2010-05-13T09:16:13Z</time>
      </trkpt>
      <trkpt lat="48.67314" lon="2.0431">
        <ele>171</ele>
        <time>2010-05-13T09:16:14Z</time>
      </trkpt>
      <trkpt lat="48.67315" lon="2.04307">
        <ele>171</ele>
        <time>2010-05-13T09:16:15Z</time>
      </trkpt>
      <trkpt lat="48.67315" lon="2.04305">
        <ele>171</ele>
        <time>2010-05-13T09:16:16Z</time>
      </trkpt>
      <trkpt lat="48.67316" lon="2.04303">
        <ele>171</ele>
        <time>2010-05-13T09:16:17Z</time>
      </trkpt>
      <trkpt lat="48.67316" lon="2.043">
        <ele>171</ele>
        <time>2010-05-13T09:16:18Z</time>
      </trkpt>
      <trkpt lat="48.67316" lon="2.04298">
        <ele>171</ele>
        <time>2010-05-13T09:16:19Z</time>
      </trkpt>
      <trkpt lat="48.67316" lon="2.04296">
        <ele>171</ele>
        <time>2010-05-13T09:16:20Z</time>
      </trkpt>
      <trkpt lat="48.67317" lon="2.04293">
        <ele>171</ele>
        <time>2010-05-13T09:16:21Z</time>
      </trkpt>
      <trkpt lat="48.67317" lon="2.04291">
        <ele>171</ele>
        <time>2010-05-13T09:16:22Z</time>
      </trkpt>
      <trkpt lat="48.67317" lon="2.04288">
        <ele>171</ele>
        <time>2010-05-13T09:16:23Z</time>
      </trkpt>
      <trkpt lat="48.67317" lon="2.04286">
        <ele>171</ele>
        <time>2010-05-13T09:16:24Z</time>
      </trkpt>
      <trkpt lat="48.67318" lon="2.04283">
        <ele>171</ele>
        <time>2010-05-13T09:16:25Z</time>
      </trkpt>
      <trkpt lat="48.67317" lon="2.0428">
        <ele>171</ele>
        <time>2010-05-13T09:16:26Z</time>
      </trkpt>
      <trkpt lat="48.67318" lon="2.04277">
        <ele>171</ele>
        <time>2010-05-13T09:16:27Z</time>
      </trkpt>
      <trkpt lat="48.67318" lon="2.04275">
        <ele>171</ele>
        <time>2010-05-13T09:16:28Z</time>
      </trkpt>
      <trkpt lat="48.67318" lon="2.04272">
        <ele>171</ele>
        <time>2010-05-13T09:16:29Z</time>
      </trkpt>
      <trkpt lat="48.67319" lon="2.0427">
        <ele>171</ele>
        <time>2010-05-13T09:16:30Z</time>
      </trkpt>
      <trkpt lat="48.6732" lon="2.04267">
        <ele>171</ele>
        <time>2010-05-13T09:16:31Z</time>
      </trkpt>
      <trkpt lat="48.6732" lon="2.04265">
        <ele>171</ele>
        <time>2010-05-13T09:16:32Z</time>
      </trkpt>
      <trkpt lat="48.6732" lon="2.04262">
        <ele>171</ele>
        <time>2010-05-13T09:16:33Z</time>
      </trkpt>
      <trkpt lat="48.6732" lon="2.0426">
        <ele>171</ele>
        <time>2010-05-13T09:16:34Z</time>
      </trkpt>
      <trkpt lat="48.6732" lon="2.04257">
        <ele>171</ele>
        <time>2010-05-13T09:16:35Z</time>
      </trkpt>
      <trkpt lat="48.67321" lon="2.04254">
        <ele>171</ele>
        <time>2010-05-13T09:16:36Z</time>
      </trkpt>
      <trkpt lat="48.67321" lon="2.04252">
        <ele>171</ele>
        <time>2010-05-13T09:16:37Z</time>
      </trkpt>
      <trkpt lat="48.67321" lon="2.04249">
        <ele>171</ele>
        <time>2010-05-13T09:16:38Z</time>
      </trkpt>
      <trkpt lat="48.67321" lon="2.04246">
        <ele>171</ele>
        <time>2010-05-13T09:16:39Z</time>
      </trkpt>
      <trkpt lat="48.67321" lon="2.04243">
        <ele>171</ele>
        <time>2010-05-13T09:16:40Z</time>
      </trkpt>
      <trkpt lat="48.67321" lon="2.04241">
        <ele>171</ele>
        <time>2010-05-13T09:16:41Z</time>
      </trkpt>
      <trkpt lat="48.67323" lon="2.04239">
        <ele>171</ele>
        <time>2010-05-13T09:16:42Z</time>
      </trkpt>
      <trkpt lat="48.67324" lon="2.04237">
        <ele>171</ele>
        <time>2010-05-13T09:16:43Z</time>
      </trkpt>
      <trkpt lat="48.67324" lon="2.04234">
        <ele>171</ele>
        <time>2010-05-13T09:16:44Z</time>
      </trkpt>
      <trkpt lat="48.67324" lon="2.04231">
        <ele>171</ele>
        <time>2010-05-13T09:16:45Z</time>
      </trkpt>
      <trkpt lat="48.67324" lon="2.04229">
        <ele>171</ele>
        <time>2010-05-13T09:16:46Z</time>
      </trkpt>
      <trkpt lat="48.67325" lon="2.04226">
        <ele>171</ele>
        <time>2010-05-13T09:16:47Z</time>
      </trkpt>
      <trkpt lat="48.67325" lon="2.04224">
        <ele>171</ele>
        <time>2010-05-13T09:16:48Z</time>
      </trkpt>
      <trkpt lat="48.67326" lon="2.04221">
        <ele>171</ele>
        <time>2010-05-13T09:16:49Z</time>
      </trkpt>
      <trkpt lat="48.67326" lon="2.04218">
        <ele>171</ele>
        <time>2010-05-13T09:16:50Z</time>
      </trkpt>
      <trkpt lat="48.67326" lon="2.04216">
        <ele>171</ele>
        <time>2010-05-13T09:16:51Z</time>
      </trkpt>
      <trkpt lat="48.67326" lon="2.04214">
        <ele>171</ele>
        <time>2010-05-13T09:16:52Z</time>
      </trkpt>
      <trkpt lat="48.67326" lon="2.04211">
        <ele>171</ele>
        <time>2010-05-13T09:16:53Z</time>
      </trkpt>
      <trkpt lat="48.67326" lon="2.04208">
        <ele>171</ele>
        <time>2010-05-13T09:16:54Z</time>
      </trkpt>
      <trkpt lat="48.67326" lon="2.04205">
        <ele>171</ele>
        <time>2010-05-13T09:16:55Z</time>
      </trkpt>
      <trkpt lat="48.67327" lon="2.04203">
        <ele>171</ele>
        <time>2010-05-13T09:16:56Z</time>
      </trkpt>
      <trkpt lat="48.67327" lon="2.04201">
        <ele>171</ele>
        <time>2010-05-13T09:16:57Z</time>
      </trkpt>
      <trkpt lat="48.67328" lon="2.04199">
        <ele>171</ele>
        <time>2010-05-13T09:16:58Z</time>
      </trkpt>
      <trkpt lat="48.67328" lon="2.04198">
        <ele>171</ele>
        <time>2010-05-13T09:16:59Z</time>
      </trkpt>
      <trkpt lat="48.67329" lon="2.04196">
        <ele>171</ele>
        <time>2010-05-13T09:17:00Z</time>
      </trkpt>
      <trkpt lat="48.6733" lon="2.04194">
        <ele>171</ele>
        <time>2010-05-13T09:17:01Z</time>
      </trkpt>
      <trkpt lat="48.6733" lon="2.04191">
        <ele>171</ele>
        <time>2010-05-13T09:17:02Z</time>
      </trkpt>
      <trkpt lat="48.67329" lon="2.04188">
        <ele>171</ele>
        <time>2010-05-13T09:17:03Z</time>
      </trkpt>
      <trkpt lat="48.67329" lon="2.04185">
        <ele>171</ele>
        <time>2010-05-13T09:17:04Z</time>
      </trkpt>
      <trkpt lat="48.67329" lon="2.04182">
        <ele>171</ele>
        <time>2010-05-13T09:17:05Z</time>
      </trkpt>
      <trkpt lat="48.67329" lon="2.0418">
        <ele>171</ele>
        <time>2010-05-13T09:17:06Z</time>
      </trkpt>
      <trkpt lat="48.67329" lon="2.04177">
        <ele>171</ele>
        <time>2010-05-13T09:17:07Z</time>
      </trkpt>
      <trkpt lat="48.67329" lon="2.04174">
        <ele>171</ele>
        <time>2010-05-13T09:17:08Z</time>
      </trkpt>
      <trkpt lat="48.6733" lon="2.04172">
        <ele>171</ele>
        <time>2010-05-13T09:17:09Z</time>
      </trkpt>
      <trkpt lat="48.67331" lon="2.0417">
        <ele>171</ele>
        <time>2010-05-13T09:17:10Z</time>
      </trkpt>
      <trkpt lat="48.67331" lon="2.04167">
        <ele>171</ele>
        <time>2010-05-13T09:17:11Z</time>
      </trkpt>
      <trkpt lat="48.67332" lon="2.04165">
        <ele>171</ele>
        <time>2010-05-13T09:17:12Z</time>
      </trkpt>
      <trkpt lat="48.67332" lon="2.04162">
        <ele>171</ele>
        <time>2010-05-13T09:17:13Z</time>
      </trkpt>
      <trkpt lat="48.67332" lon="2.04159">
        <ele>171</ele>
        <time>2010-05-13T09:17:14Z</time>
      </trkpt>
      <trkpt lat="48.67332" lon="2.04157">
        <ele>171</ele>
        <time>2010-05-13T09:17:15Z</time>
      </trkpt>
      <trkpt lat="48.67333" lon="2.04154">
        <ele>171</ele>
        <time>2010-05-13T09:17:16Z</time>
      </trkpt>
      <trkpt lat="48.67333" lon="2.04152">
        <ele>171</ele>
        <time>2010-05-13T09:17:17Z</time>
      </trkpt>
      <trkpt lat="48.67334" lon="2.04149">
        <ele>171</ele>
        <time>2010-05-13T09:17:18Z</time>
      </trkpt>
      <trkpt lat="48.67334" lon="2.04147">
        <ele>171</ele>
        <time>2010-05-13T09:17:19Z</time>
      </trkpt>
      <trkpt lat="48.67334" lon="2.04144">
        <ele>171</ele>
        <time>2010-05-13T09:17:20Z</time>
      </trkpt>
      <trkpt lat="48.67333" lon="2.04141">
        <ele>171</ele>
        <time>2010-05-13T09:17:21Z</time>
      </trkpt>
      <trkpt lat="48.67334" lon="2.04139">
        <ele>171</ele>
        <time>2010-05-13T09:17:22Z</time>
      </trkpt>
      <trkpt lat="48.67335" lon="2.04137">
        <ele>171</ele>
        <time>2010-05-13T09:17:23Z</time>
      </trkpt>
      <trkpt lat="48.67334" lon="2.04134">
        <ele>171</ele>
        <time>2010-05-13T09:17:24Z</time>
      </trkpt>
      <trkpt lat="48.67334" lon="2.04131">
        <ele>171</ele>
        <time>2010-05-13T09:17:25Z</time>
      </trkpt>
      <trkpt lat="48.67334" lon="2.04128">
        <ele>171</ele>
        <time>2010-05-13T09:17:26Z</time>
      </trkpt>
      <trkpt lat="48.67334" lon="2.04123">
        <ele>171</ele>
        <time>2010-05-13T09:17:27Z</time>
      </trkpt>
      <trkpt lat="48.67335" lon="2.04117">
        <ele>171</ele>
        <time>2010-05-13T09:17:28Z</time>
      </trkpt>
      <trkpt lat="48.67335" lon="2.04111">
        <ele>171</ele>
        <time>2010-05-13T09:17:29Z</time>
      </trkpt>
      <trkpt lat="48.67335" lon="2.04105">
        <ele>171</ele>
        <time>2010-05-13T09:17:30Z</time>
      </trkpt>
      <trkpt lat="48.67335" lon="2.04099">
        <ele>171</ele>
        <time>2010-05-13T09:17:31Z</time>
      </trkpt>
      <trkpt lat="48.67335" lon="2.04092">
        <ele>171</ele>
        <time>2010-05-13T09:17:32Z</time>
      </trkpt>
      <trkpt lat="48.67335" lon="2.04085">
        <ele>171</ele>
        <time>2010-05-13T09:17:33Z</time>
      </trkpt>
      <trkpt lat="48.67335" lon="2.04078">
        <ele>171</ele>
        <time>2010-05-13T09:17:34Z</time>
      </trkpt>
      <trkpt lat="48.67335" lon="2.04072">
        <ele>171</ele>
        <time>2010-05-13T09:17:35Z</time>
      </trkpt>
      <trkpt lat="48.67335" lon="2.04064">
        <ele>171</ele>
        <time>2010-05-13T09:17:36Z</time>
      </trkpt>
      <trkpt lat="48.67336" lon="2.04057">
        <ele>171</ele>
        <time>2010-05-13T09:17:37Z</time>
      </trkpt>
      <trkpt lat="48.67336" lon="2.04049">
        <ele>171</ele>
        <time>2010-05-13T09:17:38Z</time>
      </trkpt>
      <trkpt lat="48.67337" lon="2.04042">
        <ele>171</ele>
        <time>2010-05-13T09:17:39Z</time>
      </trkpt>
      <trkpt lat="48.67338" lon="2.04035">
        <ele>171</ele>
        <time>2010-05-13T09:17:40Z</time>
      </trkpt>
      <trkpt lat="48.67338" lon="2.04027">
        <ele>171</ele>
        <time>2010-05-13T09:17:41Z</time>
      </trkpt>
      <trkpt lat="48.67339" lon="2.04021">
        <ele>171</ele>
        <time>2010-05-13T09:17:42Z</time>
      </trkpt>
      <trkpt lat="48.6734" lon="2.04014">
        <ele>170</ele>
        <time>2010-05-13T09:17:43Z</time>
      </trkpt>
      <trkpt lat="48.6734" lon="2.04008">
        <ele>169</ele>
        <time>2010-05-13T09:17:44Z</time>
      </trkpt>
      <trkpt lat="48.67341" lon="2.04002">
        <ele>169</ele>
        <time>2010-05-13T09:17:45Z</time>
      </trkpt>
      <trkpt lat="48.67341" lon="2.03995">
        <ele>168</ele>
        <time>2010-05-13T09:17:46Z</time>
      </trkpt>
      <trkpt lat="48.67342" lon="2.03989">
        <ele>168</ele>
        <time>2010-05-13T09:17:47Z</time>
      </trkpt>
      <trkpt lat="48.67343" lon="2.03982">
        <ele>167</ele>
        <time>2010-05-13T09:17:48Z</time>
      </trkpt>
      <trkpt lat="48.67344" lon="2.03976">
        <ele>166</ele>
        <time>2010-05-13T09:17:49Z</time>
      </trkpt>
      <trkpt lat="48.67344" lon="2.0397">
        <ele>165</ele>
        <time>2010-05-13T09:17:50Z</time>
      </trkpt>
      <trkpt lat="48.67345" lon="2.03963">
        <ele>164</ele>
        <time>2010-05-13T09:17:51Z</time>
      </trkpt>
      <trkpt lat="48.67346" lon="2.03956">
        <ele>163</ele>
        <time>2010-05-13T09:17:52Z</time>
      </trkpt>
      <trkpt lat="48.67347" lon="2.0395">
        <ele>163</ele>
        <time>2010-05-13T09:17:53Z</time>
      </trkpt>
      <trkpt lat="48.67348" lon="2.03944">
        <ele>162</ele>
        <time>2010-05-13T09:17:54Z</time>
      </trkpt>
      <trkpt lat="48.67348" lon="2.03939">
        <ele>162</ele>
        <time>2010-05-13T09:17:55Z</time>
      </trkpt>
      <trkpt lat="48.67349" lon="2.03934">
        <ele>162</ele>
        <time>2010-05-13T09:17:56Z</time>
      </trkpt>
      <trkpt lat="48.67349" lon="2.03928">
        <ele>162</ele>
        <time>2010-05-13T09:17:57Z</time>
      </trkpt>
      <trkpt lat="48.6735" lon="2.03921">
        <ele>162</ele>
        <time>2010-05-13T09:17:58Z</time>
      </trkpt>
      <trkpt lat="48.6735" lon="2.03914">
        <ele>162</ele>
        <time>2010-05-13T09:17:59Z</time>
      </trkpt>
      <trkpt lat="48.67352" lon="2.03908">
        <ele>162</ele>
        <time>2010-05-13T09:18:00Z</time>
      </trkpt>
      <trkpt lat="48.67352" lon="2.03902">
        <ele>162</ele>
        <time>2010-05-13T09:18:01Z</time>
      </trkpt>
      <trkpt lat="48.67353" lon="2.03896">
        <ele>162</ele>
        <time>2010-05-13T09:18:02Z</time>
      </trkpt>
      <trkpt lat="48.67353" lon="2.0389">
        <ele>162</ele>
        <time>2010-05-13T09:18:03Z</time>
      </trkpt>
      <trkpt lat="48.67353" lon="2.03885">
        <ele>162</ele>
        <time>2010-05-13T09:18:04Z</time>
      </trkpt>
      <trkpt lat="48.67354" lon="2.0388">
        <ele>162</ele>
        <time>2010-05-13T09:18:05Z</time>
      </trkpt>
      <trkpt lat="48.67354" lon="2.03876">
        <ele>162</ele>
        <time>2010-05-13T09:18:06Z</time>
      </trkpt>
      <trkpt lat="48.67354" lon="2.03872">
        <ele>162</ele>
        <time>2010-05-13T09:18:07Z</time>
      </trkpt>
      <trkpt lat="48.67354" lon="2.03867">
        <ele>163</ele>
        <time>2010-05-13T09:18:08Z</time>
      </trkpt>
      <trkpt lat="48.67355" lon="2.03863">
        <ele>164</ele>
        <time>2010-05-13T09:18:09Z</time>
      </trkpt>
      <trkpt lat="48.67355" lon="2.03858">
        <ele>164</ele>
        <time>2010-05-13T09:18:10Z</time>
      </trkpt>
      <trkpt lat="48.67355" lon="2.03853">
        <ele>164</ele>
        <time>2010-05-13T09:18:11Z</time>
      </trkpt>
      <trkpt lat="48.67356" lon="2.03847">
        <ele>165</ele>
        <time>2010-05-13T09:18:12Z</time>
      </trkpt>
      <trkpt lat="48.67356" lon="2.03841">
        <ele>165</ele>
        <time>2010-05-13T09:18:13Z</time>
      </trkpt>
      <trkpt lat="48.67357" lon="2.03835">
        <ele>165</ele>
        <time>2010-05-13T09:18:14Z</time>
      </trkpt>
      <trkpt lat="48.67358" lon="2.03829">
        <ele>165</ele>
        <time>2010-05-13T09:18:15Z</time>
      </trkpt>
      <trkpt lat="48.67358" lon="2.03823">
        <ele>165</ele>
        <time>2010-05-13T09:18:16Z</time>
      </trkpt>
      <trkpt lat="48.67359" lon="2.03818">
        <ele>166</ele>
        <time>2010-05-13T09:18:17Z</time>
      </trkpt>
      <trkpt lat="48.6736" lon="2.03812">
        <ele>166</ele>
        <time>2010-05-13T09:18:18Z</time>
      </trkpt>
      <trkpt lat="48.6736" lon="2.03805">
        <ele>166</ele>
        <time>2010-05-13T09:18:19Z</time>
      </trkpt>
      <trkpt lat="48.67362" lon="2.03798">
        <ele>166</ele>
        <time>2010-05-13T09:18:20Z</time>
      </trkpt>
      <trkpt lat="48.67363" lon="2.03791">
        <ele>166</ele>
        <time>2010-05-13T09:18:21Z</time>
      </trkpt>
      <trkpt lat="48.67363" lon="2.03783">
        <ele>166</ele>
        <time>2010-05-13T09:18:22Z</time>
      </trkpt>
      <trkpt lat="48.67364" lon="2.03776">
        <ele>166</ele>
        <time>2010-05-13T09:18:23Z</time>
      </trkpt>
      <trkpt lat="48.67365" lon="2.03768">
        <ele>166</ele>
        <time>2010-05-13T09:18:24Z</time>
      </trkpt>
      <trkpt lat="48.67365" lon="2.03761">
        <ele>166</ele>
        <time>2010-05-13T09:18:25Z</time>
      </trkpt>
      <trkpt lat="48.67366" lon="2.03754">
        <ele>166</ele>
        <time>2010-05-13T09:18:26Z</time>
      </trkpt>
      <trkpt lat="48.67367" lon="2.03747">
        <ele>166</ele>
        <time>2010-05-13T09:18:27Z</time>
      </trkpt>
      <trkpt lat="48.67367" lon="2.0374">
        <ele>166</ele>
        <time>2010-05-13T09:18:28Z</time>
      </trkpt>
      <trkpt lat="48.67368" lon="2.03733">
        <ele>166</ele>
        <time>2010-05-13T09:18:29Z</time>
      </trkpt>
      <trkpt lat="48.67368" lon="2.03727">
        <ele>166</ele>
        <time>2010-05-13T09:18:30Z</time>
      </trkpt>
      <trkpt lat="48.67369" lon="2.03721">
        <ele>166</ele>
        <time>2010-05-13T09:18:31Z</time>
      </trkpt>
      <trkpt lat="48.67369" lon="2.03714">
        <ele>166</ele>
        <time>2010-05-13T09:18:32Z</time>
      </trkpt>
      <trkpt lat="48.6737" lon="2.03708">
        <ele>166</ele>
        <time>2010-05-13T09:18:33Z</time>
      </trkpt>
      <trkpt lat="48.67371" lon="2.03702">
        <ele>166</ele>
        <time>2010-05-13T09:18:34Z</time>
      </trkpt>
      <trkpt lat="48.67372" lon="2.03695">
        <ele>166</ele>
        <time>2010-05-13T09:18:35Z</time>
      </trkpt>
      <trkpt lat="48.67373" lon="2.03689">
        <ele>166</ele>
        <time>2010-05-13T09:18:36Z</time>
      </trkpt>
      <trkpt lat="48.67374" lon="2.03682">
        <ele>166</ele>
        <time>2010-05-13T09:18:37Z</time>
      </trkpt>
      <trkpt lat="48.67375" lon="2.03676">
        <ele>166</ele>
        <time>2010-05-13T09:18:38Z</time>
      </trkpt>
      <trkpt lat="48.67376" lon="2.0367">
        <ele>166</ele>
        <time>2010-05-13T09:18:39Z</time>
      </trkpt>
      <trkpt lat="48.67376" lon="2.03663">
        <ele>166</ele>
        <time>2010-05-13T09:18:40Z</time>
      </trkpt>
      <trkpt lat="48.67376" lon="2.03656">
        <ele>166</ele>
        <time>2010-05-13T09:18:41Z</time>
      </trkpt>
      <trkpt lat="48.67377" lon="2.03649">
        <ele>166</ele>
        <time>2010-05-13T09:18:42Z</time>
      </trkpt>
      <trkpt lat="48.67378" lon="2.03643">
        <ele>166</ele>
        <time>2010-05-13T09:18:43Z</time>
      </trkpt>
      <trkpt lat="48.67379" lon="2.03636">
        <ele>166</ele>
        <time>2010-05-13T09:18:44Z</time>
      </trkpt>
      <trkpt lat="48.6738" lon="2.03629">
        <ele>166</ele>
        <time>2010-05-13T09:18:45Z</time>
      </trkpt>
      <trkpt lat="48.67382" lon="2.03622">
        <ele>166</ele>
        <time>2010-05-13T09:18:46Z</time>
      </trkpt>
      <trkpt lat="48.67383" lon="2.03614">
        <ele>166</ele>
        <time>2010-05-13T09:18:47Z</time>
      </trkpt>
      <trkpt lat="48.67384" lon="2.03607">
        <ele>166</ele>
        <time>2010-05-13T09:18:48Z</time>
      </trkpt>
      <trkpt lat="48.67385" lon="2.03599">
        <ele>166</ele>
        <time>2010-05-13T09:18:49Z</time>
      </trkpt>
      <trkpt lat="48.67385" lon="2.03592">
        <ele>166</ele>
        <time>2010-05-13T09:18:50Z</time>
      </trkpt>
      <trkpt lat="48.67386" lon="2.03585">
        <ele>166</ele>
        <time>2010-05-13T09:18:51Z</time>
      </trkpt>
      <trkpt lat="48.67387" lon="2.03578">
        <ele>166</ele>
        <time>2010-05-13T09:18:52Z</time>
      </trkpt>
      <trkpt lat="48.67388" lon="2.03572">
        <ele>166</ele>
        <time>2010-05-13T09:18:53Z</time>
      </trkpt>
      <trkpt lat="48.67389" lon="2.03564">
        <ele>166</ele>
        <time>2010-05-13T09:18:54Z</time>
      </trkpt>
      <trkpt lat="48.67389" lon="2.03556">
        <ele>166</ele>
        <time>2010-05-13T09:18:55Z</time>
      </trkpt>
      <trkpt lat="48.67389" lon="2.03548">
        <ele>166</ele>
        <time>2010-05-13T09:18:56Z</time>
      </trkpt>
      <trkpt lat="48.6739" lon="2.0354">
        <ele>166</ele>
        <time>2010-05-13T09:18:57Z</time>
      </trkpt>
      <trkpt lat="48.6739" lon="2.03531">
        <ele>166</ele>
        <time>2010-05-13T09:18:58Z</time>
      </trkpt>
      <trkpt lat="48.67391" lon="2.03523">
        <ele>166</ele>
        <time>2010-05-13T09:18:59Z</time>
      </trkpt>
      <trkpt lat="48.67392" lon="2.03515">
        <ele>166</ele>
        <time>2010-05-13T09:19:00Z</time>
      </trkpt>
      <trkpt lat="48.67391" lon="2.03507">
        <ele>165</ele>
        <time>2010-05-13T09:19:01Z</time>
      </trkpt>
      <trkpt lat="48.67392" lon="2.035">
        <ele>165</ele>
        <time>2010-05-13T09:19:02Z</time>
      </trkpt>
      <trkpt lat="48.67393" lon="2.03492">
        <ele>164</ele>
        <time>2010-05-13T09:19:03Z</time>
      </trkpt>
      <trkpt lat="48.67394" lon="2.03484">
        <ele>163</ele>
        <time>2010-05-13T09:19:04Z</time>
      </trkpt>
      <trkpt lat="48.67394" lon="2.03476">
        <ele>163</ele>
        <time>2010-05-13T09:19:05Z</time>
      </trkpt>
      <trkpt lat="48.67394" lon="2.03468">
        <ele>163</ele>
        <time>2010-05-13T09:19:06Z</time>
      </trkpt>
      <trkpt lat="48.67394" lon="2.03461">
        <ele>163</ele>
        <time>2010-05-13T09:19:07Z</time>
      </trkpt>
      <trkpt lat="48.67395" lon="2.03455">
        <ele>163</ele>
        <time>2010-05-13T09:19:08Z</time>
      </trkpt>
      <trkpt lat="48.67396" lon="2.03449">
        <ele>163</ele>
        <time>2010-05-13T09:19:09Z</time>
      </trkpt>
      <trkpt lat="48.67396" lon="2.03443">
        <ele>163</ele>
        <time>2010-05-13T09:19:10Z</time>
      </trkpt>
      <trkpt lat="48.67397" lon="2.03437">
        <ele>163</ele>
        <time>2010-05-13T09:19:11Z</time>
      </trkpt>
      <trkpt lat="48.67397" lon="2.03431">
        <ele>163</ele>
        <time>2010-05-13T09:19:12Z</time>
      </trkpt>
      <trkpt lat="48.67398" lon="2.03426">
        <ele>163</ele>
        <time>2010-05-13T09:19:13Z</time>
      </trkpt>
      <trkpt lat="48.67398" lon="2.03421">
        <ele>163</ele>
        <time>2010-05-13T09:19:14Z</time>
      </trkpt>
      <trkpt lat="48.67399" lon="2.03415">
        <ele>162</ele>
        <time>2010-05-13T09:19:15Z</time>
      </trkpt>
      <trkpt lat="48.67399" lon="2.0341">
        <ele>162</ele>
        <time>2010-05-13T09:19:16Z</time>
      </trkpt>
      <trkpt lat="48.674" lon="2.03405">
        <ele>162</ele>
        <time>2010-05-13T09:19:17Z</time>
      </trkpt>
      <trkpt lat="48.67401" lon="2.034">
        <ele>162</ele>
        <time>2010-05-13T09:19:18Z</time>
      </trkpt>
      <trkpt lat="48.67401" lon="2.03395">
        <ele>162</ele>
        <time>2010-05-13T09:19:19Z</time>
      </trkpt>
      <trkpt lat="48.67402" lon="2.03389">
        <ele>162</ele>
        <time>2010-05-13T09:19:20Z</time>
      </trkpt>
      <trkpt lat="48.67403" lon="2.03383">
        <ele>162</ele>
        <time>2010-05-13T09:19:21Z</time>
      </trkpt>
      <trkpt lat="48.67404" lon="2.03378">
        <ele>161</ele>
        <time>2010-05-13T09:19:22Z</time>
      </trkpt>
      <trkpt lat="48.67404" lon="2.03372">
        <ele>161</ele>
        <time>2010-05-13T09:19:23Z</time>
      </trkpt>
      <trkpt lat="48.67404" lon="2.03366">
        <ele>161</ele>
        <time>2010-05-13T09:19:24Z</time>
      </trkpt>
      <trkpt lat="48.67405" lon="2.03362">
        <ele>161</ele>
        <time>2010-05-13T09:19:25Z</time>
      </trkpt>
      <trkpt lat="48.67405" lon="2.03358">
        <ele>161</ele>
        <time>2010-05-13T09:19:26Z</time>
      </trkpt>
      <trkpt lat="48.67405" lon="2.03354">
        <ele>161</ele>
        <time>2010-05-13T09:19:27Z</time>
      </trkpt>
      <trkpt lat="48.67408" lon="2.03353">
        <ele>161</ele>
        <time>2010-05-13T09:19:28Z</time>
      </trkpt>
      <trkpt lat="48.67411" lon="2.03352">
        <ele>161</ele>
        <time>2010-05-13T09:19:29Z</time>
      </trkpt>
      <trkpt lat="48.67414" lon="2.03352">
        <ele>161</ele>
        <time>2010-05-13T09:19:30Z</time>
      </trkpt>
      <trkpt lat="48.67416" lon="2.03353">
        <ele>161</ele>
        <time>2010-05-13T09:19:31Z</time>
      </trkpt>
      <trkpt lat="48.67418" lon="2.03353">
        <ele>162</ele>
        <time>2010-05-13T09:19:32Z</time>
      </trkpt>
      <trkpt lat="48.67421" lon="2.03354">
        <ele>163</ele>
        <time>2010-05-13T09:19:33Z</time>
      </trkpt>
      <trkpt lat="48.67425" lon="2.03354">
        <ele>164</ele>
        <time>2010-05-13T09:19:34Z</time>
      </trkpt>
      <trkpt lat="48.67429" lon="2.03355">
        <ele>165</ele>
        <time>2010-05-13T09:19:35Z</time>
      </trkpt>
      <trkpt lat="48.67432" lon="2.03356">
        <ele>166</ele>
        <time>2010-05-13T09:19:36Z</time>
      </trkpt>
      <trkpt lat="48.67436" lon="2.03355">
        <ele>167</ele>
        <time>2010-05-13T09:19:37Z</time>
      </trkpt>
      <trkpt lat="48.67439" lon="2.03355">
        <ele>168</ele>
        <time>2010-05-13T09:19:38Z</time>
      </trkpt>
      <trkpt lat="48.67442" lon="2.03354">
        <ele>169</ele>
        <time>2010-05-13T09:19:39Z</time>
      </trkpt>
      <trkpt lat="48.67445" lon="2.03354">
        <ele>170</ele>
        <time>2010-05-13T09:19:40Z</time>
      </trkpt>
      <trkpt lat="48.67448" lon="2.03355">
        <ele>172</ele>
        <time>2010-05-13T09:19:41Z</time>
      </trkpt>
      <trkpt lat="48.67451" lon="2.03355">
        <ele>173</ele>
        <time>2010-05-13T09:19:42Z</time>
      </trkpt>
      <trkpt lat="48.67454" lon="2.03355">
        <ele>174</ele>
        <time>2010-05-13T09:19:43Z</time>
      </trkpt>
      <trkpt lat="48.67458" lon="2.03355">
        <ele>175</ele>
        <time>2010-05-13T09:19:44Z</time>
      </trkpt>
      <trkpt lat="48.67463" lon="2.03355">
        <ele>176</ele>
        <time>2010-05-13T09:19:45Z</time>
      </trkpt>
      <trkpt lat="48.67468" lon="2.03356">
        <ele>177</ele>
        <time>2010-05-13T09:19:46Z</time>
      </trkpt>
      <trkpt lat="48.67472" lon="2.03356">
        <ele>178</ele>
        <time>2010-05-13T09:19:47Z</time>
      </trkpt>
      <trkpt lat="48.67476" lon="2.03356">
        <ele>179</ele>
        <time>2010-05-13T09:19:48Z</time>
      </trkpt>
      <trkpt lat="48.67481" lon="2.03355">
        <ele>180</ele>
        <time>2010-05-13T09:19:49Z</time>
      </trkpt>
      <trkpt lat="48.67485" lon="2.03355">
        <ele>181</ele>
        <time>2010-05-13T09:19:50Z</time>
      </trkpt>
      <trkpt lat="48.67489" lon="2.03354">
        <ele>182</ele>
        <time>2010-05-13T09:19:51Z</time>
      </trkpt>
      <trkpt lat="48.67493" lon="2.03353">
        <ele>182</ele>
        <time>2010-05-13T09:19:52Z</time>
      </trkpt>
      <trkpt lat="48.67498" lon="2.03353">
        <ele>182</ele>
        <time>2010-05-13T09:19:53Z</time>
      </trkpt>
      <trkpt lat="48.67502" lon="2.03354">
        <ele>182</ele>
        <time>2010-05-13T09:19:54Z</time>
      </trkpt>
      <trkpt lat="48.67506" lon="2.03353">
        <ele>182</ele>
        <time>2010-05-13T09:19:55Z</time>
      </trkpt>
      <trkpt lat="48.6751" lon="2.03353">
        <ele>183</ele>
        <time>2010-05-13T09:19:56Z</time>
      </trkpt>
      <trkpt lat="48.67514" lon="2.03353">
        <ele>184</ele>
        <time>2010-05-13T09:19:57Z</time>
      </trkpt>
      <trkpt lat="48.67518" lon="2.03353">
        <ele>184</ele>
        <time>2010-05-13T09:19:58Z</time>
      </trkpt>
      <trkpt lat="48.67523" lon="2.03352">
        <ele>185</ele>
        <time>2010-05-13T09:19:59Z</time>
      </trkpt>
      <trkpt lat="48.67528" lon="2.03352">
        <ele>186</ele>
        <time>2010-05-13T09:20:00Z</time>
      </trkpt>
      <trkpt lat="48.67532" lon="2.03352">
        <ele>186</ele>
        <time>2010-05-13T09:20:01Z</time>
      </trkpt>
      <trkpt lat="48.67536" lon="2.03352">
        <ele>187</ele>
        <time>2010-05-13T09:20:02Z</time>
      </trkpt>
      <trkpt lat="48.6754" lon="2.03352">
        <ele>187</ele>
        <time>2010-05-13T09:20:03Z</time>
      </trkpt>
      <trkpt lat="48.67544" lon="2.03352">
        <ele>187</ele>
        <time>2010-05-13T09:20:04Z</time>
      </trkpt>
      <trkpt lat="48.67548" lon="2.03353">
        <ele>188</ele>
        <time>2010-05-13T09:20:05Z</time>
      </trkpt>
      <trkpt lat="48.67552" lon="2.03353">
        <ele>189</ele>
        <time>2010-05-13T09:20:06Z</time>
      </trkpt>
      <trkpt lat="48.67556" lon="2.03353">
        <ele>189</ele>
        <time>2010-05-13T09:20:07Z</time>
      </trkpt>
      <trkpt lat="48.67559" lon="2.03354">
        <ele>190</ele>
        <time>2010-05-13T09:20:08Z</time>
      </trkpt>
      <trkpt lat="48.67562" lon="2.03354">
        <ele>191</ele>
        <time>2010-05-13T09:20:09Z</time>
      </trkpt>
      <trkpt lat="48.67566" lon="2.03355">
        <ele>191</ele>
        <time>2010-05-13T09:20:10Z</time>
      </trkpt>
      <trkpt lat="48.67569" lon="2.03355">
        <ele>192</ele>
        <time>2010-05-13T09:20:11Z</time>
      </trkpt>
      <trkpt lat="48.67573" lon="2.03355">
        <ele>193</ele>
        <time>2010-05-13T09:20:12Z</time>
      </trkpt>
      <trkpt lat="48.67576" lon="2.03355">
        <ele>194</ele>
        <time>2010-05-13T09:20:13Z</time>
      </trkpt>
      <trkpt lat="48.6758" lon="2.03356">
        <ele>195</ele>
        <time>2010-05-13T09:20:14Z</time>
      </trkpt>
      <trkpt lat="48.67583" lon="2.03356">
        <ele>196</ele>
        <time>2010-05-13T09:20:15Z</time>
      </trkpt>
      <trkpt lat="48.67587" lon="2.03356">
        <ele>197</ele>
        <time>2010-05-13T09:20:16Z</time>
      </trkpt>
      <trkpt lat="48.6759" lon="2.03357">
        <ele>198</ele>
        <time>2010-05-13T09:20:17Z</time>
      </trkpt>
      <trkpt lat="48.67594" lon="2.03357">
        <ele>198</ele>
        <time>2010-05-13T09:20:18Z</time>
      </trkpt>
      <trkpt lat="48.67597" lon="2.03357">
        <ele>199</ele>
        <time>2010-05-13T09:20:19Z</time>
      </trkpt>
      <trkpt lat="48.676" lon="2.03357">
        <ele>199</ele>
        <time>2010-05-13T09:20:20Z</time>
      </trkpt>
      <trkpt lat="48.67602" lon="2.03357">
        <ele>199</ele>
        <time>2010-05-13T09:20:21Z</time>
      </trkpt>
      <trkpt lat="48.67605" lon="2.03357">
        <ele>199</ele>
        <time>2010-05-13T09:20:22Z</time>
      </trkpt>
      <trkpt lat="48.67609" lon="2.03357">
        <ele>199</ele>
        <time>2010-05-13T09:20:23Z</time>
      </trkpt>
      <trkpt lat="48.67612" lon="2.03357">
        <ele>199</ele>
        <time>2010-05-13T09:20:24Z</time>
      </trkpt>
      <trkpt lat="48.67615" lon="2.03358">
        <ele>199</ele>
        <time>2010-05-13T09:20:25Z</time>
      </trkpt>
      <trkpt lat="48.67618" lon="2.03359">
        <ele>199</ele>
        <time>2010-05-13T09:20:26Z</time>
      </trkpt>
      <trkpt lat="48.67622" lon="2.03359">
        <ele>199</ele>
        <time>2010-05-13T09:20:27Z</time>
      </trkpt>
      <trkpt lat="48.67626" lon="2.0336">
        <ele>199</ele>
        <time>2010-05-13T09:20:28Z</time>
      </trkpt>
      <trkpt lat="48.6763" lon="2.03361">
        <ele>199</ele>
        <time>2010-05-13T09:20:29Z</time>
      </trkpt>
      <trkpt lat="48.67634" lon="2.03361">
        <ele>199</ele>
        <time>2010-05-13T09:20:30Z</time>
      </trkpt>
      <trkpt lat="48.67638" lon="2.03362">
        <ele>199</ele>
        <time>2010-05-13T09:20:31Z</time>
      </trkpt>
      <trkpt lat="48.67642" lon="2.03362">
        <ele>199</ele>
        <time>2010-05-13T09:20:32Z</time>
      </trkpt>
      <trkpt lat="48.67647" lon="2.03363">
        <ele>199</ele>
        <time>2010-05-13T09:20:33Z</time>
      </trkpt>
      <trkpt lat="48.67651" lon="2.03362">
        <ele>199</ele>
        <time>2010-05-13T09:20:34Z</time>
      </trkpt>
      <trkpt lat="48.67655" lon="2.03363">
        <ele>199</ele>
        <time>2010-05-13T09:20:35Z</time>
      </trkpt>
      <trkpt lat="48.6766" lon="2.03363">
        <ele>198</ele>
        <time>2010-05-13T09:20:36Z</time>
      </trkpt>
      <trkpt lat="48.67664" lon="2.03364">
        <ele>198</ele>
        <time>2010-05-13T09:20:37Z</time>
      </trkpt>
      <trkpt lat="48.67668" lon="2.03364">
        <ele>197</ele>
        <time>2010-05-13T09:20:38Z</time>
      </trkpt>
      <trkpt lat="48.67672" lon="2.03365">
        <ele>197</ele>
        <time>2010-05-13T09:20:39Z</time>
      </trkpt>
      <trkpt lat="48.67675" lon="2.03365">
        <ele>196</ele>
        <time>2010-05-13T09:20:40Z</time>
      </trkpt>
      <trkpt lat="48.67679" lon="2.03366">
        <ele>196</ele>
        <time>2010-05-13T09:20:41Z</time>
      </trkpt>
      <trkpt lat="48.67683" lon="2.03367">
        <ele>195</ele>
        <time>2010-05-13T09:20:42Z</time>
      </trkpt>
      <trkpt lat="48.67687" lon="2.03368">
        <ele>195</ele>
        <time>2010-05-13T09:20:43Z</time>
      </trkpt>
      <trkpt lat="48.67691" lon="2.03368">
        <ele>195</ele>
        <time>2010-05-13T09:20:44Z</time>
      </trkpt>
      <trkpt lat="48.67695" lon="2.03369">
        <ele>194</ele>
        <time>2010-05-13T09:20:45Z</time>
      </trkpt>
      <trkpt lat="48.67699" lon="2.0337">
        <ele>194</ele>
        <time>2010-05-13T09:20:46Z</time>
      </trkpt>
      <trkpt lat="48.67703" lon="2.0337">
        <ele>194</ele>
        <time>2010-05-13T09:20:47Z</time>
      </trkpt>
      <trkpt lat="48.67707" lon="2.03371">
        <ele>194</ele>
        <time>2010-05-13T09:20:48Z</time>
      </trkpt>
      <trkpt lat="48.67711" lon="2.03372">
        <ele>194</ele>
        <time>2010-05-13T09:20:49Z</time>
      </trkpt>
      <trkpt lat="48.67716" lon="2.03372">
        <ele>194</ele>
        <time>2010-05-13T09:20:50Z</time>
      </trkpt>
      <trkpt lat="48.67721" lon="2.03372">
        <ele>194</ele>
        <time>2010-05-13T09:20:51Z</time>
      </trkpt>
      <trkpt lat="48.67726" lon="2.03374">
        <ele>194</ele>
        <time>2010-05-13T09:20:52Z</time>
      </trkpt>
      <trkpt lat="48.6773" lon="2.03374">
        <ele>194</ele>
        <time>2010-05-13T09:20:53Z</time>
      </trkpt>
      <trkpt lat="48.67733" lon="2.03375">
        <ele>194</ele>
        <time>2010-05-13T09:20:54Z</time>
      </trkpt>
      <trkpt lat="48.67738" lon="2.03376">
        <ele>194</ele>
        <time>2010-05-13T09:20:55Z</time>
      </trkpt>
      <trkpt lat="48.67742" lon="2.03378">
        <ele>193</ele>
        <time>2010-05-13T09:20:56Z</time>
      </trkpt>
      <trkpt lat="48.67746" lon="2.0338">
        <ele>192</ele>
        <time>2010-05-13T09:20:57Z</time>
      </trkpt>
      <trkpt lat="48.6775" lon="2.03382">
        <ele>191</ele>
        <time>2010-05-13T09:20:58Z</time>
      </trkpt>
      <trkpt lat="48.67755" lon="2.03382">
        <ele>190</ele>
        <time>2010-05-13T09:20:59Z</time>
      </trkpt>
      <trkpt lat="48.67758" lon="2.03382">
        <ele>189</ele>
        <time>2010-05-13T09:21:00Z</time>
      </trkpt>
      <trkpt lat="48.67762" lon="2.03383">
        <ele>188</ele>
        <time>2010-05-13T09:21:01Z</time>
      </trkpt>
      <trkpt lat="48.67765" lon="2.03383">
        <ele>188</ele>
        <time>2010-05-13T09:21:02Z</time>
      </trkpt>
      <trkpt lat="48.67769" lon="2.03384">
        <ele>188</ele>
        <time>2010-05-13T09:21:03Z</time>
      </trkpt>
      <trkpt lat="48.67773" lon="2.03385">
        <ele>188</ele>
        <time>2010-05-13T09:21:04Z</time>
      </trkpt>
      <trkpt lat="48.67777" lon="2.03386">
        <ele>188</ele>
        <time>2010-05-13T09:21:05Z</time>
      </trkpt>
      <trkpt lat="48.67781" lon="2.03386">
        <ele>188</ele>
        <time>2010-05-13T09:21:06Z</time>
      </trkpt>
      <trkpt lat="48.67785" lon="2.03386">
        <ele>188</ele>
        <time>2010-05-13T09:21:07Z</time>
      </trkpt>
      <trkpt lat="48.67788" lon="2.03386">
        <ele>188</ele>
        <time>2010-05-13T09:21:08Z</time>
      </trkpt>
      <trkpt lat="48.67792" lon="2.03386">
        <ele>188</ele>
        <time>2010-05-13T09:21:09Z</time>
      </trkpt>
      <trkpt lat="48.67796" lon="2.03385">
        <ele>188</ele>
        <time>2010-05-13T09:21:10Z</time>
      </trkpt>
      <trkpt lat="48.678" lon="2.03385">
        <ele>188</ele>
        <time>2010-05-13T09:21:11Z</time>
      </trkpt>
      <trkpt lat="48.67804" lon="2.03385">
        <ele>188</ele>
        <time>2010-05-13T09:21:12Z</time>
      </trkpt>
      <trkpt lat="48.67807" lon="2.03385">
        <ele>188</ele>
        <time>2010-05-13T09:21:13Z</time>
      </trkpt>
      <trkpt lat="48.67811" lon="2.03385">
        <ele>188</ele>
        <time>2010-05-13T09:21:14Z</time>
      </trkpt>
      <trkpt lat="48.67815" lon="2.03385">
        <ele>188</ele>
        <time>2010-05-13T09:21:15Z</time>
      </trkpt>
      <trkpt lat="48.67819" lon="2.03384">
        <ele>188</ele>
        <time>2010-05-13T09:21:16Z</time>
      </trkpt>
      <trkpt lat="48.67823" lon="2.03384">
        <ele>188</ele>
        <time>2010-05-13T09:21:17Z</time>
      </trkpt>
      <trkpt lat="48.67828" lon="2.03385">
        <ele>188</ele>
        <time>2010-05-13T09:21:18Z</time>
      </trkpt>
      <trkpt lat="48.67832" lon="2.03385">
        <ele>188</ele>
        <time>2010-05-13T09:21:19Z</time>
      </trkpt>
      <trkpt lat="48.67836" lon="2.03386">
        <ele>188</ele>
        <time>2010-05-13T09:21:20Z</time>
      </trkpt>
      <trkpt lat="48.6784" lon="2.03386">
        <ele>188</ele>
        <time>2010-05-13T09:21:21Z</time>
      </trkpt>
      <trkpt lat="48.67844" lon="2.03387">
        <ele>188</ele>
        <time>2010-05-13T09:21:22Z</time>
      </trkpt>
      <trkpt lat="48.67849" lon="2.03388">
        <ele>188</ele>
        <time>2010-05-13T09:21:23Z</time>
      </trkpt>
      <trkpt lat="48.67853" lon="2.03388">
        <ele>188</ele>
        <time>2010-05-13T09:21:24Z</time>
      </trkpt>
      <trkpt lat="48.67858" lon="2.03388">
        <ele>188</ele>
        <time>2010-05-13T09:21:25Z</time>
      </trkpt>
      <trkpt lat="48.67863" lon="2.03389">
        <ele>188</ele>
        <time>2010-05-13T09:21:26Z</time>
      </trkpt>
      <trkpt lat="48.67867" lon="2.0339">
        <ele>188</ele>
        <time>2010-05-13T09:21:27Z</time>
      </trkpt>
      <trkpt lat="48.67872" lon="2.0339">
        <ele>188</ele>
        <time>2010-05-13T09:21:28Z</time>
      </trkpt>
      <trkpt lat="48.67876" lon="2.0339">
        <ele>188</ele>
        <time>2010-05-13T09:21:29Z</time>
      </trkpt>
      <trkpt lat="48.6788" lon="2.0339">
        <ele>188</ele>
        <time>2010-05-13T09:21:30Z</time>
      </trkpt>
      <trkpt lat="48.67885" lon="2.03391">
        <ele>188</ele>
        <time>2010-05-13T09:21:31Z</time>
      </trkpt>
      <trkpt lat="48.67889" lon="2.03391">
        <ele>188</ele>
        <time>2010-05-13T09:21:32Z</time>
      </trkpt>
      <trkpt lat="48.67894" lon="2.03391">
        <ele>188</ele>
        <time>2010-05-13T09:21:33Z</time>
      </trkpt>
      <trkpt lat="48.67898" lon="2.03391">
        <ele>188</ele>
        <time>2010-05-13T09:21:34Z</time>
      </trkpt>
      <trkpt lat="48.67902" lon="2.03392">
        <ele>188</ele>
        <time>2010-05-13T09:21:35Z</time>
      </trkpt>
      <trkpt lat="48.67907" lon="2.03392">
        <ele>188</ele>
        <time>2010-05-13T09:21:36Z</time>
      </trkpt>
      <trkpt lat="48.67911" lon="2.03393">
        <ele>188</ele>
        <time>2010-05-13T09:21:37Z</time>
      </trkpt>
      <trkpt lat="48.67916" lon="2.03393">
        <ele>188</ele>
        <time>2010-05-13T09:21:38Z</time>
      </trkpt>
      <trkpt lat="48.6792" lon="2.03393">
        <ele>188</ele>
        <time>2010-05-13T09:21:39Z</time>
      </trkpt>
      <trkpt lat="48.67925" lon="2.03392">
        <ele>188</ele>
        <time>2010-05-13T09:21:40Z</time>
      </trkpt>
      <trkpt lat="48.67929" lon="2.03392">
        <ele>188</ele>
        <time>2010-05-13T09:21:41Z</time>
      </trkpt>
      <trkpt lat="48.67934" lon="2.03392">
        <ele>188</ele>
        <time>2010-05-13T09:21:42Z</time>
      </trkpt>
      <trkpt lat="48.67938" lon="2.03391">
        <ele>188</ele>
        <time>2010-05-13T09:21:43Z</time>
      </trkpt>
      <trkpt lat="48.67942" lon="2.0339">
        <ele>188</ele>
        <time>2010-05-13T09:21:44Z</time>
      </trkpt>
      <trkpt lat="48.67945" lon="2.03389">
        <ele>188</ele>
        <time>2010-05-13T09:21:45Z</time>
      </trkpt>
      <trkpt lat="48.67949" lon="2.03388">
        <ele>188</ele>
        <time>2010-05-13T09:21:46Z</time>
      </trkpt>
      <trkpt lat="48.67952" lon="2.03387">
        <ele>188</ele>
        <time>2010-05-13T09:21:47Z</time>
      </trkpt>
      <trkpt lat="48.67955" lon="2.03385">
        <ele>188</ele>
        <time>2010-05-13T09:21:48Z</time>
      </trkpt>
      <trkpt lat="48.67959" lon="2.03386">
        <ele>188</ele>
        <time>2010-05-13T09:21:49Z</time>
      </trkpt>
      <trkpt lat="48.67963" lon="2.03385">
        <ele>188</ele>
        <time>2010-05-13T09:21:50Z</time>
      </trkpt>
      <trkpt lat="48.67965" lon="2.03384">
        <ele>187</ele>
        <time>2010-05-13T09:21:51Z</time>
      </trkpt>
      <trkpt lat="48.67968" lon="2.03384">
        <ele>186</ele>
        <time>2010-05-13T09:21:52Z</time>
      </trkpt>
      <trkpt lat="48.6797" lon="2.03384">
        <ele>185</ele>
        <time>2010-05-13T09:21:53Z</time>
      </trkpt>
      <trkpt lat="48.67973" lon="2.03384">
        <ele>184</ele>
        <time>2010-05-13T09:21:54Z</time>
      </trkpt>
      <trkpt lat="48.67975" lon="2.03382">
        <ele>183</ele>
        <time>2010-05-13T09:21:55Z</time>
      </trkpt>
      <trkpt lat="48.67977" lon="2.03381">
        <ele>182</ele>
        <time>2010-05-13T09:21:56Z</time>
      </trkpt>
      <trkpt lat="48.67979" lon="2.0338">
        <ele>181</ele>
        <time>2010-05-13T09:21:57Z</time>
      </trkpt>
      <trkpt lat="48.67982" lon="2.03379">
        <ele>180</ele>
        <time>2010-05-13T09:21:58Z</time>
      </trkpt>
      <trkpt lat="48.67984" lon="2.03377">
        <ele>180</ele>
        <time>2010-05-13T09:21:59Z</time>
      </trkpt>
      <trkpt lat="48.67986" lon="2.03376">
        <ele>180</ele>
        <time>2010-05-13T09:22:00Z</time>
      </trkpt>
      <trkpt lat="48.67988" lon="2.03375">
        <ele>180</ele>
        <time>2010-05-13T09:22:01Z</time>
      </trkpt>
      <trkpt lat="48.6799" lon="2.03374">
        <ele>180</ele>
        <time>2010-05-13T09:22:02Z</time>
      </trkpt>
      <trkpt lat="48.67993" lon="2.03373">
        <ele>179</ele>
        <time>2010-05-13T09:22:03Z</time>
      </trkpt>
      <trkpt lat="48.67994" lon="2.03372">
        <ele>179</ele>
        <time>2010-05-13T09:22:04Z</time>
      </trkpt>
      <trkpt lat="48.67996" lon="2.0337">
        <ele>179</ele>
        <time>2010-05-13T09:22:05Z</time>
      </trkpt>
      <trkpt lat="48.67998" lon="2.03368">
        <ele>179</ele>
        <time>2010-05-13T09:22:06Z</time>
      </trkpt>
      <trkpt lat="48.68" lon="2.03366">
        <ele>179</ele>
        <time>2010-05-13T09:22:07Z</time>
      </trkpt>
      <trkpt lat="48.68002" lon="2.03363">
        <ele>179</ele>
        <time>2010-05-13T09:22:08Z</time>
      </trkpt>
      <trkpt lat="48.68003" lon="2.03362">
        <ele>178</ele>
        <time>2010-05-13T09:22:09Z</time>
      </trkpt>
      <trkpt lat="48.68005" lon="2.03361">
        <ele>177</ele>
        <time>2010-05-13T09:22:10Z</time>
      </trkpt>
      <trkpt lat="48.68006" lon="2.0336">
        <ele>176</ele>
        <time>2010-05-13T09:22:11Z</time>
      </trkpt>
      <trkpt lat="48.68008" lon="2.03359">
        <ele>176</ele>
        <time>2010-05-13T09:22:12Z</time>
      </trkpt>
      <trkpt lat="48.68009" lon="2.03358">
        <ele>176</ele>
        <time>2010-05-13T09:22:13Z</time>
      </trkpt>
      <trkpt lat="48.68012" lon="2.03357">
        <ele>176</ele>
        <time>2010-05-13T09:22:15Z</time>
      </trkpt>
      <trkpt lat="48.68014" lon="2.03355">
        <ele>176</ele>
        <time>2010-05-13T09:22:17Z</time>
      </trkpt>
      <trkpt lat="48.68015" lon="2.03354">
        <ele>176</ele>
        <time>2010-05-13T09:22:18Z</time>
      </trkpt>
      <trkpt lat="48.68016" lon="2.03354">
        <ele>176</ele>
        <time>2010-05-13T09:22:19Z</time>
      </trkpt>
      <trkpt lat="48.68018" lon="2.03353">
        <ele>176</ele>
        <time>2010-05-13T09:22:20Z</time>
      </trkpt>
      <trkpt lat="48.68019" lon="2.03353">
        <ele>176</ele>
        <time>2010-05-13T09:22:21Z</time>
      </trkpt>
      <trkpt lat="48.6802" lon="2.03353">
        <ele>176</ele>
        <time>2010-05-13T09:22:22Z</time>
      </trkpt>
      <trkpt lat="48.68023" lon="2.03352">
        <ele>176</ele>
        <time>2010-05-13T09:22:23Z</time>
      </trkpt>
      <trkpt lat="48.68024" lon="2.03352">
        <ele>176</ele>
        <time>2010-05-13T09:22:24Z</time>
      </trkpt>
      <trkpt lat="48.68025" lon="2.03352">
        <ele>176</ele>
        <time>2010-05-13T09:22:25Z</time>
      </trkpt>
      <trkpt lat="48.68027" lon="2.03351">
        <ele>176</ele>
        <time>2010-05-13T09:22:26Z</time>
      </trkpt>
      <trkpt lat="48.68029" lon="2.0335">
        <ele>176</ele>
        <time>2010-05-13T09:22:27Z</time>
      </trkpt>
      <trkpt lat="48.68031" lon="2.0335">
        <ele>176</ele>
        <time>2010-05-13T09:22:28Z</time>
      </trkpt>
      <trkpt lat="48.68033" lon="2.03351">
        <ele>176</ele>
        <time>2010-05-13T09:22:29Z</time>
      </trkpt>
      <trkpt lat="48.68035" lon="2.03352">
        <ele>176</ele>
        <time>2010-05-13T09:22:30Z</time>
      </trkpt>
      <trkpt lat="48.68036" lon="2.03352">
        <ele>176</ele>
        <time>2010-05-13T09:22:31Z</time>
      </trkpt>
      <trkpt lat="48.68038" lon="2.0335">
        <ele>176</ele>
        <time>2010-05-13T09:22:33Z</time>
      </trkpt>
      <trkpt lat="48.6804" lon="2.03348">
        <ele>176</ele>
        <time>2010-05-13T09:22:34Z</time>
      </trkpt>
      <trkpt lat="48.68042" lon="2.03346">
        <ele>176</ele>
        <time>2010-05-13T09:22:35Z</time>
      </trkpt>
      <trkpt lat="48.68044" lon="2.03345">
        <ele>176</ele>
        <time>2010-05-13T09:22:36Z</time>
      </trkpt>
      <trkpt lat="48.68046" lon="2.03344">
        <ele>176</ele>
        <time>2010-05-13T09:22:37Z</time>
      </trkpt>
      <trkpt lat="48.68049" lon="2.03343">
        <ele>176</ele>
        <time>2010-05-13T09:22:38Z</time>
      </trkpt>
      <trkpt lat="48.6805" lon="2.03342">
        <ele>175</ele>
        <time>2010-05-13T09:22:39Z</time>
      </trkpt>
      <trkpt lat="48.68053" lon="2.03339">
        <ele>174</ele>
        <time>2010-05-13T09:22:41Z</time>
      </trkpt>
      <trkpt lat="48.68054" lon="2.03338">
        <ele>174</ele>
        <time>2010-05-13T09:22:42Z</time>
      </trkpt>
      <trkpt lat="48.68056" lon="2.03337">
        <ele>174</ele>
        <time>2010-05-13T09:22:43Z</time>
      </trkpt>
      <trkpt lat="48.68058" lon="2.03334">
        <ele>173</ele>
        <time>2010-05-13T09:22:44Z</time>
      </trkpt>
      <trkpt lat="48.6806" lon="2.03332">
        <ele>172</ele>
        <time>2010-05-13T09:22:45Z</time>
      </trkpt>
      <trkpt lat="48.68062" lon="2.0333">
        <ele>171</ele>
        <time>2010-05-13T09:22:46Z</time>
      </trkpt>
      <trkpt lat="48.68063" lon="2.03328">
        <ele>170</ele>
        <time>2010-05-13T09:22:47Z</time>
      </trkpt>
      <trkpt lat="48.68065" lon="2.03327">
        <ele>169</ele>
        <time>2010-05-13T09:22:48Z</time>
      </trkpt>
      <trkpt lat="48.68067" lon="2.03326">
        <ele>168</ele>
        <time>2010-05-13T09:22:49Z</time>
      </trkpt>
      <trkpt lat="48.68068" lon="2.03325">
        <ele>167</ele>
        <time>2010-05-13T09:22:50Z</time>
      </trkpt>
      <trkpt lat="48.6807" lon="2.03323">
        <ele>166</ele>
        <time>2010-05-13T09:22:51Z</time>
      </trkpt>
      <trkpt lat="48.68073" lon="2.03321">
        <ele>165</ele>
        <time>2010-05-13T09:22:52Z</time>
      </trkpt>
      <trkpt lat="48.68075" lon="2.0332">
        <ele>163</ele>
        <time>2010-05-13T09:22:54Z</time>
      </trkpt>
      <trkpt lat="48.68077" lon="2.03319">
        <ele>162</ele>
        <time>2010-05-13T09:22:55Z</time>
      </trkpt>
      <trkpt lat="48.68078" lon="2.03318">
        <ele>161</ele>
        <time>2010-05-13T09:22:56Z</time>
      </trkpt>
      <trkpt lat="48.68081" lon="2.03317">
        <ele>160</ele>
        <time>2010-05-13T09:22:57Z</time>
      </trkpt>
      <trkpt lat="48.68083" lon="2.03318">
        <ele>160</ele>
        <time>2010-05-13T09:22:58Z</time>
      </trkpt>
      <trkpt lat="48.68084" lon="2.03317">
        <ele>160</ele>
        <time>2010-05-13T09:22:59Z</time>
      </trkpt>
      <trkpt lat="48.68086" lon="2.03315">
        <ele>160</ele>
        <time>2010-05-13T09:23:01Z</time>
      </trkpt>
      <trkpt lat="48.68088" lon="2.03313">
        <ele>160</ele>
        <time>2010-05-13T09:23:03Z</time>
      </trkpt>
      <trkpt lat="48.6809" lon="2.03313">
        <ele>160</ele>
        <time>2010-05-13T09:23:04Z</time>
      </trkpt>
      <trkpt lat="48.68091" lon="2.03312">
        <ele>159</ele>
        <time>2010-05-13T09:23:05Z</time>
      </trkpt>
      <trkpt lat="48.68092" lon="2.03311">
        <ele>159</ele>
        <time>2010-05-13T09:23:06Z</time>
      </trkpt>
      <trkpt lat="48.68094" lon="2.03311">
        <ele>159</ele>
        <time>2010-05-13T09:23:07Z</time>
      </trkpt>
      <trkpt lat="48.68097" lon="2.0331">
        <ele>158</ele>
        <time>2010-05-13T09:23:08Z</time>
      </trkpt>
      <trkpt lat="48.68099" lon="2.03309">
        <ele>158</ele>
        <time>2010-05-13T09:23:09Z</time>
      </trkpt>
      <trkpt lat="48.681" lon="2.03308">
        <ele>158</ele>
        <time>2010-05-13T09:23:10Z</time>
      </trkpt>
      <trkpt lat="48.68102" lon="2.03308">
        <ele>158</ele>
        <time>2010-05-13T09:23:11Z</time>
      </trkpt>
      <trkpt lat="48.68104" lon="2.03307">
        <ele>158</ele>
        <time>2010-05-13T09:23:12Z</time>
      </trkpt>
      <trkpt lat="48.68105" lon="2.03307">
        <ele>157</ele>
        <time>2010-05-13T09:23:13Z</time>
      </trkpt>
      <trkpt lat="48.68107" lon="2.03307">
        <ele>157</ele>
        <time>2010-05-13T09:23:14Z</time>
      </trkpt>
      <trkpt lat="48.68109" lon="2.03306">
        <ele>157</ele>
        <time>2010-05-13T09:23:15Z</time>
      </trkpt>
      <trkpt lat="48.68111" lon="2.03305">
        <ele>157</ele>
        <time>2010-05-13T09:23:16Z</time>
      </trkpt>
      <trkpt lat="48.68113" lon="2.03304">
        <ele>157</ele>
        <time>2010-05-13T09:23:17Z</time>
      </trkpt>
      <trkpt lat="48.68114" lon="2.03302">
        <ele>157</ele>
        <time>2010-05-13T09:23:18Z</time>
      </trkpt>
      <trkpt lat="48.68116" lon="2.03302">
        <ele>157</ele>
        <time>2010-05-13T09:23:19Z</time>
      </trkpt>
      <trkpt lat="48.68117" lon="2.03301">
        <ele>156</ele>
        <time>2010-05-13T09:23:20Z</time>
      </trkpt>
      <trkpt lat="48.68119" lon="2.03301">
        <ele>156</ele>
        <time>2010-05-13T09:23:21Z</time>
      </trkpt>
      <trkpt lat="48.68121" lon="2.033">
        <ele>156</ele>
        <time>2010-05-13T09:23:22Z</time>
      </trkpt>
      <trkpt lat="48.68123" lon="2.03299">
        <ele>156</ele>
        <time>2010-05-13T09:23:23Z</time>
      </trkpt>
      <trkpt lat="48.68124" lon="2.03299">
        <ele>156</ele>
        <time>2010-05-13T09:23:24Z</time>
      </trkpt>
      <trkpt lat="48.68126" lon="2.03299">
        <ele>156</ele>
        <time>2010-05-13T09:23:25Z</time>
      </trkpt>
      <trkpt lat="48.68127" lon="2.03298">
        <ele>156</ele>
        <time>2010-05-13T09:23:26Z</time>
      </trkpt>
      <trkpt lat="48.68128" lon="2.03297">
        <ele>156</ele>
        <time>2010-05-13T09:23:27Z</time>
      </trkpt>
      <trkpt lat="48.6813" lon="2.03296">
        <ele>156</ele>
        <time>2010-05-13T09:23:28Z</time>
      </trkpt>
      <trkpt lat="48.68132" lon="2.03295">
        <ele>156</ele>
        <time>2010-05-13T09:23:30Z</time>
      </trkpt>
      <trkpt lat="48.68134" lon="2.03293">
        <ele>156</ele>
        <time>2010-05-13T09:23:32Z</time>
      </trkpt>
      <trkpt lat="48.68136" lon="2.03292">
        <ele>156</ele>
        <time>2010-05-13T09:23:33Z</time>
      </trkpt>
      <trkpt lat="48.68141" lon="2.0329">
        <ele>156</ele>
        <time>2010-05-13T09:23:37Z</time>
      </trkpt>
      <trkpt lat="48.68143" lon="2.03288">
        <ele>156</ele>
        <time>2010-05-13T09:23:37Z</time>
      </trkpt>
      <trkpt lat="48.68146" lon="2.03288">
        <ele>156</ele>
        <time>2010-05-13T09:23:38Z</time>
      </trkpt>
      <trkpt lat="48.68148" lon="2.03288">
        <ele>157</ele>
        <time>2010-05-13T09:23:39Z</time>
      </trkpt>
      <trkpt lat="48.68149" lon="2.03288">
        <ele>158</ele>
        <time>2010-05-13T09:23:40Z</time>
      </trkpt>
      <trkpt lat="48.68151" lon="2.03287">
        <ele>159</ele>
        <time>2010-05-13T09:23:41Z</time>
      </trkpt>
      <trkpt lat="48.68153" lon="2.03287">
        <ele>159</ele>
        <time>2010-05-13T09:23:42Z</time>
      </trkpt>
      <trkpt lat="48.68154" lon="2.03285">
        <ele>159</ele>
        <time>2010-05-13T09:23:43Z</time>
      </trkpt>
      <trkpt lat="48.68155" lon="2.03284">
        <ele>159</ele>
        <time>2010-05-13T09:23:44Z</time>
      </trkpt>
      <trkpt lat="48.68157" lon="2.03283">
        <ele>159</ele>
        <time>2010-05-13T09:23:45Z</time>
      </trkpt>
      <trkpt lat="48.68158" lon="2.03281">
        <ele>159</ele>
        <time>2010-05-13T09:23:46Z</time>
      </trkpt>
      <trkpt lat="48.68159" lon="2.03279">
        <ele>159</ele>
        <time>2010-05-13T09:23:48Z</time>
      </trkpt>
      <trkpt lat="48.6816" lon="2.03278">
        <ele>159</ele>
        <time>2010-05-13T09:23:49Z</time>
      </trkpt>
      <trkpt lat="48.68162" lon="2.03278">
        <ele>159</ele>
        <time>2010-05-13T09:23:50Z</time>
      </trkpt>
      <trkpt lat="48.68166" lon="2.03276">
        <ele>159</ele>
        <time>2010-05-13T09:23:52Z</time>
      </trkpt>
      <trkpt lat="48.68169" lon="2.03274">
        <ele>159</ele>
        <time>2010-05-13T09:23:53Z</time>
      </trkpt>
      <trkpt lat="48.6817" lon="2.03273">
        <ele>159</ele>
        <time>2010-05-13T09:23:54Z</time>
      </trkpt>
      <trkpt lat="48.68171" lon="2.03272">
        <ele>160</ele>
        <time>2010-05-13T09:23:55Z</time>
      </trkpt>
      <trkpt lat="48.68174" lon="2.03271">
        <ele>162</ele>
        <time>2010-05-13T09:23:57Z</time>
      </trkpt>
      <trkpt lat="48.68176" lon="2.0327">
        <ele>162</ele>
        <time>2010-05-13T09:23:58Z</time>
      </trkpt>
      <trkpt lat="48.68178" lon="2.0327">
        <ele>162</ele>
        <time>2010-05-13T09:23:59Z</time>
      </trkpt>
      <trkpt lat="48.6818" lon="2.03268">
        <ele>162</ele>
        <time>2010-05-13T09:24:01Z</time>
      </trkpt>
      <trkpt lat="48.68182" lon="2.03267">
        <ele>162</ele>
        <time>2010-05-13T09:24:02Z</time>
      </trkpt>
      <trkpt lat="48.68184" lon="2.03266">
        <ele>162</ele>
        <time>2010-05-13T09:24:03Z</time>
      </trkpt>
      <trkpt lat="48.68185" lon="2.03264">
        <ele>162</ele>
        <time>2010-05-13T09:24:04Z</time>
      </trkpt>
      <trkpt lat="48.68187" lon="2.03263">
        <ele>162</ele>
        <time>2010-05-13T09:24:05Z</time>
      </trkpt>
      <trkpt lat="48.68188" lon="2.03262">
        <ele>162</ele>
        <time>2010-05-13T09:24:06Z</time>
      </trkpt>
      <trkpt lat="48.68191" lon="2.03261">
        <ele>162</ele>
        <time>2010-05-13T09:24:07Z</time>
      </trkpt>
      <trkpt lat="48.68194" lon="2.03261">
        <ele>162</ele>
        <time>2010-05-13T09:24:08Z</time>
      </trkpt>
      <trkpt lat="48.68195" lon="2.0326">
        <ele>162</ele>
        <time>2010-05-13T09:24:09Z</time>
      </trkpt>
      <trkpt lat="48.68197" lon="2.03259">
        <ele>162</ele>
        <time>2010-05-13T09:24:10Z</time>
      </trkpt>
      <trkpt lat="48.68199" lon="2.03258">
        <ele>162</ele>
        <time>2010-05-13T09:24:11Z</time>
      </trkpt>
      <trkpt lat="48.68201" lon="2.03257">
        <ele>162</ele>
        <time>2010-05-13T09:24:12Z</time>
      </trkpt>
      <trkpt lat="48.68203" lon="2.03256">
        <ele>162</ele>
        <time>2010-05-13T09:24:13Z</time>
      </trkpt>
      <trkpt lat="48.68207" lon="2.03255">
        <ele>162</ele>
        <time>2010-05-13T09:24:14Z</time>
      </trkpt>
      <trkpt lat="48.68209" lon="2.03254">
        <ele>162</ele>
        <time>2010-05-13T09:24:15Z</time>
      </trkpt>
      <trkpt lat="48.6821" lon="2.03252">
        <ele>162</ele>
        <time>2010-05-13T09:24:16Z</time>
      </trkpt>
      <trkpt lat="48.68211" lon="2.0325">
        <ele>162</ele>
        <time>2010-05-13T09:24:17Z</time>
      </trkpt>
      <trkpt lat="48.68213" lon="2.03249">
        <ele>162</ele>
        <time>2010-05-13T09:24:18Z</time>
      </trkpt>
      <trkpt lat="48.68214" lon="2.03247">
        <ele>162</ele>
        <time>2010-05-13T09:24:19Z</time>
      </trkpt>
      <trkpt lat="48.68214" lon="2.03245">
        <ele>162</ele>
        <time>2010-05-13T09:24:20Z</time>
      </trkpt>
      <trkpt lat="48.68213" lon="2.03243">
        <ele>162</ele>
        <time>2010-05-13T09:24:22Z</time>
      </trkpt>
      <trkpt lat="48.68211" lon="2.03243">
        <ele>162</ele>
        <time>2010-05-13T09:24:23Z</time>
      </trkpt>
      <trkpt lat="48.6821" lon="2.03242">
        <ele>162</ele>
        <time>2010-05-13T09:24:24Z</time>
      </trkpt>
      <trkpt lat="48.68211" lon="2.03243">
        <ele>164</ele>
        <time>2010-05-13T09:24:29Z</time>
      </trkpt>
      <trkpt lat="48.68213" lon="2.03243">
        <ele>164</ele>
        <time>2010-05-13T09:24:30Z</time>
      </trkpt>
      <trkpt lat="48.68214" lon="2.0324">
        <ele>164</ele>
        <time>2010-05-13T09:24:32Z</time>
      </trkpt>
      <trkpt lat="48.68215" lon="2.03238">
        <ele>165</ele>
        <time>2010-05-13T09:24:34Z</time>
      </trkpt>
      <trkpt lat="48.68217" lon="2.03236">
        <ele>166</ele>
        <time>2010-05-13T09:24:36Z</time>
      </trkpt>
      <trkpt lat="48.68215" lon="2.03234">
        <ele>166</ele>
        <time>2010-05-13T09:24:37Z</time>
      </trkpt>
      <trkpt lat="48.68217" lon="2.03233">
        <ele>166</ele>
        <time>2010-05-13T09:24:39Z</time>
      </trkpt>
      <trkpt lat="48.68218" lon="2.03232">
        <ele>166</ele>
        <time>2010-05-13T09:24:41Z</time>
      </trkpt>
      <trkpt lat="48.68218" lon="2.0323">
        <ele>167</ele>
        <time>2010-05-13T09:24:43Z</time>
      </trkpt>
      <trkpt lat="48.68218" lon="2.03228">
        <ele>169</ele>
        <time>2010-05-13T09:24:45Z</time>
      </trkpt>
      <trkpt lat="48.68217" lon="2.03225">
        <ele>169</ele>
        <time>2010-05-13T09:24:47Z</time>
      </trkpt>
      <trkpt lat="48.68219" lon="2.03225">
        <ele>169</ele>
        <time>2010-05-13T09:24:48Z</time>
      </trkpt>
      <trkpt lat="48.68217" lon="2.03222">
        <ele>169</ele>
        <time>2010-05-13T09:24:51Z</time>
      </trkpt>
      <trkpt lat="48.68218" lon="2.0322">
        <ele>167</ele>
        <time>2010-05-13T09:24:54Z</time>
      </trkpt>
      <trkpt lat="48.68219" lon="2.03217">
        <ele>167</ele>
        <time>2010-05-13T09:24:56Z</time>
      </trkpt>
      <trkpt lat="48.68219" lon="2.03215">
        <ele>167</ele>
        <time>2010-05-13T09:24:57Z</time>
      </trkpt>
      <trkpt lat="48.68221" lon="2.03213">
        <ele>167</ele>
        <time>2010-05-13T09:24:58Z</time>
      </trkpt>
      <trkpt lat="48.68222" lon="2.0321">
        <ele>167</ele>
        <time>2010-05-13T09:24:59Z</time>
      </trkpt>
      <trkpt lat="48.68223" lon="2.03205">
        <ele>167</ele>
        <time>2010-05-13T09:25:00Z</time>
      </trkpt>
      <trkpt lat="48.68224" lon="2.032">
        <ele>167</ele>
        <time>2010-05-13T09:25:01Z</time>
      </trkpt>
      <trkpt lat="48.68226" lon="2.03197">
        <ele>167</ele>
        <time>2010-05-13T09:25:02Z</time>
      </trkpt>
      <trkpt lat="48.68227" lon="2.03192">
        <ele>166</ele>
        <time>2010-05-13T09:25:03Z</time>
      </trkpt>
      <trkpt lat="48.68227" lon="2.03188">
        <ele>166</ele>
        <time>2010-05-13T09:25:04Z</time>
      </trkpt>
      <trkpt lat="48.68227" lon="2.03184">
        <ele>166</ele>
        <time>2010-05-13T09:25:05Z</time>
      </trkpt>
      <trkpt lat="48.68228" lon="2.03181">
        <ele>166</ele>
        <time>2010-05-13T09:25:06Z</time>
      </trkpt>
      <trkpt lat="48.68227" lon="2.03178">
        <ele>166</ele>
        <time>2010-05-13T09:25:07Z</time>
      </trkpt>
      <trkpt lat="48.68227" lon="2.03174">
        <ele>165</ele>
        <time>2010-05-13T09:25:08Z</time>
      </trkpt>
      <trkpt lat="48.68227" lon="2.03171">
        <ele>165</ele>
        <time>2010-05-13T09:25:09Z</time>
      </trkpt>
      <trkpt lat="48.68228" lon="2.03168">
        <ele>165</ele>
        <time>2010-05-13T09:25:10Z</time>
      </trkpt>
      <trkpt lat="48.68229" lon="2.03165">
        <ele>165</ele>
        <time>2010-05-13T09:25:11Z</time>
      </trkpt>
      <trkpt lat="48.68228" lon="2.03161">
        <ele>165</ele>
        <time>2010-05-13T09:25:12Z</time>
      </trkpt>
      <trkpt lat="48.68229" lon="2.03158">
        <ele>165</ele>
        <time>2010-05-13T09:25:13Z</time>
      </trkpt>
      <trkpt lat="48.68228" lon="2.03155">
        <ele>165</ele>
        <time>2010-05-13T09:25:14Z</time>
      </trkpt>
      <trkpt lat="48.68228" lon="2.03153">
        <ele>165</ele>
        <time>2010-05-13T09:25:15Z</time>
      </trkpt>
      <trkpt lat="48.68229" lon="2.03151">
        <ele>165</ele>
        <time>2010-05-13T09:25:16Z</time>
      </trkpt>
      <trkpt lat="48.68229" lon="2.03146">
        <ele>165</ele>
        <time>2010-05-13T09:25:19Z</time>
      </trkpt>
      <trkpt lat="48.6823" lon="2.03144">
        <ele>165</ele>
        <time>2010-05-13T09:25:20Z</time>
      </trkpt>
      <trkpt lat="48.68233" lon="2.03141">
        <ele>165</ele>
        <time>2010-05-13T09:25:22Z</time>
      </trkpt>
      <trkpt lat="48.68236" lon="2.03138">
        <ele>165</ele>
        <time>2010-05-13T09:25:23Z</time>
      </trkpt>
      <trkpt lat="48.68239" lon="2.03136">
        <ele>165</ele>
        <time>2010-05-13T09:25:24Z</time>
      </trkpt>
      <trkpt lat="48.68241" lon="2.03135">
        <ele>165</ele>
        <time>2010-05-13T09:25:26Z</time>
      </trkpt>
      <trkpt lat="48.68241" lon="2.03132">
        <ele>166</ele>
        <time>2010-05-13T09:25:27Z</time>
      </trkpt>
      <trkpt lat="48.68242" lon="2.03129">
        <ele>167</ele>
        <time>2010-05-13T09:25:28Z</time>
      </trkpt>
      <trkpt lat="48.68243" lon="2.03124">
        <ele>168</ele>
        <time>2010-05-13T09:25:29Z</time>
      </trkpt>
      <trkpt lat="48.68244" lon="2.03121">
        <ele>169</ele>
        <time>2010-05-13T09:25:30Z</time>
      </trkpt>
      <trkpt lat="48.68245" lon="2.03119">
        <ele>170</ele>
        <time>2010-05-13T09:25:31Z</time>
      </trkpt>
      <trkpt lat="48.68246" lon="2.03117">
        <ele>171</ele>
        <time>2010-05-13T09:25:32Z</time>
      </trkpt>
      <trkpt lat="48.68247" lon="2.03114">
        <ele>171</ele>
        <time>2010-05-13T09:25:33Z</time>
      </trkpt>
      <trkpt lat="48.6825" lon="2.03107">
        <ele>171</ele>
        <time>2010-05-13T09:25:36Z</time>
      </trkpt>
      <trkpt lat="48.6825" lon="2.03102">
        <ele>171</ele>
        <time>2010-05-13T09:25:37Z</time>
      </trkpt>
      <trkpt lat="48.68252" lon="2.03098">
        <ele>171</ele>
        <time>2010-05-13T09:25:38Z</time>
      </trkpt>
      <trkpt lat="48.68253" lon="2.03096">
        <ele>171</ele>
        <time>2010-05-13T09:25:39Z</time>
      </trkpt>
      <trkpt lat="48.68255" lon="2.03095">
        <ele>171</ele>
        <time>2010-05-13T09:25:40Z</time>
      </trkpt>
      <trkpt lat="48.68256" lon="2.03092">
        <ele>171</ele>
        <time>2010-05-13T09:25:41Z</time>
      </trkpt>
      <trkpt lat="48.68256" lon="2.0309">
        <ele>170</ele>
        <time>2010-05-13T09:25:43Z</time>
      </trkpt>
      <trkpt lat="48.68257" lon="2.03088">
        <ele>169</ele>
        <time>2010-05-13T09:25:44Z</time>
      </trkpt>
      <trkpt lat="48.68259" lon="2.03087">
        <ele>168</ele>
        <time>2010-05-13T09:25:46Z</time>
      </trkpt>
      <trkpt lat="48.68258" lon="2.03083">
        <ele>167</ele>
        <time>2010-05-13T09:25:47Z</time>
      </trkpt>
      <trkpt lat="48.68258" lon="2.03079">
        <ele>167</ele>
        <time>2010-05-13T09:25:48Z</time>
      </trkpt>
      <trkpt lat="48.68257" lon="2.03076">
        <ele>167</ele>
        <time>2010-05-13T09:25:49Z</time>
      </trkpt>
      <trkpt lat="48.68257" lon="2.03074">
        <ele>167</ele>
        <time>2010-05-13T09:25:50Z</time>
      </trkpt>
      <trkpt lat="48.68256" lon="2.03074">
        <ele>167</ele>
        <time>2010-05-13T09:25:53Z</time>
      </trkpt>
      <trkpt lat="48.68254" lon="2.03075">
        <ele>167</ele>
        <time>2010-05-13T09:25:56Z</time>
      </trkpt>
      <trkpt lat="48.68256" lon="2.03076">
        <ele>167</ele>
        <time>2010-05-13T09:25:57Z</time>
      </trkpt>
      <trkpt lat="48.68257" lon="2.03077">
        <ele>167</ele>
        <time>2010-05-13T09:25:58Z</time>
      </trkpt>
      <trkpt lat="48.68257" lon="2.03075">
        <ele>167</ele>
        <time>2010-05-13T09:26:01Z</time>
      </trkpt>
      <trkpt lat="48.68259" lon="2.03072">
        <ele>167</ele>
        <time>2010-05-13T09:26:03Z</time>
      </trkpt>
      <trkpt lat="48.68259" lon="2.03069">
        <ele>167</ele>
        <time>2010-05-13T09:26:05Z</time>
      </trkpt>
      <trkpt lat="48.68259" lon="2.03066">
        <ele>167</ele>
        <time>2010-05-13T09:26:07Z</time>
      </trkpt>
      <trkpt lat="48.68259" lon="2.03062">
        <ele>167</ele>
        <time>2010-05-13T09:26:10Z</time>
      </trkpt>
      <trkpt lat="48.6826" lon="2.0306">
        <ele>167</ele>
        <time>2010-05-13T09:26:11Z</time>
      </trkpt>
      <trkpt lat="48.68261" lon="2.03056">
        <ele>167</ele>
        <time>2010-05-13T09:26:12Z</time>
      </trkpt>
      <trkpt lat="48.68264" lon="2.03052">
        <ele>167</ele>
        <time>2010-05-13T09:26:14Z</time>
      </trkpt>
      <trkpt lat="48.68265" lon="2.03047">
        <ele>167</ele>
        <time>2010-05-13T09:26:15Z</time>
      </trkpt>
      <trkpt lat="48.68269" lon="2.03042">
        <ele>167</ele>
        <time>2010-05-13T09:26:18Z</time>
      </trkpt>
      <trkpt lat="48.68274" lon="2.03033">
        <ele>167</ele>
        <time>2010-05-13T09:26:19Z</time>
      </trkpt>
      <trkpt lat="48.68278" lon="2.0303">
        <ele>167</ele>
        <time>2010-05-13T09:26:20Z</time>
      </trkpt>
      <trkpt lat="48.68278" lon="2.03026">
        <ele>167</ele>
        <time>2010-05-13T09:26:21Z</time>
      </trkpt>
      <trkpt lat="48.68278" lon="2.03025">
        <ele>167</ele>
        <time>2010-05-13T09:26:22Z</time>
      </trkpt>
      <trkpt lat="48.6828" lon="2.03023">
        <ele>167</ele>
        <time>2010-05-13T09:26:23Z</time>
      </trkpt>
      <trkpt lat="48.68281" lon="2.03023">
        <ele>167</ele>
        <time>2010-05-13T09:26:24Z</time>
      </trkpt>
      <trkpt lat="48.68283" lon="2.03022">
        <ele>167</ele>
        <time>2010-05-13T09:26:25Z</time>
      </trkpt>
      <trkpt lat="48.68284" lon="2.0302">
        <ele>167</ele>
        <time>2010-05-13T09:26:26Z</time>
      </trkpt>
      <trkpt lat="48.68286" lon="2.03016">
        <ele>167</ele>
        <time>2010-05-13T09:26:29Z</time>
      </trkpt>
      <trkpt lat="48.68288" lon="2.03013">
        <ele>167</ele>
        <time>2010-05-13T09:26:30Z</time>
      </trkpt>
      <trkpt lat="48.68288" lon="2.03011">
        <ele>167</ele>
        <time>2010-05-13T09:26:31Z</time>
      </trkpt>
      <trkpt lat="48.68288" lon="2.03007">
        <ele>167</ele>
        <time>2010-05-13T09:26:32Z</time>
      </trkpt>
      <trkpt lat="48.68288" lon="2.03004">
        <ele>167</ele>
        <time>2010-05-13T09:26:33Z</time>
      </trkpt>
      <trkpt lat="48.68289" lon="2.02998">
        <ele>167</ele>
        <time>2010-05-13T09:26:38Z</time>
      </trkpt>
      <trkpt lat="48.68291" lon="2.02993">
        <ele>167</ele>
        <time>2010-05-13T09:26:41Z</time>
      </trkpt>
      <trkpt lat="48.68298" lon="2.0299">
        <ele>167</ele>
        <time>2010-05-13T09:26:42Z</time>
      </trkpt>
      <trkpt lat="48.68302" lon="2.02988">
        <ele>167</ele>
        <time>2010-05-13T09:26:43Z</time>
      </trkpt>
      <trkpt lat="48.68303" lon="2.02984">
        <ele>167</ele>
        <time>2010-05-13T09:26:44Z</time>
      </trkpt>
      <trkpt lat="48.68306" lon="2.02983">
        <ele>167</ele>
        <time>2010-05-13T09:26:45Z</time>
      </trkpt>
      <trkpt lat="48.68307" lon="2.02982">
        <ele>167</ele>
        <time>2010-05-13T09:26:46Z</time>
      </trkpt>
      <trkpt lat="48.68306" lon="2.02978">
        <ele>167</ele>
        <time>2010-05-13T09:26:47Z</time>
      </trkpt>
      <trkpt lat="48.68308" lon="2.02976">
        <ele>167</ele>
        <time>2010-05-13T09:26:48Z</time>
      </trkpt>
      <trkpt lat="48.68309" lon="2.02976">
        <ele>167</ele>
        <time>2010-05-13T09:26:49Z</time>
      </trkpt>
      <trkpt lat="48.6831" lon="2.02972">
        <ele>167</ele>
        <time>2010-05-13T09:26:51Z</time>
      </trkpt>
      <trkpt lat="48.68311" lon="2.0297">
        <ele>167</ele>
        <time>2010-05-13T09:26:52Z</time>
      </trkpt>
      <trkpt lat="48.68312" lon="2.02968">
        <ele>167</ele>
        <time>2010-05-13T09:26:53Z</time>
      </trkpt>
      <trkpt lat="48.68313" lon="2.02964">
        <ele>168</ele>
        <time>2010-05-13T09:26:55Z</time>
      </trkpt>
      <trkpt lat="48.68313" lon="2.02963">
        <ele>168</ele>
        <time>2010-05-13T09:26:56Z</time>
      </trkpt>
      <trkpt lat="48.68313" lon="2.0296">
        <ele>168</ele>
        <time>2010-05-13T09:26:57Z</time>
      </trkpt>
      <trkpt lat="48.68314" lon="2.02958">
        <ele>168</ele>
        <time>2010-05-13T09:26:58Z</time>
      </trkpt>
      <trkpt lat="48.68314" lon="2.02955">
        <ele>168</ele>
        <time>2010-05-13T09:26:59Z</time>
      </trkpt>
      <trkpt lat="48.68318" lon="2.02951">
        <ele>168</ele>
        <time>2010-05-13T09:27:02Z</time>
      </trkpt>
      <trkpt lat="48.68323" lon="2.02949">
        <ele>168</ele>
        <time>2010-05-13T09:27:03Z</time>
      </trkpt>
      <trkpt lat="48.68327" lon="2.02948">
        <ele>169</ele>
        <time>2010-05-13T09:27:06Z</time>
      </trkpt>
      <trkpt lat="48.68329" lon="2.02948">
        <ele>170</ele>
        <time>2010-05-13T09:27:07Z</time>
      </trkpt>
      <trkpt lat="48.68331" lon="2.02947">
        <ele>171</ele>
        <time>2010-05-13T09:27:09Z</time>
      </trkpt>
      <trkpt lat="48.68335" lon="2.02945">
        <ele>171</ele>
        <time>2010-05-13T09:27:11Z</time>
      </trkpt>
      <trkpt lat="48.68337" lon="2.02945">
        <ele>171</ele>
        <time>2010-05-13T09:27:12Z</time>
      </trkpt>
      <trkpt lat="48.6834" lon="2.02944">
        <ele>171</ele>
        <time>2010-05-13T09:27:13Z</time>
      </trkpt>
      <trkpt lat="48.68342" lon="2.02942">
        <ele>171</ele>
        <time>2010-05-13T09:27:15Z</time>
      </trkpt>
      <trkpt lat="48.68344" lon="2.02941">
        <ele>171</ele>
        <time>2010-05-13T09:27:16Z</time>
      </trkpt>
      <trkpt lat="48.68345" lon="2.02941">
        <ele>170</ele>
        <time>2010-05-13T09:27:17Z</time>
      </trkpt>
      <trkpt lat="48.68347" lon="2.02941">
        <ele>169</ele>
        <time>2010-05-13T09:27:18Z</time>
      </trkpt>
      <trkpt lat="48.68349" lon="2.02941">
        <ele>168</ele>
        <time>2010-05-13T09:27:19Z</time>
      </trkpt>
      <trkpt lat="48.68351" lon="2.02941">
        <ele>167</ele>
        <time>2010-05-13T09:27:20Z</time>
      </trkpt>
      <trkpt lat="48.68353" lon="2.0294">
        <ele>166</ele>
        <time>2010-05-13T09:27:21Z</time>
      </trkpt>
      <trkpt lat="48.68355" lon="2.0294">
        <ele>165</ele>
        <time>2010-05-13T09:27:22Z</time>
      </trkpt>
      <trkpt lat="48.68356" lon="2.02939">
        <ele>164</ele>
        <time>2010-05-13T09:27:23Z</time>
      </trkpt>
      <trkpt lat="48.68358" lon="2.02938">
        <ele>162</ele>
        <time>2010-05-13T09:27:25Z</time>
      </trkpt>
      <trkpt lat="48.6836" lon="2.02938">
        <ele>161</ele>
        <time>2010-05-13T09:27:26Z</time>
      </trkpt>
      <trkpt lat="48.68362" lon="2.02937">
        <ele>160</ele>
        <time>2010-05-13T09:27:27Z</time>
      </trkpt>
      <trkpt lat="48.68363" lon="2.02935">
        <ele>159</ele>
        <time>2010-05-13T09:27:28Z</time>
      </trkpt>
      <trkpt lat="48.68365" lon="2.02935">
        <ele>158</ele>
        <time>2010-05-13T09:27:29Z</time>
      </trkpt>
      <trkpt lat="48.68367" lon="2.02933">
        <ele>156</ele>
        <time>2010-05-13T09:27:31Z</time>
      </trkpt>
      <trkpt lat="48.68368" lon="2.02932">
        <ele>155</ele>
        <time>2010-05-13T09:27:32Z</time>
      </trkpt>
      <trkpt lat="48.68368" lon="2.0293">
        <ele>155</ele>
        <time>2010-05-13T09:27:33Z</time>
      </trkpt>
      <trkpt lat="48.68369" lon="2.02928">
        <ele>155</ele>
        <time>2010-05-13T09:27:34Z</time>
      </trkpt>
      <trkpt lat="48.6837" lon="2.02927">
        <ele>155</ele>
        <time>2010-05-13T09:27:35Z</time>
      </trkpt>
      <trkpt lat="48.68371" lon="2.02924">
        <ele>155</ele>
        <time>2010-05-13T09:27:36Z</time>
      </trkpt>
      <trkpt lat="48.68372" lon="2.02922">
        <ele>154</ele>
        <time>2010-05-13T09:27:37Z</time>
      </trkpt>
      <trkpt lat="48.68374" lon="2.0292">
        <ele>154</ele>
        <time>2010-05-13T09:27:39Z</time>
      </trkpt>
      <trkpt lat="48.68376" lon="2.02918">
        <ele>154</ele>
        <time>2010-05-13T09:27:40Z</time>
      </trkpt>
      <trkpt lat="48.68377" lon="2.02918">
        <ele>154</ele>
        <time>2010-05-13T09:27:41Z</time>
      </trkpt>
      <trkpt lat="48.68378" lon="2.02916">
        <ele>154</ele>
        <time>2010-05-13T09:27:42Z</time>
      </trkpt>
      <trkpt lat="48.68381" lon="2.02913">
        <ele>154</ele>
        <time>2010-05-13T09:27:44Z</time>
      </trkpt>
      <trkpt lat="48.68382" lon="2.02912">
        <ele>154</ele>
        <time>2010-05-13T09:27:45Z</time>
      </trkpt>
      <trkpt lat="48.68384" lon="2.02912">
        <ele>154</ele>
        <time>2010-05-13T09:27:46Z</time>
      </trkpt>
      <trkpt lat="48.68385" lon="2.02909">
        <ele>154</ele>
        <time>2010-05-13T09:27:47Z</time>
      </trkpt>
      <trkpt lat="48.68387" lon="2.02908">
        <ele>154</ele>
        <time>2010-05-13T09:27:48Z</time>
      </trkpt>
      <trkpt lat="48.68389" lon="2.02908">
        <ele>156</ele>
        <time>2010-05-13T09:27:50Z</time>
      </trkpt>
      <trkpt lat="48.6839" lon="2.0291">
        <ele>157</ele>
        <time>2010-05-13T09:27:51Z</time>
      </trkpt>
      <trkpt lat="48.68392" lon="2.02912">
        <ele>158</ele>
        <time>2010-05-13T09:27:52Z</time>
      </trkpt>
      <trkpt lat="48.68394" lon="2.02914">
        <ele>159</ele>
        <time>2010-05-13T09:27:53Z</time>
      </trkpt>
      <trkpt lat="48.68395" lon="2.02915">
        <ele>160</ele>
        <time>2010-05-13T09:27:54Z</time>
      </trkpt>
      <trkpt lat="48.68397" lon="2.02917">
        <ele>161</ele>
        <time>2010-05-13T09:27:55Z</time>
      </trkpt>
      <trkpt lat="48.68399" lon="2.02917">
        <ele>162</ele>
        <time>2010-05-13T09:27:56Z</time>
      </trkpt>
      <trkpt lat="48.68402" lon="2.02917">
        <ele>163</ele>
        <time>2010-05-13T09:27:57Z</time>
      </trkpt>
      <trkpt lat="48.68404" lon="2.02916">
        <ele>163</ele>
        <time>2010-05-13T09:27:58Z</time>
      </trkpt>
      <trkpt lat="48.68406" lon="2.02915">
        <ele>163</ele>
        <time>2010-05-13T09:27:59Z</time>
      </trkpt>
      <trkpt lat="48.68408" lon="2.02915">
        <ele>163</ele>
        <time>2010-05-13T09:28:00Z</time>
      </trkpt>
      <trkpt lat="48.68409" lon="2.02915">
        <ele>163</ele>
        <time>2010-05-13T09:28:01Z</time>
      </trkpt>
      <trkpt lat="48.6841" lon="2.02915">
        <ele>163</ele>
        <time>2010-05-13T09:28:03Z</time>
      </trkpt>
      <trkpt lat="48.68412" lon="2.02915">
        <ele>163</ele>
        <time>2010-05-13T09:28:04Z</time>
      </trkpt>
      <trkpt lat="48.68413" lon="2.02915">
        <ele>163</ele>
        <time>2010-05-13T09:28:06Z</time>
      </trkpt>
      <trkpt lat="48.68417" lon="2.02916">
        <ele>163</ele>
        <time>2010-05-13T09:28:09Z</time>
      </trkpt>
      <trkpt lat="48.6842" lon="2.02917">
        <ele>163</ele>
        <time>2010-05-13T09:28:10Z</time>
      </trkpt>
      <trkpt lat="48.68422" lon="2.02917">
        <ele>163</ele>
        <time>2010-05-13T09:28:11Z</time>
      </trkpt>
      <trkpt lat="48.68424" lon="2.02915">
        <ele>163</ele>
        <time>2010-05-13T09:28:12Z</time>
      </trkpt>
      <trkpt lat="48.68426" lon="2.02915">
        <ele>163</ele>
        <time>2010-05-13T09:28:13Z</time>
      </trkpt>
      <trkpt lat="48.68428" lon="2.02915">
        <ele>163</ele>
        <time>2010-05-13T09:28:14Z</time>
      </trkpt>
      <trkpt lat="48.68431" lon="2.02916">
        <ele>163</ele>
        <time>2010-05-13T09:28:15Z</time>
      </trkpt>
      <trkpt lat="48.68433" lon="2.02916">
        <ele>165</ele>
        <time>2010-05-13T09:28:18Z</time>
      </trkpt>
      <trkpt lat="48.68435" lon="2.02915">
        <ele>166</ele>
        <time>2010-05-13T09:28:19Z</time>
      </trkpt>
      <trkpt lat="48.68438" lon="2.02916">
        <ele>169</ele>
        <time>2010-05-13T09:28:22Z</time>
      </trkpt>
      <trkpt lat="48.6844" lon="2.02917">
        <ele>170</ele>
        <time>2010-05-13T09:28:23Z</time>
      </trkpt>
      <trkpt lat="48.68442" lon="2.02916">
        <ele>170</ele>
        <time>2010-05-13T09:28:24Z</time>
      </trkpt>
      <trkpt lat="48.68443" lon="2.02915">
        <ele>170</ele>
        <time>2010-05-13T09:28:25Z</time>
      </trkpt>
      <trkpt lat="48.68445" lon="2.02915">
        <ele>170</ele>
        <time>2010-05-13T09:28:26Z</time>
      </trkpt>
      <trkpt lat="48.68447" lon="2.02915">
        <ele>170</ele>
        <time>2010-05-13T09:28:27Z</time>
      </trkpt>
      <trkpt lat="48.68449" lon="2.02913">
        <ele>170</ele>
        <time>2010-05-13T09:28:28Z</time>
      </trkpt>
      <trkpt lat="48.68452" lon="2.02912">
        <ele>170</ele>
        <time>2010-05-13T09:28:29Z</time>
      </trkpt>
      <trkpt lat="48.68453" lon="2.02911">
        <ele>170</ele>
        <time>2010-05-13T09:28:30Z</time>
      </trkpt>
      <trkpt lat="48.68456" lon="2.02911">
        <ele>170</ele>
        <time>2010-05-13T09:28:31Z</time>
      </trkpt>
      <trkpt lat="48.68457" lon="2.02911">
        <ele>170</ele>
        <time>2010-05-13T09:28:32Z</time>
      </trkpt>
      <trkpt lat="48.68459" lon="2.02911">
        <ele>170</ele>
        <time>2010-05-13T09:28:33Z</time>
      </trkpt>
      <trkpt lat="48.68461" lon="2.02911">
        <ele>170</ele>
        <time>2010-05-13T09:28:34Z</time>
      </trkpt>
      <trkpt lat="48.68463" lon="2.0291">
        <ele>170</ele>
        <time>2010-05-13T09:28:35Z</time>
      </trkpt>
      <trkpt lat="48.68466" lon="2.02908">
        <ele>170</ele>
        <time>2010-05-13T09:28:36Z</time>
      </trkpt>
      <trkpt lat="48.68468" lon="2.02906">
        <ele>170</ele>
        <time>2010-05-13T09:28:37Z</time>
      </trkpt>
      <trkpt lat="48.6847" lon="2.02905">
        <ele>170</ele>
        <time>2010-05-13T09:28:38Z</time>
      </trkpt>
      <trkpt lat="48.68473" lon="2.02904">
        <ele>170</ele>
        <time>2010-05-13T09:28:39Z</time>
      </trkpt>
      <trkpt lat="48.68475" lon="2.02903">
        <ele>170</ele>
        <time>2010-05-13T09:28:40Z</time>
      </trkpt>
      <trkpt lat="48.68477" lon="2.02901">
        <ele>170</ele>
        <time>2010-05-13T09:28:42Z</time>
      </trkpt>
      <trkpt lat="48.6848" lon="2.02901">
        <ele>170</ele>
        <time>2010-05-13T09:28:43Z</time>
      </trkpt>
      <trkpt lat="48.68481" lon="2.02901">
        <ele>170</ele>
        <time>2010-05-13T09:28:44Z</time>
      </trkpt>
      <trkpt lat="48.68483" lon="2.02901">
        <ele>170</ele>
        <time>2010-05-13T09:28:45Z</time>
      </trkpt>
      <trkpt lat="48.68485" lon="2.02901">
        <ele>170</ele>
        <time>2010-05-13T09:28:46Z</time>
      </trkpt>
      <trkpt lat="48.68487" lon="2.02902">
        <ele>169</ele>
        <time>2010-05-13T09:28:47Z</time>
      </trkpt>
      <trkpt lat="48.68488" lon="2.02902">
        <ele>169</ele>
        <time>2010-05-13T09:28:48Z</time>
      </trkpt>
      <trkpt lat="48.68489" lon="2.02901">
        <ele>168</ele>
        <time>2010-05-13T09:28:49Z</time>
      </trkpt>
      <trkpt lat="48.68493" lon="2.029">
        <ele>166</ele>
        <time>2010-05-13T09:28:51Z</time>
      </trkpt>
      <trkpt lat="48.68494" lon="2.02899">
        <ele>166</ele>
        <time>2010-05-13T09:28:52Z</time>
      </trkpt>
      <trkpt lat="48.68496" lon="2.02901">
        <ele>166</ele>
        <time>2010-05-13T09:28:55Z</time>
      </trkpt>
      <trkpt lat="48.685" lon="2.02901">
        <ele>166</ele>
        <time>2010-05-13T09:28:56Z</time>
      </trkpt>
      <trkpt lat="48.68503" lon="2.029">
        <ele>165</ele>
        <time>2010-05-13T09:28:57Z</time>
      </trkpt>
      <trkpt lat="48.68504" lon="2.029">
        <ele>165</ele>
        <time>2010-05-13T09:28:58Z</time>
      </trkpt>
      <trkpt lat="48.68508" lon="2.02899">
        <ele>165</ele>
        <time>2010-05-13T09:29:00Z</time>
      </trkpt>
      <trkpt lat="48.68511" lon="2.02898">
        <ele>165</ele>
        <time>2010-05-13T09:29:01Z</time>
      </trkpt>
      <trkpt lat="48.68512" lon="2.02898">
        <ele>165</ele>
        <time>2010-05-13T09:29:02Z</time>
      </trkpt>
      <trkpt lat="48.68514" lon="2.02897">
        <ele>165</ele>
        <time>2010-05-13T09:29:03Z</time>
      </trkpt>
      <trkpt lat="48.68516" lon="2.02897">
        <ele>165</ele>
        <time>2010-05-13T09:29:04Z</time>
      </trkpt>
      <trkpt lat="48.68518" lon="2.02896">
        <ele>165</ele>
        <time>2010-05-13T09:29:06Z</time>
      </trkpt>
      <trkpt lat="48.68519" lon="2.02896">
        <ele>165</ele>
        <time>2010-05-13T09:29:07Z</time>
      </trkpt>
      <trkpt lat="48.68521" lon="2.02896">
        <ele>165</ele>
        <time>2010-05-13T09:29:09Z</time>
      </trkpt>
      <trkpt lat="48.68523" lon="2.02895">
        <ele>165</ele>
        <time>2010-05-13T09:29:10Z</time>
      </trkpt>
      <trkpt lat="48.68525" lon="2.02895">
        <ele>165</ele>
        <time>2010-05-13T09:29:11Z</time>
      </trkpt>
      <trkpt lat="48.68527" lon="2.02894">
        <ele>165</ele>
        <time>2010-05-13T09:29:12Z</time>
      </trkpt>
      <trkpt lat="48.68529" lon="2.02893">
        <ele>165</ele>
        <time>2010-05-13T09:29:14Z</time>
      </trkpt>
      <trkpt lat="48.68531" lon="2.02893">
        <ele>165</ele>
        <time>2010-05-13T09:29:15Z</time>
      </trkpt>
      <trkpt lat="48.68533" lon="2.02894">
        <ele>165</ele>
        <time>2010-05-13T09:29:16Z</time>
      </trkpt>
      <trkpt lat="48.68534" lon="2.02894">
        <ele>165</ele>
        <time>2010-05-13T09:29:17Z</time>
      </trkpt>
      <trkpt lat="48.68536" lon="2.02894">
        <ele>165</ele>
        <time>2010-05-13T09:29:18Z</time>
      </trkpt>
      <trkpt lat="48.68537" lon="2.02893">
        <ele>165</ele>
        <time>2010-05-13T09:29:19Z</time>
      </trkpt>
      <trkpt lat="48.68539" lon="2.02892">
        <ele>165</ele>
        <time>2010-05-13T09:29:20Z</time>
      </trkpt>
      <trkpt lat="48.6854" lon="2.02892">
        <ele>165</ele>
        <time>2010-05-13T09:29:21Z</time>
      </trkpt>
      <trkpt lat="48.68543" lon="2.02891">
        <ele>165</ele>
        <time>2010-05-13T09:29:22Z</time>
      </trkpt>
      <trkpt lat="48.68545" lon="2.02891">
        <ele>165</ele>
        <time>2010-05-13T09:29:23Z</time>
      </trkpt>
      <trkpt lat="48.68548" lon="2.02891">
        <ele>165</ele>
        <time>2010-05-13T09:29:24Z</time>
      </trkpt>
      <trkpt lat="48.6855" lon="2.02891">
        <ele>165</ele>
        <time>2010-05-13T09:29:25Z</time>
      </trkpt>
      <trkpt lat="48.68552" lon="2.02892">
        <ele>165</ele>
        <time>2010-05-13T09:29:26Z</time>
      </trkpt>
      <trkpt lat="48.68554" lon="2.02891">
        <ele>165</ele>
        <time>2010-05-13T09:29:27Z</time>
      </trkpt>
      <trkpt lat="48.68558" lon="2.02891">
        <ele>165</ele>
        <time>2010-05-13T09:29:28Z</time>
      </trkpt>
      <trkpt lat="48.68559" lon="2.0289">
        <ele>165</ele>
        <time>2010-05-13T09:29:29Z</time>
      </trkpt>
      <trkpt lat="48.68562" lon="2.02889">
        <ele>165</ele>
        <time>2010-05-13T09:29:32Z</time>
      </trkpt>
      <trkpt lat="48.68566" lon="2.02889">
        <ele>165</ele>
        <time>2010-05-13T09:29:33Z</time>
      </trkpt>
      <trkpt lat="48.68567" lon="2.02889">
        <ele>165</ele>
        <time>2010-05-13T09:29:34Z</time>
      </trkpt>
      <trkpt lat="48.68568" lon="2.02888">
        <ele>165</ele>
        <time>2010-05-13T09:29:35Z</time>
      </trkpt>
      <trkpt lat="48.68569" lon="2.02887">
        <ele>165</ele>
        <time>2010-05-13T09:29:36Z</time>
      </trkpt>
      <trkpt lat="48.68571" lon="2.02885">
        <ele>165</ele>
        <time>2010-05-13T09:29:37Z</time>
      </trkpt>
      <trkpt lat="48.68574" lon="2.02885">
        <ele>165</ele>
        <time>2010-05-13T09:29:38Z</time>
      </trkpt>
      <trkpt lat="48.68577" lon="2.02885">
        <ele>165</ele>
        <time>2010-05-13T09:29:39Z</time>
      </trkpt>
      <trkpt lat="48.68579" lon="2.02884">
        <ele>165</ele>
        <time>2010-05-13T09:29:40Z</time>
      </trkpt>
      <trkpt lat="48.68581" lon="2.02884">
        <ele>165</ele>
        <time>2010-05-13T09:29:41Z</time>
      </trkpt>
      <trkpt lat="48.68584" lon="2.02884">
        <ele>165</ele>
        <time>2010-05-13T09:29:42Z</time>
      </trkpt>
      <trkpt lat="48.68586" lon="2.02883">
        <ele>165</ele>
        <time>2010-05-13T09:29:43Z</time>
      </trkpt>
      <trkpt lat="48.68588" lon="2.02883">
        <ele>165</ele>
        <time>2010-05-13T09:29:44Z</time>
      </trkpt>
      <trkpt lat="48.68594" lon="2.02882">
        <ele>165</ele>
        <time>2010-05-13T09:29:47Z</time>
      </trkpt>
      <trkpt lat="48.68597" lon="2.0288">
        <ele>165</ele>
        <time>2010-05-13T09:29:48Z</time>
      </trkpt>
      <trkpt lat="48.686" lon="2.02881">
        <ele>165</ele>
        <time>2010-05-13T09:29:49Z</time>
      </trkpt>
      <trkpt lat="48.68604" lon="2.02881">
        <ele>165</ele>
        <time>2010-05-13T09:29:50Z</time>
      </trkpt>
      <trkpt lat="48.68607" lon="2.02879">
        <ele>165</ele>
        <time>2010-05-13T09:29:51Z</time>
      </trkpt>
      <trkpt lat="48.68609" lon="2.02877">
        <ele>165</ele>
        <time>2010-05-13T09:29:52Z</time>
      </trkpt>
      <trkpt lat="48.68611" lon="2.02876">
        <ele>165</ele>
        <time>2010-05-13T09:29:53Z</time>
      </trkpt>
      <trkpt lat="48.68613" lon="2.02875">
        <ele>165</ele>
        <time>2010-05-13T09:29:55Z</time>
      </trkpt>
      <trkpt lat="48.6862" lon="2.02872">
        <ele>165</ele>
        <time>2010-05-13T09:29:59Z</time>
      </trkpt>
      <trkpt lat="48.68625" lon="2.02869">
        <ele>165</ele>
        <time>2010-05-13T09:30:00Z</time>
      </trkpt>
      <trkpt lat="48.68628" lon="2.02868">
        <ele>165</ele>
        <time>2010-05-13T09:30:01Z</time>
      </trkpt>
      <trkpt lat="48.68629" lon="2.02868">
        <ele>165</ele>
        <time>2010-05-13T09:30:02Z</time>
      </trkpt>
      <trkpt lat="48.68631" lon="2.02868">
        <ele>165</ele>
        <time>2010-05-13T09:30:03Z</time>
      </trkpt>
      <trkpt lat="48.68633" lon="2.02866">
        <ele>165</ele>
        <time>2010-05-13T09:30:05Z</time>
      </trkpt>
      <trkpt lat="48.68635" lon="2.02867">
        <ele>165</ele>
        <time>2010-05-13T09:30:06Z</time>
      </trkpt>
      <trkpt lat="48.68638" lon="2.02867">
        <ele>165</ele>
        <time>2010-05-13T09:30:07Z</time>
      </trkpt>
      <trkpt lat="48.6864" lon="2.02868">
        <ele>165</ele>
        <time>2010-05-13T09:30:08Z</time>
      </trkpt>
      <trkpt lat="48.68642" lon="2.02869">
        <ele>165</ele>
        <time>2010-05-13T09:30:09Z</time>
      </trkpt>
      <trkpt lat="48.68643" lon="2.02871">
        <ele>166</ele>
        <time>2010-05-13T09:30:10Z</time>
      </trkpt>
      <trkpt lat="48.68645" lon="2.02871">
        <ele>166</ele>
        <time>2010-05-13T09:30:11Z</time>
      </trkpt>
      <trkpt lat="48.68648" lon="2.02873">
        <ele>166</ele>
        <time>2010-05-13T09:30:12Z</time>
      </trkpt>
      <trkpt lat="48.6865" lon="2.02874">
        <ele>166</ele>
        <time>2010-05-13T09:30:14Z</time>
      </trkpt>
      <trkpt lat="48.68651" lon="2.02874">
        <ele>166</ele>
        <time>2010-05-13T09:30:15Z</time>
      </trkpt>
      <trkpt lat="48.68653" lon="2.02875">
        <ele>167</ele>
        <time>2010-05-13T09:30:17Z</time>
      </trkpt>
      <trkpt lat="48.68657" lon="2.02875">
        <ele>167</ele>
        <time>2010-05-13T09:30:18Z</time>
      </trkpt>
      <trkpt lat="48.68659" lon="2.02876">
        <ele>168</ele>
        <time>2010-05-13T09:30:20Z</time>
      </trkpt>
      <trkpt lat="48.68662" lon="2.02876">
        <ele>168</ele>
        <time>2010-05-13T09:30:22Z</time>
      </trkpt>
      <trkpt lat="48.68664" lon="2.02876">
        <ele>168</ele>
        <time>2010-05-13T09:30:23Z</time>
      </trkpt>
      <trkpt lat="48.68667" lon="2.02876">
        <ele>168</ele>
        <time>2010-05-13T09:30:24Z</time>
      </trkpt>
      <trkpt lat="48.68669" lon="2.02875">
        <ele>168</ele>
        <time>2010-05-13T09:30:25Z</time>
      </trkpt>
      <trkpt lat="48.68672" lon="2.02876">
        <ele>168</ele>
        <time>2010-05-13T09:30:26Z</time>
      </trkpt>
      <trkpt lat="48.68676" lon="2.02877">
        <ele>168</ele>
        <time>2010-05-13T09:30:27Z</time>
      </trkpt>
      <trkpt lat="48.68679" lon="2.02878">
        <ele>168</ele>
        <time>2010-05-13T09:30:28Z</time>
      </trkpt>
      <trkpt lat="48.68682" lon="2.0288">
        <ele>168</ele>
        <time>2010-05-13T09:30:29Z</time>
      </trkpt>
      <trkpt lat="48.68684" lon="2.02881">
        <ele>168</ele>
        <time>2010-05-13T09:30:30Z</time>
      </trkpt>
      <trkpt lat="48.6869" lon="2.02883">
        <ele>168</ele>
        <time>2010-05-13T09:30:31Z</time>
      </trkpt>
      <trkpt lat="48.68692" lon="2.02884">
        <ele>168</ele>
        <time>2010-05-13T09:30:32Z</time>
      </trkpt>
      <trkpt lat="48.68695" lon="2.02885">
        <ele>168</ele>
        <time>2010-05-13T09:30:33Z</time>
      </trkpt>
      <trkpt lat="48.68698" lon="2.02884">
        <ele>168</ele>
        <time>2010-05-13T09:30:34Z</time>
      </trkpt>
      <trkpt lat="48.68701" lon="2.02884">
        <ele>168</ele>
        <time>2010-05-13T09:30:35Z</time>
      </trkpt>
      <trkpt lat="48.68704" lon="2.02884">
        <ele>168</ele>
        <time>2010-05-13T09:30:36Z</time>
      </trkpt>
      <trkpt lat="48.68709" lon="2.02883">
        <ele>168</ele>
        <time>2010-05-13T09:30:37Z</time>
      </trkpt>
      <trkpt lat="48.68712" lon="2.02881">
        <ele>168</ele>
        <time>2010-05-13T09:30:38Z</time>
      </trkpt>
      <trkpt lat="48.68717" lon="2.0288">
        <ele>168</ele>
        <time>2010-05-13T09:30:39Z</time>
      </trkpt>
      <trkpt lat="48.68721" lon="2.02879">
        <ele>168</ele>
        <time>2010-05-13T09:30:40Z</time>
      </trkpt>
      <trkpt lat="48.68724" lon="2.02879">
        <ele>168</ele>
        <time>2010-05-13T09:30:41Z</time>
      </trkpt>
      <trkpt lat="48.68728" lon="2.02879">
        <ele>168</ele>
        <time>2010-05-13T09:30:42Z</time>
      </trkpt>
      <trkpt lat="48.68734" lon="2.02879">
        <ele>168</ele>
        <time>2010-05-13T09:30:43Z</time>
      </trkpt>
      <trkpt lat="48.68739" lon="2.02878">
        <ele>168</ele>
        <time>2010-05-13T09:30:44Z</time>
      </trkpt>
      <trkpt lat="48.68743" lon="2.02876">
        <ele>168</ele>
        <time>2010-05-13T09:30:45Z</time>
      </trkpt>
      <trkpt lat="48.68747" lon="2.02875">
        <ele>167</ele>
        <time>2010-05-13T09:30:46Z</time>
      </trkpt>
      <trkpt lat="48.68751" lon="2.02874">
        <ele>166</ele>
        <time>2010-05-13T09:30:47Z</time>
      </trkpt>
      <trkpt lat="48.68755" lon="2.02873">
        <ele>166</ele>
        <time>2010-05-13T09:30:48Z</time>
      </trkpt>
      <trkpt lat="48.68758" lon="2.02873">
        <ele>165</ele>
        <time>2010-05-13T09:30:49Z</time>
      </trkpt>
      <trkpt lat="48.68763" lon="2.02872">
        <ele>165</ele>
        <time>2010-05-13T09:30:50Z</time>
      </trkpt>
      <trkpt lat="48.68766" lon="2.02869">
        <ele>165</ele>
        <time>2010-05-13T09:30:51Z</time>
      </trkpt>
      <trkpt lat="48.68768" lon="2.02868">
        <ele>165</ele>
        <time>2010-05-13T09:30:52Z</time>
      </trkpt>
      <trkpt lat="48.68772" lon="2.02866">
        <ele>165</ele>
        <time>2010-05-13T09:30:53Z</time>
      </trkpt>
      <trkpt lat="48.68774" lon="2.02865">
        <ele>165</ele>
        <time>2010-05-13T09:30:54Z</time>
      </trkpt>
      <trkpt lat="48.68777" lon="2.02863">
        <ele>165</ele>
        <time>2010-05-13T09:30:55Z</time>
      </trkpt>
      <trkpt lat="48.68783" lon="2.02861">
        <ele>165</ele>
        <time>2010-05-13T09:30:56Z</time>
      </trkpt>
      <trkpt lat="48.68784" lon="2.02859">
        <ele>165</ele>
        <time>2010-05-13T09:30:57Z</time>
      </trkpt>
      <trkpt lat="48.68787" lon="2.02856">
        <ele>165</ele>
        <time>2010-05-13T09:30:58Z</time>
      </trkpt>
      <trkpt lat="48.68788" lon="2.02855">
        <ele>165</ele>
        <time>2010-05-13T09:30:59Z</time>
      </trkpt>
      <trkpt lat="48.68791" lon="2.02853">
        <ele>165</ele>
        <time>2010-05-13T09:31:00Z</time>
      </trkpt>
      <trkpt lat="48.68794" lon="2.0285">
        <ele>165</ele>
        <time>2010-05-13T09:31:01Z</time>
      </trkpt>
      <trkpt lat="48.68797" lon="2.02848">
        <ele>165</ele>
        <time>2010-05-13T09:31:02Z</time>
      </trkpt>
      <trkpt lat="48.688" lon="2.02845">
        <ele>164</ele>
        <time>2010-05-13T09:31:03Z</time>
      </trkpt>
      <trkpt lat="48.68802" lon="2.02842">
        <ele>163</ele>
        <time>2010-05-13T09:31:04Z</time>
      </trkpt>
      <trkpt lat="48.6881" lon="2.02837">
        <ele>161</ele>
        <time>2010-05-13T09:31:06Z</time>
      </trkpt>
      <trkpt lat="48.68824" lon="2.02828">
        <ele>160</ele>
        <time>2010-05-13T09:31:10Z</time>
      </trkpt>
      <trkpt lat="48.68831" lon="2.02823">
        <ele>159</ele>
        <time>2010-05-13T09:31:11Z</time>
      </trkpt>
      <trkpt lat="48.68835" lon="2.02821">
        <ele>158</ele>
        <time>2010-05-13T09:31:12Z</time>
      </trkpt>
      <trkpt lat="48.68843" lon="2.02821">
        <ele>157</ele>
        <time>2010-05-13T09:31:13Z</time>
      </trkpt>
      <trkpt lat="48.68847" lon="2.02821">
        <ele>156</ele>
        <time>2010-05-13T09:31:14Z</time>
      </trkpt>
      <trkpt lat="48.68854" lon="2.02816">
        <ele>156</ele>
        <time>2010-05-13T09:31:17Z</time>
      </trkpt>
      <trkpt lat="48.68856" lon="2.0281">
        <ele>156</ele>
        <time>2010-05-13T09:31:18Z</time>
      </trkpt>
      <trkpt lat="48.68861" lon="2.02808">
        <ele>156</ele>
        <time>2010-05-13T09:31:19Z</time>
      </trkpt>
      <trkpt lat="48.68863" lon="2.02807">
        <ele>156</ele>
        <time>2010-05-13T09:31:20Z</time>
      </trkpt>
      <trkpt lat="48.68868" lon="2.02804">
        <ele>156</ele>
        <time>2010-05-13T09:31:23Z</time>
      </trkpt>
      <trkpt lat="48.68871" lon="2.02798">
        <ele>156</ele>
        <time>2010-05-13T09:31:24Z</time>
      </trkpt>
      <trkpt lat="48.6888" lon="2.02793">
        <ele>156</ele>
        <time>2010-05-13T09:31:27Z</time>
      </trkpt>
      <trkpt lat="48.68888" lon="2.02793">
        <ele>156</ele>
        <time>2010-05-13T09:31:28Z</time>
      </trkpt>
      <trkpt lat="48.68893" lon="2.02796">
        <ele>156</ele>
        <time>2010-05-13T09:31:29Z</time>
      </trkpt>
      <trkpt lat="48.68894" lon="2.02797">
        <ele>156</ele>
        <time>2010-05-13T09:31:30Z</time>
      </trkpt>
      <trkpt lat="48.68896" lon="2.02797">
        <ele>156</ele>
        <time>2010-05-13T09:31:31Z</time>
      </trkpt>
      <trkpt lat="48.68898" lon="2.02796">
        <ele>156</ele>
        <time>2010-05-13T09:31:32Z</time>
      </trkpt>
      <trkpt lat="48.68899" lon="2.02797">
        <ele>156</ele>
        <time>2010-05-13T09:31:33Z</time>
      </trkpt>
      <trkpt lat="48.689" lon="2.02797">
        <ele>156</ele>
        <time>2010-05-13T09:31:34Z</time>
      </trkpt>
      <trkpt lat="48.68903" lon="2.02796">
        <ele>156</ele>
        <time>2010-05-13T09:31:36Z</time>
      </trkpt>
      <trkpt lat="48.68904" lon="2.02796">
        <ele>156</ele>
        <time>2010-05-13T09:31:37Z</time>
      </trkpt>
      <trkpt lat="48.68907" lon="2.02797">
        <ele>156</ele>
        <time>2010-05-13T09:31:38Z</time>
      </trkpt>
      <trkpt lat="48.68908" lon="2.02799">
        <ele>156</ele>
        <time>2010-05-13T09:31:39Z</time>
      </trkpt>
      <trkpt lat="48.68911" lon="2.02801">
        <ele>156</ele>
        <time>2010-05-13T09:31:42Z</time>
      </trkpt>
      <trkpt lat="48.68918" lon="2.02806">
        <ele>156</ele>
        <time>2010-05-13T09:31:46Z</time>
      </trkpt>
      <trkpt lat="48.6892" lon="2.02805">
        <ele>157</ele>
        <time>2010-05-13T09:31:47Z</time>
      </trkpt>
      <trkpt lat="48.68922" lon="2.02806">
        <ele>157</ele>
        <time>2010-05-13T09:31:48Z</time>
      </trkpt>
      <trkpt lat="48.68923" lon="2.02808">
        <ele>157</ele>
        <time>2010-05-13T09:31:50Z</time>
      </trkpt>
      <trkpt lat="48.68925" lon="2.02807">
        <ele>157</ele>
        <time>2010-05-13T09:31:51Z</time>
      </trkpt>
      <trkpt lat="48.68928" lon="2.02807">
        <ele>157</ele>
        <time>2010-05-13T09:31:52Z</time>
      </trkpt>
      <trkpt lat="48.68932" lon="2.02805">
        <ele>157</ele>
        <time>2010-05-13T09:31:55Z</time>
      </trkpt>
      <trkpt lat="48.68939" lon="2.028">
        <ele>157</ele>
        <time>2010-05-13T09:31:56Z</time>
      </trkpt>
      <trkpt lat="48.68943" lon="2.02797">
        <ele>157</ele>
        <time>2010-05-13T09:31:57Z</time>
      </trkpt>
      <trkpt lat="48.68945" lon="2.02795">
        <ele>157</ele>
        <time>2010-05-13T09:31:58Z</time>
      </trkpt>
      <trkpt lat="48.68948" lon="2.02794">
        <ele>157</ele>
        <time>2010-05-13T09:31:59Z</time>
      </trkpt>
      <trkpt lat="48.68949" lon="2.02792">
        <ele>157</ele>
        <time>2010-05-13T09:32:00Z</time>
      </trkpt>
      <trkpt lat="48.68953" lon="2.02788">
        <ele>157</ele>
        <time>2010-05-13T09:32:03Z</time>
      </trkpt>
      <trkpt lat="48.68958" lon="2.02784">
        <ele>157</ele>
        <time>2010-05-13T09:32:04Z</time>
      </trkpt>
      <trkpt lat="48.68961" lon="2.02783">
        <ele>157</ele>
        <time>2010-05-13T09:32:05Z</time>
      </trkpt>
      <trkpt lat="48.68964" lon="2.02782">
        <ele>157</ele>
        <time>2010-05-13T09:32:06Z</time>
      </trkpt>
      <trkpt lat="48.68969" lon="2.0278">
        <ele>157</ele>
        <time>2010-05-13T09:32:07Z</time>
      </trkpt>
      <trkpt lat="48.68974" lon="2.02779">
        <ele>157</ele>
        <time>2010-05-13T09:32:08Z</time>
      </trkpt>
      <trkpt lat="48.68979" lon="2.02781">
        <ele>157</ele>
        <time>2010-05-13T09:32:09Z</time>
      </trkpt>
      <trkpt lat="48.68983" lon="2.02781">
        <ele>157</ele>
        <time>2010-05-13T09:32:10Z</time>
      </trkpt>
      <trkpt lat="48.68986" lon="2.0278">
        <ele>158</ele>
        <time>2010-05-13T09:32:11Z</time>
      </trkpt>
      <trkpt lat="48.68989" lon="2.02781">
        <ele>158</ele>
        <time>2010-05-13T09:32:12Z</time>
      </trkpt>
      <trkpt lat="48.68991" lon="2.02781">
        <ele>158</ele>
        <time>2010-05-13T09:32:13Z</time>
      </trkpt>
      <trkpt lat="48.68995" lon="2.0278">
        <ele>158</ele>
        <time>2010-05-13T09:32:14Z</time>
      </trkpt>
      <trkpt lat="48.68998" lon="2.02779">
        <ele>158</ele>
        <time>2010-05-13T09:32:15Z</time>
      </trkpt>
      <trkpt lat="48.69001" lon="2.02778">
        <ele>158</ele>
        <time>2010-05-13T09:32:16Z</time>
      </trkpt>
      <trkpt lat="48.69005" lon="2.02776">
        <ele>158</ele>
        <time>2010-05-13T09:32:17Z</time>
      </trkpt>
      <trkpt lat="48.69014" lon="2.02768">
        <ele>158</ele>
        <time>2010-05-13T09:32:20Z</time>
      </trkpt>
      <trkpt lat="48.6902" lon="2.02766">
        <ele>157</ele>
        <time>2010-05-13T09:32:21Z</time>
      </trkpt>
      <trkpt lat="48.69024" lon="2.02763">
        <ele>156</ele>
        <time>2010-05-13T09:32:22Z</time>
      </trkpt>
      <trkpt lat="48.69027" lon="2.02763">
        <ele>155</ele>
        <time>2010-05-13T09:32:23Z</time>
      </trkpt>
      <trkpt lat="48.69031" lon="2.02761">
        <ele>154</ele>
        <time>2010-05-13T09:32:24Z</time>
      </trkpt>
      <trkpt lat="48.69034" lon="2.02761">
        <ele>153</ele>
        <time>2010-05-13T09:32:25Z</time>
      </trkpt>
      <trkpt lat="48.69035" lon="2.02763">
        <ele>153</ele>
        <time>2010-05-13T09:32:26Z</time>
      </trkpt>
      <trkpt lat="48.69037" lon="2.02764">
        <ele>153</ele>
        <time>2010-05-13T09:32:28Z</time>
      </trkpt>
      <trkpt lat="48.69038" lon="2.02763">
        <ele>153</ele>
        <time>2010-05-13T09:32:29Z</time>
      </trkpt>
      <trkpt lat="48.69038" lon="2.02761">
        <ele>153</ele>
        <time>2010-05-13T09:32:30Z</time>
      </trkpt>
      <trkpt lat="48.69041" lon="2.02754">
        <ele>153</ele>
        <time>2010-05-13T09:32:33Z</time>
      </trkpt>
      <trkpt lat="48.69044" lon="2.02752">
        <ele>153</ele>
        <time>2010-05-13T09:32:34Z</time>
      </trkpt>
      <trkpt lat="48.69046" lon="2.0275">
        <ele>153</ele>
        <time>2010-05-13T09:32:35Z</time>
      </trkpt>
      <trkpt lat="48.69046" lon="2.02748">
        <ele>153</ele>
        <time>2010-05-13T09:32:36Z</time>
      </trkpt>
      <trkpt lat="48.69048" lon="2.02745">
        <ele>153</ele>
        <time>2010-05-13T09:32:37Z</time>
      </trkpt>
      <trkpt lat="48.69051" lon="2.02743">
        <ele>153</ele>
        <time>2010-05-13T09:32:39Z</time>
      </trkpt>
      <trkpt lat="48.69052" lon="2.02741">
        <ele>153</ele>
        <time>2010-05-13T09:32:40Z</time>
      </trkpt>
      <trkpt lat="48.69054" lon="2.02739">
        <ele>153</ele>
        <time>2010-05-13T09:32:41Z</time>
      </trkpt>
      <trkpt lat="48.69055" lon="2.02737">
        <ele>153</ele>
        <time>2010-05-13T09:32:42Z</time>
      </trkpt>
      <trkpt lat="48.69057" lon="2.02734">
        <ele>153</ele>
        <time>2010-05-13T09:32:43Z</time>
      </trkpt>
      <trkpt lat="48.69057" lon="2.02732">
        <ele>153</ele>
        <time>2010-05-13T09:32:44Z</time>
      </trkpt>
      <trkpt lat="48.69057" lon="2.02729">
        <ele>153</ele>
        <time>2010-05-13T09:32:45Z</time>
      </trkpt>
      <trkpt lat="48.69058" lon="2.02727">
        <ele>153</ele>
        <time>2010-05-13T09:32:46Z</time>
      </trkpt>
      <trkpt lat="48.69059" lon="2.02724">
        <ele>153</ele>
        <time>2010-05-13T09:32:47Z</time>
      </trkpt>
      <trkpt lat="48.6906" lon="2.02722">
        <ele>153</ele>
        <time>2010-05-13T09:32:50Z</time>
      </trkpt>
      <trkpt lat="48.69064" lon="2.02719">
        <ele>153</ele>
        <time>2010-05-13T09:32:51Z</time>
      </trkpt>
      <trkpt lat="48.69067" lon="2.02714">
        <ele>153</ele>
        <time>2010-05-13T09:32:54Z</time>
      </trkpt>
      <trkpt lat="48.69073" lon="2.02711">
        <ele>153</ele>
        <time>2010-05-13T09:32:55Z</time>
      </trkpt>
      <trkpt lat="48.69077" lon="2.02711">
        <ele>153</ele>
        <time>2010-05-13T09:32:56Z</time>
      </trkpt>
      <trkpt lat="48.69079" lon="2.0271">
        <ele>153</ele>
        <time>2010-05-13T09:32:57Z</time>
      </trkpt>
      <trkpt lat="48.69079" lon="2.02708">
        <ele>153</ele>
        <time>2010-05-13T09:32:58Z</time>
      </trkpt>
      <trkpt lat="48.69081" lon="2.02707">
        <ele>153</ele>
        <time>2010-05-13T09:32:59Z</time>
      </trkpt>
      <trkpt lat="48.69082" lon="2.02705">
        <ele>153</ele>
        <time>2010-05-13T09:33:00Z</time>
      </trkpt>
      <trkpt lat="48.69083" lon="2.02702">
        <ele>153</ele>
        <time>2010-05-13T09:33:02Z</time>
      </trkpt>
      <trkpt lat="48.69084" lon="2.027">
        <ele>153</ele>
        <time>2010-05-13T09:33:03Z</time>
      </trkpt>
      <trkpt lat="48.69084" lon="2.02698">
        <ele>153</ele>
        <time>2010-05-13T09:33:04Z</time>
      </trkpt>
      <trkpt lat="48.69085" lon="2.02697">
        <ele>153</ele>
        <time>2010-05-13T09:33:05Z</time>
      </trkpt>
      <trkpt lat="48.69086" lon="2.02695">
        <ele>153</ele>
        <time>2010-05-13T09:33:07Z</time>
      </trkpt>
      <trkpt lat="48.69087" lon="2.02695">
        <ele>153</ele>
        <time>2010-05-13T09:33:08Z</time>
      </trkpt>
      <trkpt lat="48.69089" lon="2.02694">
        <ele>153</ele>
        <time>2010-05-13T09:33:09Z</time>
      </trkpt>
      <trkpt lat="48.69091" lon="2.02693">
        <ele>153</ele>
        <time>2010-05-13T09:33:14Z</time>
      </trkpt>
      <trkpt lat="48.69092" lon="2.02691">
        <ele>153</ele>
        <time>2010-05-13T09:33:15Z</time>
      </trkpt>
      <trkpt lat="48.69093" lon="2.02689">
        <ele>153</ele>
        <time>2010-05-13T09:33:16Z</time>
      </trkpt>
      <trkpt lat="48.69097" lon="2.02684">
        <ele>153</ele>
        <time>2010-05-13T09:33:18Z</time>
      </trkpt>
      <trkpt lat="48.69101" lon="2.02682">
        <ele>152</ele>
        <time>2010-05-13T09:33:19Z</time>
      </trkpt>
      <trkpt lat="48.69104" lon="2.0268">
        <ele>151</ele>
        <time>2010-05-13T09:33:20Z</time>
      </trkpt>
      <trkpt lat="48.69107" lon="2.02678">
        <ele>150</ele>
        <time>2010-05-13T09:33:21Z</time>
      </trkpt>
      <trkpt lat="48.6911" lon="2.02677">
        <ele>149</ele>
        <time>2010-05-13T09:33:22Z</time>
      </trkpt>
      <trkpt lat="48.69111" lon="2.02676">
        <ele>148</ele>
        <time>2010-05-13T09:33:23Z</time>
      </trkpt>
      <trkpt lat="48.69113" lon="2.02674">
        <ele>147</ele>
        <time>2010-05-13T09:33:24Z</time>
      </trkpt>
      <trkpt lat="48.69115" lon="2.02674">
        <ele>146</ele>
        <time>2010-05-13T09:33:25Z</time>
      </trkpt>
      <trkpt lat="48.69116" lon="2.02673">
        <ele>146</ele>
        <time>2010-05-13T09:33:26Z</time>
      </trkpt>
      <trkpt lat="48.69119" lon="2.02674">
        <ele>145</ele>
        <time>2010-05-13T09:33:27Z</time>
      </trkpt>
      <trkpt lat="48.69122" lon="2.02674">
        <ele>145</ele>
        <time>2010-05-13T09:33:28Z</time>
      </trkpt>
      <trkpt lat="48.69124" lon="2.02674">
        <ele>144</ele>
        <time>2010-05-13T09:33:29Z</time>
      </trkpt>
      <trkpt lat="48.69127" lon="2.02673">
        <ele>144</ele>
        <time>2010-05-13T09:33:30Z</time>
      </trkpt>
      <trkpt lat="48.69128" lon="2.02672">
        <ele>144</ele>
        <time>2010-05-13T09:33:31Z</time>
      </trkpt>
      <trkpt lat="48.69129" lon="2.02671">
        <ele>144</ele>
        <time>2010-05-13T09:33:33Z</time>
      </trkpt>
      <trkpt lat="48.69131" lon="2.02669">
        <ele>144</ele>
        <time>2010-05-13T09:33:36Z</time>
      </trkpt>
      <trkpt lat="48.69138" lon="2.02668">
        <ele>144</ele>
        <time>2010-05-13T09:33:37Z</time>
      </trkpt>
      <trkpt lat="48.6914" lon="2.02668">
        <ele>144</ele>
        <time>2010-05-13T09:33:38Z</time>
      </trkpt>
      <trkpt lat="48.69142" lon="2.02667">
        <ele>144</ele>
        <time>2010-05-13T09:33:39Z</time>
      </trkpt>
      <trkpt lat="48.69143" lon="2.02666">
        <ele>144</ele>
        <time>2010-05-13T09:33:40Z</time>
      </trkpt>
      <trkpt lat="48.69145" lon="2.02665">
        <ele>144</ele>
        <time>2010-05-13T09:33:41Z</time>
      </trkpt>
      <trkpt lat="48.69146" lon="2.02664">
        <ele>143</ele>
        <time>2010-05-13T09:33:42Z</time>
      </trkpt>
      <trkpt lat="48.69148" lon="2.02664">
        <ele>142</ele>
        <time>2010-05-13T09:33:43Z</time>
      </trkpt>
      <trkpt lat="48.69151" lon="2.02663">
        <ele>140</ele>
        <time>2010-05-13T09:33:45Z</time>
      </trkpt>
      <trkpt lat="48.69153" lon="2.02661">
        <ele>138</ele>
        <time>2010-05-13T09:33:47Z</time>
      </trkpt>
      <trkpt lat="48.69155" lon="2.02661">
        <ele>138</ele>
        <time>2010-05-13T09:33:48Z</time>
      </trkpt>
      <trkpt lat="48.69157" lon="2.02661">
        <ele>137</ele>
        <time>2010-05-13T09:33:49Z</time>
      </trkpt>
      <trkpt lat="48.69159" lon="2.02661">
        <ele>137</ele>
        <time>2010-05-13T09:33:50Z</time>
      </trkpt>
      <trkpt lat="48.6916" lon="2.02659">
        <ele>137</ele>
        <time>2010-05-13T09:33:52Z</time>
      </trkpt>
      <trkpt lat="48.69159" lon="2.02657">
        <ele>137</ele>
        <time>2010-05-13T09:33:53Z</time>
      </trkpt>
      <trkpt lat="48.69159" lon="2.02654">
        <ele>137</ele>
        <time>2010-05-13T09:33:55Z</time>
      </trkpt>
      <trkpt lat="48.69159" lon="2.02653">
        <ele>137</ele>
        <time>2010-05-13T09:33:57Z</time>
      </trkpt>
      <trkpt lat="48.6916" lon="2.02652">
        <ele>137</ele>
        <time>2010-05-13T09:33:59Z</time>
      </trkpt>
      <trkpt lat="48.69164" lon="2.0265">
        <ele>137</ele>
        <time>2010-05-13T09:34:03Z</time>
      </trkpt>
      <trkpt lat="48.69171" lon="2.02646">
        <ele>139</ele>
        <time>2010-05-13T09:34:06Z</time>
      </trkpt>
      <trkpt lat="48.69174" lon="2.02647">
        <ele>141</ele>
        <time>2010-05-13T09:34:08Z</time>
      </trkpt>
      <trkpt lat="48.69175" lon="2.02646">
        <ele>142</ele>
        <time>2010-05-13T09:34:09Z</time>
      </trkpt>
      <trkpt lat="48.69176" lon="2.02646">
        <ele>143</ele>
        <time>2010-05-13T09:34:10Z</time>
      </trkpt>
      <trkpt lat="48.69176" lon="2.02644">
        <ele>144</ele>
        <time>2010-05-13T09:34:11Z</time>
      </trkpt>
      <trkpt lat="48.69177" lon="2.02644">
        <ele>145</ele>
        <time>2010-05-13T09:34:12Z</time>
      </trkpt>
      <trkpt lat="48.69178" lon="2.02643">
        <ele>146</ele>
        <time>2010-05-13T09:34:13Z</time>
      </trkpt>
      <trkpt lat="48.69177" lon="2.02638">
        <ele>147</ele>
        <time>2010-05-13T09:34:16Z</time>
      </trkpt>
      <trkpt lat="48.69178" lon="2.02636">
        <ele>148</ele>
        <time>2010-05-13T09:34:17Z</time>
      </trkpt>
      <trkpt lat="48.69179" lon="2.02636">
        <ele>149</ele>
        <time>2010-05-13T09:34:21Z</time>
      </trkpt>
      <trkpt lat="48.69179" lon="2.02645">
        <ele>149</ele>
        <time>2010-05-13T09:34:28Z</time>
      </trkpt>
      <trkpt lat="48.69179" lon="2.02646">
        <ele>149</ele>
        <time>2010-05-13T09:34:29Z</time>
      </trkpt>
      <trkpt lat="48.69177" lon="2.02649">
        <ele>151</ele>
        <time>2010-05-13T09:34:31Z</time>
      </trkpt>
      <trkpt lat="48.69174" lon="2.02649">
        <ele>153</ele>
        <time>2010-05-13T09:34:33Z</time>
      </trkpt>
      <trkpt lat="48.69171" lon="2.02648">
        <ele>153</ele>
        <time>2010-05-13T09:34:34Z</time>
      </trkpt>
      <trkpt lat="48.6917" lon="2.02647">
        <ele>154</ele>
        <time>2010-05-13T09:34:35Z</time>
      </trkpt>
      <trkpt lat="48.69168" lon="2.0265">
        <ele>154</ele>
        <time>2010-05-13T09:34:38Z</time>
      </trkpt>
      <trkpt lat="48.69169" lon="2.02654">
        <ele>154</ele>
        <time>2010-05-13T09:34:39Z</time>
      </trkpt>
      <trkpt lat="48.6917" lon="2.02658">
        <ele>154</ele>
        <time>2010-05-13T09:34:40Z</time>
      </trkpt>
      <trkpt lat="48.69173" lon="2.02662">
        <ele>154</ele>
        <time>2010-05-13T09:34:41Z</time>
      </trkpt>
      <trkpt lat="48.69178" lon="2.02664">
        <ele>154</ele>
        <time>2010-05-13T09:34:44Z</time>
      </trkpt>
      <trkpt lat="48.69182" lon="2.02661">
        <ele>154</ele>
        <time>2010-05-13T09:34:45Z</time>
      </trkpt>
      <trkpt lat="48.69183" lon="2.02658">
        <ele>154</ele>
        <time>2010-05-13T09:34:46Z</time>
      </trkpt>
      <trkpt lat="48.69186" lon="2.02658">
        <ele>154</ele>
        <time>2010-05-13T09:34:47Z</time>
      </trkpt>
      <trkpt lat="48.69187" lon="2.02659">
        <ele>153</ele>
        <time>2010-05-13T09:34:48Z</time>
      </trkpt>
      <trkpt lat="48.69189" lon="2.02659">
        <ele>152</ele>
        <time>2010-05-13T09:34:49Z</time>
      </trkpt>
      <trkpt lat="48.69192" lon="2.02659">
        <ele>152</ele>
        <time>2010-05-13T09:34:50Z</time>
      </trkpt>
      <trkpt lat="48.69194" lon="2.02659">
        <ele>152</ele>
        <time>2010-05-13T09:34:51Z</time>
      </trkpt>
      <trkpt lat="48.69197" lon="2.02659">
        <ele>152</ele>
        <time>2010-05-13T09:34:52Z</time>
      </trkpt>
      <trkpt lat="48.69198" lon="2.02658">
        <ele>151</ele>
        <time>2010-05-13T09:34:53Z</time>
      </trkpt>
      <trkpt lat="48.69201" lon="2.02658">
        <ele>151</ele>
        <time>2010-05-13T09:34:54Z</time>
      </trkpt>
      <trkpt lat="48.69203" lon="2.02657">
        <ele>150</ele>
        <time>2010-05-13T09:34:55Z</time>
      </trkpt>
      <trkpt lat="48.69205" lon="2.02656">
        <ele>149</ele>
        <time>2010-05-13T09:34:56Z</time>
      </trkpt>
      <trkpt lat="48.69207" lon="2.02656">
        <ele>148</ele>
        <time>2010-05-13T09:34:57Z</time>
      </trkpt>
      <trkpt lat="48.69209" lon="2.02656">
        <ele>148</ele>
        <time>2010-05-13T09:34:58Z</time>
      </trkpt>
      <trkpt lat="48.6921" lon="2.02655">
        <ele>147</ele>
        <time>2010-05-13T09:35:00Z</time>
      </trkpt>
      <trkpt lat="48.69213" lon="2.02653">
        <ele>147</ele>
        <time>2010-05-13T09:35:03Z</time>
      </trkpt>
      <trkpt lat="48.69218" lon="2.02648">
        <ele>147</ele>
        <time>2010-05-13T09:35:04Z</time>
      </trkpt>
      <trkpt lat="48.6922" lon="2.02646">
        <ele>147</ele>
        <time>2010-05-13T09:35:05Z</time>
      </trkpt>
      <trkpt lat="48.69222" lon="2.02645">
        <ele>146</ele>
        <time>2010-05-13T09:35:07Z</time>
      </trkpt>
      <trkpt lat="48.69224" lon="2.02645">
        <ele>144</ele>
        <time>2010-05-13T09:35:09Z</time>
      </trkpt>
      <trkpt lat="48.69225" lon="2.02644">
        <ele>143</ele>
        <time>2010-05-13T09:35:10Z</time>
      </trkpt>
      <trkpt lat="48.69228" lon="2.02642">
        <ele>142</ele>
        <time>2010-05-13T09:35:11Z</time>
      </trkpt>
      <trkpt lat="48.69229" lon="2.02641">
        <ele>141</ele>
        <time>2010-05-13T09:35:12Z</time>
      </trkpt>
      <trkpt lat="48.69231" lon="2.02639">
        <ele>140</ele>
        <time>2010-05-13T09:35:13Z</time>
      </trkpt>
      <trkpt lat="48.69233" lon="2.02637">
        <ele>139</ele>
        <time>2010-05-13T09:35:14Z</time>
      </trkpt>
      <trkpt lat="48.69235" lon="2.02636">
        <ele>138</ele>
        <time>2010-05-13T09:35:15Z</time>
      </trkpt>
      <trkpt lat="48.69237" lon="2.02634">
        <ele>137</ele>
        <time>2010-05-13T09:35:16Z</time>
      </trkpt>
      <trkpt lat="48.69238" lon="2.02635">
        <ele>137</ele>
        <time>2010-05-13T09:35:17Z</time>
      </trkpt>
      <trkpt lat="48.69239" lon="2.02634">
        <ele>136</ele>
        <time>2010-05-13T09:35:18Z</time>
      </trkpt>
      <trkpt lat="48.69242" lon="2.02633">
        <ele>135</ele>
        <time>2010-05-13T09:35:20Z</time>
      </trkpt>
      <trkpt lat="48.69243" lon="2.0263">
        <ele>133</ele>
        <time>2010-05-13T09:35:22Z</time>
      </trkpt>
      <trkpt lat="48.69245" lon="2.02628">
        <ele>132</ele>
        <time>2010-05-13T09:35:24Z</time>
      </trkpt>
      <trkpt lat="48.69247" lon="2.02628">
        <ele>131</ele>
        <time>2010-05-13T09:35:25Z</time>
      </trkpt>
      <trkpt lat="48.69248" lon="2.02627">
        <ele>130</ele>
        <time>2010-05-13T09:35:26Z</time>
      </trkpt>
      <trkpt lat="48.6925" lon="2.02625">
        <ele>130</ele>
        <time>2010-05-13T09:35:27Z</time>
      </trkpt>
      <trkpt lat="48.69251" lon="2.02624">
        <ele>129</ele>
        <time>2010-05-13T09:35:29Z</time>
      </trkpt>
      <trkpt lat="48.69251" lon="2.02622">
        <ele>128</ele>
        <time>2010-05-13T09:35:30Z</time>
      </trkpt>
      <trkpt lat="48.69253" lon="2.02621">
        <ele>127</ele>
        <time>2010-05-13T09:35:32Z</time>
      </trkpt>
      <trkpt lat="48.69255" lon="2.02619">
        <ele>126</ele>
        <time>2010-05-13T09:35:34Z</time>
      </trkpt>
      <trkpt lat="48.69256" lon="2.02618">
        <ele>125</ele>
        <time>2010-05-13T09:35:35Z</time>
      </trkpt>
      <trkpt lat="48.6926" lon="2.02615">
        <ele>125</ele>
        <time>2010-05-13T09:35:38Z</time>
      </trkpt>
      <trkpt lat="48.69264" lon="2.02613">
        <ele>124</ele>
        <time>2010-05-13T09:35:39Z</time>
      </trkpt>
      <trkpt lat="48.69266" lon="2.0261">
        <ele>123</ele>
        <time>2010-05-13T09:35:40Z</time>
      </trkpt>
      <trkpt lat="48.69267" lon="2.02609">
        <ele>122</ele>
        <time>2010-05-13T09:35:41Z</time>
      </trkpt>
      <trkpt lat="48.6927" lon="2.02609">
        <ele>121</ele>
        <time>2010-05-13T09:35:43Z</time>
      </trkpt>
      <trkpt lat="48.69271" lon="2.02608">
        <ele>121</ele>
        <time>2010-05-13T09:35:44Z</time>
      </trkpt>
      <trkpt lat="48.69275" lon="2.02609">
        <ele>121</ele>
        <time>2010-05-13T09:35:45Z</time>
      </trkpt>
      <trkpt lat="48.69278" lon="2.02608">
        <ele>121</ele>
        <time>2010-05-13T09:35:46Z</time>
      </trkpt>
      <trkpt lat="48.6928" lon="2.02607">
        <ele>121</ele>
        <time>2010-05-13T09:35:47Z</time>
      </trkpt>
      <trkpt lat="48.69282" lon="2.02605">
        <ele>121</ele>
        <time>2010-05-13T09:35:48Z</time>
      </trkpt>
      <trkpt lat="48.69285" lon="2.02605">
        <ele>122</ele>
        <time>2010-05-13T09:35:50Z</time>
      </trkpt>
      <trkpt lat="48.69285" lon="2.02604">
        <ele>123</ele>
        <time>2010-05-13T09:35:51Z</time>
      </trkpt>
      <trkpt lat="48.69287" lon="2.02602">
        <ele>124</ele>
        <time>2010-05-13T09:35:53Z</time>
      </trkpt>
      <trkpt lat="48.6929" lon="2.02601">
        <ele>124</ele>
        <time>2010-05-13T09:35:54Z</time>
      </trkpt>
      <trkpt lat="48.69291" lon="2.026">
        <ele>124</ele>
        <time>2010-05-13T09:35:55Z</time>
      </trkpt>
      <trkpt lat="48.69294" lon="2.02599">
        <ele>124</ele>
        <time>2010-05-13T09:35:56Z</time>
      </trkpt>
      <trkpt lat="48.69297" lon="2.02598">
        <ele>124</ele>
        <time>2010-05-13T09:35:57Z</time>
      </trkpt>
      <trkpt lat="48.69299" lon="2.02597">
        <ele>124</ele>
        <time>2010-05-13T09:35:58Z</time>
      </trkpt>
      <trkpt lat="48.69301" lon="2.02597">
        <ele>124</ele>
        <time>2010-05-13T09:35:59Z</time>
      </trkpt>
      <trkpt lat="48.69303" lon="2.02596">
        <ele>124</ele>
        <time>2010-05-13T09:36:00Z</time>
      </trkpt>
      <trkpt lat="48.69305" lon="2.02596">
        <ele>124</ele>
        <time>2010-05-13T09:36:03Z</time>
      </trkpt>
      <trkpt lat="48.69307" lon="2.02597">
        <ele>124</ele>
        <time>2010-05-13T09:36:04Z</time>
      </trkpt>
      <trkpt lat="48.6931" lon="2.02598">
        <ele>124</ele>
        <time>2010-05-13T09:36:05Z</time>
      </trkpt>
      <trkpt lat="48.69312" lon="2.02599">
        <ele>124</ele>
        <time>2010-05-13T09:36:06Z</time>
      </trkpt>
      <trkpt lat="48.69314" lon="2.02599">
        <ele>124</ele>
        <time>2010-05-13T09:36:08Z</time>
      </trkpt>
      <trkpt lat="48.69315" lon="2.02601">
        <ele>124</ele>
        <time>2010-05-13T09:36:10Z</time>
      </trkpt>
      <trkpt lat="48.69317" lon="2.02601">
        <ele>124</ele>
        <time>2010-05-13T09:36:11Z</time>
      </trkpt>
      <trkpt lat="48.69319" lon="2.02601">
        <ele>124</ele>
        <time>2010-05-13T09:36:13Z</time>
      </trkpt>
      <trkpt lat="48.69321" lon="2.02603">
        <ele>124</ele>
        <time>2010-05-13T09:36:15Z</time>
      </trkpt>
      <trkpt lat="48.69322" lon="2.02605">
        <ele>124</ele>
        <time>2010-05-13T09:36:17Z</time>
      </trkpt>
      <trkpt lat="48.69324" lon="2.02605">
        <ele>124</ele>
        <time>2010-05-13T09:36:19Z</time>
      </trkpt>
      <trkpt lat="48.69326" lon="2.02606">
        <ele>124</ele>
        <time>2010-05-13T09:36:21Z</time>
      </trkpt>
      <trkpt lat="48.69328" lon="2.02607">
        <ele>124</ele>
        <time>2010-05-13T09:36:22Z</time>
      </trkpt>
      <trkpt lat="48.6933" lon="2.02607">
        <ele>124</ele>
        <time>2010-05-13T09:36:23Z</time>
      </trkpt>
      <trkpt lat="48.69332" lon="2.02607">
        <ele>124</ele>
        <time>2010-05-13T09:36:24Z</time>
      </trkpt>
      <trkpt lat="48.69334" lon="2.02607">
        <ele>124</ele>
        <time>2010-05-13T09:36:25Z</time>
      </trkpt>
      <trkpt lat="48.69336" lon="2.02607">
        <ele>123</ele>
        <time>2010-05-13T09:36:27Z</time>
      </trkpt>
      <trkpt lat="48.69337" lon="2.02607">
        <ele>123</ele>
        <time>2010-05-13T09:36:28Z</time>
      </trkpt>
      <trkpt lat="48.6934" lon="2.02606">
        <ele>121</ele>
        <time>2010-05-13T09:36:30Z</time>
      </trkpt>
      <trkpt lat="48.69341" lon="2.02606">
        <ele>120</ele>
        <time>2010-05-13T09:36:32Z</time>
      </trkpt>
      <trkpt lat="48.69344" lon="2.02604">
        <ele>118</ele>
        <time>2010-05-13T09:36:34Z</time>
      </trkpt>
      <trkpt lat="48.69345" lon="2.02604">
        <ele>117</ele>
        <time>2010-05-13T09:36:35Z</time>
      </trkpt>
      <trkpt lat="48.69346" lon="2.02603">
        <ele>116</ele>
        <time>2010-05-13T09:36:36Z</time>
      </trkpt>
      <trkpt lat="48.69349" lon="2.026">
        <ele>114</ele>
        <time>2010-05-13T09:36:40Z</time>
      </trkpt>
      <trkpt lat="48.6935" lon="2.02599">
        <ele>112</ele>
        <time>2010-05-13T09:36:42Z</time>
      </trkpt>
      <trkpt lat="48.69352" lon="2.02599">
        <ele>111</ele>
        <time>2010-05-13T09:36:43Z</time>
      </trkpt>
      <trkpt lat="48.69354" lon="2.02598">
        <ele>110</ele>
        <time>2010-05-13T09:36:44Z</time>
      </trkpt>
      <trkpt lat="48.69356" lon="2.02596">
        <ele>109</ele>
        <time>2010-05-13T09:36:45Z</time>
      </trkpt>
      <trkpt lat="48.69358" lon="2.02594">
        <ele>109</ele>
        <time>2010-05-13T09:36:46Z</time>
      </trkpt>
      <trkpt lat="48.6936" lon="2.02593">
        <ele>109</ele>
        <time>2010-05-13T09:36:47Z</time>
      </trkpt>
      <trkpt lat="48.69362" lon="2.02594">
        <ele>109</ele>
        <time>2010-05-13T09:36:48Z</time>
      </trkpt>
      <trkpt lat="48.69366" lon="2.02595">
        <ele>109</ele>
        <time>2010-05-13T09:36:49Z</time>
      </trkpt>
      <trkpt lat="48.69368" lon="2.02595">
        <ele>109</ele>
        <time>2010-05-13T09:36:50Z</time>
      </trkpt>
      <trkpt lat="48.6937" lon="2.02595">
        <ele>109</ele>
        <time>2010-05-13T09:36:51Z</time>
      </trkpt>
      <trkpt lat="48.69372" lon="2.02596">
        <ele>109</ele>
        <time>2010-05-13T09:36:52Z</time>
      </trkpt>
      <trkpt lat="48.69375" lon="2.02599">
        <ele>109</ele>
        <time>2010-05-13T09:36:53Z</time>
      </trkpt>
      <trkpt lat="48.69376" lon="2.02599">
        <ele>109</ele>
        <time>2010-05-13T09:36:54Z</time>
      </trkpt>
      <trkpt lat="48.69381" lon="2.02598">
        <ele>109</ele>
        <time>2010-05-13T09:36:55Z</time>
      </trkpt>
      <trkpt lat="48.69384" lon="2.02598">
        <ele>109</ele>
        <time>2010-05-13T09:36:56Z</time>
      </trkpt>
      <trkpt lat="48.69388" lon="2.02598">
        <ele>109</ele>
        <time>2010-05-13T09:36:57Z</time>
      </trkpt>
      <trkpt lat="48.69391" lon="2.02598">
        <ele>109</ele>
        <time>2010-05-13T09:36:58Z</time>
      </trkpt>
      <trkpt lat="48.69394" lon="2.02596">
        <ele>109</ele>
        <time>2010-05-13T09:36:59Z</time>
      </trkpt>
      <trkpt lat="48.69396" lon="2.02595">
        <ele>109</ele>
        <time>2010-05-13T09:37:00Z</time>
      </trkpt>
      <trkpt lat="48.69398" lon="2.02595">
        <ele>109</ele>
        <time>2010-05-13T09:37:01Z</time>
      </trkpt>
      <trkpt lat="48.694" lon="2.02594">
        <ele>109</ele>
        <time>2010-05-13T09:37:02Z</time>
      </trkpt>
      <trkpt lat="48.69401" lon="2.02592">
        <ele>109</ele>
        <time>2010-05-13T09:37:03Z</time>
      </trkpt>
      <trkpt lat="48.69403" lon="2.02591">
        <ele>109</ele>
        <time>2010-05-13T09:37:04Z</time>
      </trkpt>
      <trkpt lat="48.69405" lon="2.02589">
        <ele>109</ele>
        <time>2010-05-13T09:37:05Z</time>
      </trkpt>
      <trkpt lat="48.69407" lon="2.02588">
        <ele>109</ele>
        <time>2010-05-13T09:37:06Z</time>
      </trkpt>
      <trkpt lat="48.69407" lon="2.02586">
        <ele>109</ele>
        <time>2010-05-13T09:37:07Z</time>
      </trkpt>
      <trkpt lat="48.69409" lon="2.02584">
        <ele>109</ele>
        <time>2010-05-13T09:37:08Z</time>
      </trkpt>
      <trkpt lat="48.6941" lon="2.02583">
        <ele>109</ele>
        <time>2010-05-13T09:37:09Z</time>
      </trkpt>
      <trkpt lat="48.69411" lon="2.02581">
        <ele>109</ele>
        <time>2010-05-13T09:37:10Z</time>
      </trkpt>
      <trkpt lat="48.69411" lon="2.02578">
        <ele>109</ele>
        <time>2010-05-13T09:37:11Z</time>
      </trkpt>
      <trkpt lat="48.69412" lon="2.02577">
        <ele>109</ele>
        <time>2010-05-13T09:37:12Z</time>
      </trkpt>
      <trkpt lat="48.69414" lon="2.02576">
        <ele>109</ele>
        <time>2010-05-13T09:37:13Z</time>
      </trkpt>
      <trkpt lat="48.69414" lon="2.02574">
        <ele>109</ele>
        <time>2010-05-13T09:37:14Z</time>
      </trkpt>
      <trkpt lat="48.69414" lon="2.02572">
        <ele>109</ele>
        <time>2010-05-13T09:37:15Z</time>
      </trkpt>
      <trkpt lat="48.69415" lon="2.02569">
        <ele>109</ele>
        <time>2010-05-13T09:37:17Z</time>
      </trkpt>
      <trkpt lat="48.69417" lon="2.02566">
        <ele>109</ele>
        <time>2010-05-13T09:37:19Z</time>
      </trkpt>
      <trkpt lat="48.69418" lon="2.02565">
        <ele>109</ele>
        <time>2010-05-13T09:37:20Z</time>
      </trkpt>
      <trkpt lat="48.69419" lon="2.02563">
        <ele>109</ele>
        <time>2010-05-13T09:37:22Z</time>
      </trkpt>
      <trkpt lat="48.69421" lon="2.02561">
        <ele>108</ele>
        <time>2010-05-13T09:37:24Z</time>
      </trkpt>
      <trkpt lat="48.69423" lon="2.02561">
        <ele>107</ele>
        <time>2010-05-13T09:37:25Z</time>
      </trkpt>
      <trkpt lat="48.69426" lon="2.02561">
        <ele>107</ele>
        <time>2010-05-13T09:37:26Z</time>
      </trkpt>
      <trkpt lat="48.69428" lon="2.0256">
        <ele>106</ele>
        <time>2010-05-13T09:37:27Z</time>
      </trkpt>
      <trkpt lat="48.69429" lon="2.02558">
        <ele>106</ele>
        <time>2010-05-13T09:37:28Z</time>
      </trkpt>
      <trkpt lat="48.6943" lon="2.02555">
        <ele>105</ele>
        <time>2010-05-13T09:37:30Z</time>
      </trkpt>
      <trkpt lat="48.69431" lon="2.02554">
        <ele>104</ele>
        <time>2010-05-13T09:37:31Z</time>
      </trkpt>
      <trkpt lat="48.69432" lon="2.02553">
        <ele>103</ele>
        <time>2010-05-13T09:37:32Z</time>
      </trkpt>
      <trkpt lat="48.69434" lon="2.02551">
        <ele>102</ele>
        <time>2010-05-13T09:37:33Z</time>
      </trkpt>
      <trkpt lat="48.69436" lon="2.02549">
        <ele>101</ele>
        <time>2010-05-13T09:37:34Z</time>
      </trkpt>
      <trkpt lat="48.69439" lon="2.02548">
        <ele>100</ele>
        <time>2010-05-13T09:37:35Z</time>
      </trkpt>
      <trkpt lat="48.69443" lon="2.02546">
        <ele>100</ele>
        <time>2010-05-13T09:37:37Z</time>
      </trkpt>
      <trkpt lat="48.69444" lon="2.02546">
        <ele>100</ele>
        <time>2010-05-13T09:37:38Z</time>
      </trkpt>
      <trkpt lat="48.69446" lon="2.02546">
        <ele>100</ele>
        <time>2010-05-13T09:37:39Z</time>
      </trkpt>
      <trkpt lat="48.69447" lon="2.02544">
        <ele>100</ele>
        <time>2010-05-13T09:37:40Z</time>
      </trkpt>
      <trkpt lat="48.6945" lon="2.02542">
        <ele>100</ele>
        <time>2010-05-13T09:37:42Z</time>
      </trkpt>
      <trkpt lat="48.69452" lon="2.02539">
        <ele>100</ele>
        <time>2010-05-13T09:37:44Z</time>
      </trkpt>
      <trkpt lat="48.69454" lon="2.02537">
        <ele>100</ele>
        <time>2010-05-13T09:37:45Z</time>
      </trkpt>
      <trkpt lat="48.69455" lon="2.02535">
        <ele>100</ele>
        <time>2010-05-13T09:37:46Z</time>
      </trkpt>
      <trkpt lat="48.69456" lon="2.02534">
        <ele>100</ele>
        <time>2010-05-13T09:37:47Z</time>
      </trkpt>
      <trkpt lat="48.69459" lon="2.02532">
        <ele>99</ele>
        <time>2010-05-13T09:37:49Z</time>
      </trkpt>
      <trkpt lat="48.69461" lon="2.02529">
        <ele>98</ele>
        <time>2010-05-13T09:37:51Z</time>
      </trkpt>
      <trkpt lat="48.69462" lon="2.02527">
        <ele>98</ele>
        <time>2010-05-13T09:37:52Z</time>
      </trkpt>
      <trkpt lat="48.69463" lon="2.02526">
        <ele>98</ele>
        <time>2010-05-13T09:37:53Z</time>
      </trkpt>
      <trkpt lat="48.69464" lon="2.02524">
        <ele>97</ele>
        <time>2010-05-13T09:37:54Z</time>
      </trkpt>
      <trkpt lat="48.69465" lon="2.02522">
        <ele>97</ele>
        <time>2010-05-13T09:37:55Z</time>
      </trkpt>
      <trkpt lat="48.69465" lon="2.0252">
        <ele>97</ele>
        <time>2010-05-13T09:37:56Z</time>
      </trkpt>
      <trkpt lat="48.69466" lon="2.02518">
        <ele>96</ele>
        <time>2010-05-13T09:37:57Z</time>
      </trkpt>
      <trkpt lat="48.69467" lon="2.02517">
        <ele>95</ele>
        <time>2010-05-13T09:37:58Z</time>
      </trkpt>
      <trkpt lat="48.69469" lon="2.02515">
        <ele>94</ele>
        <time>2010-05-13T09:37:59Z</time>
      </trkpt>
      <trkpt lat="48.69472" lon="2.02514">
        <ele>93</ele>
        <time>2010-05-13T09:38:00Z</time>
      </trkpt>
      <trkpt lat="48.69473" lon="2.02512">
        <ele>93</ele>
        <time>2010-05-13T09:38:01Z</time>
      </trkpt>
      <trkpt lat="48.69474" lon="2.02509">
        <ele>92</ele>
        <time>2010-05-13T09:38:03Z</time>
      </trkpt>
      <trkpt lat="48.69475" lon="2.02507">
        <ele>91</ele>
        <time>2010-05-13T09:38:04Z</time>
      </trkpt>
      <trkpt lat="48.69477" lon="2.02505">
        <ele>91</ele>
        <time>2010-05-13T09:38:05Z</time>
      </trkpt>
      <trkpt lat="48.69479" lon="2.02503">
        <ele>91</ele>
        <time>2010-05-13T09:38:06Z</time>
      </trkpt>
      <trkpt lat="48.6948" lon="2.02501">
        <ele>91</ele>
        <time>2010-05-13T09:38:07Z</time>
      </trkpt>
      <trkpt lat="48.69481" lon="2.02499">
        <ele>91</ele>
        <time>2010-05-13T09:38:08Z</time>
      </trkpt>
      <trkpt lat="48.69483" lon="2.02496">
        <ele>91</ele>
        <time>2010-05-13T09:38:10Z</time>
      </trkpt>
      <trkpt lat="48.69483" lon="2.02494">
        <ele>91</ele>
        <time>2010-05-13T09:38:11Z</time>
      </trkpt>
      <trkpt lat="48.69484" lon="2.02491">
        <ele>91</ele>
        <time>2010-05-13T09:38:12Z</time>
      </trkpt>
      <trkpt lat="48.69485" lon="2.02489">
        <ele>91</ele>
        <time>2010-05-13T09:38:13Z</time>
      </trkpt>
      <trkpt lat="48.69486" lon="2.02487">
        <ele>91</ele>
        <time>2010-05-13T09:38:14Z</time>
      </trkpt>
      <trkpt lat="48.69486" lon="2.02484">
        <ele>91</ele>
        <time>2010-05-13T09:38:15Z</time>
      </trkpt>
      <trkpt lat="48.69487" lon="2.02482">
        <ele>91</ele>
        <time>2010-05-13T09:38:16Z</time>
      </trkpt>
      <trkpt lat="48.69489" lon="2.0248">
        <ele>91</ele>
        <time>2010-05-13T09:38:17Z</time>
      </trkpt>
      <trkpt lat="48.6949" lon="2.02477">
        <ele>91</ele>
        <time>2010-05-13T09:38:18Z</time>
      </trkpt>
      <trkpt lat="48.6949" lon="2.02475">
        <ele>91</ele>
        <time>2010-05-13T09:38:19Z</time>
      </trkpt>
      <trkpt lat="48.6949" lon="2.02473">
        <ele>91</ele>
        <time>2010-05-13T09:38:20Z</time>
      </trkpt>
      <trkpt lat="48.6949" lon="2.0247">
        <ele>91</ele>
        <time>2010-05-13T09:38:21Z</time>
      </trkpt>
      <trkpt lat="48.69491" lon="2.02468">
        <ele>91</ele>
        <time>2010-05-13T09:38:22Z</time>
      </trkpt>
      <trkpt lat="48.69492" lon="2.02466">
        <ele>91</ele>
        <time>2010-05-13T09:38:23Z</time>
      </trkpt>
      <trkpt lat="48.69492" lon="2.02464">
        <ele>91</ele>
        <time>2010-05-13T09:38:24Z</time>
      </trkpt>
      <trkpt lat="48.69493" lon="2.02462">
        <ele>91</ele>
        <time>2010-05-13T09:38:25Z</time>
      </trkpt>
      <trkpt lat="48.69494" lon="2.02459">
        <ele>91</ele>
        <time>2010-05-13T09:38:26Z</time>
      </trkpt>
      <trkpt lat="48.69495" lon="2.02456">
        <ele>91</ele>
        <time>2010-05-13T09:38:27Z</time>
      </trkpt>
      <trkpt lat="48.69496" lon="2.02454">
        <ele>91</ele>
        <time>2010-05-13T09:38:28Z</time>
      </trkpt>
      <trkpt lat="48.69497" lon="2.02452">
        <ele>91</ele>
        <time>2010-05-13T09:38:29Z</time>
      </trkpt>
      <trkpt lat="48.69497" lon="2.0245">
        <ele>91</ele>
        <time>2010-05-13T09:38:30Z</time>
      </trkpt>
      <trkpt lat="48.69497" lon="2.02448">
        <ele>91</ele>
        <time>2010-05-13T09:38:31Z</time>
      </trkpt>
      <trkpt lat="48.69497" lon="2.02446">
        <ele>91</ele>
        <time>2010-05-13T09:38:32Z</time>
      </trkpt>
      <trkpt lat="48.69497" lon="2.02444">
        <ele>91</ele>
        <time>2010-05-13T09:38:33Z</time>
      </trkpt>
      <trkpt lat="48.69497" lon="2.02442">
        <ele>91</ele>
        <time>2010-05-13T09:38:34Z</time>
      </trkpt>
      <trkpt lat="48.69497" lon="2.0244">
        <ele>91</ele>
        <time>2010-05-13T09:38:35Z</time>
      </trkpt>
      <trkpt lat="48.69496" lon="2.02437">
        <ele>91</ele>
        <time>2010-05-13T09:38:36Z</time>
      </trkpt>
      <trkpt lat="48.69496" lon="2.02434">
        <ele>91</ele>
        <time>2010-05-13T09:38:37Z</time>
      </trkpt>
      <trkpt lat="48.69496" lon="2.02433">
        <ele>91</ele>
        <time>2010-05-13T09:38:38Z</time>
      </trkpt>
      <trkpt lat="48.69496" lon="2.02431">
        <ele>91</ele>
        <time>2010-05-13T09:38:39Z</time>
      </trkpt>
      <trkpt lat="48.69497" lon="2.02428">
        <ele>91</ele>
        <time>2010-05-13T09:38:40Z</time>
      </trkpt>
      <trkpt lat="48.695" lon="2.02426">
        <ele>91</ele>
        <time>2010-05-13T09:38:41Z</time>
      </trkpt>
      <trkpt lat="48.69501" lon="2.02424">
        <ele>91</ele>
        <time>2010-05-13T09:38:42Z</time>
      </trkpt>
      <trkpt lat="48.69501" lon="2.02422">
        <ele>91</ele>
        <time>2010-05-13T09:38:43Z</time>
      </trkpt>
      <trkpt lat="48.69501" lon="2.0242">
        <ele>91</ele>
        <time>2010-05-13T09:38:44Z</time>
      </trkpt>
      <trkpt lat="48.69501" lon="2.02418">
        <ele>91</ele>
        <time>2010-05-13T09:38:45Z</time>
      </trkpt>
      <trkpt lat="48.69501" lon="2.02416">
        <ele>91</ele>
        <time>2010-05-13T09:38:46Z</time>
      </trkpt>
      <trkpt lat="48.69501" lon="2.02413">
        <ele>91</ele>
        <time>2010-05-13T09:38:47Z</time>
      </trkpt>
      <trkpt lat="48.69502" lon="2.02411">
        <ele>91</ele>
        <time>2010-05-13T09:38:48Z</time>
      </trkpt>
      <trkpt lat="48.69503" lon="2.02408">
        <ele>91</ele>
        <time>2010-05-13T09:38:49Z</time>
      </trkpt>
      <trkpt lat="48.69504" lon="2.02405">
        <ele>91</ele>
        <time>2010-05-13T09:38:50Z</time>
      </trkpt>
      <trkpt lat="48.69505" lon="2.02403">
        <ele>91</ele>
        <time>2010-05-13T09:38:51Z</time>
      </trkpt>
      <trkpt lat="48.69505" lon="2.024">
        <ele>91</ele>
        <time>2010-05-13T09:38:52Z</time>
      </trkpt>
      <trkpt lat="48.69506" lon="2.02399">
        <ele>91</ele>
        <time>2010-05-13T09:38:53Z</time>
      </trkpt>
      <trkpt lat="48.69508" lon="2.02396">
        <ele>91</ele>
        <time>2010-05-13T09:38:54Z</time>
      </trkpt>
      <trkpt lat="48.69509" lon="2.02394">
        <ele>91</ele>
        <time>2010-05-13T09:38:55Z</time>
      </trkpt>
      <trkpt lat="48.69512" lon="2.0239">
        <ele>91</ele>
        <time>2010-05-13T09:38:56Z</time>
      </trkpt>
      <trkpt lat="48.69514" lon="2.02387">
        <ele>91</ele>
        <time>2010-05-13T09:38:57Z</time>
      </trkpt>
      <trkpt lat="48.69516" lon="2.02384">
        <ele>91</ele>
        <time>2010-05-13T09:38:58Z</time>
      </trkpt>
      <trkpt lat="48.69518" lon="2.02382">
        <ele>91</ele>
        <time>2010-05-13T09:38:59Z</time>
      </trkpt>
      <trkpt lat="48.69519" lon="2.02379">
        <ele>91</ele>
        <time>2010-05-13T09:39:00Z</time>
      </trkpt>
      <trkpt lat="48.69521" lon="2.02377">
        <ele>91</ele>
        <time>2010-05-13T09:39:01Z</time>
      </trkpt>
      <trkpt lat="48.69524" lon="2.02375">
        <ele>91</ele>
        <time>2010-05-13T09:39:02Z</time>
      </trkpt>
      <trkpt lat="48.69525" lon="2.02373">
        <ele>91</ele>
        <time>2010-05-13T09:39:03Z</time>
      </trkpt>
      <trkpt lat="48.69526" lon="2.02371">
        <ele>91</ele>
        <time>2010-05-13T09:39:04Z</time>
      </trkpt>
      <trkpt lat="48.69525" lon="2.02369">
        <ele>91</ele>
        <time>2010-05-13T09:39:05Z</time>
      </trkpt>
      <trkpt lat="48.69524" lon="2.02367">
        <ele>91</ele>
        <time>2010-05-13T09:39:06Z</time>
      </trkpt>
      <trkpt lat="48.69525" lon="2.02365">
        <ele>91</ele>
        <time>2010-05-13T09:39:07Z</time>
      </trkpt>
      <trkpt lat="48.69528" lon="2.02362">
        <ele>90</ele>
        <time>2010-05-13T09:39:09Z</time>
      </trkpt>
      <trkpt lat="48.69529" lon="2.02362">
        <ele>89</ele>
        <time>2010-05-13T09:39:10Z</time>
      </trkpt>
      <trkpt lat="48.6953" lon="2.0236">
        <ele>88</ele>
        <time>2010-05-13T09:39:11Z</time>
      </trkpt>
      <trkpt lat="48.6953" lon="2.02358">
        <ele>87</ele>
        <time>2010-05-13T09:39:12Z</time>
      </trkpt>
      <trkpt lat="48.69534" lon="2.02355">
        <ele>85</ele>
        <time>2010-05-13T09:39:14Z</time>
      </trkpt>
      <trkpt lat="48.69535" lon="2.02353">
        <ele>84</ele>
        <time>2010-05-13T09:39:15Z</time>
      </trkpt>
      <trkpt lat="48.69536" lon="2.02352">
        <ele>83</ele>
        <time>2010-05-13T09:39:16Z</time>
      </trkpt>
      <trkpt lat="48.69539" lon="2.0235">
        <ele>82</ele>
        <time>2010-05-13T09:39:17Z</time>
      </trkpt>
      <trkpt lat="48.69541" lon="2.02349">
        <ele>81</ele>
        <time>2010-05-13T09:39:18Z</time>
      </trkpt>
      <trkpt lat="48.69542" lon="2.02348">
        <ele>80</ele>
        <time>2010-05-13T09:39:19Z</time>
      </trkpt>
      <trkpt lat="48.69543" lon="2.02347">
        <ele>79</ele>
        <time>2010-05-13T09:39:20Z</time>
      </trkpt>
      <trkpt lat="48.69546" lon="2.02347">
        <ele>78</ele>
        <time>2010-05-13T09:39:21Z</time>
      </trkpt>
      <trkpt lat="48.69548" lon="2.02344">
        <ele>76</ele>
        <time>2010-05-13T09:39:23Z</time>
      </trkpt>
      <trkpt lat="48.6955" lon="2.02343">
        <ele>75</ele>
        <time>2010-05-13T09:39:24Z</time>
      </trkpt>
      <trkpt lat="48.69553" lon="2.02339">
        <ele>74</ele>
        <time>2010-05-13T09:39:26Z</time>
      </trkpt>
      <trkpt lat="48.69554" lon="2.02337">
        <ele>74</ele>
        <time>2010-05-13T09:39:27Z</time>
      </trkpt>
      <trkpt lat="48.69556" lon="2.02336">
        <ele>73</ele>
        <time>2010-05-13T09:39:28Z</time>
      </trkpt>
      <trkpt lat="48.69558" lon="2.02334">
        <ele>72</ele>
        <time>2010-05-13T09:39:29Z</time>
      </trkpt>
      <trkpt lat="48.69557" lon="2.02329">
        <ele>72</ele>
        <time>2010-05-13T09:39:30Z</time>
      </trkpt>
      <trkpt lat="48.69558" lon="2.02327">
        <ele>71</ele>
        <time>2010-05-13T09:39:31Z</time>
      </trkpt>
      <trkpt lat="48.69558" lon="2.02324">
        <ele>70</ele>
        <time>2010-05-13T09:39:32Z</time>
      </trkpt>
      <trkpt lat="48.69558" lon="2.02321">
        <ele>69</ele>
        <time>2010-05-13T09:39:33Z</time>
      </trkpt>
      <trkpt lat="48.69559" lon="2.02319">
        <ele>68</ele>
        <time>2010-05-13T09:39:34Z</time>
      </trkpt>
      <trkpt lat="48.6956" lon="2.02316">
        <ele>67</ele>
        <time>2010-05-13T09:39:35Z</time>
      </trkpt>
      <trkpt lat="48.6956" lon="2.02312">
        <ele>66</ele>
        <time>2010-05-13T09:39:36Z</time>
      </trkpt>
      <trkpt lat="48.69562" lon="2.0231">
        <ele>66</ele>
        <time>2010-05-13T09:39:37Z</time>
      </trkpt>
      <trkpt lat="48.69563" lon="2.02306">
        <ele>66</ele>
        <time>2010-05-13T09:39:38Z</time>
      </trkpt>
      <trkpt lat="48.69563" lon="2.02301">
        <ele>66</ele>
        <time>2010-05-13T09:39:39Z</time>
      </trkpt>
      <trkpt lat="48.69564" lon="2.02296">
        <ele>66</ele>
        <time>2010-05-13T09:39:40Z</time>
      </trkpt>
      <trkpt lat="48.69564" lon="2.02288">
        <ele>66</ele>
        <time>2010-05-13T09:39:43Z</time>
      </trkpt>
      <trkpt lat="48.69566" lon="2.02285">
        <ele>66</ele>
        <time>2010-05-13T09:39:44Z</time>
      </trkpt>
      <trkpt lat="48.69568" lon="2.02281">
        <ele>66</ele>
        <time>2010-05-13T09:39:45Z</time>
      </trkpt>
      <trkpt lat="48.69569" lon="2.02277">
        <ele>66</ele>
        <time>2010-05-13T09:39:46Z</time>
      </trkpt>
      <trkpt lat="48.69569" lon="2.02273">
        <ele>67</ele>
        <time>2010-05-13T09:39:47Z</time>
      </trkpt>
      <trkpt lat="48.69569" lon="2.0227">
        <ele>68</ele>
        <time>2010-05-13T09:39:48Z</time>
      </trkpt>
      <trkpt lat="48.69569" lon="2.02267">
        <ele>69</ele>
        <time>2010-05-13T09:39:49Z</time>
      </trkpt>
      <trkpt lat="48.69569" lon="2.02259">
        <ele>70</ele>
        <time>2010-05-13T09:39:52Z</time>
      </trkpt>
      <trkpt lat="48.69568" lon="2.02254">
        <ele>71</ele>
        <time>2010-05-13T09:39:53Z</time>
      </trkpt>
      <trkpt lat="48.69569" lon="2.02251">
        <ele>72</ele>
        <time>2010-05-13T09:39:54Z</time>
      </trkpt>
      <trkpt lat="48.69569" lon="2.02248">
        <ele>73</ele>
        <time>2010-05-13T09:39:55Z</time>
      </trkpt>
      <trkpt lat="48.69569" lon="2.02245">
        <ele>75</ele>
        <time>2010-05-13T09:39:57Z</time>
      </trkpt>
      <trkpt lat="48.6957" lon="2.02244">
        <ele>76</ele>
        <time>2010-05-13T09:39:58Z</time>
      </trkpt>
      <trkpt lat="48.6957" lon="2.02242">
        <ele>77</ele>
        <time>2010-05-13T09:39:59Z</time>
      </trkpt>
      <trkpt lat="48.69572" lon="2.02239">
        <ele>78</ele>
        <time>2010-05-13T09:40:00Z</time>
      </trkpt>
      <trkpt lat="48.69573" lon="2.02237">
        <ele>79</ele>
        <time>2010-05-13T09:40:01Z</time>
      </trkpt>
      <trkpt lat="48.69573" lon="2.02234">
        <ele>80</ele>
        <time>2010-05-13T09:40:02Z</time>
      </trkpt>
      <trkpt lat="48.69573" lon="2.02231">
        <ele>81</ele>
        <time>2010-05-13T09:40:03Z</time>
      </trkpt>
      <trkpt lat="48.69574" lon="2.02229">
        <ele>82</ele>
        <time>2010-05-13T09:40:04Z</time>
      </trkpt>
      <trkpt lat="48.69575" lon="2.02227">
        <ele>83</ele>
        <time>2010-05-13T09:40:05Z</time>
      </trkpt>
      <trkpt lat="48.69576" lon="2.02225">
        <ele>84</ele>
        <time>2010-05-13T09:40:06Z</time>
      </trkpt>
      <trkpt lat="48.69575" lon="2.02223">
        <ele>85</ele>
        <time>2010-05-13T09:40:07Z</time>
      </trkpt>
      <trkpt lat="48.69576" lon="2.02221">
        <ele>86</ele>
        <time>2010-05-13T09:40:08Z</time>
      </trkpt>
      <trkpt lat="48.69576" lon="2.02219">
        <ele>87</ele>
        <time>2010-05-13T09:40:09Z</time>
      </trkpt>
      <trkpt lat="48.69577" lon="2.02216">
        <ele>87</ele>
        <time>2010-05-13T09:40:10Z</time>
      </trkpt>
      <trkpt lat="48.69578" lon="2.02214">
        <ele>87</ele>
        <time>2010-05-13T09:40:11Z</time>
      </trkpt>
      <trkpt lat="48.69578" lon="2.02211">
        <ele>87</ele>
        <time>2010-05-13T09:40:12Z</time>
      </trkpt>
      <trkpt lat="48.69579" lon="2.02208">
        <ele>87</ele>
        <time>2010-05-13T09:40:13Z</time>
      </trkpt>
      <trkpt lat="48.69579" lon="2.02205">
        <ele>87</ele>
        <time>2010-05-13T09:40:14Z</time>
      </trkpt>
      <trkpt lat="48.69578" lon="2.02202">
        <ele>87</ele>
        <time>2010-05-13T09:40:15Z</time>
      </trkpt>
      <trkpt lat="48.69578" lon="2.022">
        <ele>87</ele>
        <time>2010-05-13T09:40:16Z</time>
      </trkpt>
      <trkpt lat="48.69579" lon="2.02198">
        <ele>87</ele>
        <time>2010-05-13T09:40:17Z</time>
      </trkpt>
      <trkpt lat="48.69582" lon="2.02194">
        <ele>87</ele>
        <time>2010-05-13T09:40:19Z</time>
      </trkpt>
      <trkpt lat="48.69582" lon="2.02192">
        <ele>87</ele>
        <time>2010-05-13T09:40:20Z</time>
      </trkpt>
      <trkpt lat="48.69582" lon="2.02189">
        <ele>87</ele>
        <time>2010-05-13T09:40:21Z</time>
      </trkpt>
      <trkpt lat="48.69583" lon="2.02186">
        <ele>87</ele>
        <time>2010-05-13T09:40:22Z</time>
      </trkpt>
      <trkpt lat="48.69585" lon="2.02183">
        <ele>87</ele>
        <time>2010-05-13T09:40:23Z</time>
      </trkpt>
      <trkpt lat="48.69587" lon="2.0218">
        <ele>87</ele>
        <time>2010-05-13T09:40:24Z</time>
      </trkpt>
      <trkpt lat="48.6959" lon="2.02179">
        <ele>87</ele>
        <time>2010-05-13T09:40:25Z</time>
      </trkpt>
      <trkpt lat="48.6959" lon="2.02176">
        <ele>87</ele>
        <time>2010-05-13T09:40:26Z</time>
      </trkpt>
      <trkpt lat="48.69592" lon="2.0217">
        <ele>87</ele>
        <time>2010-05-13T09:40:29Z</time>
      </trkpt>
      <trkpt lat="48.69593" lon="2.02167">
        <ele>87</ele>
        <time>2010-05-13T09:40:30Z</time>
      </trkpt>
      <trkpt lat="48.69593" lon="2.02164">
        <ele>87</ele>
        <time>2010-05-13T09:40:31Z</time>
      </trkpt>
      <trkpt lat="48.69596" lon="2.0216">
        <ele>87</ele>
        <time>2010-05-13T09:40:34Z</time>
      </trkpt>
      <trkpt lat="48.69599" lon="2.02157">
        <ele>87</ele>
        <time>2010-05-13T09:40:35Z</time>
      </trkpt>
      <trkpt lat="48.69597" lon="2.02154">
        <ele>87</ele>
        <time>2010-05-13T09:40:36Z</time>
      </trkpt>
      <trkpt lat="48.69596" lon="2.02151">
        <ele>87</ele>
        <time>2010-05-13T09:40:37Z</time>
      </trkpt>
      <trkpt lat="48.69596" lon="2.02148">
        <ele>87</ele>
        <time>2010-05-13T09:40:38Z</time>
      </trkpt>
      <trkpt lat="48.69599" lon="2.02146">
        <ele>87</ele>
        <time>2010-05-13T09:40:39Z</time>
      </trkpt>
      <trkpt lat="48.696" lon="2.02144">
        <ele>87</ele>
        <time>2010-05-13T09:40:40Z</time>
      </trkpt>
      <trkpt lat="48.69601" lon="2.02143">
        <ele>86</ele>
        <time>2010-05-13T09:40:41Z</time>
      </trkpt>
      <trkpt lat="48.69602" lon="2.02141">
        <ele>86</ele>
        <time>2010-05-13T09:40:42Z</time>
      </trkpt>
      <trkpt lat="48.69602" lon="2.02139">
        <ele>86</ele>
        <time>2010-05-13T09:40:44Z</time>
      </trkpt>
      <trkpt lat="48.69603" lon="2.02137">
        <ele>86</ele>
        <time>2010-05-13T09:40:45Z</time>
      </trkpt>
      <trkpt lat="48.69604" lon="2.02134">
        <ele>86</ele>
        <time>2010-05-13T09:40:47Z</time>
      </trkpt>
      <trkpt lat="48.69607" lon="2.02132">
        <ele>86</ele>
        <time>2010-05-13T09:40:49Z</time>
      </trkpt>
      <trkpt lat="48.69611" lon="2.02129">
        <ele>86</ele>
        <time>2010-05-13T09:40:50Z</time>
      </trkpt>
      <trkpt lat="48.69613" lon="2.02128">
        <ele>86</ele>
        <time>2010-05-13T09:40:51Z</time>
      </trkpt>
      <trkpt lat="48.69614" lon="2.02126">
        <ele>86</ele>
        <time>2010-05-13T09:40:52Z</time>
      </trkpt>
      <trkpt lat="48.69616" lon="2.02124">
        <ele>86</ele>
        <time>2010-05-13T09:40:53Z</time>
      </trkpt>
      <trkpt lat="48.69617" lon="2.02122">
        <ele>86</ele>
        <time>2010-05-13T09:40:54Z</time>
      </trkpt>
      <trkpt lat="48.69618" lon="2.0212">
        <ele>86</ele>
        <time>2010-05-13T09:40:55Z</time>
      </trkpt>
      <trkpt lat="48.6962" lon="2.02119">
        <ele>87</ele>
        <time>2010-05-13T09:40:56Z</time>
      </trkpt>
      <trkpt lat="48.69623" lon="2.02117">
        <ele>87</ele>
        <time>2010-05-13T09:40:57Z</time>
      </trkpt>
      <trkpt lat="48.69624" lon="2.02116">
        <ele>88</ele>
        <time>2010-05-13T09:40:58Z</time>
      </trkpt>
      <trkpt lat="48.69626" lon="2.02114">
        <ele>88</ele>
        <time>2010-05-13T09:40:59Z</time>
      </trkpt>
      <trkpt lat="48.69627" lon="2.02113">
        <ele>89</ele>
        <time>2010-05-13T09:41:00Z</time>
      </trkpt>
      <trkpt lat="48.69628" lon="2.02111">
        <ele>89</ele>
        <time>2010-05-13T09:41:01Z</time>
      </trkpt>
      <trkpt lat="48.69629" lon="2.02108">
        <ele>89</ele>
        <time>2010-05-13T09:41:03Z</time>
      </trkpt>
      <trkpt lat="48.69632" lon="2.02106">
        <ele>89</ele>
        <time>2010-05-13T09:41:05Z</time>
      </trkpt>
      <trkpt lat="48.69635" lon="2.02102">
        <ele>89</ele>
        <time>2010-05-13T09:41:07Z</time>
      </trkpt>
      <trkpt lat="48.69635" lon="2.02101">
        <ele>89</ele>
        <time>2010-05-13T09:41:08Z</time>
      </trkpt>
      <trkpt lat="48.69636" lon="2.02099">
        <ele>89</ele>
        <time>2010-05-13T09:41:09Z</time>
      </trkpt>
      <trkpt lat="48.69637" lon="2.02097">
        <ele>89</ele>
        <time>2010-05-13T09:41:10Z</time>
      </trkpt>
      <trkpt lat="48.69638" lon="2.02095">
        <ele>89</ele>
        <time>2010-05-13T09:41:11Z</time>
      </trkpt>
      <trkpt lat="48.69639" lon="2.02093">
        <ele>89</ele>
        <time>2010-05-13T09:41:12Z</time>
      </trkpt>
      <trkpt lat="48.69641" lon="2.02091">
        <ele>89</ele>
        <time>2010-05-13T09:41:13Z</time>
      </trkpt>
      <trkpt lat="48.69643" lon="2.0209">
        <ele>89</ele>
        <time>2010-05-13T09:41:14Z</time>
      </trkpt>
      <trkpt lat="48.69644" lon="2.02088">
        <ele>89</ele>
        <time>2010-05-13T09:41:15Z</time>
      </trkpt>
      <trkpt lat="48.69645" lon="2.02088">
        <ele>89</ele>
        <time>2010-05-13T09:41:16Z</time>
      </trkpt>
      <trkpt lat="48.69648" lon="2.02084">
        <ele>89</ele>
        <time>2010-05-13T09:41:18Z</time>
      </trkpt>
      <trkpt lat="48.6965" lon="2.02084">
        <ele>89</ele>
        <time>2010-05-13T09:41:19Z</time>
      </trkpt>
      <trkpt lat="48.69652" lon="2.02083">
        <ele>89</ele>
        <time>2010-05-13T09:41:21Z</time>
      </trkpt>
      <trkpt lat="48.69653" lon="2.02083">
        <ele>89</ele>
        <time>2010-05-13T09:41:22Z</time>
      </trkpt>
      <trkpt lat="48.69654" lon="2.02084">
        <ele>90</ele>
        <time>2010-05-13T09:41:23Z</time>
      </trkpt>
      <trkpt lat="48.69656" lon="2.02084">
        <ele>91</ele>
        <time>2010-05-13T09:41:24Z</time>
      </trkpt>
      <trkpt lat="48.69657" lon="2.02083">
        <ele>91</ele>
        <time>2010-05-13T09:41:25Z</time>
      </trkpt>
      <trkpt lat="48.69659" lon="2.02083">
        <ele>92</ele>
        <time>2010-05-13T09:41:26Z</time>
      </trkpt>
      <trkpt lat="48.69661" lon="2.02082">
        <ele>93</ele>
        <time>2010-05-13T09:41:27Z</time>
      </trkpt>
      <trkpt lat="48.69662" lon="2.02081">
        <ele>94</ele>
        <time>2010-05-13T09:41:28Z</time>
      </trkpt>
      <trkpt lat="48.69664" lon="2.02079">
        <ele>94</ele>
        <time>2010-05-13T09:41:30Z</time>
      </trkpt>
      <trkpt lat="48.69665" lon="2.02078">
        <ele>94</ele>
        <time>2010-05-13T09:41:31Z</time>
      </trkpt>
      <trkpt lat="48.69666" lon="2.02078">
        <ele>95</ele>
        <time>2010-05-13T09:41:32Z</time>
      </trkpt>
      <trkpt lat="48.69668" lon="2.02077">
        <ele>95</ele>
        <time>2010-05-13T09:41:33Z</time>
      </trkpt>
      <trkpt lat="48.69669" lon="2.02077">
        <ele>96</ele>
        <time>2010-05-13T09:41:34Z</time>
      </trkpt>
      <trkpt lat="48.69671" lon="2.02076">
        <ele>96</ele>
        <time>2010-05-13T09:41:35Z</time>
      </trkpt>
      <trkpt lat="48.69673" lon="2.02073">
        <ele>97</ele>
        <time>2010-05-13T09:41:36Z</time>
      </trkpt>
      <trkpt lat="48.69675" lon="2.02072">
        <ele>97</ele>
        <time>2010-05-13T09:41:37Z</time>
      </trkpt>
      <trkpt lat="48.69676" lon="2.02071">
        <ele>97</ele>
        <time>2010-05-13T09:41:38Z</time>
      </trkpt>
      <trkpt lat="48.69678" lon="2.0207">
        <ele>98</ele>
        <time>2010-05-13T09:41:39Z</time>
      </trkpt>
      <trkpt lat="48.6968" lon="2.02069">
        <ele>98</ele>
        <time>2010-05-13T09:41:40Z</time>
      </trkpt>
      <trkpt lat="48.69682" lon="2.02069">
        <ele>100</ele>
        <time>2010-05-13T09:41:42Z</time>
      </trkpt>
      <trkpt lat="48.69684" lon="2.02068">
        <ele>101</ele>
        <time>2010-05-13T09:41:43Z</time>
      </trkpt>
      <trkpt lat="48.69685" lon="2.02066">
        <ele>101</ele>
        <time>2010-05-13T09:41:44Z</time>
      </trkpt>
      <trkpt lat="48.69687" lon="2.02065">
        <ele>102</ele>
        <time>2010-05-13T09:41:45Z</time>
      </trkpt>
      <trkpt lat="48.69689" lon="2.02063">
        <ele>102</ele>
        <time>2010-05-13T09:41:46Z</time>
      </trkpt>
      <trkpt lat="48.6969" lon="2.02062">
        <ele>103</ele>
        <time>2010-05-13T09:41:47Z</time>
      </trkpt>
      <trkpt lat="48.69692" lon="2.0206">
        <ele>103</ele>
        <time>2010-05-13T09:41:48Z</time>
      </trkpt>
      <trkpt lat="48.69694" lon="2.02058">
        <ele>103</ele>
        <time>2010-05-13T09:41:49Z</time>
      </trkpt>
      <trkpt lat="48.69696" lon="2.02057">
        <ele>103</ele>
        <time>2010-05-13T09:41:50Z</time>
      </trkpt>
      <trkpt lat="48.697" lon="2.02054">
        <ele>103</ele>
        <time>2010-05-13T09:41:52Z</time>
      </trkpt>
      <trkpt lat="48.69702" lon="2.02052">
        <ele>103</ele>
        <time>2010-05-13T09:41:53Z</time>
      </trkpt>
      <trkpt lat="48.69704" lon="2.02051">
        <ele>103</ele>
        <time>2010-05-13T09:41:54Z</time>
      </trkpt>
      <trkpt lat="48.69705" lon="2.02049">
        <ele>103</ele>
        <time>2010-05-13T09:41:55Z</time>
      </trkpt>
      <trkpt lat="48.69707" lon="2.02048">
        <ele>103</ele>
        <time>2010-05-13T09:41:56Z</time>
      </trkpt>
      <trkpt lat="48.69709" lon="2.02046">
        <ele>103</ele>
        <time>2010-05-13T09:41:57Z</time>
      </trkpt>
      <trkpt lat="48.6971" lon="2.02045">
        <ele>102</ele>
        <time>2010-05-13T09:41:58Z</time>
      </trkpt>
      <trkpt lat="48.69713" lon="2.02045">
        <ele>101</ele>
        <time>2010-05-13T09:41:59Z</time>
      </trkpt>
      <trkpt lat="48.69715" lon="2.02044">
        <ele>101</ele>
        <time>2010-05-13T09:42:00Z</time>
      </trkpt>
      <trkpt lat="48.69717" lon="2.02044">
        <ele>101</ele>
        <time>2010-05-13T09:42:01Z</time>
      </trkpt>
      <trkpt lat="48.69718" lon="2.02043">
        <ele>100</ele>
        <time>2010-05-13T09:42:02Z</time>
      </trkpt>
      <trkpt lat="48.6972" lon="2.02042">
        <ele>99</ele>
        <time>2010-05-13T09:42:03Z</time>
      </trkpt>
      <trkpt lat="48.69721" lon="2.02042">
        <ele>99</ele>
        <time>2010-05-13T09:42:04Z</time>
      </trkpt>
      <trkpt lat="48.69722" lon="2.02041">
        <ele>98</ele>
        <time>2010-05-13T09:42:05Z</time>
      </trkpt>
      <trkpt lat="48.69724" lon="2.02041">
        <ele>98</ele>
        <time>2010-05-13T09:42:06Z</time>
      </trkpt>
      <trkpt lat="48.69726" lon="2.0204">
        <ele>97</ele>
        <time>2010-05-13T09:42:07Z</time>
      </trkpt>
      <trkpt lat="48.69727" lon="2.02038">
        <ele>97</ele>
        <time>2010-05-13T09:42:09Z</time>
      </trkpt>
      <trkpt lat="48.69729" lon="2.02036">
        <ele>97</ele>
        <time>2010-05-13T09:42:11Z</time>
      </trkpt>
      <trkpt lat="48.6973" lon="2.02036">
        <ele>97</ele>
        <time>2010-05-13T09:42:12Z</time>
      </trkpt>
      <trkpt lat="48.69732" lon="2.02035">
        <ele>97</ele>
        <time>2010-05-13T09:42:13Z</time>
      </trkpt>
      <trkpt lat="48.69734" lon="2.02034">
        <ele>97</ele>
        <time>2010-05-13T09:42:15Z</time>
      </trkpt>
      <trkpt lat="48.69735" lon="2.02033">
        <ele>97</ele>
        <time>2010-05-13T09:42:16Z</time>
      </trkpt>
      <trkpt lat="48.69738" lon="2.02031">
        <ele>97</ele>
        <time>2010-05-13T09:42:18Z</time>
      </trkpt>
      <trkpt lat="48.69739" lon="2.02029">
        <ele>97</ele>
        <time>2010-05-13T09:42:19Z</time>
      </trkpt>
      <trkpt lat="48.69741" lon="2.02028">
        <ele>97</ele>
        <time>2010-05-13T09:42:21Z</time>
      </trkpt>
      <trkpt lat="48.69744" lon="2.02027">
        <ele>97</ele>
        <time>2010-05-13T09:42:22Z</time>
      </trkpt>
      <trkpt lat="48.69745" lon="2.02026">
        <ele>97</ele>
        <time>2010-05-13T09:42:23Z</time>
      </trkpt>
      <trkpt lat="48.69747" lon="2.02024">
        <ele>97</ele>
        <time>2010-05-13T09:42:24Z</time>
      </trkpt>
      <trkpt lat="48.69749" lon="2.02023">
        <ele>97</ele>
        <time>2010-05-13T09:42:26Z</time>
      </trkpt>
      <trkpt lat="48.6975" lon="2.02022">
        <ele>97</ele>
        <time>2010-05-13T09:42:27Z</time>
      </trkpt>
      <trkpt lat="48.69751" lon="2.02022">
        <ele>97</ele>
        <time>2010-05-13T09:42:28Z</time>
      </trkpt>
      <trkpt lat="48.69752" lon="2.02021">
        <ele>97</ele>
        <time>2010-05-13T09:42:29Z</time>
      </trkpt>
      <trkpt lat="48.69754" lon="2.02018">
        <ele>97</ele>
        <time>2010-05-13T09:42:31Z</time>
      </trkpt>
      <trkpt lat="48.69755" lon="2.02016">
        <ele>97</ele>
        <time>2010-05-13T09:42:33Z</time>
      </trkpt>
      <trkpt lat="48.69758" lon="2.02014">
        <ele>97</ele>
        <time>2010-05-13T09:42:35Z</time>
      </trkpt>
      <trkpt lat="48.6976" lon="2.02013">
        <ele>97</ele>
        <time>2010-05-13T09:42:36Z</time>
      </trkpt>
      <trkpt lat="48.69762" lon="2.02013">
        <ele>97</ele>
        <time>2010-05-13T09:42:37Z</time>
      </trkpt>
      <trkpt lat="48.69764" lon="2.02012">
        <ele>97</ele>
        <time>2010-05-13T09:42:38Z</time>
      </trkpt>
      <trkpt lat="48.69766" lon="2.02012">
        <ele>97</ele>
        <time>2010-05-13T09:42:39Z</time>
      </trkpt>
      <trkpt lat="48.69767" lon="2.02011">
        <ele>97</ele>
        <time>2010-05-13T09:42:40Z</time>
      </trkpt>
      <trkpt lat="48.69768" lon="2.02009">
        <ele>97</ele>
        <time>2010-05-13T09:42:41Z</time>
      </trkpt>
      <trkpt lat="48.6977" lon="2.02008">
        <ele>97</ele>
        <time>2010-05-13T09:42:42Z</time>
      </trkpt>
      <trkpt lat="48.69772" lon="2.02007">
        <ele>97</ele>
        <time>2010-05-13T09:42:43Z</time>
      </trkpt>
      <trkpt lat="48.69775" lon="2.02006">
        <ele>97</ele>
        <time>2010-05-13T09:42:44Z</time>
      </trkpt>
      <trkpt lat="48.69776" lon="2.02005">
        <ele>97</ele>
        <time>2010-05-13T09:42:45Z</time>
      </trkpt>
      <trkpt lat="48.69778" lon="2.02004">
        <ele>97</ele>
        <time>2010-05-13T09:42:46Z</time>
      </trkpt>
      <trkpt lat="48.69781" lon="2.02003">
        <ele>97</ele>
        <time>2010-05-13T09:42:47Z</time>
      </trkpt>
      <trkpt lat="48.69782" lon="2.02002">
        <ele>97</ele>
        <time>2010-05-13T09:42:48Z</time>
      </trkpt>
      <trkpt lat="48.69784" lon="2.02001">
        <ele>97</ele>
        <time>2010-05-13T09:42:49Z</time>
      </trkpt>
      <trkpt lat="48.69786" lon="2.01998">
        <ele>97</ele>
        <time>2010-05-13T09:42:51Z</time>
      </trkpt>
      <trkpt lat="48.69788" lon="2.01996">
        <ele>96</ele>
        <time>2010-05-13T09:42:53Z</time>
      </trkpt>
      <trkpt lat="48.6979" lon="2.01995">
        <ele>96</ele>
        <time>2010-05-13T09:42:54Z</time>
      </trkpt>
      <trkpt lat="48.69791" lon="2.01995">
        <ele>96</ele>
        <time>2010-05-13T09:42:55Z</time>
      </trkpt>
      <trkpt lat="48.69793" lon="2.01994">
        <ele>96</ele>
        <time>2010-05-13T09:42:57Z</time>
      </trkpt>
      <trkpt lat="48.69796" lon="2.01993">
        <ele>96</ele>
        <time>2010-05-13T09:42:58Z</time>
      </trkpt>
      <trkpt lat="48.69797" lon="2.01992">
        <ele>96</ele>
        <time>2010-05-13T09:42:59Z</time>
      </trkpt>
      <trkpt lat="48.69799" lon="2.01991">
        <ele>96</ele>
        <time>2010-05-13T09:43:00Z</time>
      </trkpt>
      <trkpt lat="48.698" lon="2.0199">
        <ele>96</ele>
        <time>2010-05-13T09:43:01Z</time>
      </trkpt>
      <trkpt lat="48.69802" lon="2.01988">
        <ele>96</ele>
        <time>2010-05-13T09:43:02Z</time>
      </trkpt>
      <trkpt lat="48.69803" lon="2.01987">
        <ele>96</ele>
        <time>2010-05-13T09:43:03Z</time>
      </trkpt>
      <trkpt lat="48.69804" lon="2.01985">
        <ele>96</ele>
        <time>2010-05-13T09:43:04Z</time>
      </trkpt>
      <trkpt lat="48.69806" lon="2.01983">
        <ele>96</ele>
        <time>2010-05-13T09:43:05Z</time>
      </trkpt>
      <trkpt lat="48.69808" lon="2.01981">
        <ele>96</ele>
        <time>2010-05-13T09:43:06Z</time>
      </trkpt>
      <trkpt lat="48.6981" lon="2.01979">
        <ele>96</ele>
        <time>2010-05-13T09:43:07Z</time>
      </trkpt>
      <trkpt lat="48.69811" lon="2.01977">
        <ele>96</ele>
        <time>2010-05-13T09:43:08Z</time>
      </trkpt>
      <trkpt lat="48.69812" lon="2.01975">
        <ele>96</ele>
        <time>2010-05-13T09:43:09Z</time>
      </trkpt>
      <trkpt lat="48.69812" lon="2.01973">
        <ele>95</ele>
        <time>2010-05-13T09:43:10Z</time>
      </trkpt>
      <trkpt lat="48.69815" lon="2.01971">
        <ele>94</ele>
        <time>2010-05-13T09:43:12Z</time>
      </trkpt>
      <trkpt lat="48.69816" lon="2.0197">
        <ele>92</ele>
        <time>2010-05-13T09:43:14Z</time>
      </trkpt>
      <trkpt lat="48.69818" lon="2.0197">
        <ele>92</ele>
        <time>2010-05-13T09:43:15Z</time>
      </trkpt>
      <trkpt lat="48.69819" lon="2.01969">
        <ele>92</ele>
        <time>2010-05-13T09:43:18Z</time>
      </trkpt>
      <trkpt lat="48.6982" lon="2.01968">
        <ele>92</ele>
        <time>2010-05-13T09:43:22Z</time>
      </trkpt>
      <trkpt lat="48.69821" lon="2.01966">
        <ele>92</ele>
        <time>2010-05-13T09:43:24Z</time>
      </trkpt>
      <trkpt lat="48.69822" lon="2.01967">
        <ele>92</ele>
        <time>2010-05-13T09:43:26Z</time>
      </trkpt>
      <trkpt lat="48.69825" lon="2.01966">
        <ele>92</ele>
        <time>2010-05-13T09:43:28Z</time>
      </trkpt>
      <trkpt lat="48.69828" lon="2.01967">
        <ele>92</ele>
        <time>2010-05-13T09:43:30Z</time>
      </trkpt>
      <trkpt lat="48.69829" lon="2.01969">
        <ele>92</ele>
        <time>2010-05-13T09:43:31Z</time>
      </trkpt>
      <trkpt lat="48.69829" lon="2.01967">
        <ele>92</ele>
        <time>2010-05-13T09:43:33Z</time>
      </trkpt>
      <trkpt lat="48.6983" lon="2.01965">
        <ele>92</ele>
        <time>2010-05-13T09:43:35Z</time>
      </trkpt>
      <trkpt lat="48.6983" lon="2.01962">
        <ele>92</ele>
        <time>2010-05-13T09:43:42Z</time>
      </trkpt>
      <trkpt lat="48.6983" lon="2.01961">
        <ele>92</ele>
        <time>2010-05-13T09:43:43Z</time>
      </trkpt>
      <trkpt lat="48.6983" lon="2.01957">
        <ele>92</ele>
        <time>2010-05-13T09:43:44Z</time>
      </trkpt>
      <trkpt lat="48.69832" lon="2.01954">
        <ele>92</ele>
        <time>2010-05-13T09:43:45Z</time>
      </trkpt>
      <trkpt lat="48.69833" lon="2.01952">
        <ele>92</ele>
        <time>2010-05-13T09:43:46Z</time>
      </trkpt>
      <trkpt lat="48.69834" lon="2.01949">
        <ele>92</ele>
        <time>2010-05-13T09:43:47Z</time>
      </trkpt>
      <trkpt lat="48.69835" lon="2.01946">
        <ele>92</ele>
        <time>2010-05-13T09:43:48Z</time>
      </trkpt>
      <trkpt lat="48.69844" lon="2.01923">
        <ele>92</ele>
        <time>2010-05-13T09:43:53Z</time>
      </trkpt>
      <trkpt lat="48.69846" lon="2.0191">
        <ele>92</ele>
        <time>2010-05-13T09:43:54Z</time>
      </trkpt>
      <trkpt lat="48.69849" lon="2.01903">
        <ele>92</ele>
        <time>2010-05-13T09:43:55Z</time>
      </trkpt>
      <trkpt lat="48.69854" lon="2.01898">
        <ele>92</ele>
        <time>2010-05-13T09:43:56Z</time>
      </trkpt>
      <trkpt lat="48.69855" lon="2.01894">
        <ele>91</ele>
        <time>2010-05-13T09:43:57Z</time>
      </trkpt>
      <trkpt lat="48.69858" lon="2.0189">
        <ele>91</ele>
        <time>2010-05-13T09:43:58Z</time>
      </trkpt>
      <trkpt lat="48.69863" lon="2.01885">
        <ele>91</ele>
        <time>2010-05-13T09:43:59Z</time>
      </trkpt>
      <trkpt lat="48.69864" lon="2.01881">
        <ele>91</ele>
        <time>2010-05-13T09:44:00Z</time>
      </trkpt>
      <trkpt lat="48.69866" lon="2.01876">
        <ele>91</ele>
        <time>2010-05-13T09:44:01Z</time>
      </trkpt>
      <trkpt lat="48.69868" lon="2.01871">
        <ele>91</ele>
        <time>2010-05-13T09:44:02Z</time>
      </trkpt>
      <trkpt lat="48.69871" lon="2.01866">
        <ele>91</ele>
        <time>2010-05-13T09:44:03Z</time>
      </trkpt>
      <trkpt lat="48.69872" lon="2.01862">
        <ele>91</ele>
        <time>2010-05-13T09:44:04Z</time>
      </trkpt>
      <trkpt lat="48.69875" lon="2.01858">
        <ele>91</ele>
        <time>2010-05-13T09:44:05Z</time>
      </trkpt>
      <trkpt lat="48.69875" lon="2.01854">
        <ele>91</ele>
        <time>2010-05-13T09:44:06Z</time>
      </trkpt>
      <trkpt lat="48.69877" lon="2.01851">
        <ele>91</ele>
        <time>2010-05-13T09:44:07Z</time>
      </trkpt>
      <trkpt lat="48.69876" lon="2.01848">
        <ele>91</ele>
        <time>2010-05-13T09:44:08Z</time>
      </trkpt>
      <trkpt lat="48.6988" lon="2.01841">
        <ele>90</ele>
        <time>2010-05-13T09:44:11Z</time>
      </trkpt>
      <trkpt lat="48.69882" lon="2.01836">
        <ele>90</ele>
        <time>2010-05-13T09:44:12Z</time>
      </trkpt>
      <trkpt lat="48.69884" lon="2.01832">
        <ele>90</ele>
        <time>2010-05-13T09:44:13Z</time>
      </trkpt>
      <trkpt lat="48.69887" lon="2.01829">
        <ele>90</ele>
        <time>2010-05-13T09:44:14Z</time>
      </trkpt>
      <trkpt lat="48.69889" lon="2.01828">
        <ele>90</ele>
        <time>2010-05-13T09:44:15Z</time>
      </trkpt>
      <trkpt lat="48.6989" lon="2.01824">
        <ele>90</ele>
        <time>2010-05-13T09:44:17Z</time>
      </trkpt>
      <trkpt lat="48.6989" lon="2.01821">
        <ele>90</ele>
        <time>2010-05-13T09:44:18Z</time>
      </trkpt>
      <trkpt lat="48.69891" lon="2.01819">
        <ele>90</ele>
        <time>2010-05-13T09:44:19Z</time>
      </trkpt>
      <trkpt lat="48.69891" lon="2.01816">
        <ele>90</ele>
        <time>2010-05-13T09:44:20Z</time>
      </trkpt>
      <trkpt lat="48.69893" lon="2.01814">
        <ele>89</ele>
        <time>2010-05-13T09:44:21Z</time>
      </trkpt>
      <trkpt lat="48.69894" lon="2.01812">
        <ele>88</ele>
        <time>2010-05-13T09:44:22Z</time>
      </trkpt>
      <trkpt lat="48.69895" lon="2.0181">
        <ele>88</ele>
        <time>2010-05-13T09:44:23Z</time>
      </trkpt>
      <trkpt lat="48.69895" lon="2.01808">
        <ele>88</ele>
        <time>2010-05-13T09:44:24Z</time>
      </trkpt>
      <trkpt lat="48.69896" lon="2.01807">
        <ele>88</ele>
        <time>2010-05-13T09:44:25Z</time>
      </trkpt>
      <trkpt lat="48.69896" lon="2.01805">
        <ele>88</ele>
        <time>2010-05-13T09:44:26Z</time>
      </trkpt>
      <trkpt lat="48.69898" lon="2.018">
        <ele>88</ele>
        <time>2010-05-13T09:44:29Z</time>
      </trkpt>
      <trkpt lat="48.69901" lon="2.01797">
        <ele>88</ele>
        <time>2010-05-13T09:44:30Z</time>
      </trkpt>
      <trkpt lat="48.69903" lon="2.01794">
        <ele>88</ele>
        <time>2010-05-13T09:44:31Z</time>
      </trkpt>
      <trkpt lat="48.69903" lon="2.01792">
        <ele>88</ele>
        <time>2010-05-13T09:44:32Z</time>
      </trkpt>
      <trkpt lat="48.69905" lon="2.0179">
        <ele>88</ele>
        <time>2010-05-13T09:44:33Z</time>
      </trkpt>
      <trkpt lat="48.69906" lon="2.0179">
        <ele>88</ele>
        <time>2010-05-13T09:44:34Z</time>
      </trkpt>
      <trkpt lat="48.69906" lon="2.01784">
        <ele>88</ele>
        <time>2010-05-13T09:44:37Z</time>
      </trkpt>
      <trkpt lat="48.69903" lon="2.0178">
        <ele>88</ele>
        <time>2010-05-13T09:44:38Z</time>
      </trkpt>
      <trkpt lat="48.69907" lon="2.01777">
        <ele>88</ele>
        <time>2010-05-13T09:44:39Z</time>
      </trkpt>
      <trkpt lat="48.69907" lon="2.01775">
        <ele>88</ele>
        <time>2010-05-13T09:44:40Z</time>
      </trkpt>
      <trkpt lat="48.69908" lon="2.01773">
        <ele>89</ele>
        <time>2010-05-13T09:44:41Z</time>
      </trkpt>
      <trkpt lat="48.6991" lon="2.01771">
        <ele>90</ele>
        <time>2010-05-13T09:44:42Z</time>
      </trkpt>
      <trkpt lat="48.69912" lon="2.01768">
        <ele>91</ele>
        <time>2010-05-13T09:44:43Z</time>
      </trkpt>
      <trkpt lat="48.69913" lon="2.01765">
        <ele>92</ele>
        <time>2010-05-13T09:44:44Z</time>
      </trkpt>
      <trkpt lat="48.69914" lon="2.01762">
        <ele>92</ele>
        <time>2010-05-13T09:44:45Z</time>
      </trkpt>
      <trkpt lat="48.69914" lon="2.0176">
        <ele>92</ele>
        <time>2010-05-13T09:44:46Z</time>
      </trkpt>
      <trkpt lat="48.69915" lon="2.01757">
        <ele>92</ele>
        <time>2010-05-13T09:44:48Z</time>
      </trkpt>
      <trkpt lat="48.69915" lon="2.01755">
        <ele>92</ele>
        <time>2010-05-13T09:44:49Z</time>
      </trkpt>
      <trkpt lat="48.69916" lon="2.01754">
        <ele>92</ele>
        <time>2010-05-13T09:44:50Z</time>
      </trkpt>
      <trkpt lat="48.69915" lon="2.01752">
        <ele>92</ele>
        <time>2010-05-13T09:44:51Z</time>
      </trkpt>
      <trkpt lat="48.69915" lon="2.01749">
        <ele>92</ele>
        <time>2010-05-13T09:44:52Z</time>
      </trkpt>
      <trkpt lat="48.69916" lon="2.01746">
        <ele>92</ele>
        <time>2010-05-13T09:44:53Z</time>
      </trkpt>
      <trkpt lat="48.69916" lon="2.01744">
        <ele>92</ele>
        <time>2010-05-13T09:44:54Z</time>
      </trkpt>
      <trkpt lat="48.69916" lon="2.01742">
        <ele>92</ele>
        <time>2010-05-13T09:44:55Z</time>
      </trkpt>
      <trkpt lat="48.69916" lon="2.0174">
        <ele>92</ele>
        <time>2010-05-13T09:44:56Z</time>
      </trkpt>
      <trkpt lat="48.69916" lon="2.01738">
        <ele>92</ele>
        <time>2010-05-13T09:44:57Z</time>
      </trkpt>
      <trkpt lat="48.69916" lon="2.01736">
        <ele>92</ele>
        <time>2010-05-13T09:44:58Z</time>
      </trkpt>
      <trkpt lat="48.69916" lon="2.01734">
        <ele>91</ele>
        <time>2010-05-13T09:44:59Z</time>
      </trkpt>
      <trkpt lat="48.69917" lon="2.0173">
        <ele>89</ele>
        <time>2010-05-13T09:45:01Z</time>
      </trkpt>
      <trkpt lat="48.69917" lon="2.01728">
        <ele>88</ele>
        <time>2010-05-13T09:45:02Z</time>
      </trkpt>
      <trkpt lat="48.69918" lon="2.01726">
        <ele>87</ele>
        <time>2010-05-13T09:45:03Z</time>
      </trkpt>
      <trkpt lat="48.69919" lon="2.01725">
        <ele>86</ele>
        <time>2010-05-13T09:45:04Z</time>
      </trkpt>
      <trkpt lat="48.69919" lon="2.01723">
        <ele>85</ele>
        <time>2010-05-13T09:45:05Z</time>
      </trkpt>
      <trkpt lat="48.6992" lon="2.01721">
        <ele>85</ele>
        <time>2010-05-13T09:45:06Z</time>
      </trkpt>
      <trkpt lat="48.69921" lon="2.01719">
        <ele>85</ele>
        <time>2010-05-13T09:45:07Z</time>
      </trkpt>
      <trkpt lat="48.69923" lon="2.01718">
        <ele>85</ele>
        <time>2010-05-13T09:45:08Z</time>
      </trkpt>
      <trkpt lat="48.69923" lon="2.01715">
        <ele>84</ele>
        <time>2010-05-13T09:45:09Z</time>
      </trkpt>
      <trkpt lat="48.69923" lon="2.01712">
        <ele>84</ele>
        <time>2010-05-13T09:45:10Z</time>
      </trkpt>
      <trkpt lat="48.69923" lon="2.0171">
        <ele>83</ele>
        <time>2010-05-13T09:45:11Z</time>
      </trkpt>
      <trkpt lat="48.69924" lon="2.01708">
        <ele>83</ele>
        <time>2010-05-13T09:45:12Z</time>
      </trkpt>
      <trkpt lat="48.69924" lon="2.01706">
        <ele>82</ele>
        <time>2010-05-13T09:45:13Z</time>
      </trkpt>
      <trkpt lat="48.69924" lon="2.01704">
        <ele>81</ele>
        <time>2010-05-13T09:45:14Z</time>
      </trkpt>
      <trkpt lat="48.69924" lon="2.01702">
        <ele>81</ele>
        <time>2010-05-13T09:45:15Z</time>
      </trkpt>
      <trkpt lat="48.69925" lon="2.01699">
        <ele>80</ele>
        <time>2010-05-13T09:45:16Z</time>
      </trkpt>
      <trkpt lat="48.69926" lon="2.01698">
        <ele>80</ele>
        <time>2010-05-13T09:45:17Z</time>
      </trkpt>
      <trkpt lat="48.69926" lon="2.01695">
        <ele>80</ele>
        <time>2010-05-13T09:45:18Z</time>
      </trkpt>
      <trkpt lat="48.69928" lon="2.01692">
        <ele>79</ele>
        <time>2010-05-13T09:45:19Z</time>
      </trkpt>
      <trkpt lat="48.6993" lon="2.0169">
        <ele>79</ele>
        <time>2010-05-13T09:45:20Z</time>
      </trkpt>
      <trkpt lat="48.69932" lon="2.01687">
        <ele>79</ele>
        <time>2010-05-13T09:45:21Z</time>
      </trkpt>
      <trkpt lat="48.69936" lon="2.01685">
        <ele>79</ele>
        <time>2010-05-13T09:45:22Z</time>
      </trkpt>
      <trkpt lat="48.69939" lon="2.01682">
        <ele>79</ele>
        <time>2010-05-13T09:45:23Z</time>
      </trkpt>
      <trkpt lat="48.69941" lon="2.0168">
        <ele>79</ele>
        <time>2010-05-13T09:45:24Z</time>
      </trkpt>
      <trkpt lat="48.69944" lon="2.01678">
        <ele>79</ele>
        <time>2010-05-13T09:45:25Z</time>
      </trkpt>
      <trkpt lat="48.69946" lon="2.01676">
        <ele>79</ele>
        <time>2010-05-13T09:45:26Z</time>
      </trkpt>
      <trkpt lat="48.69948" lon="2.01674">
        <ele>79</ele>
        <time>2010-05-13T09:45:27Z</time>
      </trkpt>
      <trkpt lat="48.69948" lon="2.01672">
        <ele>79</ele>
        <time>2010-05-13T09:45:28Z</time>
      </trkpt>
      <trkpt lat="48.6995" lon="2.0167">
        <ele>79</ele>
        <time>2010-05-13T09:45:29Z</time>
      </trkpt>
      <trkpt lat="48.69951" lon="2.01668">
        <ele>79</ele>
        <time>2010-05-13T09:45:30Z</time>
      </trkpt>
      <trkpt lat="48.69951" lon="2.01666">
        <ele>79</ele>
        <time>2010-05-13T09:45:31Z</time>
      </trkpt>
      <trkpt lat="48.69951" lon="2.01664">
        <ele>79</ele>
        <time>2010-05-13T09:45:32Z</time>
      </trkpt>
      <trkpt lat="48.69953" lon="2.01662">
        <ele>80</ele>
        <time>2010-05-13T09:45:33Z</time>
      </trkpt>
      <trkpt lat="48.69954" lon="2.01659">
        <ele>80</ele>
        <time>2010-05-13T09:45:34Z</time>
      </trkpt>
      <trkpt lat="48.69956" lon="2.01658">
        <ele>80</ele>
        <time>2010-05-13T09:45:35Z</time>
      </trkpt>
      <trkpt lat="48.69958" lon="2.01656">
        <ele>80</ele>
        <time>2010-05-13T09:45:36Z</time>
      </trkpt>
      <trkpt lat="48.69959" lon="2.01654">
        <ele>81</ele>
        <time>2010-05-13T09:45:37Z</time>
      </trkpt>
      <trkpt lat="48.69962" lon="2.01651">
        <ele>82</ele>
        <time>2010-05-13T09:45:39Z</time>
      </trkpt>
      <trkpt lat="48.69963" lon="2.0165">
        <ele>83</ele>
        <time>2010-05-13T09:45:40Z</time>
      </trkpt>
      <trkpt lat="48.69965" lon="2.01648">
        <ele>84</ele>
        <time>2010-05-13T09:45:41Z</time>
      </trkpt>
      <trkpt lat="48.69967" lon="2.01646">
        <ele>85</ele>
        <time>2010-05-13T09:45:42Z</time>
      </trkpt>
      <trkpt lat="48.69968" lon="2.01643">
        <ele>85</ele>
        <time>2010-05-13T09:45:43Z</time>
      </trkpt>
      <trkpt lat="48.69968" lon="2.0164">
        <ele>85</ele>
        <time>2010-05-13T09:45:44Z</time>
      </trkpt>
      <trkpt lat="48.69968" lon="2.01638">
        <ele>85</ele>
        <time>2010-05-13T09:45:45Z</time>
      </trkpt>
      <trkpt lat="48.69969" lon="2.01635">
        <ele>85</ele>
        <time>2010-05-13T09:45:46Z</time>
      </trkpt>
      <trkpt lat="48.69971" lon="2.01634">
        <ele>85</ele>
        <time>2010-05-13T09:45:47Z</time>
      </trkpt>
      <trkpt lat="48.69973" lon="2.01633">
        <ele>85</ele>
        <time>2010-05-13T09:45:48Z</time>
      </trkpt>
      <trkpt lat="48.69975" lon="2.01632">
        <ele>85</ele>
        <time>2010-05-13T09:45:49Z</time>
      </trkpt>
      <trkpt lat="48.69977" lon="2.01631">
        <ele>85</ele>
        <time>2010-05-13T09:45:50Z</time>
      </trkpt>
      <trkpt lat="48.69979" lon="2.0163">
        <ele>85</ele>
        <time>2010-05-13T09:45:51Z</time>
      </trkpt>
      <trkpt lat="48.69981" lon="2.0163">
        <ele>85</ele>
        <time>2010-05-13T09:45:52Z</time>
      </trkpt>
      <trkpt lat="48.69982" lon="2.01629">
        <ele>85</ele>
        <time>2010-05-13T09:45:53Z</time>
      </trkpt>
      <trkpt lat="48.69984" lon="2.01628">
        <ele>85</ele>
        <time>2010-05-13T09:45:55Z</time>
      </trkpt>
      <trkpt lat="48.69986" lon="2.01627">
        <ele>84</ele>
        <time>2010-05-13T09:45:56Z</time>
      </trkpt>
      <trkpt lat="48.69988" lon="2.01626">
        <ele>83</ele>
        <time>2010-05-13T09:45:57Z</time>
      </trkpt>
      <trkpt lat="48.69989" lon="2.01625">
        <ele>83</ele>
        <time>2010-05-13T09:45:58Z</time>
      </trkpt>
      <trkpt lat="48.69991" lon="2.01624">
        <ele>82</ele>
        <time>2010-05-13T09:45:59Z</time>
      </trkpt>
      <trkpt lat="48.69992" lon="2.01624">
        <ele>82</ele>
        <time>2010-05-13T09:46:00Z</time>
      </trkpt>
      <trkpt lat="48.69994" lon="2.01623">
        <ele>82</ele>
        <time>2010-05-13T09:46:01Z</time>
      </trkpt>
      <trkpt lat="48.69995" lon="2.01622">
        <ele>82</ele>
        <time>2010-05-13T09:46:02Z</time>
      </trkpt>
      <trkpt lat="48.69997" lon="2.01621">
        <ele>81</ele>
        <time>2010-05-13T09:46:03Z</time>
      </trkpt>
      <trkpt lat="48.69998" lon="2.01621">
        <ele>81</ele>
        <time>2010-05-13T09:46:04Z</time>
      </trkpt>
      <trkpt lat="48.7" lon="2.01622">
        <ele>80</ele>
        <time>2010-05-13T09:46:05Z</time>
      </trkpt>
      <trkpt lat="48.70002" lon="2.01622">
        <ele>79</ele>
        <time>2010-05-13T09:46:06Z</time>
      </trkpt>
      <trkpt lat="48.70003" lon="2.0162">
        <ele>78</ele>
        <time>2010-05-13T09:46:07Z</time>
      </trkpt>
      <trkpt lat="48.70005" lon="2.01618">
        <ele>77</ele>
        <time>2010-05-13T09:46:08Z</time>
      </trkpt>
      <trkpt lat="48.70006" lon="2.01618">
        <ele>76</ele>
        <time>2010-05-13T09:46:09Z</time>
      </trkpt>
      <trkpt lat="48.70008" lon="2.01617">
        <ele>76</ele>
        <time>2010-05-13T09:46:10Z</time>
      </trkpt>
      <trkpt lat="48.70009" lon="2.01614">
        <ele>76</ele>
        <time>2010-05-13T09:46:12Z</time>
      </trkpt>
      <trkpt lat="48.7001" lon="2.01611">
        <ele>76</ele>
        <time>2010-05-13T09:46:13Z</time>
      </trkpt>
      <trkpt lat="48.7001" lon="2.01609">
        <ele>76</ele>
        <time>2010-05-13T09:46:14Z</time>
      </trkpt>
      <trkpt lat="48.70011" lon="2.01606">
        <ele>76</ele>
        <time>2010-05-13T09:46:15Z</time>
      </trkpt>
      <trkpt lat="48.70014" lon="2.01604">
        <ele>76</ele>
        <time>2010-05-13T09:46:16Z</time>
      </trkpt>
      <trkpt lat="48.70016" lon="2.01602">
        <ele>76</ele>
        <time>2010-05-13T09:46:17Z</time>
      </trkpt>
      <trkpt lat="48.70018" lon="2.01599">
        <ele>76</ele>
        <time>2010-05-13T09:46:19Z</time>
      </trkpt>
      <trkpt lat="48.70019" lon="2.01597">
        <ele>76</ele>
        <time>2010-05-13T09:46:20Z</time>
      </trkpt>
      <trkpt lat="48.70019" lon="2.01595">
        <ele>76</ele>
        <time>2010-05-13T09:46:21Z</time>
      </trkpt>
      <trkpt lat="48.70021" lon="2.01594">
        <ele>76</ele>
        <time>2010-05-13T09:46:22Z</time>
      </trkpt>
      <trkpt lat="48.70022" lon="2.01591">
        <ele>76</ele>
        <time>2010-05-13T09:46:23Z</time>
      </trkpt>
      <trkpt lat="48.70022" lon="2.01587">
        <ele>78</ele>
        <time>2010-05-13T09:46:25Z</time>
      </trkpt>
      <trkpt lat="48.70023" lon="2.01584">
        <ele>79</ele>
        <time>2010-05-13T09:46:26Z</time>
      </trkpt>
      <trkpt lat="48.70024" lon="2.01583">
        <ele>80</ele>
        <time>2010-05-13T09:46:27Z</time>
      </trkpt>
      <trkpt lat="48.70024" lon="2.0158">
        <ele>82</ele>
        <time>2010-05-13T09:46:29Z</time>
      </trkpt>
      <trkpt lat="48.70024" lon="2.01577">
        <ele>83</ele>
        <time>2010-05-13T09:46:32Z</time>
      </trkpt>
      <trkpt lat="48.70026" lon="2.01572">
        <ele>84</ele>
        <time>2010-05-13T09:46:33Z</time>
      </trkpt>
      <trkpt lat="48.70027" lon="2.01568">
        <ele>85</ele>
        <time>2010-05-13T09:46:34Z</time>
      </trkpt>
      <trkpt lat="48.70027" lon="2.01565">
        <ele>86</ele>
        <time>2010-05-13T09:46:35Z</time>
      </trkpt>
      <trkpt lat="48.70027" lon="2.01563">
        <ele>87</ele>
        <time>2010-05-13T09:46:36Z</time>
      </trkpt>
      <trkpt lat="48.70027" lon="2.0156">
        <ele>88</ele>
        <time>2010-05-13T09:46:37Z</time>
      </trkpt>
      <trkpt lat="48.70026" lon="2.01556">
        <ele>89</ele>
        <time>2010-05-13T09:46:38Z</time>
      </trkpt>
      <trkpt lat="48.70027" lon="2.01552">
        <ele>89</ele>
        <time>2010-05-13T09:46:39Z</time>
      </trkpt>
      <trkpt lat="48.70026" lon="2.01549">
        <ele>89</ele>
        <time>2010-05-13T09:46:40Z</time>
      </trkpt>
      <trkpt lat="48.70027" lon="2.01547">
        <ele>89</ele>
        <time>2010-05-13T09:46:41Z</time>
      </trkpt>
      <trkpt lat="48.70026" lon="2.01544">
        <ele>89</ele>
        <time>2010-05-13T09:46:42Z</time>
      </trkpt>
      <trkpt lat="48.70025" lon="2.01541">
        <ele>89</ele>
        <time>2010-05-13T09:46:43Z</time>
      </trkpt>
      <trkpt lat="48.70024" lon="2.01538">
        <ele>90</ele>
        <time>2010-05-13T09:46:44Z</time>
      </trkpt>
      <trkpt lat="48.70023" lon="2.01534">
        <ele>91</ele>
        <time>2010-05-13T09:46:45Z</time>
      </trkpt>
      <trkpt lat="48.70023" lon="2.0153">
        <ele>91</ele>
        <time>2010-05-13T09:46:46Z</time>
      </trkpt>
      <trkpt lat="48.70022" lon="2.01527">
        <ele>91</ele>
        <time>2010-05-13T09:46:47Z</time>
      </trkpt>
      <trkpt lat="48.70022" lon="2.0152">
        <ele>91</ele>
        <time>2010-05-13T09:46:49Z</time>
      </trkpt>
      <trkpt lat="48.70022" lon="2.01518">
        <ele>91</ele>
        <time>2010-05-13T09:46:50Z</time>
      </trkpt>
      <trkpt lat="48.70022" lon="2.01515">
        <ele>91</ele>
        <time>2010-05-13T09:46:51Z</time>
      </trkpt>
      <trkpt lat="48.70023" lon="2.01512">
        <ele>91</ele>
        <time>2010-05-13T09:46:52Z</time>
      </trkpt>
      <trkpt lat="48.70023" lon="2.0151">
        <ele>91</ele>
        <time>2010-05-13T09:46:53Z</time>
      </trkpt>
      <trkpt lat="48.70024" lon="2.01508">
        <ele>91</ele>
        <time>2010-05-13T09:46:54Z</time>
      </trkpt>
      <trkpt lat="48.70025" lon="2.01505">
        <ele>91</ele>
        <time>2010-05-13T09:46:55Z</time>
      </trkpt>
      <trkpt lat="48.70024" lon="2.01502">
        <ele>91</ele>
        <time>2010-05-13T09:46:56Z</time>
      </trkpt>
      <trkpt lat="48.70023" lon="2.01499">
        <ele>91</ele>
        <time>2010-05-13T09:46:57Z</time>
      </trkpt>
      <trkpt lat="48.70024" lon="2.01497">
        <ele>91</ele>
        <time>2010-05-13T09:46:58Z</time>
      </trkpt>
      <trkpt lat="48.70024" lon="2.01495">
        <ele>91</ele>
        <time>2010-05-13T09:46:59Z</time>
      </trkpt>
      <trkpt lat="48.70024" lon="2.01492">
        <ele>91</ele>
        <time>2010-05-13T09:47:00Z</time>
      </trkpt>
      <trkpt lat="48.70024" lon="2.0149">
        <ele>91</ele>
        <time>2010-05-13T09:47:01Z</time>
      </trkpt>
      <trkpt lat="48.70023" lon="2.01488">
        <ele>91</ele>
        <time>2010-05-13T09:47:02Z</time>
      </trkpt>
      <trkpt lat="48.70023" lon="2.01485">
        <ele>91</ele>
        <time>2010-05-13T09:47:03Z</time>
      </trkpt>
      <trkpt lat="48.70025" lon="2.01484">
        <ele>91</ele>
        <time>2010-05-13T09:47:04Z</time>
      </trkpt>
      <trkpt lat="48.70025" lon="2.01482">
        <ele>91</ele>
        <time>2010-05-13T09:47:05Z</time>
      </trkpt>
      <trkpt lat="48.70026" lon="2.01479">
        <ele>90</ele>
        <time>2010-05-13T09:47:06Z</time>
      </trkpt>
      <trkpt lat="48.70026" lon="2.01476">
        <ele>89</ele>
        <time>2010-05-13T09:47:08Z</time>
      </trkpt>
      <trkpt lat="48.70027" lon="2.01473">
        <ele>88</ele>
        <time>2010-05-13T09:47:09Z</time>
      </trkpt>
      <trkpt lat="48.70027" lon="2.0147">
        <ele>87</ele>
        <time>2010-05-13T09:47:10Z</time>
      </trkpt>
      <trkpt lat="48.70027" lon="2.01467">
        <ele>87</ele>
        <time>2010-05-13T09:47:11Z</time>
      </trkpt>
      <trkpt lat="48.70028" lon="2.01466">
        <ele>86</ele>
        <time>2010-05-13T09:47:12Z</time>
      </trkpt>
      <trkpt lat="48.70029" lon="2.0146">
        <ele>86</ele>
        <time>2010-05-13T09:47:15Z</time>
      </trkpt>
      <trkpt lat="48.70032" lon="2.01455">
        <ele>85</ele>
        <time>2010-05-13T09:47:16Z</time>
      </trkpt>
      <trkpt lat="48.70033" lon="2.01451">
        <ele>85</ele>
        <time>2010-05-13T09:47:17Z</time>
      </trkpt>
      <trkpt lat="48.70033" lon="2.01448">
        <ele>85</ele>
        <time>2010-05-13T09:47:18Z</time>
      </trkpt>
      <trkpt lat="48.70034" lon="2.01445">
        <ele>84</ele>
        <time>2010-05-13T09:47:19Z</time>
      </trkpt>
      <trkpt lat="48.70036" lon="2.01443">
        <ele>84</ele>
        <time>2010-05-13T09:47:20Z</time>
      </trkpt>
      <trkpt lat="48.70038" lon="2.01441">
        <ele>82</ele>
        <time>2010-05-13T09:47:22Z</time>
      </trkpt>
      <trkpt lat="48.70039" lon="2.0144">
        <ele>81</ele>
        <time>2010-05-13T09:47:23Z</time>
      </trkpt>
      <trkpt lat="48.7004" lon="2.01438">
        <ele>80</ele>
        <time>2010-05-13T09:47:24Z</time>
      </trkpt>
      <trkpt lat="48.70042" lon="2.01436">
        <ele>79</ele>
        <time>2010-05-13T09:47:25Z</time>
      </trkpt>
      <trkpt lat="48.70044" lon="2.01433">
        <ele>78</ele>
        <time>2010-05-13T09:47:27Z</time>
      </trkpt>
      <trkpt lat="48.70044" lon="2.01431">
        <ele>78</ele>
        <time>2010-05-13T09:47:28Z</time>
      </trkpt>
      <trkpt lat="48.70045" lon="2.01429">
        <ele>77</ele>
        <time>2010-05-13T09:47:29Z</time>
      </trkpt>
      <trkpt lat="48.70047" lon="2.01427">
        <ele>76</ele>
        <time>2010-05-13T09:47:30Z</time>
      </trkpt>
      <trkpt lat="48.70049" lon="2.01423">
        <ele>76</ele>
        <time>2010-05-13T09:47:32Z</time>
      </trkpt>
      <trkpt lat="48.7005" lon="2.01421">
        <ele>76</ele>
        <time>2010-05-13T09:47:33Z</time>
      </trkpt>
      <trkpt lat="48.70051" lon="2.01419">
        <ele>76</ele>
        <time>2010-05-13T09:47:34Z</time>
      </trkpt>
      <trkpt lat="48.70052" lon="2.01418">
        <ele>76</ele>
        <time>2010-05-13T09:47:35Z</time>
      </trkpt>
      <trkpt lat="48.70054" lon="2.01416">
        <ele>76</ele>
        <time>2010-05-13T09:47:36Z</time>
      </trkpt>
      <trkpt lat="48.70056" lon="2.01414">
        <ele>76</ele>
        <time>2010-05-13T09:47:37Z</time>
      </trkpt>
      <trkpt lat="48.70057" lon="2.01412">
        <ele>76</ele>
        <time>2010-05-13T09:47:38Z</time>
      </trkpt>
      <trkpt lat="48.70059" lon="2.0141">
        <ele>75</ele>
        <time>2010-05-13T09:47:40Z</time>
      </trkpt>
      <trkpt lat="48.70059" lon="2.01408">
        <ele>75</ele>
        <time>2010-05-13T09:47:41Z</time>
      </trkpt>
      <trkpt lat="48.7006" lon="2.01406">
        <ele>74</ele>
        <time>2010-05-13T09:47:42Z</time>
      </trkpt>
      <trkpt lat="48.70061" lon="2.01404">
        <ele>74</ele>
        <time>2010-05-13T09:47:43Z</time>
      </trkpt>
      <trkpt lat="48.70063" lon="2.01402">
        <ele>73</ele>
        <time>2010-05-13T09:47:45Z</time>
      </trkpt>
      <trkpt lat="48.70065" lon="2.014">
        <ele>72</ele>
        <time>2010-05-13T09:47:46Z</time>
      </trkpt>
      <trkpt lat="48.70066" lon="2.01398">
        <ele>72</ele>
        <time>2010-05-13T09:47:47Z</time>
      </trkpt>
      <trkpt lat="48.70067" lon="2.01396">
        <ele>71</ele>
        <time>2010-05-13T09:47:48Z</time>
      </trkpt>
      <trkpt lat="48.70068" lon="2.01394">
        <ele>70</ele>
        <time>2010-05-13T09:47:49Z</time>
      </trkpt>
      <trkpt lat="48.70069" lon="2.01393">
        <ele>69</ele>
        <time>2010-05-13T09:47:50Z</time>
      </trkpt>
      <trkpt lat="48.70071" lon="2.01391">
        <ele>68</ele>
        <time>2010-05-13T09:47:51Z</time>
      </trkpt>
      <trkpt lat="48.70073" lon="2.01389">
        <ele>67</ele>
        <time>2010-05-13T09:47:52Z</time>
      </trkpt>
      <trkpt lat="48.70074" lon="2.01387">
        <ele>66</ele>
        <time>2010-05-13T09:47:53Z</time>
      </trkpt>
      <trkpt lat="48.70075" lon="2.01386">
        <ele>65</ele>
        <time>2010-05-13T09:47:54Z</time>
      </trkpt>
      <trkpt lat="48.70077" lon="2.01384">
        <ele>65</ele>
        <time>2010-05-13T09:47:55Z</time>
      </trkpt>
      <trkpt lat="48.70078" lon="2.01383">
        <ele>65</ele>
        <time>2010-05-13T09:47:56Z</time>
      </trkpt>
      <trkpt lat="48.70079" lon="2.01382">
        <ele>65</ele>
        <time>2010-05-13T09:47:57Z</time>
      </trkpt>
      <trkpt lat="48.70082" lon="2.01379">
        <ele>65</ele>
        <time>2010-05-13T09:47:59Z</time>
      </trkpt>
      <trkpt lat="48.70082" lon="2.01377">
        <ele>65</ele>
        <time>2010-05-13T09:48:00Z</time>
      </trkpt>
      <trkpt lat="48.70082" lon="2.01374">
        <ele>65</ele>
        <time>2010-05-13T09:48:01Z</time>
      </trkpt>
      <trkpt lat="48.70083" lon="2.01372">
        <ele>65</ele>
        <time>2010-05-13T09:48:02Z</time>
      </trkpt>
      <trkpt lat="48.70083" lon="2.0137">
        <ele>65</ele>
        <time>2010-05-13T09:48:03Z</time>
      </trkpt>
      <trkpt lat="48.70085" lon="2.01368">
        <ele>65</ele>
        <time>2010-05-13T09:48:04Z</time>
      </trkpt>
      <trkpt lat="48.70087" lon="2.01367">
        <ele>65</ele>
        <time>2010-05-13T09:48:05Z</time>
      </trkpt>
      <trkpt lat="48.70088" lon="2.01366">
        <ele>66</ele>
        <time>2010-05-13T09:48:06Z</time>
      </trkpt>
      <trkpt lat="48.70091" lon="2.01363">
        <ele>67</ele>
        <time>2010-05-13T09:48:07Z</time>
      </trkpt>
      <trkpt lat="48.70093" lon="2.01361">
        <ele>68</ele>
        <time>2010-05-13T09:48:08Z</time>
      </trkpt>
      <trkpt lat="48.70094" lon="2.01359">
        <ele>69</ele>
        <time>2010-05-13T09:48:09Z</time>
      </trkpt>
      <trkpt lat="48.70097" lon="2.01356">
        <ele>70</ele>
        <time>2010-05-13T09:48:10Z</time>
      </trkpt>
      <trkpt lat="48.70098" lon="2.01354">
        <ele>70</ele>
        <time>2010-05-13T09:48:11Z</time>
      </trkpt>
      <trkpt lat="48.70098" lon="2.01352">
        <ele>71</ele>
        <time>2010-05-13T09:48:12Z</time>
      </trkpt>
      <trkpt lat="48.701" lon="2.01349">
        <ele>71</ele>
        <time>2010-05-13T09:48:14Z</time>
      </trkpt>
      <trkpt lat="48.701" lon="2.01348">
        <ele>71</ele>
        <time>2010-05-13T09:48:15Z</time>
      </trkpt>
      <trkpt lat="48.70102" lon="2.01346">
        <ele>71</ele>
        <time>2010-05-13T09:48:16Z</time>
      </trkpt>
      <trkpt lat="48.70103" lon="2.01344">
        <ele>71</ele>
        <time>2010-05-13T09:48:17Z</time>
      </trkpt>
      <trkpt lat="48.70104" lon="2.01342">
        <ele>71</ele>
        <time>2010-05-13T09:48:18Z</time>
      </trkpt>
      <trkpt lat="48.70105" lon="2.0134">
        <ele>71</ele>
        <time>2010-05-13T09:48:19Z</time>
      </trkpt>
      <trkpt lat="48.70106" lon="2.01339">
        <ele>71</ele>
        <time>2010-05-13T09:48:20Z</time>
      </trkpt>
      <trkpt lat="48.70107" lon="2.01337">
        <ele>71</ele>
        <time>2010-05-13T09:48:21Z</time>
      </trkpt>
      <trkpt lat="48.70108" lon="2.01336">
        <ele>71</ele>
        <time>2010-05-13T09:48:22Z</time>
      </trkpt>
      <trkpt lat="48.70111" lon="2.01334">
        <ele>71</ele>
        <time>2010-05-13T09:48:23Z</time>
      </trkpt>
      <trkpt lat="48.70113" lon="2.01331">
        <ele>72</ele>
        <time>2010-05-13T09:48:24Z</time>
      </trkpt>
      <trkpt lat="48.70114" lon="2.01329">
        <ele>73</ele>
        <time>2010-05-13T09:48:25Z</time>
      </trkpt>
      <trkpt lat="48.70115" lon="2.01327">
        <ele>74</ele>
        <time>2010-05-13T09:48:26Z</time>
      </trkpt>
      <trkpt lat="48.70116" lon="2.01326">
        <ele>75</ele>
        <time>2010-05-13T09:48:27Z</time>
      </trkpt>
      <trkpt lat="48.70118" lon="2.01325">
        <ele>76</ele>
        <time>2010-05-13T09:48:28Z</time>
      </trkpt>
      <trkpt lat="48.7012" lon="2.01322">
        <ele>77</ele>
        <time>2010-05-13T09:48:30Z</time>
      </trkpt>
      <trkpt lat="48.70122" lon="2.0132">
        <ele>77</ele>
        <time>2010-05-13T09:48:31Z</time>
      </trkpt>
      <trkpt lat="48.70124" lon="2.01318">
        <ele>77</ele>
        <time>2010-05-13T09:48:32Z</time>
      </trkpt>
      <trkpt lat="48.70125" lon="2.01317">
        <ele>77</ele>
        <time>2010-05-13T09:48:33Z</time>
      </trkpt>
      <trkpt lat="48.70126" lon="2.01314">
        <ele>77</ele>
        <time>2010-05-13T09:48:34Z</time>
      </trkpt>
      <trkpt lat="48.70127" lon="2.01312">
        <ele>77</ele>
        <time>2010-05-13T09:48:35Z</time>
      </trkpt>
      <trkpt lat="48.70128" lon="2.01309">
        <ele>77</ele>
        <time>2010-05-13T09:48:36Z</time>
      </trkpt>
      <trkpt lat="48.70129" lon="2.01307">
        <ele>77</ele>
        <time>2010-05-13T09:48:37Z</time>
      </trkpt>
      <trkpt lat="48.7013" lon="2.01305">
        <ele>77</ele>
        <time>2010-05-13T09:48:38Z</time>
      </trkpt>
      <trkpt lat="48.7013" lon="2.01303">
        <ele>77</ele>
        <time>2010-05-13T09:48:39Z</time>
      </trkpt>
      <trkpt lat="48.70132" lon="2.01301">
        <ele>77</ele>
        <time>2010-05-13T09:48:40Z</time>
      </trkpt>
      <trkpt lat="48.70133" lon="2.01299">
        <ele>77</ele>
        <time>2010-05-13T09:48:41Z</time>
      </trkpt>
      <trkpt lat="48.70137" lon="2.01297">
        <ele>77</ele>
        <time>2010-05-13T09:48:43Z</time>
      </trkpt>
      <trkpt lat="48.70138" lon="2.01295">
        <ele>77</ele>
        <time>2010-05-13T09:48:44Z</time>
      </trkpt>
      <trkpt lat="48.7014" lon="2.01294">
        <ele>77</ele>
        <time>2010-05-13T09:48:46Z</time>
      </trkpt>
      <trkpt lat="48.70142" lon="2.01293">
        <ele>77</ele>
        <time>2010-05-13T09:48:47Z</time>
      </trkpt>
      <trkpt lat="48.70145" lon="2.01292">
        <ele>76</ele>
        <time>2010-05-13T09:48:48Z</time>
      </trkpt>
      <trkpt lat="48.70148" lon="2.01292">
        <ele>76</ele>
        <time>2010-05-13T09:48:49Z</time>
      </trkpt>
      <trkpt lat="48.70151" lon="2.01292">
        <ele>75</ele>
        <time>2010-05-13T09:48:50Z</time>
      </trkpt>
      <trkpt lat="48.70152" lon="2.01294">
        <ele>75</ele>
        <time>2010-05-13T09:48:51Z</time>
      </trkpt>
      <trkpt lat="48.70154" lon="2.01295">
        <ele>75</ele>
        <time>2010-05-13T09:48:52Z</time>
      </trkpt>
      <trkpt lat="48.70156" lon="2.01296">
        <ele>75</ele>
        <time>2010-05-13T09:48:53Z</time>
      </trkpt>
      <trkpt lat="48.70157" lon="2.01297">
        <ele>75</ele>
        <time>2010-05-13T09:48:54Z</time>
      </trkpt>
      <trkpt lat="48.70159" lon="2.01298">
        <ele>75</ele>
        <time>2010-05-13T09:48:56Z</time>
      </trkpt>
      <trkpt lat="48.70161" lon="2.01299">
        <ele>75</ele>
        <time>2010-05-13T09:48:58Z</time>
      </trkpt>
      <trkpt lat="48.70165" lon="2.01301">
        <ele>75</ele>
        <time>2010-05-13T09:49:01Z</time>
      </trkpt>
      <trkpt lat="48.70167" lon="2.01303">
        <ele>76</ele>
        <time>2010-05-13T09:49:02Z</time>
      </trkpt>
      <trkpt lat="48.70168" lon="2.01304">
        <ele>77</ele>
        <time>2010-05-13T09:49:03Z</time>
      </trkpt>
      <trkpt lat="48.7017" lon="2.01306">
        <ele>78</ele>
        <time>2010-05-13T09:49:04Z</time>
      </trkpt>
      <trkpt lat="48.70172" lon="2.01306">
        <ele>78</ele>
        <time>2010-05-13T09:49:05Z</time>
      </trkpt>
      <trkpt lat="48.70174" lon="2.01309">
        <ele>79</ele>
        <time>2010-05-13T09:49:07Z</time>
      </trkpt>
      <trkpt lat="48.70175" lon="2.01309">
        <ele>79</ele>
        <time>2010-05-13T09:49:08Z</time>
      </trkpt>
      <trkpt lat="48.70177" lon="2.01309">
        <ele>79</ele>
        <time>2010-05-13T09:49:09Z</time>
      </trkpt>
      <trkpt lat="48.70178" lon="2.0131">
        <ele>79</ele>
        <time>2010-05-13T09:49:10Z</time>
      </trkpt>
      <trkpt lat="48.7018" lon="2.01311">
        <ele>79</ele>
        <time>2010-05-13T09:49:12Z</time>
      </trkpt>
      <trkpt lat="48.70182" lon="2.01311">
        <ele>79</ele>
        <time>2010-05-13T09:49:13Z</time>
      </trkpt>
      <trkpt lat="48.70184" lon="2.01312">
        <ele>79</ele>
        <time>2010-05-13T09:49:14Z</time>
      </trkpt>
      <trkpt lat="48.70186" lon="2.01311">
        <ele>79</ele>
        <time>2010-05-13T09:49:15Z</time>
      </trkpt>
      <trkpt lat="48.70189" lon="2.01311">
        <ele>80</ele>
        <time>2010-05-13T09:49:17Z</time>
      </trkpt>
      <trkpt lat="48.70192" lon="2.01312">
        <ele>80</ele>
        <time>2010-05-13T09:49:18Z</time>
      </trkpt>
      <trkpt lat="48.70194" lon="2.01314">
        <ele>80</ele>
        <time>2010-05-13T09:49:19Z</time>
      </trkpt>
      <trkpt lat="48.70198" lon="2.01317">
        <ele>80</ele>
        <time>2010-05-13T09:49:22Z</time>
      </trkpt>
      <trkpt lat="48.70202" lon="2.01319">
        <ele>81</ele>
        <time>2010-05-13T09:49:23Z</time>
      </trkpt>
      <trkpt lat="48.70204" lon="2.01319">
        <ele>82</ele>
        <time>2010-05-13T09:49:27Z</time>
      </trkpt>
      <trkpt lat="48.70206" lon="2.01319">
        <ele>82</ele>
        <time>2010-05-13T09:49:28Z</time>
      </trkpt>
      <trkpt lat="48.70209" lon="2.01321">
        <ele>82</ele>
        <time>2010-05-13T09:49:30Z</time>
      </trkpt>
      <trkpt lat="48.7021" lon="2.01321">
        <ele>82</ele>
        <time>2010-05-13T09:49:31Z</time>
      </trkpt>
      <trkpt lat="48.70212" lon="2.01322">
        <ele>82</ele>
        <time>2010-05-13T09:49:32Z</time>
      </trkpt>
      <trkpt lat="48.70214" lon="2.01324">
        <ele>82</ele>
        <time>2010-05-13T09:49:34Z</time>
      </trkpt>
      <trkpt lat="48.70217" lon="2.01324">
        <ele>82</ele>
        <time>2010-05-13T09:49:35Z</time>
      </trkpt>
      <trkpt lat="48.70218" lon="2.01324">
        <ele>82</ele>
        <time>2010-05-13T09:49:36Z</time>
      </trkpt>
      <trkpt lat="48.7022" lon="2.01325">
        <ele>82</ele>
        <time>2010-05-13T09:49:37Z</time>
      </trkpt>
      <trkpt lat="48.70223" lon="2.01326">
        <ele>82</ele>
        <time>2010-05-13T09:49:38Z</time>
      </trkpt>
      <trkpt lat="48.70224" lon="2.01327">
        <ele>82</ele>
        <time>2010-05-13T09:49:39Z</time>
      </trkpt>
      <trkpt lat="48.70226" lon="2.01328">
        <ele>82</ele>
        <time>2010-05-13T09:49:40Z</time>
      </trkpt>
      <trkpt lat="48.70228" lon="2.01328">
        <ele>83</ele>
        <time>2010-05-13T09:49:42Z</time>
      </trkpt>
      <trkpt lat="48.7023" lon="2.01328">
        <ele>83</ele>
        <time>2010-05-13T09:49:43Z</time>
      </trkpt>
      <trkpt lat="48.70231" lon="2.01329">
        <ele>84</ele>
        <time>2010-05-13T09:49:44Z</time>
      </trkpt>
      <trkpt lat="48.70233" lon="2.0133">
        <ele>84</ele>
        <time>2010-05-13T09:49:45Z</time>
      </trkpt>
      <trkpt lat="48.70234" lon="2.01331">
        <ele>84</ele>
        <time>2010-05-13T09:49:46Z</time>
      </trkpt>
      <trkpt lat="48.70236" lon="2.01333">
        <ele>85</ele>
        <time>2010-05-13T09:49:47Z</time>
      </trkpt>
      <trkpt lat="48.70238" lon="2.01334">
        <ele>85</ele>
        <time>2010-05-13T09:49:48Z</time>
      </trkpt>
      <trkpt lat="48.70241" lon="2.01335">
        <ele>85</ele>
        <time>2010-05-13T09:49:49Z</time>
      </trkpt>
      <trkpt lat="48.70243" lon="2.01337">
        <ele>85</ele>
        <time>2010-05-13T09:49:50Z</time>
      </trkpt>
      <trkpt lat="48.70245" lon="2.01339">
        <ele>85</ele>
        <time>2010-05-13T09:49:51Z</time>
      </trkpt>
      <trkpt lat="48.70247" lon="2.01341">
        <ele>86</ele>
        <time>2010-05-13T09:49:53Z</time>
      </trkpt>
      <trkpt lat="48.70248" lon="2.01343">
        <ele>87</ele>
        <time>2010-05-13T09:49:54Z</time>
      </trkpt>
      <trkpt lat="48.7025" lon="2.01345">
        <ele>89</ele>
        <time>2010-05-13T09:49:56Z</time>
      </trkpt>
      <trkpt lat="48.70252" lon="2.01345">
        <ele>90</ele>
        <time>2010-05-13T09:49:57Z</time>
      </trkpt>
      <trkpt lat="48.70255" lon="2.01345">
        <ele>91</ele>
        <time>2010-05-13T09:49:58Z</time>
      </trkpt>
      <trkpt lat="48.70257" lon="2.01346">
        <ele>92</ele>
        <time>2010-05-13T09:49:59Z</time>
      </trkpt>
      <trkpt lat="48.70259" lon="2.01347">
        <ele>92</ele>
        <time>2010-05-13T09:50:00Z</time>
      </trkpt>
      <trkpt lat="48.70261" lon="2.01348">
        <ele>92</ele>
        <time>2010-05-13T09:50:01Z</time>
      </trkpt>
      <trkpt lat="48.70263" lon="2.01349">
        <ele>92</ele>
        <time>2010-05-13T09:50:02Z</time>
      </trkpt>
      <trkpt lat="48.70265" lon="2.0135">
        <ele>92</ele>
        <time>2010-05-13T09:50:03Z</time>
      </trkpt>
      <trkpt lat="48.70266" lon="2.0135">
        <ele>92</ele>
        <time>2010-05-13T09:50:04Z</time>
      </trkpt>
      <trkpt lat="48.70268" lon="2.0135">
        <ele>92</ele>
        <time>2010-05-13T09:50:05Z</time>
      </trkpt>
      <trkpt lat="48.7027" lon="2.0135">
        <ele>90</ele>
        <time>2010-05-13T09:50:07Z</time>
      </trkpt>
      <trkpt lat="48.70272" lon="2.01351">
        <ele>89</ele>
        <time>2010-05-13T09:50:08Z</time>
      </trkpt>
      <trkpt lat="48.70274" lon="2.01351">
        <ele>88</ele>
        <time>2010-05-13T09:50:09Z</time>
      </trkpt>
      <trkpt lat="48.70277" lon="2.01352">
        <ele>87</ele>
        <time>2010-05-13T09:50:10Z</time>
      </trkpt>
      <trkpt lat="48.70279" lon="2.01352">
        <ele>86</ele>
        <time>2010-05-13T09:50:11Z</time>
      </trkpt>
      <trkpt lat="48.7028" lon="2.01352">
        <ele>85</ele>
        <time>2010-05-13T09:50:12Z</time>
      </trkpt>
      <trkpt lat="48.70283" lon="2.01352">
        <ele>84</ele>
        <time>2010-05-13T09:50:13Z</time>
      </trkpt>
      <trkpt lat="48.70286" lon="2.01353">
        <ele>83</ele>
        <time>2010-05-13T09:50:14Z</time>
      </trkpt>
      <trkpt lat="48.70288" lon="2.01353">
        <ele>82</ele>
        <time>2010-05-13T09:50:15Z</time>
      </trkpt>
      <trkpt lat="48.70289" lon="2.01354">
        <ele>81</ele>
        <time>2010-05-13T09:50:16Z</time>
      </trkpt>
      <trkpt lat="48.70291" lon="2.01355">
        <ele>80</ele>
        <time>2010-05-13T09:50:17Z</time>
      </trkpt>
      <trkpt lat="48.70294" lon="2.01357">
        <ele>80</ele>
        <time>2010-05-13T09:50:18Z</time>
      </trkpt>
      <trkpt lat="48.70295" lon="2.0136">
        <ele>80</ele>
        <time>2010-05-13T09:50:19Z</time>
      </trkpt>
      <trkpt lat="48.70297" lon="2.01362">
        <ele>80</ele>
        <time>2010-05-13T09:50:20Z</time>
      </trkpt>
      <trkpt lat="48.70299" lon="2.01364">
        <ele>80</ele>
        <time>2010-05-13T09:50:21Z</time>
      </trkpt>
      <trkpt lat="48.703" lon="2.01366">
        <ele>81</ele>
        <time>2010-05-13T09:50:23Z</time>
      </trkpt>
      <trkpt lat="48.70301" lon="2.01367">
        <ele>82</ele>
        <time>2010-05-13T09:50:24Z</time>
      </trkpt>
      <trkpt lat="48.70303" lon="2.01368">
        <ele>84</ele>
        <time>2010-05-13T09:50:26Z</time>
      </trkpt>
      <trkpt lat="48.70304" lon="2.01369">
        <ele>85</ele>
        <time>2010-05-13T09:50:27Z</time>
      </trkpt>
      <trkpt lat="48.70307" lon="2.0137">
        <ele>87</ele>
        <time>2010-05-13T09:50:29Z</time>
      </trkpt>
      <trkpt lat="48.70308" lon="2.01371">
        <ele>88</ele>
        <time>2010-05-13T09:50:30Z</time>
      </trkpt>
      <trkpt lat="48.70309" lon="2.01372">
        <ele>89</ele>
        <time>2010-05-13T09:50:31Z</time>
      </trkpt>
      <trkpt lat="48.70312" lon="2.01374">
        <ele>90</ele>
        <time>2010-05-13T09:50:33Z</time>
      </trkpt>
      <trkpt lat="48.70313" lon="2.01375">
        <ele>90</ele>
        <time>2010-05-13T09:50:34Z</time>
      </trkpt>
      <trkpt lat="48.70315" lon="2.01376">
        <ele>90</ele>
        <time>2010-05-13T09:50:36Z</time>
      </trkpt>
      <trkpt lat="48.70317" lon="2.01378">
        <ele>90</ele>
        <time>2010-05-13T09:50:38Z</time>
      </trkpt>
      <trkpt lat="48.70319" lon="2.01381">
        <ele>90</ele>
        <time>2010-05-13T09:50:40Z</time>
      </trkpt>
      <trkpt lat="48.7032" lon="2.01383">
        <ele>90</ele>
        <time>2010-05-13T09:50:41Z</time>
      </trkpt>
      <trkpt lat="48.70322" lon="2.01385">
        <ele>90</ele>
        <time>2010-05-13T09:50:42Z</time>
      </trkpt>
      <trkpt lat="48.70324" lon="2.01388">
        <ele>90</ele>
        <time>2010-05-13T09:50:43Z</time>
      </trkpt>
      <trkpt lat="48.70325" lon="2.0139">
        <ele>90</ele>
        <time>2010-05-13T09:50:44Z</time>
      </trkpt>
      <trkpt lat="48.70328" lon="2.01392">
        <ele>90</ele>
        <time>2010-05-13T09:50:45Z</time>
      </trkpt>
      <trkpt lat="48.7033" lon="2.01395">
        <ele>90</ele>
        <time>2010-05-13T09:50:46Z</time>
      </trkpt>
      <trkpt lat="48.70333" lon="2.01399">
        <ele>90</ele>
        <time>2010-05-13T09:50:48Z</time>
      </trkpt>
      <trkpt lat="48.70336" lon="2.01405">
        <ele>90</ele>
        <time>2010-05-13T09:50:51Z</time>
      </trkpt>
      <trkpt lat="48.70337" lon="2.01409">
        <ele>90</ele>
        <time>2010-05-13T09:50:52Z</time>
      </trkpt>
      <trkpt lat="48.70338" lon="2.01411">
        <ele>90</ele>
        <time>2010-05-13T09:50:53Z</time>
      </trkpt>
      <trkpt lat="48.7034" lon="2.01413">
        <ele>90</ele>
        <time>2010-05-13T09:50:54Z</time>
      </trkpt>
      <trkpt lat="48.7034" lon="2.01416">
        <ele>90</ele>
        <time>2010-05-13T09:50:55Z</time>
      </trkpt>
      <trkpt lat="48.70339" lon="2.01418">
        <ele>91</ele>
        <time>2010-05-13T09:50:57Z</time>
      </trkpt>
      <trkpt lat="48.7034" lon="2.01419">
        <ele>93</ele>
        <time>2010-05-13T09:50:59Z</time>
      </trkpt>
      <trkpt lat="48.70342" lon="2.01419">
        <ele>95</ele>
        <time>2010-05-13T09:51:01Z</time>
      </trkpt>
      <trkpt lat="48.70342" lon="2.01421">
        <ele>96</ele>
        <time>2010-05-13T09:51:02Z</time>
      </trkpt>
      <trkpt lat="48.70344" lon="2.01422">
        <ele>96</ele>
        <time>2010-05-13T09:51:03Z</time>
      </trkpt>
      <trkpt lat="48.70346" lon="2.01423">
        <ele>96</ele>
        <time>2010-05-13T09:51:04Z</time>
      </trkpt>
      <trkpt lat="48.70348" lon="2.01422">
        <ele>96</ele>
        <time>2010-05-13T09:51:05Z</time>
      </trkpt>
      <trkpt lat="48.70351" lon="2.0142">
        <ele>96</ele>
        <time>2010-05-13T09:51:06Z</time>
      </trkpt>
      <trkpt lat="48.70351" lon="2.01418">
        <ele>96</ele>
        <time>2010-05-13T09:51:07Z</time>
      </trkpt>
      <trkpt lat="48.70352" lon="2.01416">
        <ele>96</ele>
        <time>2010-05-13T09:51:08Z</time>
      </trkpt>
      <trkpt lat="48.70353" lon="2.01414">
        <ele>96</ele>
        <time>2010-05-13T09:51:09Z</time>
      </trkpt>
      <trkpt lat="48.70354" lon="2.01412">
        <ele>96</ele>
        <time>2010-05-13T09:51:10Z</time>
      </trkpt>
      <trkpt lat="48.70355" lon="2.0141">
        <ele>96</ele>
        <time>2010-05-13T09:51:11Z</time>
      </trkpt>
      <trkpt lat="48.70355" lon="2.01408">
        <ele>96</ele>
        <time>2010-05-13T09:51:13Z</time>
      </trkpt>
      <trkpt lat="48.70355" lon="2.01405">
        <ele>96</ele>
        <time>2010-05-13T09:51:15Z</time>
      </trkpt>
      <trkpt lat="48.70356" lon="2.01398">
        <ele>96</ele>
        <time>2010-05-13T09:51:19Z</time>
      </trkpt>
      <trkpt lat="48.70359" lon="2.01396">
        <ele>96</ele>
        <time>2010-05-13T09:51:20Z</time>
      </trkpt>
      <trkpt lat="48.70361" lon="2.01393">
        <ele>96</ele>
        <time>2010-05-13T09:51:21Z</time>
      </trkpt>
      <trkpt lat="48.70363" lon="2.01392">
        <ele>96</ele>
        <time>2010-05-13T09:51:22Z</time>
      </trkpt>
      <trkpt lat="48.70364" lon="2.01389">
        <ele>96</ele>
        <time>2010-05-13T09:51:23Z</time>
      </trkpt>
      <trkpt lat="48.70363" lon="2.01387">
        <ele>96</ele>
        <time>2010-05-13T09:51:24Z</time>
      </trkpt>
      <trkpt lat="48.70363" lon="2.01385">
        <ele>97</ele>
        <time>2010-05-13T09:51:25Z</time>
      </trkpt>
      <trkpt lat="48.70363" lon="2.01382">
        <ele>98</ele>
        <time>2010-05-13T09:51:27Z</time>
      </trkpt>
      <trkpt lat="48.70364" lon="2.0138">
        <ele>98</ele>
        <time>2010-05-13T09:51:28Z</time>
      </trkpt>
      <trkpt lat="48.70364" lon="2.01378">
        <ele>98</ele>
        <time>2010-05-13T09:51:29Z</time>
      </trkpt>
      <trkpt lat="48.70364" lon="2.01376">
        <ele>98</ele>
        <time>2010-05-13T09:51:30Z</time>
      </trkpt>
      <trkpt lat="48.70366" lon="2.01373">
        <ele>98</ele>
        <time>2010-05-13T09:51:31Z</time>
      </trkpt>
      <trkpt lat="48.70367" lon="2.01371">
        <ele>98</ele>
        <time>2010-05-13T09:51:32Z</time>
      </trkpt>
      <trkpt lat="48.70369" lon="2.01369">
        <ele>98</ele>
        <time>2010-05-13T09:51:33Z</time>
      </trkpt>
      <trkpt lat="48.70369" lon="2.01366">
        <ele>98</ele>
        <time>2010-05-13T09:51:34Z</time>
      </trkpt>
      <trkpt lat="48.70371" lon="2.01364">
        <ele>98</ele>
        <time>2010-05-13T09:51:36Z</time>
      </trkpt>
      <trkpt lat="48.70372" lon="2.01362">
        <ele>98</ele>
        <time>2010-05-13T09:51:37Z</time>
      </trkpt>
      <trkpt lat="48.70373" lon="2.0136">
        <ele>98</ele>
        <time>2010-05-13T09:51:38Z</time>
      </trkpt>
      <trkpt lat="48.70374" lon="2.01358">
        <ele>98</ele>
        <time>2010-05-13T09:51:39Z</time>
      </trkpt>
      <trkpt lat="48.70375" lon="2.01356">
        <ele>98</ele>
        <time>2010-05-13T09:51:40Z</time>
      </trkpt>
      <trkpt lat="48.70376" lon="2.01355">
        <ele>98</ele>
        <time>2010-05-13T09:51:41Z</time>
      </trkpt>
      <trkpt lat="48.70377" lon="2.01353">
        <ele>98</ele>
        <time>2010-05-13T09:51:42Z</time>
      </trkpt>
      <trkpt lat="48.70377" lon="2.01351">
        <ele>98</ele>
        <time>2010-05-13T09:51:43Z</time>
      </trkpt>
      <trkpt lat="48.70379" lon="2.01343">
        <ele>98</ele>
        <time>2010-05-13T09:51:47Z</time>
      </trkpt>
      <trkpt lat="48.70382" lon="2.01338">
        <ele>98</ele>
        <time>2010-05-13T09:51:48Z</time>
      </trkpt>
      <trkpt lat="48.70383" lon="2.01334">
        <ele>98</ele>
        <time>2010-05-13T09:51:49Z</time>
      </trkpt>
      <trkpt lat="48.70384" lon="2.01331">
        <ele>98</ele>
        <time>2010-05-13T09:51:50Z</time>
      </trkpt>
      <trkpt lat="48.70384" lon="2.0133">
        <ele>98</ele>
        <time>2010-05-13T09:51:51Z</time>
      </trkpt>
      <trkpt lat="48.70385" lon="2.01328">
        <ele>98</ele>
        <time>2010-05-13T09:51:52Z</time>
      </trkpt>
      <trkpt lat="48.70385" lon="2.01326">
        <ele>98</ele>
        <time>2010-05-13T09:51:53Z</time>
      </trkpt>
      <trkpt lat="48.70388" lon="2.01325">
        <ele>98</ele>
        <time>2010-05-13T09:51:54Z</time>
      </trkpt>
      <trkpt lat="48.70388" lon="2.01323">
        <ele>98</ele>
        <time>2010-05-13T09:51:55Z</time>
      </trkpt>
      <trkpt lat="48.70389" lon="2.0132">
        <ele>98</ele>
        <time>2010-05-13T09:51:56Z</time>
      </trkpt>
      <trkpt lat="48.70391" lon="2.01319">
        <ele>98</ele>
        <time>2010-05-13T09:51:57Z</time>
      </trkpt>
      <trkpt lat="48.70392" lon="2.01316">
        <ele>98</ele>
        <time>2010-05-13T09:51:59Z</time>
      </trkpt>
      <trkpt lat="48.70392" lon="2.01314">
        <ele>98</ele>
        <time>2010-05-13T09:52:00Z</time>
      </trkpt>
      <trkpt lat="48.70393" lon="2.01309">
        <ele>98</ele>
        <time>2010-05-13T09:52:04Z</time>
      </trkpt>
      <trkpt lat="48.70391" lon="2.01304">
        <ele>98</ele>
        <time>2010-05-13T09:52:05Z</time>
      </trkpt>
      <trkpt lat="48.70393" lon="2.01304">
        <ele>98</ele>
        <time>2010-05-13T09:52:06Z</time>
      </trkpt>
      <trkpt lat="48.70395" lon="2.01301">
        <ele>98</ele>
        <time>2010-05-13T09:52:07Z</time>
      </trkpt>
      <trkpt lat="48.70396" lon="2.013">
        <ele>98</ele>
        <time>2010-05-13T09:52:08Z</time>
      </trkpt>
      <trkpt lat="48.70397" lon="2.01298">
        <ele>98</ele>
        <time>2010-05-13T09:52:09Z</time>
      </trkpt>
      <trkpt lat="48.70397" lon="2.01295">
        <ele>98</ele>
        <time>2010-05-13T09:52:11Z</time>
      </trkpt>
      <trkpt lat="48.70397" lon="2.01293">
        <ele>98</ele>
        <time>2010-05-13T09:52:12Z</time>
      </trkpt>
      <trkpt lat="48.70397" lon="2.01289">
        <ele>98</ele>
        <time>2010-05-13T09:52:13Z</time>
      </trkpt>
      <trkpt lat="48.70397" lon="2.01287">
        <ele>98</ele>
        <time>2010-05-13T09:52:14Z</time>
      </trkpt>
      <trkpt lat="48.70396" lon="2.01283">
        <ele>98</ele>
        <time>2010-05-13T09:52:15Z</time>
      </trkpt>
      <trkpt lat="48.70396" lon="2.0128">
        <ele>98</ele>
        <time>2010-05-13T09:52:16Z</time>
      </trkpt>
      <trkpt lat="48.70396" lon="2.01278">
        <ele>98</ele>
        <time>2010-05-13T09:52:17Z</time>
      </trkpt>
      <trkpt lat="48.70395" lon="2.01274">
        <ele>98</ele>
        <time>2010-05-13T09:52:18Z</time>
      </trkpt>
      <trkpt lat="48.70397" lon="2.01271">
        <ele>98</ele>
        <time>2010-05-13T09:52:19Z</time>
      </trkpt>
      <trkpt lat="48.70398" lon="2.01268">
        <ele>98</ele>
        <time>2010-05-13T09:52:20Z</time>
      </trkpt>
      <trkpt lat="48.70399" lon="2.01266">
        <ele>97</ele>
        <time>2010-05-13T09:52:21Z</time>
      </trkpt>
      <trkpt lat="48.70399" lon="2.01263">
        <ele>96</ele>
        <time>2010-05-13T09:52:23Z</time>
      </trkpt>
      <trkpt lat="48.70401" lon="2.01264">
        <ele>96</ele>
        <time>2010-05-13T09:52:26Z</time>
      </trkpt>
      <trkpt lat="48.70404" lon="2.01264">
        <ele>95</ele>
        <time>2010-05-13T09:52:28Z</time>
      </trkpt>
      <trkpt lat="48.70406" lon="2.01263">
        <ele>95</ele>
        <time>2010-05-13T09:52:29Z</time>
      </trkpt>
      <trkpt lat="48.70408" lon="2.01264">
        <ele>94</ele>
        <time>2010-05-13T09:52:30Z</time>
      </trkpt>
      <trkpt lat="48.7041" lon="2.01264">
        <ele>94</ele>
        <time>2010-05-13T09:52:31Z</time>
      </trkpt>
      <trkpt lat="48.70411" lon="2.01262">
        <ele>94</ele>
        <time>2010-05-13T09:52:32Z</time>
      </trkpt>
      <trkpt lat="48.70412" lon="2.0126">
        <ele>93</ele>
        <time>2010-05-13T09:52:33Z</time>
      </trkpt>
      <trkpt lat="48.70413" lon="2.01259">
        <ele>92</ele>
        <time>2010-05-13T09:52:34Z</time>
      </trkpt>
      <trkpt lat="48.70414" lon="2.01256">
        <ele>91</ele>
        <time>2010-05-13T09:52:35Z</time>
      </trkpt>
      <trkpt lat="48.70415" lon="2.01255">
        <ele>90</ele>
        <time>2010-05-13T09:52:36Z</time>
      </trkpt>
      <trkpt lat="48.70416" lon="2.01252">
        <ele>89</ele>
        <time>2010-05-13T09:52:37Z</time>
      </trkpt>
      <trkpt lat="48.70417" lon="2.0125">
        <ele>88</ele>
        <time>2010-05-13T09:52:38Z</time>
      </trkpt>
      <trkpt lat="48.70417" lon="2.01247">
        <ele>87</ele>
        <time>2010-05-13T09:52:39Z</time>
      </trkpt>
      <trkpt lat="48.70419" lon="2.01243">
        <ele>87</ele>
        <time>2010-05-13T09:52:42Z</time>
      </trkpt>
      <trkpt lat="48.7042" lon="2.0124">
        <ele>87</ele>
        <time>2010-05-13T09:52:43Z</time>
      </trkpt>
      <trkpt lat="48.70423" lon="2.01234">
        <ele>87</ele>
        <time>2010-05-13T09:52:45Z</time>
      </trkpt>
      <trkpt lat="48.70424" lon="2.01229">
        <ele>88</ele>
        <time>2010-05-13T09:52:48Z</time>
      </trkpt>
      <trkpt lat="48.70427" lon="2.01226">
        <ele>89</ele>
        <time>2010-05-13T09:52:51Z</time>
      </trkpt>
      <trkpt lat="48.70428" lon="2.01224">
        <ele>90</ele>
        <time>2010-05-13T09:52:52Z</time>
      </trkpt>
      <trkpt lat="48.70431" lon="2.01221">
        <ele>91</ele>
        <time>2010-05-13T09:52:53Z</time>
      </trkpt>
      <trkpt lat="48.70433" lon="2.01219">
        <ele>92</ele>
        <time>2010-05-13T09:52:54Z</time>
      </trkpt>
      <trkpt lat="48.70433" lon="2.01216">
        <ele>96</ele>
        <time>2010-05-13T09:52:56Z</time>
      </trkpt>
      <trkpt lat="48.70434" lon="2.01214">
        <ele>97</ele>
        <time>2010-05-13T09:52:57Z</time>
      </trkpt>
      <trkpt lat="48.70435" lon="2.01212">
        <ele>98</ele>
        <time>2010-05-13T09:52:58Z</time>
      </trkpt>
      <trkpt lat="48.70436" lon="2.01208">
        <ele>99</ele>
        <time>2010-05-13T09:52:59Z</time>
      </trkpt>
      <trkpt lat="48.70436" lon="2.01205">
        <ele>100</ele>
        <time>2010-05-13T09:53:00Z</time>
      </trkpt>
      <trkpt lat="48.70436" lon="2.01202">
        <ele>101</ele>
        <time>2010-05-13T09:53:01Z</time>
      </trkpt>
      <trkpt lat="48.70435" lon="2.012">
        <ele>103</ele>
        <time>2010-05-13T09:53:03Z</time>
      </trkpt>
      <trkpt lat="48.70436" lon="2.01197">
        <ele>104</ele>
        <time>2010-05-13T09:53:04Z</time>
      </trkpt>
      <trkpt lat="48.70438" lon="2.0119">
        <ele>108</ele>
        <time>2010-05-13T09:53:08Z</time>
      </trkpt>
      <trkpt lat="48.70437" lon="2.01186">
        <ele>109</ele>
        <time>2010-05-13T09:53:09Z</time>
      </trkpt>
      <trkpt lat="48.70437" lon="2.01183">
        <ele>110</ele>
        <time>2010-05-13T09:53:10Z</time>
      </trkpt>
      <trkpt lat="48.70437" lon="2.01175">
        <ele>111</ele>
        <time>2010-05-13T09:53:13Z</time>
      </trkpt>
      <trkpt lat="48.70434" lon="2.01168">
        <ele>111</ele>
        <time>2010-05-13T09:53:14Z</time>
      </trkpt>
      <trkpt lat="48.70435" lon="2.01163">
        <ele>111</ele>
        <time>2010-05-13T09:53:15Z</time>
      </trkpt>
      <trkpt lat="48.70435" lon="2.01157">
        <ele>111</ele>
        <time>2010-05-13T09:53:18Z</time>
      </trkpt>
      <trkpt lat="48.7044" lon="2.01153">
        <ele>111</ele>
        <time>2010-05-13T09:53:20Z</time>
      </trkpt>
      <trkpt lat="48.70443" lon="2.01152">
        <ele>111</ele>
        <time>2010-05-13T09:53:21Z</time>
      </trkpt>
      <trkpt lat="48.70445" lon="2.01149">
        <ele>112</ele>
        <time>2010-05-13T09:53:22Z</time>
      </trkpt>
      <trkpt lat="48.70448" lon="2.01145">
        <ele>114</ele>
        <time>2010-05-13T09:53:26Z</time>
      </trkpt>
      <trkpt lat="48.70451" lon="2.01143">
        <ele>114</ele>
        <time>2010-05-13T09:53:28Z</time>
      </trkpt>
      <trkpt lat="48.70456" lon="2.01141">
        <ele>114</ele>
        <time>2010-05-13T09:53:29Z</time>
      </trkpt>
      <trkpt lat="48.70457" lon="2.01139">
        <ele>114</ele>
        <time>2010-05-13T09:53:32Z</time>
      </trkpt>
      <trkpt lat="48.70458" lon="2.01137">
        <ele>114</ele>
        <time>2010-05-13T09:53:34Z</time>
      </trkpt>
      <trkpt lat="48.70461" lon="2.01136">
        <ele>114</ele>
        <time>2010-05-13T09:53:36Z</time>
      </trkpt>
      <trkpt lat="48.70465" lon="2.01136">
        <ele>114</ele>
        <time>2010-05-13T09:53:37Z</time>
      </trkpt>
      <trkpt lat="48.70468" lon="2.01137">
        <ele>114</ele>
        <time>2010-05-13T09:53:38Z</time>
      </trkpt>
      <trkpt lat="48.7047" lon="2.01138">
        <ele>115</ele>
        <time>2010-05-13T09:53:39Z</time>
      </trkpt>
      <trkpt lat="48.70471" lon="2.01136">
        <ele>117</ele>
        <time>2010-05-13T09:53:41Z</time>
      </trkpt>
      <trkpt lat="48.70473" lon="2.01136">
        <ele>117</ele>
        <time>2010-05-13T09:53:42Z</time>
      </trkpt>
      <trkpt lat="48.70475" lon="2.01135">
        <ele>117</ele>
        <time>2010-05-13T09:53:43Z</time>
      </trkpt>
      <trkpt lat="48.70477" lon="2.01136">
        <ele>117</ele>
        <time>2010-05-13T09:53:44Z</time>
      </trkpt>
      <trkpt lat="48.70478" lon="2.01136">
        <ele>117</ele>
        <time>2010-05-13T09:53:45Z</time>
      </trkpt>
      <trkpt lat="48.70481" lon="2.01134">
        <ele>117</ele>
        <time>2010-05-13T09:53:46Z</time>
      </trkpt>
      <trkpt lat="48.70483" lon="2.01132">
        <ele>116</ele>
        <time>2010-05-13T09:53:48Z</time>
      </trkpt>
      <trkpt lat="48.70485" lon="2.01131">
        <ele>114</ele>
        <time>2010-05-13T09:53:50Z</time>
      </trkpt>
      <trkpt lat="48.70486" lon="2.01131">
        <ele>113</ele>
        <time>2010-05-13T09:53:51Z</time>
      </trkpt>
      <trkpt lat="48.70492" lon="2.01128">
        <ele>112</ele>
        <time>2010-05-13T09:53:54Z</time>
      </trkpt>
      <trkpt lat="48.70497" lon="2.01123">
        <ele>111</ele>
        <time>2010-05-13T09:53:58Z</time>
      </trkpt>
      <trkpt lat="48.70503" lon="2.0112">
        <ele>110</ele>
        <time>2010-05-13T09:54:01Z</time>
      </trkpt>
      <trkpt lat="48.70507" lon="2.01116">
        <ele>108</ele>
        <time>2010-05-13T09:54:04Z</time>
      </trkpt>
      <trkpt lat="48.7051" lon="2.01114">
        <ele>108</ele>
        <time>2010-05-13T09:54:05Z</time>
      </trkpt>
      <trkpt lat="48.70512" lon="2.01114">
        <ele>108</ele>
        <time>2010-05-13T09:54:06Z</time>
      </trkpt>
      <trkpt lat="48.70515" lon="2.01113">
        <ele>108</ele>
        <time>2010-05-13T09:54:08Z</time>
      </trkpt>
      <trkpt lat="48.70517" lon="2.01113">
        <ele>108</ele>
        <time>2010-05-13T09:54:10Z</time>
      </trkpt>
      <trkpt lat="48.70518" lon="2.01112">
        <ele>109</ele>
        <time>2010-05-13T09:54:11Z</time>
      </trkpt>
      <trkpt lat="48.70519" lon="2.01112">
        <ele>109</ele>
        <time>2010-05-13T09:54:13Z</time>
      </trkpt>
      <trkpt lat="48.70521" lon="2.01112">
        <ele>109</ele>
        <time>2010-05-13T09:54:14Z</time>
      </trkpt>
      <trkpt lat="48.70522" lon="2.01111">
        <ele>109</ele>
        <time>2010-05-13T09:54:15Z</time>
      </trkpt>
      <trkpt lat="48.70523" lon="2.01111">
        <ele>109</ele>
        <time>2010-05-13T09:54:16Z</time>
      </trkpt>
      <trkpt lat="48.70526" lon="2.01111">
        <ele>109</ele>
        <time>2010-05-13T09:54:19Z</time>
      </trkpt>
      <trkpt lat="48.70528" lon="2.01111">
        <ele>109</ele>
        <time>2010-05-13T09:54:20Z</time>
      </trkpt>
      <trkpt lat="48.7053" lon="2.01111">
        <ele>108</ele>
        <time>2010-05-13T09:54:21Z</time>
      </trkpt>
      <trkpt lat="48.70532" lon="2.01111">
        <ele>107</ele>
        <time>2010-05-13T09:54:23Z</time>
      </trkpt>
      <trkpt lat="48.70534" lon="2.01112">
        <ele>107</ele>
        <time>2010-05-13T09:54:24Z</time>
      </trkpt>
      <trkpt lat="48.70535" lon="2.0111">
        <ele>107</ele>
        <time>2010-05-13T09:54:27Z</time>
      </trkpt>
      <trkpt lat="48.70537" lon="2.01106">
        <ele>107</ele>
        <time>2010-05-13T09:54:29Z</time>
      </trkpt>
      <trkpt lat="48.70537" lon="2.01104">
        <ele>107</ele>
        <time>2010-05-13T09:54:30Z</time>
      </trkpt>
      <trkpt lat="48.70541" lon="2.01103">
        <ele>108</ele>
        <time>2010-05-13T09:54:31Z</time>
      </trkpt>
      <trkpt lat="48.70543" lon="2.01102">
        <ele>109</ele>
        <time>2010-05-13T09:54:32Z</time>
      </trkpt>
      <trkpt lat="48.70545" lon="2.01102">
        <ele>110</ele>
        <time>2010-05-13T09:54:33Z</time>
      </trkpt>
      <trkpt lat="48.70545" lon="2.01099">
        <ele>111</ele>
        <time>2010-05-13T09:54:35Z</time>
      </trkpt>
      <trkpt lat="48.70551" lon="2.01101">
        <ele>112</ele>
        <time>2010-05-13T09:54:39Z</time>
      </trkpt>
      <trkpt lat="48.70553" lon="2.01105">
        <ele>112</ele>
        <time>2010-05-13T09:54:40Z</time>
      </trkpt>
      <trkpt lat="48.70559" lon="2.01105">
        <ele>112</ele>
        <time>2010-05-13T09:54:41Z</time>
      </trkpt>
      <trkpt lat="48.70561" lon="2.01104">
        <ele>113</ele>
        <time>2010-05-13T09:54:42Z</time>
      </trkpt>
      <trkpt lat="48.70578" lon="2.01104">
        <ele>127</ele>
        <time>2010-05-13T09:54:57Z</time>
      </trkpt>
      <trkpt lat="48.70579" lon="2.01104">
        <ele>129</ele>
        <time>2010-05-13T09:54:58Z</time>
      </trkpt>
      <trkpt lat="48.70582" lon="2.01103">
        <ele>131</ele>
        <time>2010-05-13T09:55:01Z</time>
      </trkpt>
      <trkpt lat="48.70584" lon="2.01101">
        <ele>133</ele>
        <time>2010-05-13T09:55:02Z</time>
      </trkpt>
      <trkpt lat="48.70586" lon="2.011">
        <ele>134</ele>
        <time>2010-05-13T09:55:03Z</time>
      </trkpt>
      <trkpt lat="48.70606" lon="2.01095">
        <ele>150</ele>
        <time>2010-05-13T09:55:23Z</time>
      </trkpt>
      <trkpt lat="48.70608" lon="2.01092">
        <ele>150</ele>
        <time>2010-05-13T09:55:24Z</time>
      </trkpt>
      <trkpt lat="48.70609" lon="2.0109">
        <ele>150</ele>
        <time>2010-05-13T09:55:25Z</time>
      </trkpt>
      <trkpt lat="48.70611" lon="2.01086">
        <ele>150</ele>
        <time>2010-05-13T09:55:26Z</time>
      </trkpt>
      <trkpt lat="48.70611" lon="2.01083">
        <ele>150</ele>
        <time>2010-05-13T09:55:27Z</time>
      </trkpt>
      <trkpt lat="48.70612" lon="2.0108">
        <ele>149</ele>
        <time>2010-05-13T09:55:28Z</time>
      </trkpt>
      <trkpt lat="48.70613" lon="2.01078">
        <ele>148</ele>
        <time>2010-05-13T09:55:29Z</time>
      </trkpt>
      <trkpt lat="48.70615" lon="2.01076">
        <ele>147</ele>
        <time>2010-05-13T09:55:30Z</time>
      </trkpt>
      <trkpt lat="48.70615" lon="2.01074">
        <ele>146</ele>
        <time>2010-05-13T09:55:31Z</time>
      </trkpt>
      <trkpt lat="48.70614" lon="2.01071">
        <ele>145</ele>
        <time>2010-05-13T09:55:32Z</time>
      </trkpt>
      <trkpt lat="48.70613" lon="2.01069">
        <ele>144</ele>
        <time>2010-05-13T09:55:33Z</time>
      </trkpt>
      <trkpt lat="48.70613" lon="2.01066">
        <ele>142</ele>
        <time>2010-05-13T09:55:35Z</time>
      </trkpt>
      <trkpt lat="48.70614" lon="2.01064">
        <ele>141</ele>
        <time>2010-05-13T09:55:36Z</time>
      </trkpt>
      <trkpt lat="48.70615" lon="2.01064">
        <ele>140</ele>
        <time>2010-05-13T09:55:39Z</time>
      </trkpt>
      <trkpt lat="48.70616" lon="2.01061">
        <ele>140</ele>
        <time>2010-05-13T09:55:41Z</time>
      </trkpt>
      <trkpt lat="48.70616" lon="2.01059">
        <ele>140</ele>
        <time>2010-05-13T09:55:42Z</time>
      </trkpt>
      <trkpt lat="48.70617" lon="2.01056">
        <ele>140</ele>
        <time>2010-05-13T09:55:43Z</time>
      </trkpt>
      <trkpt lat="48.70618" lon="2.01053">
        <ele>139</ele>
        <time>2010-05-13T09:55:45Z</time>
      </trkpt>
      <trkpt lat="48.70619" lon="2.0105">
        <ele>138</ele>
        <time>2010-05-13T09:55:46Z</time>
      </trkpt>
      <trkpt lat="48.70621" lon="2.01031">
        <ele>133</ele>
        <time>2010-05-13T09:55:52Z</time>
      </trkpt>
      <trkpt lat="48.70615" lon="2.01009">
        <ele>126</ele>
        <time>2010-05-13T09:56:01Z</time>
      </trkpt>
      <trkpt lat="48.70616" lon="2.01007">
        <ele>126</ele>
        <time>2010-05-13T09:56:02Z</time>
      </trkpt>
      <trkpt lat="48.70616" lon="2.01004">
        <ele>126</ele>
        <time>2010-05-13T09:56:03Z</time>
      </trkpt>
      <trkpt lat="48.70617" lon="2.01002">
        <ele>126</ele>
        <time>2010-05-13T09:56:04Z</time>
      </trkpt>
      <trkpt lat="48.70619" lon="2.01">
        <ele>126</ele>
        <time>2010-05-13T09:56:05Z</time>
      </trkpt>
      <trkpt lat="48.70618" lon="2.00998">
        <ele>128</ele>
        <time>2010-05-13T09:56:07Z</time>
      </trkpt>
      <trkpt lat="48.70618" lon="2.00996">
        <ele>129</ele>
        <time>2010-05-13T09:56:08Z</time>
      </trkpt>
      <trkpt lat="48.70621" lon="2.00985">
        <ele>133</ele>
        <time>2010-05-13T09:56:12Z</time>
      </trkpt>
      <trkpt lat="48.70622" lon="2.00982">
        <ele>134</ele>
        <time>2010-05-13T09:56:13Z</time>
      </trkpt>
      <trkpt lat="48.70624" lon="2.00977">
        <ele>136</ele>
        <time>2010-05-13T09:56:15Z</time>
      </trkpt>
      <trkpt lat="48.70625" lon="2.00973">
        <ele>137</ele>
        <time>2010-05-13T09:56:16Z</time>
      </trkpt>
      <trkpt lat="48.70626" lon="2.00971">
        <ele>137</ele>
        <time>2010-05-13T09:56:17Z</time>
      </trkpt>
      <trkpt lat="48.70626" lon="2.0097">
        <ele>137</ele>
        <time>2010-05-13T09:56:19Z</time>
      </trkpt>
      <trkpt lat="48.70625" lon="2.00967">
        <ele>137</ele>
        <time>2010-05-13T09:56:21Z</time>
      </trkpt>
      <trkpt lat="48.70626" lon="2.00962">
        <ele>137</ele>
        <time>2010-05-13T09:56:24Z</time>
      </trkpt>
      <trkpt lat="48.70633" lon="2.00925">
        <ele>138</ele>
        <time>2010-05-13T09:56:42Z</time>
      </trkpt>
      <trkpt lat="48.70633" lon="2.00923">
        <ele>138</ele>
        <time>2010-05-13T09:56:43Z</time>
      </trkpt>
      <trkpt lat="48.70632" lon="2.00921">
        <ele>138</ele>
        <time>2010-05-13T09:56:44Z</time>
      </trkpt>
      <trkpt lat="48.70631" lon="2.00919">
        <ele>139</ele>
        <time>2010-05-13T09:56:45Z</time>
      </trkpt>
      <trkpt lat="48.70631" lon="2.00917">
        <ele>139</ele>
        <time>2010-05-13T09:56:46Z</time>
      </trkpt>
      <trkpt lat="48.70632" lon="2.00915">
        <ele>139</ele>
        <time>2010-05-13T09:56:47Z</time>
      </trkpt>
      <trkpt lat="48.70632" lon="2.00913">
        <ele>140</ele>
        <time>2010-05-13T09:56:48Z</time>
      </trkpt>
      <trkpt lat="48.70637" lon="2.00903">
        <ele>144</ele>
        <time>2010-05-13T09:56:52Z</time>
      </trkpt>
      <trkpt lat="48.70639" lon="2.009">
        <ele>144</ele>
        <time>2010-05-13T09:56:53Z</time>
      </trkpt>
      <trkpt lat="48.70639" lon="2.00896">
        <ele>146</ele>
        <time>2010-05-13T09:56:55Z</time>
      </trkpt>
      <trkpt lat="48.7064" lon="2.00893">
        <ele>147</ele>
        <time>2010-05-13T09:56:58Z</time>
      </trkpt>
      <trkpt lat="48.70642" lon="2.0089">
        <ele>148</ele>
        <time>2010-05-13T09:56:59Z</time>
      </trkpt>
      <trkpt lat="48.70644" lon="2.00885">
        <ele>150</ele>
        <time>2010-05-13T09:57:01Z</time>
      </trkpt>
      <trkpt lat="48.70645" lon="2.00882">
        <ele>151</ele>
        <time>2010-05-13T09:57:02Z</time>
      </trkpt>
      <trkpt lat="48.70646" lon="2.00878">
        <ele>152</ele>
        <time>2010-05-13T09:57:03Z</time>
      </trkpt>
      <trkpt lat="48.70645" lon="2.00869">
        <ele>152</ele>
        <time>2010-05-13T09:57:07Z</time>
      </trkpt>
      <trkpt lat="48.70645" lon="2.00865">
        <ele>152</ele>
        <time>2010-05-13T09:57:11Z</time>
      </trkpt>
      <trkpt lat="48.70645" lon="2.00863">
        <ele>152</ele>
        <time>2010-05-13T09:57:12Z</time>
      </trkpt>
      <trkpt lat="48.70646" lon="2.00861">
        <ele>152</ele>
        <time>2010-05-13T09:57:13Z</time>
      </trkpt>
      <trkpt lat="48.70648" lon="2.00859">
        <ele>152</ele>
        <time>2010-05-13T09:57:14Z</time>
      </trkpt>
      <trkpt lat="48.70652" lon="2.00845">
        <ele>152</ele>
        <time>2010-05-13T09:57:19Z</time>
      </trkpt>
      <trkpt lat="48.70655" lon="2.00842">
        <ele>151</ele>
        <time>2010-05-13T09:57:20Z</time>
      </trkpt>
      <trkpt lat="48.70654" lon="2.00839">
        <ele>151</ele>
        <time>2010-05-13T09:57:23Z</time>
      </trkpt>
      <trkpt lat="48.70654" lon="2.00837">
        <ele>151</ele>
        <time>2010-05-13T09:57:24Z</time>
      </trkpt>
      <trkpt lat="48.70656" lon="2.00835">
        <ele>151</ele>
        <time>2010-05-13T09:57:25Z</time>
      </trkpt>
      <trkpt lat="48.70655" lon="2.00831">
        <ele>151</ele>
        <time>2010-05-13T09:57:26Z</time>
      </trkpt>
      <trkpt lat="48.70655" lon="2.00828">
        <ele>151</ele>
        <time>2010-05-13T09:57:27Z</time>
      </trkpt>
      <trkpt lat="48.70654" lon="2.00824">
        <ele>151</ele>
        <time>2010-05-13T09:57:28Z</time>
      </trkpt>
      <trkpt lat="48.70654" lon="2.00821">
        <ele>151</ele>
        <time>2010-05-13T09:57:29Z</time>
      </trkpt>
      <trkpt lat="48.70655" lon="2.00818">
        <ele>150</ele>
        <time>2010-05-13T09:57:30Z</time>
      </trkpt>
      <trkpt lat="48.70657" lon="2.00811">
        <ele>148</ele>
        <time>2010-05-13T09:57:34Z</time>
      </trkpt>
      <trkpt lat="48.70657" lon="2.00809">
        <ele>147</ele>
        <time>2010-05-13T09:57:35Z</time>
      </trkpt>
      <trkpt lat="48.70657" lon="2.00807">
        <ele>146</ele>
        <time>2010-05-13T09:57:36Z</time>
      </trkpt>
      <trkpt lat="48.70659" lon="2.00802">
        <ele>146</ele>
        <time>2010-05-13T09:57:39Z</time>
      </trkpt>
      <trkpt lat="48.70662" lon="2.008">
        <ele>146</ele>
        <time>2010-05-13T09:57:40Z</time>
      </trkpt>
      <trkpt lat="48.70662" lon="2.00797">
        <ele>146</ele>
        <time>2010-05-13T09:57:41Z</time>
      </trkpt>
      <trkpt lat="48.70663" lon="2.00795">
        <ele>146</ele>
        <time>2010-05-13T09:57:42Z</time>
      </trkpt>
      <trkpt lat="48.70664" lon="2.00793">
        <ele>146</ele>
        <time>2010-05-13T09:57:43Z</time>
      </trkpt>
      <trkpt lat="48.70666" lon="2.00791">
        <ele>146</ele>
        <time>2010-05-13T09:57:44Z</time>
      </trkpt>
      <trkpt lat="48.70667" lon="2.0079">
        <ele>146</ele>
        <time>2010-05-13T09:57:45Z</time>
      </trkpt>
      <trkpt lat="48.70667" lon="2.00788">
        <ele>146</ele>
        <time>2010-05-13T09:57:46Z</time>
      </trkpt>
      <trkpt lat="48.70668" lon="2.00787">
        <ele>146</ele>
        <time>2010-05-13T09:57:47Z</time>
      </trkpt>
      <trkpt lat="48.7067" lon="2.00786">
        <ele>146</ele>
        <time>2010-05-13T09:57:48Z</time>
      </trkpt>
      <trkpt lat="48.70668" lon="2.00783">
        <ele>146</ele>
        <time>2010-05-13T09:57:50Z</time>
      </trkpt>
      <trkpt lat="48.70668" lon="2.00781">
        <ele>146</ele>
        <time>2010-05-13T09:57:51Z</time>
      </trkpt>
      <trkpt lat="48.70668" lon="2.00778">
        <ele>145</ele>
        <time>2010-05-13T09:57:52Z</time>
      </trkpt>
      <trkpt lat="48.70668" lon="2.00775">
        <ele>144</ele>
        <time>2010-05-13T09:57:53Z</time>
      </trkpt>
      <trkpt lat="48.70668" lon="2.00773">
        <ele>143</ele>
        <time>2010-05-13T09:57:54Z</time>
      </trkpt>
      <trkpt lat="48.7067" lon="2.00765">
        <ele>143</ele>
        <time>2010-05-13T09:57:58Z</time>
      </trkpt>
      <trkpt lat="48.70673" lon="2.00758">
        <ele>142</ele>
        <time>2010-05-13T09:57:59Z</time>
      </trkpt>
      <trkpt lat="48.70676" lon="2.00755">
        <ele>141</ele>
        <time>2010-05-13T09:58:00Z</time>
      </trkpt>
      <trkpt lat="48.70678" lon="2.00752">
        <ele>140</ele>
        <time>2010-05-13T09:58:01Z</time>
      </trkpt>
      <trkpt lat="48.7068" lon="2.00751">
        <ele>139</ele>
        <time>2010-05-13T09:58:02Z</time>
      </trkpt>
      <trkpt lat="48.7068" lon="2.00748">
        <ele>137</ele>
        <time>2010-05-13T09:58:04Z</time>
      </trkpt>
      <trkpt lat="48.7068" lon="2.00746">
        <ele>137</ele>
        <time>2010-05-13T09:58:05Z</time>
      </trkpt>
      <trkpt lat="48.7068" lon="2.00745">
        <ele>136</ele>
        <time>2010-05-13T09:58:06Z</time>
      </trkpt>
      <trkpt lat="48.70681" lon="2.00745">
        <ele>136</ele>
        <time>2010-05-13T09:58:07Z</time>
      </trkpt>
      <trkpt lat="48.70681" lon="2.00743">
        <ele>136</ele>
        <time>2010-05-13T09:58:08Z</time>
      </trkpt>
      <trkpt lat="48.70675" lon="2.00726">
        <ele>134</ele>
        <time>2010-05-13T09:58:20Z</time>
      </trkpt>
      <trkpt lat="48.70674" lon="2.00724">
        <ele>133</ele>
        <time>2010-05-13T09:58:21Z</time>
      </trkpt>
      <trkpt lat="48.70675" lon="2.00721">
        <ele>132</ele>
        <time>2010-05-13T09:58:22Z</time>
      </trkpt>
      <trkpt lat="48.70677" lon="2.00718">
        <ele>131</ele>
        <time>2010-05-13T09:58:23Z</time>
      </trkpt>
      <trkpt lat="48.70679" lon="2.00715">
        <ele>130</ele>
        <time>2010-05-13T09:58:24Z</time>
      </trkpt>
      <trkpt lat="48.7068" lon="2.00712">
        <ele>129</ele>
        <time>2010-05-13T09:58:25Z</time>
      </trkpt>
      <trkpt lat="48.70681" lon="2.00709">
        <ele>128</ele>
        <time>2010-05-13T09:58:26Z</time>
      </trkpt>
      <trkpt lat="48.70681" lon="2.00707">
        <ele>127</ele>
        <time>2010-05-13T09:58:27Z</time>
      </trkpt>
      <trkpt lat="48.70684" lon="2.00704">
        <ele>127</ele>
        <time>2010-05-13T09:58:28Z</time>
      </trkpt>
      <trkpt lat="48.70685" lon="2.00702">
        <ele>127</ele>
        <time>2010-05-13T09:58:29Z</time>
      </trkpt>
      <trkpt lat="48.70686" lon="2.007">
        <ele>127</ele>
        <time>2010-05-13T09:58:30Z</time>
      </trkpt>
      <trkpt lat="48.70687" lon="2.00698">
        <ele>127</ele>
        <time>2010-05-13T09:58:31Z</time>
      </trkpt>
      <trkpt lat="48.7069" lon="2.00687">
        <ele>127</ele>
        <time>2010-05-13T09:58:38Z</time>
      </trkpt>
      <trkpt lat="48.70694" lon="2.00681">
        <ele>127</ele>
        <time>2010-05-13T09:58:39Z</time>
      </trkpt>
      <trkpt lat="48.70698" lon="2.00675">
        <ele>127</ele>
        <time>2010-05-13T09:58:40Z</time>
      </trkpt>
      <trkpt lat="48.70699" lon="2.00671">
        <ele>127</ele>
        <time>2010-05-13T09:58:41Z</time>
      </trkpt>
      <trkpt lat="48.707" lon="2.00668">
        <ele>127</ele>
        <time>2010-05-13T09:58:42Z</time>
      </trkpt>
      <trkpt lat="48.70703" lon="2.00665">
        <ele>127</ele>
        <time>2010-05-13T09:58:45Z</time>
      </trkpt>
      <trkpt lat="48.70704" lon="2.00665">
        <ele>127</ele>
        <time>2010-05-13T09:58:47Z</time>
      </trkpt>
      <trkpt lat="48.70707" lon="2.00661">
        <ele>128</ele>
        <time>2010-05-13T09:58:48Z</time>
      </trkpt>
      <trkpt lat="48.70706" lon="2.00658">
        <ele>129</ele>
        <time>2010-05-13T09:58:49Z</time>
      </trkpt>
      <trkpt lat="48.70707" lon="2.00655">
        <ele>130</ele>
        <time>2010-05-13T09:58:50Z</time>
      </trkpt>
      <trkpt lat="48.70709" lon="2.00653">
        <ele>131</ele>
        <time>2010-05-13T09:58:51Z</time>
      </trkpt>
      <trkpt lat="48.7071" lon="2.00651">
        <ele>132</ele>
        <time>2010-05-13T09:58:52Z</time>
      </trkpt>
      <trkpt lat="48.7071" lon="2.0065">
        <ele>133</ele>
        <time>2010-05-13T09:58:53Z</time>
      </trkpt>
      <trkpt lat="48.70711" lon="2.00647">
        <ele>134</ele>
        <time>2010-05-13T09:58:54Z</time>
      </trkpt>
      <trkpt lat="48.70713" lon="2.00645">
        <ele>135</ele>
        <time>2010-05-13T09:58:55Z</time>
      </trkpt>
      <trkpt lat="48.70713" lon="2.00643">
        <ele>136</ele>
        <time>2010-05-13T09:58:56Z</time>
      </trkpt>
      <trkpt lat="48.70715" lon="2.00642">
        <ele>137</ele>
        <time>2010-05-13T09:58:57Z</time>
      </trkpt>
      <trkpt lat="48.70716" lon="2.00642">
        <ele>138</ele>
        <time>2010-05-13T09:58:58Z</time>
      </trkpt>
      <trkpt lat="48.70717" lon="2.0064">
        <ele>139</ele>
        <time>2010-05-13T09:58:59Z</time>
      </trkpt>
      <trkpt lat="48.70719" lon="2.00639">
        <ele>140</ele>
        <time>2010-05-13T09:59:00Z</time>
      </trkpt>
      <trkpt lat="48.70721" lon="2.00637">
        <ele>141</ele>
        <time>2010-05-13T09:59:01Z</time>
      </trkpt>
      <trkpt lat="48.70722" lon="2.00635">
        <ele>142</ele>
        <time>2010-05-13T09:59:02Z</time>
      </trkpt>
      <trkpt lat="48.70724" lon="2.00632">
        <ele>143</ele>
        <time>2010-05-13T09:59:05Z</time>
      </trkpt>
      <trkpt lat="48.7073" lon="2.00622">
        <ele>144</ele>
        <time>2010-05-13T09:59:09Z</time>
      </trkpt>
      <trkpt lat="48.70733" lon="2.0062">
        <ele>145</ele>
        <time>2010-05-13T09:59:10Z</time>
      </trkpt>
      <trkpt lat="48.70736" lon="2.00619">
        <ele>146</ele>
        <time>2010-05-13T09:59:11Z</time>
      </trkpt>
      <trkpt lat="48.70737" lon="2.00616">
        <ele>147</ele>
        <time>2010-05-13T09:59:12Z</time>
      </trkpt>
      <trkpt lat="48.70738" lon="2.00613">
        <ele>148</ele>
        <time>2010-05-13T09:59:13Z</time>
      </trkpt>
      <trkpt lat="48.70739" lon="2.0061">
        <ele>149</ele>
        <time>2010-05-13T09:59:14Z</time>
      </trkpt>
      <trkpt lat="48.70741" lon="2.00603">
        <ele>150</ele>
        <time>2010-05-13T09:59:18Z</time>
      </trkpt>
      <trkpt lat="48.70744" lon="2.00598">
        <ele>151</ele>
        <time>2010-05-13T09:59:19Z</time>
      </trkpt>
      <trkpt lat="48.70743" lon="2.00594">
        <ele>152</ele>
        <time>2010-05-13T09:59:20Z</time>
      </trkpt>
      <trkpt lat="48.70744" lon="2.00592">
        <ele>153</ele>
        <time>2010-05-13T09:59:21Z</time>
      </trkpt>
      <trkpt lat="48.70746" lon="2.0059">
        <ele>155</ele>
        <time>2010-05-13T09:59:23Z</time>
      </trkpt>
      <trkpt lat="48.70748" lon="2.00589">
        <ele>157</ele>
        <time>2010-05-13T09:59:25Z</time>
      </trkpt>
      <trkpt lat="48.70749" lon="2.00587">
        <ele>158</ele>
        <time>2010-05-13T09:59:26Z</time>
      </trkpt>
      <trkpt lat="48.7075" lon="2.00585">
        <ele>158</ele>
        <time>2010-05-13T09:59:27Z</time>
      </trkpt>
      <trkpt lat="48.70751" lon="2.00584">
        <ele>159</ele>
        <time>2010-05-13T09:59:28Z</time>
      </trkpt>
      <trkpt lat="48.70752" lon="2.00579">
        <ele>161</ele>
        <time>2010-05-13T09:59:30Z</time>
      </trkpt>
      <trkpt lat="48.70754" lon="2.00576">
        <ele>162</ele>
        <time>2010-05-13T09:59:31Z</time>
      </trkpt>
      <trkpt lat="48.70755" lon="2.00575">
        <ele>163</ele>
        <time>2010-05-13T09:59:32Z</time>
      </trkpt>
      <trkpt lat="48.70755" lon="2.00572">
        <ele>163</ele>
        <time>2010-05-13T09:59:34Z</time>
      </trkpt>
      <trkpt lat="48.70756" lon="2.0057">
        <ele>163</ele>
        <time>2010-05-13T09:59:35Z</time>
      </trkpt>
      <trkpt lat="48.70756" lon="2.00568">
        <ele>163</ele>
        <time>2010-05-13T09:59:36Z</time>
      </trkpt>
      <trkpt lat="48.70757" lon="2.00565">
        <ele>162</ele>
        <time>2010-05-13T09:59:38Z</time>
      </trkpt>
      <trkpt lat="48.70759" lon="2.00563">
        <ele>161</ele>
        <time>2010-05-13T09:59:39Z</time>
      </trkpt>
      <trkpt lat="48.70764" lon="2.00557">
        <ele>161</ele>
        <time>2010-05-13T09:59:43Z</time>
      </trkpt>
      <trkpt lat="48.70765" lon="2.0055">
        <ele>160</ele>
        <time>2010-05-13T09:59:44Z</time>
      </trkpt>
      <trkpt lat="48.70767" lon="2.00547">
        <ele>160</ele>
        <time>2010-05-13T09:59:45Z</time>
      </trkpt>
      <trkpt lat="48.70767" lon="2.00544">
        <ele>160</ele>
        <time>2010-05-13T09:59:48Z</time>
      </trkpt>
      <trkpt lat="48.70768" lon="2.00542">
        <ele>160</ele>
        <time>2010-05-13T09:59:49Z</time>
      </trkpt>
      <trkpt lat="48.70771" lon="2.0054">
        <ele>160</ele>
        <time>2010-05-13T09:59:52Z</time>
      </trkpt>
      <trkpt lat="48.70775" lon="2.00536">
        <ele>160</ele>
        <time>2010-05-13T09:59:53Z</time>
      </trkpt>
      <trkpt lat="48.70778" lon="2.00535">
        <ele>160</ele>
        <time>2010-05-13T09:59:54Z</time>
      </trkpt>
      <trkpt lat="48.7078" lon="2.00533">
        <ele>159</ele>
        <time>2010-05-13T09:59:55Z</time>
      </trkpt>
      <trkpt lat="48.70782" lon="2.0053">
        <ele>158</ele>
        <time>2010-05-13T09:59:56Z</time>
      </trkpt>
      <trkpt lat="48.70784" lon="2.00528">
        <ele>158</ele>
        <time>2010-05-13T09:59:57Z</time>
      </trkpt>
      <trkpt lat="48.70785" lon="2.00526">
        <ele>158</ele>
        <time>2010-05-13T09:59:58Z</time>
      </trkpt>
      <trkpt lat="48.70785" lon="2.00524">
        <ele>158</ele>
        <time>2010-05-13T09:59:59Z</time>
      </trkpt>
      <trkpt lat="48.70785" lon="2.00522">
        <ele>158</ele>
        <time>2010-05-13T10:00:00Z</time>
      </trkpt>
      <trkpt lat="48.70785" lon="2.00519">
        <ele>158</ele>
        <time>2010-05-13T10:00:01Z</time>
      </trkpt>
      <trkpt lat="48.70784" lon="2.00518">
        <ele>158</ele>
        <time>2010-05-13T10:00:02Z</time>
      </trkpt>
      <trkpt lat="48.70786" lon="2.00514">
        <ele>158</ele>
        <time>2010-05-13T10:00:05Z</time>
      </trkpt>
      <trkpt lat="48.70787" lon="2.00511">
        <ele>158</ele>
        <time>2010-05-13T10:00:06Z</time>
      </trkpt>
      <trkpt lat="48.70789" lon="2.00509">
        <ele>158</ele>
        <time>2010-05-13T10:00:07Z</time>
      </trkpt>
      <trkpt lat="48.70791" lon="2.00507">
        <ele>158</ele>
        <time>2010-05-13T10:00:08Z</time>
      </trkpt>
      <trkpt lat="48.70794" lon="2.00504">
        <ele>159</ele>
        <time>2010-05-13T10:00:10Z</time>
      </trkpt>
      <trkpt lat="48.70797" lon="2.00502">
        <ele>160</ele>
        <time>2010-05-13T10:00:11Z</time>
      </trkpt>
      <trkpt lat="48.70799" lon="2.005">
        <ele>160</ele>
        <time>2010-05-13T10:00:13Z</time>
      </trkpt>
      <trkpt lat="48.70801" lon="2.005">
        <ele>160</ele>
        <time>2010-05-13T10:00:14Z</time>
      </trkpt>
      <trkpt lat="48.70803" lon="2.00499">
        <ele>160</ele>
        <time>2010-05-13T10:00:15Z</time>
      </trkpt>
      <trkpt lat="48.70805" lon="2.00499">
        <ele>160</ele>
        <time>2010-05-13T10:00:17Z</time>
      </trkpt>
      <trkpt lat="48.70807" lon="2.00498">
        <ele>160</ele>
        <time>2010-05-13T10:00:18Z</time>
      </trkpt>
      <trkpt lat="48.70809" lon="2.00495">
        <ele>160</ele>
        <time>2010-05-13T10:00:20Z</time>
      </trkpt>
      <trkpt lat="48.7081" lon="2.00492">
        <ele>160</ele>
        <time>2010-05-13T10:00:22Z</time>
      </trkpt>
      <trkpt lat="48.70812" lon="2.00491">
        <ele>160</ele>
        <time>2010-05-13T10:00:23Z</time>
      </trkpt>
      <trkpt lat="48.70812" lon="2.00489">
        <ele>159</ele>
        <time>2010-05-13T10:00:24Z</time>
      </trkpt>
      <trkpt lat="48.70813" lon="2.00487">
        <ele>159</ele>
        <time>2010-05-13T10:00:25Z</time>
      </trkpt>
      <trkpt lat="48.70813" lon="2.00485">
        <ele>158</ele>
        <time>2010-05-13T10:00:26Z</time>
      </trkpt>
      <trkpt lat="48.70814" lon="2.00484">
        <ele>157</ele>
        <time>2010-05-13T10:00:27Z</time>
      </trkpt>
      <trkpt lat="48.70813" lon="2.00481">
        <ele>156</ele>
        <time>2010-05-13T10:00:28Z</time>
      </trkpt>
      <trkpt lat="48.70814" lon="2.00479">
        <ele>154</ele>
        <time>2010-05-13T10:00:30Z</time>
      </trkpt>
      <trkpt lat="48.70814" lon="2.00473">
        <ele>152</ele>
        <time>2010-05-13T10:00:34Z</time>
      </trkpt>
      <trkpt lat="48.70816" lon="2.0047">
        <ele>150</ele>
        <time>2010-05-13T10:00:36Z</time>
      </trkpt>
      <trkpt lat="48.70818" lon="2.00467">
        <ele>149</ele>
        <time>2010-05-13T10:00:37Z</time>
      </trkpt>
      <trkpt lat="48.70819" lon="2.00463">
        <ele>148</ele>
        <time>2010-05-13T10:00:38Z</time>
      </trkpt>
      <trkpt lat="48.70819" lon="2.00461">
        <ele>148</ele>
        <time>2010-05-13T10:00:39Z</time>
      </trkpt>
      <trkpt lat="48.70822" lon="2.00455">
        <ele>148</ele>
        <time>2010-05-13T10:00:43Z</time>
      </trkpt>
      <trkpt lat="48.70826" lon="2.00446">
        <ele>148</ele>
        <time>2010-05-13T10:00:46Z</time>
      </trkpt>
      <trkpt lat="48.70828" lon="2.00441">
        <ele>148</ele>
        <time>2010-05-13T10:00:47Z</time>
      </trkpt>
      <trkpt lat="48.70835" lon="2.00436">
        <ele>148</ele>
        <time>2010-05-13T10:00:48Z</time>
      </trkpt>
      <trkpt lat="48.70838" lon="2.00434">
        <ele>148</ele>
        <time>2010-05-13T10:00:49Z</time>
      </trkpt>
      <trkpt lat="48.7084" lon="2.0043">
        <ele>148</ele>
        <time>2010-05-13T10:00:51Z</time>
      </trkpt>
      <trkpt lat="48.70842" lon="2.00428">
        <ele>148</ele>
        <time>2010-05-13T10:00:53Z</time>
      </trkpt>
      <trkpt lat="48.70841" lon="2.00426">
        <ele>148</ele>
        <time>2010-05-13T10:00:55Z</time>
      </trkpt>
      <trkpt lat="48.7084" lon="2.00424">
        <ele>150</ele>
        <time>2010-05-13T10:00:57Z</time>
      </trkpt>
      <trkpt lat="48.70838" lon="2.00421">
        <ele>151</ele>
        <time>2010-05-13T10:00:58Z</time>
      </trkpt>
      <trkpt lat="48.7084" lon="2.00418">
        <ele>151</ele>
        <time>2010-05-13T10:00:59Z</time>
      </trkpt>
      <trkpt lat="48.70839" lon="2.00416">
        <ele>151</ele>
        <time>2010-05-13T10:01:00Z</time>
      </trkpt>
      <trkpt lat="48.70838" lon="2.00413">
        <ele>151</ele>
        <time>2010-05-13T10:01:01Z</time>
      </trkpt>
      <trkpt lat="48.7084" lon="2.00411">
        <ele>151</ele>
        <time>2010-05-13T10:01:04Z</time>
      </trkpt>
      <trkpt lat="48.7084" lon="2.00406">
        <ele>151</ele>
        <time>2010-05-13T10:01:05Z</time>
      </trkpt>
      <trkpt lat="48.70841" lon="2.00401">
        <ele>151</ele>
        <time>2010-05-13T10:01:06Z</time>
      </trkpt>
      <trkpt lat="48.70841" lon="2.00398">
        <ele>150</ele>
        <time>2010-05-13T10:01:07Z</time>
      </trkpt>
      <trkpt lat="48.70844" lon="2.00396">
        <ele>149</ele>
        <time>2010-05-13T10:01:08Z</time>
      </trkpt>
      <trkpt lat="48.70846" lon="2.00393">
        <ele>148</ele>
        <time>2010-05-13T10:01:09Z</time>
      </trkpt>
      <trkpt lat="48.70848" lon="2.00391">
        <ele>148</ele>
        <time>2010-05-13T10:01:10Z</time>
      </trkpt>
      <trkpt lat="48.70849" lon="2.00388">
        <ele>148</ele>
        <time>2010-05-13T10:01:11Z</time>
      </trkpt>
      <trkpt lat="48.7085" lon="2.00386">
        <ele>148</ele>
        <time>2010-05-13T10:01:12Z</time>
      </trkpt>
      <trkpt lat="48.7085" lon="2.00384">
        <ele>148</ele>
        <time>2010-05-13T10:01:13Z</time>
      </trkpt>
      <trkpt lat="48.70858" lon="2.00367">
        <ele>144</ele>
        <time>2010-05-13T10:01:25Z</time>
      </trkpt>
      <trkpt lat="48.70863" lon="2.00366">
        <ele>143</ele>
        <time>2010-05-13T10:01:26Z</time>
      </trkpt>
      <trkpt lat="48.70864" lon="2.00367">
        <ele>143</ele>
        <time>2010-05-13T10:01:27Z</time>
      </trkpt>
      <trkpt lat="48.70864" lon="2.0037">
        <ele>143</ele>
        <time>2010-05-13T10:01:28Z</time>
      </trkpt>
      <trkpt lat="48.70866" lon="2.00371">
        <ele>144</ele>
        <time>2010-05-13T10:01:30Z</time>
      </trkpt>
      <trkpt lat="48.70868" lon="2.00375">
        <ele>146</ele>
        <time>2010-05-13T10:01:32Z</time>
      </trkpt>
      <trkpt lat="48.7087" lon="2.00377">
        <ele>147</ele>
        <time>2010-05-13T10:01:33Z</time>
      </trkpt>
      <trkpt lat="48.70871" lon="2.00379">
        <ele>149</ele>
        <time>2010-05-13T10:01:34Z</time>
      </trkpt>
      <trkpt lat="48.70872" lon="2.00382">
        <ele>151</ele>
        <time>2010-05-13T10:01:35Z</time>
      </trkpt>
      <trkpt lat="48.70873" lon="2.00383">
        <ele>152</ele>
        <time>2010-05-13T10:01:36Z</time>
      </trkpt>
      <trkpt lat="48.70874" lon="2.00386">
        <ele>154</ele>
        <time>2010-05-13T10:01:37Z</time>
      </trkpt>
      <trkpt lat="48.70875" lon="2.00387">
        <ele>155</ele>
        <time>2010-05-13T10:01:38Z</time>
      </trkpt>
      <trkpt lat="48.70879" lon="2.00387">
        <ele>158</ele>
        <time>2010-05-13T10:01:40Z</time>
      </trkpt>
      <trkpt lat="48.70882" lon="2.00385">
        <ele>159</ele>
        <time>2010-05-13T10:01:43Z</time>
      </trkpt>
      <trkpt lat="48.70883" lon="2.00378">
        <ele>160</ele>
        <time>2010-05-13T10:01:44Z</time>
      </trkpt>
      <trkpt lat="48.70884" lon="2.00373">
        <ele>161</ele>
        <time>2010-05-13T10:01:45Z</time>
      </trkpt>
      <trkpt lat="48.70884" lon="2.00367">
        <ele>163</ele>
        <time>2010-05-13T10:01:47Z</time>
      </trkpt>
      <trkpt lat="48.70885" lon="2.00365">
        <ele>164</ele>
        <time>2010-05-13T10:01:48Z</time>
      </trkpt>
      <trkpt lat="48.70885" lon="2.00362">
        <ele>165</ele>
        <time>2010-05-13T10:01:49Z</time>
      </trkpt>
      <trkpt lat="48.70887" lon="2.0036">
        <ele>165</ele>
        <time>2010-05-13T10:01:50Z</time>
      </trkpt>
      <trkpt lat="48.70889" lon="2.00358">
        <ele>165</ele>
        <time>2010-05-13T10:01:51Z</time>
      </trkpt>
      <trkpt lat="48.70891" lon="2.00355">
        <ele>165</ele>
        <time>2010-05-13T10:01:52Z</time>
      </trkpt>
      <trkpt lat="48.70892" lon="2.00353">
        <ele>165</ele>
        <time>2010-05-13T10:01:53Z</time>
      </trkpt>
      <trkpt lat="48.70893" lon="2.00352">
        <ele>166</ele>
        <time>2010-05-13T10:01:54Z</time>
      </trkpt>
      <trkpt lat="48.70895" lon="2.0035">
        <ele>167</ele>
        <time>2010-05-13T10:01:55Z</time>
      </trkpt>
      <trkpt lat="48.70898" lon="2.00345">
        <ele>168</ele>
        <time>2010-05-13T10:01:58Z</time>
      </trkpt>
      <trkpt lat="48.70897" lon="2.00337">
        <ele>169</ele>
        <time>2010-05-13T10:02:00Z</time>
      </trkpt>
      <trkpt lat="48.70898" lon="2.00335">
        <ele>169</ele>
        <time>2010-05-13T10:02:01Z</time>
      </trkpt>
      <trkpt lat="48.709" lon="2.00332">
        <ele>169</ele>
        <time>2010-05-13T10:02:02Z</time>
      </trkpt>
      <trkpt lat="48.70901" lon="2.0033">
        <ele>169</ele>
        <time>2010-05-13T10:02:03Z</time>
      </trkpt>
      <trkpt lat="48.70905" lon="2.00315">
        <ele>169</ele>
        <time>2010-05-13T10:02:09Z</time>
      </trkpt>
      <trkpt lat="48.70907" lon="2.00308">
        <ele>168</ele>
        <time>2010-05-13T10:02:10Z</time>
      </trkpt>
      <trkpt lat="48.70907" lon="2.00305">
        <ele>167</ele>
        <time>2010-05-13T10:02:11Z</time>
      </trkpt>
      <trkpt lat="48.70909" lon="2.00303">
        <ele>166</ele>
        <time>2010-05-13T10:02:12Z</time>
      </trkpt>
      <trkpt lat="48.70909" lon="2.003">
        <ele>165</ele>
        <time>2010-05-13T10:02:13Z</time>
      </trkpt>
      <trkpt lat="48.70911" lon="2.00298">
        <ele>164</ele>
        <time>2010-05-13T10:02:14Z</time>
      </trkpt>
      <trkpt lat="48.70913" lon="2.00297">
        <ele>162</ele>
        <time>2010-05-13T10:02:16Z</time>
      </trkpt>
      <trkpt lat="48.70914" lon="2.00288">
        <ele>162</ele>
        <time>2010-05-13T10:02:21Z</time>
      </trkpt>
      <trkpt lat="48.70915" lon="2.00283">
        <ele>161</ele>
        <time>2010-05-13T10:02:22Z</time>
      </trkpt>
      <trkpt lat="48.70917" lon="2.00281">
        <ele>160</ele>
        <time>2010-05-13T10:02:23Z</time>
      </trkpt>
      <trkpt lat="48.70921" lon="2.00269">
        <ele>159</ele>
        <time>2010-05-13T10:02:31Z</time>
      </trkpt>
      <trkpt lat="48.70921" lon="2.00264">
        <ele>159</ele>
        <time>2010-05-13T10:02:32Z</time>
      </trkpt>
      <trkpt lat="48.70921" lon="2.00259">
        <ele>159</ele>
        <time>2010-05-13T10:02:34Z</time>
      </trkpt>
      <trkpt lat="48.70922" lon="2.00255">
        <ele>158</ele>
        <time>2010-05-13T10:02:35Z</time>
      </trkpt>
      <trkpt lat="48.70923" lon="2.00252">
        <ele>157</ele>
        <time>2010-05-13T10:02:36Z</time>
      </trkpt>
      <trkpt lat="48.70924" lon="2.00249">
        <ele>157</ele>
        <time>2010-05-13T10:02:37Z</time>
      </trkpt>
      <trkpt lat="48.70923" lon="2.00246">
        <ele>156</ele>
        <time>2010-05-13T10:02:38Z</time>
      </trkpt>
      <trkpt lat="48.70924" lon="2.00243">
        <ele>156</ele>
        <time>2010-05-13T10:02:39Z</time>
      </trkpt>
      <trkpt lat="48.70926" lon="2.00242">
        <ele>156</ele>
        <time>2010-05-13T10:02:40Z</time>
      </trkpt>
      <trkpt lat="48.70927" lon="2.0024">
        <ele>156</ele>
        <time>2010-05-13T10:02:41Z</time>
      </trkpt>
      <trkpt lat="48.70928" lon="2.00238">
        <ele>156</ele>
        <time>2010-05-13T10:02:42Z</time>
      </trkpt>
      <trkpt lat="48.70932" lon="2.00226">
        <ele>156</ele>
        <time>2010-05-13T10:02:48Z</time>
      </trkpt>
      <trkpt lat="48.70933" lon="2.00223">
        <ele>155</ele>
        <time>2010-05-13T10:02:49Z</time>
      </trkpt>
      <trkpt lat="48.70934" lon="2.0022">
        <ele>154</ele>
        <time>2010-05-13T10:02:50Z</time>
      </trkpt>
      <trkpt lat="48.70936" lon="2.00217">
        <ele>154</ele>
        <time>2010-05-13T10:02:52Z</time>
      </trkpt>
      <trkpt lat="48.70933" lon="2.00215">
        <ele>153</ele>
        <time>2010-05-13T10:02:54Z</time>
      </trkpt>
      <trkpt lat="48.70934" lon="2.0021">
        <ele>152</ele>
        <time>2010-05-13T10:02:55Z</time>
      </trkpt>
      <trkpt lat="48.70933" lon="2.00207">
        <ele>151</ele>
        <time>2010-05-13T10:02:56Z</time>
      </trkpt>
      <trkpt lat="48.70933" lon="2.00205">
        <ele>150</ele>
        <time>2010-05-13T10:02:57Z</time>
      </trkpt>
      <trkpt lat="48.70933" lon="2.00203">
        <ele>149</ele>
        <time>2010-05-13T10:02:58Z</time>
      </trkpt>
      <trkpt lat="48.70934" lon="2.00201">
        <ele>148</ele>
        <time>2010-05-13T10:02:59Z</time>
      </trkpt>
      <trkpt lat="48.70936" lon="2.002">
        <ele>147</ele>
        <time>2010-05-13T10:03:00Z</time>
      </trkpt>
      <trkpt lat="48.70937" lon="2.00199">
        <ele>146</ele>
        <time>2010-05-13T10:03:01Z</time>
      </trkpt>
      <trkpt lat="48.7094" lon="2.00195">
        <ele>145</ele>
        <time>2010-05-13T10:03:03Z</time>
      </trkpt>
      <trkpt lat="48.70945" lon="2.00185">
        <ele>144</ele>
        <time>2010-05-13T10:03:06Z</time>
      </trkpt>
      <trkpt lat="48.70947" lon="2.00182">
        <ele>143</ele>
        <time>2010-05-13T10:03:07Z</time>
      </trkpt>
      <trkpt lat="48.70949" lon="2.0018">
        <ele>142</ele>
        <time>2010-05-13T10:03:08Z</time>
      </trkpt>
      <trkpt lat="48.70949" lon="2.00178">
        <ele>141</ele>
        <time>2010-05-13T10:03:09Z</time>
      </trkpt>
      <trkpt lat="48.70949" lon="2.00175">
        <ele>139</ele>
        <time>2010-05-13T10:03:11Z</time>
      </trkpt>
      <trkpt lat="48.70948" lon="2.00172">
        <ele>138</ele>
        <time>2010-05-13T10:03:12Z</time>
      </trkpt>
      <trkpt lat="48.70947" lon="2.0017">
        <ele>138</ele>
        <time>2010-05-13T10:03:13Z</time>
      </trkpt>
      <trkpt lat="48.70946" lon="2.00167">
        <ele>137</ele>
        <time>2010-05-13T10:03:14Z</time>
      </trkpt>
      <trkpt lat="48.70947" lon="2.00164">
        <ele>136</ele>
        <time>2010-05-13T10:03:15Z</time>
      </trkpt>
      <trkpt lat="48.70945" lon="2.00161">
        <ele>135</ele>
        <time>2010-05-13T10:03:16Z</time>
      </trkpt>
      <trkpt lat="48.70944" lon="2.00159">
        <ele>134</ele>
        <time>2010-05-13T10:03:17Z</time>
      </trkpt>
      <trkpt lat="48.70943" lon="2.00158">
        <ele>133</ele>
        <time>2010-05-13T10:03:18Z</time>
      </trkpt>
      <trkpt lat="48.70941" lon="2.00158">
        <ele>130</ele>
        <time>2010-05-13T10:03:20Z</time>
      </trkpt>
      <trkpt lat="48.7094" lon="2.00159">
        <ele>129</ele>
        <time>2010-05-13T10:03:21Z</time>
      </trkpt>
      <trkpt lat="48.70938" lon="2.00159">
        <ele>128</ele>
        <time>2010-05-13T10:03:22Z</time>
      </trkpt>
      <trkpt lat="48.70936" lon="2.00159">
        <ele>126</ele>
        <time>2010-05-13T10:03:24Z</time>
      </trkpt>
      <trkpt lat="48.70934" lon="2.0016">
        <ele>125</ele>
        <time>2010-05-13T10:03:25Z</time>
      </trkpt>
      <trkpt lat="48.70932" lon="2.00161">
        <ele>124</ele>
        <time>2010-05-13T10:03:26Z</time>
      </trkpt>
      <trkpt lat="48.7093" lon="2.0016">
        <ele>123</ele>
        <time>2010-05-13T10:03:27Z</time>
      </trkpt>
      <trkpt lat="48.70929" lon="2.0016">
        <ele>122</ele>
        <time>2010-05-13T10:03:28Z</time>
      </trkpt>
      <trkpt lat="48.70927" lon="2.0016">
        <ele>121</ele>
        <time>2010-05-13T10:03:29Z</time>
      </trkpt>
      <trkpt lat="48.70925" lon="2.00159">
        <ele>120</ele>
        <time>2010-05-13T10:03:30Z</time>
      </trkpt>
      <trkpt lat="48.70924" lon="2.00158">
        <ele>119</ele>
        <time>2010-05-13T10:03:31Z</time>
      </trkpt>
      <trkpt lat="48.70922" lon="2.0016">
        <ele>118</ele>
        <time>2010-05-13T10:03:33Z</time>
      </trkpt>
      <trkpt lat="48.70921" lon="2.00161">
        <ele>118</ele>
        <time>2010-05-13T10:03:34Z</time>
      </trkpt>
      <trkpt lat="48.7092" lon="2.00161">
        <ele>117</ele>
        <time>2010-05-13T10:03:35Z</time>
      </trkpt>
      <trkpt lat="48.70918" lon="2.00162">
        <ele>117</ele>
        <time>2010-05-13T10:03:36Z</time>
      </trkpt>
      <trkpt lat="48.70916" lon="2.00161">
        <ele>116</ele>
        <time>2010-05-13T10:03:37Z</time>
      </trkpt>
      <trkpt lat="48.70914" lon="2.00161">
        <ele>115</ele>
        <time>2010-05-13T10:03:38Z</time>
      </trkpt>
      <trkpt lat="48.70912" lon="2.0016">
        <ele>114</ele>
        <time>2010-05-13T10:03:39Z</time>
      </trkpt>
      <trkpt lat="48.70911" lon="2.0016">
        <ele>113</ele>
        <time>2010-05-13T10:03:40Z</time>
      </trkpt>
      <trkpt lat="48.70909" lon="2.00161">
        <ele>112</ele>
        <time>2010-05-13T10:03:41Z</time>
      </trkpt>
      <trkpt lat="48.70907" lon="2.00161">
        <ele>111</ele>
        <time>2010-05-13T10:03:42Z</time>
      </trkpt>
      <trkpt lat="48.70906" lon="2.00161">
        <ele>110</ele>
        <time>2010-05-13T10:03:43Z</time>
      </trkpt>
      <trkpt lat="48.70898" lon="2.00157">
        <ele>109</ele>
        <time>2010-05-13T10:03:47Z</time>
      </trkpt>
      <trkpt lat="48.70895" lon="2.00154">
        <ele>108</ele>
        <time>2010-05-13T10:03:48Z</time>
      </trkpt>
      <trkpt lat="48.70893" lon="2.00156">
        <ele>107</ele>
        <time>2010-05-13T10:03:49Z</time>
      </trkpt>
      <trkpt lat="48.7089" lon="2.00155">
        <ele>106</ele>
        <time>2010-05-13T10:03:50Z</time>
      </trkpt>
      <trkpt lat="48.70888" lon="2.00154">
        <ele>105</ele>
        <time>2010-05-13T10:03:51Z</time>
      </trkpt>
      <trkpt lat="48.70888" lon="2.00152">
        <ele>104</ele>
        <time>2010-05-13T10:03:52Z</time>
      </trkpt>
      <trkpt lat="48.70886" lon="2.00151">
        <ele>102</ele>
        <time>2010-05-13T10:03:54Z</time>
      </trkpt>
      <trkpt lat="48.70885" lon="2.0015">
        <ele>101</ele>
        <time>2010-05-13T10:03:55Z</time>
      </trkpt>
      <trkpt lat="48.70884" lon="2.00148">
        <ele>101</ele>
        <time>2010-05-13T10:03:56Z</time>
      </trkpt>
      <trkpt lat="48.70882" lon="2.00146">
        <ele>100</ele>
        <time>2010-05-13T10:03:57Z</time>
      </trkpt>
      <trkpt lat="48.7088" lon="2.00146">
        <ele>100</ele>
        <time>2010-05-13T10:03:58Z</time>
      </trkpt>
      <trkpt lat="48.70879" lon="2.00145">
        <ele>100</ele>
        <time>2010-05-13T10:03:59Z</time>
      </trkpt>
      <trkpt lat="48.70878" lon="2.00142">
        <ele>99</ele>
        <time>2010-05-13T10:04:02Z</time>
      </trkpt>
      <trkpt lat="48.70879" lon="2.0014">
        <ele>99</ele>
        <time>2010-05-13T10:04:03Z</time>
      </trkpt>
      <trkpt lat="48.70879" lon="2.00126">
        <ele>98</ele>
        <time>2010-05-13T10:04:07Z</time>
      </trkpt>
      <trkpt lat="48.70879" lon="2.00122">
        <ele>97</ele>
        <time>2010-05-13T10:04:08Z</time>
      </trkpt>
      <trkpt lat="48.7088" lon="2.00121">
        <ele>96</ele>
        <time>2010-05-13T10:04:09Z</time>
      </trkpt>
      <trkpt lat="48.70879" lon="2.00117">
        <ele>95</ele>
        <time>2010-05-13T10:04:10Z</time>
      </trkpt>
      <trkpt lat="48.70881" lon="2.00114">
        <ele>94</ele>
        <time>2010-05-13T10:04:12Z</time>
      </trkpt>
      <trkpt lat="48.70887" lon="2.00091">
        <ele>108</ele>
        <time>2010-05-13T10:04:22Z</time>
      </trkpt>
      <trkpt lat="48.70887" lon="2.00089">
        <ele>109</ele>
        <time>2010-05-13T10:04:23Z</time>
      </trkpt>
      <trkpt lat="48.70891" lon="2.00082">
        <ele>110</ele>
        <time>2010-05-13T10:04:26Z</time>
      </trkpt>
      <trkpt lat="48.70894" lon="2.00075">
        <ele>111</ele>
        <time>2010-05-13T10:04:27Z</time>
      </trkpt>
      <trkpt lat="48.70896" lon="2.00073">
        <ele>112</ele>
        <time>2010-05-13T10:04:28Z</time>
      </trkpt>
      <trkpt lat="48.70898" lon="2.00071">
        <ele>113</ele>
        <time>2010-05-13T10:04:29Z</time>
      </trkpt>
      <trkpt lat="48.709" lon="2.0007">
        <ele>114</ele>
        <time>2010-05-13T10:04:30Z</time>
      </trkpt>
      <trkpt lat="48.70901" lon="2.00067">
        <ele>115</ele>
        <time>2010-05-13T10:04:31Z</time>
      </trkpt>
      <trkpt lat="48.70903" lon="2.00062">
        <ele>117</ele>
        <time>2010-05-13T10:04:34Z</time>
      </trkpt>
      <trkpt lat="48.70904" lon="2.0006">
        <ele>118</ele>
        <time>2010-05-13T10:04:35Z</time>
      </trkpt>
      <trkpt lat="48.70906" lon="2.00057">
        <ele>120</ele>
        <time>2010-05-13T10:04:36Z</time>
      </trkpt>
      <trkpt lat="48.70907" lon="2.00055">
        <ele>121</ele>
        <time>2010-05-13T10:04:37Z</time>
      </trkpt>
      <trkpt lat="48.70908" lon="2.00052">
        <ele>123</ele>
        <time>2010-05-13T10:04:38Z</time>
      </trkpt>
      <trkpt lat="48.7091" lon="2.0005">
        <ele>124</ele>
        <time>2010-05-13T10:04:39Z</time>
      </trkpt>
      <trkpt lat="48.70912" lon="2.00048">
        <ele>125</ele>
        <time>2010-05-13T10:04:40Z</time>
      </trkpt>
      <trkpt lat="48.70914" lon="2.00047">
        <ele>126</ele>
        <time>2010-05-13T10:04:41Z</time>
      </trkpt>
      <trkpt lat="48.70915" lon="2.00046">
        <ele>128</ele>
        <time>2010-05-13T10:04:42Z</time>
      </trkpt>
      <trkpt lat="48.70916" lon="2.00042">
        <ele>130</ele>
        <time>2010-05-13T10:04:44Z</time>
      </trkpt>
      <trkpt lat="48.70922" lon="2.00033">
        <ele>131</ele>
        <time>2010-05-13T10:04:47Z</time>
      </trkpt>
      <trkpt lat="48.70925" lon="2.00027">
        <ele>133</ele>
        <time>2010-05-13T10:04:48Z</time>
      </trkpt>
      <trkpt lat="48.70928" lon="2.00023">
        <ele>134</ele>
        <time>2010-05-13T10:04:49Z</time>
      </trkpt>
      <trkpt lat="48.70934" lon="2.00014">
        <ele>135</ele>
        <time>2010-05-13T10:04:52Z</time>
      </trkpt>
      <trkpt lat="48.70935" lon="2.0001">
        <ele>136</ele>
        <time>2010-05-13T10:04:53Z</time>
      </trkpt>
      <trkpt lat="48.70939" lon="2.00006">
        <ele>137</ele>
        <time>2010-05-13T10:04:54Z</time>
      </trkpt>
      <trkpt lat="48.70942" lon="2">
        <ele>138</ele>
        <time>2010-05-13T10:04:55Z</time>
      </trkpt>
      <trkpt lat="48.70944" lon="1.99995">
        <ele>139</ele>
        <time>2010-05-13T10:04:56Z</time>
      </trkpt>
      <trkpt lat="48.70947" lon="1.99989">
        <ele>140</ele>
        <time>2010-05-13T10:04:57Z</time>
      </trkpt>
      <trkpt lat="48.70949" lon="1.99984">
        <ele>141</ele>
        <time>2010-05-13T10:04:58Z</time>
      </trkpt>
      <trkpt lat="48.70951" lon="1.99979">
        <ele>142</ele>
        <time>2010-05-13T10:04:59Z</time>
      </trkpt>
      <trkpt lat="48.70953" lon="1.99975">
        <ele>143</ele>
        <time>2010-05-13T10:05:00Z</time>
      </trkpt>
      <trkpt lat="48.70957" lon="1.99971">
        <ele>144</ele>
        <time>2010-05-13T10:05:01Z</time>
      </trkpt>
      <trkpt lat="48.7096" lon="1.99966">
        <ele>145</ele>
        <time>2010-05-13T10:05:02Z</time>
      </trkpt>
      <trkpt lat="48.70963" lon="1.99962">
        <ele>145</ele>
        <time>2010-05-13T10:05:03Z</time>
      </trkpt>
      <trkpt lat="48.70967" lon="1.99957">
        <ele>145</ele>
        <time>2010-05-13T10:05:04Z</time>
      </trkpt>
      <trkpt lat="48.70971" lon="1.9995">
        <ele>146</ele>
        <time>2010-05-13T10:05:05Z</time>
      </trkpt>
      <trkpt lat="48.70974" lon="1.99944">
        <ele>146</ele>
        <time>2010-05-13T10:05:06Z</time>
      </trkpt>
      <trkpt lat="48.70985" lon="1.9993">
        <ele>146</ele>
        <time>2010-05-13T10:05:09Z</time>
      </trkpt>
      <trkpt lat="48.70991" lon="1.99922">
        <ele>146</ele>
        <time>2010-05-13T10:05:10Z</time>
      </trkpt>
      <trkpt lat="48.70996" lon="1.99918">
        <ele>146</ele>
        <time>2010-05-13T10:05:11Z</time>
      </trkpt>
      <trkpt lat="48.70999" lon="1.99914">
        <ele>147</ele>
        <time>2010-05-13T10:05:12Z</time>
      </trkpt>
      <trkpt lat="48.71002" lon="1.99909">
        <ele>147</ele>
        <time>2010-05-13T10:05:13Z</time>
      </trkpt>
      <trkpt lat="48.71004" lon="1.99903">
        <ele>147</ele>
        <time>2010-05-13T10:05:14Z</time>
      </trkpt>
      <trkpt lat="48.71013" lon="1.9989">
        <ele>147</ele>
        <time>2010-05-13T10:05:17Z</time>
      </trkpt>
      <trkpt lat="48.71018" lon="1.99883">
        <ele>148</ele>
        <time>2010-05-13T10:05:18Z</time>
      </trkpt>
      <trkpt lat="48.71019" lon="1.99877">
        <ele>148</ele>
        <time>2010-05-13T10:05:19Z</time>
      </trkpt>
      <trkpt lat="48.71023" lon="1.9987">
        <ele>148</ele>
        <time>2010-05-13T10:05:21Z</time>
      </trkpt>
      <trkpt lat="48.71025" lon="1.99864">
        <ele>148</ele>
        <time>2010-05-13T10:05:22Z</time>
      </trkpt>
      <trkpt lat="48.71029" lon="1.99855">
        <ele>148</ele>
        <time>2010-05-13T10:05:23Z</time>
      </trkpt>
      <trkpt lat="48.71032" lon="1.99851">
        <ele>148</ele>
        <time>2010-05-13T10:05:24Z</time>
      </trkpt>
      <trkpt lat="48.7104" lon="1.99836">
        <ele>148</ele>
        <time>2010-05-13T10:05:27Z</time>
      </trkpt>
      <trkpt lat="48.71052" lon="1.99813">
        <ele>148</ele>
        <time>2010-05-13T10:05:30Z</time>
      </trkpt>
      <trkpt lat="48.71056" lon="1.99804">
        <ele>148</ele>
        <time>2010-05-13T10:05:31Z</time>
      </trkpt>
      <trkpt lat="48.71061" lon="1.99797">
        <ele>148</ele>
        <time>2010-05-13T10:05:32Z</time>
      </trkpt>
      <trkpt lat="48.71062" lon="1.99791">
        <ele>148</ele>
        <time>2010-05-13T10:05:33Z</time>
      </trkpt>
      <trkpt lat="48.71065" lon="1.99786">
        <ele>148</ele>
        <time>2010-05-13T10:05:34Z</time>
      </trkpt>
      <trkpt lat="48.71069" lon="1.9978">
        <ele>148</ele>
        <time>2010-05-13T10:05:35Z</time>
      </trkpt>
      <trkpt lat="48.71071" lon="1.99777">
        <ele>149</ele>
        <time>2010-05-13T10:05:36Z</time>
      </trkpt>
      <trkpt lat="48.71073" lon="1.99774">
        <ele>150</ele>
        <time>2010-05-13T10:05:37Z</time>
      </trkpt>
      <trkpt lat="48.71074" lon="1.9977">
        <ele>150</ele>
        <time>2010-05-13T10:05:38Z</time>
      </trkpt>
      <trkpt lat="48.71079" lon="1.99757">
        <ele>151</ele>
        <time>2010-05-13T10:05:41Z</time>
      </trkpt>
      <trkpt lat="48.71081" lon="1.99752">
        <ele>151</ele>
        <time>2010-05-13T10:05:42Z</time>
      </trkpt>
      <trkpt lat="48.71089" lon="1.99739">
        <ele>151</ele>
        <time>2010-05-13T10:05:45Z</time>
      </trkpt>
      <trkpt lat="48.7109" lon="1.99734">
        <ele>151</ele>
        <time>2010-05-13T10:05:46Z</time>
      </trkpt>
      <trkpt lat="48.7109" lon="1.99728">
        <ele>151</ele>
        <time>2010-05-13T10:05:47Z</time>
      </trkpt>
      <trkpt lat="48.71093" lon="1.99722">
        <ele>152</ele>
        <time>2010-05-13T10:05:48Z</time>
      </trkpt>
      <trkpt lat="48.71103" lon="1.99715">
        <ele>152</ele>
        <time>2010-05-13T10:05:51Z</time>
      </trkpt>
      <trkpt lat="48.71163" lon="1.99653">
        <ele>153</ele>
        <time>2010-05-13T10:06:03Z</time>
      </trkpt>
      <trkpt lat="48.71166" lon="1.99647">
        <ele>153</ele>
        <time>2010-05-13T10:06:04Z</time>
      </trkpt>
      <trkpt lat="48.71168" lon="1.99641">
        <ele>153</ele>
        <time>2010-05-13T10:06:05Z</time>
      </trkpt>
      <trkpt lat="48.7117" lon="1.99637">
        <ele>153</ele>
        <time>2010-05-13T10:06:06Z</time>
      </trkpt>
      <trkpt lat="48.71173" lon="1.9963">
        <ele>153</ele>
        <time>2010-05-13T10:06:08Z</time>
      </trkpt>
      <trkpt lat="48.71178" lon="1.99626">
        <ele>153</ele>
        <time>2010-05-13T10:06:09Z</time>
      </trkpt>
      <trkpt lat="48.71186" lon="1.99621">
        <ele>153</ele>
        <time>2010-05-13T10:06:10Z</time>
      </trkpt>
      <trkpt lat="48.71189" lon="1.99617">
        <ele>153</ele>
        <time>2010-05-13T10:06:11Z</time>
      </trkpt>
      <trkpt lat="48.7119" lon="1.99614">
        <ele>153</ele>
        <time>2010-05-13T10:06:12Z</time>
      </trkpt>
      <trkpt lat="48.71191" lon="1.99609">
        <ele>153</ele>
        <time>2010-05-13T10:06:13Z</time>
      </trkpt>
      <trkpt lat="48.71194" lon="1.99603">
        <ele>153</ele>
        <time>2010-05-13T10:06:14Z</time>
      </trkpt>
      <trkpt lat="48.71197" lon="1.99599">
        <ele>153</ele>
        <time>2010-05-13T10:06:15Z</time>
      </trkpt>
      <trkpt lat="48.71198" lon="1.99595">
        <ele>153</ele>
        <time>2010-05-13T10:06:16Z</time>
      </trkpt>
      <trkpt lat="48.712" lon="1.99591">
        <ele>153</ele>
        <time>2010-05-13T10:06:17Z</time>
      </trkpt>
      <trkpt lat="48.71202" lon="1.99587">
        <ele>153</ele>
        <time>2010-05-13T10:06:18Z</time>
      </trkpt>
      <trkpt lat="48.71204" lon="1.99584">
        <ele>153</ele>
        <time>2010-05-13T10:06:19Z</time>
      </trkpt>
      <trkpt lat="48.71205" lon="1.99579">
        <ele>153</ele>
        <time>2010-05-13T10:06:20Z</time>
      </trkpt>
      <trkpt lat="48.71208" lon="1.99575">
        <ele>153</ele>
        <time>2010-05-13T10:06:21Z</time>
      </trkpt>
      <trkpt lat="48.7121" lon="1.9957">
        <ele>153</ele>
        <time>2010-05-13T10:06:22Z</time>
      </trkpt>
      <trkpt lat="48.71213" lon="1.99566">
        <ele>153</ele>
        <time>2010-05-13T10:06:23Z</time>
      </trkpt>
      <trkpt lat="48.71214" lon="1.99562">
        <ele>153</ele>
        <time>2010-05-13T10:06:24Z</time>
      </trkpt>
      <trkpt lat="48.71215" lon="1.99557">
        <ele>153</ele>
        <time>2010-05-13T10:06:25Z</time>
      </trkpt>
      <trkpt lat="48.71219" lon="1.99554">
        <ele>153</ele>
        <time>2010-05-13T10:06:26Z</time>
      </trkpt>
      <trkpt lat="48.71225" lon="1.99552">
        <ele>153</ele>
        <time>2010-05-13T10:06:27Z</time>
      </trkpt>
      <trkpt lat="48.7123" lon="1.99548">
        <ele>153</ele>
        <time>2010-05-13T10:06:28Z</time>
      </trkpt>
      <trkpt lat="48.71234" lon="1.99544">
        <ele>153</ele>
        <time>2010-05-13T10:06:29Z</time>
      </trkpt>
      <trkpt lat="48.71237" lon="1.99541">
        <ele>153</ele>
        <time>2010-05-13T10:06:30Z</time>
      </trkpt>
      <trkpt lat="48.71241" lon="1.99537">
        <ele>153</ele>
        <time>2010-05-13T10:06:31Z</time>
      </trkpt>
      <trkpt lat="48.71245" lon="1.99534">
        <ele>153</ele>
        <time>2010-05-13T10:06:32Z</time>
      </trkpt>
      <trkpt lat="48.71247" lon="1.99532">
        <ele>153</ele>
        <time>2010-05-13T10:06:33Z</time>
      </trkpt>
      <trkpt lat="48.71253" lon="1.99527">
        <ele>153</ele>
        <time>2010-05-13T10:06:35Z</time>
      </trkpt>
      <trkpt lat="48.71259" lon="1.99523">
        <ele>153</ele>
        <time>2010-05-13T10:06:36Z</time>
      </trkpt>
      <trkpt lat="48.71264" lon="1.99521">
        <ele>153</ele>
        <time>2010-05-13T10:06:37Z</time>
      </trkpt>
      <trkpt lat="48.71267" lon="1.99517">
        <ele>153</ele>
        <time>2010-05-13T10:06:38Z</time>
      </trkpt>
      <trkpt lat="48.71269" lon="1.99513">
        <ele>153</ele>
        <time>2010-05-13T10:06:39Z</time>
      </trkpt>
      <trkpt lat="48.71272" lon="1.99511">
        <ele>153</ele>
        <time>2010-05-13T10:06:40Z</time>
      </trkpt>
      <trkpt lat="48.71275" lon="1.99508">
        <ele>152</ele>
        <time>2010-05-13T10:06:41Z</time>
      </trkpt>
      <trkpt lat="48.71279" lon="1.99506">
        <ele>151</ele>
        <time>2010-05-13T10:06:42Z</time>
      </trkpt>
      <trkpt lat="48.71283" lon="1.99504">
        <ele>150</ele>
        <time>2010-05-13T10:06:43Z</time>
      </trkpt>
      <trkpt lat="48.71287" lon="1.99501">
        <ele>149</ele>
        <time>2010-05-13T10:06:44Z</time>
      </trkpt>
      <trkpt lat="48.71293" lon="1.99499">
        <ele>148</ele>
        <time>2010-05-13T10:06:45Z</time>
      </trkpt>
      <trkpt lat="48.71298" lon="1.99496">
        <ele>147</ele>
        <time>2010-05-13T10:06:46Z</time>
      </trkpt>
      <trkpt lat="48.71305" lon="1.99495">
        <ele>146</ele>
        <time>2010-05-13T10:06:47Z</time>
      </trkpt>
      <trkpt lat="48.71311" lon="1.99493">
        <ele>146</ele>
        <time>2010-05-13T10:06:48Z</time>
      </trkpt>
      <trkpt lat="48.71316" lon="1.99491">
        <ele>146</ele>
        <time>2010-05-13T10:06:49Z</time>
      </trkpt>
      <trkpt lat="48.71319" lon="1.99489">
        <ele>146</ele>
        <time>2010-05-13T10:06:50Z</time>
      </trkpt>
      <trkpt lat="48.71323" lon="1.99488">
        <ele>146</ele>
        <time>2010-05-13T10:06:51Z</time>
      </trkpt>
      <trkpt lat="48.71326" lon="1.99487">
        <ele>146</ele>
        <time>2010-05-13T10:06:52Z</time>
      </trkpt>
      <trkpt lat="48.71328" lon="1.99484">
        <ele>147</ele>
        <time>2010-05-13T10:06:53Z</time>
      </trkpt>
      <trkpt lat="48.71331" lon="1.99482">
        <ele>147</ele>
        <time>2010-05-13T10:06:54Z</time>
      </trkpt>
      <trkpt lat="48.71334" lon="1.99481">
        <ele>147</ele>
        <time>2010-05-13T10:06:55Z</time>
      </trkpt>
      <trkpt lat="48.71343" lon="1.99477">
        <ele>147</ele>
        <time>2010-05-13T10:06:57Z</time>
      </trkpt>
      <trkpt lat="48.71347" lon="1.99473">
        <ele>147</ele>
        <time>2010-05-13T10:06:58Z</time>
      </trkpt>
      <trkpt lat="48.71349" lon="1.99469">
        <ele>147</ele>
        <time>2010-05-13T10:06:59Z</time>
      </trkpt>
      <trkpt lat="48.71352" lon="1.99466">
        <ele>147</ele>
        <time>2010-05-13T10:07:00Z</time>
      </trkpt>
      <trkpt lat="48.71354" lon="1.99463">
        <ele>147</ele>
        <time>2010-05-13T10:07:01Z</time>
      </trkpt>
      <trkpt lat="48.71356" lon="1.99461">
        <ele>146</ele>
        <time>2010-05-13T10:07:02Z</time>
      </trkpt>
      <trkpt lat="48.71359" lon="1.99457">
        <ele>145</ele>
        <time>2010-05-13T10:07:03Z</time>
      </trkpt>
      <trkpt lat="48.71362" lon="1.99455">
        <ele>144</ele>
        <time>2010-05-13T10:07:04Z</time>
      </trkpt>
      <trkpt lat="48.71366" lon="1.99453">
        <ele>143</ele>
        <time>2010-05-13T10:07:05Z</time>
      </trkpt>
      <trkpt lat="48.71368" lon="1.9945">
        <ele>142</ele>
        <time>2010-05-13T10:07:06Z</time>
      </trkpt>
      <trkpt lat="48.71371" lon="1.99448">
        <ele>141</ele>
        <time>2010-05-13T10:07:07Z</time>
      </trkpt>
      <trkpt lat="48.71373" lon="1.99447">
        <ele>140</ele>
        <time>2010-05-13T10:07:08Z</time>
      </trkpt>
      <trkpt lat="48.71375" lon="1.99447">
        <ele>139</ele>
        <time>2010-05-13T10:07:09Z</time>
      </trkpt>
      <trkpt lat="48.71377" lon="1.99445">
        <ele>138</ele>
        <time>2010-05-13T10:07:10Z</time>
      </trkpt>
      <trkpt lat="48.71379" lon="1.99442">
        <ele>137</ele>
        <time>2010-05-13T10:07:11Z</time>
      </trkpt>
      <trkpt lat="48.71381" lon="1.9944">
        <ele>136</ele>
        <time>2010-05-13T10:07:12Z</time>
      </trkpt>
      <trkpt lat="48.71383" lon="1.99439">
        <ele>135</ele>
        <time>2010-05-13T10:07:13Z</time>
      </trkpt>
      <trkpt lat="48.71384" lon="1.99437">
        <ele>134</ele>
        <time>2010-05-13T10:07:14Z</time>
      </trkpt>
      <trkpt lat="48.71386" lon="1.99435">
        <ele>133</ele>
        <time>2010-05-13T10:07:16Z</time>
      </trkpt>
      <trkpt lat="48.71391" lon="1.99433">
        <ele>132</ele>
        <time>2010-05-13T10:07:20Z</time>
      </trkpt>
      <trkpt lat="48.71394" lon="1.99429">
        <ele>132</ele>
        <time>2010-05-13T10:07:21Z</time>
      </trkpt>
      <trkpt lat="48.71396" lon="1.99425">
        <ele>132</ele>
        <time>2010-05-13T10:07:22Z</time>
      </trkpt>
      <trkpt lat="48.71398" lon="1.99424">
        <ele>132</ele>
        <time>2010-05-13T10:07:23Z</time>
      </trkpt>
      <trkpt lat="48.71401" lon="1.99422">
        <ele>132</ele>
        <time>2010-05-13T10:07:24Z</time>
      </trkpt>
      <trkpt lat="48.71404" lon="1.99421">
        <ele>132</ele>
        <time>2010-05-13T10:07:25Z</time>
      </trkpt>
      <trkpt lat="48.71406" lon="1.99421">
        <ele>132</ele>
        <time>2010-05-13T10:07:26Z</time>
      </trkpt>
      <trkpt lat="48.71409" lon="1.99421">
        <ele>132</ele>
        <time>2010-05-13T10:07:27Z</time>
      </trkpt>
      <trkpt lat="48.71413" lon="1.99419">
        <ele>132</ele>
        <time>2010-05-13T10:07:28Z</time>
      </trkpt>
      <trkpt lat="48.71415" lon="1.99419">
        <ele>132</ele>
        <time>2010-05-13T10:07:29Z</time>
      </trkpt>
      <trkpt lat="48.71417" lon="1.99418">
        <ele>133</ele>
        <time>2010-05-13T10:07:30Z</time>
      </trkpt>
      <trkpt lat="48.7142" lon="1.99418">
        <ele>133</ele>
        <time>2010-05-13T10:07:31Z</time>
      </trkpt>
      <trkpt lat="48.71422" lon="1.99417">
        <ele>134</ele>
        <time>2010-05-13T10:07:32Z</time>
      </trkpt>
      <trkpt lat="48.71425" lon="1.99417">
        <ele>134</ele>
        <time>2010-05-13T10:07:33Z</time>
      </trkpt>
      <trkpt lat="48.71428" lon="1.99416">
        <ele>134</ele>
        <time>2010-05-13T10:07:34Z</time>
      </trkpt>
      <trkpt lat="48.71432" lon="1.99415">
        <ele>135</ele>
        <time>2010-05-13T10:07:35Z</time>
      </trkpt>
      <trkpt lat="48.71435" lon="1.99414">
        <ele>135</ele>
        <time>2010-05-13T10:07:36Z</time>
      </trkpt>
      <trkpt lat="48.71437" lon="1.99414">
        <ele>136</ele>
        <time>2010-05-13T10:07:37Z</time>
      </trkpt>
      <trkpt lat="48.71443" lon="1.99413">
        <ele>137</ele>
        <time>2010-05-13T10:07:38Z</time>
      </trkpt>
      <trkpt lat="48.71446" lon="1.99412">
        <ele>138</ele>
        <time>2010-05-13T10:07:39Z</time>
      </trkpt>
      <trkpt lat="48.7145" lon="1.9941">
        <ele>139</ele>
        <time>2010-05-13T10:07:40Z</time>
      </trkpt>
      <trkpt lat="48.71456" lon="1.99409">
        <ele>140</ele>
        <time>2010-05-13T10:07:41Z</time>
      </trkpt>
      <trkpt lat="48.71459" lon="1.99408">
        <ele>141</ele>
        <time>2010-05-13T10:07:42Z</time>
      </trkpt>
      <trkpt lat="48.71462" lon="1.99408">
        <ele>142</ele>
        <time>2010-05-13T10:07:43Z</time>
      </trkpt>
      <trkpt lat="48.71465" lon="1.99407">
        <ele>143</ele>
        <time>2010-05-13T10:07:44Z</time>
      </trkpt>
      <trkpt lat="48.71466" lon="1.99406">
        <ele>144</ele>
        <time>2010-05-13T10:07:45Z</time>
      </trkpt>
      <trkpt lat="48.71469" lon="1.99405">
        <ele>145</ele>
        <time>2010-05-13T10:07:46Z</time>
      </trkpt>
      <trkpt lat="48.71472" lon="1.99403">
        <ele>146</ele>
        <time>2010-05-13T10:07:47Z</time>
      </trkpt>
      <trkpt lat="48.71474" lon="1.99402">
        <ele>147</ele>
        <time>2010-05-13T10:07:48Z</time>
      </trkpt>
      <trkpt lat="48.71477" lon="1.99401">
        <ele>148</ele>
        <time>2010-05-13T10:07:49Z</time>
      </trkpt>
      <trkpt lat="48.7148" lon="1.99401">
        <ele>148</ele>
        <time>2010-05-13T10:07:50Z</time>
      </trkpt>
      <trkpt lat="48.71481" lon="1.994">
        <ele>148</ele>
        <time>2010-05-13T10:07:51Z</time>
      </trkpt>
      <trkpt lat="48.71482" lon="1.994">
        <ele>149</ele>
        <time>2010-05-13T10:07:52Z</time>
      </trkpt>
      <trkpt lat="48.71484" lon="1.99399">
        <ele>149</ele>
        <time>2010-05-13T10:07:53Z</time>
      </trkpt>
      <trkpt lat="48.71485" lon="1.99399">
        <ele>149</ele>
        <time>2010-05-13T10:07:54Z</time>
      </trkpt>
      <trkpt lat="48.71487" lon="1.99398">
        <ele>150</ele>
        <time>2010-05-13T10:07:55Z</time>
      </trkpt>
      <trkpt lat="48.71488" lon="1.99396">
        <ele>150</ele>
        <time>2010-05-13T10:07:56Z</time>
      </trkpt>
      <trkpt lat="48.71489" lon="1.99394">
        <ele>150</ele>
        <time>2010-05-13T10:07:57Z</time>
      </trkpt>
      <trkpt lat="48.7149" lon="1.99393">
        <ele>150</ele>
        <time>2010-05-13T10:07:58Z</time>
      </trkpt>
      <trkpt lat="48.71491" lon="1.99391">
        <ele>150</ele>
        <time>2010-05-13T10:07:59Z</time>
      </trkpt>
      <trkpt lat="48.71491" lon="1.99388">
        <ele>150</ele>
        <time>2010-05-13T10:08:01Z</time>
      </trkpt>
      <trkpt lat="48.71491" lon="1.99386">
        <ele>150</ele>
        <time>2010-05-13T10:08:03Z</time>
      </trkpt>
      <trkpt lat="48.71493" lon="1.99384">
        <ele>150</ele>
        <time>2010-05-13T10:08:06Z</time>
      </trkpt>
      <trkpt lat="48.71494" lon="1.99383">
        <ele>151</ele>
        <time>2010-05-13T10:08:09Z</time>
      </trkpt>
      <trkpt lat="48.71493" lon="1.99382">
        <ele>156</ele>
        <time>2010-05-13T10:08:18Z</time>
      </trkpt>
      <trkpt lat="48.71491" lon="1.99383">
        <ele>158</ele>
        <time>2010-05-13T10:08:27Z</time>
      </trkpt>
      <trkpt lat="48.7149" lon="1.99384">
        <ele>158</ele>
        <time>2010-05-13T10:08:31Z</time>
      </trkpt>
      <trkpt lat="48.71488" lon="1.99384">
        <ele>159</ele>
        <time>2010-05-13T10:08:33Z</time>
      </trkpt>
      <trkpt lat="48.71489" lon="1.99383">
        <ele>162</ele>
        <time>2010-05-13T10:08:42Z</time>
      </trkpt>
      <trkpt lat="48.71489" lon="1.9938">
        <ele>162</ele>
        <time>2010-05-13T10:08:43Z</time>
      </trkpt>
      <trkpt lat="48.7149" lon="1.99378">
        <ele>162</ele>
        <time>2010-05-13T10:08:44Z</time>
      </trkpt>
      <trkpt lat="48.7149" lon="1.99376">
        <ele>162</ele>
        <time>2010-05-13T10:08:45Z</time>
      </trkpt>
      <trkpt lat="48.7149" lon="1.99372">
        <ele>162</ele>
        <time>2010-05-13T10:08:46Z</time>
      </trkpt>
      <trkpt lat="48.71491" lon="1.99369">
        <ele>161</ele>
        <time>2010-05-13T10:08:47Z</time>
      </trkpt>
      <trkpt lat="48.71491" lon="1.99366">
        <ele>160</ele>
        <time>2010-05-13T10:08:48Z</time>
      </trkpt>
      <trkpt lat="48.71493" lon="1.99362">
        <ele>159</ele>
        <time>2010-05-13T10:08:49Z</time>
      </trkpt>
      <trkpt lat="48.71493" lon="1.9936">
        <ele>158</ele>
        <time>2010-05-13T10:08:50Z</time>
      </trkpt>
      <trkpt lat="48.71494" lon="1.99357">
        <ele>157</ele>
        <time>2010-05-13T10:08:51Z</time>
      </trkpt>
      <trkpt lat="48.71495" lon="1.99354">
        <ele>156</ele>
        <time>2010-05-13T10:08:52Z</time>
      </trkpt>
      <trkpt lat="48.71495" lon="1.99351">
        <ele>155</ele>
        <time>2010-05-13T10:08:53Z</time>
      </trkpt>
      <trkpt lat="48.71496" lon="1.99347">
        <ele>155</ele>
        <time>2010-05-13T10:08:54Z</time>
      </trkpt>
      <trkpt lat="48.71497" lon="1.99344">
        <ele>154</ele>
        <time>2010-05-13T10:08:55Z</time>
      </trkpt>
      <trkpt lat="48.71498" lon="1.99342">
        <ele>153</ele>
        <time>2010-05-13T10:08:56Z</time>
      </trkpt>
      <trkpt lat="48.71499" lon="1.99339">
        <ele>152</ele>
        <time>2010-05-13T10:08:57Z</time>
      </trkpt>
      <trkpt lat="48.71499" lon="1.99336">
        <ele>151</ele>
        <time>2010-05-13T10:08:58Z</time>
      </trkpt>
      <trkpt lat="48.715" lon="1.99333">
        <ele>150</ele>
        <time>2010-05-13T10:08:59Z</time>
      </trkpt>
      <trkpt lat="48.71501" lon="1.99331">
        <ele>149</ele>
        <time>2010-05-13T10:09:00Z</time>
      </trkpt>
      <trkpt lat="48.71502" lon="1.99328">
        <ele>148</ele>
        <time>2010-05-13T10:09:01Z</time>
      </trkpt>
      <trkpt lat="48.71503" lon="1.99326">
        <ele>148</ele>
        <time>2010-05-13T10:09:02Z</time>
      </trkpt>
      <trkpt lat="48.71504" lon="1.99324">
        <ele>148</ele>
        <time>2010-05-13T10:09:03Z</time>
      </trkpt>
      <trkpt lat="48.71504" lon="1.99321">
        <ele>148</ele>
        <time>2010-05-13T10:09:04Z</time>
      </trkpt>
      <trkpt lat="48.71505" lon="1.9932">
        <ele>148</ele>
        <time>2010-05-13T10:09:05Z</time>
      </trkpt>
      <trkpt lat="48.71505" lon="1.99317">
        <ele>148</ele>
        <time>2010-05-13T10:09:06Z</time>
      </trkpt>
      <trkpt lat="48.71506" lon="1.99315">
        <ele>148</ele>
        <time>2010-05-13T10:09:07Z</time>
      </trkpt>
      <trkpt lat="48.71506" lon="1.99313">
        <ele>148</ele>
        <time>2010-05-13T10:09:08Z</time>
      </trkpt>
      <trkpt lat="48.71506" lon="1.99311">
        <ele>148</ele>
        <time>2010-05-13T10:09:09Z</time>
      </trkpt>
      <trkpt lat="48.71506" lon="1.99309">
        <ele>148</ele>
        <time>2010-05-13T10:09:10Z</time>
      </trkpt>
      <trkpt lat="48.71506" lon="1.99307">
        <ele>148</ele>
        <time>2010-05-13T10:09:11Z</time>
      </trkpt>
      <trkpt lat="48.71507" lon="1.99305">
        <ele>148</ele>
        <time>2010-05-13T10:09:12Z</time>
      </trkpt>
      <trkpt lat="48.71507" lon="1.99302">
        <ele>148</ele>
        <time>2010-05-13T10:09:13Z</time>
      </trkpt>
      <trkpt lat="48.71507" lon="1.99299">
        <ele>148</ele>
        <time>2010-05-13T10:09:14Z</time>
      </trkpt>
      <trkpt lat="48.71508" lon="1.99296">
        <ele>148</ele>
        <time>2010-05-13T10:09:15Z</time>
      </trkpt>
      <trkpt lat="48.71508" lon="1.99294">
        <ele>148</ele>
        <time>2010-05-13T10:09:16Z</time>
      </trkpt>
      <trkpt lat="48.71509" lon="1.99292">
        <ele>148</ele>
        <time>2010-05-13T10:09:17Z</time>
      </trkpt>
      <trkpt lat="48.7151" lon="1.9929">
        <ele>148</ele>
        <time>2010-05-13T10:09:18Z</time>
      </trkpt>
      <trkpt lat="48.7151" lon="1.99288">
        <ele>148</ele>
        <time>2010-05-13T10:09:19Z</time>
      </trkpt>
      <trkpt lat="48.71511" lon="1.99285">
        <ele>148</ele>
        <time>2010-05-13T10:09:20Z</time>
      </trkpt>
      <trkpt lat="48.71512" lon="1.99282">
        <ele>148</ele>
        <time>2010-05-13T10:09:21Z</time>
      </trkpt>
      <trkpt lat="48.71512" lon="1.9928">
        <ele>148</ele>
        <time>2010-05-13T10:09:22Z</time>
      </trkpt>
      <trkpt lat="48.71513" lon="1.99278">
        <ele>148</ele>
        <time>2010-05-13T10:09:23Z</time>
      </trkpt>
      <trkpt lat="48.71514" lon="1.99276">
        <ele>148</ele>
        <time>2010-05-13T10:09:24Z</time>
      </trkpt>
      <trkpt lat="48.71514" lon="1.99275">
        <ele>148</ele>
        <time>2010-05-13T10:09:25Z</time>
      </trkpt>
      <trkpt lat="48.71515" lon="1.99271">
        <ele>147</ele>
        <time>2010-05-13T10:09:27Z</time>
      </trkpt>
      <trkpt lat="48.71515" lon="1.99269">
        <ele>146</ele>
        <time>2010-05-13T10:09:28Z</time>
      </trkpt>
      <trkpt lat="48.71516" lon="1.99266">
        <ele>146</ele>
        <time>2010-05-13T10:09:29Z</time>
      </trkpt>
      <trkpt lat="48.71516" lon="1.99264">
        <ele>146</ele>
        <time>2010-05-13T10:09:30Z</time>
      </trkpt>
      <trkpt lat="48.71517" lon="1.99261">
        <ele>145</ele>
        <time>2010-05-13T10:09:31Z</time>
      </trkpt>
      <trkpt lat="48.71517" lon="1.99258">
        <ele>144</ele>
        <time>2010-05-13T10:09:32Z</time>
      </trkpt>
      <trkpt lat="48.71518" lon="1.99255">
        <ele>143</ele>
        <time>2010-05-13T10:09:34Z</time>
      </trkpt>
      <trkpt lat="48.71519" lon="1.99253">
        <ele>142</ele>
        <time>2010-05-13T10:09:35Z</time>
      </trkpt>
      <trkpt lat="48.71521" lon="1.9925">
        <ele>142</ele>
        <time>2010-05-13T10:09:36Z</time>
      </trkpt>
      <trkpt lat="48.71522" lon="1.99247">
        <ele>142</ele>
        <time>2010-05-13T10:09:37Z</time>
      </trkpt>
      <trkpt lat="48.71524" lon="1.99245">
        <ele>142</ele>
        <time>2010-05-13T10:09:38Z</time>
      </trkpt>
      <trkpt lat="48.71525" lon="1.99243">
        <ele>142</ele>
        <time>2010-05-13T10:09:39Z</time>
      </trkpt>
      <trkpt lat="48.71527" lon="1.99241">
        <ele>142</ele>
        <time>2010-05-13T10:09:40Z</time>
      </trkpt>
      <trkpt lat="48.71528" lon="1.99239">
        <ele>142</ele>
        <time>2010-05-13T10:09:41Z</time>
      </trkpt>
      <trkpt lat="48.71529" lon="1.99237">
        <ele>142</ele>
        <time>2010-05-13T10:09:42Z</time>
      </trkpt>
      <trkpt lat="48.7153" lon="1.99235">
        <ele>141</ele>
        <time>2010-05-13T10:09:43Z</time>
      </trkpt>
      <trkpt lat="48.71531" lon="1.99232">
        <ele>140</ele>
        <time>2010-05-13T10:09:44Z</time>
      </trkpt>
      <trkpt lat="48.71532" lon="1.99231">
        <ele>140</ele>
        <time>2010-05-13T10:09:45Z</time>
      </trkpt>
      <trkpt lat="48.71533" lon="1.99229">
        <ele>139</ele>
        <time>2010-05-13T10:09:46Z</time>
      </trkpt>
      <trkpt lat="48.71534" lon="1.99227">
        <ele>139</ele>
        <time>2010-05-13T10:09:47Z</time>
      </trkpt>
      <trkpt lat="48.71534" lon="1.99225">
        <ele>139</ele>
        <time>2010-05-13T10:09:48Z</time>
      </trkpt>
      <trkpt lat="48.71536" lon="1.99222">
        <ele>139</ele>
        <time>2010-05-13T10:09:49Z</time>
      </trkpt>
      <trkpt lat="48.71537" lon="1.99219">
        <ele>139</ele>
        <time>2010-05-13T10:09:50Z</time>
      </trkpt>
      <trkpt lat="48.71538" lon="1.99216">
        <ele>139</ele>
        <time>2010-05-13T10:09:51Z</time>
      </trkpt>
      <trkpt lat="48.71539" lon="1.99212">
        <ele>139</ele>
        <time>2010-05-13T10:09:52Z</time>
      </trkpt>
      <trkpt lat="48.71541" lon="1.9921">
        <ele>139</ele>
        <time>2010-05-13T10:09:53Z</time>
      </trkpt>
      <trkpt lat="48.71542" lon="1.99207">
        <ele>139</ele>
        <time>2010-05-13T10:09:54Z</time>
      </trkpt>
      <trkpt lat="48.71543" lon="1.99205">
        <ele>139</ele>
        <time>2010-05-13T10:09:55Z</time>
      </trkpt>
      <trkpt lat="48.71544" lon="1.99202">
        <ele>139</ele>
        <time>2010-05-13T10:09:56Z</time>
      </trkpt>
      <trkpt lat="48.71545" lon="1.992">
        <ele>139</ele>
        <time>2010-05-13T10:09:57Z</time>
      </trkpt>
      <trkpt lat="48.71545" lon="1.99198">
        <ele>139</ele>
        <time>2010-05-13T10:09:58Z</time>
      </trkpt>
      <trkpt lat="48.71546" lon="1.99196">
        <ele>139</ele>
        <time>2010-05-13T10:09:59Z</time>
      </trkpt>
      <trkpt lat="48.71546" lon="1.99193">
        <ele>140</ele>
        <time>2010-05-13T10:10:00Z</time>
      </trkpt>
      <trkpt lat="48.71547" lon="1.99191">
        <ele>141</ele>
        <time>2010-05-13T10:10:01Z</time>
      </trkpt>
      <trkpt lat="48.71547" lon="1.99189">
        <ele>141</ele>
        <time>2010-05-13T10:10:02Z</time>
      </trkpt>
      <trkpt lat="48.71548" lon="1.99188">
        <ele>142</ele>
        <time>2010-05-13T10:10:03Z</time>
      </trkpt>
      <trkpt lat="48.71549" lon="1.99186">
        <ele>143</ele>
        <time>2010-05-13T10:10:04Z</time>
      </trkpt>
      <trkpt lat="48.71549" lon="1.99184">
        <ele>143</ele>
        <time>2010-05-13T10:10:05Z</time>
      </trkpt>
      <trkpt lat="48.7155" lon="1.99182">
        <ele>144</ele>
        <time>2010-05-13T10:10:06Z</time>
      </trkpt>
      <trkpt lat="48.71551" lon="1.9918">
        <ele>145</ele>
        <time>2010-05-13T10:10:07Z</time>
      </trkpt>
      <trkpt lat="48.71552" lon="1.99178">
        <ele>145</ele>
        <time>2010-05-13T10:10:08Z</time>
      </trkpt>
      <trkpt lat="48.71553" lon="1.99176">
        <ele>146</ele>
        <time>2010-05-13T10:10:09Z</time>
      </trkpt>
      <trkpt lat="48.71553" lon="1.99174">
        <ele>146</ele>
        <time>2010-05-13T10:10:10Z</time>
      </trkpt>
      <trkpt lat="48.71554" lon="1.99171">
        <ele>146</ele>
        <time>2010-05-13T10:10:11Z</time>
      </trkpt>
      <trkpt lat="48.71555" lon="1.99169">
        <ele>147</ele>
        <time>2010-05-13T10:10:12Z</time>
      </trkpt>
      <trkpt lat="48.71556" lon="1.99166">
        <ele>147</ele>
        <time>2010-05-13T10:10:13Z</time>
      </trkpt>
      <trkpt lat="48.71557" lon="1.99165">
        <ele>147</ele>
        <time>2010-05-13T10:10:14Z</time>
      </trkpt>
      <trkpt lat="48.71558" lon="1.99163">
        <ele>147</ele>
        <time>2010-05-13T10:10:15Z</time>
      </trkpt>
      <trkpt lat="48.71559" lon="1.9916">
        <ele>148</ele>
        <time>2010-05-13T10:10:16Z</time>
      </trkpt>
      <trkpt lat="48.7156" lon="1.99158">
        <ele>148</ele>
        <time>2010-05-13T10:10:17Z</time>
      </trkpt>
      <trkpt lat="48.71561" lon="1.99156">
        <ele>149</ele>
        <time>2010-05-13T10:10:18Z</time>
      </trkpt>
      <trkpt lat="48.71562" lon="1.99154">
        <ele>149</ele>
        <time>2010-05-13T10:10:19Z</time>
      </trkpt>
      <trkpt lat="48.71562" lon="1.99151">
        <ele>150</ele>
        <time>2010-05-13T10:10:20Z</time>
      </trkpt>
      <trkpt lat="48.71563" lon="1.99149">
        <ele>150</ele>
        <time>2010-05-13T10:10:21Z</time>
      </trkpt>
      <trkpt lat="48.71564" lon="1.99146">
        <ele>150</ele>
        <time>2010-05-13T10:10:22Z</time>
      </trkpt>
      <trkpt lat="48.71565" lon="1.99144">
        <ele>150</ele>
        <time>2010-05-13T10:10:23Z</time>
      </trkpt>
      <trkpt lat="48.71566" lon="1.99141">
        <ele>150</ele>
        <time>2010-05-13T10:10:24Z</time>
      </trkpt>
      <trkpt lat="48.71567" lon="1.99139">
        <ele>150</ele>
        <time>2010-05-13T10:10:25Z</time>
      </trkpt>
      <trkpt lat="48.71568" lon="1.99137">
        <ele>150</ele>
        <time>2010-05-13T10:10:26Z</time>
      </trkpt>
      <trkpt lat="48.71569" lon="1.99134">
        <ele>150</ele>
        <time>2010-05-13T10:10:28Z</time>
      </trkpt>
      <trkpt lat="48.71569" lon="1.99132">
        <ele>150</ele>
        <time>2010-05-13T10:10:29Z</time>
      </trkpt>
      <trkpt lat="48.7157" lon="1.99129">
        <ele>150</ele>
        <time>2010-05-13T10:10:30Z</time>
      </trkpt>
      <trkpt lat="48.7157" lon="1.99127">
        <ele>150</ele>
        <time>2010-05-13T10:10:31Z</time>
      </trkpt>
      <trkpt lat="48.71571" lon="1.99125">
        <ele>150</ele>
        <time>2010-05-13T10:10:32Z</time>
      </trkpt>
      <trkpt lat="48.71572" lon="1.99122">
        <ele>150</ele>
        <time>2010-05-13T10:10:33Z</time>
      </trkpt>
      <trkpt lat="48.71572" lon="1.9912">
        <ele>150</ele>
        <time>2010-05-13T10:10:34Z</time>
      </trkpt>
      <trkpt lat="48.71573" lon="1.99118">
        <ele>150</ele>
        <time>2010-05-13T10:10:35Z</time>
      </trkpt>
      <trkpt lat="48.71573" lon="1.99116">
        <ele>150</ele>
        <time>2010-05-13T10:10:36Z</time>
      </trkpt>
      <trkpt lat="48.71574" lon="1.99114">
        <ele>150</ele>
        <time>2010-05-13T10:10:37Z</time>
      </trkpt>
      <trkpt lat="48.71574" lon="1.99112">
        <ele>150</ele>
        <time>2010-05-13T10:10:38Z</time>
      </trkpt>
      <trkpt lat="48.71575" lon="1.9911">
        <ele>150</ele>
        <time>2010-05-13T10:10:39Z</time>
      </trkpt>
      <trkpt lat="48.71575" lon="1.99108">
        <ele>150</ele>
        <time>2010-05-13T10:10:40Z</time>
      </trkpt>
      <trkpt lat="48.71576" lon="1.99106">
        <ele>150</ele>
        <time>2010-05-13T10:10:41Z</time>
      </trkpt>
      <trkpt lat="48.71577" lon="1.99104">
        <ele>150</ele>
        <time>2010-05-13T10:10:42Z</time>
      </trkpt>
      <trkpt lat="48.71577" lon="1.99101">
        <ele>150</ele>
        <time>2010-05-13T10:10:43Z</time>
      </trkpt>
      <trkpt lat="48.71578" lon="1.99099">
        <ele>150</ele>
        <time>2010-05-13T10:10:44Z</time>
      </trkpt>
      <trkpt lat="48.71579" lon="1.99097">
        <ele>150</ele>
        <time>2010-05-13T10:10:45Z</time>
      </trkpt>
      <trkpt lat="48.71579" lon="1.99095">
        <ele>150</ele>
        <time>2010-05-13T10:10:46Z</time>
      </trkpt>
      <trkpt lat="48.7158" lon="1.99093">
        <ele>150</ele>
        <time>2010-05-13T10:10:47Z</time>
      </trkpt>
      <trkpt lat="48.71579" lon="1.99089">
        <ele>150</ele>
        <time>2010-05-13T10:10:49Z</time>
      </trkpt>
      <trkpt lat="48.7158" lon="1.99087">
        <ele>150</ele>
        <time>2010-05-13T10:10:50Z</time>
      </trkpt>
      <trkpt lat="48.71581" lon="1.99085">
        <ele>150</ele>
        <time>2010-05-13T10:10:51Z</time>
      </trkpt>
      <trkpt lat="48.71581" lon="1.99082">
        <ele>150</ele>
        <time>2010-05-13T10:10:52Z</time>
      </trkpt>
      <trkpt lat="48.71582" lon="1.9908">
        <ele>150</ele>
        <time>2010-05-13T10:10:53Z</time>
      </trkpt>
      <trkpt lat="48.71582" lon="1.99078">
        <ele>150</ele>
        <time>2010-05-13T10:10:54Z</time>
      </trkpt>
      <trkpt lat="48.71582" lon="1.99076">
        <ele>150</ele>
        <time>2010-05-13T10:10:55Z</time>
      </trkpt>
      <trkpt lat="48.71583" lon="1.99074">
        <ele>150</ele>
        <time>2010-05-13T10:10:56Z</time>
      </trkpt>
      <trkpt lat="48.71583" lon="1.99072">
        <ele>150</ele>
        <time>2010-05-13T10:10:57Z</time>
      </trkpt>
      <trkpt lat="48.71584" lon="1.9907">
        <ele>150</ele>
        <time>2010-05-13T10:10:59Z</time>
      </trkpt>
      <trkpt lat="48.71585" lon="1.99068">
        <ele>150</ele>
        <time>2010-05-13T10:11:01Z</time>
      </trkpt>
      <trkpt lat="48.71585" lon="1.99066">
        <ele>150</ele>
        <time>2010-05-13T10:11:02Z</time>
      </trkpt>
      <trkpt lat="48.71586" lon="1.99063">
        <ele>150</ele>
        <time>2010-05-13T10:11:03Z</time>
      </trkpt>
      <trkpt lat="48.71587" lon="1.99061">
        <ele>150</ele>
        <time>2010-05-13T10:11:04Z</time>
      </trkpt>
      <trkpt lat="48.71588" lon="1.99058">
        <ele>150</ele>
        <time>2010-05-13T10:11:05Z</time>
      </trkpt>
      <trkpt lat="48.71589" lon="1.99054">
        <ele>150</ele>
        <time>2010-05-13T10:11:06Z</time>
      </trkpt>
      <trkpt lat="48.7159" lon="1.99051">
        <ele>150</ele>
        <time>2010-05-13T10:11:07Z</time>
      </trkpt>
      <trkpt lat="48.7159" lon="1.99049">
        <ele>150</ele>
        <time>2010-05-13T10:11:08Z</time>
      </trkpt>
      <trkpt lat="48.7159" lon="1.99046">
        <ele>150</ele>
        <time>2010-05-13T10:11:09Z</time>
      </trkpt>
      <trkpt lat="48.7159" lon="1.99044">
        <ele>150</ele>
        <time>2010-05-13T10:11:10Z</time>
      </trkpt>
      <trkpt lat="48.71591" lon="1.99041">
        <ele>150</ele>
        <time>2010-05-13T10:11:11Z</time>
      </trkpt>
      <trkpt lat="48.71592" lon="1.99039">
        <ele>150</ele>
        <time>2010-05-13T10:11:12Z</time>
      </trkpt>
      <trkpt lat="48.71594" lon="1.99035">
        <ele>150</ele>
        <time>2010-05-13T10:11:14Z</time>
      </trkpt>
      <trkpt lat="48.71594" lon="1.99032">
        <ele>150</ele>
        <time>2010-05-13T10:11:15Z</time>
      </trkpt>
      <trkpt lat="48.71594" lon="1.9903">
        <ele>150</ele>
        <time>2010-05-13T10:11:16Z</time>
      </trkpt>
      <trkpt lat="48.71595" lon="1.99029">
        <ele>150</ele>
        <time>2010-05-13T10:11:17Z</time>
      </trkpt>
      <trkpt lat="48.71595" lon="1.99025">
        <ele>149</ele>
        <time>2010-05-13T10:11:19Z</time>
      </trkpt>
      <trkpt lat="48.71596" lon="1.99022">
        <ele>149</ele>
        <time>2010-05-13T10:11:20Z</time>
      </trkpt>
      <trkpt lat="48.71596" lon="1.9902">
        <ele>149</ele>
        <time>2010-05-13T10:11:21Z</time>
      </trkpt>
      <trkpt lat="48.71597" lon="1.99018">
        <ele>148</ele>
        <time>2010-05-13T10:11:22Z</time>
      </trkpt>
      <trkpt lat="48.71597" lon="1.99015">
        <ele>148</ele>
        <time>2010-05-13T10:11:23Z</time>
      </trkpt>
      <trkpt lat="48.71598" lon="1.99013">
        <ele>147</ele>
        <time>2010-05-13T10:11:24Z</time>
      </trkpt>
      <trkpt lat="48.716" lon="1.9901">
        <ele>147</ele>
        <time>2010-05-13T10:11:26Z</time>
      </trkpt>
      <trkpt lat="48.716" lon="1.99005">
        <ele>147</ele>
        <time>2010-05-13T10:11:28Z</time>
      </trkpt>
      <trkpt lat="48.716" lon="1.99002">
        <ele>147</ele>
        <time>2010-05-13T10:11:29Z</time>
      </trkpt>
      <trkpt lat="48.716" lon="1.99">
        <ele>147</ele>
        <time>2010-05-13T10:11:30Z</time>
      </trkpt>
      <trkpt lat="48.71601" lon="1.98997">
        <ele>147</ele>
        <time>2010-05-13T10:11:31Z</time>
      </trkpt>
      <trkpt lat="48.71601" lon="1.98994">
        <ele>147</ele>
        <time>2010-05-13T10:11:32Z</time>
      </trkpt>
      <trkpt lat="48.71602" lon="1.98992">
        <ele>147</ele>
        <time>2010-05-13T10:11:33Z</time>
      </trkpt>
      <trkpt lat="48.71602" lon="1.9899">
        <ele>147</ele>
        <time>2010-05-13T10:11:34Z</time>
      </trkpt>
      <trkpt lat="48.71602" lon="1.98988">
        <ele>147</ele>
        <time>2010-05-13T10:11:35Z</time>
      </trkpt>
      <trkpt lat="48.71603" lon="1.98985">
        <ele>147</ele>
        <time>2010-05-13T10:11:36Z</time>
      </trkpt>
      <trkpt lat="48.71603" lon="1.98983">
        <ele>147</ele>
        <time>2010-05-13T10:11:37Z</time>
      </trkpt>
      <trkpt lat="48.71604" lon="1.9898">
        <ele>146</ele>
        <time>2010-05-13T10:11:38Z</time>
      </trkpt>
      <trkpt lat="48.71604" lon="1.98978">
        <ele>146</ele>
        <time>2010-05-13T10:11:39Z</time>
      </trkpt>
      <trkpt lat="48.71605" lon="1.98976">
        <ele>146</ele>
        <time>2010-05-13T10:11:40Z</time>
      </trkpt>
      <trkpt lat="48.71606" lon="1.98974">
        <ele>146</ele>
        <time>2010-05-13T10:11:41Z</time>
      </trkpt>
      <trkpt lat="48.71606" lon="1.98972">
        <ele>146</ele>
        <time>2010-05-13T10:11:42Z</time>
      </trkpt>
      <trkpt lat="48.71606" lon="1.98969">
        <ele>146</ele>
        <time>2010-05-13T10:11:43Z</time>
      </trkpt>
      <trkpt lat="48.71607" lon="1.98967">
        <ele>146</ele>
        <time>2010-05-13T10:11:44Z</time>
      </trkpt>
      <trkpt lat="48.71607" lon="1.98965">
        <ele>146</ele>
        <time>2010-05-13T10:11:45Z</time>
      </trkpt>
      <trkpt lat="48.71608" lon="1.98963">
        <ele>146</ele>
        <time>2010-05-13T10:11:46Z</time>
      </trkpt>
      <trkpt lat="48.71609" lon="1.9896">
        <ele>146</ele>
        <time>2010-05-13T10:11:47Z</time>
      </trkpt>
      <trkpt lat="48.71609" lon="1.98958">
        <ele>146</ele>
        <time>2010-05-13T10:11:48Z</time>
      </trkpt>
      <trkpt lat="48.7161" lon="1.98955">
        <ele>146</ele>
        <time>2010-05-13T10:11:49Z</time>
      </trkpt>
      <trkpt lat="48.71611" lon="1.98952">
        <ele>146</ele>
        <time>2010-05-13T10:11:50Z</time>
      </trkpt>
      <trkpt lat="48.71612" lon="1.98948">
        <ele>146</ele>
        <time>2010-05-13T10:11:51Z</time>
      </trkpt>
      <trkpt lat="48.71613" lon="1.98946">
        <ele>146</ele>
        <time>2010-05-13T10:11:52Z</time>
      </trkpt>
      <trkpt lat="48.71613" lon="1.98943">
        <ele>146</ele>
        <time>2010-05-13T10:11:53Z</time>
      </trkpt>
      <trkpt lat="48.71613" lon="1.9894">
        <ele>146</ele>
        <time>2010-05-13T10:11:54Z</time>
      </trkpt>
      <trkpt lat="48.71613" lon="1.98937">
        <ele>146</ele>
        <time>2010-05-13T10:11:55Z</time>
      </trkpt>
      <trkpt lat="48.71614" lon="1.98935">
        <ele>146</ele>
        <time>2010-05-13T10:11:56Z</time>
      </trkpt>
      <trkpt lat="48.71615" lon="1.98932">
        <ele>146</ele>
        <time>2010-05-13T10:11:57Z</time>
      </trkpt>
      <trkpt lat="48.71615" lon="1.9893">
        <ele>146</ele>
        <time>2010-05-13T10:11:58Z</time>
      </trkpt>
      <trkpt lat="48.71615" lon="1.98928">
        <ele>147</ele>
        <time>2010-05-13T10:11:59Z</time>
      </trkpt>
      <trkpt lat="48.71616" lon="1.98926">
        <ele>147</ele>
        <time>2010-05-13T10:12:00Z</time>
      </trkpt>
      <trkpt lat="48.71616" lon="1.98924">
        <ele>148</ele>
        <time>2010-05-13T10:12:01Z</time>
      </trkpt>
      <trkpt lat="48.71616" lon="1.98922">
        <ele>148</ele>
        <time>2010-05-13T10:12:02Z</time>
      </trkpt>
      <trkpt lat="48.71616" lon="1.98919">
        <ele>148</ele>
        <time>2010-05-13T10:12:03Z</time>
      </trkpt>
      <trkpt lat="48.71616" lon="1.98917">
        <ele>148</ele>
        <time>2010-05-13T10:12:04Z</time>
      </trkpt>
      <trkpt lat="48.71617" lon="1.98914">
        <ele>149</ele>
        <time>2010-05-13T10:12:05Z</time>
      </trkpt>
      <trkpt lat="48.71618" lon="1.98912">
        <ele>149</ele>
        <time>2010-05-13T10:12:06Z</time>
      </trkpt>
      <trkpt lat="48.71618" lon="1.98909">
        <ele>149</ele>
        <time>2010-05-13T10:12:07Z</time>
      </trkpt>
      <trkpt lat="48.71618" lon="1.98906">
        <ele>150</ele>
        <time>2010-05-13T10:12:08Z</time>
      </trkpt>
      <trkpt lat="48.71619" lon="1.98904">
        <ele>150</ele>
        <time>2010-05-13T10:12:09Z</time>
      </trkpt>
      <trkpt lat="48.71619" lon="1.989">
        <ele>151</ele>
        <time>2010-05-13T10:12:10Z</time>
      </trkpt>
      <trkpt lat="48.71619" lon="1.98897">
        <ele>151</ele>
        <time>2010-05-13T10:12:11Z</time>
      </trkpt>
      <trkpt lat="48.71618" lon="1.98895">
        <ele>151</ele>
        <time>2010-05-13T10:12:12Z</time>
      </trkpt>
      <trkpt lat="48.71618" lon="1.98894">
        <ele>152</ele>
        <time>2010-05-13T10:12:13Z</time>
      </trkpt>
      <trkpt lat="48.71617" lon="1.98892">
        <ele>152</ele>
        <time>2010-05-13T10:12:14Z</time>
      </trkpt>
      <trkpt lat="48.71616" lon="1.9889">
        <ele>152</ele>
        <time>2010-05-13T10:12:15Z</time>
      </trkpt>
      <trkpt lat="48.71616" lon="1.98887">
        <ele>152</ele>
        <time>2010-05-13T10:12:16Z</time>
      </trkpt>
      <trkpt lat="48.71617" lon="1.98884">
        <ele>152</ele>
        <time>2010-05-13T10:12:17Z</time>
      </trkpt>
      <trkpt lat="48.71616" lon="1.98882">
        <ele>152</ele>
        <time>2010-05-13T10:12:18Z</time>
      </trkpt>
      <trkpt lat="48.71616" lon="1.9888">
        <ele>152</ele>
        <time>2010-05-13T10:12:19Z</time>
      </trkpt>
      <trkpt lat="48.71615" lon="1.98877">
        <ele>152</ele>
        <time>2010-05-13T10:12:20Z</time>
      </trkpt>
      <trkpt lat="48.71615" lon="1.98875">
        <ele>152</ele>
        <time>2010-05-13T10:12:21Z</time>
      </trkpt>
      <trkpt lat="48.71614" lon="1.98872">
        <ele>152</ele>
        <time>2010-05-13T10:12:22Z</time>
      </trkpt>
      <trkpt lat="48.71614" lon="1.9887">
        <ele>152</ele>
        <time>2010-05-13T10:12:23Z</time>
      </trkpt>
      <trkpt lat="48.71615" lon="1.98867">
        <ele>152</ele>
        <time>2010-05-13T10:12:24Z</time>
      </trkpt>
      <trkpt lat="48.71614" lon="1.98864">
        <ele>152</ele>
        <time>2010-05-13T10:12:25Z</time>
      </trkpt>
      <trkpt lat="48.71614" lon="1.98862">
        <ele>151</ele>
        <time>2010-05-13T10:12:26Z</time>
      </trkpt>
      <trkpt lat="48.71614" lon="1.9886">
        <ele>151</ele>
        <time>2010-05-13T10:12:27Z</time>
      </trkpt>
      <trkpt lat="48.71614" lon="1.98858">
        <ele>151</ele>
        <time>2010-05-13T10:12:28Z</time>
      </trkpt>
      <trkpt lat="48.71614" lon="1.98855">
        <ele>151</ele>
        <time>2010-05-13T10:12:30Z</time>
      </trkpt>
      <trkpt lat="48.71614" lon="1.98852">
        <ele>151</ele>
        <time>2010-05-13T10:12:31Z</time>
      </trkpt>
      <trkpt lat="48.71614" lon="1.98849">
        <ele>151</ele>
        <time>2010-05-13T10:12:32Z</time>
      </trkpt>
      <trkpt lat="48.71615" lon="1.98847">
        <ele>151</ele>
        <time>2010-05-13T10:12:33Z</time>
      </trkpt>
      <trkpt lat="48.71615" lon="1.98845">
        <ele>151</ele>
        <time>2010-05-13T10:12:34Z</time>
      </trkpt>
      <trkpt lat="48.71614" lon="1.98843">
        <ele>151</ele>
        <time>2010-05-13T10:12:35Z</time>
      </trkpt>
      <trkpt lat="48.71614" lon="1.9884">
        <ele>150</ele>
        <time>2010-05-13T10:12:36Z</time>
      </trkpt>
      <trkpt lat="48.71614" lon="1.98837">
        <ele>149</ele>
        <time>2010-05-13T10:12:37Z</time>
      </trkpt>
      <trkpt lat="48.71613" lon="1.98835">
        <ele>148</ele>
        <time>2010-05-13T10:12:38Z</time>
      </trkpt>
      <trkpt lat="48.71613" lon="1.98832">
        <ele>147</ele>
        <time>2010-05-13T10:12:39Z</time>
      </trkpt>
      <trkpt lat="48.71612" lon="1.9883">
        <ele>147</ele>
        <time>2010-05-13T10:12:40Z</time>
      </trkpt>
      <trkpt lat="48.71612" lon="1.98828">
        <ele>147</ele>
        <time>2010-05-13T10:12:41Z</time>
      </trkpt>
      <trkpt lat="48.71611" lon="1.98825">
        <ele>146</ele>
        <time>2010-05-13T10:12:42Z</time>
      </trkpt>
      <trkpt lat="48.71611" lon="1.98823">
        <ele>146</ele>
        <time>2010-05-13T10:12:43Z</time>
      </trkpt>
      <trkpt lat="48.71611" lon="1.98821">
        <ele>146</ele>
        <time>2010-05-13T10:12:44Z</time>
      </trkpt>
      <trkpt lat="48.71612" lon="1.98819">
        <ele>146</ele>
        <time>2010-05-13T10:12:45Z</time>
      </trkpt>
      <trkpt lat="48.71612" lon="1.98816">
        <ele>146</ele>
        <time>2010-05-13T10:12:46Z</time>
      </trkpt>
      <trkpt lat="48.71612" lon="1.98814">
        <ele>146</ele>
        <time>2010-05-13T10:12:47Z</time>
      </trkpt>
      <trkpt lat="48.71612" lon="1.98811">
        <ele>146</ele>
        <time>2010-05-13T10:12:49Z</time>
      </trkpt>
      <trkpt lat="48.71611" lon="1.98808">
        <ele>146</ele>
        <time>2010-05-13T10:12:50Z</time>
      </trkpt>
      <trkpt lat="48.71611" lon="1.98806">
        <ele>146</ele>
        <time>2010-05-13T10:12:51Z</time>
      </trkpt>
      <trkpt lat="48.7161" lon="1.98803">
        <ele>146</ele>
        <time>2010-05-13T10:12:52Z</time>
      </trkpt>
      <trkpt lat="48.7161" lon="1.988">
        <ele>146</ele>
        <time>2010-05-13T10:12:53Z</time>
      </trkpt>
      <trkpt lat="48.7161" lon="1.98798">
        <ele>145</ele>
        <time>2010-05-13T10:12:54Z</time>
      </trkpt>
      <trkpt lat="48.71611" lon="1.98795">
        <ele>144</ele>
        <time>2010-05-13T10:12:55Z</time>
      </trkpt>
      <trkpt lat="48.71611" lon="1.98793">
        <ele>143</ele>
        <time>2010-05-13T10:12:56Z</time>
      </trkpt>
      <trkpt lat="48.7161" lon="1.98791">
        <ele>142</ele>
        <time>2010-05-13T10:12:57Z</time>
      </trkpt>
      <trkpt lat="48.7161" lon="1.98788">
        <ele>141</ele>
        <time>2010-05-13T10:12:58Z</time>
      </trkpt>
      <trkpt lat="48.7161" lon="1.98786">
        <ele>140</ele>
        <time>2010-05-13T10:12:59Z</time>
      </trkpt>
      <trkpt lat="48.7161" lon="1.98783">
        <ele>139</ele>
        <time>2010-05-13T10:13:00Z</time>
      </trkpt>
      <trkpt lat="48.7161" lon="1.9878">
        <ele>138</ele>
        <time>2010-05-13T10:13:01Z</time>
      </trkpt>
      <trkpt lat="48.7161" lon="1.98778">
        <ele>137</ele>
        <time>2010-05-13T10:13:02Z</time>
      </trkpt>
      <trkpt lat="48.71609" lon="1.98777">
        <ele>136</ele>
        <time>2010-05-13T10:13:03Z</time>
      </trkpt>
      <trkpt lat="48.71609" lon="1.98775">
        <ele>135</ele>
        <time>2010-05-13T10:13:04Z</time>
      </trkpt>
      <trkpt lat="48.71609" lon="1.98772">
        <ele>134</ele>
        <time>2010-05-13T10:13:05Z</time>
      </trkpt>
      <trkpt lat="48.7161" lon="1.9877">
        <ele>133</ele>
        <time>2010-05-13T10:13:06Z</time>
      </trkpt>
      <trkpt lat="48.71611" lon="1.98768">
        <ele>133</ele>
        <time>2010-05-13T10:13:07Z</time>
      </trkpt>
      <trkpt lat="48.71612" lon="1.98765">
        <ele>133</ele>
        <time>2010-05-13T10:13:08Z</time>
      </trkpt>
      <trkpt lat="48.71612" lon="1.98762">
        <ele>133</ele>
        <time>2010-05-13T10:13:09Z</time>
      </trkpt>
      <trkpt lat="48.71612" lon="1.9876">
        <ele>133</ele>
        <time>2010-05-13T10:13:10Z</time>
      </trkpt>
      <trkpt lat="48.71613" lon="1.98757">
        <ele>133</ele>
        <time>2010-05-13T10:13:11Z</time>
      </trkpt>
      <trkpt lat="48.71615" lon="1.98755">
        <ele>133</ele>
        <time>2010-05-13T10:13:13Z</time>
      </trkpt>
      <trkpt lat="48.71616" lon="1.98752">
        <ele>133</ele>
        <time>2010-05-13T10:13:15Z</time>
      </trkpt>
      <trkpt lat="48.71615" lon="1.98749">
        <ele>133</ele>
        <time>2010-05-13T10:13:17Z</time>
      </trkpt>
      <trkpt lat="48.71616" lon="1.98745">
        <ele>133</ele>
        <time>2010-05-13T10:13:18Z</time>
      </trkpt>
      <trkpt lat="48.71617" lon="1.98743">
        <ele>133</ele>
        <time>2010-05-13T10:13:19Z</time>
      </trkpt>
      <trkpt lat="48.71617" lon="1.98741">
        <ele>133</ele>
        <time>2010-05-13T10:13:20Z</time>
      </trkpt>
      <trkpt lat="48.71618" lon="1.98738">
        <ele>133</ele>
        <time>2010-05-13T10:13:21Z</time>
      </trkpt>
      <trkpt lat="48.7162" lon="1.98735">
        <ele>133</ele>
        <time>2010-05-13T10:13:22Z</time>
      </trkpt>
      <trkpt lat="48.71621" lon="1.98732">
        <ele>133</ele>
        <time>2010-05-13T10:13:23Z</time>
      </trkpt>
      <trkpt lat="48.71622" lon="1.98728">
        <ele>133</ele>
        <time>2010-05-13T10:13:24Z</time>
      </trkpt>
      <trkpt lat="48.71622" lon="1.98726">
        <ele>133</ele>
        <time>2010-05-13T10:13:25Z</time>
      </trkpt>
      <trkpt lat="48.71623" lon="1.98723">
        <ele>133</ele>
        <time>2010-05-13T10:13:26Z</time>
      </trkpt>
      <trkpt lat="48.71623" lon="1.9872">
        <ele>133</ele>
        <time>2010-05-13T10:13:27Z</time>
      </trkpt>
      <trkpt lat="48.71623" lon="1.98716">
        <ele>133</ele>
        <time>2010-05-13T10:13:28Z</time>
      </trkpt>
      <trkpt lat="48.71624" lon="1.98713">
        <ele>132</ele>
        <time>2010-05-13T10:13:29Z</time>
      </trkpt>
      <trkpt lat="48.71625" lon="1.9871">
        <ele>131</ele>
        <time>2010-05-13T10:13:31Z</time>
      </trkpt>
      <trkpt lat="48.71627" lon="1.98706">
        <ele>130</ele>
        <time>2010-05-13T10:13:33Z</time>
      </trkpt>
      <trkpt lat="48.71629" lon="1.98703">
        <ele>129</ele>
        <time>2010-05-13T10:13:34Z</time>
      </trkpt>
      <trkpt lat="48.71629" lon="1.98699">
        <ele>128</ele>
        <time>2010-05-13T10:13:35Z</time>
      </trkpt>
      <trkpt lat="48.7163" lon="1.98697">
        <ele>127</ele>
        <time>2010-05-13T10:13:36Z</time>
      </trkpt>
      <trkpt lat="48.7163" lon="1.98695">
        <ele>126</ele>
        <time>2010-05-13T10:13:37Z</time>
      </trkpt>
      <trkpt lat="48.7163" lon="1.98692">
        <ele>126</ele>
        <time>2010-05-13T10:13:38Z</time>
      </trkpt>
      <trkpt lat="48.7163" lon="1.9869">
        <ele>126</ele>
        <time>2010-05-13T10:13:39Z</time>
      </trkpt>
      <trkpt lat="48.71631" lon="1.98688">
        <ele>126</ele>
        <time>2010-05-13T10:13:40Z</time>
      </trkpt>
      <trkpt lat="48.71632" lon="1.98686">
        <ele>126</ele>
        <time>2010-05-13T10:13:41Z</time>
      </trkpt>
      <trkpt lat="48.71633" lon="1.98683">
        <ele>126</ele>
        <time>2010-05-13T10:13:43Z</time>
      </trkpt>
      <trkpt lat="48.71633" lon="1.98682">
        <ele>127</ele>
        <time>2010-05-13T10:13:44Z</time>
      </trkpt>
      <trkpt lat="48.71634" lon="1.98679">
        <ele>127</ele>
        <time>2010-05-13T10:13:45Z</time>
      </trkpt>
      <trkpt lat="48.71634" lon="1.98676">
        <ele>128</ele>
        <time>2010-05-13T10:13:46Z</time>
      </trkpt>
      <trkpt lat="48.71635" lon="1.98673">
        <ele>128</ele>
        <time>2010-05-13T10:13:47Z</time>
      </trkpt>
      <trkpt lat="48.71636" lon="1.9867">
        <ele>128</ele>
        <time>2010-05-13T10:13:48Z</time>
      </trkpt>
      <trkpt lat="48.71638" lon="1.98668">
        <ele>128</ele>
        <time>2010-05-13T10:13:49Z</time>
      </trkpt>
      <trkpt lat="48.71638" lon="1.98667">
        <ele>128</ele>
        <time>2010-05-13T10:13:50Z</time>
      </trkpt>
      <trkpt lat="48.71637" lon="1.98664">
        <ele>128</ele>
        <time>2010-05-13T10:13:51Z</time>
      </trkpt>
      <trkpt lat="48.71638" lon="1.98661">
        <ele>128</ele>
        <time>2010-05-13T10:13:53Z</time>
      </trkpt>
      <trkpt lat="48.71639" lon="1.98658">
        <ele>128</ele>
        <time>2010-05-13T10:13:54Z</time>
      </trkpt>
      <trkpt lat="48.7164" lon="1.98655">
        <ele>127</ele>
        <time>2010-05-13T10:13:55Z</time>
      </trkpt>
      <trkpt lat="48.71641" lon="1.98653">
        <ele>126</ele>
        <time>2010-05-13T10:13:56Z</time>
      </trkpt>
      <trkpt lat="48.71642" lon="1.9865">
        <ele>125</ele>
        <time>2010-05-13T10:13:57Z</time>
      </trkpt>
      <trkpt lat="48.71642" lon="1.98648">
        <ele>124</ele>
        <time>2010-05-13T10:13:58Z</time>
      </trkpt>
      <trkpt lat="48.71643" lon="1.98646">
        <ele>123</ele>
        <time>2010-05-13T10:13:59Z</time>
      </trkpt>
      <trkpt lat="48.71643" lon="1.98644">
        <ele>121</ele>
        <time>2010-05-13T10:14:00Z</time>
      </trkpt>
      <trkpt lat="48.71642" lon="1.98642">
        <ele>119</ele>
        <time>2010-05-13T10:14:01Z</time>
      </trkpt>
      <trkpt lat="48.71643" lon="1.9864">
        <ele>118</ele>
        <time>2010-05-13T10:14:02Z</time>
      </trkpt>
      <trkpt lat="48.71643" lon="1.98637">
        <ele>117</ele>
        <time>2010-05-13T10:14:03Z</time>
      </trkpt>
      <trkpt lat="48.71644" lon="1.98635">
        <ele>115</ele>
        <time>2010-05-13T10:14:04Z</time>
      </trkpt>
      <trkpt lat="48.71644" lon="1.98633">
        <ele>113</ele>
        <time>2010-05-13T10:14:05Z</time>
      </trkpt>
      <trkpt lat="48.71644" lon="1.98631">
        <ele>111</ele>
        <time>2010-05-13T10:14:06Z</time>
      </trkpt>
      <trkpt lat="48.71645" lon="1.98627">
        <ele>108</ele>
        <time>2010-05-13T10:14:08Z</time>
      </trkpt>
      <trkpt lat="48.71645" lon="1.98623">
        <ele>104</ele>
        <time>2010-05-13T10:14:10Z</time>
      </trkpt>
      <trkpt lat="48.71644" lon="1.98621">
        <ele>102</ele>
        <time>2010-05-13T10:14:11Z</time>
      </trkpt>
      <trkpt lat="48.71643" lon="1.98618">
        <ele>101</ele>
        <time>2010-05-13T10:14:12Z</time>
      </trkpt>
      <trkpt lat="48.71643" lon="1.98615">
        <ele>100</ele>
        <time>2010-05-13T10:14:13Z</time>
      </trkpt>
      <trkpt lat="48.71644" lon="1.98612">
        <ele>99</ele>
        <time>2010-05-13T10:14:14Z</time>
      </trkpt>
      <trkpt lat="48.71643" lon="1.98608">
        <ele>97</ele>
        <time>2010-05-13T10:14:16Z</time>
      </trkpt>
      <trkpt lat="48.71644" lon="1.98604">
        <ele>95</ele>
        <time>2010-05-13T10:14:18Z</time>
      </trkpt>
      <trkpt lat="48.71644" lon="1.98602">
        <ele>94</ele>
        <time>2010-05-13T10:14:19Z</time>
      </trkpt>
      <trkpt lat="48.71643" lon="1.98598">
        <ele>93</ele>
        <time>2010-05-13T10:14:22Z</time>
      </trkpt>
      <trkpt lat="48.71644" lon="1.98594">
        <ele>92</ele>
        <time>2010-05-13T10:14:23Z</time>
      </trkpt>
      <trkpt lat="48.71644" lon="1.98592">
        <ele>91</ele>
        <time>2010-05-13T10:14:24Z</time>
      </trkpt>
      <trkpt lat="48.71643" lon="1.9859">
        <ele>90</ele>
        <time>2010-05-13T10:14:25Z</time>
      </trkpt>
      <trkpt lat="48.71642" lon="1.98587">
        <ele>85</ele>
        <time>2010-05-13T10:14:28Z</time>
      </trkpt>
      <trkpt lat="48.71641" lon="1.98586">
        <ele>84</ele>
        <time>2010-05-13T10:14:29Z</time>
      </trkpt>
      <trkpt lat="48.71641" lon="1.98582">
        <ele>80</ele>
        <time>2010-05-13T10:14:31Z</time>
      </trkpt>
      <trkpt lat="48.7164" lon="1.98575">
        <ele>76</ele>
        <time>2010-05-13T10:14:35Z</time>
      </trkpt>
      <trkpt lat="48.7164" lon="1.9857">
        <ele>74</ele>
        <time>2010-05-13T10:14:36Z</time>
      </trkpt>
      <trkpt lat="48.71641" lon="1.98566">
        <ele>72</ele>
        <time>2010-05-13T10:14:37Z</time>
      </trkpt>
      <trkpt lat="48.71641" lon="1.98561">
        <ele>69</ele>
        <time>2010-05-13T10:14:40Z</time>
      </trkpt>
      <trkpt lat="48.71644" lon="1.98559">
        <ele>66</ele>
        <time>2010-05-13T10:14:41Z</time>
      </trkpt>
      <trkpt lat="48.71645" lon="1.98555">
        <ele>63</ele>
        <time>2010-05-13T10:14:42Z</time>
      </trkpt>
      <trkpt lat="48.71646" lon="1.98551">
        <ele>60</ele>
        <time>2010-05-13T10:14:43Z</time>
      </trkpt>
      <trkpt lat="48.71645" lon="1.98548">
        <ele>57</ele>
        <time>2010-05-13T10:14:44Z</time>
      </trkpt>
      <trkpt lat="48.71645" lon="1.98544">
        <ele>54</ele>
        <time>2010-05-13T10:14:45Z</time>
      </trkpt>
      <trkpt lat="48.71647" lon="1.98542">
        <ele>51</ele>
        <time>2010-05-13T10:14:46Z</time>
      </trkpt>
      <trkpt lat="48.71648" lon="1.98538">
        <ele>48</ele>
        <time>2010-05-13T10:14:47Z</time>
      </trkpt>
      <trkpt lat="48.71649" lon="1.98536">
        <ele>45</ele>
        <time>2010-05-13T10:14:48Z</time>
      </trkpt>
      <trkpt lat="48.71651" lon="1.98534">
        <ele>42</ele>
        <time>2010-05-13T10:14:49Z</time>
      </trkpt>
      <trkpt lat="48.71651" lon="1.98533">
        <ele>39</ele>
        <time>2010-05-13T10:14:50Z</time>
      </trkpt>
      <trkpt lat="48.71653" lon="1.98529">
        <ele>32</ele>
        <time>2010-05-13T10:14:53Z</time>
      </trkpt>
      <trkpt lat="48.71653" lon="1.98527">
        <ele>30</ele>
        <time>2010-05-13T10:14:54Z</time>
      </trkpt>
      <trkpt lat="48.71654" lon="1.98525">
        <ele>28</ele>
        <time>2010-05-13T10:14:55Z</time>
      </trkpt>
      <trkpt lat="48.71655" lon="1.98523">
        <ele>26</ele>
        <time>2010-05-13T10:14:56Z</time>
      </trkpt>
      <trkpt lat="48.71656" lon="1.98521">
        <ele>24</ele>
        <time>2010-05-13T10:14:58Z</time>
      </trkpt>
      <trkpt lat="48.71656" lon="1.98517">
        <ele>22</ele>
        <time>2010-05-13T10:14:59Z</time>
      </trkpt>
      <trkpt lat="48.71657" lon="1.98515">
        <ele>20</ele>
        <time>2010-05-13T10:15:00Z</time>
      </trkpt>
      <trkpt lat="48.71658" lon="1.98512">
        <ele>16</ele>
        <time>2010-05-13T10:15:02Z</time>
      </trkpt>
      <trkpt lat="48.71656" lon="1.9851">
        <ele>14</ele>
        <time>2010-05-13T10:15:03Z</time>
      </trkpt>
      <trkpt lat="48.71656" lon="1.98508">
        <ele>12</ele>
        <time>2010-05-13T10:15:04Z</time>
      </trkpt>
      <trkpt lat="48.71654" lon="1.98505">
        <ele>10</ele>
        <time>2010-05-13T10:15:07Z</time>
      </trkpt>
      <trkpt lat="48.71652" lon="1.98503">
        <ele>8</ele>
        <time>2010-05-13T10:15:08Z</time>
      </trkpt>
      <trkpt lat="48.71651" lon="1.98502">
        <ele>5</ele>
        <time>2010-05-13T10:15:09Z</time>
      </trkpt>
      <trkpt lat="48.71649" lon="1.98498">
        <ele>3</ele>
        <time>2010-05-13T10:15:10Z</time>
      </trkpt>
      <trkpt lat="48.71649" lon="1.98495">
        <ele>136.9</ele>
        <time>2010-05-13T10:15:11Z</time>
      </trkpt>
      <trkpt lat="48.71644" lon="1.98492">
        <ele>-2</ele>
        <time>2010-05-13T10:15:15Z</time>
      </trkpt>
      <trkpt lat="48.7164" lon="1.98492">
        <ele>-4</ele>
        <time>2010-05-13T10:15:16Z</time>
      </trkpt>
      <trkpt lat="48.71636" lon="1.98491">
        <ele>-6</ele>
        <time>2010-05-13T10:15:17Z</time>
      </trkpt>
      <trkpt lat="48.71634" lon="1.98489">
        <ele>-8</ele>
        <time>2010-05-13T10:15:18Z</time>
      </trkpt>
      <trkpt lat="48.71632" lon="1.98489">
        <ele>-20</ele>
        <time>2010-05-13T10:15:20Z</time>
      </trkpt>
      <trkpt lat="48.7163" lon="1.98492">
        <ele>-26</ele>
        <time>2010-05-13T10:15:22Z</time>
      </trkpt>
      <trkpt lat="48.71629" lon="1.98494">
        <ele>-28</ele>
        <time>2010-05-13T10:15:23Z</time>
      </trkpt>
      <trkpt lat="48.71629" lon="1.98496">
        <ele>-32</ele>
        <time>2010-05-13T10:15:25Z</time>
      </trkpt>
      <trkpt lat="48.71626" lon="1.98499">
        <ele>-34</ele>
        <time>2010-05-13T10:15:29Z</time>
      </trkpt>
      <trkpt lat="48.71623" lon="1.98501">
        <ele>-36</ele>
        <time>2010-05-13T10:15:30Z</time>
      </trkpt>
      <trkpt lat="48.7162" lon="1.98502">
        <ele>-36</ele>
        <time>2010-05-13T10:15:31Z</time>
      </trkpt>
      <trkpt lat="48.71618" lon="1.985">
        <ele>-37</ele>
        <time>2010-05-13T10:15:32Z</time>
      </trkpt>
      <trkpt lat="48.71618" lon="1.98497">
        <ele>-38</ele>
        <time>2010-05-13T10:15:33Z</time>
      </trkpt>
      <trkpt lat="48.71618" lon="1.985">
        <ele>-39</ele>
        <time>2010-05-13T10:15:34Z</time>
      </trkpt>
      <trkpt lat="48.71616" lon="1.98504">
        <ele>-40</ele>
        <time>2010-05-13T10:15:37Z</time>
      </trkpt>
      <trkpt lat="48.71613" lon="1.98508">
        <ele>-42</ele>
        <time>2010-05-13T10:15:38Z</time>
      </trkpt>
      <trkpt lat="48.71611" lon="1.98509">
        <ele>-43</ele>
        <time>2010-05-13T10:15:39Z</time>
      </trkpt>
      <trkpt lat="48.71608" lon="1.98508">
        <ele>-43</ele>
        <time>2010-05-13T10:15:40Z</time>
      </trkpt>
      <trkpt lat="48.71606" lon="1.98507">
        <ele>-43</ele>
        <time>2010-05-13T10:15:41Z</time>
      </trkpt>
      <trkpt lat="48.71603" lon="1.98511">
        <ele>-43</ele>
        <time>2010-05-13T10:15:42Z</time>
      </trkpt>
      <trkpt lat="48.71601" lon="1.98513">
        <ele>-43</ele>
        <time>2010-05-13T10:15:43Z</time>
      </trkpt>
      <trkpt lat="48.71599" lon="1.98516">
        <ele>-43</ele>
        <time>2010-05-13T10:15:44Z</time>
      </trkpt>
      <trkpt lat="48.71597" lon="1.98518">
        <ele>-43</ele>
        <time>2010-05-13T10:15:45Z</time>
      </trkpt>
      <trkpt lat="48.71596" lon="1.98519">
        <ele>-43</ele>
        <time>2010-05-13T10:15:46Z</time>
      </trkpt>
      <trkpt lat="48.71594" lon="1.9852">
        <ele>-42</ele>
        <time>2010-05-13T10:15:47Z</time>
      </trkpt>
      <trkpt lat="48.71592" lon="1.98522">
        <ele>-38</ele>
        <time>2010-05-13T10:15:49Z</time>
      </trkpt>
      <trkpt lat="48.71589" lon="1.98524">
        <ele>-33</ele>
        <time>2010-05-13T10:15:53Z</time>
      </trkpt>
      <trkpt lat="48.71588" lon="1.98527">
        <ele>-31</ele>
        <time>2010-05-13T10:15:54Z</time>
      </trkpt>
      <trkpt lat="48.71586" lon="1.98528">
        <ele>-27</ele>
        <time>2010-05-13T10:15:55Z</time>
      </trkpt>
      <trkpt lat="48.71584" lon="1.9853">
        <ele>-24</ele>
        <time>2010-05-13T10:15:56Z</time>
      </trkpt>
      <trkpt lat="48.71582" lon="1.98531">
        <ele>-6</ele>
        <time>2010-05-13T10:16:00Z</time>
      </trkpt>
      <trkpt lat="48.7158" lon="1.98531">
        <ele>124.7</ele>
        <time>2010-05-13T10:16:01Z</time>
      </trkpt>
      <trkpt lat="48.71579" lon="1.9853">
        <ele>4</ele>
        <time>2010-05-13T10:16:02Z</time>
      </trkpt>
      <trkpt lat="48.71575" lon="1.98527">
        <ele>9</ele>
        <time>2010-05-13T10:16:05Z</time>
      </trkpt>
      <trkpt lat="48.7157" lon="1.9853">
        <ele>21</ele>
        <time>2010-05-13T10:16:09Z</time>
      </trkpt>
      <trkpt lat="48.71564" lon="1.9853">
        <ele>28</ele>
        <time>2010-05-13T10:16:10Z</time>
      </trkpt>
      <trkpt lat="48.7156" lon="1.9853">
        <ele>36</ele>
        <time>2010-05-13T10:16:11Z</time>
      </trkpt>
      <trkpt lat="48.71558" lon="1.98529">
        <ele>43</ele>
        <time>2010-05-13T10:16:12Z</time>
      </trkpt>
      <trkpt lat="48.71556" lon="1.98526">
        <ele>49</ele>
        <time>2010-05-13T10:16:13Z</time>
      </trkpt>
      <trkpt lat="48.71555" lon="1.98525">
        <ele>55</ele>
        <time>2010-05-13T10:16:14Z</time>
      </trkpt>
      <trkpt lat="48.71553" lon="1.98527">
        <ele>70</ele>
        <time>2010-05-13T10:16:17Z</time>
      </trkpt>
      <trkpt lat="48.71551" lon="1.98528">
        <ele>74</ele>
        <time>2010-05-13T10:16:18Z</time>
      </trkpt>
      <trkpt lat="48.71549" lon="1.9853">
        <ele>78</ele>
        <time>2010-05-13T10:16:19Z</time>
      </trkpt>
      <trkpt lat="48.71548" lon="1.9853">
        <ele>82</ele>
        <time>2010-05-13T10:16:20Z</time>
      </trkpt>
      <trkpt lat="48.71545" lon="1.98531">
        <ele>86</ele>
        <time>2010-05-13T10:16:21Z</time>
      </trkpt>
      <trkpt lat="48.71544" lon="1.98532">
        <ele>90</ele>
        <time>2010-05-13T10:16:22Z</time>
      </trkpt>
      <trkpt lat="48.71542" lon="1.98534">
        <ele>93</ele>
        <time>2010-05-13T10:16:23Z</time>
      </trkpt>
      <trkpt lat="48.71541" lon="1.98536">
        <ele>96</ele>
        <time>2010-05-13T10:16:24Z</time>
      </trkpt>
      <trkpt lat="48.71539" lon="1.98537">
        <ele>102</ele>
        <time>2010-05-13T10:16:26Z</time>
      </trkpt>
      <trkpt lat="48.71537" lon="1.98537">
        <ele>105</ele>
        <time>2010-05-13T10:16:27Z</time>
      </trkpt>
      <trkpt lat="48.71536" lon="1.98538">
        <ele>108</ele>
        <time>2010-05-13T10:16:28Z</time>
      </trkpt>
      <trkpt lat="48.71534" lon="1.98539">
        <ele>111</ele>
        <time>2010-05-13T10:16:29Z</time>
      </trkpt>
      <trkpt lat="48.71532" lon="1.9854">
        <ele>113</ele>
        <time>2010-05-13T10:16:30Z</time>
      </trkpt>
      <trkpt lat="48.71529" lon="1.98541">
        <ele>115</ele>
        <time>2010-05-13T10:16:31Z</time>
      </trkpt>
      <trkpt lat="48.71527" lon="1.98542">
        <ele>117</ele>
        <time>2010-05-13T10:16:32Z</time>
      </trkpt>
      <trkpt lat="48.71524" lon="1.98545">
        <ele>118</ele>
        <time>2010-05-13T10:16:33Z</time>
      </trkpt>
      <trkpt lat="48.71522" lon="1.98548">
        <ele>119</ele>
        <time>2010-05-13T10:16:34Z</time>
      </trkpt>
      <trkpt lat="48.71521" lon="1.98552">
        <ele>120</ele>
        <time>2010-05-13T10:16:35Z</time>
      </trkpt>
      <trkpt lat="48.7152" lon="1.98554">
        <ele>121</ele>
        <time>2010-05-13T10:16:36Z</time>
      </trkpt>
      <trkpt lat="48.71518" lon="1.98554">
        <ele>122</ele>
        <time>2010-05-13T10:16:37Z</time>
      </trkpt>
      <trkpt lat="48.71516" lon="1.98555">
        <ele>123</ele>
        <time>2010-05-13T10:16:39Z</time>
      </trkpt>
      <trkpt lat="48.71514" lon="1.98557">
        <ele>124</ele>
        <time>2010-05-13T10:16:40Z</time>
      </trkpt>
      <trkpt lat="48.71512" lon="1.98558">
        <ele>125</ele>
        <time>2010-05-13T10:16:41Z</time>
      </trkpt>
      <trkpt lat="48.7151" lon="1.9856">
        <ele>126</ele>
        <time>2010-05-13T10:16:42Z</time>
      </trkpt>
      <trkpt lat="48.71509" lon="1.98562">
        <ele>127</ele>
        <time>2010-05-13T10:16:43Z</time>
      </trkpt>
      <trkpt lat="48.71508" lon="1.98562">
        <ele>128</ele>
        <time>2010-05-13T10:16:46Z</time>
      </trkpt>
      <trkpt lat="48.71504" lon="1.98567">
        <ele>131</ele>
        <time>2010-05-13T10:16:50Z</time>
      </trkpt>
      <trkpt lat="48.71501" lon="1.9857">
        <ele>133</ele>
        <time>2010-05-13T10:16:51Z</time>
      </trkpt>
      <trkpt lat="48.71499" lon="1.98572">
        <ele>135</ele>
        <time>2010-05-13T10:16:52Z</time>
      </trkpt>
      <trkpt lat="48.71495" lon="1.98573">
        <ele>137</ele>
        <time>2010-05-13T10:16:53Z</time>
      </trkpt>
      <trkpt lat="48.71492" lon="1.98575">
        <ele>139</ele>
        <time>2010-05-13T10:16:54Z</time>
      </trkpt>
      <trkpt lat="48.71488" lon="1.98576">
        <ele>141</ele>
        <time>2010-05-13T10:16:55Z</time>
      </trkpt>
      <trkpt lat="48.71486" lon="1.98579">
        <ele>143</ele>
        <time>2010-05-13T10:16:56Z</time>
      </trkpt>
      <trkpt lat="48.71485" lon="1.98579">
        <ele>145</ele>
        <time>2010-05-13T10:16:57Z</time>
      </trkpt>
      <trkpt lat="48.71483" lon="1.9858">
        <ele>146</ele>
        <time>2010-05-13T10:16:58Z</time>
      </trkpt>
      <trkpt lat="48.7148" lon="1.98582">
        <ele>147</ele>
        <time>2010-05-13T10:16:59Z</time>
      </trkpt>
      <trkpt lat="48.71478" lon="1.98584">
        <ele>148</ele>
        <time>2010-05-13T10:17:00Z</time>
      </trkpt>
      <trkpt lat="48.71476" lon="1.98587">
        <ele>148</ele>
        <time>2010-05-13T10:17:01Z</time>
      </trkpt>
      <trkpt lat="48.71475" lon="1.98588">
        <ele>148</ele>
        <time>2010-05-13T10:17:02Z</time>
      </trkpt>
      <trkpt lat="48.71474" lon="1.98591">
        <ele>148</ele>
        <time>2010-05-13T10:17:03Z</time>
      </trkpt>
      <trkpt lat="48.71469" lon="1.98591">
        <ele>147</ele>
        <time>2010-05-13T10:17:07Z</time>
      </trkpt>
      <trkpt lat="48.71462" lon="1.98589">
        <ele>146</ele>
        <time>2010-05-13T10:17:08Z</time>
      </trkpt>
      <trkpt lat="48.71459" lon="1.98588">
        <ele>145</ele>
        <time>2010-05-13T10:17:09Z</time>
      </trkpt>
      <trkpt lat="48.71458" lon="1.98587">
        <ele>144</ele>
        <time>2010-05-13T10:17:10Z</time>
      </trkpt>
      <trkpt lat="48.71455" lon="1.98588">
        <ele>143</ele>
        <time>2010-05-13T10:17:11Z</time>
      </trkpt>
      <trkpt lat="48.71452" lon="1.98588">
        <ele>142</ele>
        <time>2010-05-13T10:17:12Z</time>
      </trkpt>
      <trkpt lat="48.7145" lon="1.98587">
        <ele>141</ele>
        <time>2010-05-13T10:17:13Z</time>
      </trkpt>
      <trkpt lat="48.71447" lon="1.98587">
        <ele>140</ele>
        <time>2010-05-13T10:17:15Z</time>
      </trkpt>
      <trkpt lat="48.71446" lon="1.98588">
        <ele>141</ele>
        <time>2010-05-13T10:17:17Z</time>
      </trkpt>
      <trkpt lat="48.71444" lon="1.98588">
        <ele>144</ele>
        <time>2010-05-13T10:17:19Z</time>
      </trkpt>
      <trkpt lat="48.71441" lon="1.98587">
        <ele>147</ele>
        <time>2010-05-13T10:17:21Z</time>
      </trkpt>
      <trkpt lat="48.71439" lon="1.98588">
        <ele>148</ele>
        <time>2010-05-13T10:17:22Z</time>
      </trkpt>
      <trkpt lat="48.71438" lon="1.98588">
        <ele>149</ele>
        <time>2010-05-13T10:17:23Z</time>
      </trkpt>
      <trkpt lat="48.71433" lon="1.9859">
        <ele>150</ele>
        <time>2010-05-13T10:17:26Z</time>
      </trkpt>
      <trkpt lat="48.71431" lon="1.98587">
        <ele>151</ele>
        <time>2010-05-13T10:17:27Z</time>
      </trkpt>
      <trkpt lat="48.71429" lon="1.98583">
        <ele>152</ele>
        <time>2010-05-13T10:17:28Z</time>
      </trkpt>
      <trkpt lat="48.71426" lon="1.98585">
        <ele>153</ele>
        <time>2010-05-13T10:17:31Z</time>
      </trkpt>
      <trkpt lat="48.71423" lon="1.98585">
        <ele>154</ele>
        <time>2010-05-13T10:17:32Z</time>
      </trkpt>
      <trkpt lat="48.71419" lon="1.98583">
        <ele>155</ele>
        <time>2010-05-13T10:17:33Z</time>
      </trkpt>
      <trkpt lat="48.71415" lon="1.98582">
        <ele>156</ele>
        <time>2010-05-13T10:17:34Z</time>
      </trkpt>
      <trkpt lat="48.71412" lon="1.98581">
        <ele>157</ele>
        <time>2010-05-13T10:17:35Z</time>
      </trkpt>
      <trkpt lat="48.7141" lon="1.98582">
        <ele>157</ele>
        <time>2010-05-13T10:17:36Z</time>
      </trkpt>
      <trkpt lat="48.71408" lon="1.98581">
        <ele>158</ele>
        <time>2010-05-13T10:17:37Z</time>
      </trkpt>
      <trkpt lat="48.71405" lon="1.98581">
        <ele>158</ele>
        <time>2010-05-13T10:17:38Z</time>
      </trkpt>
      <trkpt lat="48.71403" lon="1.98581">
        <ele>158</ele>
        <time>2010-05-13T10:17:39Z</time>
      </trkpt>
      <trkpt lat="48.71401" lon="1.9858">
        <ele>158</ele>
        <time>2010-05-13T10:17:40Z</time>
      </trkpt>
      <trkpt lat="48.71399" lon="1.98578">
        <ele>158</ele>
        <time>2010-05-13T10:17:42Z</time>
      </trkpt>
      <trkpt lat="48.71398" lon="1.98577">
        <ele>157</ele>
        <time>2010-05-13T10:17:43Z</time>
      </trkpt>
      <trkpt lat="48.71397" lon="1.98575">
        <ele>156</ele>
        <time>2010-05-13T10:17:44Z</time>
      </trkpt>
      <trkpt lat="48.71397" lon="1.98574">
        <ele>155</ele>
        <time>2010-05-13T10:17:45Z</time>
      </trkpt>
      <trkpt lat="48.71396" lon="1.98572">
        <ele>154</ele>
        <time>2010-05-13T10:17:46Z</time>
      </trkpt>
      <trkpt lat="48.71395" lon="1.9857">
        <ele>154</ele>
        <time>2010-05-13T10:17:47Z</time>
      </trkpt>
      <trkpt lat="48.71393" lon="1.98569">
        <ele>154</ele>
        <time>2010-05-13T10:17:48Z</time>
      </trkpt>
      <trkpt lat="48.71391" lon="1.98568">
        <ele>153</ele>
        <time>2010-05-13T10:17:49Z</time>
      </trkpt>
      <trkpt lat="48.71389" lon="1.98568">
        <ele>152</ele>
        <time>2010-05-13T10:17:50Z</time>
      </trkpt>
      <trkpt lat="48.71387" lon="1.98567">
        <ele>151</ele>
        <time>2010-05-13T10:17:51Z</time>
      </trkpt>
      <trkpt lat="48.71386" lon="1.98565">
        <ele>149</ele>
        <time>2010-05-13T10:17:53Z</time>
      </trkpt>
      <trkpt lat="48.71383" lon="1.98562">
        <ele>147</ele>
        <time>2010-05-13T10:17:55Z</time>
      </trkpt>
      <trkpt lat="48.71381" lon="1.98561">
        <ele>145</ele>
        <time>2010-05-13T10:17:56Z</time>
      </trkpt>
      <trkpt lat="48.7138" lon="1.9856">
        <ele>143</ele>
        <time>2010-05-13T10:17:57Z</time>
      </trkpt>
      <trkpt lat="48.71379" lon="1.98556">
        <ele>140</ele>
        <time>2010-05-13T10:17:58Z</time>
      </trkpt>
      <trkpt lat="48.71379" lon="1.98554">
        <ele>137</ele>
        <time>2010-05-13T10:17:59Z</time>
      </trkpt>
      <trkpt lat="48.71378" lon="1.98552">
        <ele>134</ele>
        <time>2010-05-13T10:18:00Z</time>
      </trkpt>
      <trkpt lat="48.71378" lon="1.98551">
        <ele>131</ele>
        <time>2010-05-13T10:18:01Z</time>
      </trkpt>
      <trkpt lat="48.71378" lon="1.98547">
        <ele>127</ele>
        <time>2010-05-13T10:18:02Z</time>
      </trkpt>
      <trkpt lat="48.71379" lon="1.98544">
        <ele>123</ele>
        <time>2010-05-13T10:18:03Z</time>
      </trkpt>
      <trkpt lat="48.71379" lon="1.98541">
        <ele>120</ele>
        <time>2010-05-13T10:18:04Z</time>
      </trkpt>
      <trkpt lat="48.71378" lon="1.98537">
        <ele>116</ele>
        <time>2010-05-13T10:18:05Z</time>
      </trkpt>
      <trkpt lat="48.71375" lon="1.98536">
        <ele>112</ele>
        <time>2010-05-13T10:18:06Z</time>
      </trkpt>
      <trkpt lat="48.71373" lon="1.98535">
        <ele>108</ele>
        <time>2010-05-13T10:18:07Z</time>
      </trkpt>
      <trkpt lat="48.7137" lon="1.98532">
        <ele>105</ele>
        <time>2010-05-13T10:18:08Z</time>
      </trkpt>
      <trkpt lat="48.71368" lon="1.98531">
        <ele>102</ele>
        <time>2010-05-13T10:18:09Z</time>
      </trkpt>
      <trkpt lat="48.71366" lon="1.9853">
        <ele>99</ele>
        <time>2010-05-13T10:18:10Z</time>
      </trkpt>
      <trkpt lat="48.71364" lon="1.98529">
        <ele>96</ele>
        <time>2010-05-13T10:18:11Z</time>
      </trkpt>
      <trkpt lat="48.71363" lon="1.98527">
        <ele>94</ele>
        <time>2010-05-13T10:18:12Z</time>
      </trkpt>
      <trkpt lat="48.71361" lon="1.98527">
        <ele>92</ele>
        <time>2010-05-13T10:18:13Z</time>
      </trkpt>
      <trkpt lat="48.7136" lon="1.98526">
        <ele>91</ele>
        <time>2010-05-13T10:18:14Z</time>
      </trkpt>
      <trkpt lat="48.71358" lon="1.98524">
        <ele>90</ele>
        <time>2010-05-13T10:18:15Z</time>
      </trkpt>
      <trkpt lat="48.71356" lon="1.98521">
        <ele>88</ele>
        <time>2010-05-13T10:18:17Z</time>
      </trkpt>
      <trkpt lat="48.71353" lon="1.98521">
        <ele>88</ele>
        <time>2010-05-13T10:18:18Z</time>
      </trkpt>
      <trkpt lat="48.71352" lon="1.98521">
        <ele>88</ele>
        <time>2010-05-13T10:18:19Z</time>
      </trkpt>
      <trkpt lat="48.71351" lon="1.98522">
        <ele>88</ele>
        <time>2010-05-13T10:18:20Z</time>
      </trkpt>
      <trkpt lat="48.71349" lon="1.98523">
        <ele>89</ele>
        <time>2010-05-13T10:18:21Z</time>
      </trkpt>
      <trkpt lat="48.71347" lon="1.98523">
        <ele>90</ele>
        <time>2010-05-13T10:18:22Z</time>
      </trkpt>
      <trkpt lat="48.71345" lon="1.98523">
        <ele>91</ele>
        <time>2010-05-13T10:18:23Z</time>
      </trkpt>
      <trkpt lat="48.71343" lon="1.98523">
        <ele>92</ele>
        <time>2010-05-13T10:18:24Z</time>
      </trkpt>
      <trkpt lat="48.71341" lon="1.98523">
        <ele>93</ele>
        <time>2010-05-13T10:18:25Z</time>
      </trkpt>
      <trkpt lat="48.71339" lon="1.98523">
        <ele>94</ele>
        <time>2010-05-13T10:18:26Z</time>
      </trkpt>
      <trkpt lat="48.71337" lon="1.98522">
        <ele>95</ele>
        <time>2010-05-13T10:18:27Z</time>
      </trkpt>
      <trkpt lat="48.71333" lon="1.98519">
        <ele>96</ele>
        <time>2010-05-13T10:18:30Z</time>
      </trkpt>
      <trkpt lat="48.71329" lon="1.98518">
        <ele>97</ele>
        <time>2010-05-13T10:18:31Z</time>
      </trkpt>
      <trkpt lat="48.7133" lon="1.98518">
        <ele>100</ele>
        <time>2010-05-13T10:18:34Z</time>
      </trkpt>
      <trkpt lat="48.71328" lon="1.98518">
        <ele>101</ele>
        <time>2010-05-13T10:18:35Z</time>
      </trkpt>
      <trkpt lat="48.71327" lon="1.98517">
        <ele>102</ele>
        <time>2010-05-13T10:18:36Z</time>
      </trkpt>
      <trkpt lat="48.71326" lon="1.98515">
        <ele>103</ele>
        <time>2010-05-13T10:18:37Z</time>
      </trkpt>
      <trkpt lat="48.71325" lon="1.98512">
        <ele>105</ele>
        <time>2010-05-13T10:18:39Z</time>
      </trkpt>
      <trkpt lat="48.71323" lon="1.98511">
        <ele>106</ele>
        <time>2010-05-13T10:18:40Z</time>
      </trkpt>
      <trkpt lat="48.71322" lon="1.9851">
        <ele>107</ele>
        <time>2010-05-13T10:18:41Z</time>
      </trkpt>
      <trkpt lat="48.71321" lon="1.98509">
        <ele>108</ele>
        <time>2010-05-13T10:18:42Z</time>
      </trkpt>
      <trkpt lat="48.71318" lon="1.98508">
        <ele>110</ele>
        <time>2010-05-13T10:18:44Z</time>
      </trkpt>
      <trkpt lat="48.71316" lon="1.98507">
        <ele>111</ele>
        <time>2010-05-13T10:18:45Z</time>
      </trkpt>
      <trkpt lat="48.71314" lon="1.98507">
        <ele>112</ele>
        <time>2010-05-13T10:18:46Z</time>
      </trkpt>
      <trkpt lat="48.71312" lon="1.98506">
        <ele>112</ele>
        <time>2010-05-13T10:18:47Z</time>
      </trkpt>
      <trkpt lat="48.71309" lon="1.98504">
        <ele>112</ele>
        <time>2010-05-13T10:18:49Z</time>
      </trkpt>
      <trkpt lat="48.71307" lon="1.98502">
        <ele>112</ele>
        <time>2010-05-13T10:18:50Z</time>
      </trkpt>
      <trkpt lat="48.71306" lon="1.985">
        <ele>112</ele>
        <time>2010-05-13T10:18:51Z</time>
      </trkpt>
      <trkpt lat="48.71305" lon="1.98499">
        <ele>112</ele>
        <time>2010-05-13T10:18:53Z</time>
      </trkpt>
      <trkpt lat="48.71303" lon="1.985">
        <ele>112</ele>
        <time>2010-05-13T10:18:59Z</time>
      </trkpt>
      <trkpt lat="48.71303" lon="1.98502">
        <ele>112</ele>
        <time>2010-05-13T10:19:01Z</time>
      </trkpt>
      <trkpt lat="48.71304" lon="1.98504">
        <ele>112</ele>
        <time>2010-05-13T10:19:03Z</time>
      </trkpt>
      <trkpt lat="48.71304" lon="1.98502">
        <ele>114</ele>
        <time>2010-05-13T10:19:05Z</time>
      </trkpt>
      <trkpt lat="48.71304" lon="1.985">
        <ele>118</ele>
        <time>2010-05-13T10:19:09Z</time>
      </trkpt>
      <trkpt lat="48.71303" lon="1.98501">
        <ele>119</ele>
        <time>2010-05-13T10:19:10Z</time>
      </trkpt>
      <trkpt lat="48.71302" lon="1.98501">
        <ele>120</ele>
        <time>2010-05-13T10:19:11Z</time>
      </trkpt>
      <trkpt lat="48.713" lon="1.98502">
        <ele>121</ele>
        <time>2010-05-13T10:19:12Z</time>
      </trkpt>
      <trkpt lat="48.71297" lon="1.98504">
        <ele>123</ele>
        <time>2010-05-13T10:19:14Z</time>
      </trkpt>
      <trkpt lat="48.71295" lon="1.98504">
        <ele>123</ele>
        <time>2010-05-13T10:19:15Z</time>
      </trkpt>
      <trkpt lat="48.71294" lon="1.98503">
        <ele>123</ele>
        <time>2010-05-13T10:19:16Z</time>
      </trkpt>
      <trkpt lat="48.71292" lon="1.98503">
        <ele>123</ele>
        <time>2010-05-13T10:19:18Z</time>
      </trkpt>
      <trkpt lat="48.71291" lon="1.98505">
        <ele>123</ele>
        <time>2010-05-13T10:19:20Z</time>
      </trkpt>
      <trkpt lat="48.71289" lon="1.98507">
        <ele>123</ele>
        <time>2010-05-13T10:19:22Z</time>
      </trkpt>
      <trkpt lat="48.71289" lon="1.98506">
        <ele>123</ele>
        <time>2010-05-13T10:19:24Z</time>
      </trkpt>
      <trkpt lat="48.71289" lon="1.98504">
        <ele>122</ele>
        <time>2010-05-13T10:19:28Z</time>
      </trkpt>
      <trkpt lat="48.7129" lon="1.98502">
        <ele>120</ele>
        <time>2010-05-13T10:19:33Z</time>
      </trkpt>
      <trkpt lat="48.71291" lon="1.98501">
        <ele>118</ele>
        <time>2010-05-13T10:19:35Z</time>
      </trkpt>
      <trkpt lat="48.71293" lon="1.985">
        <ele>117</ele>
        <time>2010-05-13T10:19:37Z</time>
      </trkpt>
      <trkpt lat="48.71294" lon="1.98498">
        <ele>117</ele>
        <time>2010-05-13T10:19:39Z</time>
      </trkpt>
      <trkpt lat="48.71294" lon="1.98496">
        <ele>117</ele>
        <time>2010-05-13T10:19:42Z</time>
      </trkpt>
      <trkpt lat="48.71293" lon="1.98495">
        <ele>117</ele>
        <time>2010-05-13T10:19:45Z</time>
      </trkpt>
      <trkpt lat="48.71291" lon="1.98494">
        <ele>117</ele>
        <time>2010-05-13T10:19:46Z</time>
      </trkpt>
      <trkpt lat="48.71288" lon="1.98493">
        <ele>117</ele>
        <time>2010-05-13T10:19:47Z</time>
      </trkpt>
      <trkpt lat="48.71286" lon="1.98492">
        <ele>117</ele>
        <time>2010-05-13T10:19:48Z</time>
      </trkpt>
      <trkpt lat="48.71284" lon="1.9849">
        <ele>116</ele>
        <time>2010-05-13T10:19:49Z</time>
      </trkpt>
      <trkpt lat="48.71283" lon="1.98489">
        <ele>115</ele>
        <time>2010-05-13T10:19:50Z</time>
      </trkpt>
      <trkpt lat="48.71284" lon="1.98488">
        <ele>113</ele>
        <time>2010-05-13T10:19:52Z</time>
      </trkpt>
      <trkpt lat="48.71284" lon="1.98486">
        <ele>111</ele>
        <time>2010-05-13T10:19:54Z</time>
      </trkpt>
      <trkpt lat="48.71285" lon="1.98485">
        <ele>109</ele>
        <time>2010-05-13T10:19:56Z</time>
      </trkpt>
      <trkpt lat="48.71287" lon="1.98486">
        <ele>108</ele>
        <time>2010-05-13T10:19:59Z</time>
      </trkpt>
      <trkpt lat="48.71285" lon="1.98486">
        <ele>108</ele>
        <time>2010-05-13T10:20:02Z</time>
      </trkpt>
      <trkpt lat="48.71285" lon="1.98484">
        <ele>108</ele>
        <time>2010-05-13T10:20:05Z</time>
      </trkpt>
      <trkpt lat="48.71286" lon="1.98485">
        <ele>108</ele>
        <time>2010-05-13T10:20:09Z</time>
      </trkpt>
      <trkpt lat="48.71285" lon="1.98487">
        <ele>108</ele>
        <time>2010-05-13T10:20:14Z</time>
      </trkpt>
      <trkpt lat="48.71283" lon="1.98488">
        <ele>108</ele>
        <time>2010-05-13T10:20:17Z</time>
      </trkpt>
      <trkpt lat="48.71282" lon="1.98488">
        <ele>108</ele>
        <time>2010-05-13T10:20:18Z</time>
      </trkpt>
      <trkpt lat="48.71297" lon="1.98472">
        <ele>102</ele>
        <time>2010-05-13T10:20:34Z</time>
      </trkpt>
      <trkpt lat="48.71296" lon="1.98462">
        <ele>100</ele>
        <time>2010-05-13T10:20:35Z</time>
      </trkpt>
      <trkpt lat="48.71296" lon="1.98459">
        <ele>98</ele>
        <time>2010-05-13T10:20:36Z</time>
      </trkpt>
      <trkpt lat="48.71297" lon="1.98454">
        <ele>96</ele>
        <time>2010-05-13T10:20:37Z</time>
      </trkpt>
      <trkpt lat="48.71298" lon="1.98448">
        <ele>94</ele>
        <time>2010-05-13T10:20:38Z</time>
      </trkpt>
      <trkpt lat="48.71298" lon="1.98444">
        <ele>93</ele>
        <time>2010-05-13T10:20:39Z</time>
      </trkpt>
      <trkpt lat="48.71298" lon="1.98443">
        <ele>91</ele>
        <time>2010-05-13T10:20:41Z</time>
      </trkpt>
      <trkpt lat="48.71298" lon="1.9844">
        <ele>91</ele>
        <time>2010-05-13T10:20:42Z</time>
      </trkpt>
      <trkpt lat="48.71299" lon="1.98438">
        <ele>91</ele>
        <time>2010-05-13T10:20:44Z</time>
      </trkpt>
      <trkpt lat="48.713" lon="1.98436">
        <ele>91</ele>
        <time>2010-05-13T10:20:45Z</time>
      </trkpt>
      <trkpt lat="48.71301" lon="1.98433">
        <ele>91</ele>
        <time>2010-05-13T10:20:46Z</time>
      </trkpt>
      <trkpt lat="48.71301" lon="1.9843">
        <ele>91</ele>
        <time>2010-05-13T10:20:47Z</time>
      </trkpt>
      <trkpt lat="48.71301" lon="1.98428">
        <ele>91</ele>
        <time>2010-05-13T10:20:48Z</time>
      </trkpt>
      <trkpt lat="48.71302" lon="1.98425">
        <ele>91</ele>
        <time>2010-05-13T10:20:49Z</time>
      </trkpt>
      <trkpt lat="48.71302" lon="1.98422">
        <ele>91</ele>
        <time>2010-05-13T10:20:50Z</time>
      </trkpt>
      <trkpt lat="48.71303" lon="1.98419">
        <ele>91</ele>
        <time>2010-05-13T10:20:51Z</time>
      </trkpt>
      <trkpt lat="48.71303" lon="1.98418">
        <ele>91</ele>
        <time>2010-05-13T10:20:52Z</time>
      </trkpt>
      <trkpt lat="48.71304" lon="1.98415">
        <ele>91</ele>
        <time>2010-05-13T10:20:54Z</time>
      </trkpt>
      <trkpt lat="48.71305" lon="1.98412">
        <ele>92</ele>
        <time>2010-05-13T10:20:56Z</time>
      </trkpt>
      <trkpt lat="48.71305" lon="1.9841">
        <ele>93</ele>
        <time>2010-05-13T10:20:57Z</time>
      </trkpt>
      <trkpt lat="48.71306" lon="1.98408">
        <ele>94</ele>
        <time>2010-05-13T10:20:58Z</time>
      </trkpt>
      <trkpt lat="48.71307" lon="1.98406">
        <ele>95</ele>
        <time>2010-05-13T10:20:59Z</time>
      </trkpt>
      <trkpt lat="48.71309" lon="1.98403">
        <ele>96</ele>
        <time>2010-05-13T10:21:00Z</time>
      </trkpt>
      <trkpt lat="48.7131" lon="1.98401">
        <ele>97</ele>
        <time>2010-05-13T10:21:01Z</time>
      </trkpt>
      <trkpt lat="48.7131" lon="1.98399">
        <ele>98</ele>
        <time>2010-05-13T10:21:02Z</time>
      </trkpt>
      <trkpt lat="48.71311" lon="1.98397">
        <ele>100</ele>
        <time>2010-05-13T10:21:04Z</time>
      </trkpt>
      <trkpt lat="48.71311" lon="1.98395">
        <ele>101</ele>
        <time>2010-05-13T10:21:05Z</time>
      </trkpt>
      <trkpt lat="48.71312" lon="1.98391">
        <ele>103</ele>
        <time>2010-05-13T10:21:09Z</time>
      </trkpt>
      <trkpt lat="48.71311" lon="1.98388">
        <ele>104</ele>
        <time>2010-05-13T10:21:10Z</time>
      </trkpt>
      <trkpt lat="48.71313" lon="1.98386">
        <ele>106</ele>
        <time>2010-05-13T10:21:12Z</time>
      </trkpt>
      <trkpt lat="48.71314" lon="1.98385">
        <ele>107</ele>
        <time>2010-05-13T10:21:13Z</time>
      </trkpt>
      <trkpt lat="48.71316" lon="1.98384">
        <ele>108</ele>
        <time>2010-05-13T10:21:14Z</time>
      </trkpt>
      <trkpt lat="48.71318" lon="1.98385">
        <ele>108</ele>
        <time>2010-05-13T10:21:15Z</time>
      </trkpt>
      <trkpt lat="48.7132" lon="1.98386">
        <ele>108</ele>
        <time>2010-05-13T10:21:16Z</time>
      </trkpt>
      <trkpt lat="48.71322" lon="1.98385">
        <ele>108</ele>
        <time>2010-05-13T10:21:17Z</time>
      </trkpt>
      <trkpt lat="48.71323" lon="1.98386">
        <ele>108</ele>
        <time>2010-05-13T10:21:18Z</time>
      </trkpt>
      <trkpt lat="48.71325" lon="1.98387">
        <ele>108</ele>
        <time>2010-05-13T10:21:19Z</time>
      </trkpt>
      <trkpt lat="48.71326" lon="1.98388">
        <ele>108</ele>
        <time>2010-05-13T10:21:20Z</time>
      </trkpt>
      <trkpt lat="48.71328" lon="1.98387">
        <ele>107</ele>
        <time>2010-05-13T10:21:21Z</time>
      </trkpt>
      <trkpt lat="48.71329" lon="1.98388">
        <ele>106</ele>
        <time>2010-05-13T10:21:22Z</time>
      </trkpt>
      <trkpt lat="48.71331" lon="1.98388">
        <ele>104</ele>
        <time>2010-05-13T10:21:23Z</time>
      </trkpt>
      <trkpt lat="48.71332" lon="1.98389">
        <ele>102</ele>
        <time>2010-05-13T10:21:24Z</time>
      </trkpt>
      <trkpt lat="48.71333" lon="1.98391">
        <ele>101</ele>
        <time>2010-05-13T10:21:25Z</time>
      </trkpt>
      <trkpt lat="48.71331" lon="1.98393">
        <ele>97</ele>
        <time>2010-05-13T10:21:29Z</time>
      </trkpt>
      <trkpt lat="48.71333" lon="1.98392">
        <ele>96</ele>
        <time>2010-05-13T10:21:30Z</time>
      </trkpt>
      <trkpt lat="48.71334" lon="1.98391">
        <ele>96</ele>
        <time>2010-05-13T10:21:32Z</time>
      </trkpt>
      <trkpt lat="48.71334" lon="1.98389">
        <ele>96</ele>
        <time>2010-05-13T10:21:33Z</time>
      </trkpt>
      <trkpt lat="48.71335" lon="1.98385">
        <ele>96</ele>
        <time>2010-05-13T10:21:35Z</time>
      </trkpt>
      <trkpt lat="48.71337" lon="1.98383">
        <ele>94</ele>
        <time>2010-05-13T10:21:37Z</time>
      </trkpt>
      <trkpt lat="48.71337" lon="1.98381">
        <ele>93</ele>
        <time>2010-05-13T10:21:38Z</time>
      </trkpt>
      <trkpt lat="48.71339" lon="1.9838">
        <ele>92</ele>
        <time>2010-05-13T10:21:39Z</time>
      </trkpt>
      <trkpt lat="48.7134" lon="1.98377">
        <ele>91</ele>
        <time>2010-05-13T10:21:40Z</time>
      </trkpt>
      <trkpt lat="48.71341" lon="1.98375">
        <ele>90</ele>
        <time>2010-05-13T10:21:41Z</time>
      </trkpt>
      <trkpt lat="48.71341" lon="1.98373">
        <ele>84</ele>
        <time>2010-05-13T10:21:46Z</time>
      </trkpt>
      <trkpt lat="48.71339" lon="1.98371">
        <ele>84</ele>
        <time>2010-05-13T10:21:48Z</time>
      </trkpt>
      <trkpt lat="48.71339" lon="1.98373">
        <ele>88</ele>
        <time>2010-05-13T10:21:52Z</time>
      </trkpt>
      <trkpt lat="48.71339" lon="1.98375">
        <ele>97</ele>
        <time>2010-05-13T10:21:55Z</time>
      </trkpt>
      <trkpt lat="48.7134" lon="1.98376">
        <ele>109</ele>
        <time>2010-05-13T10:21:58Z</time>
      </trkpt>
      <trkpt lat="48.71338" lon="1.98376">
        <ele>118</ele>
        <time>2010-05-13T10:22:01Z</time>
      </trkpt>
      <trkpt lat="48.71336" lon="1.98377">
        <ele>120</ele>
        <time>2010-05-13T10:22:02Z</time>
      </trkpt>
      <trkpt lat="48.71334" lon="1.98377">
        <ele>122</ele>
        <time>2010-05-13T10:22:03Z</time>
      </trkpt>
      <trkpt lat="48.71333" lon="1.98377">
        <ele>123</ele>
        <time>2010-05-13T10:22:04Z</time>
      </trkpt>
      <trkpt lat="48.71331" lon="1.98376">
        <ele>124</ele>
        <time>2010-05-13T10:22:05Z</time>
      </trkpt>
      <trkpt lat="48.71331" lon="1.98378">
        <ele>125</ele>
        <time>2010-05-13T10:22:07Z</time>
      </trkpt>
      <trkpt lat="48.7133" lon="1.98381">
        <ele>125</ele>
        <time>2010-05-13T10:22:08Z</time>
      </trkpt>
      <trkpt lat="48.7133" lon="1.98384">
        <ele>125</ele>
        <time>2010-05-13T10:22:10Z</time>
      </trkpt>
      <trkpt lat="48.71329" lon="1.98386">
        <ele>125</ele>
        <time>2010-05-13T10:22:11Z</time>
      </trkpt>
      <trkpt lat="48.71328" lon="1.98381">
        <ele>116</ele>
        <time>2010-05-13T10:22:22Z</time>
      </trkpt>
      <trkpt lat="48.7133" lon="1.98378">
        <ele>116</ele>
        <time>2010-05-13T10:22:23Z</time>
      </trkpt>
      <trkpt lat="48.7133" lon="1.98375">
        <ele>116</ele>
        <time>2010-05-13T10:22:24Z</time>
      </trkpt>
      <trkpt lat="48.71331" lon="1.98373">
        <ele>116</ele>
        <time>2010-05-13T10:22:25Z</time>
      </trkpt>
      <trkpt lat="48.71332" lon="1.9837">
        <ele>116</ele>
        <time>2010-05-13T10:22:26Z</time>
      </trkpt>
      <trkpt lat="48.71333" lon="1.98368">
        <ele>116</ele>
        <time>2010-05-13T10:22:27Z</time>
      </trkpt>
      <trkpt lat="48.71333" lon="1.98365">
        <ele>116</ele>
        <time>2010-05-13T10:22:28Z</time>
      </trkpt>
      <trkpt lat="48.71334" lon="1.98361">
        <ele>116</ele>
        <time>2010-05-13T10:22:29Z</time>
      </trkpt>
      <trkpt lat="48.71336" lon="1.98357">
        <ele>115</ele>
        <time>2010-05-13T10:22:30Z</time>
      </trkpt>
      <trkpt lat="48.71347" lon="1.98331">
        <ele>112</ele>
        <time>2010-05-13T10:22:38Z</time>
      </trkpt>
      <trkpt lat="48.71348" lon="1.98328">
        <ele>112</ele>
        <time>2010-05-13T10:22:39Z</time>
      </trkpt>
      <trkpt lat="48.71352" lon="1.98322">
        <ele>112</ele>
        <time>2010-05-13T10:22:42Z</time>
      </trkpt>
      <trkpt lat="48.71353" lon="1.98317">
        <ele>112</ele>
        <time>2010-05-13T10:22:43Z</time>
      </trkpt>
      <trkpt lat="48.71351" lon="1.98312">
        <ele>112</ele>
        <time>2010-05-13T10:22:44Z</time>
      </trkpt>
      <trkpt lat="48.71353" lon="1.98308">
        <ele>113</ele>
        <time>2010-05-13T10:22:46Z</time>
      </trkpt>
      <trkpt lat="48.71353" lon="1.98305">
        <ele>113</ele>
        <time>2010-05-13T10:22:47Z</time>
      </trkpt>
      <trkpt lat="48.71355" lon="1.98302">
        <ele>113</ele>
        <time>2010-05-13T10:22:50Z</time>
      </trkpt>
      <trkpt lat="48.71355" lon="1.983">
        <ele>114</ele>
        <time>2010-05-13T10:22:51Z</time>
      </trkpt>
      <trkpt lat="48.71356" lon="1.98299">
        <ele>115</ele>
        <time>2010-05-13T10:22:52Z</time>
      </trkpt>
      <trkpt lat="48.71357" lon="1.98297">
        <ele>117</ele>
        <time>2010-05-13T10:22:54Z</time>
      </trkpt>
      <trkpt lat="48.71358" lon="1.98293">
        <ele>117</ele>
        <time>2010-05-13T10:22:56Z</time>
      </trkpt>
      <trkpt lat="48.71366" lon="1.98284">
        <ele>117</ele>
        <time>2010-05-13T10:23:02Z</time>
      </trkpt>
      <trkpt lat="48.71371" lon="1.98284">
        <ele>117</ele>
        <time>2010-05-13T10:23:03Z</time>
      </trkpt>
      <trkpt lat="48.71372" lon="1.98284">
        <ele>118</ele>
        <time>2010-05-13T10:23:04Z</time>
      </trkpt>
      <trkpt lat="48.71372" lon="1.98282">
        <ele>119</ele>
        <time>2010-05-13T10:23:05Z</time>
      </trkpt>
      <trkpt lat="48.71371" lon="1.98282">
        <ele>120</ele>
        <time>2010-05-13T10:23:06Z</time>
      </trkpt>
      <trkpt lat="48.71371" lon="1.98279">
        <ele>125</ele>
        <time>2010-05-13T10:23:10Z</time>
      </trkpt>
      <trkpt lat="48.71373" lon="1.98279">
        <ele>125</ele>
        <time>2010-05-13T10:23:13Z</time>
      </trkpt>
      <trkpt lat="48.71375" lon="1.98278">
        <ele>125</ele>
        <time>2010-05-13T10:23:14Z</time>
      </trkpt>
      <trkpt lat="48.71377" lon="1.98278">
        <ele>124</ele>
        <time>2010-05-13T10:23:15Z</time>
      </trkpt>
      <trkpt lat="48.71376" lon="1.98279">
        <ele>122</ele>
        <time>2010-05-13T10:23:17Z</time>
      </trkpt>
      <trkpt lat="48.71374" lon="1.9828">
        <ele>119</ele>
        <time>2010-05-13T10:23:19Z</time>
      </trkpt>
      <trkpt lat="48.71373" lon="1.98281">
        <ele>115</ele>
        <time>2010-05-13T10:23:23Z</time>
      </trkpt>
      <trkpt lat="48.71372" lon="1.98283">
        <ele>113</ele>
        <time>2010-05-13T10:23:32Z</time>
      </trkpt>
      <trkpt lat="48.71371" lon="1.98285">
        <ele>113</ele>
        <time>2010-05-13T10:23:42Z</time>
      </trkpt>
      <trkpt lat="48.71372" lon="1.98282">
        <ele>113</ele>
        <time>2010-05-13T10:23:47Z</time>
      </trkpt>
      <trkpt lat="48.71372" lon="1.98279">
        <ele>113</ele>
        <time>2010-05-13T10:23:49Z</time>
      </trkpt>
      <trkpt lat="48.71373" lon="1.98277">
        <ele>113</ele>
        <time>2010-05-13T10:23:51Z</time>
      </trkpt>
      <trkpt lat="48.71374" lon="1.98276">
        <ele>113</ele>
        <time>2010-05-13T10:23:52Z</time>
      </trkpt>
      <trkpt lat="48.71375" lon="1.98275">
        <ele>113</ele>
        <time>2010-05-13T10:23:53Z</time>
      </trkpt>
      <trkpt lat="48.71377" lon="1.98273">
        <ele>113</ele>
        <time>2010-05-13T10:23:54Z</time>
      </trkpt>
      <trkpt lat="48.71377" lon="1.98271">
        <ele>113</ele>
        <time>2010-05-13T10:23:55Z</time>
      </trkpt>
      <trkpt lat="48.71378" lon="1.98268">
        <ele>113</ele>
        <time>2010-05-13T10:23:57Z</time>
      </trkpt>
      <trkpt lat="48.7138" lon="1.98268">
        <ele>113</ele>
        <time>2010-05-13T10:23:59Z</time>
      </trkpt>
      <trkpt lat="48.71382" lon="1.98267">
        <ele>113</ele>
        <time>2010-05-13T10:24:00Z</time>
      </trkpt>
      <trkpt lat="48.71383" lon="1.98266">
        <ele>113</ele>
        <time>2010-05-13T10:24:01Z</time>
      </trkpt>
      <trkpt lat="48.71386" lon="1.98266">
        <ele>113</ele>
        <time>2010-05-13T10:24:02Z</time>
      </trkpt>
      <trkpt lat="48.71389" lon="1.98265">
        <ele>113</ele>
        <time>2010-05-13T10:24:03Z</time>
      </trkpt>
      <trkpt lat="48.71392" lon="1.98263">
        <ele>112</ele>
        <time>2010-05-13T10:24:04Z</time>
      </trkpt>
      <trkpt lat="48.71394" lon="1.98262">
        <ele>111</ele>
        <time>2010-05-13T10:24:05Z</time>
      </trkpt>
      <trkpt lat="48.71396" lon="1.98259">
        <ele>110</ele>
        <time>2010-05-13T10:24:06Z</time>
      </trkpt>
      <trkpt lat="48.71398" lon="1.98258">
        <ele>109</ele>
        <time>2010-05-13T10:24:07Z</time>
      </trkpt>
      <trkpt lat="48.71399" lon="1.98256">
        <ele>106</ele>
        <time>2010-05-13T10:24:09Z</time>
      </trkpt>
      <trkpt lat="48.71401" lon="1.98255">
        <ele>105</ele>
        <time>2010-05-13T10:24:10Z</time>
      </trkpt>
      <trkpt lat="48.71402" lon="1.98254">
        <ele>104</ele>
        <time>2010-05-13T10:24:11Z</time>
      </trkpt>
      <trkpt lat="48.71403" lon="1.98252">
        <ele>103</ele>
        <time>2010-05-13T10:24:12Z</time>
      </trkpt>
      <trkpt lat="48.71403" lon="1.98249">
        <ele>102</ele>
        <time>2010-05-13T10:24:13Z</time>
      </trkpt>
      <trkpt lat="48.71404" lon="1.98247">
        <ele>101</ele>
        <time>2010-05-13T10:24:14Z</time>
      </trkpt>
      <trkpt lat="48.71406" lon="1.98242">
        <ele>99</ele>
        <time>2010-05-13T10:24:18Z</time>
      </trkpt>
      <trkpt lat="48.71411" lon="1.98237">
        <ele>98</ele>
        <time>2010-05-13T10:24:19Z</time>
      </trkpt>
      <trkpt lat="48.71413" lon="1.98235">
        <ele>97</ele>
        <time>2010-05-13T10:24:20Z</time>
      </trkpt>
      <trkpt lat="48.71415" lon="1.98232">
        <ele>95</ele>
        <time>2010-05-13T10:24:22Z</time>
      </trkpt>
      <trkpt lat="48.71415" lon="1.9823">
        <ele>93</ele>
        <time>2010-05-13T10:24:23Z</time>
      </trkpt>
      <trkpt lat="48.71417" lon="1.98228">
        <ele>91</ele>
        <time>2010-05-13T10:24:25Z</time>
      </trkpt>
      <trkpt lat="48.71419" lon="1.98226">
        <ele>90</ele>
        <time>2010-05-13T10:24:26Z</time>
      </trkpt>
      <trkpt lat="48.71419" lon="1.98224">
        <ele>89</ele>
        <time>2010-05-13T10:24:27Z</time>
      </trkpt>
      <trkpt lat="48.71418" lon="1.9822">
        <ele>88</ele>
        <time>2010-05-13T10:24:28Z</time>
      </trkpt>
      <trkpt lat="48.71417" lon="1.98218">
        <ele>88</ele>
        <time>2010-05-13T10:24:29Z</time>
      </trkpt>
      <trkpt lat="48.71418" lon="1.98215">
        <ele>89</ele>
        <time>2010-05-13T10:24:30Z</time>
      </trkpt>
      <trkpt lat="48.71418" lon="1.98213">
        <ele>90</ele>
        <time>2010-05-13T10:24:31Z</time>
      </trkpt>
      <trkpt lat="48.71419" lon="1.98206">
        <ele>98</ele>
        <time>2010-05-13T10:24:38Z</time>
      </trkpt>
      <trkpt lat="48.71419" lon="1.98203">
        <ele>99</ele>
        <time>2010-05-13T10:24:39Z</time>
      </trkpt>
      <trkpt lat="48.71418" lon="1.98197">
        <ele>99</ele>
        <time>2010-05-13T10:24:40Z</time>
      </trkpt>
      <trkpt lat="48.7142" lon="1.98194">
        <ele>99</ele>
        <time>2010-05-13T10:24:41Z</time>
      </trkpt>
      <trkpt lat="48.71424" lon="1.98188">
        <ele>99</ele>
        <time>2010-05-13T10:24:44Z</time>
      </trkpt>
      <trkpt lat="48.71426" lon="1.98185">
        <ele>99</ele>
        <time>2010-05-13T10:24:45Z</time>
      </trkpt>
      <trkpt lat="48.71427" lon="1.9818">
        <ele>99</ele>
        <time>2010-05-13T10:24:46Z</time>
      </trkpt>
      <trkpt lat="48.71429" lon="1.98179">
        <ele>100</ele>
        <time>2010-05-13T10:24:47Z</time>
      </trkpt>
      <trkpt lat="48.7143" lon="1.98176">
        <ele>101</ele>
        <time>2010-05-13T10:24:48Z</time>
      </trkpt>
      <trkpt lat="48.7143" lon="1.98174">
        <ele>102</ele>
        <time>2010-05-13T10:24:49Z</time>
      </trkpt>
      <trkpt lat="48.71431" lon="1.98171">
        <ele>103</ele>
        <time>2010-05-13T10:24:50Z</time>
      </trkpt>
      <trkpt lat="48.71431" lon="1.98168">
        <ele>104</ele>
        <time>2010-05-13T10:24:51Z</time>
      </trkpt>
      <trkpt lat="48.71431" lon="1.98166">
        <ele>105</ele>
        <time>2010-05-13T10:24:52Z</time>
      </trkpt>
      <trkpt lat="48.71432" lon="1.98162">
        <ele>106</ele>
        <time>2010-05-13T10:24:53Z</time>
      </trkpt>
      <trkpt lat="48.71433" lon="1.98159">
        <ele>107</ele>
        <time>2010-05-13T10:24:54Z</time>
      </trkpt>
      <trkpt lat="48.71434" lon="1.98157">
        <ele>108</ele>
        <time>2010-05-13T10:24:56Z</time>
      </trkpt>
      <trkpt lat="48.71435" lon="1.98153">
        <ele>108</ele>
        <time>2010-05-13T10:24:58Z</time>
      </trkpt>
      <trkpt lat="48.71434" lon="1.98151">
        <ele>108</ele>
        <time>2010-05-13T10:24:59Z</time>
      </trkpt>
      <trkpt lat="48.71434" lon="1.98149">
        <ele>109</ele>
        <time>2010-05-13T10:25:00Z</time>
      </trkpt>
      <trkpt lat="48.71435" lon="1.98146">
        <ele>110</ele>
        <time>2010-05-13T10:25:01Z</time>
      </trkpt>
      <trkpt lat="48.71435" lon="1.98143">
        <ele>111</ele>
        <time>2010-05-13T10:25:02Z</time>
      </trkpt>
      <trkpt lat="48.71435" lon="1.98141">
        <ele>112</ele>
        <time>2010-05-13T10:25:04Z</time>
      </trkpt>
      <trkpt lat="48.71435" lon="1.9814">
        <ele>112</ele>
        <time>2010-05-13T10:25:05Z</time>
      </trkpt>
      <trkpt lat="48.71436" lon="1.98137">
        <ele>112</ele>
        <time>2010-05-13T10:25:06Z</time>
      </trkpt>
      <trkpt lat="48.71436" lon="1.98135">
        <ele>112</ele>
        <time>2010-05-13T10:25:07Z</time>
      </trkpt>
      <trkpt lat="48.71436" lon="1.98132">
        <ele>112</ele>
        <time>2010-05-13T10:25:08Z</time>
      </trkpt>
      <trkpt lat="48.71436" lon="1.98131">
        <ele>112</ele>
        <time>2010-05-13T10:25:09Z</time>
      </trkpt>
      <trkpt lat="48.71435" lon="1.98129">
        <ele>112</ele>
        <time>2010-05-13T10:25:11Z</time>
      </trkpt>
      <trkpt lat="48.71435" lon="1.98127">
        <ele>112</ele>
        <time>2010-05-13T10:25:12Z</time>
      </trkpt>
      <trkpt lat="48.71434" lon="1.98125">
        <ele>112</ele>
        <time>2010-05-13T10:25:13Z</time>
      </trkpt>
      <trkpt lat="48.71435" lon="1.98121">
        <ele>112</ele>
        <time>2010-05-13T10:25:16Z</time>
      </trkpt>
      <trkpt lat="48.71436" lon="1.98117">
        <ele>112</ele>
        <time>2010-05-13T10:25:17Z</time>
      </trkpt>
      <trkpt lat="48.71436" lon="1.98111">
        <ele>112</ele>
        <time>2010-05-13T10:25:18Z</time>
      </trkpt>
      <trkpt lat="48.71436" lon="1.98109">
        <ele>112</ele>
        <time>2010-05-13T10:25:19Z</time>
      </trkpt>
      <trkpt lat="48.71437" lon="1.98105">
        <ele>112</ele>
        <time>2010-05-13T10:25:21Z</time>
      </trkpt>
      <trkpt lat="48.71438" lon="1.98101">
        <ele>112</ele>
        <time>2010-05-13T10:25:22Z</time>
      </trkpt>
      <trkpt lat="48.71439" lon="1.98098">
        <ele>111</ele>
        <time>2010-05-13T10:25:23Z</time>
      </trkpt>
      <trkpt lat="48.7144" lon="1.98096">
        <ele>110</ele>
        <time>2010-05-13T10:25:24Z</time>
      </trkpt>
      <trkpt lat="48.71441" lon="1.98094">
        <ele>108</ele>
        <time>2010-05-13T10:25:25Z</time>
      </trkpt>
      <trkpt lat="48.71441" lon="1.98092">
        <ele>106</ele>
        <time>2010-05-13T10:25:26Z</time>
      </trkpt>
      <trkpt lat="48.7144" lon="1.98089">
        <ele>104</ele>
        <time>2010-05-13T10:25:27Z</time>
      </trkpt>
      <trkpt lat="48.71441" lon="1.98086">
        <ele>102</ele>
        <time>2010-05-13T10:25:28Z</time>
      </trkpt>
      <trkpt lat="48.71441" lon="1.98083">
        <ele>100</ele>
        <time>2010-05-13T10:25:29Z</time>
      </trkpt>
      <trkpt lat="48.71441" lon="1.98079">
        <ele>98</ele>
        <time>2010-05-13T10:25:30Z</time>
      </trkpt>
      <trkpt lat="48.71442" lon="1.98076">
        <ele>96</ele>
        <time>2010-05-13T10:25:31Z</time>
      </trkpt>
      <trkpt lat="48.71443" lon="1.98074">
        <ele>94</ele>
        <time>2010-05-13T10:25:32Z</time>
      </trkpt>
      <trkpt lat="48.71443" lon="1.9807">
        <ele>92</ele>
        <time>2010-05-13T10:25:33Z</time>
      </trkpt>
      <trkpt lat="48.71444" lon="1.98067">
        <ele>90</ele>
        <time>2010-05-13T10:25:34Z</time>
      </trkpt>
      <trkpt lat="48.71444" lon="1.98063">
        <ele>87</ele>
        <time>2010-05-13T10:25:35Z</time>
      </trkpt>
      <trkpt lat="48.71444" lon="1.9806">
        <ele>84</ele>
        <time>2010-05-13T10:25:36Z</time>
      </trkpt>
      <trkpt lat="48.71443" lon="1.98057">
        <ele>81</ele>
        <time>2010-05-13T10:25:37Z</time>
      </trkpt>
      <trkpt lat="48.71443" lon="1.98054">
        <ele>78</ele>
        <time>2010-05-13T10:25:38Z</time>
      </trkpt>
      <trkpt lat="48.71443" lon="1.98052">
        <ele>75</ele>
        <time>2010-05-13T10:25:39Z</time>
      </trkpt>
      <trkpt lat="48.71441" lon="1.98048">
        <ele>71</ele>
        <time>2010-05-13T10:25:41Z</time>
      </trkpt>
      <trkpt lat="48.7144" lon="1.98045">
        <ele>69</ele>
        <time>2010-05-13T10:25:42Z</time>
      </trkpt>
      <trkpt lat="48.71439" lon="1.98042">
        <ele>68</ele>
        <time>2010-05-13T10:25:43Z</time>
      </trkpt>
      <trkpt lat="48.71439" lon="1.9804">
        <ele>67</ele>
        <time>2010-05-13T10:25:44Z</time>
      </trkpt>
      <trkpt lat="48.71439" lon="1.98038">
        <ele>67</ele>
        <time>2010-05-13T10:25:45Z</time>
      </trkpt>
      <trkpt lat="48.71438" lon="1.98036">
        <ele>67</ele>
        <time>2010-05-13T10:25:46Z</time>
      </trkpt>
      <trkpt lat="48.71438" lon="1.98034">
        <ele>67</ele>
        <time>2010-05-13T10:25:47Z</time>
      </trkpt>
      <trkpt lat="48.71438" lon="1.98032">
        <ele>67</ele>
        <time>2010-05-13T10:25:48Z</time>
      </trkpt>
      <trkpt lat="48.71439" lon="1.98028">
        <ele>67</ele>
        <time>2010-05-13T10:25:49Z</time>
      </trkpt>
      <trkpt lat="48.71439" lon="1.98027">
        <ele>67</ele>
        <time>2010-05-13T10:25:50Z</time>
      </trkpt>
      <trkpt lat="48.71439" lon="1.98024">
        <ele>67</ele>
        <time>2010-05-13T10:25:51Z</time>
      </trkpt>
      <trkpt lat="48.7144" lon="1.98021">
        <ele>67</ele>
        <time>2010-05-13T10:25:52Z</time>
      </trkpt>
      <trkpt lat="48.71441" lon="1.98018">
        <ele>67</ele>
        <time>2010-05-13T10:25:53Z</time>
      </trkpt>
      <trkpt lat="48.71441" lon="1.98015">
        <ele>68</ele>
        <time>2010-05-13T10:25:54Z</time>
      </trkpt>
      <trkpt lat="48.71442" lon="1.98013">
        <ele>69</ele>
        <time>2010-05-13T10:25:55Z</time>
      </trkpt>
      <trkpt lat="48.71442" lon="1.9801">
        <ele>70</ele>
        <time>2010-05-13T10:25:56Z</time>
      </trkpt>
      <trkpt lat="48.71442" lon="1.98008">
        <ele>71</ele>
        <time>2010-05-13T10:25:57Z</time>
      </trkpt>
      <trkpt lat="48.71443" lon="1.98006">
        <ele>72</ele>
        <time>2010-05-13T10:25:58Z</time>
      </trkpt>
      <trkpt lat="48.71444" lon="1.98004">
        <ele>73</ele>
        <time>2010-05-13T10:25:59Z</time>
      </trkpt>
      <trkpt lat="48.71445" lon="1.98001">
        <ele>74</ele>
        <time>2010-05-13T10:26:00Z</time>
      </trkpt>
      <trkpt lat="48.71446" lon="1.98">
        <ele>75</ele>
        <time>2010-05-13T10:26:01Z</time>
      </trkpt>
      <trkpt lat="48.71446" lon="1.97997">
        <ele>76</ele>
        <time>2010-05-13T10:26:02Z</time>
      </trkpt>
      <trkpt lat="48.71446" lon="1.97995">
        <ele>77</ele>
        <time>2010-05-13T10:26:03Z</time>
      </trkpt>
      <trkpt lat="48.71446" lon="1.97993">
        <ele>78</ele>
        <time>2010-05-13T10:26:04Z</time>
      </trkpt>
      <trkpt lat="48.71446" lon="1.97991">
        <ele>79</ele>
        <time>2010-05-13T10:26:05Z</time>
      </trkpt>
      <trkpt lat="48.71446" lon="1.97988">
        <ele>81</ele>
        <time>2010-05-13T10:26:06Z</time>
      </trkpt>
      <trkpt lat="48.71446" lon="1.97985">
        <ele>82</ele>
        <time>2010-05-13T10:26:07Z</time>
      </trkpt>
      <trkpt lat="48.71447" lon="1.97982">
        <ele>83</ele>
        <time>2010-05-13T10:26:08Z</time>
      </trkpt>
      <trkpt lat="48.71447" lon="1.9798">
        <ele>84</ele>
        <time>2010-05-13T10:26:09Z</time>
      </trkpt>
      <trkpt lat="48.71449" lon="1.97976">
        <ele>85</ele>
        <time>2010-05-13T10:26:10Z</time>
      </trkpt>
      <trkpt lat="48.71449" lon="1.97974">
        <ele>85</ele>
        <time>2010-05-13T10:26:11Z</time>
      </trkpt>
      <trkpt lat="48.71449" lon="1.97971">
        <ele>85</ele>
        <time>2010-05-13T10:26:12Z</time>
      </trkpt>
      <trkpt lat="48.71449" lon="1.97968">
        <ele>85</ele>
        <time>2010-05-13T10:26:13Z</time>
      </trkpt>
      <trkpt lat="48.7145" lon="1.97964">
        <ele>85</ele>
        <time>2010-05-13T10:26:14Z</time>
      </trkpt>
      <trkpt lat="48.71451" lon="1.97962">
        <ele>84</ele>
        <time>2010-05-13T10:26:15Z</time>
      </trkpt>
      <trkpt lat="48.71452" lon="1.97959">
        <ele>83</ele>
        <time>2010-05-13T10:26:16Z</time>
      </trkpt>
      <trkpt lat="48.71453" lon="1.97957">
        <ele>82</ele>
        <time>2010-05-13T10:26:17Z</time>
      </trkpt>
      <trkpt lat="48.71453" lon="1.97955">
        <ele>81</ele>
        <time>2010-05-13T10:26:18Z</time>
      </trkpt>
      <trkpt lat="48.71454" lon="1.97952">
        <ele>80</ele>
        <time>2010-05-13T10:26:19Z</time>
      </trkpt>
      <trkpt lat="48.71456" lon="1.9795">
        <ele>79</ele>
        <time>2010-05-13T10:26:20Z</time>
      </trkpt>
      <trkpt lat="48.71457" lon="1.97947">
        <ele>79</ele>
        <time>2010-05-13T10:26:21Z</time>
      </trkpt>
      <trkpt lat="48.71458" lon="1.97944">
        <ele>79</ele>
        <time>2010-05-13T10:26:22Z</time>
      </trkpt>
      <trkpt lat="48.71458" lon="1.97942">
        <ele>79</ele>
        <time>2010-05-13T10:26:23Z</time>
      </trkpt>
      <trkpt lat="48.71458" lon="1.9794">
        <ele>79</ele>
        <time>2010-05-13T10:26:24Z</time>
      </trkpt>
      <trkpt lat="48.71457" lon="1.97938">
        <ele>79</ele>
        <time>2010-05-13T10:26:25Z</time>
      </trkpt>
      <trkpt lat="48.71458" lon="1.97935">
        <ele>79</ele>
        <time>2010-05-13T10:26:26Z</time>
      </trkpt>
      <trkpt lat="48.71458" lon="1.97933">
        <ele>79</ele>
        <time>2010-05-13T10:26:27Z</time>
      </trkpt>
      <trkpt lat="48.71458" lon="1.97931">
        <ele>79</ele>
        <time>2010-05-13T10:26:28Z</time>
      </trkpt>
      <trkpt lat="48.71458" lon="1.97928">
        <ele>79</ele>
        <time>2010-05-13T10:26:29Z</time>
      </trkpt>
      <trkpt lat="48.71459" lon="1.97924">
        <ele>79</ele>
        <time>2010-05-13T10:26:32Z</time>
      </trkpt>
      <trkpt lat="48.7146" lon="1.9792">
        <ele>78</ele>
        <time>2010-05-13T10:26:33Z</time>
      </trkpt>
      <trkpt lat="48.7146" lon="1.97915">
        <ele>77</ele>
        <time>2010-05-13T10:26:34Z</time>
      </trkpt>
      <trkpt lat="48.71458" lon="1.97915">
        <ele>76</ele>
        <time>2010-05-13T10:26:35Z</time>
      </trkpt>
      <trkpt lat="48.71458" lon="1.97912">
        <ele>75</ele>
        <time>2010-05-13T10:26:36Z</time>
      </trkpt>
      <trkpt lat="48.71457" lon="1.97909">
        <ele>74</ele>
        <time>2010-05-13T10:26:38Z</time>
      </trkpt>
      <trkpt lat="48.71456" lon="1.97907">
        <ele>74</ele>
        <time>2010-05-13T10:26:39Z</time>
      </trkpt>
      <trkpt lat="48.71455" lon="1.97904">
        <ele>74</ele>
        <time>2010-05-13T10:26:40Z</time>
      </trkpt>
      <trkpt lat="48.71456" lon="1.97901">
        <ele>76</ele>
        <time>2010-05-13T10:26:42Z</time>
      </trkpt>
      <trkpt lat="48.71456" lon="1.97899">
        <ele>77</ele>
        <time>2010-05-13T10:26:43Z</time>
      </trkpt>
      <trkpt lat="48.71456" lon="1.97897">
        <ele>78</ele>
        <time>2010-05-13T10:26:44Z</time>
      </trkpt>
      <trkpt lat="48.71459" lon="1.97896">
        <ele>80</ele>
        <time>2010-05-13T10:26:46Z</time>
      </trkpt>
      <trkpt lat="48.7146" lon="1.97894">
        <ele>84</ele>
        <time>2010-05-13T10:26:48Z</time>
      </trkpt>
      <trkpt lat="48.71461" lon="1.97892">
        <ele>88</ele>
        <time>2010-05-13T10:26:50Z</time>
      </trkpt>
      <trkpt lat="48.71463" lon="1.97879">
        <ele>96</ele>
        <time>2010-05-13T10:26:57Z</time>
      </trkpt>
      <trkpt lat="48.71463" lon="1.97875">
        <ele>98</ele>
        <time>2010-05-13T10:26:58Z</time>
      </trkpt>
      <trkpt lat="48.71463" lon="1.97872">
        <ele>100</ele>
        <time>2010-05-13T10:26:59Z</time>
      </trkpt>
      <trkpt lat="48.71465" lon="1.97869">
        <ele>102</ele>
        <time>2010-05-13T10:27:00Z</time>
      </trkpt>
      <trkpt lat="48.71464" lon="1.97868">
        <ele>104</ele>
        <time>2010-05-13T10:27:01Z</time>
      </trkpt>
      <trkpt lat="48.71464" lon="1.97865">
        <ele>107</ele>
        <time>2010-05-13T10:27:02Z</time>
      </trkpt>
      <trkpt lat="48.71465" lon="1.97863">
        <ele>113</ele>
        <time>2010-05-13T10:27:05Z</time>
      </trkpt>
      <trkpt lat="48.71466" lon="1.97861">
        <ele>115</ele>
        <time>2010-05-13T10:27:06Z</time>
      </trkpt>
      <trkpt lat="48.71467" lon="1.97859">
        <ele>117</ele>
        <time>2010-05-13T10:27:08Z</time>
      </trkpt>
      <trkpt lat="48.71467" lon="1.97856">
        <ele>119</ele>
        <time>2010-05-13T10:27:10Z</time>
      </trkpt>
      <trkpt lat="48.71468" lon="1.97853">
        <ele>120</ele>
        <time>2010-05-13T10:27:13Z</time>
      </trkpt>
      <trkpt lat="48.71467" lon="1.97845">
        <ele>120</ele>
        <time>2010-05-13T10:27:14Z</time>
      </trkpt>
      <trkpt lat="48.71467" lon="1.97839">
        <ele>120</ele>
        <time>2010-05-13T10:27:15Z</time>
      </trkpt>
      <trkpt lat="48.71466" lon="1.97835">
        <ele>120</ele>
        <time>2010-05-13T10:27:16Z</time>
      </trkpt>
      <trkpt lat="48.71467" lon="1.97833">
        <ele>120</ele>
        <time>2010-05-13T10:27:17Z</time>
      </trkpt>
      <trkpt lat="48.71468" lon="1.97828">
        <ele>119</ele>
        <time>2010-05-13T10:27:18Z</time>
      </trkpt>
      <trkpt lat="48.71468" lon="1.97826">
        <ele>119</ele>
        <time>2010-05-13T10:27:19Z</time>
      </trkpt>
      <trkpt lat="48.71468" lon="1.97824">
        <ele>118</ele>
        <time>2010-05-13T10:27:20Z</time>
      </trkpt>
      <trkpt lat="48.71468" lon="1.97821">
        <ele>116</ele>
        <time>2010-05-13T10:27:22Z</time>
      </trkpt>
      <trkpt lat="48.71471" lon="1.97816">
        <ele>115</ele>
        <time>2010-05-13T10:27:25Z</time>
      </trkpt>
      <trkpt lat="48.71471" lon="1.97813">
        <ele>114</ele>
        <time>2010-05-13T10:27:26Z</time>
      </trkpt>
      <trkpt lat="48.71471" lon="1.97809">
        <ele>113</ele>
        <time>2010-05-13T10:27:27Z</time>
      </trkpt>
      <trkpt lat="48.71473" lon="1.97806">
        <ele>112</ele>
        <time>2010-05-13T10:27:28Z</time>
      </trkpt>
      <trkpt lat="48.71474" lon="1.97804">
        <ele>111</ele>
        <time>2010-05-13T10:27:29Z</time>
      </trkpt>
      <trkpt lat="48.71474" lon="1.97801">
        <ele>110</ele>
        <time>2010-05-13T10:27:30Z</time>
      </trkpt>
      <trkpt lat="48.71475" lon="1.97798">
        <ele>108</ele>
        <time>2010-05-13T10:27:32Z</time>
      </trkpt>
      <trkpt lat="48.71476" lon="1.97796">
        <ele>107</ele>
        <time>2010-05-13T10:27:33Z</time>
      </trkpt>
      <trkpt lat="48.71476" lon="1.97793">
        <ele>106</ele>
        <time>2010-05-13T10:27:34Z</time>
      </trkpt>
      <trkpt lat="48.71475" lon="1.9779">
        <ele>104</ele>
        <time>2010-05-13T10:27:36Z</time>
      </trkpt>
      <trkpt lat="48.71476" lon="1.97788">
        <ele>103</ele>
        <time>2010-05-13T10:27:37Z</time>
      </trkpt>
      <trkpt lat="48.71478" lon="1.97786">
        <ele>102</ele>
        <time>2010-05-13T10:27:38Z</time>
      </trkpt>
      <trkpt lat="48.71479" lon="1.97784">
        <ele>101</ele>
        <time>2010-05-13T10:27:39Z</time>
      </trkpt>
      <trkpt lat="48.71481" lon="1.97782">
        <ele>100</ele>
        <time>2010-05-13T10:27:40Z</time>
      </trkpt>
      <trkpt lat="48.71481" lon="1.97779">
        <ele>99</ele>
        <time>2010-05-13T10:27:41Z</time>
      </trkpt>
      <trkpt lat="48.71482" lon="1.97777">
        <ele>98</ele>
        <time>2010-05-13T10:27:42Z</time>
      </trkpt>
      <trkpt lat="48.71485" lon="1.97775">
        <ele>97</ele>
        <time>2010-05-13T10:27:45Z</time>
      </trkpt>
      <trkpt lat="48.71486" lon="1.97772">
        <ele>96</ele>
        <time>2010-05-13T10:27:46Z</time>
      </trkpt>
      <trkpt lat="48.71488" lon="1.97769">
        <ele>95</ele>
        <time>2010-05-13T10:27:47Z</time>
      </trkpt>
      <trkpt lat="48.71489" lon="1.97769">
        <ele>94</ele>
        <time>2010-05-13T10:27:48Z</time>
      </trkpt>
      <trkpt lat="48.7149" lon="1.97767">
        <ele>93</ele>
        <time>2010-05-13T10:27:49Z</time>
      </trkpt>
      <trkpt lat="48.71491" lon="1.97764">
        <ele>91</ele>
        <time>2010-05-13T10:27:51Z</time>
      </trkpt>
      <trkpt lat="48.71492" lon="1.97757">
        <ele>91</ele>
        <time>2010-05-13T10:27:56Z</time>
      </trkpt>
      <trkpt lat="48.71493" lon="1.97749">
        <ele>91</ele>
        <time>2010-05-13T10:27:57Z</time>
      </trkpt>
      <trkpt lat="48.71494" lon="1.97747">
        <ele>91</ele>
        <time>2010-05-13T10:27:58Z</time>
      </trkpt>
      <trkpt lat="48.71496" lon="1.97745">
        <ele>91</ele>
        <time>2010-05-13T10:27:59Z</time>
      </trkpt>
      <trkpt lat="48.71498" lon="1.97742">
        <ele>91</ele>
        <time>2010-05-13T10:28:00Z</time>
      </trkpt>
      <trkpt lat="48.71499" lon="1.97741">
        <ele>91</ele>
        <time>2010-05-13T10:28:01Z</time>
      </trkpt>
      <trkpt lat="48.71501" lon="1.9774">
        <ele>91</ele>
        <time>2010-05-13T10:28:03Z</time>
      </trkpt>
      <trkpt lat="48.71502" lon="1.97739">
        <ele>91</ele>
        <time>2010-05-13T10:28:04Z</time>
      </trkpt>
      <trkpt lat="48.71502" lon="1.97736">
        <ele>92</ele>
        <time>2010-05-13T10:28:06Z</time>
      </trkpt>
      <trkpt lat="48.71517" lon="1.97708">
        <ele>99</ele>
        <time>2010-05-13T10:28:22Z</time>
      </trkpt>
      <trkpt lat="48.71518" lon="1.97706">
        <ele>98</ele>
        <time>2010-05-13T10:28:23Z</time>
      </trkpt>
      <trkpt lat="48.71519" lon="1.97704">
        <ele>97</ele>
        <time>2010-05-13T10:28:24Z</time>
      </trkpt>
      <trkpt lat="48.7152" lon="1.97702">
        <ele>95</ele>
        <time>2010-05-13T10:28:25Z</time>
      </trkpt>
      <trkpt lat="48.71521" lon="1.97699">
        <ele>93</ele>
        <time>2010-05-13T10:28:26Z</time>
      </trkpt>
      <trkpt lat="48.71523" lon="1.97694">
        <ele>89</ele>
        <time>2010-05-13T10:28:28Z</time>
      </trkpt>
      <trkpt lat="48.71524" lon="1.97688">
        <ele>87</ele>
        <time>2010-05-13T10:28:31Z</time>
      </trkpt>
      <trkpt lat="48.71524" lon="1.97681">
        <ele>85</ele>
        <time>2010-05-13T10:28:32Z</time>
      </trkpt>
      <trkpt lat="48.71524" lon="1.97679">
        <ele>82</ele>
        <time>2010-05-13T10:28:33Z</time>
      </trkpt>
      <trkpt lat="48.71525" lon="1.97676">
        <ele>79</ele>
        <time>2010-05-13T10:28:34Z</time>
      </trkpt>
      <trkpt lat="48.71524" lon="1.97673">
        <ele>75</ele>
        <time>2010-05-13T10:28:36Z</time>
      </trkpt>
      <trkpt lat="48.71523" lon="1.97669">
        <ele>74</ele>
        <time>2010-05-13T10:28:38Z</time>
      </trkpt>
      <trkpt lat="48.71523" lon="1.97667">
        <ele>74</ele>
        <time>2010-05-13T10:28:39Z</time>
      </trkpt>
      <trkpt lat="48.71523" lon="1.97664">
        <ele>75</ele>
        <time>2010-05-13T10:28:40Z</time>
      </trkpt>
      <trkpt lat="48.71522" lon="1.97662">
        <ele>76</ele>
        <time>2010-05-13T10:28:41Z</time>
      </trkpt>
      <trkpt lat="48.71523" lon="1.97659">
        <ele>77</ele>
        <time>2010-05-13T10:28:42Z</time>
      </trkpt>
      <trkpt lat="48.71524" lon="1.97655">
        <ele>78</ele>
        <time>2010-05-13T10:28:43Z</time>
      </trkpt>
      <trkpt lat="48.71524" lon="1.97652">
        <ele>79</ele>
        <time>2010-05-13T10:28:44Z</time>
      </trkpt>
      <trkpt lat="48.71524" lon="1.97649">
        <ele>83</ele>
        <time>2010-05-13T10:28:46Z</time>
      </trkpt>
      <trkpt lat="48.71523" lon="1.97648">
        <ele>85</ele>
        <time>2010-05-13T10:28:47Z</time>
      </trkpt>
      <trkpt lat="48.71524" lon="1.97645">
        <ele>87</ele>
        <time>2010-05-13T10:28:48Z</time>
      </trkpt>
      <trkpt lat="48.71524" lon="1.97642">
        <ele>89</ele>
        <time>2010-05-13T10:28:49Z</time>
      </trkpt>
      <trkpt lat="48.71526" lon="1.97641">
        <ele>91</ele>
        <time>2010-05-13T10:28:50Z</time>
      </trkpt>
      <trkpt lat="48.71526" lon="1.9764">
        <ele>94</ele>
        <time>2010-05-13T10:28:52Z</time>
      </trkpt>
      <trkpt lat="48.71527" lon="1.97637">
        <ele>97</ele>
        <time>2010-05-13T10:28:55Z</time>
      </trkpt>
      <trkpt lat="48.71528" lon="1.97635">
        <ele>97</ele>
        <time>2010-05-13T10:28:56Z</time>
      </trkpt>
      <trkpt lat="48.71528" lon="1.97633">
        <ele>98</ele>
        <time>2010-05-13T10:28:57Z</time>
      </trkpt>
      <trkpt lat="48.71529" lon="1.97631">
        <ele>98</ele>
        <time>2010-05-13T10:28:58Z</time>
      </trkpt>
      <trkpt lat="48.71531" lon="1.97629">
        <ele>98</ele>
        <time>2010-05-13T10:29:00Z</time>
      </trkpt>
      <trkpt lat="48.71531" lon="1.97627">
        <ele>99</ele>
        <time>2010-05-13T10:29:01Z</time>
      </trkpt>
      <trkpt lat="48.71532" lon="1.97625">
        <ele>99</ele>
        <time>2010-05-13T10:29:02Z</time>
      </trkpt>
      <trkpt lat="48.71532" lon="1.97623">
        <ele>100</ele>
        <time>2010-05-13T10:29:03Z</time>
      </trkpt>
      <trkpt lat="48.71533" lon="1.97623">
        <ele>100</ele>
        <time>2010-05-13T10:29:04Z</time>
      </trkpt>
      <trkpt lat="48.71535" lon="1.97621">
        <ele>100</ele>
        <time>2010-05-13T10:29:05Z</time>
      </trkpt>
      <trkpt lat="48.71537" lon="1.9762">
        <ele>100</ele>
        <time>2010-05-13T10:29:06Z</time>
      </trkpt>
      <trkpt lat="48.71539" lon="1.97617">
        <ele>100</ele>
        <time>2010-05-13T10:29:08Z</time>
      </trkpt>
      <trkpt lat="48.7154" lon="1.97615">
        <ele>100</ele>
        <time>2010-05-13T10:29:10Z</time>
      </trkpt>
      <trkpt lat="48.71543" lon="1.97614">
        <ele>100</ele>
        <time>2010-05-13T10:29:12Z</time>
      </trkpt>
      <trkpt lat="48.71545" lon="1.97614">
        <ele>100</ele>
        <time>2010-05-13T10:29:13Z</time>
      </trkpt>
      <trkpt lat="48.71546" lon="1.97614">
        <ele>100</ele>
        <time>2010-05-13T10:29:16Z</time>
      </trkpt>
      <trkpt lat="48.7155" lon="1.97615">
        <ele>100</ele>
        <time>2010-05-13T10:29:17Z</time>
      </trkpt>
      <trkpt lat="48.7155" lon="1.97616">
        <ele>100</ele>
        <time>2010-05-13T10:29:18Z</time>
      </trkpt>
      <trkpt lat="48.71553" lon="1.97617">
        <ele>100</ele>
        <time>2010-05-13T10:29:19Z</time>
      </trkpt>
      <trkpt lat="48.71557" lon="1.97616">
        <ele>101</ele>
        <time>2010-05-13T10:29:22Z</time>
      </trkpt>
      <trkpt lat="48.7156" lon="1.97614">
        <ele>101</ele>
        <time>2010-05-13T10:29:23Z</time>
      </trkpt>
      <trkpt lat="48.71562" lon="1.97609">
        <ele>101</ele>
        <time>2010-05-13T10:29:24Z</time>
      </trkpt>
      <trkpt lat="48.71563" lon="1.97605">
        <ele>101</ele>
        <time>2010-05-13T10:29:25Z</time>
      </trkpt>
      <trkpt lat="48.71564" lon="1.97602">
        <ele>101</ele>
        <time>2010-05-13T10:29:26Z</time>
      </trkpt>
      <trkpt lat="48.71564" lon="1.97599">
        <ele>101</ele>
        <time>2010-05-13T10:29:27Z</time>
      </trkpt>
      <trkpt lat="48.71564" lon="1.97597">
        <ele>100</ele>
        <time>2010-05-13T10:29:28Z</time>
      </trkpt>
      <trkpt lat="48.71564" lon="1.97595">
        <ele>98</ele>
        <time>2010-05-13T10:29:30Z</time>
      </trkpt>
      <trkpt lat="48.71564" lon="1.97592">
        <ele>98</ele>
        <time>2010-05-13T10:29:31Z</time>
      </trkpt>
      <trkpt lat="48.71564" lon="1.97591">
        <ele>98</ele>
        <time>2010-05-13T10:29:32Z</time>
      </trkpt>
      <trkpt lat="48.71565" lon="1.97588">
        <ele>98</ele>
        <time>2010-05-13T10:29:34Z</time>
      </trkpt>
      <trkpt lat="48.71565" lon="1.97585">
        <ele>98</ele>
        <time>2010-05-13T10:29:35Z</time>
      </trkpt>
      <trkpt lat="48.71565" lon="1.97583">
        <ele>98</ele>
        <time>2010-05-13T10:29:36Z</time>
      </trkpt>
      <trkpt lat="48.71565" lon="1.97581">
        <ele>98</ele>
        <time>2010-05-13T10:29:38Z</time>
      </trkpt>
      <trkpt lat="48.71566" lon="1.97579">
        <ele>98</ele>
        <time>2010-05-13T10:29:39Z</time>
      </trkpt>
      <trkpt lat="48.71567" lon="1.97577">
        <ele>98</ele>
        <time>2010-05-13T10:29:40Z</time>
      </trkpt>
      <trkpt lat="48.71569" lon="1.97574">
        <ele>98</ele>
        <time>2010-05-13T10:29:42Z</time>
      </trkpt>
      <trkpt lat="48.7157" lon="1.97572">
        <ele>98</ele>
        <time>2010-05-13T10:29:45Z</time>
      </trkpt>
      <trkpt lat="48.71571" lon="1.9757">
        <ele>98</ele>
        <time>2010-05-13T10:29:46Z</time>
      </trkpt>
      <trkpt lat="48.71572" lon="1.97567">
        <ele>98</ele>
        <time>2010-05-13T10:29:49Z</time>
      </trkpt>
      <trkpt lat="48.71574" lon="1.97563">
        <ele>98</ele>
        <time>2010-05-13T10:29:50Z</time>
      </trkpt>
      <trkpt lat="48.71575" lon="1.97563">
        <ele>99</ele>
        <time>2010-05-13T10:29:52Z</time>
      </trkpt>
      <trkpt lat="48.71577" lon="1.97563">
        <ele>100</ele>
        <time>2010-05-13T10:29:53Z</time>
      </trkpt>
      <trkpt lat="48.71579" lon="1.97562">
        <ele>101</ele>
        <time>2010-05-13T10:29:54Z</time>
      </trkpt>
      <trkpt lat="48.71579" lon="1.9756">
        <ele>103</ele>
        <time>2010-05-13T10:29:55Z</time>
      </trkpt>
      <trkpt lat="48.71579" lon="1.97556">
        <ele>105</ele>
        <time>2010-05-13T10:29:56Z</time>
      </trkpt>
      <trkpt lat="48.71579" lon="1.97554">
        <ele>109</ele>
        <time>2010-05-13T10:29:58Z</time>
      </trkpt>
      <trkpt lat="48.71579" lon="1.97552">
        <ele>112</ele>
        <time>2010-05-13T10:30:00Z</time>
      </trkpt>
      <trkpt lat="48.7158" lon="1.9755">
        <ele>113</ele>
        <time>2010-05-13T10:30:01Z</time>
      </trkpt>
      <trkpt lat="48.7158" lon="1.97546">
        <ele>114</ele>
        <time>2010-05-13T10:30:04Z</time>
      </trkpt>
      <trkpt lat="48.71583" lon="1.97544">
        <ele>115</ele>
        <time>2010-05-13T10:30:05Z</time>
      </trkpt>
      <trkpt lat="48.71584" lon="1.97541">
        <ele>116</ele>
        <time>2010-05-13T10:30:06Z</time>
      </trkpt>
      <trkpt lat="48.71585" lon="1.9754">
        <ele>117</ele>
        <time>2010-05-13T10:30:07Z</time>
      </trkpt>
      <trkpt lat="48.71586" lon="1.9754">
        <ele>118</ele>
        <time>2010-05-13T10:30:08Z</time>
      </trkpt>
      <trkpt lat="48.71587" lon="1.97539">
        <ele>119</ele>
        <time>2010-05-13T10:30:09Z</time>
      </trkpt>
      <trkpt lat="48.71588" lon="1.97537">
        <ele>120</ele>
        <time>2010-05-13T10:30:10Z</time>
      </trkpt>
      <trkpt lat="48.71588" lon="1.97533">
        <ele>121</ele>
        <time>2010-05-13T10:30:11Z</time>
      </trkpt>
      <trkpt lat="48.71589" lon="1.97533">
        <ele>122</ele>
        <time>2010-05-13T10:30:12Z</time>
      </trkpt>
      <trkpt lat="48.7159" lon="1.97531">
        <ele>123</ele>
        <time>2010-05-13T10:30:13Z</time>
      </trkpt>
      <trkpt lat="48.71589" lon="1.97529">
        <ele>123</ele>
        <time>2010-05-13T10:30:14Z</time>
      </trkpt>
      <trkpt lat="48.71588" lon="1.97527">
        <ele>123</ele>
        <time>2010-05-13T10:30:15Z</time>
      </trkpt>
      <trkpt lat="48.71588" lon="1.97525">
        <ele>123</ele>
        <time>2010-05-13T10:30:16Z</time>
      </trkpt>
      <trkpt lat="48.71588" lon="1.97523">
        <ele>122</ele>
        <time>2010-05-13T10:30:17Z</time>
      </trkpt>
      <trkpt lat="48.71588" lon="1.97521">
        <ele>121</ele>
        <time>2010-05-13T10:30:18Z</time>
      </trkpt>
      <trkpt lat="48.71588" lon="1.97517">
        <ele>118</ele>
        <time>2010-05-13T10:30:20Z</time>
      </trkpt>
      <trkpt lat="48.71592" lon="1.97514">
        <ele>116</ele>
        <time>2010-05-13T10:30:23Z</time>
      </trkpt>
      <trkpt lat="48.71595" lon="1.9751">
        <ele>114</ele>
        <time>2010-05-13T10:30:24Z</time>
      </trkpt>
      <trkpt lat="48.71598" lon="1.97508">
        <ele>113</ele>
        <time>2010-05-13T10:30:25Z</time>
      </trkpt>
      <trkpt lat="48.71603" lon="1.97505">
        <ele>112</ele>
        <time>2010-05-13T10:30:28Z</time>
      </trkpt>
      <trkpt lat="48.71605" lon="1.97507">
        <ele>111</ele>
        <time>2010-05-13T10:30:29Z</time>
      </trkpt>
      <trkpt lat="48.71606" lon="1.97505">
        <ele>110</ele>
        <time>2010-05-13T10:30:30Z</time>
      </trkpt>
      <trkpt lat="48.71609" lon="1.97503">
        <ele>109</ele>
        <time>2010-05-13T10:30:31Z</time>
      </trkpt>
      <trkpt lat="48.71612" lon="1.975">
        <ele>108</ele>
        <time>2010-05-13T10:30:32Z</time>
      </trkpt>
      <trkpt lat="48.71615" lon="1.97499">
        <ele>107</ele>
        <time>2010-05-13T10:30:33Z</time>
      </trkpt>
      <trkpt lat="48.71616" lon="1.97498">
        <ele>106</ele>
        <time>2010-05-13T10:30:34Z</time>
      </trkpt>
      <trkpt lat="48.71617" lon="1.97497">
        <ele>104</ele>
        <time>2010-05-13T10:30:36Z</time>
      </trkpt>
      <trkpt lat="48.71619" lon="1.97496">
        <ele>103</ele>
        <time>2010-05-13T10:30:37Z</time>
      </trkpt>
      <trkpt lat="48.71622" lon="1.97496">
        <ele>103</ele>
        <time>2010-05-13T10:30:40Z</time>
      </trkpt>
      <trkpt lat="48.71626" lon="1.97494">
        <ele>103</ele>
        <time>2010-05-13T10:30:41Z</time>
      </trkpt>
      <trkpt lat="48.71629" lon="1.97491">
        <ele>103</ele>
        <time>2010-05-13T10:30:42Z</time>
      </trkpt>
      <trkpt lat="48.71632" lon="1.9749">
        <ele>103</ele>
        <time>2010-05-13T10:30:43Z</time>
      </trkpt>
      <trkpt lat="48.71635" lon="1.97489">
        <ele>103</ele>
        <time>2010-05-13T10:30:44Z</time>
      </trkpt>
      <trkpt lat="48.71635" lon="1.97486">
        <ele>103</ele>
        <time>2010-05-13T10:30:45Z</time>
      </trkpt>
      <trkpt lat="48.71634" lon="1.97484">
        <ele>103</ele>
        <time>2010-05-13T10:30:46Z</time>
      </trkpt>
      <trkpt lat="48.71635" lon="1.9748">
        <ele>103</ele>
        <time>2010-05-13T10:30:48Z</time>
      </trkpt>
      <trkpt lat="48.71637" lon="1.97476">
        <ele>103</ele>
        <time>2010-05-13T10:30:49Z</time>
      </trkpt>
      <trkpt lat="48.71637" lon="1.97473">
        <ele>103</ele>
        <time>2010-05-13T10:30:50Z</time>
      </trkpt>
      <trkpt lat="48.71636" lon="1.97471">
        <ele>103</ele>
        <time>2010-05-13T10:30:51Z</time>
      </trkpt>
      <trkpt lat="48.71636" lon="1.97468">
        <ele>103</ele>
        <time>2010-05-13T10:30:52Z</time>
      </trkpt>
      <trkpt lat="48.71636" lon="1.97466">
        <ele>102</ele>
        <time>2010-05-13T10:30:53Z</time>
      </trkpt>
      <trkpt lat="48.71636" lon="1.97464">
        <ele>101</ele>
        <time>2010-05-13T10:30:54Z</time>
      </trkpt>
      <trkpt lat="48.71637" lon="1.97462">
        <ele>99</ele>
        <time>2010-05-13T10:30:55Z</time>
      </trkpt>
      <trkpt lat="48.71638" lon="1.9746">
        <ele>97</ele>
        <time>2010-05-13T10:30:56Z</time>
      </trkpt>
      <trkpt lat="48.7164" lon="1.97458">
        <ele>95</ele>
        <time>2010-05-13T10:30:57Z</time>
      </trkpt>
      <trkpt lat="48.71643" lon="1.97458">
        <ele>92</ele>
        <time>2010-05-13T10:30:59Z</time>
      </trkpt>
      <trkpt lat="48.71648" lon="1.97455">
        <ele>91</ele>
        <time>2010-05-13T10:31:04Z</time>
      </trkpt>
      <trkpt lat="48.71653" lon="1.97454">
        <ele>90</ele>
        <time>2010-05-13T10:31:05Z</time>
      </trkpt>
      <trkpt lat="48.71654" lon="1.97451">
        <ele>89</ele>
        <time>2010-05-13T10:31:08Z</time>
      </trkpt>
      <trkpt lat="48.71655" lon="1.97454">
        <ele>89</ele>
        <time>2010-05-13T10:31:09Z</time>
      </trkpt>
      <trkpt lat="48.71659" lon="1.97459">
        <ele>89</ele>
        <time>2010-05-13T10:31:10Z</time>
      </trkpt>
      <trkpt lat="48.7166" lon="1.97455">
        <ele>89</ele>
        <time>2010-05-13T10:31:13Z</time>
      </trkpt>
      <trkpt lat="48.71663" lon="1.97454">
        <ele>90</ele>
        <time>2010-05-13T10:31:15Z</time>
      </trkpt>
      <trkpt lat="48.71668" lon="1.9745">
        <ele>91</ele>
        <time>2010-05-13T10:31:16Z</time>
      </trkpt>
      <trkpt lat="48.71669" lon="1.97444">
        <ele>92</ele>
        <time>2010-05-13T10:31:17Z</time>
      </trkpt>
      <trkpt lat="48.7167" lon="1.97439">
        <ele>93</ele>
        <time>2010-05-13T10:31:18Z</time>
      </trkpt>
      <trkpt lat="48.71669" lon="1.97437">
        <ele>94</ele>
        <time>2010-05-13T10:31:19Z</time>
      </trkpt>
      <trkpt lat="48.71669" lon="1.97432">
        <ele>95</ele>
        <time>2010-05-13T10:31:21Z</time>
      </trkpt>
      <trkpt lat="48.71667" lon="1.97428">
        <ele>95</ele>
        <time>2010-05-13T10:31:24Z</time>
      </trkpt>
      <trkpt lat="48.71666" lon="1.97423">
        <ele>95</ele>
        <time>2010-05-13T10:31:25Z</time>
      </trkpt>
      <trkpt lat="48.71663" lon="1.9742">
        <ele>95</ele>
        <time>2010-05-13T10:31:26Z</time>
      </trkpt>
      <trkpt lat="48.71662" lon="1.97416">
        <ele>95</ele>
        <time>2010-05-13T10:31:27Z</time>
      </trkpt>
      <trkpt lat="48.71662" lon="1.97414">
        <ele>95</ele>
        <time>2010-05-13T10:31:28Z</time>
      </trkpt>
      <trkpt lat="48.71663" lon="1.97412">
        <ele>95</ele>
        <time>2010-05-13T10:31:29Z</time>
      </trkpt>
      <trkpt lat="48.7166" lon="1.97407">
        <ele>96</ele>
        <time>2010-05-13T10:31:30Z</time>
      </trkpt>
      <trkpt lat="48.7166" lon="1.97405">
        <ele>97</ele>
        <time>2010-05-13T10:31:31Z</time>
      </trkpt>
      <trkpt lat="48.71661" lon="1.97402">
        <ele>99</ele>
        <time>2010-05-13T10:31:33Z</time>
      </trkpt>
      <trkpt lat="48.71662" lon="1.974">
        <ele>100</ele>
        <time>2010-05-13T10:31:34Z</time>
      </trkpt>
      <trkpt lat="48.71663" lon="1.97398">
        <ele>100</ele>
        <time>2010-05-13T10:31:35Z</time>
      </trkpt>
      <trkpt lat="48.71663" lon="1.97396">
        <ele>100</ele>
        <time>2010-05-13T10:31:37Z</time>
      </trkpt>
      <trkpt lat="48.71662" lon="1.97393">
        <ele>99</ele>
        <time>2010-05-13T10:31:38Z</time>
      </trkpt>
      <trkpt lat="48.71661" lon="1.97389">
        <ele>97</ele>
        <time>2010-05-13T10:31:40Z</time>
      </trkpt>
      <trkpt lat="48.71662" lon="1.97386">
        <ele>97</ele>
        <time>2010-05-13T10:31:41Z</time>
      </trkpt>
      <trkpt lat="48.71663" lon="1.97386">
        <ele>97</ele>
        <time>2010-05-13T10:31:42Z</time>
      </trkpt>
      <trkpt lat="48.71664" lon="1.97385">
        <ele>97</ele>
        <time>2010-05-13T10:31:43Z</time>
      </trkpt>
      <trkpt lat="48.71666" lon="1.97384">
        <ele>97</ele>
        <time>2010-05-13T10:31:44Z</time>
      </trkpt>
      <trkpt lat="48.71667" lon="1.97381">
        <ele>97</ele>
        <time>2010-05-13T10:31:45Z</time>
      </trkpt>
      <trkpt lat="48.71669" lon="1.97378">
        <ele>96</ele>
        <time>2010-05-13T10:31:46Z</time>
      </trkpt>
      <trkpt lat="48.71671" lon="1.97376">
        <ele>96</ele>
        <time>2010-05-13T10:31:47Z</time>
      </trkpt>
      <trkpt lat="48.71673" lon="1.97374">
        <ele>96</ele>
        <time>2010-05-13T10:31:48Z</time>
      </trkpt>
      <trkpt lat="48.71674" lon="1.97372">
        <ele>96</ele>
        <time>2010-05-13T10:31:49Z</time>
      </trkpt>
      <trkpt lat="48.71676" lon="1.9737">
        <ele>96</ele>
        <time>2010-05-13T10:31:50Z</time>
      </trkpt>
      <trkpt lat="48.71678" lon="1.97368">
        <ele>96</ele>
        <time>2010-05-13T10:31:51Z</time>
      </trkpt>
      <trkpt lat="48.71679" lon="1.97365">
        <ele>96</ele>
        <time>2010-05-13T10:31:52Z</time>
      </trkpt>
      <trkpt lat="48.71681" lon="1.97363">
        <ele>96</ele>
        <time>2010-05-13T10:31:53Z</time>
      </trkpt>
      <trkpt lat="48.71683" lon="1.97361">
        <ele>96</ele>
        <time>2010-05-13T10:31:54Z</time>
      </trkpt>
      <trkpt lat="48.71684" lon="1.97359">
        <ele>96</ele>
        <time>2010-05-13T10:31:55Z</time>
      </trkpt>
      <trkpt lat="48.71685" lon="1.97357">
        <ele>96</ele>
        <time>2010-05-13T10:31:56Z</time>
      </trkpt>
      <trkpt lat="48.71686" lon="1.97354">
        <ele>95</ele>
        <time>2010-05-13T10:31:57Z</time>
      </trkpt>
      <trkpt lat="48.71687" lon="1.97352">
        <ele>94</ele>
        <time>2010-05-13T10:31:58Z</time>
      </trkpt>
      <trkpt lat="48.71688" lon="1.97351">
        <ele>93</ele>
        <time>2010-05-13T10:31:59Z</time>
      </trkpt>
      <trkpt lat="48.71689" lon="1.97348">
        <ele>92</ele>
        <time>2010-05-13T10:32:00Z</time>
      </trkpt>
      <trkpt lat="48.7169" lon="1.97346">
        <ele>91</ele>
        <time>2010-05-13T10:32:01Z</time>
      </trkpt>
      <trkpt lat="48.71691" lon="1.97341">
        <ele>88</ele>
        <time>2010-05-13T10:32:03Z</time>
      </trkpt>
      <trkpt lat="48.71692" lon="1.97335">
        <ele>87</ele>
        <time>2010-05-13T10:32:04Z</time>
      </trkpt>
      <trkpt lat="48.71694" lon="1.97331">
        <ele>86</ele>
        <time>2010-05-13T10:32:05Z</time>
      </trkpt>
      <trkpt lat="48.71695" lon="1.97327">
        <ele>85</ele>
        <time>2010-05-13T10:32:06Z</time>
      </trkpt>
      <trkpt lat="48.71696" lon="1.97323">
        <ele>84</ele>
        <time>2010-05-13T10:32:07Z</time>
      </trkpt>
      <trkpt lat="48.71696" lon="1.97319">
        <ele>84</ele>
        <time>2010-05-13T10:32:08Z</time>
      </trkpt>
      <trkpt lat="48.71696" lon="1.97316">
        <ele>84</ele>
        <time>2010-05-13T10:32:09Z</time>
      </trkpt>
      <trkpt lat="48.71696" lon="1.97312">
        <ele>84</ele>
        <time>2010-05-13T10:32:10Z</time>
      </trkpt>
      <trkpt lat="48.71697" lon="1.97308">
        <ele>84</ele>
        <time>2010-05-13T10:32:11Z</time>
      </trkpt>
      <trkpt lat="48.71697" lon="1.97305">
        <ele>83</ele>
        <time>2010-05-13T10:32:12Z</time>
      </trkpt>
      <trkpt lat="48.71698" lon="1.97302">
        <ele>82</ele>
        <time>2010-05-13T10:32:13Z</time>
      </trkpt>
      <trkpt lat="48.71697" lon="1.97299">
        <ele>81</ele>
        <time>2010-05-13T10:32:14Z</time>
      </trkpt>
      <trkpt lat="48.71697" lon="1.97296">
        <ele>80</ele>
        <time>2010-05-13T10:32:15Z</time>
      </trkpt>
      <trkpt lat="48.71697" lon="1.97292">
        <ele>79</ele>
        <time>2010-05-13T10:32:18Z</time>
      </trkpt>
      <trkpt lat="48.71698" lon="1.97285">
        <ele>78</ele>
        <time>2010-05-13T10:32:19Z</time>
      </trkpt>
      <trkpt lat="48.717" lon="1.9728">
        <ele>76</ele>
        <time>2010-05-13T10:32:20Z</time>
      </trkpt>
      <trkpt lat="48.71701" lon="1.97276">
        <ele>74</ele>
        <time>2010-05-13T10:32:21Z</time>
      </trkpt>
      <trkpt lat="48.71703" lon="1.97272">
        <ele>72</ele>
        <time>2010-05-13T10:32:22Z</time>
      </trkpt>
      <trkpt lat="48.71705" lon="1.97268">
        <ele>71</ele>
        <time>2010-05-13T10:32:23Z</time>
      </trkpt>
      <trkpt lat="48.71708" lon="1.97262">
        <ele>70</ele>
        <time>2010-05-13T10:32:24Z</time>
      </trkpt>
      <trkpt lat="48.71713" lon="1.97254">
        <ele>69</ele>
        <time>2010-05-13T10:32:28Z</time>
      </trkpt>
      <trkpt lat="48.71717" lon="1.97244">
        <ele>68</ele>
        <time>2010-05-13T10:32:31Z</time>
      </trkpt>
      <trkpt lat="48.7172" lon="1.97237">
        <ele>66</ele>
        <time>2010-05-13T10:32:32Z</time>
      </trkpt>
      <trkpt lat="48.71721" lon="1.97234">
        <ele>64</ele>
        <time>2010-05-13T10:32:33Z</time>
      </trkpt>
      <trkpt lat="48.71721" lon="1.97228">
        <ele>63</ele>
        <time>2010-05-13T10:32:36Z</time>
      </trkpt>
      <trkpt lat="48.7172" lon="1.97223">
        <ele>62</ele>
        <time>2010-05-13T10:32:37Z</time>
      </trkpt>
      <trkpt lat="48.71721" lon="1.97214">
        <ele>62</ele>
        <time>2010-05-13T10:32:38Z</time>
      </trkpt>
      <trkpt lat="48.71721" lon="1.97209">
        <ele>62</ele>
        <time>2010-05-13T10:32:39Z</time>
      </trkpt>
      <trkpt lat="48.71721" lon="1.97207">
        <ele>62</ele>
        <time>2010-05-13T10:32:40Z</time>
      </trkpt>
      <trkpt lat="48.7172" lon="1.97204">
        <ele>63</ele>
        <time>2010-05-13T10:32:41Z</time>
      </trkpt>
      <trkpt lat="48.71721" lon="1.97202">
        <ele>66</ele>
        <time>2010-05-13T10:32:43Z</time>
      </trkpt>
      <trkpt lat="48.71723" lon="1.972">
        <ele>70</ele>
        <time>2010-05-13T10:32:45Z</time>
      </trkpt>
      <trkpt lat="48.71725" lon="1.97197">
        <ele>74</ele>
        <time>2010-05-13T10:32:47Z</time>
      </trkpt>
      <trkpt lat="48.71725" lon="1.97195">
        <ele>76</ele>
        <time>2010-05-13T10:32:48Z</time>
      </trkpt>
      <trkpt lat="48.71726" lon="1.97193">
        <ele>78</ele>
        <time>2010-05-13T10:32:49Z</time>
      </trkpt>
      <trkpt lat="48.71726" lon="1.97191">
        <ele>80</ele>
        <time>2010-05-13T10:32:50Z</time>
      </trkpt>
      <trkpt lat="48.71728" lon="1.97185">
        <ele>82</ele>
        <time>2010-05-13T10:32:54Z</time>
      </trkpt>
      <trkpt lat="48.71728" lon="1.97179">
        <ele>83</ele>
        <time>2010-05-13T10:32:55Z</time>
      </trkpt>
      <trkpt lat="48.7173" lon="1.97173">
        <ele>84</ele>
        <time>2010-05-13T10:32:59Z</time>
      </trkpt>
      <trkpt lat="48.71731" lon="1.97161">
        <ele>84</ele>
        <time>2010-05-13T10:33:00Z</time>
      </trkpt>
      <trkpt lat="48.71731" lon="1.97157">
        <ele>84</ele>
        <time>2010-05-13T10:33:01Z</time>
      </trkpt>
      <trkpt lat="48.71731" lon="1.97153">
        <ele>84</ele>
        <time>2010-05-13T10:33:04Z</time>
      </trkpt>
      <trkpt lat="48.71732" lon="1.97148">
        <ele>84</ele>
        <time>2010-05-13T10:33:06Z</time>
      </trkpt>
      <trkpt lat="48.71732" lon="1.97143">
        <ele>84</ele>
        <time>2010-05-13T10:33:07Z</time>
      </trkpt>
      <trkpt lat="48.71732" lon="1.97139">
        <ele>84</ele>
        <time>2010-05-13T10:33:08Z</time>
      </trkpt>
      <trkpt lat="48.71731" lon="1.97137">
        <ele>84</ele>
        <time>2010-05-13T10:33:09Z</time>
      </trkpt>
      <trkpt lat="48.71733" lon="1.97134">
        <ele>84</ele>
        <time>2010-05-13T10:33:11Z</time>
      </trkpt>
      <trkpt lat="48.71733" lon="1.97132">
        <ele>84</ele>
        <time>2010-05-13T10:33:12Z</time>
      </trkpt>
      <trkpt lat="48.71734" lon="1.97128">
        <ele>84</ele>
        <time>2010-05-13T10:33:13Z</time>
      </trkpt>
      <trkpt lat="48.71735" lon="1.97125">
        <ele>84</ele>
        <time>2010-05-13T10:33:14Z</time>
      </trkpt>
      <trkpt lat="48.71736" lon="1.97122">
        <ele>84</ele>
        <time>2010-05-13T10:33:15Z</time>
      </trkpt>
      <trkpt lat="48.71736" lon="1.9712">
        <ele>83</ele>
        <time>2010-05-13T10:33:16Z</time>
      </trkpt>
      <trkpt lat="48.71737" lon="1.97118">
        <ele>82</ele>
        <time>2010-05-13T10:33:17Z</time>
      </trkpt>
      <trkpt lat="48.71735" lon="1.97116">
        <ele>81</ele>
        <time>2010-05-13T10:33:18Z</time>
      </trkpt>
      <trkpt lat="48.71737" lon="1.97113">
        <ele>79</ele>
        <time>2010-05-13T10:33:20Z</time>
      </trkpt>
      <trkpt lat="48.71738" lon="1.9711">
        <ele>79</ele>
        <time>2010-05-13T10:33:21Z</time>
      </trkpt>
      <trkpt lat="48.71739" lon="1.97107">
        <ele>79</ele>
        <time>2010-05-13T10:33:22Z</time>
      </trkpt>
      <trkpt lat="48.71742" lon="1.97103">
        <ele>78</ele>
        <time>2010-05-13T10:33:24Z</time>
      </trkpt>
      <trkpt lat="48.71742" lon="1.971">
        <ele>77</ele>
        <time>2010-05-13T10:33:25Z</time>
      </trkpt>
      <trkpt lat="48.71743" lon="1.97097">
        <ele>76</ele>
        <time>2010-05-13T10:33:26Z</time>
      </trkpt>
      <trkpt lat="48.71744" lon="1.97093">
        <ele>75</ele>
        <time>2010-05-13T10:33:28Z</time>
      </trkpt>
      <trkpt lat="48.71745" lon="1.97091">
        <ele>75</ele>
        <time>2010-05-13T10:33:29Z</time>
      </trkpt>
      <trkpt lat="48.71746" lon="1.97088">
        <ele>74</ele>
        <time>2010-05-13T10:33:30Z</time>
      </trkpt>
      <trkpt lat="48.71746" lon="1.97084">
        <ele>73</ele>
        <time>2010-05-13T10:33:31Z</time>
      </trkpt>
      <trkpt lat="48.71747" lon="1.9708">
        <ele>71</ele>
        <time>2010-05-13T10:33:33Z</time>
      </trkpt>
      <trkpt lat="48.71748" lon="1.97077">
        <ele>69</ele>
        <time>2010-05-13T10:33:35Z</time>
      </trkpt>
      <trkpt lat="48.71748" lon="1.97073">
        <ele>67</ele>
        <time>2010-05-13T10:33:37Z</time>
      </trkpt>
      <trkpt lat="48.71749" lon="1.97071">
        <ele>66</ele>
        <time>2010-05-13T10:33:38Z</time>
      </trkpt>
      <trkpt lat="48.71749" lon="1.97069">
        <ele>65</ele>
        <time>2010-05-13T10:33:39Z</time>
      </trkpt>
      <trkpt lat="48.71749" lon="1.97066">
        <ele>64</ele>
        <time>2010-05-13T10:33:40Z</time>
      </trkpt>
      <trkpt lat="48.71749" lon="1.97064">
        <ele>63</ele>
        <time>2010-05-13T10:33:41Z</time>
      </trkpt>
      <trkpt lat="48.7175" lon="1.97062">
        <ele>62</ele>
        <time>2010-05-13T10:33:42Z</time>
      </trkpt>
      <trkpt lat="48.7175" lon="1.9706">
        <ele>61</ele>
        <time>2010-05-13T10:33:43Z</time>
      </trkpt>
      <trkpt lat="48.71749" lon="1.97059">
        <ele>59</ele>
        <time>2010-05-13T10:33:45Z</time>
      </trkpt>
      <trkpt lat="48.71749" lon="1.97057">
        <ele>59</ele>
        <time>2010-05-13T10:33:46Z</time>
      </trkpt>
      <trkpt lat="48.71751" lon="1.97054">
        <ele>57</ele>
        <time>2010-05-13T10:33:48Z</time>
      </trkpt>
      <trkpt lat="48.71751" lon="1.97052">
        <ele>56</ele>
        <time>2010-05-13T10:33:49Z</time>
      </trkpt>
      <trkpt lat="48.7175" lon="1.97051">
        <ele>55</ele>
        <time>2010-05-13T10:33:50Z</time>
      </trkpt>
      <trkpt lat="48.71748" lon="1.97049">
        <ele>55</ele>
        <time>2010-05-13T10:33:51Z</time>
      </trkpt>
      <trkpt lat="48.71747" lon="1.97047">
        <ele>54</ele>
        <time>2010-05-13T10:33:52Z</time>
      </trkpt>
      <trkpt lat="48.71747" lon="1.97045">
        <ele>54</ele>
        <time>2010-05-13T10:33:53Z</time>
      </trkpt>
      <trkpt lat="48.71746" lon="1.97043">
        <ele>53</ele>
        <time>2010-05-13T10:33:55Z</time>
      </trkpt>
      <trkpt lat="48.71746" lon="1.97041">
        <ele>53</ele>
        <time>2010-05-13T10:33:56Z</time>
      </trkpt>
      <trkpt lat="48.71746" lon="1.97039">
        <ele>53</ele>
        <time>2010-05-13T10:33:57Z</time>
      </trkpt>
      <trkpt lat="48.71745" lon="1.97036">
        <ele>53</ele>
        <time>2010-05-13T10:33:59Z</time>
      </trkpt>
      <trkpt lat="48.71743" lon="1.97035">
        <ele>53</ele>
        <time>2010-05-13T10:34:01Z</time>
      </trkpt>
      <trkpt lat="48.7174" lon="1.97034">
        <ele>53</ele>
        <time>2010-05-13T10:34:03Z</time>
      </trkpt>
      <trkpt lat="48.7174" lon="1.97032">
        <ele>53</ele>
        <time>2010-05-13T10:34:05Z</time>
      </trkpt>
      <trkpt lat="48.7174" lon="1.9703">
        <ele>53</ele>
        <time>2010-05-13T10:34:08Z</time>
      </trkpt>
      <trkpt lat="48.71739" lon="1.97028">
        <ele>55</ele>
        <time>2010-05-13T10:34:10Z</time>
      </trkpt>
      <trkpt lat="48.71737" lon="1.97027">
        <ele>59</ele>
        <time>2010-05-13T10:34:13Z</time>
      </trkpt>
      <trkpt lat="48.71739" lon="1.97025">
        <ele>64</ele>
        <time>2010-05-13T10:34:15Z</time>
      </trkpt>
      <trkpt lat="48.71741" lon="1.97026">
        <ele>72</ele>
        <time>2010-05-13T10:34:22Z</time>
      </trkpt>
      <trkpt lat="48.71742" lon="1.97028">
        <ele>73</ele>
        <time>2010-05-13T10:34:23Z</time>
      </trkpt>
      <trkpt lat="48.71744" lon="1.97028">
        <ele>76</ele>
        <time>2010-05-13T10:34:25Z</time>
      </trkpt>
      <trkpt lat="48.71745" lon="1.97026">
        <ele>77</ele>
        <time>2010-05-13T10:34:26Z</time>
      </trkpt>
      <trkpt lat="48.71746" lon="1.97024">
        <ele>78</ele>
        <time>2010-05-13T10:34:27Z</time>
      </trkpt>
      <trkpt lat="48.71748" lon="1.97022">
        <ele>80</ele>
        <time>2010-05-13T10:34:29Z</time>
      </trkpt>
      <trkpt lat="48.7175" lon="1.97021">
        <ele>80</ele>
        <time>2010-05-13T10:34:30Z</time>
      </trkpt>
      <trkpt lat="48.71751" lon="1.97021">
        <ele>80</ele>
        <time>2010-05-13T10:34:33Z</time>
      </trkpt>
      <trkpt lat="48.71754" lon="1.97018">
        <ele>80</ele>
        <time>2010-05-13T10:34:34Z</time>
      </trkpt>
      <trkpt lat="48.71757" lon="1.97017">
        <ele>80</ele>
        <time>2010-05-13T10:34:35Z</time>
      </trkpt>
      <trkpt lat="48.71759" lon="1.97017">
        <ele>80</ele>
        <time>2010-05-13T10:34:36Z</time>
      </trkpt>
      <trkpt lat="48.71757" lon="1.97017">
        <ele>80</ele>
        <time>2010-05-13T10:34:40Z</time>
      </trkpt>
      <trkpt lat="48.71757" lon="1.97018">
        <ele>80</ele>
        <time>2010-05-13T10:34:42Z</time>
      </trkpt>
      <trkpt lat="48.71758" lon="1.97018">
        <ele>80</ele>
        <time>2010-05-13T10:34:43Z</time>
      </trkpt>
      <trkpt lat="48.71759" lon="1.9702">
        <ele>80</ele>
        <time>2010-05-13T10:34:46Z</time>
      </trkpt>
      <trkpt lat="48.71759" lon="1.97021">
        <ele>80</ele>
        <time>2010-05-13T10:34:47Z</time>
      </trkpt>
      <trkpt lat="48.71756" lon="1.97024">
        <ele>80</ele>
        <time>2010-05-13T10:34:48Z</time>
      </trkpt>
      <trkpt lat="48.71755" lon="1.97025">
        <ele>81</ele>
        <time>2010-05-13T10:34:49Z</time>
      </trkpt>
      <trkpt lat="48.71754" lon="1.97025">
        <ele>82</ele>
        <time>2010-05-13T10:34:50Z</time>
      </trkpt>
      <trkpt lat="48.71752" lon="1.97024">
        <ele>87</ele>
        <time>2010-05-13T10:34:53Z</time>
      </trkpt>
      <trkpt lat="48.7175" lon="1.97025">
        <ele>91</ele>
        <time>2010-05-13T10:34:55Z</time>
      </trkpt>
      <trkpt lat="48.71749" lon="1.97025">
        <ele>93</ele>
        <time>2010-05-13T10:34:56Z</time>
      </trkpt>
      <trkpt lat="48.71747" lon="1.97024">
        <ele>95</ele>
        <time>2010-05-13T10:34:57Z</time>
      </trkpt>
      <trkpt lat="48.71745" lon="1.97024">
        <ele>96</ele>
        <time>2010-05-13T10:34:58Z</time>
      </trkpt>
      <trkpt lat="48.71744" lon="1.97025">
        <ele>97</ele>
        <time>2010-05-13T10:34:59Z</time>
      </trkpt>
      <trkpt lat="48.71742" lon="1.97025">
        <ele>98</ele>
        <time>2010-05-13T10:35:00Z</time>
      </trkpt>
      <trkpt lat="48.7174" lon="1.97026">
        <ele>99</ele>
        <time>2010-05-13T10:35:01Z</time>
      </trkpt>
      <trkpt lat="48.71739" lon="1.97026">
        <ele>100</ele>
        <time>2010-05-13T10:35:02Z</time>
      </trkpt>
      <trkpt lat="48.71737" lon="1.97026">
        <ele>102</ele>
        <time>2010-05-13T10:35:04Z</time>
      </trkpt>
      <trkpt lat="48.71736" lon="1.97026">
        <ele>104</ele>
        <time>2010-05-13T10:35:06Z</time>
      </trkpt>
      <trkpt lat="48.71735" lon="1.97029">
        <ele>105</ele>
        <time>2010-05-13T10:35:07Z</time>
      </trkpt>
      <trkpt lat="48.71734" lon="1.97032">
        <ele>106</ele>
        <time>2010-05-13T10:35:08Z</time>
      </trkpt>
      <trkpt lat="48.71732" lon="1.97035">
        <ele>108</ele>
        <time>2010-05-13T10:35:13Z</time>
      </trkpt>
      <trkpt lat="48.71731" lon="1.97037">
        <ele>110</ele>
        <time>2010-05-13T10:35:16Z</time>
      </trkpt>
      <trkpt lat="48.71731" lon="1.97039">
        <ele>110</ele>
        <time>2010-05-13T10:35:18Z</time>
      </trkpt>
      <trkpt lat="48.71732" lon="1.97037">
        <ele>110</ele>
        <time>2010-05-13T10:35:19Z</time>
      </trkpt>
      <trkpt lat="48.71733" lon="1.97034">
        <ele>110</ele>
        <time>2010-05-13T10:35:20Z</time>
      </trkpt>
      <trkpt lat="48.71732" lon="1.97034">
        <ele>107</ele>
        <time>2010-05-13T10:35:23Z</time>
      </trkpt>
      <trkpt lat="48.7173" lon="1.97038">
        <ele>105</ele>
        <time>2010-05-13T10:35:26Z</time>
      </trkpt>
      <trkpt lat="48.71728" lon="1.97041">
        <ele>105</ele>
        <time>2010-05-13T10:35:27Z</time>
      </trkpt>
      <trkpt lat="48.71727" lon="1.97043">
        <ele>105</ele>
        <time>2010-05-13T10:35:29Z</time>
      </trkpt>
      <trkpt lat="48.71728" lon="1.9704">
        <ele>105</ele>
        <time>2010-05-13T10:35:32Z</time>
      </trkpt>
      <trkpt lat="48.71728" lon="1.97038">
        <ele>106</ele>
        <time>2010-05-13T10:35:33Z</time>
      </trkpt>
      <trkpt lat="48.71729" lon="1.97036">
        <ele>107</ele>
        <time>2010-05-13T10:35:34Z</time>
      </trkpt>
      <trkpt lat="48.7173" lon="1.97035">
        <ele>108</ele>
        <time>2010-05-13T10:35:35Z</time>
      </trkpt>
      <trkpt lat="48.71732" lon="1.97034">
        <ele>109</ele>
        <time>2010-05-13T10:35:36Z</time>
      </trkpt>
      <trkpt lat="48.71733" lon="1.97033">
        <ele>110</ele>
        <time>2010-05-13T10:35:37Z</time>
      </trkpt>
      <trkpt lat="48.71732" lon="1.97032">
        <ele>111</ele>
        <time>2010-05-13T10:35:39Z</time>
      </trkpt>
      <trkpt lat="48.7173" lon="1.97034">
        <ele>114</ele>
        <time>2010-05-13T10:35:44Z</time>
      </trkpt>
      <trkpt lat="48.71729" lon="1.97036">
        <ele>114</ele>
        <time>2010-05-13T10:35:48Z</time>
      </trkpt>
      <trkpt lat="48.71728" lon="1.97033">
        <ele>114</ele>
        <time>2010-05-13T10:35:50Z</time>
      </trkpt>
      <trkpt lat="48.71727" lon="1.9703">
        <ele>114</ele>
        <time>2010-05-13T10:35:52Z</time>
      </trkpt>
      <trkpt lat="48.71727" lon="1.97026">
        <ele>114</ele>
        <time>2010-05-13T10:35:57Z</time>
      </trkpt>
      <trkpt lat="48.71727" lon="1.97024">
        <ele>115</ele>
        <time>2010-05-13T10:35:58Z</time>
      </trkpt>
      <trkpt lat="48.7173" lon="1.97022">
        <ele>117</ele>
        <time>2010-05-13T10:36:00Z</time>
      </trkpt>
      <trkpt lat="48.71732" lon="1.97021">
        <ele>118</ele>
        <time>2010-05-13T10:36:02Z</time>
      </trkpt>
      <trkpt lat="48.71733" lon="1.97021">
        <ele>120</ele>
        <time>2010-05-13T10:36:08Z</time>
      </trkpt>
      <trkpt lat="48.71732" lon="1.97019">
        <ele>123</ele>
        <time>2010-05-13T10:36:11Z</time>
      </trkpt>
      <trkpt lat="48.71735" lon="1.97017">
        <ele>126</ele>
        <time>2010-05-13T10:36:14Z</time>
      </trkpt>
      <trkpt lat="48.71738" lon="1.9702">
        <ele>128</ele>
        <time>2010-05-13T10:36:16Z</time>
      </trkpt>
      <trkpt lat="48.71739" lon="1.97022">
        <ele>129</ele>
        <time>2010-05-13T10:36:17Z</time>
      </trkpt>
      <trkpt lat="48.7174" lon="1.97019">
        <ele>129</ele>
        <time>2010-05-13T10:36:20Z</time>
      </trkpt>
      <trkpt lat="48.71744" lon="1.97018">
        <ele>128</ele>
        <time>2010-05-13T10:36:24Z</time>
      </trkpt>
      <trkpt lat="48.71747" lon="1.97022">
        <ele>127</ele>
        <time>2010-05-13T10:36:25Z</time>
      </trkpt>
      <trkpt lat="48.71749" lon="1.97021">
        <ele>126</ele>
        <time>2010-05-13T10:36:26Z</time>
      </trkpt>
      <trkpt lat="48.71747" lon="1.97021">
        <ele>124</ele>
        <time>2010-05-13T10:36:30Z</time>
      </trkpt>
      <trkpt lat="48.71746" lon="1.97023">
        <ele>123</ele>
        <time>2010-05-13T10:36:32Z</time>
      </trkpt>
      <trkpt lat="48.71746" lon="1.97025">
        <ele>121</ele>
        <time>2010-05-13T10:36:33Z</time>
      </trkpt>
      <trkpt lat="48.71746" lon="1.97027">
        <ele>119</ele>
        <time>2010-05-13T10:36:34Z</time>
      </trkpt>
      <trkpt lat="48.71743" lon="1.9703">
        <ele>117</ele>
        <time>2010-05-13T10:36:37Z</time>
      </trkpt>
      <trkpt lat="48.71743" lon="1.97031">
        <ele>117</ele>
        <time>2010-05-13T10:36:38Z</time>
      </trkpt>
      <trkpt lat="48.71742" lon="1.97033">
        <ele>117</ele>
        <time>2010-05-13T10:36:39Z</time>
      </trkpt>
      <trkpt lat="48.7174" lon="1.97035">
        <ele>117</ele>
        <time>2010-05-13T10:36:42Z</time>
      </trkpt>
      <trkpt lat="48.71738" lon="1.97037">
        <ele>114</ele>
        <time>2010-05-13T10:36:45Z</time>
      </trkpt>
      <trkpt lat="48.71738" lon="1.97039">
        <ele>114</ele>
        <time>2010-05-13T10:36:46Z</time>
      </trkpt>
      <trkpt lat="48.71738" lon="1.97041">
        <ele>114</ele>
        <time>2010-05-13T10:36:47Z</time>
      </trkpt>
      <trkpt lat="48.71738" lon="1.97042">
        <ele>114</ele>
        <time>2010-05-13T10:36:48Z</time>
      </trkpt>
      <trkpt lat="48.71738" lon="1.97044">
        <ele>113</ele>
        <time>2010-05-13T10:36:49Z</time>
      </trkpt>
      <trkpt lat="48.71737" lon="1.97045">
        <ele>112</ele>
        <time>2010-05-13T10:36:50Z</time>
      </trkpt>
      <trkpt lat="48.71735" lon="1.97045">
        <ele>112</ele>
        <time>2010-05-13T10:36:51Z</time>
      </trkpt>
      <trkpt lat="48.71733" lon="1.97045">
        <ele>112</ele>
        <time>2010-05-13T10:36:52Z</time>
      </trkpt>
      <trkpt lat="48.71733" lon="1.97042">
        <ele>112</ele>
        <time>2010-05-13T10:36:54Z</time>
      </trkpt>
      <trkpt lat="48.71732" lon="1.97044">
        <ele>112</ele>
        <time>2010-05-13T10:36:57Z</time>
      </trkpt>
      <trkpt lat="48.7173" lon="1.97046">
        <ele>112</ele>
        <time>2010-05-13T10:37:00Z</time>
      </trkpt>
      <trkpt lat="48.71732" lon="1.97046">
        <ele>110</ele>
        <time>2010-05-13T10:37:04Z</time>
      </trkpt>
      <trkpt lat="48.71731" lon="1.97049">
        <ele>108</ele>
        <time>2010-05-13T10:37:06Z</time>
      </trkpt>
      <trkpt lat="48.71731" lon="1.97051">
        <ele>105</ele>
        <time>2010-05-13T10:37:10Z</time>
      </trkpt>
      <trkpt lat="48.71731" lon="1.97052">
        <ele>105</ele>
        <time>2010-05-13T10:37:11Z</time>
      </trkpt>
      <trkpt lat="48.71731" lon="1.97054">
        <ele>105</ele>
        <time>2010-05-13T10:37:12Z</time>
      </trkpt>
      <trkpt lat="48.71732" lon="1.97051">
        <ele>105</ele>
        <time>2010-05-13T10:37:16Z</time>
      </trkpt>
      <trkpt lat="48.71733" lon="1.9705">
        <ele>105</ele>
        <time>2010-05-13T10:37:17Z</time>
      </trkpt>
      <trkpt lat="48.71731" lon="1.97051">
        <ele>105</ele>
        <time>2010-05-13T10:37:20Z</time>
      </trkpt>
      <trkpt lat="48.71731" lon="1.97042">
        <ele>107</ele>
        <time>2010-05-13T10:37:32Z</time>
      </trkpt>
      <trkpt lat="48.71731" lon="1.97044">
        <ele>105</ele>
        <time>2010-05-13T10:37:34Z</time>
      </trkpt>
      <trkpt lat="48.71732" lon="1.97044">
        <ele>103</ele>
        <time>2010-05-13T10:37:36Z</time>
      </trkpt>
      <trkpt lat="48.71734" lon="1.97044">
        <ele>102</ele>
        <time>2010-05-13T10:37:37Z</time>
      </trkpt>
      <trkpt lat="48.71735" lon="1.97044">
        <ele>101</ele>
        <time>2010-05-13T10:37:39Z</time>
      </trkpt>
      <trkpt lat="48.71737" lon="1.97044">
        <ele>101</ele>
        <time>2010-05-13T10:37:40Z</time>
      </trkpt>
      <trkpt lat="48.71739" lon="1.97048">
        <ele>101</ele>
        <time>2010-05-13T10:37:43Z</time>
      </trkpt>
      <trkpt lat="48.71739" lon="1.97051">
        <ele>102</ele>
        <time>2010-05-13T10:37:44Z</time>
      </trkpt>
      <trkpt lat="48.71739" lon="1.97055">
        <ele>103</ele>
        <time>2010-05-13T10:37:45Z</time>
      </trkpt>
      <trkpt lat="48.71741" lon="1.97059">
        <ele>104</ele>
        <time>2010-05-13T10:37:46Z</time>
      </trkpt>
      <trkpt lat="48.71743" lon="1.97063">
        <ele>105</ele>
        <time>2010-05-13T10:37:49Z</time>
      </trkpt>
      <trkpt lat="48.71741" lon="1.97067">
        <ele>106</ele>
        <time>2010-05-13T10:37:51Z</time>
      </trkpt>
      <trkpt lat="48.71738" lon="1.97067">
        <ele>106</ele>
        <time>2010-05-13T10:37:52Z</time>
      </trkpt>
      <trkpt lat="48.71741" lon="1.97068">
        <ele>106</ele>
        <time>2010-05-13T10:37:55Z</time>
      </trkpt>
      <trkpt lat="48.71745" lon="1.97068">
        <ele>106</ele>
        <time>2010-05-13T10:37:56Z</time>
      </trkpt>
      <trkpt lat="48.71748" lon="1.97066">
        <ele>107</ele>
        <time>2010-05-13T10:37:57Z</time>
      </trkpt>
      <trkpt lat="48.71751" lon="1.97065">
        <ele>107</ele>
        <time>2010-05-13T10:37:58Z</time>
      </trkpt>
      <trkpt lat="48.71752" lon="1.97064">
        <ele>107</ele>
        <time>2010-05-13T10:37:59Z</time>
      </trkpt>
      <trkpt lat="48.71753" lon="1.97067">
        <ele>107</ele>
        <time>2010-05-13T10:38:00Z</time>
      </trkpt>
      <trkpt lat="48.71754" lon="1.97067">
        <ele>107</ele>
        <time>2010-05-13T10:38:01Z</time>
      </trkpt>
      <trkpt lat="48.71755" lon="1.97067">
        <ele>107</ele>
        <time>2010-05-13T10:38:02Z</time>
      </trkpt>
      <trkpt lat="48.71757" lon="1.97067">
        <ele>107</ele>
        <time>2010-05-13T10:38:03Z</time>
      </trkpt>
      <trkpt lat="48.71759" lon="1.97068">
        <ele>107</ele>
        <time>2010-05-13T10:38:04Z</time>
      </trkpt>
      <trkpt lat="48.71761" lon="1.97068">
        <ele>107</ele>
        <time>2010-05-13T10:38:05Z</time>
      </trkpt>
      <trkpt lat="48.71762" lon="1.9707">
        <ele>107</ele>
        <time>2010-05-13T10:38:06Z</time>
      </trkpt>
      <trkpt lat="48.71763" lon="1.9707">
        <ele>108</ele>
        <time>2010-05-13T10:38:07Z</time>
      </trkpt>
      <trkpt lat="48.71766" lon="1.97071">
        <ele>110</ele>
        <time>2010-05-13T10:38:09Z</time>
      </trkpt>
      <trkpt lat="48.71774" lon="1.97077">
        <ele>111</ele>
        <time>2010-05-13T10:38:16Z</time>
      </trkpt>
      <trkpt lat="48.71779" lon="1.97082">
        <ele>116</ele>
        <time>2010-05-13T10:38:22Z</time>
      </trkpt>
      <trkpt lat="48.71782" lon="1.97083">
        <ele>117</ele>
        <time>2010-05-13T10:38:25Z</time>
      </trkpt>
      <trkpt lat="48.71782" lon="1.97085">
        <ele>118</ele>
        <time>2010-05-13T10:38:26Z</time>
      </trkpt>
      <trkpt lat="48.71787" lon="1.97089">
        <ele>119</ele>
        <time>2010-05-13T10:38:29Z</time>
      </trkpt>
      <trkpt lat="48.71788" lon="1.97092">
        <ele>120</ele>
        <time>2010-05-13T10:38:30Z</time>
      </trkpt>
      <trkpt lat="48.7179" lon="1.97093">
        <ele>121</ele>
        <time>2010-05-13T10:38:31Z</time>
      </trkpt>
      <trkpt lat="48.71792" lon="1.97093">
        <ele>123</ele>
        <time>2010-05-13T10:38:33Z</time>
      </trkpt>
      <trkpt lat="48.71794" lon="1.97096">
        <ele>124</ele>
        <time>2010-05-13T10:38:34Z</time>
      </trkpt>
      <trkpt lat="48.71796" lon="1.97097">
        <ele>125</ele>
        <time>2010-05-13T10:38:35Z</time>
      </trkpt>
      <trkpt lat="48.71796" lon="1.971">
        <ele>125</ele>
        <time>2010-05-13T10:38:36Z</time>
      </trkpt>
      <trkpt lat="48.71798" lon="1.97102">
        <ele>125</ele>
        <time>2010-05-13T10:38:37Z</time>
      </trkpt>
      <trkpt lat="48.71799" lon="1.97102">
        <ele>125</ele>
        <time>2010-05-13T10:38:38Z</time>
      </trkpt>
      <trkpt lat="48.71801" lon="1.97103">
        <ele>125</ele>
        <time>2010-05-13T10:38:39Z</time>
      </trkpt>
      <trkpt lat="48.71805" lon="1.97105">
        <ele>125</ele>
        <time>2010-05-13T10:38:40Z</time>
      </trkpt>
      <trkpt lat="48.71807" lon="1.97105">
        <ele>125</ele>
        <time>2010-05-13T10:38:42Z</time>
      </trkpt>
      <trkpt lat="48.71811" lon="1.97105">
        <ele>125</ele>
        <time>2010-05-13T10:38:43Z</time>
      </trkpt>
      <trkpt lat="48.71814" lon="1.97106">
        <ele>125</ele>
        <time>2010-05-13T10:38:44Z</time>
      </trkpt>
      <trkpt lat="48.71817" lon="1.97105">
        <ele>126</ele>
        <time>2010-05-13T10:38:45Z</time>
      </trkpt>
      <trkpt lat="48.71819" lon="1.97105">
        <ele>127</ele>
        <time>2010-05-13T10:38:46Z</time>
      </trkpt>
      <trkpt lat="48.71826" lon="1.97107">
        <ele>129</ele>
        <time>2010-05-13T10:38:53Z</time>
      </trkpt>
      <trkpt lat="48.71831" lon="1.97109">
        <ele>129</ele>
        <time>2010-05-13T10:38:54Z</time>
      </trkpt>
      <trkpt lat="48.71836" lon="1.97106">
        <ele>129</ele>
        <time>2010-05-13T10:38:57Z</time>
      </trkpt>
      <trkpt lat="48.71839" lon="1.97105">
        <ele>129</ele>
        <time>2010-05-13T10:38:58Z</time>
      </trkpt>
      <trkpt lat="48.71843" lon="1.97104">
        <ele>128</ele>
        <time>2010-05-13T10:38:59Z</time>
      </trkpt>
      <trkpt lat="48.71844" lon="1.97106">
        <ele>127</ele>
        <time>2010-05-13T10:39:00Z</time>
      </trkpt>
      <trkpt lat="48.71845" lon="1.97107">
        <ele>126</ele>
        <time>2010-05-13T10:39:01Z</time>
      </trkpt>
      <trkpt lat="48.71846" lon="1.97108">
        <ele>124</ele>
        <time>2010-05-13T10:39:03Z</time>
      </trkpt>
      <trkpt lat="48.71849" lon="1.97108">
        <ele>121</ele>
        <time>2010-05-13T10:39:05Z</time>
      </trkpt>
      <trkpt lat="48.71851" lon="1.9711">
        <ele>120</ele>
        <time>2010-05-13T10:39:06Z</time>
      </trkpt>
      <trkpt lat="48.71852" lon="1.97109">
        <ele>117</ele>
        <time>2010-05-13T10:39:10Z</time>
      </trkpt>
      <trkpt lat="48.71854" lon="1.9711">
        <ele>117</ele>
        <time>2010-05-13T10:39:13Z</time>
      </trkpt>
      <trkpt lat="48.7185" lon="1.97111">
        <ele>117</ele>
        <time>2010-05-13T10:39:18Z</time>
      </trkpt>
      <trkpt lat="48.71848" lon="1.9711">
        <ele>117</ele>
        <time>2010-05-13T10:39:19Z</time>
      </trkpt>
      <trkpt lat="48.71847" lon="1.97111">
        <ele>117</ele>
        <time>2010-05-13T10:39:20Z</time>
      </trkpt>
      <trkpt lat="48.71845" lon="1.97112">
        <ele>118</ele>
        <time>2010-05-13T10:39:21Z</time>
      </trkpt>
      <trkpt lat="48.71844" lon="1.97112">
        <ele>119</ele>
        <time>2010-05-13T10:39:22Z</time>
      </trkpt>
      <trkpt lat="48.71845" lon="1.97116">
        <ele>122</ele>
        <time>2010-05-13T10:39:27Z</time>
      </trkpt>
      <trkpt lat="48.71847" lon="1.97117">
        <ele>122</ele>
        <time>2010-05-13T10:39:29Z</time>
      </trkpt>
      <trkpt lat="48.71847" lon="1.9712">
        <ele>122</ele>
        <time>2010-05-13T10:39:30Z</time>
      </trkpt>
      <trkpt lat="48.71847" lon="1.97121">
        <ele>122</ele>
        <time>2010-05-13T10:39:31Z</time>
      </trkpt>
      <trkpt lat="48.71847" lon="1.97119">
        <ele>120</ele>
        <time>2010-05-13T10:39:33Z</time>
      </trkpt>
      <trkpt lat="48.71848" lon="1.97118">
        <ele>119</ele>
        <time>2010-05-13T10:39:34Z</time>
      </trkpt>
      <trkpt lat="48.7185" lon="1.97114">
        <ele>117</ele>
        <time>2010-05-13T10:39:36Z</time>
      </trkpt>
      <trkpt lat="48.71851" lon="1.97113">
        <ele>116</ele>
        <time>2010-05-13T10:39:37Z</time>
      </trkpt>
      <trkpt lat="48.71853" lon="1.9711">
        <ele>114</ele>
        <time>2010-05-13T10:39:38Z</time>
      </trkpt>
      <trkpt lat="48.71854" lon="1.97112">
        <ele>106</ele>
        <time>2010-05-13T10:39:42Z</time>
      </trkpt>
      <trkpt lat="48.71855" lon="1.97114">
        <ele>102</ele>
        <time>2010-05-13T10:39:44Z</time>
      </trkpt>
      <trkpt lat="48.71855" lon="1.97115">
        <ele>101</ele>
        <time>2010-05-13T10:39:45Z</time>
      </trkpt>
      <trkpt lat="48.7186" lon="1.9712">
        <ele>98</ele>
        <time>2010-05-13T10:39:53Z</time>
      </trkpt>
      <trkpt lat="48.71858" lon="1.97117">
        <ele>98</ele>
        <time>2010-05-13T10:39:54Z</time>
      </trkpt>
      <trkpt lat="48.71859" lon="1.97117">
        <ele>98</ele>
        <time>2010-05-13T10:39:55Z</time>
      </trkpt>
      <trkpt lat="48.7186" lon="1.9712">
        <ele>99</ele>
        <time>2010-05-13T10:39:59Z</time>
      </trkpt>
      <trkpt lat="48.71859" lon="1.97122">
        <ele>101</ele>
        <time>2010-05-13T10:40:01Z</time>
      </trkpt>
      <trkpt lat="48.71861" lon="1.97122">
        <ele>102</ele>
        <time>2010-05-13T10:40:02Z</time>
      </trkpt>
      <trkpt lat="48.71862" lon="1.97121">
        <ele>106</ele>
        <time>2010-05-13T10:40:05Z</time>
      </trkpt>
      <trkpt lat="48.71864" lon="1.97121">
        <ele>108</ele>
        <time>2010-05-13T10:40:08Z</time>
      </trkpt>
      <trkpt lat="48.71865" lon="1.97125">
        <ele>111</ele>
        <time>2010-05-13T10:40:11Z</time>
      </trkpt>
      <trkpt lat="48.71864" lon="1.97127">
        <ele>113</ele>
        <time>2010-05-13T10:40:12Z</time>
      </trkpt>
      <trkpt lat="48.71864" lon="1.97128">
        <ele>115</ele>
        <time>2010-05-13T10:40:13Z</time>
      </trkpt>
      <trkpt lat="48.71866" lon="1.9713">
        <ele>117</ele>
        <time>2010-05-13T10:40:14Z</time>
      </trkpt>
      <trkpt lat="48.71868" lon="1.97131">
        <ele>118</ele>
        <time>2010-05-13T10:40:15Z</time>
      </trkpt>
      <trkpt lat="48.71869" lon="1.97132">
        <ele>120</ele>
        <time>2010-05-13T10:40:16Z</time>
      </trkpt>
      <trkpt lat="48.71871" lon="1.9713">
        <ele>121</ele>
        <time>2010-05-13T10:40:17Z</time>
      </trkpt>
      <trkpt lat="48.71874" lon="1.9713">
        <ele>124</ele>
        <time>2010-05-13T10:40:20Z</time>
      </trkpt>
      <trkpt lat="48.71875" lon="1.97128">
        <ele>125</ele>
        <time>2010-05-13T10:40:21Z</time>
      </trkpt>
      <trkpt lat="48.71877" lon="1.97125">
        <ele>126</ele>
        <time>2010-05-13T10:40:22Z</time>
      </trkpt>
      <trkpt lat="48.71878" lon="1.97124">
        <ele>127</ele>
        <time>2010-05-13T10:40:23Z</time>
      </trkpt>
      <trkpt lat="48.71881" lon="1.97119">
        <ele>129</ele>
        <time>2010-05-13T10:40:27Z</time>
      </trkpt>
      <trkpt lat="48.71883" lon="1.97116">
        <ele>129</ele>
        <time>2010-05-13T10:40:28Z</time>
      </trkpt>
      <trkpt lat="48.71883" lon="1.97114">
        <ele>129</ele>
        <time>2010-05-13T10:40:30Z</time>
      </trkpt>
      <trkpt lat="48.71885" lon="1.97113">
        <ele>130</ele>
        <time>2010-05-13T10:40:36Z</time>
      </trkpt>
      <trkpt lat="48.71885" lon="1.97111">
        <ele>132</ele>
        <time>2010-05-13T10:40:38Z</time>
      </trkpt>
      <trkpt lat="48.71886" lon="1.97109">
        <ele>133</ele>
        <time>2010-05-13T10:40:40Z</time>
      </trkpt>
      <trkpt lat="48.71884" lon="1.9711">
        <ele>133</ele>
        <time>2010-05-13T10:40:44Z</time>
      </trkpt>
      <trkpt lat="48.71887" lon="1.97109">
        <ele>133</ele>
        <time>2010-05-13T10:40:48Z</time>
      </trkpt>
      <trkpt lat="48.71888" lon="1.97109">
        <ele>132</ele>
        <time>2010-05-13T10:40:49Z</time>
      </trkpt>
      <trkpt lat="48.71887" lon="1.97111">
        <ele>129</ele>
        <time>2010-05-13T10:40:52Z</time>
      </trkpt>
      <trkpt lat="48.71886" lon="1.97113">
        <ele>127</ele>
        <time>2010-05-13T10:40:54Z</time>
      </trkpt>
      <trkpt lat="48.71887" lon="1.97115">
        <ele>125</ele>
        <time>2010-05-13T10:40:56Z</time>
      </trkpt>
      <trkpt lat="48.71888" lon="1.97113">
        <ele>122</ele>
        <time>2010-05-13T10:40:59Z</time>
      </trkpt>
      <trkpt lat="48.7189" lon="1.97113">
        <ele>116</ele>
        <time>2010-05-13T10:41:02Z</time>
      </trkpt>
      <trkpt lat="48.71891" lon="1.97114">
        <ele>113</ele>
        <time>2010-05-13T10:41:04Z</time>
      </trkpt>
      <trkpt lat="48.71892" lon="1.97113">
        <ele>112</ele>
        <time>2010-05-13T10:41:05Z</time>
      </trkpt>
      <trkpt lat="48.71892" lon="1.97116">
        <ele>110</ele>
        <time>2010-05-13T10:41:07Z</time>
      </trkpt>
      <trkpt lat="48.7189" lon="1.97118">
        <ele>109</ele>
        <time>2010-05-13T10:41:08Z</time>
      </trkpt>
      <trkpt lat="48.7189" lon="1.9712">
        <ele>107</ele>
        <time>2010-05-13T10:41:13Z</time>
      </trkpt>
      <trkpt lat="48.71891" lon="1.9712">
        <ele>107</ele>
        <time>2010-05-13T10:41:15Z</time>
      </trkpt>
      <trkpt lat="48.71892" lon="1.97119">
        <ele>111</ele>
        <time>2010-05-13T10:41:22Z</time>
      </trkpt>
      <trkpt lat="48.71894" lon="1.97119">
        <ele>111</ele>
        <time>2010-05-13T10:41:23Z</time>
      </trkpt>
      <trkpt lat="48.71893" lon="1.97121">
        <ele>112</ele>
        <time>2010-05-13T10:41:26Z</time>
      </trkpt>
      <trkpt lat="48.71893" lon="1.97119">
        <ele>113</ele>
        <time>2010-05-13T10:41:28Z</time>
      </trkpt>
      <trkpt lat="48.71894" lon="1.97117">
        <ele>114</ele>
        <time>2010-05-13T10:41:30Z</time>
      </trkpt>
      <trkpt lat="48.71895" lon="1.97118">
        <ele>114</ele>
        <time>2010-05-13T10:41:33Z</time>
      </trkpt>
      <trkpt lat="48.71893" lon="1.97119">
        <ele>113</ele>
        <time>2010-05-13T10:41:37Z</time>
      </trkpt>
      <trkpt lat="48.71895" lon="1.97118">
        <ele>112</ele>
        <time>2010-05-13T10:41:38Z</time>
      </trkpt>
      <trkpt lat="48.719" lon="1.97114">
        <ele>110</ele>
        <time>2010-05-13T10:41:40Z</time>
      </trkpt>
      <trkpt lat="48.71901" lon="1.97113">
        <ele>109</ele>
        <time>2010-05-13T10:41:41Z</time>
      </trkpt>
      <trkpt lat="48.71903" lon="1.97111">
        <ele>109</ele>
        <time>2010-05-13T10:41:42Z</time>
      </trkpt>
      <trkpt lat="48.71901" lon="1.97114">
        <ele>108</ele>
        <time>2010-05-13T10:41:46Z</time>
      </trkpt>
      <trkpt lat="48.719" lon="1.97113">
        <ele>108</ele>
        <time>2010-05-13T10:41:50Z</time>
      </trkpt>
      <trkpt lat="48.71899" lon="1.97109">
        <ele>108</ele>
        <time>2010-05-13T10:41:54Z</time>
      </trkpt>
      <trkpt lat="48.71897" lon="1.97106">
        <ele>108</ele>
        <time>2010-05-13T10:41:56Z</time>
      </trkpt>
      <trkpt lat="48.71898" lon="1.97104">
        <ele>109</ele>
        <time>2010-05-13T10:41:57Z</time>
      </trkpt>
      <trkpt lat="48.71896" lon="1.97103">
        <ele>112</ele>
        <time>2010-05-13T10:42:00Z</time>
      </trkpt>
      <trkpt lat="48.71895" lon="1.97103">
        <ele>115</ele>
        <time>2010-05-13T10:42:02Z</time>
      </trkpt>
      <trkpt lat="48.71893" lon="1.97102">
        <ele>119</ele>
        <time>2010-05-13T10:42:04Z</time>
      </trkpt>
      <trkpt lat="48.71895" lon="1.97101">
        <ele>121</ele>
        <time>2010-05-13T10:42:06Z</time>
      </trkpt>
      <trkpt lat="48.71896" lon="1.97102">
        <ele>122</ele>
        <time>2010-05-13T10:42:07Z</time>
      </trkpt>
      <trkpt lat="48.71897" lon="1.97101">
        <ele>124</ele>
        <time>2010-05-13T10:42:08Z</time>
      </trkpt>
      <trkpt lat="48.71899" lon="1.97102">
        <ele>131</ele>
        <time>2010-05-13T10:42:14Z</time>
      </trkpt>
      <trkpt lat="48.719" lon="1.97102">
        <ele>132</ele>
        <time>2010-05-13T10:42:15Z</time>
      </trkpt>
      <trkpt lat="48.71902" lon="1.97104">
        <ele>133</ele>
        <time>2010-05-13T10:42:17Z</time>
      </trkpt>
      <trkpt lat="48.71902" lon="1.97106">
        <ele>133</ele>
        <time>2010-05-13T10:42:20Z</time>
      </trkpt>
      <trkpt lat="48.71902" lon="1.97108">
        <ele>133</ele>
        <time>2010-05-13T10:42:22Z</time>
      </trkpt>
      <trkpt lat="48.71901" lon="1.97109">
        <ele>133</ele>
        <time>2010-05-13T10:42:25Z</time>
      </trkpt>
      <trkpt lat="48.71902" lon="1.97107">
        <ele>133</ele>
        <time>2010-05-13T10:42:26Z</time>
      </trkpt>
      <trkpt lat="48.71902" lon="1.97105">
        <ele>133</ele>
        <time>2010-05-13T10:42:27Z</time>
      </trkpt>
      <trkpt lat="48.71902" lon="1.97103">
        <ele>133</ele>
        <time>2010-05-13T10:42:28Z</time>
      </trkpt>
      <trkpt lat="48.71903" lon="1.97103">
        <ele>133</ele>
        <time>2010-05-13T10:42:31Z</time>
      </trkpt>
      <trkpt lat="48.71905" lon="1.97104">
        <ele>133</ele>
        <time>2010-05-13T10:42:35Z</time>
      </trkpt>
      <trkpt lat="48.71907" lon="1.97102">
        <ele>133</ele>
        <time>2010-05-13T10:42:38Z</time>
      </trkpt>
      <trkpt lat="48.71908" lon="1.971">
        <ele>133</ele>
        <time>2010-05-13T10:42:39Z</time>
      </trkpt>
      <trkpt lat="48.71909" lon="1.97098">
        <ele>135</ele>
        <time>2010-05-13T10:42:41Z</time>
      </trkpt>
      <trkpt lat="48.71908" lon="1.97098">
        <ele>136</ele>
        <time>2010-05-13T10:42:43Z</time>
      </trkpt>
      <trkpt lat="48.71907" lon="1.97099">
        <ele>138</ele>
        <time>2010-05-13T10:42:50Z</time>
      </trkpt>
      <trkpt lat="48.71907" lon="1.97101">
        <ele>134</ele>
        <time>2010-05-13T10:42:54Z</time>
      </trkpt>
      <trkpt lat="48.71905" lon="1.97102">
        <ele>132</ele>
        <time>2010-05-13T10:42:56Z</time>
      </trkpt>
      <trkpt lat="48.71904" lon="1.97104">
        <ele>132</ele>
        <time>2010-05-13T10:42:58Z</time>
      </trkpt>
      <trkpt lat="48.71906" lon="1.97103">
        <ele>132</ele>
        <time>2010-05-13T10:43:01Z</time>
      </trkpt>
      <trkpt lat="48.71907" lon="1.97105">
        <ele>132</ele>
        <time>2010-05-13T10:43:03Z</time>
      </trkpt>
      <trkpt lat="48.71909" lon="1.97102">
        <ele>135</ele>
        <time>2010-05-13T10:43:08Z</time>
      </trkpt>
      <trkpt lat="48.7191" lon="1.971">
        <ele>135</ele>
        <time>2010-05-13T10:43:09Z</time>
      </trkpt>
      <trkpt lat="48.71911" lon="1.97099">
        <ele>135</ele>
        <time>2010-05-13T10:43:10Z</time>
      </trkpt>
      <trkpt lat="48.71912" lon="1.97098">
        <ele>135</ele>
        <time>2010-05-13T10:43:11Z</time>
      </trkpt>
      <trkpt lat="48.71914" lon="1.97096">
        <ele>135</ele>
        <time>2010-05-13T10:43:13Z</time>
      </trkpt>
      <trkpt lat="48.71915" lon="1.97093">
        <ele>135</ele>
        <time>2010-05-13T10:43:15Z</time>
      </trkpt>
      <trkpt lat="48.71916" lon="1.97092">
        <ele>135</ele>
        <time>2010-05-13T10:43:16Z</time>
      </trkpt>
      <trkpt lat="48.71917" lon="1.9709">
        <ele>135</ele>
        <time>2010-05-13T10:43:17Z</time>
      </trkpt>
      <trkpt lat="48.71919" lon="1.97088">
        <ele>135</ele>
        <time>2010-05-13T10:43:20Z</time>
      </trkpt>
      <trkpt lat="48.71921" lon="1.97086">
        <ele>135</ele>
        <time>2010-05-13T10:43:21Z</time>
      </trkpt>
      <trkpt lat="48.71923" lon="1.97085">
        <ele>135</ele>
        <time>2010-05-13T10:43:23Z</time>
      </trkpt>
      <trkpt lat="48.71924" lon="1.97083">
        <ele>135</ele>
        <time>2010-05-13T10:43:24Z</time>
      </trkpt>
      <trkpt lat="48.71926" lon="1.97081">
        <ele>134</ele>
        <time>2010-05-13T10:43:25Z</time>
      </trkpt>
      <trkpt lat="48.71927" lon="1.97079">
        <ele>133</ele>
        <time>2010-05-13T10:43:26Z</time>
      </trkpt>
      <trkpt lat="48.71928" lon="1.97076">
        <ele>132</ele>
        <time>2010-05-13T10:43:27Z</time>
      </trkpt>
      <trkpt lat="48.71933" lon="1.97072">
        <ele>131</ele>
        <time>2010-05-13T10:43:30Z</time>
      </trkpt>
      <trkpt lat="48.71934" lon="1.97073">
        <ele>130</ele>
        <time>2010-05-13T10:43:31Z</time>
      </trkpt>
      <trkpt lat="48.71936" lon="1.97073">
        <ele>129</ele>
        <time>2010-05-13T10:43:32Z</time>
      </trkpt>
      <trkpt lat="48.71939" lon="1.97074">
        <ele>127</ele>
        <time>2010-05-13T10:43:34Z</time>
      </trkpt>
      <trkpt lat="48.71943" lon="1.97074">
        <ele>126</ele>
        <time>2010-05-13T10:43:37Z</time>
      </trkpt>
      <trkpt lat="48.71945" lon="1.97075">
        <ele>125</ele>
        <time>2010-05-13T10:43:38Z</time>
      </trkpt>
      <trkpt lat="48.71949" lon="1.97075">
        <ele>125</ele>
        <time>2010-05-13T10:43:40Z</time>
      </trkpt>
      <trkpt lat="48.71951" lon="1.97074">
        <ele>125</ele>
        <time>2010-05-13T10:43:41Z</time>
      </trkpt>
      <trkpt lat="48.71953" lon="1.97072">
        <ele>125</ele>
        <time>2010-05-13T10:43:42Z</time>
      </trkpt>
      <trkpt lat="48.71955" lon="1.97071">
        <ele>125</ele>
        <time>2010-05-13T10:43:43Z</time>
      </trkpt>
      <trkpt lat="48.71956" lon="1.97072">
        <ele>125</ele>
        <time>2010-05-13T10:43:44Z</time>
      </trkpt>
      <trkpt lat="48.71958" lon="1.97074">
        <ele>127</ele>
        <time>2010-05-13T10:43:46Z</time>
      </trkpt>
      <trkpt lat="48.71959" lon="1.97077">
        <ele>128</ele>
        <time>2010-05-13T10:43:49Z</time>
      </trkpt>
      <trkpt lat="48.7196" lon="1.9708">
        <ele>129</ele>
        <time>2010-05-13T10:43:50Z</time>
      </trkpt>
      <trkpt lat="48.7196" lon="1.97082">
        <ele>129</ele>
        <time>2010-05-13T10:43:51Z</time>
      </trkpt>
      <trkpt lat="48.7196" lon="1.97084">
        <ele>129</ele>
        <time>2010-05-13T10:43:53Z</time>
      </trkpt>
      <trkpt lat="48.71962" lon="1.97084">
        <ele>129</ele>
        <time>2010-05-13T10:43:55Z</time>
      </trkpt>
      <trkpt lat="48.71964" lon="1.97085">
        <ele>130</ele>
        <time>2010-05-13T10:43:56Z</time>
      </trkpt>
      <trkpt lat="48.71965" lon="1.97086">
        <ele>130</ele>
        <time>2010-05-13T10:43:57Z</time>
      </trkpt>
      <trkpt lat="48.71967" lon="1.97088">
        <ele>131</ele>
        <time>2010-05-13T10:43:59Z</time>
      </trkpt>
      <trkpt lat="48.71968" lon="1.9709">
        <ele>133</ele>
        <time>2010-05-13T10:44:01Z</time>
      </trkpt>
      <trkpt lat="48.7197" lon="1.97092">
        <ele>135</ele>
        <time>2010-05-13T10:44:03Z</time>
      </trkpt>
      <trkpt lat="48.71971" lon="1.97094">
        <ele>136</ele>
        <time>2010-05-13T10:44:04Z</time>
      </trkpt>
      <trkpt lat="48.71972" lon="1.97094">
        <ele>137</ele>
        <time>2010-05-13T10:44:06Z</time>
      </trkpt>
      <trkpt lat="48.71974" lon="1.97096">
        <ele>138</ele>
        <time>2010-05-13T10:44:08Z</time>
      </trkpt>
      <trkpt lat="48.71976" lon="1.97097">
        <ele>139</ele>
        <time>2010-05-13T10:44:09Z</time>
      </trkpt>
      <trkpt lat="48.71976" lon="1.97099">
        <ele>139</ele>
        <time>2010-05-13T10:44:10Z</time>
      </trkpt>
      <trkpt lat="48.71977" lon="1.97102">
        <ele>140</ele>
        <time>2010-05-13T10:44:11Z</time>
      </trkpt>
      <trkpt lat="48.71978" lon="1.97103">
        <ele>140</ele>
        <time>2010-05-13T10:44:12Z</time>
      </trkpt>
      <trkpt lat="48.71979" lon="1.97105">
        <ele>140</ele>
        <time>2010-05-13T10:44:13Z</time>
      </trkpt>
      <trkpt lat="48.71982" lon="1.97104">
        <ele>141</ele>
        <time>2010-05-13T10:44:14Z</time>
      </trkpt>
      <trkpt lat="48.71983" lon="1.97106">
        <ele>141</ele>
        <time>2010-05-13T10:44:15Z</time>
      </trkpt>
      <trkpt lat="48.71985" lon="1.97106">
        <ele>141</ele>
        <time>2010-05-13T10:44:16Z</time>
      </trkpt>
      <trkpt lat="48.71987" lon="1.97107">
        <ele>141</ele>
        <time>2010-05-13T10:44:17Z</time>
      </trkpt>
      <trkpt lat="48.71987" lon="1.97109">
        <ele>141</ele>
        <time>2010-05-13T10:44:18Z</time>
      </trkpt>
      <trkpt lat="48.71988" lon="1.97112">
        <ele>141</ele>
        <time>2010-05-13T10:44:19Z</time>
      </trkpt>
      <trkpt lat="48.71989" lon="1.97114">
        <ele>141</ele>
        <time>2010-05-13T10:44:20Z</time>
      </trkpt>
      <trkpt lat="48.7199" lon="1.97116">
        <ele>142</ele>
        <time>2010-05-13T10:44:21Z</time>
      </trkpt>
      <trkpt lat="48.71992" lon="1.97118">
        <ele>142</ele>
        <time>2010-05-13T10:44:22Z</time>
      </trkpt>
      <trkpt lat="48.71994" lon="1.97119">
        <ele>143</ele>
        <time>2010-05-13T10:44:23Z</time>
      </trkpt>
      <trkpt lat="48.71996" lon="1.9712">
        <ele>144</ele>
        <time>2010-05-13T10:44:24Z</time>
      </trkpt>
      <trkpt lat="48.71997" lon="1.9712">
        <ele>145</ele>
        <time>2010-05-13T10:44:25Z</time>
      </trkpt>
      <trkpt lat="48.71999" lon="1.9712">
        <ele>145</ele>
        <time>2010-05-13T10:44:26Z</time>
      </trkpt>
      <trkpt lat="48.72001" lon="1.97121">
        <ele>146</ele>
        <time>2010-05-13T10:44:27Z</time>
      </trkpt>
      <trkpt lat="48.72001" lon="1.97123">
        <ele>146</ele>
        <time>2010-05-13T10:44:28Z</time>
      </trkpt>
      <trkpt lat="48.72004" lon="1.97126">
        <ele>146</ele>
        <time>2010-05-13T10:44:31Z</time>
      </trkpt>
      <trkpt lat="48.72006" lon="1.97128">
        <ele>146</ele>
        <time>2010-05-13T10:44:32Z</time>
      </trkpt>
      <trkpt lat="48.72007" lon="1.9713">
        <ele>146</ele>
        <time>2010-05-13T10:44:33Z</time>
      </trkpt>
      <trkpt lat="48.72008" lon="1.97132">
        <ele>147</ele>
        <time>2010-05-13T10:44:34Z</time>
      </trkpt>
      <trkpt lat="48.7201" lon="1.97133">
        <ele>148</ele>
        <time>2010-05-13T10:44:35Z</time>
      </trkpt>
      <trkpt lat="48.72012" lon="1.97133">
        <ele>149</ele>
        <time>2010-05-13T10:44:36Z</time>
      </trkpt>
      <trkpt lat="48.72014" lon="1.97136">
        <ele>149</ele>
        <time>2010-05-13T10:44:38Z</time>
      </trkpt>
      <trkpt lat="48.72016" lon="1.97137">
        <ele>149</ele>
        <time>2010-05-13T10:44:39Z</time>
      </trkpt>
      <trkpt lat="48.72017" lon="1.97137">
        <ele>149</ele>
        <time>2010-05-13T10:44:40Z</time>
      </trkpt>
      <trkpt lat="48.72019" lon="1.97137">
        <ele>149</ele>
        <time>2010-05-13T10:44:41Z</time>
      </trkpt>
      <trkpt lat="48.7202" lon="1.97138">
        <ele>149</ele>
        <time>2010-05-13T10:44:42Z</time>
      </trkpt>
      <trkpt lat="48.72021" lon="1.9714">
        <ele>149</ele>
        <time>2010-05-13T10:44:45Z</time>
      </trkpt>
      <trkpt lat="48.72024" lon="1.97142">
        <ele>150</ele>
        <time>2010-05-13T10:44:46Z</time>
      </trkpt>
      <trkpt lat="48.72027" lon="1.97143">
        <ele>151</ele>
        <time>2010-05-13T10:44:47Z</time>
      </trkpt>
      <trkpt lat="48.72029" lon="1.97146">
        <ele>152</ele>
        <time>2010-05-13T10:44:48Z</time>
      </trkpt>
      <trkpt lat="48.72031" lon="1.97148">
        <ele>153</ele>
        <time>2010-05-13T10:44:49Z</time>
      </trkpt>
      <trkpt lat="48.72032" lon="1.9715">
        <ele>154</ele>
        <time>2010-05-13T10:44:50Z</time>
      </trkpt>
      <trkpt lat="48.72035" lon="1.97154">
        <ele>155</ele>
        <time>2010-05-13T10:44:53Z</time>
      </trkpt>
      <trkpt lat="48.72037" lon="1.97156">
        <ele>156</ele>
        <time>2010-05-13T10:44:54Z</time>
      </trkpt>
      <trkpt lat="48.72039" lon="1.97161">
        <ele>156</ele>
        <time>2010-05-13T10:44:55Z</time>
      </trkpt>
      <trkpt lat="48.72041" lon="1.97163">
        <ele>156</ele>
        <time>2010-05-13T10:44:56Z</time>
      </trkpt>
      <trkpt lat="48.72043" lon="1.97167">
        <ele>157</ele>
        <time>2010-05-13T10:44:57Z</time>
      </trkpt>
      <trkpt lat="48.72045" lon="1.97169">
        <ele>157</ele>
        <time>2010-05-13T10:44:58Z</time>
      </trkpt>
      <trkpt lat="48.72048" lon="1.97172">
        <ele>158</ele>
        <time>2010-05-13T10:45:01Z</time>
      </trkpt>
      <trkpt lat="48.7205" lon="1.97175">
        <ele>158</ele>
        <time>2010-05-13T10:45:02Z</time>
      </trkpt>
      <trkpt lat="48.72051" lon="1.97177">
        <ele>158</ele>
        <time>2010-05-13T10:45:03Z</time>
      </trkpt>
      <trkpt lat="48.72053" lon="1.97176">
        <ele>158</ele>
        <time>2010-05-13T10:45:05Z</time>
      </trkpt>
      <trkpt lat="48.72054" lon="1.97176">
        <ele>158</ele>
        <time>2010-05-13T10:45:06Z</time>
      </trkpt>
      <trkpt lat="48.72056" lon="1.97177">
        <ele>158</ele>
        <time>2010-05-13T10:45:07Z</time>
      </trkpt>
      <trkpt lat="48.72058" lon="1.97178">
        <ele>158</ele>
        <time>2010-05-13T10:45:08Z</time>
      </trkpt>
      <trkpt lat="48.72059" lon="1.97182">
        <ele>158</ele>
        <time>2010-05-13T10:45:09Z</time>
      </trkpt>
      <trkpt lat="48.7206" lon="1.97186">
        <ele>158</ele>
        <time>2010-05-13T10:45:10Z</time>
      </trkpt>
      <trkpt lat="48.72061" lon="1.97189">
        <ele>158</ele>
        <time>2010-05-13T10:45:11Z</time>
      </trkpt>
      <trkpt lat="48.72062" lon="1.97191">
        <ele>158</ele>
        <time>2010-05-13T10:45:12Z</time>
      </trkpt>
      <trkpt lat="48.72065" lon="1.97194">
        <ele>158</ele>
        <time>2010-05-13T10:45:14Z</time>
      </trkpt>
      <trkpt lat="48.72066" lon="1.97196">
        <ele>157</ele>
        <time>2010-05-13T10:45:15Z</time>
      </trkpt>
      <trkpt lat="48.72068" lon="1.97197">
        <ele>156</ele>
        <time>2010-05-13T10:45:16Z</time>
      </trkpt>
      <trkpt lat="48.72069" lon="1.97198">
        <ele>155</ele>
        <time>2010-05-13T10:45:17Z</time>
      </trkpt>
      <trkpt lat="48.72071" lon="1.97201">
        <ele>151</ele>
        <time>2010-05-13T10:45:21Z</time>
      </trkpt>
      <trkpt lat="48.72072" lon="1.97204">
        <ele>150</ele>
        <time>2010-05-13T10:45:22Z</time>
      </trkpt>
      <trkpt lat="48.72074" lon="1.97205">
        <ele>149</ele>
        <time>2010-05-13T10:45:23Z</time>
      </trkpt>
      <trkpt lat="48.72074" lon="1.97208">
        <ele>148</ele>
        <time>2010-05-13T10:45:24Z</time>
      </trkpt>
      <trkpt lat="48.72077" lon="1.9721">
        <ele>147</ele>
        <time>2010-05-13T10:45:25Z</time>
      </trkpt>
      <trkpt lat="48.72078" lon="1.97213">
        <ele>146</ele>
        <time>2010-05-13T10:45:26Z</time>
      </trkpt>
      <trkpt lat="48.7208" lon="1.97214">
        <ele>145</ele>
        <time>2010-05-13T10:45:27Z</time>
      </trkpt>
      <trkpt lat="48.72082" lon="1.97215">
        <ele>145</ele>
        <time>2010-05-13T10:45:28Z</time>
      </trkpt>
      <trkpt lat="48.72084" lon="1.97218">
        <ele>145</ele>
        <time>2010-05-13T10:45:30Z</time>
      </trkpt>
      <trkpt lat="48.72086" lon="1.97218">
        <ele>145</ele>
        <time>2010-05-13T10:45:31Z</time>
      </trkpt>
      <trkpt lat="48.72089" lon="1.97219">
        <ele>145</ele>
        <time>2010-05-13T10:45:33Z</time>
      </trkpt>
      <trkpt lat="48.7209" lon="1.9722">
        <ele>145</ele>
        <time>2010-05-13T10:45:34Z</time>
      </trkpt>
      <trkpt lat="48.72092" lon="1.97219">
        <ele>145</ele>
        <time>2010-05-13T10:45:35Z</time>
      </trkpt>
      <trkpt lat="48.72094" lon="1.9722">
        <ele>145</ele>
        <time>2010-05-13T10:45:37Z</time>
      </trkpt>
      <trkpt lat="48.72095" lon="1.97223">
        <ele>145</ele>
        <time>2010-05-13T10:45:38Z</time>
      </trkpt>
      <trkpt lat="48.72097" lon="1.97224">
        <ele>145</ele>
        <time>2010-05-13T10:45:40Z</time>
      </trkpt>
      <trkpt lat="48.72098" lon="1.97224">
        <ele>145</ele>
        <time>2010-05-13T10:45:41Z</time>
      </trkpt>
      <trkpt lat="48.72099" lon="1.97226">
        <ele>145</ele>
        <time>2010-05-13T10:45:42Z</time>
      </trkpt>
      <trkpt lat="48.721" lon="1.97228">
        <ele>145</ele>
        <time>2010-05-13T10:45:44Z</time>
      </trkpt>
      <trkpt lat="48.72102" lon="1.9723">
        <ele>145</ele>
        <time>2010-05-13T10:45:45Z</time>
      </trkpt>
      <trkpt lat="48.72104" lon="1.97231">
        <ele>145</ele>
        <time>2010-05-13T10:45:46Z</time>
      </trkpt>
      <trkpt lat="48.72106" lon="1.97231">
        <ele>145</ele>
        <time>2010-05-13T10:45:47Z</time>
      </trkpt>
      <trkpt lat="48.72108" lon="1.97233">
        <ele>145</ele>
        <time>2010-05-13T10:45:48Z</time>
      </trkpt>
      <trkpt lat="48.7211" lon="1.97235">
        <ele>145</ele>
        <time>2010-05-13T10:45:50Z</time>
      </trkpt>
      <trkpt lat="48.72112" lon="1.97235">
        <ele>145</ele>
        <time>2010-05-13T10:45:51Z</time>
      </trkpt>
      <trkpt lat="48.72113" lon="1.97236">
        <ele>145</ele>
        <time>2010-05-13T10:45:52Z</time>
      </trkpt>
      <trkpt lat="48.72114" lon="1.97239">
        <ele>145</ele>
        <time>2010-05-13T10:45:53Z</time>
      </trkpt>
      <trkpt lat="48.72114" lon="1.97241">
        <ele>145</ele>
        <time>2010-05-13T10:45:54Z</time>
      </trkpt>
      <trkpt lat="48.72116" lon="1.97245">
        <ele>145</ele>
        <time>2010-05-13T10:45:56Z</time>
      </trkpt>
      <trkpt lat="48.72118" lon="1.97247">
        <ele>145</ele>
        <time>2010-05-13T10:45:57Z</time>
      </trkpt>
      <trkpt lat="48.7212" lon="1.97248">
        <ele>144</ele>
        <time>2010-05-13T10:45:58Z</time>
      </trkpt>
      <trkpt lat="48.72121" lon="1.9725">
        <ele>143</ele>
        <time>2010-05-13T10:45:59Z</time>
      </trkpt>
      <trkpt lat="48.72122" lon="1.97252">
        <ele>142</ele>
        <time>2010-05-13T10:46:00Z</time>
      </trkpt>
      <trkpt lat="48.72125" lon="1.97252">
        <ele>141</ele>
        <time>2010-05-13T10:46:03Z</time>
      </trkpt>
      <trkpt lat="48.72126" lon="1.97256">
        <ele>140</ele>
        <time>2010-05-13T10:46:04Z</time>
      </trkpt>
      <trkpt lat="48.72127" lon="1.97262">
        <ele>139</ele>
        <time>2010-05-13T10:46:05Z</time>
      </trkpt>
      <trkpt lat="48.72129" lon="1.97268">
        <ele>139</ele>
        <time>2010-05-13T10:46:06Z</time>
      </trkpt>
      <trkpt lat="48.7213" lon="1.97272">
        <ele>139</ele>
        <time>2010-05-13T10:46:07Z</time>
      </trkpt>
      <trkpt lat="48.72131" lon="1.97274">
        <ele>139</ele>
        <time>2010-05-13T10:46:08Z</time>
      </trkpt>
      <trkpt lat="48.72132" lon="1.97277">
        <ele>139</ele>
        <time>2010-05-13T10:46:09Z</time>
      </trkpt>
      <trkpt lat="48.72134" lon="1.97277">
        <ele>139</ele>
        <time>2010-05-13T10:46:10Z</time>
      </trkpt>
      <trkpt lat="48.72136" lon="1.9728">
        <ele>139</ele>
        <time>2010-05-13T10:46:11Z</time>
      </trkpt>
      <trkpt lat="48.72136" lon="1.97283">
        <ele>139</ele>
        <time>2010-05-13T10:46:12Z</time>
      </trkpt>
      <trkpt lat="48.72137" lon="1.97284">
        <ele>139</ele>
        <time>2010-05-13T10:46:13Z</time>
      </trkpt>
      <trkpt lat="48.72138" lon="1.97288">
        <ele>139</ele>
        <time>2010-05-13T10:46:14Z</time>
      </trkpt>
      <trkpt lat="48.72139" lon="1.9729">
        <ele>139</ele>
        <time>2010-05-13T10:46:15Z</time>
      </trkpt>
      <trkpt lat="48.7214" lon="1.97292">
        <ele>139</ele>
        <time>2010-05-13T10:46:16Z</time>
      </trkpt>
      <trkpt lat="48.72141" lon="1.97293">
        <ele>139</ele>
        <time>2010-05-13T10:46:18Z</time>
      </trkpt>
      <trkpt lat="48.72142" lon="1.97296">
        <ele>139</ele>
        <time>2010-05-13T10:46:20Z</time>
      </trkpt>
      <trkpt lat="48.72143" lon="1.97298">
        <ele>139</ele>
        <time>2010-05-13T10:46:21Z</time>
      </trkpt>
      <trkpt lat="48.72144" lon="1.97301">
        <ele>139</ele>
        <time>2010-05-13T10:46:23Z</time>
      </trkpt>
      <trkpt lat="48.72146" lon="1.97303">
        <ele>139</ele>
        <time>2010-05-13T10:46:25Z</time>
      </trkpt>
      <trkpt lat="48.72148" lon="1.97304">
        <ele>139</ele>
        <time>2010-05-13T10:46:26Z</time>
      </trkpt>
      <trkpt lat="48.72149" lon="1.97306">
        <ele>139</ele>
        <time>2010-05-13T10:46:27Z</time>
      </trkpt>
      <trkpt lat="48.7215" lon="1.97308">
        <ele>139</ele>
        <time>2010-05-13T10:46:28Z</time>
      </trkpt>
      <trkpt lat="48.72151" lon="1.97311">
        <ele>139</ele>
        <time>2010-05-13T10:46:30Z</time>
      </trkpt>
      <trkpt lat="48.72153" lon="1.97314">
        <ele>139</ele>
        <time>2010-05-13T10:46:32Z</time>
      </trkpt>
      <trkpt lat="48.72154" lon="1.97314">
        <ele>139</ele>
        <time>2010-05-13T10:46:33Z</time>
      </trkpt>
      <trkpt lat="48.72155" lon="1.97315">
        <ele>139</ele>
        <time>2010-05-13T10:46:34Z</time>
      </trkpt>
      <trkpt lat="48.72157" lon="1.97316">
        <ele>139</ele>
        <time>2010-05-13T10:46:35Z</time>
      </trkpt>
      <trkpt lat="48.72158" lon="1.97317">
        <ele>139</ele>
        <time>2010-05-13T10:46:36Z</time>
      </trkpt>
      <trkpt lat="48.72158" lon="1.9732">
        <ele>139</ele>
        <time>2010-05-13T10:46:37Z</time>
      </trkpt>
      <trkpt lat="48.7216" lon="1.97322">
        <ele>140</ele>
        <time>2010-05-13T10:46:38Z</time>
      </trkpt>
      <trkpt lat="48.72161" lon="1.97323">
        <ele>141</ele>
        <time>2010-05-13T10:46:39Z</time>
      </trkpt>
      <trkpt lat="48.72162" lon="1.97325">
        <ele>142</ele>
        <time>2010-05-13T10:46:40Z</time>
      </trkpt>
      <trkpt lat="48.72163" lon="1.97328">
        <ele>143</ele>
        <time>2010-05-13T10:46:41Z</time>
      </trkpt>
      <trkpt lat="48.72164" lon="1.97331">
        <ele>144</ele>
        <time>2010-05-13T10:46:42Z</time>
      </trkpt>
      <trkpt lat="48.72164" lon="1.97333">
        <ele>145</ele>
        <time>2010-05-13T10:46:43Z</time>
      </trkpt>
      <trkpt lat="48.72165" lon="1.97335">
        <ele>146</ele>
        <time>2010-05-13T10:46:44Z</time>
      </trkpt>
      <trkpt lat="48.72165" lon="1.97337">
        <ele>147</ele>
        <time>2010-05-13T10:46:45Z</time>
      </trkpt>
      <trkpt lat="48.72166" lon="1.9734">
        <ele>148</ele>
        <time>2010-05-13T10:46:46Z</time>
      </trkpt>
      <trkpt lat="48.72167" lon="1.97342">
        <ele>149</ele>
        <time>2010-05-13T10:46:47Z</time>
      </trkpt>
      <trkpt lat="48.72167" lon="1.97345">
        <ele>151</ele>
        <time>2010-05-13T10:46:49Z</time>
      </trkpt>
      <trkpt lat="48.72167" lon="1.97346">
        <ele>154</ele>
        <time>2010-05-13T10:46:51Z</time>
      </trkpt>
      <trkpt lat="48.72168" lon="1.97348">
        <ele>160</ele>
        <time>2010-05-13T10:46:57Z</time>
      </trkpt>
      <trkpt lat="48.72167" lon="1.9735">
        <ele>160</ele>
        <time>2010-05-13T10:46:59Z</time>
      </trkpt>
      <trkpt lat="48.72165" lon="1.97352">
        <ele>160</ele>
        <time>2010-05-13T10:47:01Z</time>
      </trkpt>
      <trkpt lat="48.72167" lon="1.97351">
        <ele>160</ele>
        <time>2010-05-13T10:47:04Z</time>
      </trkpt>
      <trkpt lat="48.72169" lon="1.9735">
        <ele>157</ele>
        <time>2010-05-13T10:47:07Z</time>
      </trkpt>
      <trkpt lat="48.7217" lon="1.9735">
        <ele>156</ele>
        <time>2010-05-13T10:47:08Z</time>
      </trkpt>
      <trkpt lat="48.72174" lon="1.97348">
        <ele>154</ele>
        <time>2010-05-13T10:47:10Z</time>
      </trkpt>
      <trkpt lat="48.72175" lon="1.97348">
        <ele>153</ele>
        <time>2010-05-13T10:47:11Z</time>
      </trkpt>
      <trkpt lat="48.72177" lon="1.97351">
        <ele>152</ele>
        <time>2010-05-13T10:47:13Z</time>
      </trkpt>
      <trkpt lat="48.72178" lon="1.97354">
        <ele>152</ele>
        <time>2010-05-13T10:47:16Z</time>
      </trkpt>
      <trkpt lat="48.7218" lon="1.97355">
        <ele>152</ele>
        <time>2010-05-13T10:47:17Z</time>
      </trkpt>
      <trkpt lat="48.72181" lon="1.97357">
        <ele>151</ele>
        <time>2010-05-13T10:47:19Z</time>
      </trkpt>
      <trkpt lat="48.72182" lon="1.97358">
        <ele>151</ele>
        <time>2010-05-13T10:47:20Z</time>
      </trkpt>
      <trkpt lat="48.72183" lon="1.97362">
        <ele>150</ele>
        <time>2010-05-13T10:47:22Z</time>
      </trkpt>
      <trkpt lat="48.72184" lon="1.97364">
        <ele>150</ele>
        <time>2010-05-13T10:47:23Z</time>
      </trkpt>
      <trkpt lat="48.72184" lon="1.97368">
        <ele>150</ele>
        <time>2010-05-13T10:47:24Z</time>
      </trkpt>
      <trkpt lat="48.72185" lon="1.9737">
        <ele>150</ele>
        <time>2010-05-13T10:47:26Z</time>
      </trkpt>
      <trkpt lat="48.72183" lon="1.97371">
        <ele>150</ele>
        <time>2010-05-13T10:47:32Z</time>
      </trkpt>
      <trkpt lat="48.72185" lon="1.97372">
        <ele>150</ele>
        <time>2010-05-13T10:47:37Z</time>
      </trkpt>
      <trkpt lat="48.72187" lon="1.9737">
        <ele>150</ele>
        <time>2010-05-13T10:47:38Z</time>
      </trkpt>
      <trkpt lat="48.72188" lon="1.9737">
        <ele>150</ele>
        <time>2010-05-13T10:47:39Z</time>
      </trkpt>
      <trkpt lat="48.72192" lon="1.97368">
        <ele>150</ele>
        <time>2010-05-13T10:47:40Z</time>
      </trkpt>
      <trkpt lat="48.72194" lon="1.97367">
        <ele>150</ele>
        <time>2010-05-13T10:47:41Z</time>
      </trkpt>
      <trkpt lat="48.72194" lon="1.97365">
        <ele>150</ele>
        <time>2010-05-13T10:47:42Z</time>
      </trkpt>
      <trkpt lat="48.72196" lon="1.97363">
        <ele>150</ele>
        <time>2010-05-13T10:47:43Z</time>
      </trkpt>
      <trkpt lat="48.72198" lon="1.9736">
        <ele>150</ele>
        <time>2010-05-13T10:47:44Z</time>
      </trkpt>
      <trkpt lat="48.72199" lon="1.97356">
        <ele>150</ele>
        <time>2010-05-13T10:47:45Z</time>
      </trkpt>
      <trkpt lat="48.722" lon="1.97353">
        <ele>150</ele>
        <time>2010-05-13T10:47:46Z</time>
      </trkpt>
      <trkpt lat="48.72202" lon="1.97349">
        <ele>150</ele>
        <time>2010-05-13T10:47:47Z</time>
      </trkpt>
      <trkpt lat="48.72203" lon="1.97347">
        <ele>150</ele>
        <time>2010-05-13T10:47:48Z</time>
      </trkpt>
      <trkpt lat="48.72204" lon="1.97344">
        <ele>150</ele>
        <time>2010-05-13T10:47:49Z</time>
      </trkpt>
      <trkpt lat="48.72205" lon="1.97342">
        <ele>150</ele>
        <time>2010-05-13T10:47:50Z</time>
      </trkpt>
      <trkpt lat="48.72206" lon="1.9734">
        <ele>149</ele>
        <time>2010-05-13T10:47:51Z</time>
      </trkpt>
      <trkpt lat="48.72208" lon="1.97339">
        <ele>146</ele>
        <time>2010-05-13T10:47:54Z</time>
      </trkpt>
      <trkpt lat="48.7221" lon="1.97338">
        <ele>143</ele>
        <time>2010-05-13T10:47:57Z</time>
      </trkpt>
      <trkpt lat="48.72211" lon="1.97337">
        <ele>141</ele>
        <time>2010-05-13T10:47:58Z</time>
      </trkpt>
      <trkpt lat="48.72213" lon="1.97335">
        <ele>139</ele>
        <time>2010-05-13T10:48:00Z</time>
      </trkpt>
      <trkpt lat="48.72214" lon="1.97333">
        <ele>137</ele>
        <time>2010-05-13T10:48:01Z</time>
      </trkpt>
      <trkpt lat="48.72217" lon="1.97331">
        <ele>136</ele>
        <time>2010-05-13T10:48:02Z</time>
      </trkpt>
      <trkpt lat="48.72218" lon="1.97328">
        <ele>134</ele>
        <time>2010-05-13T10:48:03Z</time>
      </trkpt>
      <trkpt lat="48.7222" lon="1.97326">
        <ele>133</ele>
        <time>2010-05-13T10:48:04Z</time>
      </trkpt>
      <trkpt lat="48.72222" lon="1.97324">
        <ele>132</ele>
        <time>2010-05-13T10:48:05Z</time>
      </trkpt>
      <trkpt lat="48.72222" lon="1.97322">
        <ele>131</ele>
        <time>2010-05-13T10:48:06Z</time>
      </trkpt>
      <trkpt lat="48.72223" lon="1.9732">
        <ele>130</ele>
        <time>2010-05-13T10:48:07Z</time>
      </trkpt>
      <trkpt lat="48.72223" lon="1.97317">
        <ele>129</ele>
        <time>2010-05-13T10:48:09Z</time>
      </trkpt>
      <trkpt lat="48.72224" lon="1.97315">
        <ele>128</ele>
        <time>2010-05-13T10:48:10Z</time>
      </trkpt>
      <trkpt lat="48.72225" lon="1.97313">
        <ele>128</ele>
        <time>2010-05-13T10:48:11Z</time>
      </trkpt>
      <trkpt lat="48.72226" lon="1.97311">
        <ele>127</ele>
        <time>2010-05-13T10:48:12Z</time>
      </trkpt>
      <trkpt lat="48.72228" lon="1.97309">
        <ele>127</ele>
        <time>2010-05-13T10:48:13Z</time>
      </trkpt>
      <trkpt lat="48.7223" lon="1.97308">
        <ele>126</ele>
        <time>2010-05-13T10:48:14Z</time>
      </trkpt>
      <trkpt lat="48.72232" lon="1.97306">
        <ele>126</ele>
        <time>2010-05-13T10:48:15Z</time>
      </trkpt>
      <trkpt lat="48.72233" lon="1.97306">
        <ele>126</ele>
        <time>2010-05-13T10:48:16Z</time>
      </trkpt>
      <trkpt lat="48.72235" lon="1.97305">
        <ele>126</ele>
        <time>2010-05-13T10:48:17Z</time>
      </trkpt>
      <trkpt lat="48.72237" lon="1.97304">
        <ele>126</ele>
        <time>2010-05-13T10:48:18Z</time>
      </trkpt>
      <trkpt lat="48.72239" lon="1.97303">
        <ele>126</ele>
        <time>2010-05-13T10:48:19Z</time>
      </trkpt>
      <trkpt lat="48.72241" lon="1.97302">
        <ele>126</ele>
        <time>2010-05-13T10:48:22Z</time>
      </trkpt>
      <trkpt lat="48.72242" lon="1.97301">
        <ele>126</ele>
        <time>2010-05-13T10:48:23Z</time>
      </trkpt>
      <trkpt lat="48.72244" lon="1.97302">
        <ele>126</ele>
        <time>2010-05-13T10:48:24Z</time>
      </trkpt>
      <trkpt lat="48.72245" lon="1.97303">
        <ele>126</ele>
        <time>2010-05-13T10:48:26Z</time>
      </trkpt>
      <trkpt lat="48.72247" lon="1.97304">
        <ele>126</ele>
        <time>2010-05-13T10:48:28Z</time>
      </trkpt>
      <trkpt lat="48.72249" lon="1.97306">
        <ele>126</ele>
        <time>2010-05-13T10:48:30Z</time>
      </trkpt>
      <trkpt lat="48.7225" lon="1.97307">
        <ele>126</ele>
        <time>2010-05-13T10:48:31Z</time>
      </trkpt>
      <trkpt lat="48.72251" lon="1.97306">
        <ele>126</ele>
        <time>2010-05-13T10:48:32Z</time>
      </trkpt>
      <trkpt lat="48.72252" lon="1.97304">
        <ele>126</ele>
        <time>2010-05-13T10:48:33Z</time>
      </trkpt>
      <trkpt lat="48.72253" lon="1.97303">
        <ele>126</ele>
        <time>2010-05-13T10:48:34Z</time>
      </trkpt>
      <trkpt lat="48.72253" lon="1.97301">
        <ele>126</ele>
        <time>2010-05-13T10:48:35Z</time>
      </trkpt>
      <trkpt lat="48.72254" lon="1.97299">
        <ele>126</ele>
        <time>2010-05-13T10:48:36Z</time>
      </trkpt>
      <trkpt lat="48.72256" lon="1.97297">
        <ele>126</ele>
        <time>2010-05-13T10:48:38Z</time>
      </trkpt>
      <trkpt lat="48.72257" lon="1.97296">
        <ele>126</ele>
        <time>2010-05-13T10:48:40Z</time>
      </trkpt>
      <trkpt lat="48.72258" lon="1.97296">
        <ele>126</ele>
        <time>2010-05-13T10:48:42Z</time>
      </trkpt>
      <trkpt lat="48.72261" lon="1.97294">
        <ele>126</ele>
        <time>2010-05-13T10:48:44Z</time>
      </trkpt>
      <trkpt lat="48.72261" lon="1.97292">
        <ele>127</ele>
        <time>2010-05-13T10:48:52Z</time>
      </trkpt>
      <trkpt lat="48.72262" lon="1.97292">
        <ele>128</ele>
        <time>2010-05-13T10:48:54Z</time>
      </trkpt>
      <trkpt lat="48.72262" lon="1.9729">
        <ele>128</ele>
        <time>2010-05-13T10:48:58Z</time>
      </trkpt>
      <trkpt lat="48.72263" lon="1.97288">
        <ele>128</ele>
        <time>2010-05-13T10:49:01Z</time>
      </trkpt>
      <trkpt lat="48.72263" lon="1.97287">
        <ele>128</ele>
        <time>2010-05-13T10:49:03Z</time>
      </trkpt>
      <trkpt lat="48.72263" lon="1.97284">
        <ele>128</ele>
        <time>2010-05-13T10:49:05Z</time>
      </trkpt>
      <trkpt lat="48.72264" lon="1.97282">
        <ele>128</ele>
        <time>2010-05-13T10:49:07Z</time>
      </trkpt>
      <trkpt lat="48.72263" lon="1.97282">
        <ele>128</ele>
        <time>2010-05-13T10:49:15Z</time>
      </trkpt>
      <trkpt lat="48.72263" lon="1.97284">
        <ele>128</ele>
        <time>2010-05-13T10:49:18Z</time>
      </trkpt>
      <trkpt lat="48.72263" lon="1.97286">
        <ele>128</ele>
        <time>2010-05-13T10:49:19Z</time>
      </trkpt>
      <trkpt lat="48.72263" lon="1.97288">
        <ele>128</ele>
        <time>2010-05-13T10:49:20Z</time>
      </trkpt>
      <trkpt lat="48.72262" lon="1.97292">
        <ele>128</ele>
        <time>2010-05-13T10:49:22Z</time>
      </trkpt>
      <trkpt lat="48.72261" lon="1.97294">
        <ele>128</ele>
        <time>2010-05-13T10:49:23Z</time>
      </trkpt>
      <trkpt lat="48.7226" lon="1.97296">
        <ele>128</ele>
        <time>2010-05-13T10:49:25Z</time>
      </trkpt>
      <trkpt lat="48.72259" lon="1.97298">
        <ele>128</ele>
        <time>2010-05-13T10:49:27Z</time>
      </trkpt>
      <trkpt lat="48.72257" lon="1.97299">
        <ele>128</ele>
        <time>2010-05-13T10:49:32Z</time>
      </trkpt>
      <trkpt lat="48.72257" lon="1.97297">
        <ele>128</ele>
        <time>2010-05-13T10:49:41Z</time>
      </trkpt>
      <trkpt lat="48.72257" lon="1.97295">
        <ele>127</ele>
        <time>2010-05-13T10:49:43Z</time>
      </trkpt>
      <trkpt lat="48.72256" lon="1.97293">
        <ele>125</ele>
        <time>2010-05-13T10:49:45Z</time>
      </trkpt>
      <trkpt lat="48.72256" lon="1.97291">
        <ele>122</ele>
        <time>2010-05-13T10:49:48Z</time>
      </trkpt>
      <trkpt lat="48.72257" lon="1.97289">
        <ele>122</ele>
        <time>2010-05-13T10:49:52Z</time>
      </trkpt>
      <trkpt lat="48.72259" lon="1.97289">
        <ele>122</ele>
        <time>2010-05-13T10:49:55Z</time>
      </trkpt>
      <trkpt lat="48.72259" lon="1.97291">
        <ele>122</ele>
        <time>2010-05-13T10:49:57Z</time>
      </trkpt>
      <trkpt lat="48.72259" lon="1.97293">
        <ele>122</ele>
        <time>2010-05-13T10:49:59Z</time>
      </trkpt>
      <trkpt lat="48.72258" lon="1.97296">
        <ele>122</ele>
        <time>2010-05-13T10:50:00Z</time>
      </trkpt>
      <trkpt lat="48.72257" lon="1.97297">
        <ele>122</ele>
        <time>2010-05-13T10:50:01Z</time>
      </trkpt>
      <trkpt lat="48.72258" lon="1.97298">
        <ele>122</ele>
        <time>2010-05-13T10:50:03Z</time>
      </trkpt>
      <trkpt lat="48.72259" lon="1.973">
        <ele>125</ele>
        <time>2010-05-13T10:50:11Z</time>
      </trkpt>
      <trkpt lat="48.72258" lon="1.97297">
        <ele>127</ele>
        <time>2010-05-13T10:50:13Z</time>
      </trkpt>
      <trkpt lat="48.72257" lon="1.97296">
        <ele>128</ele>
        <time>2010-05-13T10:50:14Z</time>
      </trkpt>
      <trkpt lat="48.72257" lon="1.97297">
        <ele>132</ele>
        <time>2010-05-13T10:50:16Z</time>
      </trkpt>
      <trkpt lat="48.72257" lon="1.973">
        <ele>137</ele>
        <time>2010-05-13T10:50:18Z</time>
      </trkpt>
      <trkpt lat="48.72256" lon="1.973">
        <ele>144</ele>
        <time>2010-05-13T10:50:21Z</time>
      </trkpt>
      <trkpt lat="48.72257" lon="1.97299">
        <ele>150</ele>
        <time>2010-05-13T10:50:26Z</time>
      </trkpt>
      <trkpt lat="48.72256" lon="1.97297">
        <ele>149</ele>
        <time>2010-05-13T10:50:29Z</time>
      </trkpt>
      <trkpt lat="48.72258" lon="1.97297">
        <ele>145</ele>
        <time>2010-05-13T10:50:33Z</time>
      </trkpt>
      <trkpt lat="48.72256" lon="1.97298">
        <ele>142</ele>
        <time>2010-05-13T10:50:36Z</time>
      </trkpt>
      <trkpt lat="48.72257" lon="1.97296">
        <ele>138</ele>
        <time>2010-05-13T10:50:40Z</time>
      </trkpt>
      <trkpt lat="48.72259" lon="1.97295">
        <ele>135</ele>
        <time>2010-05-13T10:50:43Z</time>
      </trkpt>
      <trkpt lat="48.7226" lon="1.97294">
        <ele>130</ele>
        <time>2010-05-13T10:50:48Z</time>
      </trkpt>
      <trkpt lat="48.7226" lon="1.97296">
        <ele>125</ele>
        <time>2010-05-13T10:50:53Z</time>
      </trkpt>
      <trkpt lat="48.7226" lon="1.97298">
        <ele>124</ele>
        <time>2010-05-13T10:50:59Z</time>
      </trkpt>
      <trkpt lat="48.72262" lon="1.97298">
        <ele>123</ele>
        <time>2010-05-13T10:51:06Z</time>
      </trkpt>
      <trkpt lat="48.72264" lon="1.97297">
        <ele>123</ele>
        <time>2010-05-13T10:51:13Z</time>
      </trkpt>
      <trkpt lat="48.72263" lon="1.97298">
        <ele>123</ele>
        <time>2010-05-13T10:51:21Z</time>
      </trkpt>
      <trkpt lat="48.72264" lon="1.97298">
        <ele>123</ele>
        <time>2010-05-13T10:51:23Z</time>
      </trkpt>
      <trkpt lat="48.72265" lon="1.97296">
        <ele>124</ele>
        <time>2010-05-13T10:51:27Z</time>
      </trkpt>
      <trkpt lat="48.72264" lon="1.97296">
        <ele>124</ele>
        <time>2010-05-13T10:51:40Z</time>
      </trkpt>
      <trkpt lat="48.72262" lon="1.97299">
        <ele>124</ele>
        <time>2010-05-13T10:51:48Z</time>
      </trkpt>
      <trkpt lat="48.72261" lon="1.97301">
        <ele>126</ele>
        <time>2010-05-13T10:51:51Z</time>
      </trkpt>
      <trkpt lat="48.72259" lon="1.97301">
        <ele>126</ele>
        <time>2010-05-13T10:51:52Z</time>
      </trkpt>
      <trkpt lat="48.72262" lon="1.97299">
        <ele>130</ele>
        <time>2010-05-13T10:52:00Z</time>
      </trkpt>
      <trkpt lat="48.7226" lon="1.973">
        <ele>130</ele>
        <time>2010-05-13T10:52:01Z</time>
      </trkpt>
      <trkpt lat="48.72258" lon="1.97301">
        <ele>130</ele>
        <time>2010-05-13T10:52:02Z</time>
      </trkpt>
      <trkpt lat="48.72256" lon="1.97301">
        <ele>130</ele>
        <time>2010-05-13T10:52:04Z</time>
      </trkpt>
      <trkpt lat="48.72257" lon="1.97299">
        <ele>130</ele>
        <time>2010-05-13T10:52:11Z</time>
      </trkpt>
      <trkpt lat="48.72258" lon="1.97298">
        <ele>130</ele>
        <time>2010-05-13T10:52:13Z</time>
      </trkpt>
      <trkpt lat="48.7226" lon="1.97297">
        <ele>130</ele>
        <time>2010-05-13T10:52:15Z</time>
      </trkpt>
      <trkpt lat="48.72261" lon="1.97296">
        <ele>130</ele>
        <time>2010-05-13T10:52:18Z</time>
      </trkpt>
      <trkpt lat="48.72262" lon="1.97299">
        <ele>129</ele>
        <time>2010-05-13T10:52:30Z</time>
      </trkpt>
      <trkpt lat="48.72262" lon="1.97301">
        <ele>131</ele>
        <time>2010-05-13T10:52:33Z</time>
      </trkpt>
      <trkpt lat="48.72261" lon="1.97303">
        <ele>137</ele>
        <time>2010-05-13T10:52:39Z</time>
      </trkpt>
      <trkpt lat="48.7226" lon="1.97303">
        <ele>138</ele>
        <time>2010-05-13T10:52:40Z</time>
      </trkpt>
      <trkpt lat="48.72261" lon="1.97302">
        <ele>140</ele>
        <time>2010-05-13T10:52:44Z</time>
      </trkpt>
      <trkpt lat="48.72261" lon="1.973">
        <ele>140</ele>
        <time>2010-05-13T10:52:47Z</time>
      </trkpt>
      <trkpt lat="48.7226" lon="1.97298">
        <ele>137</ele>
        <time>2010-05-13T10:52:52Z</time>
      </trkpt>
      <trkpt lat="48.72259" lon="1.97296">
        <ele>134</ele>
        <time>2010-05-13T10:52:56Z</time>
      </trkpt>
      <trkpt lat="48.72259" lon="1.97294">
        <ele>132</ele>
        <time>2010-05-13T10:53:00Z</time>
      </trkpt>
      <trkpt lat="48.72258" lon="1.97293">
        <ele>132</ele>
        <time>2010-05-13T10:53:15Z</time>
      </trkpt>
      <trkpt lat="48.72256" lon="1.97292">
        <ele>132</ele>
        <time>2010-05-13T10:53:21Z</time>
      </trkpt>
      <trkpt lat="48.72255" lon="1.97291">
        <ele>132</ele>
        <time>2010-05-13T10:53:34Z</time>
      </trkpt>
      <trkpt lat="48.72255" lon="1.97293">
        <ele>132</ele>
        <time>2010-05-13T10:53:46Z</time>
      </trkpt>
      <trkpt lat="48.72256" lon="1.97295">
        <ele>132</ele>
        <time>2010-05-13T10:53:50Z</time>
      </trkpt>
      <trkpt lat="48.72256" lon="1.97296">
        <ele>132</ele>
        <time>2010-05-13T10:53:54Z</time>
      </trkpt>
      <trkpt lat="48.72255" lon="1.97296">
        <ele>132</ele>
        <time>2010-05-13T10:53:57Z</time>
      </trkpt>
      <trkpt lat="48.72256" lon="1.97296">
        <ele>132</ele>
        <time>2010-05-13T10:54:00Z</time>
      </trkpt>
      <trkpt lat="48.72256" lon="1.97294">
        <ele>132</ele>
        <time>2010-05-13T10:54:16Z</time>
      </trkpt>
      <trkpt lat="48.72256" lon="1.97297">
        <ele>132</ele>
        <time>2010-05-13T10:54:25Z</time>
      </trkpt>
      <trkpt lat="48.72257" lon="1.97299">
        <ele>132</ele>
        <time>2010-05-13T10:54:28Z</time>
      </trkpt>
      <trkpt lat="48.72258" lon="1.973">
        <ele>132</ele>
        <time>2010-05-13T10:54:42Z</time>
      </trkpt>
      <trkpt lat="48.72257" lon="1.97299">
        <ele>132</ele>
        <time>2010-05-13T10:54:51Z</time>
      </trkpt>
      <trkpt lat="48.72258" lon="1.97297">
        <ele>135</ele>
        <time>2010-05-13T10:54:59Z</time>
      </trkpt>
      <trkpt lat="48.72259" lon="1.97297">
        <ele>136</ele>
        <time>2010-05-13T10:55:06Z</time>
      </trkpt>
      <trkpt lat="48.72259" lon="1.973">
        <ele>136</ele>
        <time>2010-05-13T10:55:11Z</time>
      </trkpt>
      <trkpt lat="48.72259" lon="1.97302">
        <ele>137</ele>
        <time>2010-05-13T10:55:12Z</time>
      </trkpt>
      <trkpt lat="48.7226" lon="1.97303">
        <ele>137</ele>
        <time>2010-05-13T10:55:13Z</time>
      </trkpt>
      <trkpt lat="48.7226" lon="1.97305">
        <ele>137</ele>
        <time>2010-05-13T10:55:15Z</time>
      </trkpt>
      <trkpt lat="48.7226" lon="1.97307">
        <ele>137</ele>
        <time>2010-05-13T10:55:18Z</time>
      </trkpt>
      <trkpt lat="48.72261" lon="1.97309">
        <ele>137</ele>
        <time>2010-05-13T10:55:21Z</time>
      </trkpt>
      <trkpt lat="48.7226" lon="1.97311">
        <ele>137</ele>
        <time>2010-05-13T10:55:25Z</time>
      </trkpt>
      <trkpt lat="48.7226" lon="1.97313">
        <ele>137</ele>
        <time>2010-05-13T10:55:29Z</time>
      </trkpt>
      <trkpt lat="48.72258" lon="1.97314">
        <ele>137</ele>
        <time>2010-05-13T10:55:33Z</time>
      </trkpt>
      <trkpt lat="48.72259" lon="1.97312">
        <ele>137</ele>
        <time>2010-05-13T10:55:37Z</time>
      </trkpt>
      <trkpt lat="48.7226" lon="1.97309">
        <ele>137</ele>
        <time>2010-05-13T10:55:39Z</time>
      </trkpt>
      <trkpt lat="48.72261" lon="1.97307">
        <ele>137</ele>
        <time>2010-05-13T10:55:41Z</time>
      </trkpt>
      <trkpt lat="48.72262" lon="1.97304">
        <ele>137</ele>
        <time>2010-05-13T10:55:43Z</time>
      </trkpt>
      <trkpt lat="48.72263" lon="1.97303">
        <ele>137</ele>
        <time>2010-05-13T10:55:48Z</time>
      </trkpt>
      <trkpt lat="48.72263" lon="1.973">
        <ele>137</ele>
        <time>2010-05-13T10:55:58Z</time>
      </trkpt>
      <trkpt lat="48.72263" lon="1.97297">
        <ele>137</ele>
        <time>2010-05-13T10:56:00Z</time>
      </trkpt>
      <trkpt lat="48.72263" lon="1.97295">
        <ele>137</ele>
        <time>2010-05-13T10:56:01Z</time>
      </trkpt>
      <trkpt lat="48.72265" lon="1.97293">
        <ele>137</ele>
        <time>2010-05-13T10:56:03Z</time>
      </trkpt>
      <trkpt lat="48.72266" lon="1.97292">
        <ele>137</ele>
        <time>2010-05-13T10:56:04Z</time>
      </trkpt>
      <trkpt lat="48.72268" lon="1.97291">
        <ele>137</ele>
        <time>2010-05-13T10:56:05Z</time>
      </trkpt>
      <trkpt lat="48.72269" lon="1.9729">
        <ele>137</ele>
        <time>2010-05-13T10:56:06Z</time>
      </trkpt>
      <trkpt lat="48.72269" lon="1.97288">
        <ele>137</ele>
        <time>2010-05-13T10:56:08Z</time>
      </trkpt>
      <trkpt lat="48.72271" lon="1.97287">
        <ele>137</ele>
        <time>2010-05-13T10:56:10Z</time>
      </trkpt>
      <trkpt lat="48.72272" lon="1.97285">
        <ele>137</ele>
        <time>2010-05-13T10:56:11Z</time>
      </trkpt>
      <trkpt lat="48.72274" lon="1.97283">
        <ele>137</ele>
        <time>2010-05-13T10:56:12Z</time>
      </trkpt>
      <trkpt lat="48.72275" lon="1.97281">
        <ele>137</ele>
        <time>2010-05-13T10:56:13Z</time>
      </trkpt>
      <trkpt lat="48.72279" lon="1.97279">
        <ele>137</ele>
        <time>2010-05-13T10:56:14Z</time>
      </trkpt>
      <trkpt lat="48.72281" lon="1.97276">
        <ele>137</ele>
        <time>2010-05-13T10:56:15Z</time>
      </trkpt>
      <trkpt lat="48.72284" lon="1.97273">
        <ele>137</ele>
        <time>2010-05-13T10:56:16Z</time>
      </trkpt>
      <trkpt lat="48.72286" lon="1.9727">
        <ele>137</ele>
        <time>2010-05-13T10:56:17Z</time>
      </trkpt>
      <trkpt lat="48.72289" lon="1.97268">
        <ele>137</ele>
        <time>2010-05-13T10:56:18Z</time>
      </trkpt>
      <trkpt lat="48.72292" lon="1.97266">
        <ele>137</ele>
        <time>2010-05-13T10:56:19Z</time>
      </trkpt>
      <trkpt lat="48.72294" lon="1.97264">
        <ele>137</ele>
        <time>2010-05-13T10:56:20Z</time>
      </trkpt>
      <trkpt lat="48.72296" lon="1.97262">
        <ele>137</ele>
        <time>2010-05-13T10:56:21Z</time>
      </trkpt>
      <trkpt lat="48.72298" lon="1.97261">
        <ele>137</ele>
        <time>2010-05-13T10:56:22Z</time>
      </trkpt>
      <trkpt lat="48.723" lon="1.97259">
        <ele>137</ele>
        <time>2010-05-13T10:56:23Z</time>
      </trkpt>
      <trkpt lat="48.72302" lon="1.97257">
        <ele>137</ele>
        <time>2010-05-13T10:56:24Z</time>
      </trkpt>
      <trkpt lat="48.72303" lon="1.97256">
        <ele>137</ele>
        <time>2010-05-13T10:56:25Z</time>
      </trkpt>
      <trkpt lat="48.72305" lon="1.97256">
        <ele>137</ele>
        <time>2010-05-13T10:56:26Z</time>
      </trkpt>
      <trkpt lat="48.72307" lon="1.97255">
        <ele>137</ele>
        <time>2010-05-13T10:56:27Z</time>
      </trkpt>
      <trkpt lat="48.72308" lon="1.97253">
        <ele>138</ele>
        <time>2010-05-13T10:56:28Z</time>
      </trkpt>
      <trkpt lat="48.7231" lon="1.97252">
        <ele>138</ele>
        <time>2010-05-13T10:56:29Z</time>
      </trkpt>
      <trkpt lat="48.72311" lon="1.97251">
        <ele>138</ele>
        <time>2010-05-13T10:56:30Z</time>
      </trkpt>
      <trkpt lat="48.72312" lon="1.9725">
        <ele>138</ele>
        <time>2010-05-13T10:56:31Z</time>
      </trkpt>
      <trkpt lat="48.72314" lon="1.97249">
        <ele>138</ele>
        <time>2010-05-13T10:56:32Z</time>
      </trkpt>
      <trkpt lat="48.72315" lon="1.97248">
        <ele>138</ele>
        <time>2010-05-13T10:56:33Z</time>
      </trkpt>
      <trkpt lat="48.72317" lon="1.97247">
        <ele>138</ele>
        <time>2010-05-13T10:56:34Z</time>
      </trkpt>
      <trkpt lat="48.72318" lon="1.97247">
        <ele>138</ele>
        <time>2010-05-13T10:56:35Z</time>
      </trkpt>
      <trkpt lat="48.72319" lon="1.97247">
        <ele>138</ele>
        <time>2010-05-13T10:56:36Z</time>
      </trkpt>
      <trkpt lat="48.72321" lon="1.97246">
        <ele>138</ele>
        <time>2010-05-13T10:56:37Z</time>
      </trkpt>
      <trkpt lat="48.72322" lon="1.97245">
        <ele>139</ele>
        <time>2010-05-13T10:56:38Z</time>
      </trkpt>
      <trkpt lat="48.72324" lon="1.97244">
        <ele>139</ele>
        <time>2010-05-13T10:56:40Z</time>
      </trkpt>
      <trkpt lat="48.72325" lon="1.97243">
        <ele>140</ele>
        <time>2010-05-13T10:56:41Z</time>
      </trkpt>
      <trkpt lat="48.72327" lon="1.97242">
        <ele>140</ele>
        <time>2010-05-13T10:56:42Z</time>
      </trkpt>
      <trkpt lat="48.72328" lon="1.97241">
        <ele>140</ele>
        <time>2010-05-13T10:56:44Z</time>
      </trkpt>
      <trkpt lat="48.7233" lon="1.97241">
        <ele>141</ele>
        <time>2010-05-13T10:56:45Z</time>
      </trkpt>
      <trkpt lat="48.72331" lon="1.9724">
        <ele>141</ele>
        <time>2010-05-13T10:56:46Z</time>
      </trkpt>
      <trkpt lat="48.72333" lon="1.97239">
        <ele>141</ele>
        <time>2010-05-13T10:56:47Z</time>
      </trkpt>
      <trkpt lat="48.72334" lon="1.97238">
        <ele>142</ele>
        <time>2010-05-13T10:56:48Z</time>
      </trkpt>
      <trkpt lat="48.72336" lon="1.97238">
        <ele>142</ele>
        <time>2010-05-13T10:56:50Z</time>
      </trkpt>
      <trkpt lat="48.72337" lon="1.97237">
        <ele>142</ele>
        <time>2010-05-13T10:56:51Z</time>
      </trkpt>
      <trkpt lat="48.72339" lon="1.97237">
        <ele>143</ele>
        <time>2010-05-13T10:56:52Z</time>
      </trkpt>
      <trkpt lat="48.7234" lon="1.97237">
        <ele>143</ele>
        <time>2010-05-13T10:56:54Z</time>
      </trkpt>
      <trkpt lat="48.72343" lon="1.97235">
        <ele>144</ele>
        <time>2010-05-13T10:56:56Z</time>
      </trkpt>
      <trkpt lat="48.72344" lon="1.97234">
        <ele>144</ele>
        <time>2010-05-13T10:56:57Z</time>
      </trkpt>
      <trkpt lat="48.72346" lon="1.97231">
        <ele>144</ele>
        <time>2010-05-13T10:56:59Z</time>
      </trkpt>
      <trkpt lat="48.72347" lon="1.9723">
        <ele>144</ele>
        <time>2010-05-13T10:57:00Z</time>
      </trkpt>
      <trkpt lat="48.72348" lon="1.97229">
        <ele>144</ele>
        <time>2010-05-13T10:57:01Z</time>
      </trkpt>
      <trkpt lat="48.7235" lon="1.97228">
        <ele>144</ele>
        <time>2010-05-13T10:57:02Z</time>
      </trkpt>
      <trkpt lat="48.72351" lon="1.97228">
        <ele>144</ele>
        <time>2010-05-13T10:57:03Z</time>
      </trkpt>
      <trkpt lat="48.72353" lon="1.97227">
        <ele>144</ele>
        <time>2010-05-13T10:57:04Z</time>
      </trkpt>
      <trkpt lat="48.72354" lon="1.97227">
        <ele>144</ele>
        <time>2010-05-13T10:57:05Z</time>
      </trkpt>
      <trkpt lat="48.72355" lon="1.97226">
        <ele>144</ele>
        <time>2010-05-13T10:57:06Z</time>
      </trkpt>
      <trkpt lat="48.72357" lon="1.97224">
        <ele>144</ele>
        <time>2010-05-13T10:57:08Z</time>
      </trkpt>
      <trkpt lat="48.72359" lon="1.97223">
        <ele>144</ele>
        <time>2010-05-13T10:57:10Z</time>
      </trkpt>
      <trkpt lat="48.7236" lon="1.97221">
        <ele>144</ele>
        <time>2010-05-13T10:57:12Z</time>
      </trkpt>
      <trkpt lat="48.72362" lon="1.9722">
        <ele>144</ele>
        <time>2010-05-13T10:57:14Z</time>
      </trkpt>
      <trkpt lat="48.72363" lon="1.97218">
        <ele>144</ele>
        <time>2010-05-13T10:57:15Z</time>
      </trkpt>
      <trkpt lat="48.72364" lon="1.97217">
        <ele>144</ele>
        <time>2010-05-13T10:57:16Z</time>
      </trkpt>
      <trkpt lat="48.72364" lon="1.97219">
        <ele>144</ele>
        <time>2010-05-13T10:57:20Z</time>
      </trkpt>
      <trkpt lat="48.72364" lon="1.97223">
        <ele>144</ele>
        <time>2010-05-13T10:57:22Z</time>
      </trkpt>
      <trkpt lat="48.72365" lon="1.97224">
        <ele>144</ele>
        <time>2010-05-13T10:57:23Z</time>
      </trkpt>
      <trkpt lat="48.72365" lon="1.97226">
        <ele>144</ele>
        <time>2010-05-13T10:57:24Z</time>
      </trkpt>
      <trkpt lat="48.72365" lon="1.97228">
        <ele>144</ele>
        <time>2010-05-13T10:57:25Z</time>
      </trkpt>
      <trkpt lat="48.72366" lon="1.9723">
        <ele>144</ele>
        <time>2010-05-13T10:57:26Z</time>
      </trkpt>
      <trkpt lat="48.72366" lon="1.97232">
        <ele>144</ele>
        <time>2010-05-13T10:57:27Z</time>
      </trkpt>
      <trkpt lat="48.72366" lon="1.97234">
        <ele>144</ele>
        <time>2010-05-13T10:57:28Z</time>
      </trkpt>
      <trkpt lat="48.72366" lon="1.97236">
        <ele>144</ele>
        <time>2010-05-13T10:57:29Z</time>
      </trkpt>
      <trkpt lat="48.72367" lon="1.97238">
        <ele>144</ele>
        <time>2010-05-13T10:57:30Z</time>
      </trkpt>
      <trkpt lat="48.72368" lon="1.97241">
        <ele>144</ele>
        <time>2010-05-13T10:57:31Z</time>
      </trkpt>
      <trkpt lat="48.7237" lon="1.97243">
        <ele>144</ele>
        <time>2010-05-13T10:57:32Z</time>
      </trkpt>
      <trkpt lat="48.72371" lon="1.97246">
        <ele>144</ele>
        <time>2010-05-13T10:57:33Z</time>
      </trkpt>
      <trkpt lat="48.72371" lon="1.97248">
        <ele>144</ele>
        <time>2010-05-13T10:57:34Z</time>
      </trkpt>
      <trkpt lat="48.72371" lon="1.97251">
        <ele>144</ele>
        <time>2010-05-13T10:57:35Z</time>
      </trkpt>
      <trkpt lat="48.72371" lon="1.97253">
        <ele>144</ele>
        <time>2010-05-13T10:57:36Z</time>
      </trkpt>
      <trkpt lat="48.72372" lon="1.97255">
        <ele>144</ele>
        <time>2010-05-13T10:57:37Z</time>
      </trkpt>
      <trkpt lat="48.72372" lon="1.97257">
        <ele>144</ele>
        <time>2010-05-13T10:57:38Z</time>
      </trkpt>
      <trkpt lat="48.72372" lon="1.97259">
        <ele>144</ele>
        <time>2010-05-13T10:57:39Z</time>
      </trkpt>
      <trkpt lat="48.72373" lon="1.97261">
        <ele>144</ele>
        <time>2010-05-13T10:57:40Z</time>
      </trkpt>
      <trkpt lat="48.72373" lon="1.97262">
        <ele>144</ele>
        <time>2010-05-13T10:57:41Z</time>
      </trkpt>
      <trkpt lat="48.72373" lon="1.97264">
        <ele>144</ele>
        <time>2010-05-13T10:57:42Z</time>
      </trkpt>
      <trkpt lat="48.72373" lon="1.97266">
        <ele>144</ele>
        <time>2010-05-13T10:57:43Z</time>
      </trkpt>
      <trkpt lat="48.72373" lon="1.97268">
        <ele>144</ele>
        <time>2010-05-13T10:57:44Z</time>
      </trkpt>
      <trkpt lat="48.72373" lon="1.9727">
        <ele>144</ele>
        <time>2010-05-13T10:57:45Z</time>
      </trkpt>
      <trkpt lat="48.72373" lon="1.97272">
        <ele>144</ele>
        <time>2010-05-13T10:57:46Z</time>
      </trkpt>
      <trkpt lat="48.72374" lon="1.97273">
        <ele>144</ele>
        <time>2010-05-13T10:57:47Z</time>
      </trkpt>
      <trkpt lat="48.72374" lon="1.97275">
        <ele>144</ele>
        <time>2010-05-13T10:57:48Z</time>
      </trkpt>
      <trkpt lat="48.72374" lon="1.97277">
        <ele>144</ele>
        <time>2010-05-13T10:57:49Z</time>
      </trkpt>
      <trkpt lat="48.72374" lon="1.97279">
        <ele>144</ele>
        <time>2010-05-13T10:57:50Z</time>
      </trkpt>
      <trkpt lat="48.72373" lon="1.97282">
        <ele>144</ele>
        <time>2010-05-13T10:57:52Z</time>
      </trkpt>
      <trkpt lat="48.72372" lon="1.97285">
        <ele>144</ele>
        <time>2010-05-13T10:57:54Z</time>
      </trkpt>
      <trkpt lat="48.72371" lon="1.97286">
        <ele>144</ele>
        <time>2010-05-13T10:57:55Z</time>
      </trkpt>
      <trkpt lat="48.7237" lon="1.97288">
        <ele>144</ele>
        <time>2010-05-13T10:57:56Z</time>
      </trkpt>
      <trkpt lat="48.72369" lon="1.9729">
        <ele>144</ele>
        <time>2010-05-13T10:57:57Z</time>
      </trkpt>
      <trkpt lat="48.72368" lon="1.97293">
        <ele>144</ele>
        <time>2010-05-13T10:57:59Z</time>
      </trkpt>
      <trkpt lat="48.72366" lon="1.97295">
        <ele>144</ele>
        <time>2010-05-13T10:58:01Z</time>
      </trkpt>
      <trkpt lat="48.72364" lon="1.97297">
        <ele>144</ele>
        <time>2010-05-13T10:58:03Z</time>
      </trkpt>
      <trkpt lat="48.72362" lon="1.97299">
        <ele>144</ele>
        <time>2010-05-13T10:58:05Z</time>
      </trkpt>
      <trkpt lat="48.7236" lon="1.97299">
        <ele>144</ele>
        <time>2010-05-13T10:58:06Z</time>
      </trkpt>
      <trkpt lat="48.72359" lon="1.97299">
        <ele>144</ele>
        <time>2010-05-13T10:58:07Z</time>
      </trkpt>
      <trkpt lat="48.72357" lon="1.97299">
        <ele>144</ele>
        <time>2010-05-13T10:58:08Z</time>
      </trkpt>
      <trkpt lat="48.72356" lon="1.97299">
        <ele>144</ele>
        <time>2010-05-13T10:58:09Z</time>
      </trkpt>
      <trkpt lat="48.72355" lon="1.97299">
        <ele>144</ele>
        <time>2010-05-13T10:58:10Z</time>
      </trkpt>
      <trkpt lat="48.72354" lon="1.973">
        <ele>144</ele>
        <time>2010-05-13T10:58:11Z</time>
      </trkpt>
      <trkpt lat="48.72353" lon="1.973">
        <ele>144</ele>
        <time>2010-05-13T10:58:12Z</time>
      </trkpt>
      <trkpt lat="48.72286" lon="1.97261">
        <ele>126</ele>
        <time>2010-05-13T10:58:16Z</time>
      </trkpt>
      <trkpt lat="48.72287" lon="1.97259">
        <ele>126</ele>
        <time>2010-05-13T10:58:19Z</time>
      </trkpt>
      <trkpt lat="48.72289" lon="1.97258">
        <ele>126</ele>
        <time>2010-05-13T10:58:21Z</time>
      </trkpt>
      <trkpt lat="48.72291" lon="1.97257">
        <ele>126</ele>
        <time>2010-05-13T10:58:22Z</time>
      </trkpt>
      <trkpt lat="48.72292" lon="1.97256">
        <ele>126</ele>
        <time>2010-05-13T10:58:23Z</time>
      </trkpt>
      <trkpt lat="48.72294" lon="1.97255">
        <ele>126</ele>
        <time>2010-05-13T10:58:24Z</time>
      </trkpt>
      <trkpt lat="48.72295" lon="1.97254">
        <ele>126</ele>
        <time>2010-05-13T10:58:25Z</time>
      </trkpt>
      <trkpt lat="48.72297" lon="1.97252">
        <ele>126</ele>
        <time>2010-05-13T10:58:29Z</time>
      </trkpt>
      <trkpt lat="48.72298" lon="1.9725">
        <ele>126</ele>
        <time>2010-05-13T10:58:31Z</time>
      </trkpt>
      <trkpt lat="48.72301" lon="1.97248">
        <ele>126</ele>
        <time>2010-05-13T10:58:33Z</time>
      </trkpt>
      <trkpt lat="48.72302" lon="1.97247">
        <ele>126</ele>
        <time>2010-05-13T10:58:34Z</time>
      </trkpt>
      <trkpt lat="48.72304" lon="1.97245">
        <ele>126</ele>
        <time>2010-05-13T10:58:35Z</time>
      </trkpt>
      <trkpt lat="48.72306" lon="1.97243">
        <ele>126</ele>
        <time>2010-05-13T10:58:37Z</time>
      </trkpt>
      <trkpt lat="48.72307" lon="1.97241">
        <ele>126</ele>
        <time>2010-05-13T10:58:39Z</time>
      </trkpt>
      <trkpt lat="48.72309" lon="1.9724">
        <ele>126</ele>
        <time>2010-05-13T10:58:41Z</time>
      </trkpt>
      <trkpt lat="48.72311" lon="1.97238">
        <ele>126</ele>
        <time>2010-05-13T10:58:43Z</time>
      </trkpt>
      <trkpt lat="48.72312" lon="1.97237">
        <ele>126</ele>
        <time>2010-05-13T10:58:44Z</time>
      </trkpt>
      <trkpt lat="48.72314" lon="1.97237">
        <ele>126</ele>
        <time>2010-05-13T10:58:45Z</time>
      </trkpt>
      <trkpt lat="48.72316" lon="1.97236">
        <ele>126</ele>
        <time>2010-05-13T10:58:47Z</time>
      </trkpt>
      <trkpt lat="48.72317" lon="1.97236">
        <ele>126</ele>
        <time>2010-05-13T10:58:49Z</time>
      </trkpt>
      <trkpt lat="48.72319" lon="1.97235">
        <ele>127</ele>
        <time>2010-05-13T10:58:51Z</time>
      </trkpt>
      <trkpt lat="48.72321" lon="1.97234">
        <ele>128</ele>
        <time>2010-05-13T10:58:52Z</time>
      </trkpt>
      <trkpt lat="48.72323" lon="1.97233">
        <ele>128</ele>
        <time>2010-05-13T10:58:54Z</time>
      </trkpt>
      <trkpt lat="48.72325" lon="1.97233">
        <ele>128</ele>
        <time>2010-05-13T10:58:56Z</time>
      </trkpt>
      <trkpt lat="48.72326" lon="1.97232">
        <ele>129</ele>
        <time>2010-05-13T10:58:58Z</time>
      </trkpt>
      <trkpt lat="48.72328" lon="1.9723">
        <ele>129</ele>
        <time>2010-05-13T10:59:00Z</time>
      </trkpt>
      <trkpt lat="48.72329" lon="1.9723">
        <ele>129</ele>
        <time>2010-05-13T10:59:02Z</time>
      </trkpt>
      <trkpt lat="48.72331" lon="1.9723">
        <ele>130</ele>
        <time>2010-05-13T10:59:04Z</time>
      </trkpt>
      <trkpt lat="48.72332" lon="1.97229">
        <ele>130</ele>
        <time>2010-05-13T10:59:05Z</time>
      </trkpt>
      <trkpt lat="48.72334" lon="1.97229">
        <ele>130</ele>
        <time>2010-05-13T10:59:06Z</time>
      </trkpt>
      <trkpt lat="48.72335" lon="1.97227">
        <ele>131</ele>
        <time>2010-05-13T10:59:08Z</time>
      </trkpt>
      <trkpt lat="48.72337" lon="1.97226">
        <ele>131</ele>
        <time>2010-05-13T10:59:10Z</time>
      </trkpt>
      <trkpt lat="48.72338" lon="1.97225">
        <ele>131</ele>
        <time>2010-05-13T10:59:12Z</time>
      </trkpt>
      <trkpt lat="48.7234" lon="1.97224">
        <ele>131</ele>
        <time>2010-05-13T10:59:14Z</time>
      </trkpt>
      <trkpt lat="48.72342" lon="1.97222">
        <ele>131</ele>
        <time>2010-05-13T10:59:16Z</time>
      </trkpt>
      <trkpt lat="48.72343" lon="1.97221">
        <ele>131</ele>
        <time>2010-05-13T10:59:18Z</time>
      </trkpt>
      <trkpt lat="48.72345" lon="1.9722">
        <ele>131</ele>
        <time>2010-05-13T10:59:20Z</time>
      </trkpt>
      <trkpt lat="48.72346" lon="1.97219">
        <ele>132</ele>
        <time>2010-05-13T10:59:22Z</time>
      </trkpt>
      <trkpt lat="48.72348" lon="1.97217">
        <ele>132</ele>
        <time>2010-05-13T10:59:24Z</time>
      </trkpt>
      <trkpt lat="48.72349" lon="1.97216">
        <ele>132</ele>
        <time>2010-05-13T10:59:25Z</time>
      </trkpt>
      <trkpt lat="48.7235" lon="1.97215">
        <ele>133</ele>
        <time>2010-05-13T10:59:26Z</time>
      </trkpt>
      <trkpt lat="48.72352" lon="1.97215">
        <ele>133</ele>
        <time>2010-05-13T10:59:28Z</time>
      </trkpt>
      <trkpt lat="48.72353" lon="1.97214">
        <ele>133</ele>
        <time>2010-05-13T10:59:29Z</time>
      </trkpt>
      <trkpt lat="48.72355" lon="1.97213">
        <ele>133</ele>
        <time>2010-05-13T10:59:30Z</time>
      </trkpt>
      <trkpt lat="48.72356" lon="1.97212">
        <ele>133</ele>
        <time>2010-05-13T10:59:31Z</time>
      </trkpt>
      <trkpt lat="48.72357" lon="1.97211">
        <ele>133</ele>
        <time>2010-05-13T10:59:32Z</time>
      </trkpt>
      <trkpt lat="48.72359" lon="1.97211">
        <ele>134</ele>
        <time>2010-05-13T10:59:34Z</time>
      </trkpt>
      <trkpt lat="48.7236" lon="1.9721">
        <ele>135</ele>
        <time>2010-05-13T10:59:36Z</time>
      </trkpt>
      <trkpt lat="48.72362" lon="1.97209">
        <ele>135</ele>
        <time>2010-05-13T10:59:38Z</time>
      </trkpt>
      <trkpt lat="48.72363" lon="1.97208">
        <ele>136</ele>
        <time>2010-05-13T10:59:40Z</time>
      </trkpt>
      <trkpt lat="48.72365" lon="1.97207">
        <ele>137</ele>
        <time>2010-05-13T10:59:43Z</time>
      </trkpt>
      <trkpt lat="48.72366" lon="1.97206">
        <ele>138</ele>
        <time>2010-05-13T10:59:45Z</time>
      </trkpt>
      <trkpt lat="48.72369" lon="1.97205">
        <ele>138</ele>
        <time>2010-05-13T10:59:47Z</time>
      </trkpt>
      <trkpt lat="48.7237" lon="1.97204">
        <ele>138</ele>
        <time>2010-05-13T10:59:48Z</time>
      </trkpt>
      <trkpt lat="48.72372" lon="1.97203">
        <ele>139</ele>
        <time>2010-05-13T10:59:50Z</time>
      </trkpt>
      <trkpt lat="48.72374" lon="1.97202">
        <ele>139</ele>
        <time>2010-05-13T10:59:51Z</time>
      </trkpt>
      <trkpt lat="48.72375" lon="1.97201">
        <ele>139</ele>
        <time>2010-05-13T10:59:52Z</time>
      </trkpt>
      <trkpt lat="48.72377" lon="1.972">
        <ele>140</ele>
        <time>2010-05-13T10:59:54Z</time>
      </trkpt>
      <trkpt lat="48.72379" lon="1.97198">
        <ele>140</ele>
        <time>2010-05-13T10:59:56Z</time>
      </trkpt>
      <trkpt lat="48.7238" lon="1.97198">
        <ele>140</ele>
        <time>2010-05-13T10:59:57Z</time>
      </trkpt>
      <trkpt lat="48.72382" lon="1.97197">
        <ele>141</ele>
        <time>2010-05-13T10:59:59Z</time>
      </trkpt>
      <trkpt lat="48.72384" lon="1.97195">
        <ele>141</ele>
        <time>2010-05-13T11:00:01Z</time>
      </trkpt>
      <trkpt lat="48.72386" lon="1.97194">
        <ele>142</ele>
        <time>2010-05-13T11:00:03Z</time>
      </trkpt>
      <trkpt lat="48.72387" lon="1.97193">
        <ele>142</ele>
        <time>2010-05-13T11:00:05Z</time>
      </trkpt>
      <trkpt lat="48.7239" lon="1.97192">
        <ele>142</ele>
        <time>2010-05-13T11:00:07Z</time>
      </trkpt>
      <trkpt lat="48.72391" lon="1.97192">
        <ele>142</ele>
        <time>2010-05-13T11:00:08Z</time>
      </trkpt>
      <trkpt lat="48.72393" lon="1.9719">
        <ele>143</ele>
        <time>2010-05-13T11:00:10Z</time>
      </trkpt>
      <trkpt lat="48.72394" lon="1.97189">
        <ele>143</ele>
        <time>2010-05-13T11:00:12Z</time>
      </trkpt>
      <trkpt lat="48.72396" lon="1.97189">
        <ele>143</ele>
        <time>2010-05-13T11:00:13Z</time>
      </trkpt>
      <trkpt lat="48.72397" lon="1.97188">
        <ele>143</ele>
        <time>2010-05-13T11:00:14Z</time>
      </trkpt>
      <trkpt lat="48.72398" lon="1.97187">
        <ele>143</ele>
        <time>2010-05-13T11:00:16Z</time>
      </trkpt>
      <trkpt lat="48.724" lon="1.97187">
        <ele>144</ele>
        <time>2010-05-13T11:00:18Z</time>
      </trkpt>
      <trkpt lat="48.72401" lon="1.97186">
        <ele>144</ele>
        <time>2010-05-13T11:00:20Z</time>
      </trkpt>
      <trkpt lat="48.72403" lon="1.97186">
        <ele>144</ele>
        <time>2010-05-13T11:00:22Z</time>
      </trkpt>
      <trkpt lat="48.72405" lon="1.97186">
        <ele>145</ele>
        <time>2010-05-13T11:00:24Z</time>
      </trkpt>
      <trkpt lat="48.72406" lon="1.97186">
        <ele>145</ele>
        <time>2010-05-13T11:00:25Z</time>
      </trkpt>
      <trkpt lat="48.72407" lon="1.97186">
        <ele>145</ele>
        <time>2010-05-13T11:00:26Z</time>
      </trkpt>
      <trkpt lat="48.72409" lon="1.97185">
        <ele>145</ele>
        <time>2010-05-13T11:00:28Z</time>
      </trkpt>
      <trkpt lat="48.7241" lon="1.97184">
        <ele>145</ele>
        <time>2010-05-13T11:00:29Z</time>
      </trkpt>
      <trkpt lat="48.72412" lon="1.97183">
        <ele>145</ele>
        <time>2010-05-13T11:00:31Z</time>
      </trkpt>
      <trkpt lat="48.72413" lon="1.97182">
        <ele>146</ele>
        <time>2010-05-13T11:00:32Z</time>
      </trkpt>
      <trkpt lat="48.72414" lon="1.97182">
        <ele>146</ele>
        <time>2010-05-13T11:00:33Z</time>
      </trkpt>
      <trkpt lat="48.72416" lon="1.97182">
        <ele>146</ele>
        <time>2010-05-13T11:00:35Z</time>
      </trkpt>
      <trkpt lat="48.72418" lon="1.97181">
        <ele>146</ele>
        <time>2010-05-13T11:00:37Z</time>
      </trkpt>
      <trkpt lat="48.72419" lon="1.9718">
        <ele>146</ele>
        <time>2010-05-13T11:00:38Z</time>
      </trkpt>
      <trkpt lat="48.72421" lon="1.97179">
        <ele>147</ele>
        <time>2010-05-13T11:00:40Z</time>
      </trkpt>
      <trkpt lat="48.72423" lon="1.97179">
        <ele>147</ele>
        <time>2010-05-13T11:00:42Z</time>
      </trkpt>
      <trkpt lat="48.72425" lon="1.97179">
        <ele>147</ele>
        <time>2010-05-13T11:00:44Z</time>
      </trkpt>
      <trkpt lat="48.72427" lon="1.97178">
        <ele>147</ele>
        <time>2010-05-13T11:00:46Z</time>
      </trkpt>
      <trkpt lat="48.72429" lon="1.97177">
        <ele>147</ele>
        <time>2010-05-13T11:00:48Z</time>
      </trkpt>
      <trkpt lat="48.72431" lon="1.97177">
        <ele>147</ele>
        <time>2010-05-13T11:00:49Z</time>
      </trkpt>
      <trkpt lat="48.72432" lon="1.97176">
        <ele>147</ele>
        <time>2010-05-13T11:00:50Z</time>
      </trkpt>
      <trkpt lat="48.72433" lon="1.97176">
        <ele>148</ele>
        <time>2010-05-13T11:00:51Z</time>
      </trkpt>
      <trkpt lat="48.72434" lon="1.97176">
        <ele>148</ele>
        <time>2010-05-13T11:00:52Z</time>
      </trkpt>
      <trkpt lat="48.72435" lon="1.97175">
        <ele>148</ele>
        <time>2010-05-13T11:00:53Z</time>
      </trkpt>
      <trkpt lat="48.72437" lon="1.97175">
        <ele>148</ele>
        <time>2010-05-13T11:00:54Z</time>
      </trkpt>
      <trkpt lat="48.72438" lon="1.97174">
        <ele>148</ele>
        <time>2010-05-13T11:00:56Z</time>
      </trkpt>
      <trkpt lat="48.7244" lon="1.97173">
        <ele>148</ele>
        <time>2010-05-13T11:00:58Z</time>
      </trkpt>
      <trkpt lat="48.72442" lon="1.97173">
        <ele>148</ele>
        <time>2010-05-13T11:01:00Z</time>
      </trkpt>
      <trkpt lat="48.72444" lon="1.97172">
        <ele>148</ele>
        <time>2010-05-13T11:01:01Z</time>
      </trkpt>
      <trkpt lat="48.72445" lon="1.97172">
        <ele>148</ele>
        <time>2010-05-13T11:01:02Z</time>
      </trkpt>
      <trkpt lat="48.72446" lon="1.97172">
        <ele>148</ele>
        <time>2010-05-13T11:01:03Z</time>
      </trkpt>
      <trkpt lat="48.72448" lon="1.97171">
        <ele>148</ele>
        <time>2010-05-13T11:01:05Z</time>
      </trkpt>
      <trkpt lat="48.7245" lon="1.9717">
        <ele>148</ele>
        <time>2010-05-13T11:01:07Z</time>
      </trkpt>
      <trkpt lat="48.72452" lon="1.9717">
        <ele>148</ele>
        <time>2010-05-13T11:01:09Z</time>
      </trkpt>
      <trkpt lat="48.72454" lon="1.9717">
        <ele>148</ele>
        <time>2010-05-13T11:01:11Z</time>
      </trkpt>
      <trkpt lat="48.72456" lon="1.97168">
        <ele>148</ele>
        <time>2010-05-13T11:01:14Z</time>
      </trkpt>
      <trkpt lat="48.72458" lon="1.97168">
        <ele>149</ele>
        <time>2010-05-13T11:01:16Z</time>
      </trkpt>
      <trkpt lat="48.72459" lon="1.97167">
        <ele>149</ele>
        <time>2010-05-13T11:01:17Z</time>
      </trkpt>
      <trkpt lat="48.72461" lon="1.97167">
        <ele>149</ele>
        <time>2010-05-13T11:01:19Z</time>
      </trkpt>
      <trkpt lat="48.72462" lon="1.97167">
        <ele>149</ele>
        <time>2010-05-13T11:01:20Z</time>
      </trkpt>
      <trkpt lat="48.72463" lon="1.97166">
        <ele>149</ele>
        <time>2010-05-13T11:01:21Z</time>
      </trkpt>
      <trkpt lat="48.72466" lon="1.97165">
        <ele>149</ele>
        <time>2010-05-13T11:01:23Z</time>
      </trkpt>
      <trkpt lat="48.72467" lon="1.97165">
        <ele>149</ele>
        <time>2010-05-13T11:01:24Z</time>
      </trkpt>
      <trkpt lat="48.72468" lon="1.97164">
        <ele>149</ele>
        <time>2010-05-13T11:01:25Z</time>
      </trkpt>
      <trkpt lat="48.72469" lon="1.97164">
        <ele>149</ele>
        <time>2010-05-13T11:01:26Z</time>
      </trkpt>
      <trkpt lat="48.7247" lon="1.97164">
        <ele>149</ele>
        <time>2010-05-13T11:01:27Z</time>
      </trkpt>
      <trkpt lat="48.72472" lon="1.97163">
        <ele>149</ele>
        <time>2010-05-13T11:01:28Z</time>
      </trkpt>
      <trkpt lat="48.72473" lon="1.97163">
        <ele>149</ele>
        <time>2010-05-13T11:01:29Z</time>
      </trkpt>
      <trkpt lat="48.72475" lon="1.97162">
        <ele>150</ele>
        <time>2010-05-13T11:01:31Z</time>
      </trkpt>
      <trkpt lat="48.72476" lon="1.97162">
        <ele>150</ele>
        <time>2010-05-13T11:01:32Z</time>
      </trkpt>
      <trkpt lat="48.72477" lon="1.97162">
        <ele>150</ele>
        <time>2010-05-13T11:01:33Z</time>
      </trkpt>
      <trkpt lat="48.72478" lon="1.97162">
        <ele>150</ele>
        <time>2010-05-13T11:01:34Z</time>
      </trkpt>
      <trkpt lat="48.7248" lon="1.97161">
        <ele>150</ele>
        <time>2010-05-13T11:01:36Z</time>
      </trkpt>
      <trkpt lat="48.72482" lon="1.97161">
        <ele>150</ele>
        <time>2010-05-13T11:01:37Z</time>
      </trkpt>
      <trkpt lat="48.72484" lon="1.9716">
        <ele>150</ele>
        <time>2010-05-13T11:01:39Z</time>
      </trkpt>
      <trkpt lat="48.72485" lon="1.9716">
        <ele>150</ele>
        <time>2010-05-13T11:01:40Z</time>
      </trkpt>
      <trkpt lat="48.72486" lon="1.9716">
        <ele>150</ele>
        <time>2010-05-13T11:01:41Z</time>
      </trkpt>
      <trkpt lat="48.72487" lon="1.97159">
        <ele>150</ele>
        <time>2010-05-13T11:01:42Z</time>
      </trkpt>
      <trkpt lat="48.72489" lon="1.97159">
        <ele>150</ele>
        <time>2010-05-13T11:01:43Z</time>
      </trkpt>
      <trkpt lat="48.72491" lon="1.97159">
        <ele>150</ele>
        <time>2010-05-13T11:01:45Z</time>
      </trkpt>
      <trkpt lat="48.72493" lon="1.97158">
        <ele>150</ele>
        <time>2010-05-13T11:01:47Z</time>
      </trkpt>
      <trkpt lat="48.72495" lon="1.97158">
        <ele>150</ele>
        <time>2010-05-13T11:01:49Z</time>
      </trkpt>
      <trkpt lat="48.72497" lon="1.97157">
        <ele>150</ele>
        <time>2010-05-13T11:01:51Z</time>
      </trkpt>
      <trkpt lat="48.72499" lon="1.97157">
        <ele>150</ele>
        <time>2010-05-13T11:01:53Z</time>
      </trkpt>
      <trkpt lat="48.725" lon="1.97157">
        <ele>150</ele>
        <time>2010-05-13T11:01:54Z</time>
      </trkpt>
      <trkpt lat="48.72501" lon="1.97156">
        <ele>151</ele>
        <time>2010-05-13T11:01:55Z</time>
      </trkpt>
      <trkpt lat="48.72503" lon="1.97156">
        <ele>151</ele>
        <time>2010-05-13T11:01:56Z</time>
      </trkpt>
      <trkpt lat="48.72504" lon="1.97156">
        <ele>151</ele>
        <time>2010-05-13T11:01:57Z</time>
      </trkpt>
      <trkpt lat="48.72505" lon="1.97156">
        <ele>151</ele>
        <time>2010-05-13T11:01:58Z</time>
      </trkpt>
      <trkpt lat="48.72507" lon="1.97155">
        <ele>152</ele>
        <time>2010-05-13T11:02:00Z</time>
      </trkpt>
      <trkpt lat="48.72508" lon="1.97155">
        <ele>152</ele>
        <time>2010-05-13T11:02:01Z</time>
      </trkpt>
      <trkpt lat="48.7251" lon="1.97154">
        <ele>152</ele>
        <time>2010-05-13T11:02:03Z</time>
      </trkpt>
      <trkpt lat="48.72512" lon="1.97153">
        <ele>152</ele>
        <time>2010-05-13T11:02:05Z</time>
      </trkpt>
      <trkpt lat="48.72513" lon="1.97153">
        <ele>152</ele>
        <time>2010-05-13T11:02:08Z</time>
      </trkpt>
      <trkpt lat="48.72515" lon="1.97152">
        <ele>153</ele>
        <time>2010-05-13T11:02:15Z</time>
      </trkpt>
      <trkpt lat="48.72516" lon="1.97153">
        <ele>153</ele>
        <time>2010-05-13T11:02:24Z</time>
      </trkpt>
      <trkpt lat="48.72517" lon="1.97151">
        <ele>153</ele>
        <time>2010-05-13T11:02:31Z</time>
      </trkpt>
      <trkpt lat="48.72516" lon="1.97149">
        <ele>153</ele>
        <time>2010-05-13T11:02:38Z</time>
      </trkpt>
      <trkpt lat="48.72517" lon="1.97146">
        <ele>153</ele>
        <time>2010-05-13T11:02:40Z</time>
      </trkpt>
      <trkpt lat="48.72517" lon="1.97144">
        <ele>153</ele>
        <time>2010-05-13T11:02:41Z</time>
      </trkpt>
      <trkpt lat="48.72516" lon="1.97143">
        <ele>153</ele>
        <time>2010-05-13T11:02:42Z</time>
      </trkpt>
      <trkpt lat="48.72516" lon="1.97141">
        <ele>153</ele>
        <time>2010-05-13T11:02:43Z</time>
      </trkpt>
      <trkpt lat="48.72516" lon="1.97139">
        <ele>153</ele>
        <time>2010-05-13T11:02:44Z</time>
      </trkpt>
      <trkpt lat="48.72516" lon="1.97137">
        <ele>153</ele>
        <time>2010-05-13T11:02:45Z</time>
      </trkpt>
      <trkpt lat="48.72516" lon="1.97136">
        <ele>153</ele>
        <time>2010-05-13T11:02:46Z</time>
      </trkpt>
      <trkpt lat="48.72516" lon="1.97134">
        <ele>153</ele>
        <time>2010-05-13T11:02:47Z</time>
      </trkpt>
      <trkpt lat="48.72516" lon="1.97132">
        <ele>153</ele>
        <time>2010-05-13T11:02:48Z</time>
      </trkpt>
      <trkpt lat="48.72516" lon="1.9713">
        <ele>153</ele>
        <time>2010-05-13T11:02:49Z</time>
      </trkpt>
      <trkpt lat="48.72516" lon="1.97128">
        <ele>153</ele>
        <time>2010-05-13T11:02:50Z</time>
      </trkpt>
      <trkpt lat="48.72516" lon="1.97126">
        <ele>153</ele>
        <time>2010-05-13T11:02:51Z</time>
      </trkpt>
      <trkpt lat="48.72516" lon="1.97124">
        <ele>153</ele>
        <time>2010-05-13T11:02:52Z</time>
      </trkpt>
      <trkpt lat="48.72516" lon="1.97123">
        <ele>153</ele>
        <time>2010-05-13T11:02:53Z</time>
      </trkpt>
      <trkpt lat="48.72516" lon="1.97121">
        <ele>153</ele>
        <time>2010-05-13T11:02:54Z</time>
      </trkpt>
      <trkpt lat="48.72516" lon="1.97119">
        <ele>153</ele>
        <time>2010-05-13T11:02:55Z</time>
      </trkpt>
      <trkpt lat="48.72516" lon="1.97117">
        <ele>153</ele>
        <time>2010-05-13T11:02:56Z</time>
      </trkpt>
      <trkpt lat="48.72517" lon="1.97114">
        <ele>153</ele>
        <time>2010-05-13T11:02:58Z</time>
      </trkpt>
      <trkpt lat="48.72517" lon="1.97112">
        <ele>153</ele>
        <time>2010-05-13T11:02:59Z</time>
      </trkpt>
      <trkpt lat="48.72517" lon="1.9711">
        <ele>153</ele>
        <time>2010-05-13T11:03:00Z</time>
      </trkpt>
      <trkpt lat="48.72517" lon="1.97109">
        <ele>153</ele>
        <time>2010-05-13T11:03:01Z</time>
      </trkpt>
      <trkpt lat="48.72517" lon="1.97107">
        <ele>153</ele>
        <time>2010-05-13T11:03:02Z</time>
      </trkpt>
      <trkpt lat="48.72517" lon="1.97104">
        <ele>153</ele>
        <time>2010-05-13T11:03:04Z</time>
      </trkpt>
      <trkpt lat="48.72517" lon="1.97103">
        <ele>153</ele>
        <time>2010-05-13T11:03:05Z</time>
      </trkpt>
      <trkpt lat="48.72517" lon="1.97101">
        <ele>153</ele>
        <time>2010-05-13T11:03:06Z</time>
      </trkpt>
      <trkpt lat="48.72517" lon="1.97097">
        <ele>153</ele>
        <time>2010-05-13T11:03:08Z</time>
      </trkpt>
      <trkpt lat="48.72517" lon="1.97095">
        <ele>152</ele>
        <time>2010-05-13T11:03:09Z</time>
      </trkpt>
      <trkpt lat="48.72517" lon="1.97093">
        <ele>152</ele>
        <time>2010-05-13T11:03:10Z</time>
      </trkpt>
      <trkpt lat="48.72517" lon="1.97091">
        <ele>152</ele>
        <time>2010-05-13T11:03:11Z</time>
      </trkpt>
      <trkpt lat="48.72517" lon="1.9709">
        <ele>152</ele>
        <time>2010-05-13T11:03:12Z</time>
      </trkpt>
      <trkpt lat="48.72517" lon="1.97088">
        <ele>152</ele>
        <time>2010-05-13T11:03:13Z</time>
      </trkpt>
      <trkpt lat="48.72517" lon="1.97086">
        <ele>151</ele>
        <time>2010-05-13T11:03:14Z</time>
      </trkpt>
      <trkpt lat="48.72517" lon="1.97084">
        <ele>151</ele>
        <time>2010-05-13T11:03:15Z</time>
      </trkpt>
      <trkpt lat="48.72517" lon="1.97082">
        <ele>151</ele>
        <time>2010-05-13T11:03:16Z</time>
      </trkpt>
      <trkpt lat="48.72517" lon="1.9708">
        <ele>151</ele>
        <time>2010-05-13T11:03:17Z</time>
      </trkpt>
      <trkpt lat="48.72517" lon="1.97078">
        <ele>151</ele>
        <time>2010-05-13T11:03:18Z</time>
      </trkpt>
      <trkpt lat="48.72517" lon="1.97076">
        <ele>151</ele>
        <time>2010-05-13T11:03:19Z</time>
      </trkpt>
      <trkpt lat="48.72517" lon="1.97074">
        <ele>151</ele>
        <time>2010-05-13T11:03:20Z</time>
      </trkpt>
      <trkpt lat="48.72517" lon="1.97072">
        <ele>151</ele>
        <time>2010-05-13T11:03:21Z</time>
      </trkpt>
      <trkpt lat="48.72517" lon="1.9707">
        <ele>151</ele>
        <time>2010-05-13T11:03:22Z</time>
      </trkpt>
      <trkpt lat="48.72517" lon="1.97068">
        <ele>151</ele>
        <time>2010-05-13T11:03:23Z</time>
      </trkpt>
      <trkpt lat="48.72517" lon="1.97066">
        <ele>151</ele>
        <time>2010-05-13T11:03:24Z</time>
      </trkpt>
      <trkpt lat="48.72517" lon="1.97064">
        <ele>151</ele>
        <time>2010-05-13T11:03:25Z</time>
      </trkpt>
      <trkpt lat="48.72517" lon="1.97062">
        <ele>151</ele>
        <time>2010-05-13T11:03:27Z</time>
      </trkpt>
      <trkpt lat="48.72517" lon="1.97059">
        <ele>151</ele>
        <time>2010-05-13T11:03:31Z</time>
      </trkpt>
      <trkpt lat="48.72517" lon="1.97057">
        <ele>151</ele>
        <time>2010-05-13T11:03:33Z</time>
      </trkpt>
      <trkpt lat="48.72518" lon="1.97054">
        <ele>151</ele>
        <time>2010-05-13T11:03:35Z</time>
      </trkpt>
      <trkpt lat="48.72518" lon="1.97051">
        <ele>151</ele>
        <time>2010-05-13T11:03:37Z</time>
      </trkpt>
      <trkpt lat="48.72518" lon="1.97048">
        <ele>151</ele>
        <time>2010-05-13T11:03:39Z</time>
      </trkpt>
      <trkpt lat="48.72518" lon="1.97046">
        <ele>151</ele>
        <time>2010-05-13T11:03:41Z</time>
      </trkpt>
      <trkpt lat="48.72518" lon="1.97044">
        <ele>151</ele>
        <time>2010-05-13T11:03:42Z</time>
      </trkpt>
      <trkpt lat="48.72518" lon="1.97042">
        <ele>151</ele>
        <time>2010-05-13T11:03:43Z</time>
      </trkpt>
      <trkpt lat="48.72518" lon="1.97041">
        <ele>151</ele>
        <time>2010-05-13T11:03:44Z</time>
      </trkpt>
      <trkpt lat="48.72518" lon="1.97039">
        <ele>151</ele>
        <time>2010-05-13T11:03:45Z</time>
      </trkpt>
      <trkpt lat="48.72518" lon="1.97037">
        <ele>151</ele>
        <time>2010-05-13T11:03:46Z</time>
      </trkpt>
      <trkpt lat="48.72517" lon="1.97034">
        <ele>151</ele>
        <time>2010-05-13T11:03:47Z</time>
      </trkpt>
      <trkpt lat="48.72517" lon="1.97032">
        <ele>151</ele>
        <time>2010-05-13T11:03:48Z</time>
      </trkpt>
      <trkpt lat="48.72518" lon="1.97031">
        <ele>151</ele>
        <time>2010-05-13T11:03:49Z</time>
      </trkpt>
      <trkpt lat="48.72518" lon="1.97028">
        <ele>151</ele>
        <time>2010-05-13T11:03:51Z</time>
      </trkpt>
      <trkpt lat="48.72518" lon="1.97024">
        <ele>151</ele>
        <time>2010-05-13T11:03:53Z</time>
      </trkpt>
      <trkpt lat="48.72518" lon="1.97022">
        <ele>151</ele>
        <time>2010-05-13T11:03:54Z</time>
      </trkpt>
      <trkpt lat="48.72518" lon="1.9702">
        <ele>151</ele>
        <time>2010-05-13T11:03:55Z</time>
      </trkpt>
      <trkpt lat="48.72518" lon="1.97018">
        <ele>151</ele>
        <time>2010-05-13T11:03:56Z</time>
      </trkpt>
      <trkpt lat="48.72519" lon="1.97016">
        <ele>151</ele>
        <time>2010-05-13T11:03:57Z</time>
      </trkpt>
      <trkpt lat="48.72519" lon="1.97015">
        <ele>151</ele>
        <time>2010-05-13T11:03:58Z</time>
      </trkpt>
      <trkpt lat="48.72519" lon="1.97013">
        <ele>151</ele>
        <time>2010-05-13T11:03:59Z</time>
      </trkpt>
      <trkpt lat="48.72519" lon="1.97011">
        <ele>151</ele>
        <time>2010-05-13T11:04:00Z</time>
      </trkpt>
      <trkpt lat="48.72519" lon="1.97009">
        <ele>151</ele>
        <time>2010-05-13T11:04:01Z</time>
      </trkpt>
      <trkpt lat="48.72519" lon="1.97007">
        <ele>151</ele>
        <time>2010-05-13T11:04:02Z</time>
      </trkpt>
      <trkpt lat="48.72519" lon="1.97005">
        <ele>151</ele>
        <time>2010-05-13T11:04:03Z</time>
      </trkpt>
      <trkpt lat="48.72519" lon="1.97003">
        <ele>151</ele>
        <time>2010-05-13T11:04:04Z</time>
      </trkpt>
      <trkpt lat="48.72519" lon="1.97001">
        <ele>151</ele>
        <time>2010-05-13T11:04:05Z</time>
      </trkpt>
      <trkpt lat="48.7252" lon="1.96999">
        <ele>151</ele>
        <time>2010-05-13T11:04:06Z</time>
      </trkpt>
      <trkpt lat="48.7252" lon="1.96997">
        <ele>151</ele>
        <time>2010-05-13T11:04:07Z</time>
      </trkpt>
      <trkpt lat="48.7252" lon="1.96996">
        <ele>151</ele>
        <time>2010-05-13T11:04:08Z</time>
      </trkpt>
      <trkpt lat="48.7252" lon="1.96994">
        <ele>151</ele>
        <time>2010-05-13T11:04:09Z</time>
      </trkpt>
      <trkpt lat="48.7252" lon="1.96992">
        <ele>151</ele>
        <time>2010-05-13T11:04:10Z</time>
      </trkpt>
      <trkpt lat="48.7252" lon="1.9699">
        <ele>151</ele>
        <time>2010-05-13T11:04:12Z</time>
      </trkpt>
      <trkpt lat="48.72521" lon="1.96988">
        <ele>151</ele>
        <time>2010-05-13T11:04:16Z</time>
      </trkpt>
      <trkpt lat="48.72521" lon="1.96985">
        <ele>151</ele>
        <time>2010-05-13T11:04:23Z</time>
      </trkpt>
      <trkpt lat="48.72522" lon="1.96983">
        <ele>151</ele>
        <time>2010-05-13T11:04:25Z</time>
      </trkpt>
      <trkpt lat="48.72524" lon="1.96982">
        <ele>151</ele>
        <time>2010-05-13T11:04:27Z</time>
      </trkpt>
      <trkpt lat="48.72525" lon="1.96983">
        <ele>151</ele>
        <time>2010-05-13T11:04:30Z</time>
      </trkpt>
      <trkpt lat="48.72524" lon="1.96985">
        <ele>151</ele>
        <time>2010-05-13T11:04:59Z</time>
      </trkpt>
      <trkpt lat="48.72525" lon="1.96987">
        <ele>151</ele>
        <time>2010-05-13T11:05:02Z</time>
      </trkpt>
      <trkpt lat="48.72526" lon="1.96989">
        <ele>151</ele>
        <time>2010-05-13T11:05:04Z</time>
      </trkpt>
      <trkpt lat="48.72525" lon="1.96987">
        <ele>151</ele>
        <time>2010-05-13T11:05:19Z</time>
      </trkpt>
      <trkpt lat="48.72525" lon="1.96985">
        <ele>151</ele>
        <time>2010-05-13T11:05:20Z</time>
      </trkpt>
      <trkpt lat="48.72525" lon="1.96983">
        <ele>151</ele>
        <time>2010-05-13T11:05:21Z</time>
      </trkpt>
      <trkpt lat="48.72526" lon="1.96981">
        <ele>151</ele>
        <time>2010-05-13T11:05:22Z</time>
      </trkpt>
      <trkpt lat="48.72526" lon="1.96979">
        <ele>151</ele>
        <time>2010-05-13T11:05:23Z</time>
      </trkpt>
      <trkpt lat="48.72526" lon="1.96977">
        <ele>151</ele>
        <time>2010-05-13T11:05:24Z</time>
      </trkpt>
      <trkpt lat="48.72526" lon="1.96974">
        <ele>151</ele>
        <time>2010-05-13T11:05:25Z</time>
      </trkpt>
      <trkpt lat="48.72526" lon="1.96973">
        <ele>151</ele>
        <time>2010-05-13T11:05:26Z</time>
      </trkpt>
      <trkpt lat="48.72526" lon="1.96971">
        <ele>151</ele>
        <time>2010-05-13T11:05:27Z</time>
      </trkpt>
      <trkpt lat="48.72526" lon="1.96969">
        <ele>151</ele>
        <time>2010-05-13T11:05:28Z</time>
      </trkpt>
      <trkpt lat="48.72525" lon="1.96967">
        <ele>151</ele>
        <time>2010-05-13T11:05:29Z</time>
      </trkpt>
      <trkpt lat="48.72525" lon="1.96965">
        <ele>151</ele>
        <time>2010-05-13T11:05:30Z</time>
      </trkpt>
      <trkpt lat="48.72525" lon="1.96963">
        <ele>151</ele>
        <time>2010-05-13T11:05:31Z</time>
      </trkpt>
      <trkpt lat="48.72525" lon="1.96961">
        <ele>151</ele>
        <time>2010-05-13T11:05:32Z</time>
      </trkpt>
      <trkpt lat="48.72525" lon="1.96959">
        <ele>151</ele>
        <time>2010-05-13T11:05:33Z</time>
      </trkpt>
      <trkpt lat="48.72525" lon="1.96958">
        <ele>151</ele>
        <time>2010-05-13T11:05:34Z</time>
      </trkpt>
      <trkpt lat="48.72526" lon="1.96955">
        <ele>151</ele>
        <time>2010-05-13T11:05:35Z</time>
      </trkpt>
      <trkpt lat="48.72526" lon="1.96953">
        <ele>151</ele>
        <time>2010-05-13T11:05:36Z</time>
      </trkpt>
      <trkpt lat="48.72526" lon="1.96951">
        <ele>151</ele>
        <time>2010-05-13T11:05:37Z</time>
      </trkpt>
      <trkpt lat="48.72526" lon="1.96948">
        <ele>151</ele>
        <time>2010-05-13T11:05:38Z</time>
      </trkpt>
      <trkpt lat="48.72526" lon="1.96945">
        <ele>151</ele>
        <time>2010-05-13T11:05:39Z</time>
      </trkpt>
      <trkpt lat="48.72527" lon="1.96941">
        <ele>151</ele>
        <time>2010-05-13T11:05:40Z</time>
      </trkpt>
      <trkpt lat="48.72527" lon="1.96938">
        <ele>151</ele>
        <time>2010-05-13T11:05:41Z</time>
      </trkpt>
      <trkpt lat="48.72527" lon="1.96934">
        <ele>151</ele>
        <time>2010-05-13T11:05:42Z</time>
      </trkpt>
      <trkpt lat="48.72527" lon="1.9693">
        <ele>151</ele>
        <time>2010-05-13T11:05:43Z</time>
      </trkpt>
      <trkpt lat="48.72526" lon="1.96928">
        <ele>151</ele>
        <time>2010-05-13T11:05:44Z</time>
      </trkpt>
      <trkpt lat="48.72526" lon="1.96926">
        <ele>151</ele>
        <time>2010-05-13T11:05:45Z</time>
      </trkpt>
      <trkpt lat="48.72526" lon="1.96923">
        <ele>151</ele>
        <time>2010-05-13T11:05:46Z</time>
      </trkpt>
      <trkpt lat="48.72526" lon="1.96921">
        <ele>151</ele>
        <time>2010-05-13T11:05:47Z</time>
      </trkpt>
      <trkpt lat="48.72525" lon="1.96919">
        <ele>151</ele>
        <time>2010-05-13T11:05:48Z</time>
      </trkpt>
      <trkpt lat="48.72525" lon="1.96917">
        <ele>151</ele>
        <time>2010-05-13T11:05:49Z</time>
      </trkpt>
      <trkpt lat="48.72525" lon="1.96915">
        <ele>152</ele>
        <time>2010-05-13T11:05:50Z</time>
      </trkpt>
      <trkpt lat="48.72524" lon="1.96912">
        <ele>152</ele>
        <time>2010-05-13T11:05:52Z</time>
      </trkpt>
      <trkpt lat="48.72524" lon="1.9691">
        <ele>153</ele>
        <time>2010-05-13T11:05:54Z</time>
      </trkpt>
      <trkpt lat="48.72523" lon="1.96908">
        <ele>153</ele>
        <time>2010-05-13T11:05:56Z</time>
      </trkpt>
      <trkpt lat="48.72522" lon="1.96905">
        <ele>154</ele>
        <time>2010-05-13T11:05:58Z</time>
      </trkpt>
      <trkpt lat="48.7252" lon="1.96902">
        <ele>155</ele>
        <time>2010-05-13T11:06:00Z</time>
      </trkpt>
      <trkpt lat="48.72518" lon="1.96899">
        <ele>156</ele>
        <time>2010-05-13T11:06:02Z</time>
      </trkpt>
      <trkpt lat="48.72517" lon="1.96896">
        <ele>157</ele>
        <time>2010-05-13T11:06:03Z</time>
      </trkpt>
      <trkpt lat="48.72515" lon="1.96894">
        <ele>157</ele>
        <time>2010-05-13T11:06:04Z</time>
      </trkpt>
      <trkpt lat="48.72513" lon="1.96892">
        <ele>157</ele>
        <time>2010-05-13T11:06:05Z</time>
      </trkpt>
      <trkpt lat="48.72512" lon="1.96891">
        <ele>158</ele>
        <time>2010-05-13T11:06:06Z</time>
      </trkpt>
      <trkpt lat="48.72511" lon="1.96889">
        <ele>158</ele>
        <time>2010-05-13T11:06:08Z</time>
      </trkpt>
      <trkpt lat="48.7251" lon="1.96887">
        <ele>158</ele>
        <time>2010-05-13T11:06:09Z</time>
      </trkpt>
      <trkpt lat="48.72509" lon="1.96886">
        <ele>158</ele>
        <time>2010-05-13T11:06:10Z</time>
      </trkpt>
      <trkpt lat="48.72508" lon="1.96883">
        <ele>158</ele>
        <time>2010-05-13T11:06:12Z</time>
      </trkpt>
      <trkpt lat="48.72507" lon="1.96882">
        <ele>158</ele>
        <time>2010-05-13T11:06:15Z</time>
      </trkpt>
      <trkpt lat="48.72506" lon="1.96877">
        <ele>158</ele>
        <time>2010-05-13T11:06:18Z</time>
      </trkpt>
      <trkpt lat="48.72502" lon="1.96871">
        <ele>158</ele>
        <time>2010-05-13T11:06:19Z</time>
      </trkpt>
      <trkpt lat="48.725" lon="1.96866">
        <ele>158</ele>
        <time>2010-05-13T11:06:20Z</time>
      </trkpt>
      <trkpt lat="48.72498" lon="1.96861">
        <ele>158</ele>
        <time>2010-05-13T11:06:23Z</time>
      </trkpt>
      <trkpt lat="48.72494" lon="1.96859">
        <ele>158</ele>
        <time>2010-05-13T11:06:24Z</time>
      </trkpt>
      <trkpt lat="48.72492" lon="1.96855">
        <ele>158</ele>
        <time>2010-05-13T11:06:25Z</time>
      </trkpt>
      <trkpt lat="48.72491" lon="1.96851">
        <ele>158</ele>
        <time>2010-05-13T11:06:26Z</time>
      </trkpt>
      <trkpt lat="48.72491" lon="1.9685">
        <ele>158</ele>
        <time>2010-05-13T11:06:27Z</time>
      </trkpt>
      <trkpt lat="48.7249" lon="1.96848">
        <ele>158</ele>
        <time>2010-05-13T11:06:28Z</time>
      </trkpt>
      <trkpt lat="48.7249" lon="1.96846">
        <ele>158</ele>
        <time>2010-05-13T11:06:29Z</time>
      </trkpt>
      <trkpt lat="48.72488" lon="1.96843">
        <ele>158</ele>
        <time>2010-05-13T11:06:30Z</time>
      </trkpt>
      <trkpt lat="48.72487" lon="1.96841">
        <ele>158</ele>
        <time>2010-05-13T11:06:31Z</time>
      </trkpt>
      <trkpt lat="48.72485" lon="1.9684">
        <ele>158</ele>
        <time>2010-05-13T11:06:32Z</time>
      </trkpt>
      <trkpt lat="48.72483" lon="1.96839">
        <ele>158</ele>
        <time>2010-05-13T11:06:33Z</time>
      </trkpt>
      <trkpt lat="48.72482" lon="1.96837">
        <ele>158</ele>
        <time>2010-05-13T11:06:34Z</time>
      </trkpt>
      <trkpt lat="48.72481" lon="1.96836">
        <ele>158</ele>
        <time>2010-05-13T11:06:35Z</time>
      </trkpt>
      <trkpt lat="48.72479" lon="1.96834">
        <ele>158</ele>
        <time>2010-05-13T11:06:36Z</time>
      </trkpt>
      <trkpt lat="48.72478" lon="1.96831">
        <ele>158</ele>
        <time>2010-05-13T11:06:39Z</time>
      </trkpt>
      <trkpt lat="48.72478" lon="1.96826">
        <ele>158</ele>
        <time>2010-05-13T11:06:40Z</time>
      </trkpt>
      <trkpt lat="48.72477" lon="1.96824">
        <ele>158</ele>
        <time>2010-05-13T11:06:41Z</time>
      </trkpt>
      <trkpt lat="48.72478" lon="1.9682">
        <ele>158</ele>
        <time>2010-05-13T11:06:43Z</time>
      </trkpt>
      <trkpt lat="48.72477" lon="1.96817">
        <ele>158</ele>
        <time>2010-05-13T11:06:44Z</time>
      </trkpt>
      <trkpt lat="48.72476" lon="1.96814">
        <ele>158</ele>
        <time>2010-05-13T11:06:45Z</time>
      </trkpt>
      <trkpt lat="48.72476" lon="1.96812">
        <ele>158</ele>
        <time>2010-05-13T11:06:46Z</time>
      </trkpt>
      <trkpt lat="48.72475" lon="1.9681">
        <ele>158</ele>
        <time>2010-05-13T11:06:47Z</time>
      </trkpt>
      <trkpt lat="48.72476" lon="1.96808">
        <ele>159</ele>
        <time>2010-05-13T11:06:49Z</time>
      </trkpt>
      <trkpt lat="48.72476" lon="1.96807">
        <ele>159</ele>
        <time>2010-05-13T11:06:50Z</time>
      </trkpt>
      <trkpt lat="48.72475" lon="1.96805">
        <ele>159</ele>
        <time>2010-05-13T11:06:51Z</time>
      </trkpt>
      <trkpt lat="48.72473" lon="1.96801">
        <ele>159</ele>
        <time>2010-05-13T11:06:53Z</time>
      </trkpt>
      <trkpt lat="48.72473" lon="1.96799">
        <ele>159</ele>
        <time>2010-05-13T11:06:54Z</time>
      </trkpt>
      <trkpt lat="48.72472" lon="1.96797">
        <ele>159</ele>
        <time>2010-05-13T11:06:55Z</time>
      </trkpt>
      <trkpt lat="48.72473" lon="1.96795">
        <ele>159</ele>
        <time>2010-05-13T11:06:56Z</time>
      </trkpt>
      <trkpt lat="48.72472" lon="1.96792">
        <ele>159</ele>
        <time>2010-05-13T11:06:58Z</time>
      </trkpt>
      <trkpt lat="48.72471" lon="1.9679">
        <ele>159</ele>
        <time>2010-05-13T11:06:59Z</time>
      </trkpt>
      <trkpt lat="48.72469" lon="1.96787">
        <ele>159</ele>
        <time>2010-05-13T11:07:01Z</time>
      </trkpt>
      <trkpt lat="48.72467" lon="1.96784">
        <ele>159</ele>
        <time>2010-05-13T11:07:02Z</time>
      </trkpt>
      <trkpt lat="48.72465" lon="1.96781">
        <ele>159</ele>
        <time>2010-05-13T11:07:03Z</time>
      </trkpt>
      <trkpt lat="48.72464" lon="1.96779">
        <ele>160</ele>
        <time>2010-05-13T11:07:04Z</time>
      </trkpt>
      <trkpt lat="48.72464" lon="1.96777">
        <ele>160</ele>
        <time>2010-05-13T11:07:05Z</time>
      </trkpt>
      <trkpt lat="48.72464" lon="1.96774">
        <ele>160</ele>
        <time>2010-05-13T11:07:06Z</time>
      </trkpt>
      <trkpt lat="48.72463" lon="1.96771">
        <ele>160</ele>
        <time>2010-05-13T11:07:08Z</time>
      </trkpt>
      <trkpt lat="48.72462" lon="1.96769">
        <ele>160</ele>
        <time>2010-05-13T11:07:09Z</time>
      </trkpt>
      <trkpt lat="48.72463" lon="1.96767">
        <ele>161</ele>
        <time>2010-05-13T11:07:10Z</time>
      </trkpt>
      <trkpt lat="48.72463" lon="1.96765">
        <ele>161</ele>
        <time>2010-05-13T11:07:11Z</time>
      </trkpt>
      <trkpt lat="48.72463" lon="1.96763">
        <ele>161</ele>
        <time>2010-05-13T11:07:12Z</time>
      </trkpt>
      <trkpt lat="48.72462" lon="1.96761">
        <ele>162</ele>
        <time>2010-05-13T11:07:13Z</time>
      </trkpt>
      <trkpt lat="48.72458" lon="1.96756">
        <ele>162</ele>
        <time>2010-05-13T11:07:14Z</time>
      </trkpt>
      <trkpt lat="48.72455" lon="1.96753">
        <ele>163</ele>
        <time>2010-05-13T11:07:15Z</time>
      </trkpt>
      <trkpt lat="48.72454" lon="1.9675">
        <ele>164</ele>
        <time>2010-05-13T11:07:16Z</time>
      </trkpt>
      <trkpt lat="48.72452" lon="1.96747">
        <ele>165</ele>
        <time>2010-05-13T11:07:18Z</time>
      </trkpt>
      <trkpt lat="48.72452" lon="1.96745">
        <ele>166</ele>
        <time>2010-05-13T11:07:19Z</time>
      </trkpt>
      <trkpt lat="48.7245" lon="1.96742">
        <ele>166</ele>
        <time>2010-05-13T11:07:20Z</time>
      </trkpt>
      <trkpt lat="48.72448" lon="1.96738">
        <ele>167</ele>
        <time>2010-05-13T11:07:22Z</time>
      </trkpt>
      <trkpt lat="48.72447" lon="1.96736">
        <ele>167</ele>
        <time>2010-05-13T11:07:23Z</time>
      </trkpt>
      <trkpt lat="48.72448" lon="1.96733">
        <ele>167</ele>
        <time>2010-05-13T11:07:24Z</time>
      </trkpt>
      <trkpt lat="48.72449" lon="1.96732">
        <ele>167</ele>
        <time>2010-05-13T11:07:25Z</time>
      </trkpt>
      <trkpt lat="48.7245" lon="1.9673">
        <ele>167</ele>
        <time>2010-05-13T11:07:27Z</time>
      </trkpt>
      <trkpt lat="48.7245" lon="1.96728">
        <ele>167</ele>
        <time>2010-05-13T11:07:28Z</time>
      </trkpt>
      <trkpt lat="48.72451" lon="1.96727">
        <ele>167</ele>
        <time>2010-05-13T11:07:29Z</time>
      </trkpt>
      <trkpt lat="48.72451" lon="1.96725">
        <ele>167</ele>
        <time>2010-05-13T11:07:30Z</time>
      </trkpt>
      <trkpt lat="48.72454" lon="1.96722">
        <ele>167</ele>
        <time>2010-05-13T11:07:32Z</time>
      </trkpt>
      <trkpt lat="48.72457" lon="1.96719">
        <ele>167</ele>
        <time>2010-05-13T11:07:33Z</time>
      </trkpt>
      <trkpt lat="48.72459" lon="1.96717">
        <ele>166</ele>
        <time>2010-05-13T11:07:34Z</time>
      </trkpt>
      <trkpt lat="48.7246" lon="1.96714">
        <ele>165</ele>
        <time>2010-05-13T11:07:35Z</time>
      </trkpt>
      <trkpt lat="48.72461" lon="1.96712">
        <ele>165</ele>
        <time>2010-05-13T11:07:36Z</time>
      </trkpt>
      <trkpt lat="48.72462" lon="1.9671">
        <ele>164</ele>
        <time>2010-05-13T11:07:37Z</time>
      </trkpt>
      <trkpt lat="48.72462" lon="1.96708">
        <ele>164</ele>
        <time>2010-05-13T11:07:38Z</time>
      </trkpt>
      <trkpt lat="48.72463" lon="1.96706">
        <ele>163</ele>
        <time>2010-05-13T11:07:39Z</time>
      </trkpt>
      <trkpt lat="48.72463" lon="1.96704">
        <ele>163</ele>
        <time>2010-05-13T11:07:40Z</time>
      </trkpt>
      <trkpt lat="48.72466" lon="1.96697">
        <ele>163</ele>
        <time>2010-05-13T11:07:44Z</time>
      </trkpt>
      <trkpt lat="48.72468" lon="1.96694">
        <ele>163</ele>
        <time>2010-05-13T11:07:45Z</time>
      </trkpt>
      <trkpt lat="48.72469" lon="1.9669">
        <ele>163</ele>
        <time>2010-05-13T11:07:46Z</time>
      </trkpt>
      <trkpt lat="48.7247" lon="1.96688">
        <ele>163</ele>
        <time>2010-05-13T11:07:47Z</time>
      </trkpt>
      <trkpt lat="48.72471" lon="1.96687">
        <ele>163</ele>
        <time>2010-05-13T11:07:48Z</time>
      </trkpt>
      <trkpt lat="48.72472" lon="1.96684">
        <ele>163</ele>
        <time>2010-05-13T11:07:50Z</time>
      </trkpt>
      <trkpt lat="48.72474" lon="1.96681">
        <ele>163</ele>
        <time>2010-05-13T11:07:51Z</time>
      </trkpt>
      <trkpt lat="48.72477" lon="1.96677">
        <ele>163</ele>
        <time>2010-05-13T11:07:52Z</time>
      </trkpt>
      <trkpt lat="48.72478" lon="1.96675">
        <ele>163</ele>
        <time>2010-05-13T11:07:53Z</time>
      </trkpt>
      <trkpt lat="48.72478" lon="1.96673">
        <ele>163</ele>
        <time>2010-05-13T11:07:54Z</time>
      </trkpt>
      <trkpt lat="48.72479" lon="1.9667">
        <ele>163</ele>
        <time>2010-05-13T11:07:55Z</time>
      </trkpt>
      <trkpt lat="48.72482" lon="1.96669">
        <ele>163</ele>
        <time>2010-05-13T11:07:57Z</time>
      </trkpt>
      <trkpt lat="48.72483" lon="1.96666">
        <ele>163</ele>
        <time>2010-05-13T11:07:59Z</time>
      </trkpt>
      <trkpt lat="48.72484" lon="1.96663">
        <ele>163</ele>
        <time>2010-05-13T11:08:01Z</time>
      </trkpt>
      <trkpt lat="48.72485" lon="1.96661">
        <ele>163</ele>
        <time>2010-05-13T11:08:02Z</time>
      </trkpt>
      <trkpt lat="48.72487" lon="1.96659">
        <ele>163</ele>
        <time>2010-05-13T11:08:03Z</time>
      </trkpt>
      <trkpt lat="48.72487" lon="1.96658">
        <ele>163</ele>
        <time>2010-05-13T11:08:04Z</time>
      </trkpt>
      <trkpt lat="48.72489" lon="1.96656">
        <ele>163</ele>
        <time>2010-05-13T11:08:05Z</time>
      </trkpt>
      <trkpt lat="48.7249" lon="1.96654">
        <ele>163</ele>
        <time>2010-05-13T11:08:06Z</time>
      </trkpt>
      <trkpt lat="48.72489" lon="1.96649">
        <ele>163</ele>
        <time>2010-05-13T11:08:09Z</time>
      </trkpt>
      <trkpt lat="48.7249" lon="1.96646">
        <ele>163</ele>
        <time>2010-05-13T11:08:10Z</time>
      </trkpt>
      <trkpt lat="48.72491" lon="1.96644">
        <ele>163</ele>
        <time>2010-05-13T11:08:11Z</time>
      </trkpt>
      <trkpt lat="48.72493" lon="1.96642">
        <ele>163</ele>
        <time>2010-05-13T11:08:12Z</time>
      </trkpt>
      <trkpt lat="48.72493" lon="1.9664">
        <ele>163</ele>
        <time>2010-05-13T11:08:13Z</time>
      </trkpt>
      <trkpt lat="48.72493" lon="1.96638">
        <ele>163</ele>
        <time>2010-05-13T11:08:14Z</time>
      </trkpt>
      <trkpt lat="48.72494" lon="1.96635">
        <ele>163</ele>
        <time>2010-05-13T11:08:16Z</time>
      </trkpt>
      <trkpt lat="48.72495" lon="1.96632">
        <ele>163</ele>
        <time>2010-05-13T11:08:17Z</time>
      </trkpt>
      <trkpt lat="48.72495" lon="1.9663">
        <ele>163</ele>
        <time>2010-05-13T11:08:18Z</time>
      </trkpt>
      <trkpt lat="48.72495" lon="1.96627">
        <ele>163</ele>
        <time>2010-05-13T11:08:19Z</time>
      </trkpt>
      <trkpt lat="48.72495" lon="1.96626">
        <ele>163</ele>
        <time>2010-05-13T11:08:20Z</time>
      </trkpt>
      <trkpt lat="48.72496" lon="1.96623">
        <ele>163</ele>
        <time>2010-05-13T11:08:21Z</time>
      </trkpt>
      <trkpt lat="48.72497" lon="1.96621">
        <ele>163</ele>
        <time>2010-05-13T11:08:22Z</time>
      </trkpt>
      <trkpt lat="48.72498" lon="1.96619">
        <ele>163</ele>
        <time>2010-05-13T11:08:23Z</time>
      </trkpt>
      <trkpt lat="48.72499" lon="1.96616">
        <ele>163</ele>
        <time>2010-05-13T11:08:24Z</time>
      </trkpt>
      <trkpt lat="48.725" lon="1.96613">
        <ele>163</ele>
        <time>2010-05-13T11:08:25Z</time>
      </trkpt>
      <trkpt lat="48.725" lon="1.96611">
        <ele>163</ele>
        <time>2010-05-13T11:08:26Z</time>
      </trkpt>
      <trkpt lat="48.72502" lon="1.96609">
        <ele>163</ele>
        <time>2010-05-13T11:08:27Z</time>
      </trkpt>
      <trkpt lat="48.72503" lon="1.96607">
        <ele>163</ele>
        <time>2010-05-13T11:08:28Z</time>
      </trkpt>
      <trkpt lat="48.72504" lon="1.96604">
        <ele>163</ele>
        <time>2010-05-13T11:08:29Z</time>
      </trkpt>
      <trkpt lat="48.72505" lon="1.96602">
        <ele>163</ele>
        <time>2010-05-13T11:08:30Z</time>
      </trkpt>
      <trkpt lat="48.72505" lon="1.96601">
        <ele>162</ele>
        <time>2010-05-13T11:08:31Z</time>
      </trkpt>
      <trkpt lat="48.72506" lon="1.96599">
        <ele>162</ele>
        <time>2010-05-13T11:08:32Z</time>
      </trkpt>
      <trkpt lat="48.72507" lon="1.96596">
        <ele>162</ele>
        <time>2010-05-13T11:08:33Z</time>
      </trkpt>
      <trkpt lat="48.72507" lon="1.96594">
        <ele>162</ele>
        <time>2010-05-13T11:08:34Z</time>
      </trkpt>
      <trkpt lat="48.72507" lon="1.96592">
        <ele>162</ele>
        <time>2010-05-13T11:08:35Z</time>
      </trkpt>
      <trkpt lat="48.72507" lon="1.9659">
        <ele>162</ele>
        <time>2010-05-13T11:08:36Z</time>
      </trkpt>
      <trkpt lat="48.72508" lon="1.96588">
        <ele>162</ele>
        <time>2010-05-13T11:08:37Z</time>
      </trkpt>
      <trkpt lat="48.72508" lon="1.96585">
        <ele>162</ele>
        <time>2010-05-13T11:08:38Z</time>
      </trkpt>
      <trkpt lat="48.72508" lon="1.96584">
        <ele>162</ele>
        <time>2010-05-13T11:08:39Z</time>
      </trkpt>
      <trkpt lat="48.72509" lon="1.96581">
        <ele>162</ele>
        <time>2010-05-13T11:08:40Z</time>
      </trkpt>
      <trkpt lat="48.72509" lon="1.96578">
        <ele>162</ele>
        <time>2010-05-13T11:08:41Z</time>
      </trkpt>
      <trkpt lat="48.72511" lon="1.96574">
        <ele>162</ele>
        <time>2010-05-13T11:08:42Z</time>
      </trkpt>
      <trkpt lat="48.72512" lon="1.96572">
        <ele>162</ele>
        <time>2010-05-13T11:08:43Z</time>
      </trkpt>
      <trkpt lat="48.72511" lon="1.9657">
        <ele>162</ele>
        <time>2010-05-13T11:08:44Z</time>
      </trkpt>
      <trkpt lat="48.7251" lon="1.96567">
        <ele>162</ele>
        <time>2010-05-13T11:08:45Z</time>
      </trkpt>
      <trkpt lat="48.72509" lon="1.96565">
        <ele>162</ele>
        <time>2010-05-13T11:08:46Z</time>
      </trkpt>
      <trkpt lat="48.72508" lon="1.96563">
        <ele>162</ele>
        <time>2010-05-13T11:08:47Z</time>
      </trkpt>
      <trkpt lat="48.72508" lon="1.96559">
        <ele>162</ele>
        <time>2010-05-13T11:08:49Z</time>
      </trkpt>
      <trkpt lat="48.72508" lon="1.96557">
        <ele>162</ele>
        <time>2010-05-13T11:08:50Z</time>
      </trkpt>
      <trkpt lat="48.72509" lon="1.96555">
        <ele>162</ele>
        <time>2010-05-13T11:08:51Z</time>
      </trkpt>
      <trkpt lat="48.72509" lon="1.96553">
        <ele>162</ele>
        <time>2010-05-13T11:08:52Z</time>
      </trkpt>
      <trkpt lat="48.7251" lon="1.9655">
        <ele>162</ele>
        <time>2010-05-13T11:08:53Z</time>
      </trkpt>
      <trkpt lat="48.7251" lon="1.96548">
        <ele>162</ele>
        <time>2010-05-13T11:08:54Z</time>
      </trkpt>
      <trkpt lat="48.72512" lon="1.96545">
        <ele>162</ele>
        <time>2010-05-13T11:08:55Z</time>
      </trkpt>
      <trkpt lat="48.72512" lon="1.96542">
        <ele>162</ele>
        <time>2010-05-13T11:08:57Z</time>
      </trkpt>
      <trkpt lat="48.72513" lon="1.96539">
        <ele>162</ele>
        <time>2010-05-13T11:08:58Z</time>
      </trkpt>
      <trkpt lat="48.72513" lon="1.96536">
        <ele>162</ele>
        <time>2010-05-13T11:09:00Z</time>
      </trkpt>
      <trkpt lat="48.72514" lon="1.96534">
        <ele>162</ele>
        <time>2010-05-13T11:09:02Z</time>
      </trkpt>
      <trkpt lat="48.72514" lon="1.96532">
        <ele>162</ele>
        <time>2010-05-13T11:09:03Z</time>
      </trkpt>
      <trkpt lat="48.72515" lon="1.9653">
        <ele>162</ele>
        <time>2010-05-13T11:09:04Z</time>
      </trkpt>
      <trkpt lat="48.72514" lon="1.96528">
        <ele>162</ele>
        <time>2010-05-13T11:09:05Z</time>
      </trkpt>
      <trkpt lat="48.72514" lon="1.96526">
        <ele>162</ele>
        <time>2010-05-13T11:09:06Z</time>
      </trkpt>
      <trkpt lat="48.72516" lon="1.96522">
        <ele>162</ele>
        <time>2010-05-13T11:09:08Z</time>
      </trkpt>
      <trkpt lat="48.72516" lon="1.9652">
        <ele>162</ele>
        <time>2010-05-13T11:09:09Z</time>
      </trkpt>
      <trkpt lat="48.72517" lon="1.96517">
        <ele>162</ele>
        <time>2010-05-13T11:09:10Z</time>
      </trkpt>
      <trkpt lat="48.72517" lon="1.96514">
        <ele>162</ele>
        <time>2010-05-13T11:09:12Z</time>
      </trkpt>
      <trkpt lat="48.72517" lon="1.96511">
        <ele>162</ele>
        <time>2010-05-13T11:09:13Z</time>
      </trkpt>
      <trkpt lat="48.72517" lon="1.96509">
        <ele>162</ele>
        <time>2010-05-13T11:09:14Z</time>
      </trkpt>
      <trkpt lat="48.72518" lon="1.96507">
        <ele>162</ele>
        <time>2010-05-13T11:09:15Z</time>
      </trkpt>
      <trkpt lat="48.72518" lon="1.96504">
        <ele>162</ele>
        <time>2010-05-13T11:09:16Z</time>
      </trkpt>
      <trkpt lat="48.7252" lon="1.96501">
        <ele>162</ele>
        <time>2010-05-13T11:09:17Z</time>
      </trkpt>
      <trkpt lat="48.72521" lon="1.96498">
        <ele>162</ele>
        <time>2010-05-13T11:09:18Z</time>
      </trkpt>
      <trkpt lat="48.72521" lon="1.96496">
        <ele>162</ele>
        <time>2010-05-13T11:09:19Z</time>
      </trkpt>
      <trkpt lat="48.72523" lon="1.96493">
        <ele>162</ele>
        <time>2010-05-13T11:09:20Z</time>
      </trkpt>
      <trkpt lat="48.72524" lon="1.9649">
        <ele>163</ele>
        <time>2010-05-13T11:09:21Z</time>
      </trkpt>
      <trkpt lat="48.72525" lon="1.96488">
        <ele>163</ele>
        <time>2010-05-13T11:09:22Z</time>
      </trkpt>
      <trkpt lat="48.72525" lon="1.96487">
        <ele>163</ele>
        <time>2010-05-13T11:09:23Z</time>
      </trkpt>
      <trkpt lat="48.72526" lon="1.96485">
        <ele>163</ele>
        <time>2010-05-13T11:09:24Z</time>
      </trkpt>
      <trkpt lat="48.72527" lon="1.96482">
        <ele>163</ele>
        <time>2010-05-13T11:09:25Z</time>
      </trkpt>
      <trkpt lat="48.72526" lon="1.9648">
        <ele>163</ele>
        <time>2010-05-13T11:09:26Z</time>
      </trkpt>
      <trkpt lat="48.72527" lon="1.96478">
        <ele>163</ele>
        <time>2010-05-13T11:09:27Z</time>
      </trkpt>
      <trkpt lat="48.72526" lon="1.96475">
        <ele>163</ele>
        <time>2010-05-13T11:09:28Z</time>
      </trkpt>
      <trkpt lat="48.72526" lon="1.96472">
        <ele>163</ele>
        <time>2010-05-13T11:09:29Z</time>
      </trkpt>
      <trkpt lat="48.72526" lon="1.96468">
        <ele>163</ele>
        <time>2010-05-13T11:09:30Z</time>
      </trkpt>
      <trkpt lat="48.72526" lon="1.96466">
        <ele>163</ele>
        <time>2010-05-13T11:09:31Z</time>
      </trkpt>
      <trkpt lat="48.72525" lon="1.96463">
        <ele>163</ele>
        <time>2010-05-13T11:09:32Z</time>
      </trkpt>
      <trkpt lat="48.72525" lon="1.96462">
        <ele>163</ele>
        <time>2010-05-13T11:09:33Z</time>
      </trkpt>
      <trkpt lat="48.72526" lon="1.9646">
        <ele>164</ele>
        <time>2010-05-13T11:09:34Z</time>
      </trkpt>
      <trkpt lat="48.72526" lon="1.96457">
        <ele>164</ele>
        <time>2010-05-13T11:09:35Z</time>
      </trkpt>
      <trkpt lat="48.72524" lon="1.96453">
        <ele>164</ele>
        <time>2010-05-13T11:09:36Z</time>
      </trkpt>
      <trkpt lat="48.72523" lon="1.96449">
        <ele>164</ele>
        <time>2010-05-13T11:09:37Z</time>
      </trkpt>
      <trkpt lat="48.72522" lon="1.96446">
        <ele>165</ele>
        <time>2010-05-13T11:09:38Z</time>
      </trkpt>
      <trkpt lat="48.72522" lon="1.96443">
        <ele>165</ele>
        <time>2010-05-13T11:09:39Z</time>
      </trkpt>
      <trkpt lat="48.72523" lon="1.96441">
        <ele>165</ele>
        <time>2010-05-13T11:09:40Z</time>
      </trkpt>
      <trkpt lat="48.72524" lon="1.96438">
        <ele>165</ele>
        <time>2010-05-13T11:09:41Z</time>
      </trkpt>
      <trkpt lat="48.72523" lon="1.96435">
        <ele>165</ele>
        <time>2010-05-13T11:09:42Z</time>
      </trkpt>
      <trkpt lat="48.72522" lon="1.96432">
        <ele>165</ele>
        <time>2010-05-13T11:09:43Z</time>
      </trkpt>
      <trkpt lat="48.72521" lon="1.9643">
        <ele>165</ele>
        <time>2010-05-13T11:09:44Z</time>
      </trkpt>
      <trkpt lat="48.72521" lon="1.96428">
        <ele>165</ele>
        <time>2010-05-13T11:09:45Z</time>
      </trkpt>
      <trkpt lat="48.7252" lon="1.96426">
        <ele>165</ele>
        <time>2010-05-13T11:09:46Z</time>
      </trkpt>
      <trkpt lat="48.72521" lon="1.96424">
        <ele>165</ele>
        <time>2010-05-13T11:09:47Z</time>
      </trkpt>
      <trkpt lat="48.72522" lon="1.96422">
        <ele>165</ele>
        <time>2010-05-13T11:09:48Z</time>
      </trkpt>
      <trkpt lat="48.72522" lon="1.96419">
        <ele>165</ele>
        <time>2010-05-13T11:09:49Z</time>
      </trkpt>
      <trkpt lat="48.72521" lon="1.96417">
        <ele>165</ele>
        <time>2010-05-13T11:09:50Z</time>
      </trkpt>
      <trkpt lat="48.72522" lon="1.96414">
        <ele>165</ele>
        <time>2010-05-13T11:09:51Z</time>
      </trkpt>
      <trkpt lat="48.72522" lon="1.96412">
        <ele>165</ele>
        <time>2010-05-13T11:09:52Z</time>
      </trkpt>
      <trkpt lat="48.72521" lon="1.96409">
        <ele>165</ele>
        <time>2010-05-13T11:09:53Z</time>
      </trkpt>
      <trkpt lat="48.7252" lon="1.96407">
        <ele>165</ele>
        <time>2010-05-13T11:09:54Z</time>
      </trkpt>
      <trkpt lat="48.72519" lon="1.96404">
        <ele>165</ele>
        <time>2010-05-13T11:09:55Z</time>
      </trkpt>
      <trkpt lat="48.72519" lon="1.96401">
        <ele>165</ele>
        <time>2010-05-13T11:09:56Z</time>
      </trkpt>
      <trkpt lat="48.72518" lon="1.96399">
        <ele>165</ele>
        <time>2010-05-13T11:09:57Z</time>
      </trkpt>
      <trkpt lat="48.72518" lon="1.96396">
        <ele>165</ele>
        <time>2010-05-13T11:09:58Z</time>
      </trkpt>
      <trkpt lat="48.72517" lon="1.96393">
        <ele>165</ele>
        <time>2010-05-13T11:09:59Z</time>
      </trkpt>
      <trkpt lat="48.72517" lon="1.96391">
        <ele>165</ele>
        <time>2010-05-13T11:10:00Z</time>
      </trkpt>
      <trkpt lat="48.72517" lon="1.96388">
        <ele>165</ele>
        <time>2010-05-13T11:10:01Z</time>
      </trkpt>
      <trkpt lat="48.72517" lon="1.96386">
        <ele>165</ele>
        <time>2010-05-13T11:10:02Z</time>
      </trkpt>
      <trkpt lat="48.72516" lon="1.96384">
        <ele>165</ele>
        <time>2010-05-13T11:10:03Z</time>
      </trkpt>
      <trkpt lat="48.72516" lon="1.9638">
        <ele>165</ele>
        <time>2010-05-13T11:10:05Z</time>
      </trkpt>
      <trkpt lat="48.72516" lon="1.96378">
        <ele>165</ele>
        <time>2010-05-13T11:10:06Z</time>
      </trkpt>
      <trkpt lat="48.72516" lon="1.96376">
        <ele>165</ele>
        <time>2010-05-13T11:10:07Z</time>
      </trkpt>
      <trkpt lat="48.72517" lon="1.96374">
        <ele>165</ele>
        <time>2010-05-13T11:10:08Z</time>
      </trkpt>
      <trkpt lat="48.72516" lon="1.9637">
        <ele>165</ele>
        <time>2010-05-13T11:10:10Z</time>
      </trkpt>
      <trkpt lat="48.72515" lon="1.96368">
        <ele>165</ele>
        <time>2010-05-13T11:10:12Z</time>
      </trkpt>
      <trkpt lat="48.72515" lon="1.96366">
        <ele>165</ele>
        <time>2010-05-13T11:10:14Z</time>
      </trkpt>
      <trkpt lat="48.72515" lon="1.96364">
        <ele>165</ele>
        <time>2010-05-13T11:10:15Z</time>
      </trkpt>
      <trkpt lat="48.72516" lon="1.96362">
        <ele>165</ele>
        <time>2010-05-13T11:10:16Z</time>
      </trkpt>
      <trkpt lat="48.72516" lon="1.96359">
        <ele>165</ele>
        <time>2010-05-13T11:10:17Z</time>
      </trkpt>
      <trkpt lat="48.72516" lon="1.96358">
        <ele>165</ele>
        <time>2010-05-13T11:10:18Z</time>
      </trkpt>
      <trkpt lat="48.72517" lon="1.96355">
        <ele>165</ele>
        <time>2010-05-13T11:10:19Z</time>
      </trkpt>
      <trkpt lat="48.72517" lon="1.96353">
        <ele>165</ele>
        <time>2010-05-13T11:10:20Z</time>
      </trkpt>
      <trkpt lat="48.72517" lon="1.96351">
        <ele>165</ele>
        <time>2010-05-13T11:10:21Z</time>
      </trkpt>
      <trkpt lat="48.72515" lon="1.96347">
        <ele>165</ele>
        <time>2010-05-13T11:10:22Z</time>
      </trkpt>
      <trkpt lat="48.72515" lon="1.96345">
        <ele>165</ele>
        <time>2010-05-13T11:10:23Z</time>
      </trkpt>
      <trkpt lat="48.72515" lon="1.96342">
        <ele>165</ele>
        <time>2010-05-13T11:10:25Z</time>
      </trkpt>
      <trkpt lat="48.72514" lon="1.96338">
        <ele>165</ele>
        <time>2010-05-13T11:10:27Z</time>
      </trkpt>
      <trkpt lat="48.72513" lon="1.96336">
        <ele>165</ele>
        <time>2010-05-13T11:10:28Z</time>
      </trkpt>
      <trkpt lat="48.72512" lon="1.96334">
        <ele>165</ele>
        <time>2010-05-13T11:10:29Z</time>
      </trkpt>
      <trkpt lat="48.72512" lon="1.96331">
        <ele>165</ele>
        <time>2010-05-13T11:10:30Z</time>
      </trkpt>
      <trkpt lat="48.72511" lon="1.96329">
        <ele>165</ele>
        <time>2010-05-13T11:10:31Z</time>
      </trkpt>
      <trkpt lat="48.72511" lon="1.96327">
        <ele>165</ele>
        <time>2010-05-13T11:10:32Z</time>
      </trkpt>
      <trkpt lat="48.72509" lon="1.96323">
        <ele>165</ele>
        <time>2010-05-13T11:10:34Z</time>
      </trkpt>
      <trkpt lat="48.72509" lon="1.9632">
        <ele>166</ele>
        <time>2010-05-13T11:10:36Z</time>
      </trkpt>
      <trkpt lat="48.72507" lon="1.96318">
        <ele>167</ele>
        <time>2010-05-13T11:10:37Z</time>
      </trkpt>
      <trkpt lat="48.72505" lon="1.96317">
        <ele>168</ele>
        <time>2010-05-13T11:10:38Z</time>
      </trkpt>
      <trkpt lat="48.72504" lon="1.96314">
        <ele>168</ele>
        <time>2010-05-13T11:10:40Z</time>
      </trkpt>
      <trkpt lat="48.72504" lon="1.96313">
        <ele>168</ele>
        <time>2010-05-13T11:10:41Z</time>
      </trkpt>
      <trkpt lat="48.72504" lon="1.9631">
        <ele>168</ele>
        <time>2010-05-13T11:10:43Z</time>
      </trkpt>
      <trkpt lat="48.72503" lon="1.96308">
        <ele>168</ele>
        <time>2010-05-13T11:10:45Z</time>
      </trkpt>
      <trkpt lat="48.72502" lon="1.96307">
        <ele>168</ele>
        <time>2010-05-13T11:10:47Z</time>
      </trkpt>
      <trkpt lat="48.725" lon="1.96302">
        <ele>168</ele>
        <time>2010-05-13T11:10:49Z</time>
      </trkpt>
      <trkpt lat="48.725" lon="1.963">
        <ele>168</ele>
        <time>2010-05-13T11:10:51Z</time>
      </trkpt>
      <trkpt lat="48.72499" lon="1.96299">
        <ele>168</ele>
        <time>2010-05-13T11:10:54Z</time>
      </trkpt>
      <trkpt lat="48.72498" lon="1.96298">
        <ele>168</ele>
        <time>2010-05-13T11:10:58Z</time>
      </trkpt>
      <trkpt lat="48.72495" lon="1.96298">
        <ele>168</ele>
        <time>2010-05-13T11:11:00Z</time>
      </trkpt>
      <trkpt lat="48.72497" lon="1.963">
        <ele>169</ele>
        <time>2010-05-13T11:11:02Z</time>
      </trkpt>
      <trkpt lat="48.72499" lon="1.96296">
        <ele>169</ele>
        <time>2010-05-13T11:11:06Z</time>
      </trkpt>
      <trkpt lat="48.72499" lon="1.96294">
        <ele>169</ele>
        <time>2010-05-13T11:11:07Z</time>
      </trkpt>
      <trkpt lat="48.725" lon="1.96291">
        <ele>169</ele>
        <time>2010-05-13T11:11:08Z</time>
      </trkpt>
      <trkpt lat="48.72502" lon="1.96288">
        <ele>169</ele>
        <time>2010-05-13T11:11:09Z</time>
      </trkpt>
      <trkpt lat="48.72502" lon="1.96286">
        <ele>169</ele>
        <time>2010-05-13T11:11:10Z</time>
      </trkpt>
      <trkpt lat="48.72501" lon="1.96284">
        <ele>169</ele>
        <time>2010-05-13T11:11:11Z</time>
      </trkpt>
      <trkpt lat="48.725" lon="1.96282">
        <ele>169</ele>
        <time>2010-05-13T11:11:12Z</time>
      </trkpt>
      <trkpt lat="48.72499" lon="1.9628">
        <ele>169</ele>
        <time>2010-05-13T11:11:13Z</time>
      </trkpt>
      <trkpt lat="48.72498" lon="1.96277">
        <ele>169</ele>
        <time>2010-05-13T11:11:14Z</time>
      </trkpt>
      <trkpt lat="48.72498" lon="1.96275">
        <ele>169</ele>
        <time>2010-05-13T11:11:15Z</time>
      </trkpt>
      <trkpt lat="48.72498" lon="1.96272">
        <ele>169</ele>
        <time>2010-05-13T11:11:16Z</time>
      </trkpt>
      <trkpt lat="48.72497" lon="1.9627">
        <ele>168</ele>
        <time>2010-05-13T11:11:21Z</time>
      </trkpt>
      <trkpt lat="48.72495" lon="1.96269">
        <ele>168</ele>
        <time>2010-05-13T11:11:22Z</time>
      </trkpt>
      <trkpt lat="48.72494" lon="1.96268">
        <ele>168</ele>
        <time>2010-05-13T11:11:24Z</time>
      </trkpt>
      <trkpt lat="48.72494" lon="1.96266">
        <ele>168</ele>
        <time>2010-05-13T11:11:26Z</time>
      </trkpt>
      <trkpt lat="48.72495" lon="1.96264">
        <ele>168</ele>
        <time>2010-05-13T11:11:27Z</time>
      </trkpt>
      <trkpt lat="48.72495" lon="1.96262">
        <ele>168</ele>
        <time>2010-05-13T11:11:28Z</time>
      </trkpt>
      <trkpt lat="48.72495" lon="1.9626">
        <ele>168</ele>
        <time>2010-05-13T11:11:29Z</time>
      </trkpt>
      <trkpt lat="48.72494" lon="1.96258">
        <ele>168</ele>
        <time>2010-05-13T11:11:30Z</time>
      </trkpt>
      <trkpt lat="48.72493" lon="1.96256">
        <ele>168</ele>
        <time>2010-05-13T11:11:31Z</time>
      </trkpt>
      <trkpt lat="48.72492" lon="1.96254">
        <ele>168</ele>
        <time>2010-05-13T11:11:32Z</time>
      </trkpt>
      <trkpt lat="48.72493" lon="1.96252">
        <ele>168</ele>
        <time>2010-05-13T11:11:33Z</time>
      </trkpt>
      <trkpt lat="48.72493" lon="1.96249">
        <ele>168</ele>
        <time>2010-05-13T11:11:34Z</time>
      </trkpt>
      <trkpt lat="48.72493" lon="1.96246">
        <ele>168</ele>
        <time>2010-05-13T11:11:35Z</time>
      </trkpt>
      <trkpt lat="48.72493" lon="1.96245">
        <ele>168</ele>
        <time>2010-05-13T11:11:36Z</time>
      </trkpt>
      <trkpt lat="48.72493" lon="1.96242">
        <ele>168</ele>
        <time>2010-05-13T11:11:37Z</time>
      </trkpt>
      <trkpt lat="48.72492" lon="1.9624">
        <ele>168</ele>
        <time>2010-05-13T11:11:39Z</time>
      </trkpt>
      <trkpt lat="48.72491" lon="1.96238">
        <ele>168</ele>
        <time>2010-05-13T11:11:41Z</time>
      </trkpt>
      <trkpt lat="48.72489" lon="1.96236">
        <ele>168</ele>
        <time>2010-05-13T11:11:43Z</time>
      </trkpt>
      <trkpt lat="48.72489" lon="1.96233">
        <ele>167</ele>
        <time>2010-05-13T11:11:45Z</time>
      </trkpt>
      <trkpt lat="48.72488" lon="1.96231">
        <ele>167</ele>
        <time>2010-05-13T11:11:46Z</time>
      </trkpt>
      <trkpt lat="48.72486" lon="1.96228">
        <ele>167</ele>
        <time>2010-05-13T11:11:47Z</time>
      </trkpt>
      <trkpt lat="48.72485" lon="1.96226">
        <ele>167</ele>
        <time>2010-05-13T11:11:48Z</time>
      </trkpt>
      <trkpt lat="48.72484" lon="1.96222">
        <ele>167</ele>
        <time>2010-05-13T11:11:49Z</time>
      </trkpt>
      <trkpt lat="48.72484" lon="1.9622">
        <ele>167</ele>
        <time>2010-05-13T11:11:50Z</time>
      </trkpt>
      <trkpt lat="48.72483" lon="1.96219">
        <ele>167</ele>
        <time>2010-05-13T11:11:51Z</time>
      </trkpt>
      <trkpt lat="48.72481" lon="1.96218">
        <ele>167</ele>
        <time>2010-05-13T11:11:52Z</time>
      </trkpt>
      <trkpt lat="48.72478" lon="1.96214">
        <ele>167</ele>
        <time>2010-05-13T11:11:54Z</time>
      </trkpt>
      <trkpt lat="48.72476" lon="1.96212">
        <ele>167</ele>
        <time>2010-05-13T11:11:55Z</time>
      </trkpt>
      <trkpt lat="48.72474" lon="1.96209">
        <ele>167</ele>
        <time>2010-05-13T11:11:56Z</time>
      </trkpt>
      <trkpt lat="48.72473" lon="1.96208">
        <ele>167</ele>
        <time>2010-05-13T11:11:57Z</time>
      </trkpt>
      <trkpt lat="48.72472" lon="1.96206">
        <ele>167</ele>
        <time>2010-05-13T11:11:58Z</time>
      </trkpt>
      <trkpt lat="48.72469" lon="1.96203">
        <ele>167</ele>
        <time>2010-05-13T11:11:59Z</time>
      </trkpt>
      <trkpt lat="48.72467" lon="1.962">
        <ele>167</ele>
        <time>2010-05-13T11:12:00Z</time>
      </trkpt>
      <trkpt lat="48.72465" lon="1.96198">
        <ele>167</ele>
        <time>2010-05-13T11:12:01Z</time>
      </trkpt>
      <trkpt lat="48.72464" lon="1.96196">
        <ele>167</ele>
        <time>2010-05-13T11:12:03Z</time>
      </trkpt>
      <trkpt lat="48.72463" lon="1.96194">
        <ele>167</ele>
        <time>2010-05-13T11:12:05Z</time>
      </trkpt>
      <trkpt lat="48.72462" lon="1.96191">
        <ele>167</ele>
        <time>2010-05-13T11:12:07Z</time>
      </trkpt>
      <trkpt lat="48.72461" lon="1.96189">
        <ele>165</ele>
        <time>2010-05-13T11:12:09Z</time>
      </trkpt>
      <trkpt lat="48.72462" lon="1.96186">
        <ele>165</ele>
        <time>2010-05-13T11:12:10Z</time>
      </trkpt>
      <trkpt lat="48.72461" lon="1.96184">
        <ele>164</ele>
        <time>2010-05-13T11:12:11Z</time>
      </trkpt>
      <trkpt lat="48.72463" lon="1.96183">
        <ele>162</ele>
        <time>2010-05-13T11:12:13Z</time>
      </trkpt>
      <trkpt lat="48.72465" lon="1.96181">
        <ele>160</ele>
        <time>2010-05-13T11:12:15Z</time>
      </trkpt>
      <trkpt lat="48.72465" lon="1.96179">
        <ele>158</ele>
        <time>2010-05-13T11:12:17Z</time>
      </trkpt>
      <trkpt lat="48.72466" lon="1.96178">
        <ele>157</ele>
        <time>2010-05-13T11:12:18Z</time>
      </trkpt>
      <trkpt lat="48.72465" lon="1.96176">
        <ele>156</ele>
        <time>2010-05-13T11:12:19Z</time>
      </trkpt>
      <trkpt lat="48.72467" lon="1.96173">
        <ele>155</ele>
        <time>2010-05-13T11:12:20Z</time>
      </trkpt>
      <trkpt lat="48.72467" lon="1.96171">
        <ele>154</ele>
        <time>2010-05-13T11:12:21Z</time>
      </trkpt>
      <trkpt lat="48.72467" lon="1.96167">
        <ele>152</ele>
        <time>2010-05-13T11:12:23Z</time>
      </trkpt>
      <trkpt lat="48.72467" lon="1.96165">
        <ele>152</ele>
        <time>2010-05-13T11:12:24Z</time>
      </trkpt>
      <trkpt lat="48.72469" lon="1.96163">
        <ele>152</ele>
        <time>2010-05-13T11:12:25Z</time>
      </trkpt>
      <trkpt lat="48.72468" lon="1.96161">
        <ele>152</ele>
        <time>2010-05-13T11:12:26Z</time>
      </trkpt>
      <trkpt lat="48.72467" lon="1.96159">
        <ele>152</ele>
        <time>2010-05-13T11:12:27Z</time>
      </trkpt>
      <trkpt lat="48.72466" lon="1.96156">
        <ele>152</ele>
        <time>2010-05-13T11:12:28Z</time>
      </trkpt>
      <trkpt lat="48.72466" lon="1.96154">
        <ele>152</ele>
        <time>2010-05-13T11:12:29Z</time>
      </trkpt>
      <trkpt lat="48.72465" lon="1.96151">
        <ele>152</ele>
        <time>2010-05-13T11:12:30Z</time>
      </trkpt>
      <trkpt lat="48.72463" lon="1.96148">
        <ele>152</ele>
        <time>2010-05-13T11:12:31Z</time>
      </trkpt>
      <trkpt lat="48.72463" lon="1.96145">
        <ele>152</ele>
        <time>2010-05-13T11:12:32Z</time>
      </trkpt>
      <trkpt lat="48.72462" lon="1.96143">
        <ele>152</ele>
        <time>2010-05-13T11:12:33Z</time>
      </trkpt>
      <trkpt lat="48.72461" lon="1.9614">
        <ele>152</ele>
        <time>2010-05-13T11:12:35Z</time>
      </trkpt>
      <trkpt lat="48.72458" lon="1.96135">
        <ele>152</ele>
        <time>2010-05-13T11:12:37Z</time>
      </trkpt>
      <trkpt lat="48.72458" lon="1.96133">
        <ele>152</ele>
        <time>2010-05-13T11:12:38Z</time>
      </trkpt>
      <trkpt lat="48.72457" lon="1.96131">
        <ele>151</ele>
        <time>2010-05-13T11:12:40Z</time>
      </trkpt>
      <trkpt lat="48.72457" lon="1.96128">
        <ele>150</ele>
        <time>2010-05-13T11:12:42Z</time>
      </trkpt>
      <trkpt lat="48.72456" lon="1.96124">
        <ele>149</ele>
        <time>2010-05-13T11:12:43Z</time>
      </trkpt>
      <trkpt lat="48.72455" lon="1.96121">
        <ele>149</ele>
        <time>2010-05-13T11:12:44Z</time>
      </trkpt>
      <trkpt lat="48.72453" lon="1.96117">
        <ele>149</ele>
        <time>2010-05-13T11:12:45Z</time>
      </trkpt>
      <trkpt lat="48.72453" lon="1.96113">
        <ele>149</ele>
        <time>2010-05-13T11:12:46Z</time>
      </trkpt>
      <trkpt lat="48.72452" lon="1.9611">
        <ele>149</ele>
        <time>2010-05-13T11:12:47Z</time>
      </trkpt>
      <trkpt lat="48.72451" lon="1.96106">
        <ele>149</ele>
        <time>2010-05-13T11:12:48Z</time>
      </trkpt>
      <trkpt lat="48.72451" lon="1.96103">
        <ele>149</ele>
        <time>2010-05-13T11:12:49Z</time>
      </trkpt>
      <trkpt lat="48.72452" lon="1.96101">
        <ele>149</ele>
        <time>2010-05-13T11:12:50Z</time>
      </trkpt>
      <trkpt lat="48.72453" lon="1.961">
        <ele>149</ele>
        <time>2010-05-13T11:12:51Z</time>
      </trkpt>
      <trkpt lat="48.72452" lon="1.96097">
        <ele>149</ele>
        <time>2010-05-13T11:12:52Z</time>
      </trkpt>
      <trkpt lat="48.72451" lon="1.96093">
        <ele>148</ele>
        <time>2010-05-13T11:12:53Z</time>
      </trkpt>
      <trkpt lat="48.7245" lon="1.9609">
        <ele>148</ele>
        <time>2010-05-13T11:12:54Z</time>
      </trkpt>
      <trkpt lat="48.7245" lon="1.96088">
        <ele>148</ele>
        <time>2010-05-13T11:12:55Z</time>
      </trkpt>
      <trkpt lat="48.7245" lon="1.96086">
        <ele>148</ele>
        <time>2010-05-13T11:12:56Z</time>
      </trkpt>
      <trkpt lat="48.72448" lon="1.96083">
        <ele>148</ele>
        <time>2010-05-13T11:12:57Z</time>
      </trkpt>
      <trkpt lat="48.72448" lon="1.9608">
        <ele>148</ele>
        <time>2010-05-13T11:12:59Z</time>
      </trkpt>
      <trkpt lat="48.72448" lon="1.96077">
        <ele>148</ele>
        <time>2010-05-13T11:13:00Z</time>
      </trkpt>
      <trkpt lat="48.72449" lon="1.96075">
        <ele>148</ele>
        <time>2010-05-13T11:13:02Z</time>
      </trkpt>
      <trkpt lat="48.72449" lon="1.96073">
        <ele>148</ele>
        <time>2010-05-13T11:13:03Z</time>
      </trkpt>
      <trkpt lat="48.72447" lon="1.9607">
        <ele>148</ele>
        <time>2010-05-13T11:13:04Z</time>
      </trkpt>
      <trkpt lat="48.72447" lon="1.96068">
        <ele>148</ele>
        <time>2010-05-13T11:13:05Z</time>
      </trkpt>
      <trkpt lat="48.72447" lon="1.96065">
        <ele>148</ele>
        <time>2010-05-13T11:13:06Z</time>
      </trkpt>
      <trkpt lat="48.72447" lon="1.96061">
        <ele>148</ele>
        <time>2010-05-13T11:13:08Z</time>
      </trkpt>
      <trkpt lat="48.72447" lon="1.96059">
        <ele>148</ele>
        <time>2010-05-13T11:13:09Z</time>
      </trkpt>
      <trkpt lat="48.72447" lon="1.96058">
        <ele>148</ele>
        <time>2010-05-13T11:13:10Z</time>
      </trkpt>
      <trkpt lat="48.72446" lon="1.96056">
        <ele>147</ele>
        <time>2010-05-13T11:13:11Z</time>
      </trkpt>
      <trkpt lat="48.72448" lon="1.96053">
        <ele>146</ele>
        <time>2010-05-13T11:13:13Z</time>
      </trkpt>
      <trkpt lat="48.72448" lon="1.96051">
        <ele>146</ele>
        <time>2010-05-13T11:13:14Z</time>
      </trkpt>
      <trkpt lat="48.72447" lon="1.96048">
        <ele>145</ele>
        <time>2010-05-13T11:13:15Z</time>
      </trkpt>
      <trkpt lat="48.72447" lon="1.96046">
        <ele>145</ele>
        <time>2010-05-13T11:13:16Z</time>
      </trkpt>
      <trkpt lat="48.72446" lon="1.96042">
        <ele>144</ele>
        <time>2010-05-13T11:13:17Z</time>
      </trkpt>
      <trkpt lat="48.72447" lon="1.96039">
        <ele>144</ele>
        <time>2010-05-13T11:13:18Z</time>
      </trkpt>
      <trkpt lat="48.72447" lon="1.96036">
        <ele>144</ele>
        <time>2010-05-13T11:13:19Z</time>
      </trkpt>
      <trkpt lat="48.72447" lon="1.96033">
        <ele>144</ele>
        <time>2010-05-13T11:13:20Z</time>
      </trkpt>
      <trkpt lat="48.72447" lon="1.96031">
        <ele>143</ele>
        <time>2010-05-13T11:13:21Z</time>
      </trkpt>
      <trkpt lat="48.72447" lon="1.96028">
        <ele>143</ele>
        <time>2010-05-13T11:13:23Z</time>
      </trkpt>
      <trkpt lat="48.72447" lon="1.96026">
        <ele>143</ele>
        <time>2010-05-13T11:13:24Z</time>
      </trkpt>
      <trkpt lat="48.72448" lon="1.96024">
        <ele>142</ele>
        <time>2010-05-13T11:13:25Z</time>
      </trkpt>
      <trkpt lat="48.72448" lon="1.96022">
        <ele>142</ele>
        <time>2010-05-13T11:13:26Z</time>
      </trkpt>
      <trkpt lat="48.72448" lon="1.96019">
        <ele>142</ele>
        <time>2010-05-13T11:13:27Z</time>
      </trkpt>
      <trkpt lat="48.72447" lon="1.96018">
        <ele>141</ele>
        <time>2010-05-13T11:13:28Z</time>
      </trkpt>
      <trkpt lat="48.72448" lon="1.96016">
        <ele>141</ele>
        <time>2010-05-13T11:13:29Z</time>
      </trkpt>
      <trkpt lat="48.72448" lon="1.96013">
        <ele>141</ele>
        <time>2010-05-13T11:13:30Z</time>
      </trkpt>
      <trkpt lat="48.72448" lon="1.96011">
        <ele>141</ele>
        <time>2010-05-13T11:13:31Z</time>
      </trkpt>
      <trkpt lat="48.72448" lon="1.96008">
        <ele>141</ele>
        <time>2010-05-13T11:13:32Z</time>
      </trkpt>
      <trkpt lat="48.72449" lon="1.96007">
        <ele>141</ele>
        <time>2010-05-13T11:13:33Z</time>
      </trkpt>
      <trkpt lat="48.72449" lon="1.96005">
        <ele>141</ele>
        <time>2010-05-13T11:13:34Z</time>
      </trkpt>
      <trkpt lat="48.72449" lon="1.96002">
        <ele>141</ele>
        <time>2010-05-13T11:13:35Z</time>
      </trkpt>
      <trkpt lat="48.72449" lon="1.95999">
        <ele>141</ele>
        <time>2010-05-13T11:13:36Z</time>
      </trkpt>
      <trkpt lat="48.72449" lon="1.95997">
        <ele>141</ele>
        <time>2010-05-13T11:13:37Z</time>
      </trkpt>
      <trkpt lat="48.72449" lon="1.95994">
        <ele>141</ele>
        <time>2010-05-13T11:13:38Z</time>
      </trkpt>
      <trkpt lat="48.7245" lon="1.95991">
        <ele>141</ele>
        <time>2010-05-13T11:13:39Z</time>
      </trkpt>
      <trkpt lat="48.7245" lon="1.95989">
        <ele>141</ele>
        <time>2010-05-13T11:13:40Z</time>
      </trkpt>
      <trkpt lat="48.7245" lon="1.95986">
        <ele>141</ele>
        <time>2010-05-13T11:13:41Z</time>
      </trkpt>
      <trkpt lat="48.72449" lon="1.95983">
        <ele>141</ele>
        <time>2010-05-13T11:13:42Z</time>
      </trkpt>
      <trkpt lat="48.72448" lon="1.95981">
        <ele>142</ele>
        <time>2010-05-13T11:13:43Z</time>
      </trkpt>
      <trkpt lat="48.72448" lon="1.95978">
        <ele>142</ele>
        <time>2010-05-13T11:13:44Z</time>
      </trkpt>
      <trkpt lat="48.72448" lon="1.95975">
        <ele>143</ele>
        <time>2010-05-13T11:13:46Z</time>
      </trkpt>
      <trkpt lat="48.72447" lon="1.95972">
        <ele>143</ele>
        <time>2010-05-13T11:13:48Z</time>
      </trkpt>
      <trkpt lat="48.72446" lon="1.9597">
        <ele>143</ele>
        <time>2010-05-13T11:13:49Z</time>
      </trkpt>
      <trkpt lat="48.72446" lon="1.95968">
        <ele>143</ele>
        <time>2010-05-13T11:13:50Z</time>
      </trkpt>
      <trkpt lat="48.72447" lon="1.95964">
        <ele>143</ele>
        <time>2010-05-13T11:13:52Z</time>
      </trkpt>
      <trkpt lat="48.72447" lon="1.95962">
        <ele>143</ele>
        <time>2010-05-13T11:13:53Z</time>
      </trkpt>
      <trkpt lat="48.72445" lon="1.95958">
        <ele>143</ele>
        <time>2010-05-13T11:13:54Z</time>
      </trkpt>
      <trkpt lat="48.72445" lon="1.95955">
        <ele>143</ele>
        <time>2010-05-13T11:13:56Z</time>
      </trkpt>
      <trkpt lat="48.72446" lon="1.95952">
        <ele>143</ele>
        <time>2010-05-13T11:13:58Z</time>
      </trkpt>
      <trkpt lat="48.72446" lon="1.9595">
        <ele>143</ele>
        <time>2010-05-13T11:13:59Z</time>
      </trkpt>
      <trkpt lat="48.72445" lon="1.95947">
        <ele>143</ele>
        <time>2010-05-13T11:14:00Z</time>
      </trkpt>
      <trkpt lat="48.72445" lon="1.95944">
        <ele>143</ele>
        <time>2010-05-13T11:14:01Z</time>
      </trkpt>
      <trkpt lat="48.72446" lon="1.95941">
        <ele>143</ele>
        <time>2010-05-13T11:14:02Z</time>
      </trkpt>
      <trkpt lat="48.72446" lon="1.95938">
        <ele>143</ele>
        <time>2010-05-13T11:14:03Z</time>
      </trkpt>
      <trkpt lat="48.72446" lon="1.95936">
        <ele>143</ele>
        <time>2010-05-13T11:14:04Z</time>
      </trkpt>
      <trkpt lat="48.72445" lon="1.95932">
        <ele>143</ele>
        <time>2010-05-13T11:14:05Z</time>
      </trkpt>
      <trkpt lat="48.72444" lon="1.95929">
        <ele>143</ele>
        <time>2010-05-13T11:14:06Z</time>
      </trkpt>
      <trkpt lat="48.72442" lon="1.95926">
        <ele>143</ele>
        <time>2010-05-13T11:14:08Z</time>
      </trkpt>
      <trkpt lat="48.72441" lon="1.95924">
        <ele>143</ele>
        <time>2010-05-13T11:14:09Z</time>
      </trkpt>
      <trkpt lat="48.72439" lon="1.95921">
        <ele>143</ele>
        <time>2010-05-13T11:14:10Z</time>
      </trkpt>
      <trkpt lat="48.72439" lon="1.95919">
        <ele>143</ele>
        <time>2010-05-13T11:14:11Z</time>
      </trkpt>
      <trkpt lat="48.72439" lon="1.95917">
        <ele>143</ele>
        <time>2010-05-13T11:14:12Z</time>
      </trkpt>
      <trkpt lat="48.72438" lon="1.95915">
        <ele>143</ele>
        <time>2010-05-13T11:14:14Z</time>
      </trkpt>
      <trkpt lat="48.72438" lon="1.9591">
        <ele>142</ele>
        <time>2010-05-13T11:14:17Z</time>
      </trkpt>
      <trkpt lat="48.72436" lon="1.95907">
        <ele>142</ele>
        <time>2010-05-13T11:14:18Z</time>
      </trkpt>
      <trkpt lat="48.72435" lon="1.95905">
        <ele>142</ele>
        <time>2010-05-13T11:14:19Z</time>
      </trkpt>
      <trkpt lat="48.72434" lon="1.95903">
        <ele>142</ele>
        <time>2010-05-13T11:14:20Z</time>
      </trkpt>
      <trkpt lat="48.72433" lon="1.959">
        <ele>142</ele>
        <time>2010-05-13T11:14:21Z</time>
      </trkpt>
      <trkpt lat="48.72432" lon="1.95898">
        <ele>142</ele>
        <time>2010-05-13T11:14:22Z</time>
      </trkpt>
      <trkpt lat="48.72433" lon="1.95896">
        <ele>142</ele>
        <time>2010-05-13T11:14:24Z</time>
      </trkpt>
      <trkpt lat="48.72433" lon="1.95892">
        <ele>142</ele>
        <time>2010-05-13T11:14:26Z</time>
      </trkpt>
      <trkpt lat="48.72432" lon="1.95889">
        <ele>142</ele>
        <time>2010-05-13T11:14:27Z</time>
      </trkpt>
      <trkpt lat="48.72431" lon="1.95887">
        <ele>142</ele>
        <time>2010-05-13T11:14:28Z</time>
      </trkpt>
      <trkpt lat="48.7243" lon="1.95884">
        <ele>142</ele>
        <time>2010-05-13T11:14:29Z</time>
      </trkpt>
      <trkpt lat="48.72429" lon="1.95882">
        <ele>142</ele>
        <time>2010-05-13T11:14:30Z</time>
      </trkpt>
      <trkpt lat="48.72428" lon="1.95879">
        <ele>142</ele>
        <time>2010-05-13T11:14:31Z</time>
      </trkpt>
      <trkpt lat="48.72428" lon="1.95878">
        <ele>142</ele>
        <time>2010-05-13T11:14:32Z</time>
      </trkpt>
      <trkpt lat="48.72426" lon="1.95874">
        <ele>141</ele>
        <time>2010-05-13T11:14:34Z</time>
      </trkpt>
      <trkpt lat="48.72425" lon="1.95872">
        <ele>141</ele>
        <time>2010-05-13T11:14:35Z</time>
      </trkpt>
      <trkpt lat="48.72425" lon="1.9587">
        <ele>141</ele>
        <time>2010-05-13T11:14:36Z</time>
      </trkpt>
      <trkpt lat="48.72424" lon="1.95868">
        <ele>140</ele>
        <time>2010-05-13T11:14:38Z</time>
      </trkpt>
      <trkpt lat="48.72423" lon="1.95866">
        <ele>139</ele>
        <time>2010-05-13T11:14:40Z</time>
      </trkpt>
      <trkpt lat="48.72422" lon="1.95864">
        <ele>137</ele>
        <time>2010-05-13T11:14:42Z</time>
      </trkpt>
      <trkpt lat="48.7242" lon="1.95864">
        <ele>137</ele>
        <time>2010-05-13T11:14:43Z</time>
      </trkpt>
      <trkpt lat="48.72419" lon="1.95863">
        <ele>136</ele>
        <time>2010-05-13T11:14:44Z</time>
      </trkpt>
      <trkpt lat="48.72417" lon="1.95862">
        <ele>136</ele>
        <time>2010-05-13T11:14:46Z</time>
      </trkpt>
      <trkpt lat="48.72415" lon="1.9586">
        <ele>135</ele>
        <time>2010-05-13T11:14:47Z</time>
      </trkpt>
      <trkpt lat="48.72414" lon="1.95859">
        <ele>135</ele>
        <time>2010-05-13T11:14:48Z</time>
      </trkpt>
      <trkpt lat="48.72412" lon="1.95856">
        <ele>135</ele>
        <time>2010-05-13T11:14:49Z</time>
      </trkpt>
      <trkpt lat="48.72411" lon="1.95854">
        <ele>135</ele>
        <time>2010-05-13T11:14:50Z</time>
      </trkpt>
      <trkpt lat="48.72409" lon="1.95851">
        <ele>135</ele>
        <time>2010-05-13T11:14:52Z</time>
      </trkpt>
      <trkpt lat="48.72407" lon="1.95849">
        <ele>135</ele>
        <time>2010-05-13T11:14:53Z</time>
      </trkpt>
      <trkpt lat="48.72406" lon="1.95847">
        <ele>135</ele>
        <time>2010-05-13T11:14:54Z</time>
      </trkpt>
      <trkpt lat="48.72404" lon="1.95844">
        <ele>135</ele>
        <time>2010-05-13T11:14:56Z</time>
      </trkpt>
      <trkpt lat="48.72403" lon="1.95842">
        <ele>135</ele>
        <time>2010-05-13T11:14:57Z</time>
      </trkpt>
      <trkpt lat="48.72403" lon="1.9584">
        <ele>135</ele>
        <time>2010-05-13T11:14:58Z</time>
      </trkpt>
      <trkpt lat="48.72401" lon="1.95838">
        <ele>135</ele>
        <time>2010-05-13T11:14:59Z</time>
      </trkpt>
      <trkpt lat="48.724" lon="1.95836">
        <ele>135</ele>
        <time>2010-05-13T11:15:00Z</time>
      </trkpt>
      <trkpt lat="48.72398" lon="1.95834">
        <ele>134</ele>
        <time>2010-05-13T11:15:02Z</time>
      </trkpt>
      <trkpt lat="48.72397" lon="1.95833">
        <ele>134</ele>
        <time>2010-05-13T11:15:03Z</time>
      </trkpt>
      <trkpt lat="48.72395" lon="1.95831">
        <ele>133</ele>
        <time>2010-05-13T11:15:04Z</time>
      </trkpt>
      <trkpt lat="48.72394" lon="1.9583">
        <ele>133</ele>
        <time>2010-05-13T11:15:05Z</time>
      </trkpt>
      <trkpt lat="48.72393" lon="1.95828">
        <ele>133</ele>
        <time>2010-05-13T11:15:06Z</time>
      </trkpt>
      <trkpt lat="48.72391" lon="1.95825">
        <ele>132</ele>
        <time>2010-05-13T11:15:08Z</time>
      </trkpt>
      <trkpt lat="48.7239" lon="1.95823">
        <ele>132</ele>
        <time>2010-05-13T11:15:09Z</time>
      </trkpt>
      <trkpt lat="48.72389" lon="1.95821">
        <ele>132</ele>
        <time>2010-05-13T11:15:10Z</time>
      </trkpt>
      <trkpt lat="48.72388" lon="1.95819">
        <ele>131</ele>
        <time>2010-05-13T11:15:11Z</time>
      </trkpt>
      <trkpt lat="48.72388" lon="1.95817">
        <ele>131</ele>
        <time>2010-05-13T11:15:12Z</time>
      </trkpt>
      <trkpt lat="48.72387" lon="1.95815">
        <ele>131</ele>
        <time>2010-05-13T11:15:13Z</time>
      </trkpt>
      <trkpt lat="48.72386" lon="1.95813">
        <ele>131</ele>
        <time>2010-05-13T11:15:14Z</time>
      </trkpt>
      <trkpt lat="48.72385" lon="1.95811">
        <ele>130</ele>
        <time>2010-05-13T11:15:15Z</time>
      </trkpt>
      <trkpt lat="48.72385" lon="1.95809">
        <ele>130</ele>
        <time>2010-05-13T11:15:16Z</time>
      </trkpt>
      <trkpt lat="48.72385" lon="1.95807">
        <ele>130</ele>
        <time>2010-05-13T11:15:17Z</time>
      </trkpt>
      <trkpt lat="48.72384" lon="1.95806">
        <ele>130</ele>
        <time>2010-05-13T11:15:18Z</time>
      </trkpt>
      <trkpt lat="48.72384" lon="1.95803">
        <ele>129</ele>
        <time>2010-05-13T11:15:20Z</time>
      </trkpt>
      <trkpt lat="48.72384" lon="1.95801">
        <ele>128</ele>
        <time>2010-05-13T11:15:21Z</time>
      </trkpt>
      <trkpt lat="48.72384" lon="1.95798">
        <ele>127</ele>
        <time>2010-05-13T11:15:23Z</time>
      </trkpt>
      <trkpt lat="48.72383" lon="1.95794">
        <ele>127</ele>
        <time>2010-05-13T11:15:25Z</time>
      </trkpt>
      <trkpt lat="48.72383" lon="1.95792">
        <ele>127</ele>
        <time>2010-05-13T11:15:26Z</time>
      </trkpt>
      <trkpt lat="48.72381" lon="1.9579">
        <ele>127</ele>
        <time>2010-05-13T11:15:28Z</time>
      </trkpt>
      <trkpt lat="48.72381" lon="1.95788">
        <ele>127</ele>
        <time>2010-05-13T11:15:29Z</time>
      </trkpt>
      <trkpt lat="48.72381" lon="1.95786">
        <ele>126</ele>
        <time>2010-05-13T11:15:30Z</time>
      </trkpt>
      <trkpt lat="48.72381" lon="1.95785">
        <ele>126</ele>
        <time>2010-05-13T11:15:31Z</time>
      </trkpt>
      <trkpt lat="48.72378" lon="1.9578">
        <ele>126</ele>
        <time>2010-05-13T11:15:33Z</time>
      </trkpt>
      <trkpt lat="48.72376" lon="1.95777">
        <ele>126</ele>
        <time>2010-05-13T11:15:34Z</time>
      </trkpt>
      <trkpt lat="48.72374" lon="1.95775">
        <ele>126</ele>
        <time>2010-05-13T11:15:35Z</time>
      </trkpt>
      <trkpt lat="48.72373" lon="1.95771">
        <ele>126</ele>
        <time>2010-05-13T11:15:37Z</time>
      </trkpt>
      <trkpt lat="48.72372" lon="1.9577">
        <ele>126</ele>
        <time>2010-05-13T11:15:38Z</time>
      </trkpt>
      <trkpt lat="48.72371" lon="1.95767">
        <ele>126</ele>
        <time>2010-05-13T11:15:39Z</time>
      </trkpt>
      <trkpt lat="48.7237" lon="1.95766">
        <ele>126</ele>
        <time>2010-05-13T11:15:40Z</time>
      </trkpt>
      <trkpt lat="48.72368" lon="1.95763">
        <ele>125</ele>
        <time>2010-05-13T11:15:42Z</time>
      </trkpt>
      <trkpt lat="48.72367" lon="1.95762">
        <ele>125</ele>
        <time>2010-05-13T11:15:43Z</time>
      </trkpt>
      <trkpt lat="48.72366" lon="1.9576">
        <ele>125</ele>
        <time>2010-05-13T11:15:44Z</time>
      </trkpt>
      <trkpt lat="48.72364" lon="1.95759">
        <ele>123</ele>
        <time>2010-05-13T11:15:46Z</time>
      </trkpt>
      <trkpt lat="48.72364" lon="1.95757">
        <ele>122</ele>
        <time>2010-05-13T11:15:48Z</time>
      </trkpt>
      <trkpt lat="48.72363" lon="1.95754">
        <ele>121</ele>
        <time>2010-05-13T11:15:50Z</time>
      </trkpt>
      <trkpt lat="48.72362" lon="1.95751">
        <ele>119</ele>
        <time>2010-05-13T11:15:52Z</time>
      </trkpt>
      <trkpt lat="48.72361" lon="1.95748">
        <ele>118</ele>
        <time>2010-05-13T11:15:54Z</time>
      </trkpt>
      <trkpt lat="48.7236" lon="1.95746">
        <ele>117</ele>
        <time>2010-05-13T11:15:55Z</time>
      </trkpt>
      <trkpt lat="48.72358" lon="1.95744">
        <ele>116</ele>
        <time>2010-05-13T11:15:58Z</time>
      </trkpt>
      <trkpt lat="48.72356" lon="1.95743">
        <ele>115</ele>
        <time>2010-05-13T11:16:00Z</time>
      </trkpt>
      <trkpt lat="48.72355" lon="1.95743">
        <ele>114</ele>
        <time>2010-05-13T11:16:01Z</time>
      </trkpt>
      <trkpt lat="48.72352" lon="1.95742">
        <ele>114</ele>
        <time>2010-05-13T11:16:03Z</time>
      </trkpt>
      <trkpt lat="48.7235" lon="1.95743">
        <ele>114</ele>
        <time>2010-05-13T11:16:04Z</time>
      </trkpt>
      <trkpt lat="48.72349" lon="1.95743">
        <ele>114</ele>
        <time>2010-05-13T11:16:05Z</time>
      </trkpt>
      <trkpt lat="48.72347" lon="1.95743">
        <ele>114</ele>
        <time>2010-05-13T11:16:07Z</time>
      </trkpt>
      <trkpt lat="48.72346" lon="1.95743">
        <ele>114</ele>
        <time>2010-05-13T11:16:09Z</time>
      </trkpt>
      <trkpt lat="48.72343" lon="1.95743">
        <ele>113</ele>
        <time>2010-05-13T11:16:11Z</time>
      </trkpt>
      <trkpt lat="48.7234" lon="1.95741">
        <ele>113</ele>
        <time>2010-05-13T11:16:13Z</time>
      </trkpt>
      <trkpt lat="48.72339" lon="1.95741">
        <ele>113</ele>
        <time>2010-05-13T11:16:14Z</time>
      </trkpt>
      <trkpt lat="48.72338" lon="1.9574">
        <ele>113</ele>
        <time>2010-05-13T11:16:15Z</time>
      </trkpt>
      <trkpt lat="48.72336" lon="1.95737">
        <ele>112</ele>
        <time>2010-05-13T11:16:17Z</time>
      </trkpt>
      <trkpt lat="48.72335" lon="1.95735">
        <ele>112</ele>
        <time>2010-05-13T11:16:18Z</time>
      </trkpt>
      <trkpt lat="48.72335" lon="1.95733">
        <ele>112</ele>
        <time>2010-05-13T11:16:19Z</time>
      </trkpt>
      <trkpt lat="48.72334" lon="1.95731">
        <ele>112</ele>
        <time>2010-05-13T11:16:20Z</time>
      </trkpt>
      <trkpt lat="48.72334" lon="1.95729">
        <ele>111</ele>
        <time>2010-05-13T11:16:21Z</time>
      </trkpt>
      <trkpt lat="48.72334" lon="1.95727">
        <ele>111</ele>
        <time>2010-05-13T11:16:22Z</time>
      </trkpt>
      <trkpt lat="48.72334" lon="1.95725">
        <ele>111</ele>
        <time>2010-05-13T11:16:23Z</time>
      </trkpt>
      <trkpt lat="48.72333" lon="1.95723">
        <ele>111</ele>
        <time>2010-05-13T11:16:24Z</time>
      </trkpt>
      <trkpt lat="48.72333" lon="1.95721">
        <ele>111</ele>
        <time>2010-05-13T11:16:25Z</time>
      </trkpt>
      <trkpt lat="48.72334" lon="1.95717">
        <ele>111</ele>
        <time>2010-05-13T11:16:27Z</time>
      </trkpt>
      <trkpt lat="48.72333" lon="1.95714">
        <ele>111</ele>
        <time>2010-05-13T11:16:28Z</time>
      </trkpt>
      <trkpt lat="48.72333" lon="1.95711">
        <ele>111</ele>
        <time>2010-05-13T11:16:29Z</time>
      </trkpt>
      <trkpt lat="48.72333" lon="1.95708">
        <ele>111</ele>
        <time>2010-05-13T11:16:30Z</time>
      </trkpt>
      <trkpt lat="48.72335" lon="1.95706">
        <ele>111</ele>
        <time>2010-05-13T11:16:31Z</time>
      </trkpt>
      <trkpt lat="48.72335" lon="1.95703">
        <ele>111</ele>
        <time>2010-05-13T11:16:32Z</time>
      </trkpt>
      <trkpt lat="48.72334" lon="1.95701">
        <ele>111</ele>
        <time>2010-05-13T11:16:33Z</time>
      </trkpt>
      <trkpt lat="48.72335" lon="1.95699">
        <ele>111</ele>
        <time>2010-05-13T11:16:34Z</time>
      </trkpt>
      <trkpt lat="48.72336" lon="1.95697">
        <ele>111</ele>
        <time>2010-05-13T11:16:35Z</time>
      </trkpt>
      <trkpt lat="48.72337" lon="1.95695">
        <ele>111</ele>
        <time>2010-05-13T11:16:36Z</time>
      </trkpt>
      <trkpt lat="48.72338" lon="1.95694">
        <ele>111</ele>
        <time>2010-05-13T11:16:37Z</time>
      </trkpt>
      <trkpt lat="48.72339" lon="1.95692">
        <ele>111</ele>
        <time>2010-05-13T11:16:38Z</time>
      </trkpt>
      <trkpt lat="48.7234" lon="1.9569">
        <ele>111</ele>
        <time>2010-05-13T11:16:39Z</time>
      </trkpt>
      <trkpt lat="48.72342" lon="1.95688">
        <ele>111</ele>
        <time>2010-05-13T11:16:40Z</time>
      </trkpt>
      <trkpt lat="48.72343" lon="1.95687">
        <ele>111</ele>
        <time>2010-05-13T11:16:41Z</time>
      </trkpt>
      <trkpt lat="48.72345" lon="1.95686">
        <ele>111</ele>
        <time>2010-05-13T11:16:42Z</time>
      </trkpt>
      <trkpt lat="48.72346" lon="1.95685">
        <ele>111</ele>
        <time>2010-05-13T11:16:43Z</time>
      </trkpt>
      <trkpt lat="48.72347" lon="1.95683">
        <ele>111</ele>
        <time>2010-05-13T11:16:44Z</time>
      </trkpt>
      <trkpt lat="48.72349" lon="1.95681">
        <ele>111</ele>
        <time>2010-05-13T11:16:45Z</time>
      </trkpt>
      <trkpt lat="48.7235" lon="1.95679">
        <ele>111</ele>
        <time>2010-05-13T11:16:46Z</time>
      </trkpt>
      <trkpt lat="48.72351" lon="1.95677">
        <ele>111</ele>
        <time>2010-05-13T11:16:47Z</time>
      </trkpt>
      <trkpt lat="48.72352" lon="1.95676">
        <ele>111</ele>
        <time>2010-05-13T11:16:48Z</time>
      </trkpt>
      <trkpt lat="48.72354" lon="1.95673">
        <ele>111</ele>
        <time>2010-05-13T11:16:50Z</time>
      </trkpt>
      <trkpt lat="48.72355" lon="1.95671">
        <ele>110</ele>
        <time>2010-05-13T11:16:51Z</time>
      </trkpt>
      <trkpt lat="48.72357" lon="1.95669">
        <ele>109</ele>
        <time>2010-05-13T11:16:53Z</time>
      </trkpt>
      <trkpt lat="48.72359" lon="1.95667">
        <ele>108</ele>
        <time>2010-05-13T11:16:54Z</time>
      </trkpt>
      <trkpt lat="48.7236" lon="1.95666">
        <ele>108</ele>
        <time>2010-05-13T11:16:55Z</time>
      </trkpt>
      <trkpt lat="48.72361" lon="1.95664">
        <ele>108</ele>
        <time>2010-05-13T11:16:56Z</time>
      </trkpt>
      <trkpt lat="48.72363" lon="1.95663">
        <ele>108</ele>
        <time>2010-05-13T11:16:57Z</time>
      </trkpt>
      <trkpt lat="48.72364" lon="1.95662">
        <ele>108</ele>
        <time>2010-05-13T11:16:58Z</time>
      </trkpt>
      <trkpt lat="48.72365" lon="1.9566">
        <ele>107</ele>
        <time>2010-05-13T11:17:00Z</time>
      </trkpt>
      <trkpt lat="48.72367" lon="1.95658">
        <ele>107</ele>
        <time>2010-05-13T11:17:01Z</time>
      </trkpt>
      <trkpt lat="48.72368" lon="1.95657">
        <ele>106</ele>
        <time>2010-05-13T11:17:02Z</time>
      </trkpt>
      <trkpt lat="48.72368" lon="1.95654">
        <ele>106</ele>
        <time>2010-05-13T11:17:03Z</time>
      </trkpt>
      <trkpt lat="48.7237" lon="1.95653">
        <ele>106</ele>
        <time>2010-05-13T11:17:04Z</time>
      </trkpt>
      <trkpt lat="48.72371" lon="1.95651">
        <ele>106</ele>
        <time>2010-05-13T11:17:05Z</time>
      </trkpt>
      <trkpt lat="48.7237" lon="1.95647">
        <ele>106</ele>
        <time>2010-05-13T11:17:06Z</time>
      </trkpt>
      <trkpt lat="48.7237" lon="1.95645">
        <ele>106</ele>
        <time>2010-05-13T11:17:07Z</time>
      </trkpt>
      <trkpt lat="48.72371" lon="1.95643">
        <ele>106</ele>
        <time>2010-05-13T11:17:08Z</time>
      </trkpt>
      <trkpt lat="48.72373" lon="1.9564">
        <ele>106</ele>
        <time>2010-05-13T11:17:10Z</time>
      </trkpt>
      <trkpt lat="48.72374" lon="1.9564">
        <ele>106</ele>
        <time>2010-05-13T11:17:11Z</time>
      </trkpt>
      <trkpt lat="48.72376" lon="1.95638">
        <ele>106</ele>
        <time>2010-05-13T11:17:13Z</time>
      </trkpt>
      <trkpt lat="48.72377" lon="1.95635">
        <ele>106</ele>
        <time>2010-05-13T11:17:14Z</time>
      </trkpt>
      <trkpt lat="48.72378" lon="1.95633">
        <ele>106</ele>
        <time>2010-05-13T11:17:15Z</time>
      </trkpt>
      <trkpt lat="48.72381" lon="1.95632">
        <ele>106</ele>
        <time>2010-05-13T11:17:16Z</time>
      </trkpt>
      <trkpt lat="48.72382" lon="1.9563">
        <ele>106</ele>
        <time>2010-05-13T11:17:17Z</time>
      </trkpt>
      <trkpt lat="48.72383" lon="1.95628">
        <ele>106</ele>
        <time>2010-05-13T11:17:18Z</time>
      </trkpt>
      <trkpt lat="48.72385" lon="1.95625">
        <ele>106</ele>
        <time>2010-05-13T11:17:20Z</time>
      </trkpt>
      <trkpt lat="48.72385" lon="1.95623">
        <ele>107</ele>
        <time>2010-05-13T11:17:21Z</time>
      </trkpt>
      <trkpt lat="48.72386" lon="1.95621">
        <ele>107</ele>
        <time>2010-05-13T11:17:22Z</time>
      </trkpt>
      <trkpt lat="48.72387" lon="1.95618">
        <ele>108</ele>
        <time>2010-05-13T11:17:23Z</time>
      </trkpt>
      <trkpt lat="48.72388" lon="1.95617">
        <ele>108</ele>
        <time>2010-05-13T11:17:24Z</time>
      </trkpt>
      <trkpt lat="48.7239" lon="1.95614">
        <ele>109</ele>
        <time>2010-05-13T11:17:25Z</time>
      </trkpt>
      <trkpt lat="48.72391" lon="1.95612">
        <ele>110</ele>
        <time>2010-05-13T11:17:26Z</time>
      </trkpt>
      <trkpt lat="48.72391" lon="1.9561">
        <ele>111</ele>
        <time>2010-05-13T11:17:27Z</time>
      </trkpt>
      <trkpt lat="48.72391" lon="1.95607">
        <ele>111</ele>
        <time>2010-05-13T11:17:28Z</time>
      </trkpt>
      <trkpt lat="48.72391" lon="1.95605">
        <ele>112</ele>
        <time>2010-05-13T11:17:29Z</time>
      </trkpt>
      <trkpt lat="48.72391" lon="1.95603">
        <ele>113</ele>
        <time>2010-05-13T11:17:31Z</time>
      </trkpt>
      <trkpt lat="48.72391" lon="1.95601">
        <ele>113</ele>
        <time>2010-05-13T11:17:32Z</time>
      </trkpt>
      <trkpt lat="48.72391" lon="1.95599">
        <ele>113</ele>
        <time>2010-05-13T11:17:33Z</time>
      </trkpt>
      <trkpt lat="48.72392" lon="1.95598">
        <ele>113</ele>
        <time>2010-05-13T11:17:34Z</time>
      </trkpt>
      <trkpt lat="48.72392" lon="1.95595">
        <ele>113</ele>
        <time>2010-05-13T11:17:35Z</time>
      </trkpt>
      <trkpt lat="48.72391" lon="1.95593">
        <ele>113</ele>
        <time>2010-05-13T11:17:36Z</time>
      </trkpt>
      <trkpt lat="48.72392" lon="1.95591">
        <ele>113</ele>
        <time>2010-05-13T11:17:37Z</time>
      </trkpt>
      <trkpt lat="48.72392" lon="1.95589">
        <ele>113</ele>
        <time>2010-05-13T11:17:38Z</time>
      </trkpt>
      <trkpt lat="48.72392" lon="1.95588">
        <ele>113</ele>
        <time>2010-05-13T11:17:39Z</time>
      </trkpt>
      <trkpt lat="48.72392" lon="1.95585">
        <ele>113</ele>
        <time>2010-05-13T11:17:40Z</time>
      </trkpt>
      <trkpt lat="48.72392" lon="1.95583">
        <ele>113</ele>
        <time>2010-05-13T11:17:41Z</time>
      </trkpt>
      <trkpt lat="48.72392" lon="1.95581">
        <ele>113</ele>
        <time>2010-05-13T11:17:42Z</time>
      </trkpt>
      <trkpt lat="48.72391" lon="1.95578">
        <ele>113</ele>
        <time>2010-05-13T11:17:43Z</time>
      </trkpt>
      <trkpt lat="48.72391" lon="1.95575">
        <ele>113</ele>
        <time>2010-05-13T11:17:44Z</time>
      </trkpt>
      <trkpt lat="48.7239" lon="1.95573">
        <ele>113</ele>
        <time>2010-05-13T11:17:45Z</time>
      </trkpt>
      <trkpt lat="48.72389" lon="1.95571">
        <ele>113</ele>
        <time>2010-05-13T11:17:46Z</time>
      </trkpt>
      <trkpt lat="48.72389" lon="1.95568">
        <ele>113</ele>
        <time>2010-05-13T11:17:47Z</time>
      </trkpt>
      <trkpt lat="48.72388" lon="1.95567">
        <ele>113</ele>
        <time>2010-05-13T11:17:48Z</time>
      </trkpt>
      <trkpt lat="48.72387" lon="1.95565">
        <ele>113</ele>
        <time>2010-05-13T11:17:49Z</time>
      </trkpt>
      <trkpt lat="48.72386" lon="1.95563">
        <ele>113</ele>
        <time>2010-05-13T11:17:50Z</time>
      </trkpt>
      <trkpt lat="48.72385" lon="1.9556">
        <ele>113</ele>
        <time>2010-05-13T11:17:51Z</time>
      </trkpt>
      <trkpt lat="48.72384" lon="1.95559">
        <ele>113</ele>
        <time>2010-05-13T11:17:52Z</time>
      </trkpt>
      <trkpt lat="48.72384" lon="1.95557">
        <ele>113</ele>
        <time>2010-05-13T11:17:53Z</time>
      </trkpt>
      <trkpt lat="48.72383" lon="1.95555">
        <ele>113</ele>
        <time>2010-05-13T11:17:54Z</time>
      </trkpt>
      <trkpt lat="48.72383" lon="1.95553">
        <ele>113</ele>
        <time>2010-05-13T11:17:55Z</time>
      </trkpt>
      <trkpt lat="48.72382" lon="1.95551">
        <ele>113</ele>
        <time>2010-05-13T11:17:56Z</time>
      </trkpt>
      <trkpt lat="48.72381" lon="1.95549">
        <ele>113</ele>
        <time>2010-05-13T11:17:57Z</time>
      </trkpt>
      <trkpt lat="48.72381" lon="1.95547">
        <ele>113</ele>
        <time>2010-05-13T11:17:58Z</time>
      </trkpt>
      <trkpt lat="48.7238" lon="1.95545">
        <ele>113</ele>
        <time>2010-05-13T11:17:59Z</time>
      </trkpt>
      <trkpt lat="48.72378" lon="1.95542">
        <ele>113</ele>
        <time>2010-05-13T11:18:00Z</time>
      </trkpt>
      <trkpt lat="48.72378" lon="1.9554">
        <ele>113</ele>
        <time>2010-05-13T11:18:01Z</time>
      </trkpt>
      <trkpt lat="48.72377" lon="1.95538">
        <ele>113</ele>
        <time>2010-05-13T11:18:02Z</time>
      </trkpt>
      <trkpt lat="48.72377" lon="1.95536">
        <ele>113</ele>
        <time>2010-05-13T11:18:03Z</time>
      </trkpt>
      <trkpt lat="48.72374" lon="1.95533">
        <ele>113</ele>
        <time>2010-05-13T11:18:04Z</time>
      </trkpt>
      <trkpt lat="48.72373" lon="1.95531">
        <ele>113</ele>
        <time>2010-05-13T11:18:05Z</time>
      </trkpt>
      <trkpt lat="48.72373" lon="1.95529">
        <ele>113</ele>
        <time>2010-05-13T11:18:06Z</time>
      </trkpt>
      <trkpt lat="48.72372" lon="1.95526">
        <ele>113</ele>
        <time>2010-05-13T11:18:07Z</time>
      </trkpt>
      <trkpt lat="48.72371" lon="1.95524">
        <ele>113</ele>
        <time>2010-05-13T11:18:08Z</time>
      </trkpt>
      <trkpt lat="48.72371" lon="1.95522">
        <ele>113</ele>
        <time>2010-05-13T11:18:09Z</time>
      </trkpt>
      <trkpt lat="48.7237" lon="1.9552">
        <ele>113</ele>
        <time>2010-05-13T11:18:10Z</time>
      </trkpt>
      <trkpt lat="48.72369" lon="1.95518">
        <ele>113</ele>
        <time>2010-05-13T11:18:11Z</time>
      </trkpt>
      <trkpt lat="48.72368" lon="1.95516">
        <ele>113</ele>
        <time>2010-05-13T11:18:12Z</time>
      </trkpt>
      <trkpt lat="48.72367" lon="1.95514">
        <ele>113</ele>
        <time>2010-05-13T11:18:13Z</time>
      </trkpt>
      <trkpt lat="48.72366" lon="1.95512">
        <ele>113</ele>
        <time>2010-05-13T11:18:14Z</time>
      </trkpt>
      <trkpt lat="48.72366" lon="1.9551">
        <ele>113</ele>
        <time>2010-05-13T11:18:15Z</time>
      </trkpt>
      <trkpt lat="48.72365" lon="1.95508">
        <ele>113</ele>
        <time>2010-05-13T11:18:16Z</time>
      </trkpt>
      <trkpt lat="48.72365" lon="1.95506">
        <ele>113</ele>
        <time>2010-05-13T11:18:17Z</time>
      </trkpt>
      <trkpt lat="48.72364" lon="1.95504">
        <ele>113</ele>
        <time>2010-05-13T11:18:18Z</time>
      </trkpt>
      <trkpt lat="48.72364" lon="1.95502">
        <ele>113</ele>
        <time>2010-05-13T11:18:19Z</time>
      </trkpt>
      <trkpt lat="48.72363" lon="1.955">
        <ele>113</ele>
        <time>2010-05-13T11:18:20Z</time>
      </trkpt>
      <trkpt lat="48.72362" lon="1.95498">
        <ele>113</ele>
        <time>2010-05-13T11:18:21Z</time>
      </trkpt>
      <trkpt lat="48.72362" lon="1.95496">
        <ele>113</ele>
        <time>2010-05-13T11:18:22Z</time>
      </trkpt>
      <trkpt lat="48.72361" lon="1.95494">
        <ele>113</ele>
        <time>2010-05-13T11:18:23Z</time>
      </trkpt>
      <trkpt lat="48.7236" lon="1.95492">
        <ele>113</ele>
        <time>2010-05-13T11:18:24Z</time>
      </trkpt>
      <trkpt lat="48.7236" lon="1.9549">
        <ele>113</ele>
        <time>2010-05-13T11:18:25Z</time>
      </trkpt>
      <trkpt lat="48.72359" lon="1.95488">
        <ele>113</ele>
        <time>2010-05-13T11:18:26Z</time>
      </trkpt>
      <trkpt lat="48.72358" lon="1.95486">
        <ele>113</ele>
        <time>2010-05-13T11:18:27Z</time>
      </trkpt>
      <trkpt lat="48.72358" lon="1.95484">
        <ele>113</ele>
        <time>2010-05-13T11:18:28Z</time>
      </trkpt>
      <trkpt lat="48.72357" lon="1.95482">
        <ele>113</ele>
        <time>2010-05-13T11:18:29Z</time>
      </trkpt>
      <trkpt lat="48.72356" lon="1.9548">
        <ele>113</ele>
        <time>2010-05-13T11:18:30Z</time>
      </trkpt>
      <trkpt lat="48.72356" lon="1.95478">
        <ele>113</ele>
        <time>2010-05-13T11:18:31Z</time>
      </trkpt>
      <trkpt lat="48.72355" lon="1.95476">
        <ele>113</ele>
        <time>2010-05-13T11:18:32Z</time>
      </trkpt>
      <trkpt lat="48.72354" lon="1.95474">
        <ele>113</ele>
        <time>2010-05-13T11:18:33Z</time>
      </trkpt>
      <trkpt lat="48.72354" lon="1.95472">
        <ele>113</ele>
        <time>2010-05-13T11:18:34Z</time>
      </trkpt>
      <trkpt lat="48.72353" lon="1.9547">
        <ele>113</ele>
        <time>2010-05-13T11:18:35Z</time>
      </trkpt>
      <trkpt lat="48.72352" lon="1.95468">
        <ele>113</ele>
        <time>2010-05-13T11:18:36Z</time>
      </trkpt>
      <trkpt lat="48.72352" lon="1.95466">
        <ele>113</ele>
        <time>2010-05-13T11:18:37Z</time>
      </trkpt>
      <trkpt lat="48.72352" lon="1.95464">
        <ele>113</ele>
        <time>2010-05-13T11:18:38Z</time>
      </trkpt>
      <trkpt lat="48.72351" lon="1.95462">
        <ele>113</ele>
        <time>2010-05-13T11:18:39Z</time>
      </trkpt>
      <trkpt lat="48.7235" lon="1.95459">
        <ele>113</ele>
        <time>2010-05-13T11:18:40Z</time>
      </trkpt>
      <trkpt lat="48.72351" lon="1.95457">
        <ele>113</ele>
        <time>2010-05-13T11:18:41Z</time>
      </trkpt>
      <trkpt lat="48.72352" lon="1.95454">
        <ele>113</ele>
        <time>2010-05-13T11:18:42Z</time>
      </trkpt>
      <trkpt lat="48.72352" lon="1.95451">
        <ele>113</ele>
        <time>2010-05-13T11:18:43Z</time>
      </trkpt>
      <trkpt lat="48.72354" lon="1.9545">
        <ele>113</ele>
        <time>2010-05-13T11:18:44Z</time>
      </trkpt>
      <trkpt lat="48.72355" lon="1.95449">
        <ele>113</ele>
        <time>2010-05-13T11:18:45Z</time>
      </trkpt>
      <trkpt lat="48.72357" lon="1.95447">
        <ele>113</ele>
        <time>2010-05-13T11:18:46Z</time>
      </trkpt>
      <trkpt lat="48.72358" lon="1.95446">
        <ele>113</ele>
        <time>2010-05-13T11:18:47Z</time>
      </trkpt>
      <trkpt lat="48.72359" lon="1.95445">
        <ele>113</ele>
        <time>2010-05-13T11:18:48Z</time>
      </trkpt>
      <trkpt lat="48.7236" lon="1.95444">
        <ele>113</ele>
        <time>2010-05-13T11:18:49Z</time>
      </trkpt>
      <trkpt lat="48.72362" lon="1.95442">
        <ele>113</ele>
        <time>2010-05-13T11:18:50Z</time>
      </trkpt>
      <trkpt lat="48.72364" lon="1.95441">
        <ele>113</ele>
        <time>2010-05-13T11:18:51Z</time>
      </trkpt>
      <trkpt lat="48.72365" lon="1.9544">
        <ele>113</ele>
        <time>2010-05-13T11:18:52Z</time>
      </trkpt>
      <trkpt lat="48.72366" lon="1.95437">
        <ele>113</ele>
        <time>2010-05-13T11:18:54Z</time>
      </trkpt>
      <trkpt lat="48.72367" lon="1.95436">
        <ele>113</ele>
        <time>2010-05-13T11:18:55Z</time>
      </trkpt>
      <trkpt lat="48.7237" lon="1.95434">
        <ele>113</ele>
        <time>2010-05-13T11:18:57Z</time>
      </trkpt>
      <trkpt lat="48.72371" lon="1.95433">
        <ele>113</ele>
        <time>2010-05-13T11:18:58Z</time>
      </trkpt>
      <trkpt lat="48.72372" lon="1.95432">
        <ele>113</ele>
        <time>2010-05-13T11:18:59Z</time>
      </trkpt>
      <trkpt lat="48.72374" lon="1.95431">
        <ele>113</ele>
        <time>2010-05-13T11:19:00Z</time>
      </trkpt>
      <trkpt lat="48.72375" lon="1.9543">
        <ele>113</ele>
        <time>2010-05-13T11:19:01Z</time>
      </trkpt>
      <trkpt lat="48.72377" lon="1.95429">
        <ele>113</ele>
        <time>2010-05-13T11:19:02Z</time>
      </trkpt>
      <trkpt lat="48.72378" lon="1.95427">
        <ele>113</ele>
        <time>2010-05-13T11:19:03Z</time>
      </trkpt>
      <trkpt lat="48.7238" lon="1.95426">
        <ele>113</ele>
        <time>2010-05-13T11:19:04Z</time>
      </trkpt>
      <trkpt lat="48.72382" lon="1.95424">
        <ele>113</ele>
        <time>2010-05-13T11:19:05Z</time>
      </trkpt>
      <trkpt lat="48.72385" lon="1.95423">
        <ele>113</ele>
        <time>2010-05-13T11:19:06Z</time>
      </trkpt>
      <trkpt lat="48.72387" lon="1.95422">
        <ele>113</ele>
        <time>2010-05-13T11:19:07Z</time>
      </trkpt>
      <trkpt lat="48.72389" lon="1.9542">
        <ele>113</ele>
        <time>2010-05-13T11:19:08Z</time>
      </trkpt>
      <trkpt lat="48.72391" lon="1.95419">
        <ele>113</ele>
        <time>2010-05-13T11:19:09Z</time>
      </trkpt>
      <trkpt lat="48.72393" lon="1.95418">
        <ele>113</ele>
        <time>2010-05-13T11:19:10Z</time>
      </trkpt>
      <trkpt lat="48.72394" lon="1.95417">
        <ele>113</ele>
        <time>2010-05-13T11:19:11Z</time>
      </trkpt>
      <trkpt lat="48.72396" lon="1.95415">
        <ele>113</ele>
        <time>2010-05-13T11:19:12Z</time>
      </trkpt>
      <trkpt lat="48.72398" lon="1.95414">
        <ele>113</ele>
        <time>2010-05-13T11:19:13Z</time>
      </trkpt>
      <trkpt lat="48.724" lon="1.95412">
        <ele>113</ele>
        <time>2010-05-13T11:19:14Z</time>
      </trkpt>
      <trkpt lat="48.72402" lon="1.95412">
        <ele>113</ele>
        <time>2010-05-13T11:19:15Z</time>
      </trkpt>
      <trkpt lat="48.72404" lon="1.95411">
        <ele>113</ele>
        <time>2010-05-13T11:19:16Z</time>
      </trkpt>
      <trkpt lat="48.72405" lon="1.9541">
        <ele>113</ele>
        <time>2010-05-13T11:19:17Z</time>
      </trkpt>
      <trkpt lat="48.72407" lon="1.95409">
        <ele>113</ele>
        <time>2010-05-13T11:19:18Z</time>
      </trkpt>
      <trkpt lat="48.72409" lon="1.95409">
        <ele>113</ele>
        <time>2010-05-13T11:19:19Z</time>
      </trkpt>
      <trkpt lat="48.7241" lon="1.95408">
        <ele>113</ele>
        <time>2010-05-13T11:19:20Z</time>
      </trkpt>
      <trkpt lat="48.72412" lon="1.95406">
        <ele>113</ele>
        <time>2010-05-13T11:19:21Z</time>
      </trkpt>
      <trkpt lat="48.72413" lon="1.95405">
        <ele>113</ele>
        <time>2010-05-13T11:19:22Z</time>
      </trkpt>
      <trkpt lat="48.72414" lon="1.95404">
        <ele>113</ele>
        <time>2010-05-13T11:19:23Z</time>
      </trkpt>
      <trkpt lat="48.72416" lon="1.95402">
        <ele>113</ele>
        <time>2010-05-13T11:19:24Z</time>
      </trkpt>
      <trkpt lat="48.72417" lon="1.954">
        <ele>113</ele>
        <time>2010-05-13T11:19:25Z</time>
      </trkpt>
      <trkpt lat="48.72418" lon="1.95399">
        <ele>113</ele>
        <time>2010-05-13T11:19:26Z</time>
      </trkpt>
      <trkpt lat="48.7242" lon="1.95398">
        <ele>113</ele>
        <time>2010-05-13T11:19:27Z</time>
      </trkpt>
      <trkpt lat="48.72421" lon="1.95396">
        <ele>113</ele>
        <time>2010-05-13T11:19:28Z</time>
      </trkpt>
      <trkpt lat="48.72423" lon="1.95395">
        <ele>113</ele>
        <time>2010-05-13T11:19:29Z</time>
      </trkpt>
      <trkpt lat="48.72425" lon="1.95393">
        <ele>113</ele>
        <time>2010-05-13T11:19:30Z</time>
      </trkpt>
      <trkpt lat="48.72427" lon="1.95392">
        <ele>113</ele>
        <time>2010-05-13T11:19:31Z</time>
      </trkpt>
      <trkpt lat="48.72429" lon="1.95391">
        <ele>113</ele>
        <time>2010-05-13T11:19:32Z</time>
      </trkpt>
      <trkpt lat="48.7243" lon="1.95389">
        <ele>113</ele>
        <time>2010-05-13T11:19:33Z</time>
      </trkpt>
      <trkpt lat="48.72432" lon="1.95388">
        <ele>113</ele>
        <time>2010-05-13T11:19:34Z</time>
      </trkpt>
      <trkpt lat="48.72434" lon="1.95387">
        <ele>113</ele>
        <time>2010-05-13T11:19:35Z</time>
      </trkpt>
      <trkpt lat="48.72435" lon="1.95386">
        <ele>113</ele>
        <time>2010-05-13T11:19:36Z</time>
      </trkpt>
      <trkpt lat="48.72437" lon="1.95384">
        <ele>113</ele>
        <time>2010-05-13T11:19:38Z</time>
      </trkpt>
      <trkpt lat="48.7244" lon="1.95382">
        <ele>113</ele>
        <time>2010-05-13T11:19:40Z</time>
      </trkpt>
      <trkpt lat="48.72442" lon="1.95381">
        <ele>113</ele>
        <time>2010-05-13T11:19:41Z</time>
      </trkpt>
      <trkpt lat="48.72443" lon="1.9538">
        <ele>113</ele>
        <time>2010-05-13T11:19:42Z</time>
      </trkpt>
      <trkpt lat="48.72445" lon="1.95377">
        <ele>113</ele>
        <time>2010-05-13T11:19:44Z</time>
      </trkpt>
      <trkpt lat="48.72447" lon="1.95376">
        <ele>113</ele>
        <time>2010-05-13T11:19:45Z</time>
      </trkpt>
      <trkpt lat="48.72448" lon="1.95375">
        <ele>113</ele>
        <time>2010-05-13T11:19:46Z</time>
      </trkpt>
      <trkpt lat="48.7245" lon="1.95375">
        <ele>113</ele>
        <time>2010-05-13T11:19:47Z</time>
      </trkpt>
      <trkpt lat="48.72452" lon="1.95373">
        <ele>113</ele>
        <time>2010-05-13T11:19:48Z</time>
      </trkpt>
      <trkpt lat="48.72453" lon="1.95372">
        <ele>113</ele>
        <time>2010-05-13T11:19:49Z</time>
      </trkpt>
      <trkpt lat="48.72454" lon="1.95371">
        <ele>113</ele>
        <time>2010-05-13T11:19:50Z</time>
      </trkpt>
      <trkpt lat="48.72455" lon="1.95369">
        <ele>113</ele>
        <time>2010-05-13T11:19:51Z</time>
      </trkpt>
      <trkpt lat="48.72456" lon="1.95368">
        <ele>113</ele>
        <time>2010-05-13T11:19:52Z</time>
      </trkpt>
      <trkpt lat="48.72458" lon="1.95367">
        <ele>113</ele>
        <time>2010-05-13T11:19:53Z</time>
      </trkpt>
      <trkpt lat="48.72459" lon="1.95366">
        <ele>113</ele>
        <time>2010-05-13T11:19:54Z</time>
      </trkpt>
      <trkpt lat="48.7246" lon="1.95365">
        <ele>113</ele>
        <time>2010-05-13T11:19:55Z</time>
      </trkpt>
      <trkpt lat="48.72461" lon="1.95364">
        <ele>113</ele>
        <time>2010-05-13T11:19:56Z</time>
      </trkpt>
      <trkpt lat="48.72462" lon="1.95362">
        <ele>113</ele>
        <time>2010-05-13T11:19:57Z</time>
      </trkpt>
      <trkpt lat="48.72464" lon="1.95361">
        <ele>113</ele>
        <time>2010-05-13T11:19:58Z</time>
      </trkpt>
      <trkpt lat="48.72466" lon="1.9536">
        <ele>113</ele>
        <time>2010-05-13T11:19:59Z</time>
      </trkpt>
      <trkpt lat="48.72467" lon="1.95359">
        <ele>113</ele>
        <time>2010-05-13T11:20:00Z</time>
      </trkpt>
      <trkpt lat="48.7247" lon="1.95357">
        <ele>113</ele>
        <time>2010-05-13T11:20:02Z</time>
      </trkpt>
      <trkpt lat="48.72471" lon="1.95357">
        <ele>113</ele>
        <time>2010-05-13T11:20:03Z</time>
      </trkpt>
      <trkpt lat="48.72473" lon="1.95356">
        <ele>113</ele>
        <time>2010-05-13T11:20:04Z</time>
      </trkpt>
      <trkpt lat="48.72475" lon="1.95355">
        <ele>113</ele>
        <time>2010-05-13T11:20:05Z</time>
      </trkpt>
      <trkpt lat="48.72476" lon="1.95354">
        <ele>113</ele>
        <time>2010-05-13T11:20:06Z</time>
      </trkpt>
      <trkpt lat="48.72478" lon="1.95353">
        <ele>113</ele>
        <time>2010-05-13T11:20:07Z</time>
      </trkpt>
      <trkpt lat="48.72479" lon="1.95352">
        <ele>113</ele>
        <time>2010-05-13T11:20:08Z</time>
      </trkpt>
      <trkpt lat="48.7248" lon="1.95351">
        <ele>113</ele>
        <time>2010-05-13T11:20:09Z</time>
      </trkpt>
      <trkpt lat="48.72482" lon="1.95351">
        <ele>113</ele>
        <time>2010-05-13T11:20:10Z</time>
      </trkpt>
      <trkpt lat="48.72483" lon="1.9535">
        <ele>113</ele>
        <time>2010-05-13T11:20:11Z</time>
      </trkpt>
      <trkpt lat="48.72484" lon="1.95348">
        <ele>113</ele>
        <time>2010-05-13T11:20:12Z</time>
      </trkpt>
      <trkpt lat="48.72485" lon="1.95347">
        <ele>113</ele>
        <time>2010-05-13T11:20:13Z</time>
      </trkpt>
      <trkpt lat="48.72487" lon="1.95345">
        <ele>113</ele>
        <time>2010-05-13T11:20:15Z</time>
      </trkpt>
      <trkpt lat="48.72489" lon="1.95343">
        <ele>113</ele>
        <time>2010-05-13T11:20:17Z</time>
      </trkpt>
      <trkpt lat="48.72491" lon="1.95342">
        <ele>113</ele>
        <time>2010-05-13T11:20:18Z</time>
      </trkpt>
      <trkpt lat="48.72493" lon="1.95341">
        <ele>113</ele>
        <time>2010-05-13T11:20:19Z</time>
      </trkpt>
      <trkpt lat="48.72495" lon="1.95339">
        <ele>113</ele>
        <time>2010-05-13T11:20:20Z</time>
      </trkpt>
      <trkpt lat="48.72497" lon="1.95337">
        <ele>113</ele>
        <time>2010-05-13T11:20:21Z</time>
      </trkpt>
      <trkpt lat="48.72498" lon="1.95336">
        <ele>113</ele>
        <time>2010-05-13T11:20:22Z</time>
      </trkpt>
      <trkpt lat="48.725" lon="1.95334">
        <ele>113</ele>
        <time>2010-05-13T11:20:23Z</time>
      </trkpt>
      <trkpt lat="48.72501" lon="1.95332">
        <ele>113</ele>
        <time>2010-05-13T11:20:24Z</time>
      </trkpt>
      <trkpt lat="48.72503" lon="1.9533">
        <ele>113</ele>
        <time>2010-05-13T11:20:25Z</time>
      </trkpt>
      <trkpt lat="48.72505" lon="1.95329">
        <ele>113</ele>
        <time>2010-05-13T11:20:26Z</time>
      </trkpt>
      <trkpt lat="48.72507" lon="1.95328">
        <ele>113</ele>
        <time>2010-05-13T11:20:27Z</time>
      </trkpt>
      <trkpt lat="48.72508" lon="1.95326">
        <ele>113</ele>
        <time>2010-05-13T11:20:28Z</time>
      </trkpt>
      <trkpt lat="48.7251" lon="1.95325">
        <ele>113</ele>
        <time>2010-05-13T11:20:29Z</time>
      </trkpt>
      <trkpt lat="48.72511" lon="1.95324">
        <ele>113</ele>
        <time>2010-05-13T11:20:30Z</time>
      </trkpt>
      <trkpt lat="48.72514" lon="1.95321">
        <ele>113</ele>
        <time>2010-05-13T11:20:32Z</time>
      </trkpt>
      <trkpt lat="48.72515" lon="1.9532">
        <ele>113</ele>
        <time>2010-05-13T11:20:33Z</time>
      </trkpt>
      <trkpt lat="48.72516" lon="1.95319">
        <ele>113</ele>
        <time>2010-05-13T11:20:34Z</time>
      </trkpt>
      <trkpt lat="48.72518" lon="1.95318">
        <ele>113</ele>
        <time>2010-05-13T11:20:35Z</time>
      </trkpt>
      <trkpt lat="48.7252" lon="1.95317">
        <ele>113</ele>
        <time>2010-05-13T11:20:36Z</time>
      </trkpt>
      <trkpt lat="48.72521" lon="1.95316">
        <ele>113</ele>
        <time>2010-05-13T11:20:37Z</time>
      </trkpt>
      <trkpt lat="48.72523" lon="1.95314">
        <ele>113</ele>
        <time>2010-05-13T11:20:38Z</time>
      </trkpt>
      <trkpt lat="48.72524" lon="1.95313">
        <ele>113</ele>
        <time>2010-05-13T11:20:39Z</time>
      </trkpt>
      <trkpt lat="48.72526" lon="1.95312">
        <ele>113</ele>
        <time>2010-05-13T11:20:40Z</time>
      </trkpt>
      <trkpt lat="48.72527" lon="1.95311">
        <ele>113</ele>
        <time>2010-05-13T11:20:41Z</time>
      </trkpt>
      <trkpt lat="48.72528" lon="1.9531">
        <ele>113</ele>
        <time>2010-05-13T11:20:42Z</time>
      </trkpt>
      <trkpt lat="48.72529" lon="1.95308">
        <ele>113</ele>
        <time>2010-05-13T11:20:43Z</time>
      </trkpt>
      <trkpt lat="48.7253" lon="1.95307">
        <ele>113</ele>
        <time>2010-05-13T11:20:44Z</time>
      </trkpt>
      <trkpt lat="48.72532" lon="1.95306">
        <ele>113</ele>
        <time>2010-05-13T11:20:45Z</time>
      </trkpt>
      <trkpt lat="48.72534" lon="1.95305">
        <ele>113</ele>
        <time>2010-05-13T11:20:46Z</time>
      </trkpt>
      <trkpt lat="48.72535" lon="1.95304">
        <ele>113</ele>
        <time>2010-05-13T11:20:47Z</time>
      </trkpt>
      <trkpt lat="48.72537" lon="1.95303">
        <ele>113</ele>
        <time>2010-05-13T11:20:48Z</time>
      </trkpt>
      <trkpt lat="48.72539" lon="1.95301">
        <ele>113</ele>
        <time>2010-05-13T11:20:49Z</time>
      </trkpt>
      <trkpt lat="48.72541" lon="1.953">
        <ele>113</ele>
        <time>2010-05-13T11:20:50Z</time>
      </trkpt>
      <trkpt lat="48.72543" lon="1.95298">
        <ele>113</ele>
        <time>2010-05-13T11:20:51Z</time>
      </trkpt>
      <trkpt lat="48.72544" lon="1.95297">
        <ele>113</ele>
        <time>2010-05-13T11:20:52Z</time>
      </trkpt>
      <trkpt lat="48.72545" lon="1.95296">
        <ele>113</ele>
        <time>2010-05-13T11:20:53Z</time>
      </trkpt>
      <trkpt lat="48.72547" lon="1.95295">
        <ele>113</ele>
        <time>2010-05-13T11:20:54Z</time>
      </trkpt>
      <trkpt lat="48.72549" lon="1.95294">
        <ele>113</ele>
        <time>2010-05-13T11:20:55Z</time>
      </trkpt>
      <trkpt lat="48.7255" lon="1.95292">
        <ele>113</ele>
        <time>2010-05-13T11:20:56Z</time>
      </trkpt>
      <trkpt lat="48.72552" lon="1.95291">
        <ele>113</ele>
        <time>2010-05-13T11:20:57Z</time>
      </trkpt>
      <trkpt lat="48.72553" lon="1.95289">
        <ele>113</ele>
        <time>2010-05-13T11:20:58Z</time>
      </trkpt>
      <trkpt lat="48.72555" lon="1.95287">
        <ele>113</ele>
        <time>2010-05-13T11:20:59Z</time>
      </trkpt>
      <trkpt lat="48.72556" lon="1.95285">
        <ele>113</ele>
        <time>2010-05-13T11:21:01Z</time>
      </trkpt>
      <trkpt lat="48.72557" lon="1.95283">
        <ele>113</ele>
        <time>2010-05-13T11:21:03Z</time>
      </trkpt>
      <trkpt lat="48.72559" lon="1.95282">
        <ele>113</ele>
        <time>2010-05-13T11:21:04Z</time>
      </trkpt>
      <trkpt lat="48.7256" lon="1.9528">
        <ele>113</ele>
        <time>2010-05-13T11:21:06Z</time>
      </trkpt>
      <trkpt lat="48.72561" lon="1.95279">
        <ele>113</ele>
        <time>2010-05-13T11:21:07Z</time>
      </trkpt>
      <trkpt lat="48.72562" lon="1.95278">
        <ele>113</ele>
        <time>2010-05-13T11:21:08Z</time>
      </trkpt>
      <trkpt lat="48.72563" lon="1.95277">
        <ele>113</ele>
        <time>2010-05-13T11:21:09Z</time>
      </trkpt>
      <trkpt lat="48.72565" lon="1.95274">
        <ele>113</ele>
        <time>2010-05-13T11:21:11Z</time>
      </trkpt>
      <trkpt lat="48.72567" lon="1.95273">
        <ele>113</ele>
        <time>2010-05-13T11:21:12Z</time>
      </trkpt>
      <trkpt lat="48.72568" lon="1.95272">
        <ele>113</ele>
        <time>2010-05-13T11:21:13Z</time>
      </trkpt>
      <trkpt lat="48.7257" lon="1.9527">
        <ele>113</ele>
        <time>2010-05-13T11:21:14Z</time>
      </trkpt>
      <trkpt lat="48.72571" lon="1.95269">
        <ele>113</ele>
        <time>2010-05-13T11:21:15Z</time>
      </trkpt>
      <trkpt lat="48.72573" lon="1.95268">
        <ele>113</ele>
        <time>2010-05-13T11:21:16Z</time>
      </trkpt>
      <trkpt lat="48.72574" lon="1.95267">
        <ele>113</ele>
        <time>2010-05-13T11:21:17Z</time>
      </trkpt>
      <trkpt lat="48.72576" lon="1.95266">
        <ele>113</ele>
        <time>2010-05-13T11:21:18Z</time>
      </trkpt>
      <trkpt lat="48.72577" lon="1.95265">
        <ele>113</ele>
        <time>2010-05-13T11:21:19Z</time>
      </trkpt>
      <trkpt lat="48.72579" lon="1.95263">
        <ele>113</ele>
        <time>2010-05-13T11:21:21Z</time>
      </trkpt>
      <trkpt lat="48.72581" lon="1.95261">
        <ele>113</ele>
        <time>2010-05-13T11:21:23Z</time>
      </trkpt>
      <trkpt lat="48.72582" lon="1.9526">
        <ele>113</ele>
        <time>2010-05-13T11:21:24Z</time>
      </trkpt>
      <trkpt lat="48.72584" lon="1.95259">
        <ele>113</ele>
        <time>2010-05-13T11:21:25Z</time>
      </trkpt>
      <trkpt lat="48.72585" lon="1.95258">
        <ele>113</ele>
        <time>2010-05-13T11:21:26Z</time>
      </trkpt>
      <trkpt lat="48.72587" lon="1.95257">
        <ele>113</ele>
        <time>2010-05-13T11:21:27Z</time>
      </trkpt>
      <trkpt lat="48.72588" lon="1.95256">
        <ele>113</ele>
        <time>2010-05-13T11:21:28Z</time>
      </trkpt>
      <trkpt lat="48.72589" lon="1.95254">
        <ele>113</ele>
        <time>2010-05-13T11:21:29Z</time>
      </trkpt>
      <trkpt lat="48.72591" lon="1.95254">
        <ele>113</ele>
        <time>2010-05-13T11:21:30Z</time>
      </trkpt>
      <trkpt lat="48.72592" lon="1.95253">
        <ele>113</ele>
        <time>2010-05-13T11:21:31Z</time>
      </trkpt>
      <trkpt lat="48.72594" lon="1.95253">
        <ele>113</ele>
        <time>2010-05-13T11:21:32Z</time>
      </trkpt>
      <trkpt lat="48.72595" lon="1.95252">
        <ele>113</ele>
        <time>2010-05-13T11:21:33Z</time>
      </trkpt>
      <trkpt lat="48.72597" lon="1.95252">
        <ele>113</ele>
        <time>2010-05-13T11:21:34Z</time>
      </trkpt>
      <trkpt lat="48.72599" lon="1.95251">
        <ele>113</ele>
        <time>2010-05-13T11:21:35Z</time>
      </trkpt>
      <trkpt lat="48.726" lon="1.95251">
        <ele>113</ele>
        <time>2010-05-13T11:21:36Z</time>
      </trkpt>
      <trkpt lat="48.72601" lon="1.9525">
        <ele>113</ele>
        <time>2010-05-13T11:21:37Z</time>
      </trkpt>
      <trkpt lat="48.72603" lon="1.9525">
        <ele>113</ele>
        <time>2010-05-13T11:21:38Z</time>
      </trkpt>
      <trkpt lat="48.72604" lon="1.9525">
        <ele>113</ele>
        <time>2010-05-13T11:21:39Z</time>
      </trkpt>
      <trkpt lat="48.72607" lon="1.95249">
        <ele>113</ele>
        <time>2010-05-13T11:21:41Z</time>
      </trkpt>
      <trkpt lat="48.7261" lon="1.95248">
        <ele>113</ele>
        <time>2010-05-13T11:21:43Z</time>
      </trkpt>
      <trkpt lat="48.72612" lon="1.95247">
        <ele>113</ele>
        <time>2010-05-13T11:21:44Z</time>
      </trkpt>
      <trkpt lat="48.72614" lon="1.95246">
        <ele>113</ele>
        <time>2010-05-13T11:21:45Z</time>
      </trkpt>
      <trkpt lat="48.72616" lon="1.95246">
        <ele>113</ele>
        <time>2010-05-13T11:21:46Z</time>
      </trkpt>
      <trkpt lat="48.72618" lon="1.95246">
        <ele>113</ele>
        <time>2010-05-13T11:21:47Z</time>
      </trkpt>
      <trkpt lat="48.7262" lon="1.95246">
        <ele>113</ele>
        <time>2010-05-13T11:21:48Z</time>
      </trkpt>
      <trkpt lat="48.72622" lon="1.95245">
        <ele>113</ele>
        <time>2010-05-13T11:21:49Z</time>
      </trkpt>
      <trkpt lat="48.72625" lon="1.95244">
        <ele>113</ele>
        <time>2010-05-13T11:21:51Z</time>
      </trkpt>
      <trkpt lat="48.72627" lon="1.95243">
        <ele>113</ele>
        <time>2010-05-13T11:21:52Z</time>
      </trkpt>
      <trkpt lat="48.72629" lon="1.95243">
        <ele>113</ele>
        <time>2010-05-13T11:21:53Z</time>
      </trkpt>
      <trkpt lat="48.7263" lon="1.95243">
        <ele>113</ele>
        <time>2010-05-13T11:21:54Z</time>
      </trkpt>
      <trkpt lat="48.72632" lon="1.95243">
        <ele>113</ele>
        <time>2010-05-13T11:21:55Z</time>
      </trkpt>
      <trkpt lat="48.72633" lon="1.95243">
        <ele>113</ele>
        <time>2010-05-13T11:21:56Z</time>
      </trkpt>
      <trkpt lat="48.72635" lon="1.95243">
        <ele>113</ele>
        <time>2010-05-13T11:21:57Z</time>
      </trkpt>
      <trkpt lat="48.72636" lon="1.95243">
        <ele>113</ele>
        <time>2010-05-13T11:21:58Z</time>
      </trkpt>
      <trkpt lat="48.72638" lon="1.95243">
        <ele>113</ele>
        <time>2010-05-13T11:21:59Z</time>
      </trkpt>
      <trkpt lat="48.7264" lon="1.95243">
        <ele>113</ele>
        <time>2010-05-13T11:22:00Z</time>
      </trkpt>
      <trkpt lat="48.72641" lon="1.95242">
        <ele>113</ele>
        <time>2010-05-13T11:22:01Z</time>
      </trkpt>
      <trkpt lat="48.72642" lon="1.95242">
        <ele>113</ele>
        <time>2010-05-13T11:22:02Z</time>
      </trkpt>
      <trkpt lat="48.72644" lon="1.95242">
        <ele>113</ele>
        <time>2010-05-13T11:22:03Z</time>
      </trkpt>
      <trkpt lat="48.72645" lon="1.95241">
        <ele>113</ele>
        <time>2010-05-13T11:22:04Z</time>
      </trkpt>
      <trkpt lat="48.72647" lon="1.9524">
        <ele>113</ele>
        <time>2010-05-13T11:22:05Z</time>
      </trkpt>
      <trkpt lat="48.72648" lon="1.9524">
        <ele>113</ele>
        <time>2010-05-13T11:22:06Z</time>
      </trkpt>
      <trkpt lat="48.7265" lon="1.95239">
        <ele>113</ele>
        <time>2010-05-13T11:22:07Z</time>
      </trkpt>
      <trkpt lat="48.72652" lon="1.95238">
        <ele>113</ele>
        <time>2010-05-13T11:22:08Z</time>
      </trkpt>
      <trkpt lat="48.72654" lon="1.95237">
        <ele>113</ele>
        <time>2010-05-13T11:22:09Z</time>
      </trkpt>
      <trkpt lat="48.72656" lon="1.95236">
        <ele>113</ele>
        <time>2010-05-13T11:22:10Z</time>
      </trkpt>
      <trkpt lat="48.72657" lon="1.95235">
        <ele>113</ele>
        <time>2010-05-13T11:22:11Z</time>
      </trkpt>
      <trkpt lat="48.72659" lon="1.95235">
        <ele>113</ele>
        <time>2010-05-13T11:22:12Z</time>
      </trkpt>
      <trkpt lat="48.7266" lon="1.95233">
        <ele>114</ele>
        <time>2010-05-13T11:22:14Z</time>
      </trkpt>
      <trkpt lat="48.72662" lon="1.95231">
        <ele>114</ele>
        <time>2010-05-13T11:22:16Z</time>
      </trkpt>
      <trkpt lat="48.72664" lon="1.95229">
        <ele>114</ele>
        <time>2010-05-13T11:22:18Z</time>
      </trkpt>
      <trkpt lat="48.72665" lon="1.95228">
        <ele>114</ele>
        <time>2010-05-13T11:22:19Z</time>
      </trkpt>
      <trkpt lat="48.72667" lon="1.95228">
        <ele>115</ele>
        <time>2010-05-13T11:22:20Z</time>
      </trkpt>
      <trkpt lat="48.72669" lon="1.95228">
        <ele>115</ele>
        <time>2010-05-13T11:22:21Z</time>
      </trkpt>
      <trkpt lat="48.72671" lon="1.95227">
        <ele>115</ele>
        <time>2010-05-13T11:22:22Z</time>
      </trkpt>
      <trkpt lat="48.72672" lon="1.95227">
        <ele>115</ele>
        <time>2010-05-13T11:22:23Z</time>
      </trkpt>
      <trkpt lat="48.72673" lon="1.95226">
        <ele>115</ele>
        <time>2010-05-13T11:22:24Z</time>
      </trkpt>
      <trkpt lat="48.72674" lon="1.95226">
        <ele>115</ele>
        <time>2010-05-13T11:22:25Z</time>
      </trkpt>
      <trkpt lat="48.72675" lon="1.95225">
        <ele>115</ele>
        <time>2010-05-13T11:22:26Z</time>
      </trkpt>
      <trkpt lat="48.72678" lon="1.95224">
        <ele>115</ele>
        <time>2010-05-13T11:22:28Z</time>
      </trkpt>
      <trkpt lat="48.7268" lon="1.95223">
        <ele>115</ele>
        <time>2010-05-13T11:22:30Z</time>
      </trkpt>
      <trkpt lat="48.72681" lon="1.95222">
        <ele>115</ele>
        <time>2010-05-13T11:22:31Z</time>
      </trkpt>
      <trkpt lat="48.72682" lon="1.9522">
        <ele>115</ele>
        <time>2010-05-13T11:22:32Z</time>
      </trkpt>
      <trkpt lat="48.72684" lon="1.95219">
        <ele>115</ele>
        <time>2010-05-13T11:22:33Z</time>
      </trkpt>
      <trkpt lat="48.72686" lon="1.95218">
        <ele>115</ele>
        <time>2010-05-13T11:22:34Z</time>
      </trkpt>
      <trkpt lat="48.72687" lon="1.95218">
        <ele>115</ele>
        <time>2010-05-13T11:22:35Z</time>
      </trkpt>
      <trkpt lat="48.7269" lon="1.95217">
        <ele>115</ele>
        <time>2010-05-13T11:22:36Z</time>
      </trkpt>
      <trkpt lat="48.72692" lon="1.95217">
        <ele>115</ele>
        <time>2010-05-13T11:22:37Z</time>
      </trkpt>
      <trkpt lat="48.72693" lon="1.95217">
        <ele>115</ele>
        <time>2010-05-13T11:22:38Z</time>
      </trkpt>
      <trkpt lat="48.72695" lon="1.95216">
        <ele>115</ele>
        <time>2010-05-13T11:22:39Z</time>
      </trkpt>
      <trkpt lat="48.72697" lon="1.95216">
        <ele>115</ele>
        <time>2010-05-13T11:22:40Z</time>
      </trkpt>
      <trkpt lat="48.72698" lon="1.95214">
        <ele>115</ele>
        <time>2010-05-13T11:22:41Z</time>
      </trkpt>
      <trkpt lat="48.727" lon="1.95211">
        <ele>115</ele>
        <time>2010-05-13T11:22:43Z</time>
      </trkpt>
      <trkpt lat="48.72702" lon="1.9521">
        <ele>115</ele>
        <time>2010-05-13T11:22:44Z</time>
      </trkpt>
      <trkpt lat="48.72703" lon="1.9521">
        <ele>115</ele>
        <time>2010-05-13T11:22:45Z</time>
      </trkpt>
      <trkpt lat="48.72705" lon="1.95209">
        <ele>115</ele>
        <time>2010-05-13T11:22:46Z</time>
      </trkpt>
      <trkpt lat="48.72706" lon="1.95208">
        <ele>115</ele>
        <time>2010-05-13T11:22:47Z</time>
      </trkpt>
      <trkpt lat="48.72708" lon="1.95207">
        <ele>115</ele>
        <time>2010-05-13T11:22:48Z</time>
      </trkpt>
      <trkpt lat="48.72709" lon="1.95206">
        <ele>115</ele>
        <time>2010-05-13T11:22:49Z</time>
      </trkpt>
      <trkpt lat="48.72711" lon="1.95205">
        <ele>115</ele>
        <time>2010-05-13T11:22:50Z</time>
      </trkpt>
      <trkpt lat="48.72713" lon="1.95204">
        <ele>115</ele>
        <time>2010-05-13T11:22:51Z</time>
      </trkpt>
      <trkpt lat="48.72714" lon="1.95203">
        <ele>115</ele>
        <time>2010-05-13T11:22:52Z</time>
      </trkpt>
      <trkpt lat="48.72715" lon="1.95203">
        <ele>115</ele>
        <time>2010-05-13T11:22:53Z</time>
      </trkpt>
      <trkpt lat="48.72717" lon="1.95202">
        <ele>115</ele>
        <time>2010-05-13T11:22:54Z</time>
      </trkpt>
      <trkpt lat="48.72719" lon="1.95201">
        <ele>115</ele>
        <time>2010-05-13T11:22:55Z</time>
      </trkpt>
      <trkpt lat="48.7272" lon="1.952">
        <ele>115</ele>
        <time>2010-05-13T11:22:56Z</time>
      </trkpt>
      <trkpt lat="48.72722" lon="1.95199">
        <ele>115</ele>
        <time>2010-05-13T11:22:57Z</time>
      </trkpt>
      <trkpt lat="48.72724" lon="1.95196">
        <ele>115</ele>
        <time>2010-05-13T11:22:59Z</time>
      </trkpt>
      <trkpt lat="48.72726" lon="1.95195">
        <ele>115</ele>
        <time>2010-05-13T11:23:00Z</time>
      </trkpt>
      <trkpt lat="48.72728" lon="1.95194">
        <ele>115</ele>
        <time>2010-05-13T11:23:01Z</time>
      </trkpt>
      <trkpt lat="48.72729" lon="1.95193">
        <ele>115</ele>
        <time>2010-05-13T11:23:02Z</time>
      </trkpt>
      <trkpt lat="48.7273" lon="1.95192">
        <ele>115</ele>
        <time>2010-05-13T11:23:03Z</time>
      </trkpt>
      <trkpt lat="48.72732" lon="1.95191">
        <ele>115</ele>
        <time>2010-05-13T11:23:04Z</time>
      </trkpt>
      <trkpt lat="48.72734" lon="1.95191">
        <ele>115</ele>
        <time>2010-05-13T11:23:05Z</time>
      </trkpt>
      <trkpt lat="48.72736" lon="1.9519">
        <ele>115</ele>
        <time>2010-05-13T11:23:06Z</time>
      </trkpt>
      <trkpt lat="48.72738" lon="1.95189">
        <ele>115</ele>
        <time>2010-05-13T11:23:07Z</time>
      </trkpt>
      <trkpt lat="48.7274" lon="1.95188">
        <ele>115</ele>
        <time>2010-05-13T11:23:08Z</time>
      </trkpt>
      <trkpt lat="48.72742" lon="1.95187">
        <ele>115</ele>
        <time>2010-05-13T11:23:09Z</time>
      </trkpt>
      <trkpt lat="48.72744" lon="1.95186">
        <ele>115</ele>
        <time>2010-05-13T11:23:10Z</time>
      </trkpt>
      <trkpt lat="48.72745" lon="1.95184">
        <ele>115</ele>
        <time>2010-05-13T11:23:12Z</time>
      </trkpt>
      <trkpt lat="48.72747" lon="1.95183">
        <ele>115</ele>
        <time>2010-05-13T11:23:13Z</time>
      </trkpt>
      <trkpt lat="48.72749" lon="1.95182">
        <ele>115</ele>
        <time>2010-05-13T11:23:15Z</time>
      </trkpt>
      <trkpt lat="48.7275" lon="1.95182">
        <ele>115</ele>
        <time>2010-05-13T11:23:16Z</time>
      </trkpt>
      <trkpt lat="48.72752" lon="1.9518">
        <ele>115</ele>
        <time>2010-05-13T11:23:17Z</time>
      </trkpt>
      <trkpt lat="48.72754" lon="1.9518">
        <ele>115</ele>
        <time>2010-05-13T11:23:18Z</time>
      </trkpt>
      <trkpt lat="48.72755" lon="1.95178">
        <ele>115</ele>
        <time>2010-05-13T11:23:19Z</time>
      </trkpt>
      <trkpt lat="48.72757" lon="1.95175">
        <ele>115</ele>
        <time>2010-05-13T11:23:21Z</time>
      </trkpt>
      <trkpt lat="48.72758" lon="1.95174">
        <ele>115</ele>
        <time>2010-05-13T11:23:22Z</time>
      </trkpt>
      <trkpt lat="48.7276" lon="1.95174">
        <ele>115</ele>
        <time>2010-05-13T11:23:23Z</time>
      </trkpt>
      <trkpt lat="48.72761" lon="1.95173">
        <ele>115</ele>
        <time>2010-05-13T11:23:24Z</time>
      </trkpt>
      <trkpt lat="48.72763" lon="1.95171">
        <ele>115</ele>
        <time>2010-05-13T11:23:25Z</time>
      </trkpt>
      <trkpt lat="48.72764" lon="1.9517">
        <ele>115</ele>
        <time>2010-05-13T11:23:26Z</time>
      </trkpt>
      <trkpt lat="48.72766" lon="1.95168">
        <ele>115</ele>
        <time>2010-05-13T11:23:27Z</time>
      </trkpt>
      <trkpt lat="48.72767" lon="1.95166">
        <ele>115</ele>
        <time>2010-05-13T11:23:28Z</time>
      </trkpt>
      <trkpt lat="48.72767" lon="1.95165">
        <ele>115</ele>
        <time>2010-05-13T11:23:29Z</time>
      </trkpt>
      <trkpt lat="48.72769" lon="1.95163">
        <ele>115</ele>
        <time>2010-05-13T11:23:30Z</time>
      </trkpt>
      <trkpt lat="48.72771" lon="1.95162">
        <ele>115</ele>
        <time>2010-05-13T11:23:31Z</time>
      </trkpt>
      <trkpt lat="48.72772" lon="1.9516">
        <ele>115</ele>
        <time>2010-05-13T11:23:32Z</time>
      </trkpt>
      <trkpt lat="48.72774" lon="1.95159">
        <ele>115</ele>
        <time>2010-05-13T11:23:33Z</time>
      </trkpt>
      <trkpt lat="48.72775" lon="1.95158">
        <ele>115</ele>
        <time>2010-05-13T11:23:34Z</time>
      </trkpt>
      <trkpt lat="48.72776" lon="1.95156">
        <ele>115</ele>
        <time>2010-05-13T11:23:35Z</time>
      </trkpt>
      <trkpt lat="48.72779" lon="1.95153">
        <ele>116</ele>
        <time>2010-05-13T11:23:37Z</time>
      </trkpt>
      <trkpt lat="48.7278" lon="1.95153">
        <ele>116</ele>
        <time>2010-05-13T11:23:38Z</time>
      </trkpt>
      <trkpt lat="48.72782" lon="1.95152">
        <ele>116</ele>
        <time>2010-05-13T11:23:39Z</time>
      </trkpt>
      <trkpt lat="48.72785" lon="1.9515">
        <ele>116</ele>
        <time>2010-05-13T11:23:41Z</time>
      </trkpt>
      <trkpt lat="48.72786" lon="1.95148">
        <ele>116</ele>
        <time>2010-05-13T11:23:42Z</time>
      </trkpt>
      <trkpt lat="48.72788" lon="1.95147">
        <ele>116</ele>
        <time>2010-05-13T11:23:43Z</time>
      </trkpt>
      <trkpt lat="48.7279" lon="1.95144">
        <ele>116</ele>
        <time>2010-05-13T11:23:45Z</time>
      </trkpt>
      <trkpt lat="48.72793" lon="1.95142">
        <ele>116</ele>
        <time>2010-05-13T11:23:47Z</time>
      </trkpt>
      <trkpt lat="48.72795" lon="1.95141">
        <ele>116</ele>
        <time>2010-05-13T11:23:48Z</time>
      </trkpt>
      <trkpt lat="48.72796" lon="1.9514">
        <ele>116</ele>
        <time>2010-05-13T11:23:49Z</time>
      </trkpt>
      <trkpt lat="48.72798" lon="1.95139">
        <ele>116</ele>
        <time>2010-05-13T11:23:50Z</time>
      </trkpt>
      <trkpt lat="48.72799" lon="1.95138">
        <ele>116</ele>
        <time>2010-05-13T11:23:51Z</time>
      </trkpt>
      <trkpt lat="48.72801" lon="1.95138">
        <ele>116</ele>
        <time>2010-05-13T11:23:52Z</time>
      </trkpt>
      <trkpt lat="48.72802" lon="1.95137">
        <ele>116</ele>
        <time>2010-05-13T11:23:53Z</time>
      </trkpt>
      <trkpt lat="48.72804" lon="1.95136">
        <ele>116</ele>
        <time>2010-05-13T11:23:54Z</time>
      </trkpt>
      <trkpt lat="48.72806" lon="1.95135">
        <ele>116</ele>
        <time>2010-05-13T11:23:55Z</time>
      </trkpt>
      <trkpt lat="48.72807" lon="1.95134">
        <ele>116</ele>
        <time>2010-05-13T11:23:56Z</time>
      </trkpt>
      <trkpt lat="48.72809" lon="1.95134">
        <ele>116</ele>
        <time>2010-05-13T11:23:57Z</time>
      </trkpt>
      <trkpt lat="48.7281" lon="1.95134">
        <ele>116</ele>
        <time>2010-05-13T11:23:58Z</time>
      </trkpt>
      <trkpt lat="48.72812" lon="1.95133">
        <ele>116</ele>
        <time>2010-05-13T11:23:59Z</time>
      </trkpt>
      <trkpt lat="48.72813" lon="1.95132">
        <ele>116</ele>
        <time>2010-05-13T11:24:00Z</time>
      </trkpt>
      <trkpt lat="48.72815" lon="1.95131">
        <ele>116</ele>
        <time>2010-05-13T11:24:01Z</time>
      </trkpt>
      <trkpt lat="48.72816" lon="1.9513">
        <ele>116</ele>
        <time>2010-05-13T11:24:02Z</time>
      </trkpt>
      <trkpt lat="48.72817" lon="1.95129">
        <ele>116</ele>
        <time>2010-05-13T11:24:03Z</time>
      </trkpt>
      <trkpt lat="48.72819" lon="1.95127">
        <ele>116</ele>
        <time>2010-05-13T11:24:04Z</time>
      </trkpt>
      <trkpt lat="48.7282" lon="1.95126">
        <ele>116</ele>
        <time>2010-05-13T11:24:05Z</time>
      </trkpt>
      <trkpt lat="48.72822" lon="1.95124">
        <ele>116</ele>
        <time>2010-05-13T11:24:06Z</time>
      </trkpt>
      <trkpt lat="48.72823" lon="1.95123">
        <ele>116</ele>
        <time>2010-05-13T11:24:07Z</time>
      </trkpt>
      <trkpt lat="48.72825" lon="1.95122">
        <ele>116</ele>
        <time>2010-05-13T11:24:08Z</time>
      </trkpt>
      <trkpt lat="48.72827" lon="1.95121">
        <ele>116</ele>
        <time>2010-05-13T11:24:09Z</time>
      </trkpt>
      <trkpt lat="48.72829" lon="1.9512">
        <ele>116</ele>
        <time>2010-05-13T11:24:10Z</time>
      </trkpt>
      <trkpt lat="48.72831" lon="1.95118">
        <ele>116</ele>
        <time>2010-05-13T11:24:11Z</time>
      </trkpt>
      <trkpt lat="48.72832" lon="1.95117">
        <ele>116</ele>
        <time>2010-05-13T11:24:12Z</time>
      </trkpt>
      <trkpt lat="48.72834" lon="1.95116">
        <ele>116</ele>
        <time>2010-05-13T11:24:13Z</time>
      </trkpt>
      <trkpt lat="48.72835" lon="1.95114">
        <ele>116</ele>
        <time>2010-05-13T11:24:14Z</time>
      </trkpt>
      <trkpt lat="48.72836" lon="1.95113">
        <ele>116</ele>
        <time>2010-05-13T11:24:15Z</time>
      </trkpt>
      <trkpt lat="48.72838" lon="1.95112">
        <ele>116</ele>
        <time>2010-05-13T11:24:16Z</time>
      </trkpt>
      <trkpt lat="48.72839" lon="1.95111">
        <ele>116</ele>
        <time>2010-05-13T11:24:17Z</time>
      </trkpt>
      <trkpt lat="48.72841" lon="1.9511">
        <ele>116</ele>
        <time>2010-05-13T11:24:18Z</time>
      </trkpt>
      <trkpt lat="48.72843" lon="1.95109">
        <ele>116</ele>
        <time>2010-05-13T11:24:19Z</time>
      </trkpt>
      <trkpt lat="48.72844" lon="1.95107">
        <ele>116</ele>
        <time>2010-05-13T11:24:20Z</time>
      </trkpt>
      <trkpt lat="48.72846" lon="1.95106">
        <ele>116</ele>
        <time>2010-05-13T11:24:21Z</time>
      </trkpt>
      <trkpt lat="48.72847" lon="1.95105">
        <ele>116</ele>
        <time>2010-05-13T11:24:22Z</time>
      </trkpt>
      <trkpt lat="48.72849" lon="1.95105">
        <ele>116</ele>
        <time>2010-05-13T11:24:23Z</time>
      </trkpt>
      <trkpt lat="48.7285" lon="1.95104">
        <ele>116</ele>
        <time>2010-05-13T11:24:24Z</time>
      </trkpt>
      <trkpt lat="48.72852" lon="1.95103">
        <ele>116</ele>
        <time>2010-05-13T11:24:25Z</time>
      </trkpt>
      <trkpt lat="48.72854" lon="1.95102">
        <ele>115</ele>
        <time>2010-05-13T11:24:26Z</time>
      </trkpt>
      <trkpt lat="48.72855" lon="1.95101">
        <ele>115</ele>
        <time>2010-05-13T11:24:27Z</time>
      </trkpt>
      <trkpt lat="48.72856" lon="1.95099">
        <ele>114</ele>
        <time>2010-05-13T11:24:28Z</time>
      </trkpt>
      <trkpt lat="48.72857" lon="1.95097">
        <ele>114</ele>
        <time>2010-05-13T11:24:29Z</time>
      </trkpt>
      <trkpt lat="48.72859" lon="1.95095">
        <ele>114</ele>
        <time>2010-05-13T11:24:30Z</time>
      </trkpt>
      <trkpt lat="48.72859" lon="1.95093">
        <ele>114</ele>
        <time>2010-05-13T11:24:31Z</time>
      </trkpt>
      <trkpt lat="48.7286" lon="1.95089">
        <ele>114</ele>
        <time>2010-05-13T11:24:32Z</time>
      </trkpt>
      <trkpt lat="48.72862" lon="1.95087">
        <ele>114</ele>
        <time>2010-05-13T11:24:33Z</time>
      </trkpt>
      <trkpt lat="48.72863" lon="1.95084">
        <ele>114</ele>
        <time>2010-05-13T11:24:34Z</time>
      </trkpt>
      <trkpt lat="48.72864" lon="1.95082">
        <ele>114</ele>
        <time>2010-05-13T11:24:35Z</time>
      </trkpt>
      <trkpt lat="48.72866" lon="1.9508">
        <ele>114</ele>
        <time>2010-05-13T11:24:36Z</time>
      </trkpt>
      <trkpt lat="48.72867" lon="1.95079">
        <ele>114</ele>
        <time>2010-05-13T11:24:37Z</time>
      </trkpt>
      <trkpt lat="48.72869" lon="1.95077">
        <ele>114</ele>
        <time>2010-05-13T11:24:38Z</time>
      </trkpt>
      <trkpt lat="48.72869" lon="1.95075">
        <ele>114</ele>
        <time>2010-05-13T11:24:39Z</time>
      </trkpt>
      <trkpt lat="48.7287" lon="1.95073">
        <ele>114</ele>
        <time>2010-05-13T11:24:40Z</time>
      </trkpt>
      <trkpt lat="48.72871" lon="1.95071">
        <ele>114</ele>
        <time>2010-05-13T11:24:41Z</time>
      </trkpt>
      <trkpt lat="48.72874" lon="1.95068">
        <ele>114</ele>
        <time>2010-05-13T11:24:43Z</time>
      </trkpt>
      <trkpt lat="48.72875" lon="1.95067">
        <ele>115</ele>
        <time>2010-05-13T11:24:44Z</time>
      </trkpt>
      <trkpt lat="48.72877" lon="1.95065">
        <ele>115</ele>
        <time>2010-05-13T11:24:46Z</time>
      </trkpt>
      <trkpt lat="48.72877" lon="1.95063">
        <ele>115</ele>
        <time>2010-05-13T11:24:47Z</time>
      </trkpt>
      <trkpt lat="48.72879" lon="1.95061">
        <ele>115</ele>
        <time>2010-05-13T11:24:49Z</time>
      </trkpt>
      <trkpt lat="48.7288" lon="1.9506">
        <ele>115</ele>
        <time>2010-05-13T11:24:50Z</time>
      </trkpt>
      <trkpt lat="48.72882" lon="1.95059">
        <ele>115</ele>
        <time>2010-05-13T11:24:51Z</time>
      </trkpt>
      <trkpt lat="48.72884" lon="1.95058">
        <ele>115</ele>
        <time>2010-05-13T11:24:52Z</time>
      </trkpt>
      <trkpt lat="48.72885" lon="1.95057">
        <ele>115</ele>
        <time>2010-05-13T11:24:53Z</time>
      </trkpt>
      <trkpt lat="48.72886" lon="1.95056">
        <ele>115</ele>
        <time>2010-05-13T11:24:54Z</time>
      </trkpt>
      <trkpt lat="48.72889" lon="1.95055">
        <ele>115</ele>
        <time>2010-05-13T11:24:56Z</time>
      </trkpt>
      <trkpt lat="48.7289" lon="1.95054">
        <ele>115</ele>
        <time>2010-05-13T11:24:57Z</time>
      </trkpt>
      <trkpt lat="48.72892" lon="1.95053">
        <ele>115</ele>
        <time>2010-05-13T11:24:58Z</time>
      </trkpt>
      <trkpt lat="48.72893" lon="1.95051">
        <ele>115</ele>
        <time>2010-05-13T11:24:59Z</time>
      </trkpt>
      <trkpt lat="48.72895" lon="1.9505">
        <ele>115</ele>
        <time>2010-05-13T11:25:01Z</time>
      </trkpt>
      <trkpt lat="48.72897" lon="1.95049">
        <ele>115</ele>
        <time>2010-05-13T11:25:02Z</time>
      </trkpt>
      <trkpt lat="48.72898" lon="1.95048">
        <ele>115</ele>
        <time>2010-05-13T11:25:03Z</time>
      </trkpt>
      <trkpt lat="48.729" lon="1.95046">
        <ele>115</ele>
        <time>2010-05-13T11:25:05Z</time>
      </trkpt>
      <trkpt lat="48.72901" lon="1.95043">
        <ele>115</ele>
        <time>2010-05-13T11:25:07Z</time>
      </trkpt>
      <trkpt lat="48.72902" lon="1.95041">
        <ele>115</ele>
        <time>2010-05-13T11:25:08Z</time>
      </trkpt>
      <trkpt lat="48.72902" lon="1.95039">
        <ele>115</ele>
        <time>2010-05-13T11:25:09Z</time>
      </trkpt>
      <trkpt lat="48.72903" lon="1.95036">
        <ele>115</ele>
        <time>2010-05-13T11:25:11Z</time>
      </trkpt>
      <trkpt lat="48.72905" lon="1.95034">
        <ele>115</ele>
        <time>2010-05-13T11:25:12Z</time>
      </trkpt>
      <trkpt lat="48.72908" lon="1.95028">
        <ele>115</ele>
        <time>2010-05-13T11:25:16Z</time>
      </trkpt>
      <trkpt lat="48.72909" lon="1.95025">
        <ele>115</ele>
        <time>2010-05-13T11:25:17Z</time>
      </trkpt>
      <trkpt lat="48.72912" lon="1.95022">
        <ele>115</ele>
        <time>2010-05-13T11:25:18Z</time>
      </trkpt>
      <trkpt lat="48.72914" lon="1.95021">
        <ele>116</ele>
        <time>2010-05-13T11:25:19Z</time>
      </trkpt>
      <trkpt lat="48.72915" lon="1.9502">
        <ele>117</ele>
        <time>2010-05-13T11:25:20Z</time>
      </trkpt>
      <trkpt lat="48.72915" lon="1.95018">
        <ele>118</ele>
        <time>2010-05-13T11:25:22Z</time>
      </trkpt>
      <trkpt lat="48.72915" lon="1.95016">
        <ele>119</ele>
        <time>2010-05-13T11:25:24Z</time>
      </trkpt>
      <trkpt lat="48.72916" lon="1.95013">
        <ele>121</ele>
        <time>2010-05-13T11:25:26Z</time>
      </trkpt>
      <trkpt lat="48.72917" lon="1.95011">
        <ele>121</ele>
        <time>2010-05-13T11:25:27Z</time>
      </trkpt>
      <trkpt lat="48.72918" lon="1.95008">
        <ele>121</ele>
        <time>2010-05-13T11:25:28Z</time>
      </trkpt>
      <trkpt lat="48.72919" lon="1.95006">
        <ele>121</ele>
        <time>2010-05-13T11:25:29Z</time>
      </trkpt>
      <trkpt lat="48.72919" lon="1.95005">
        <ele>121</ele>
        <time>2010-05-13T11:25:30Z</time>
      </trkpt>
      <trkpt lat="48.7292" lon="1.95003">
        <ele>121</ele>
        <time>2010-05-13T11:25:31Z</time>
      </trkpt>
      <trkpt lat="48.72921" lon="1.95001">
        <ele>121</ele>
        <time>2010-05-13T11:25:32Z</time>
      </trkpt>
      <trkpt lat="48.72922" lon="1.94999">
        <ele>121</ele>
        <time>2010-05-13T11:25:33Z</time>
      </trkpt>
      <trkpt lat="48.72924" lon="1.94997">
        <ele>121</ele>
        <time>2010-05-13T11:25:35Z</time>
      </trkpt>
      <trkpt lat="48.72925" lon="1.94995">
        <ele>121</ele>
        <time>2010-05-13T11:25:36Z</time>
      </trkpt>
      <trkpt lat="48.72926" lon="1.94993">
        <ele>121</ele>
        <time>2010-05-13T11:25:37Z</time>
      </trkpt>
      <trkpt lat="48.72928" lon="1.94991">
        <ele>121</ele>
        <time>2010-05-13T11:25:38Z</time>
      </trkpt>
      <trkpt lat="48.72929" lon="1.94989">
        <ele>121</ele>
        <time>2010-05-13T11:25:39Z</time>
      </trkpt>
      <trkpt lat="48.7293" lon="1.94987">
        <ele>121</ele>
        <time>2010-05-13T11:25:41Z</time>
      </trkpt>
      <trkpt lat="48.72931" lon="1.94985">
        <ele>121</ele>
        <time>2010-05-13T11:25:42Z</time>
      </trkpt>
      <trkpt lat="48.72931" lon="1.94983">
        <ele>121</ele>
        <time>2010-05-13T11:25:43Z</time>
      </trkpt>
      <trkpt lat="48.72932" lon="1.94981">
        <ele>121</ele>
        <time>2010-05-13T11:25:44Z</time>
      </trkpt>
      <trkpt lat="48.72934" lon="1.94979">
        <ele>121</ele>
        <time>2010-05-13T11:25:46Z</time>
      </trkpt>
      <trkpt lat="48.72936" lon="1.94977">
        <ele>121</ele>
        <time>2010-05-13T11:25:49Z</time>
      </trkpt>
      <trkpt lat="48.72939" lon="1.94972">
        <ele>121</ele>
        <time>2010-05-13T11:25:52Z</time>
      </trkpt>
      <trkpt lat="48.7294" lon="1.94967">
        <ele>121</ele>
        <time>2010-05-13T11:25:53Z</time>
      </trkpt>
      <trkpt lat="48.72941" lon="1.94963">
        <ele>121</ele>
        <time>2010-05-13T11:25:54Z</time>
      </trkpt>
      <trkpt lat="48.72942" lon="1.9496">
        <ele>121</ele>
        <time>2010-05-13T11:25:56Z</time>
      </trkpt>
      <trkpt lat="48.72944" lon="1.94957">
        <ele>121</ele>
        <time>2010-05-13T11:25:58Z</time>
      </trkpt>
      <trkpt lat="48.72945" lon="1.94954">
        <ele>121</ele>
        <time>2010-05-13T11:26:00Z</time>
      </trkpt>
      <trkpt lat="48.72946" lon="1.94953">
        <ele>121</ele>
        <time>2010-05-13T11:26:01Z</time>
      </trkpt>
      <trkpt lat="48.72947" lon="1.94951">
        <ele>121</ele>
        <time>2010-05-13T11:26:02Z</time>
      </trkpt>
      <trkpt lat="48.72948" lon="1.9495">
        <ele>121</ele>
        <time>2010-05-13T11:26:03Z</time>
      </trkpt>
      <trkpt lat="48.7295" lon="1.94948">
        <ele>121</ele>
        <time>2010-05-13T11:26:04Z</time>
      </trkpt>
      <trkpt lat="48.72951" lon="1.94947">
        <ele>121</ele>
        <time>2010-05-13T11:26:05Z</time>
      </trkpt>
      <trkpt lat="48.72954" lon="1.94947">
        <ele>121</ele>
        <time>2010-05-13T11:26:07Z</time>
      </trkpt>
      <trkpt lat="48.72955" lon="1.94944">
        <ele>121</ele>
        <time>2010-05-13T11:26:09Z</time>
      </trkpt>
      <trkpt lat="48.72957" lon="1.94941">
        <ele>121</ele>
        <time>2010-05-13T11:26:11Z</time>
      </trkpt>
      <trkpt lat="48.72958" lon="1.9494">
        <ele>121</ele>
        <time>2010-05-13T11:26:12Z</time>
      </trkpt>
      <trkpt lat="48.7296" lon="1.94938">
        <ele>121</ele>
        <time>2010-05-13T11:26:13Z</time>
      </trkpt>
      <trkpt lat="48.72961" lon="1.94936">
        <ele>121</ele>
        <time>2010-05-13T11:26:14Z</time>
      </trkpt>
      <trkpt lat="48.72963" lon="1.94934">
        <ele>121</ele>
        <time>2010-05-13T11:26:15Z</time>
      </trkpt>
      <trkpt lat="48.72965" lon="1.94933">
        <ele>121</ele>
        <time>2010-05-13T11:26:17Z</time>
      </trkpt>
      <trkpt lat="48.72967" lon="1.94933">
        <ele>120</ele>
        <time>2010-05-13T11:26:18Z</time>
      </trkpt>
      <trkpt lat="48.72969" lon="1.94933">
        <ele>120</ele>
        <time>2010-05-13T11:26:19Z</time>
      </trkpt>
      <trkpt lat="48.72971" lon="1.94933">
        <ele>120</ele>
        <time>2010-05-13T11:26:20Z</time>
      </trkpt>
      <trkpt lat="48.72973" lon="1.94935">
        <ele>120</ele>
        <time>2010-05-13T11:26:21Z</time>
      </trkpt>
      <trkpt lat="48.72975" lon="1.94936">
        <ele>120</ele>
        <time>2010-05-13T11:26:22Z</time>
      </trkpt>
      <trkpt lat="48.72976" lon="1.94938">
        <ele>119</ele>
        <time>2010-05-13T11:26:23Z</time>
      </trkpt>
      <trkpt lat="48.72978" lon="1.9494">
        <ele>119</ele>
        <time>2010-05-13T11:26:24Z</time>
      </trkpt>
      <trkpt lat="48.7298" lon="1.94941">
        <ele>119</ele>
        <time>2010-05-13T11:26:25Z</time>
      </trkpt>
      <trkpt lat="48.72981" lon="1.94942">
        <ele>118</ele>
        <time>2010-05-13T11:26:26Z</time>
      </trkpt>
      <trkpt lat="48.72983" lon="1.94943">
        <ele>118</ele>
        <time>2010-05-13T11:26:27Z</time>
      </trkpt>
      <trkpt lat="48.72984" lon="1.94943">
        <ele>117</ele>
        <time>2010-05-13T11:26:28Z</time>
      </trkpt>
      <trkpt lat="48.72986" lon="1.94943">
        <ele>117</ele>
        <time>2010-05-13T11:26:29Z</time>
      </trkpt>
      <trkpt lat="48.72988" lon="1.94941">
        <ele>117</ele>
        <time>2010-05-13T11:26:32Z</time>
      </trkpt>
      <trkpt lat="48.7299" lon="1.94938">
        <ele>117</ele>
        <time>2010-05-13T11:26:34Z</time>
      </trkpt>
      <trkpt lat="48.72992" lon="1.94935">
        <ele>117</ele>
        <time>2010-05-13T11:26:35Z</time>
      </trkpt>
      <trkpt lat="48.72994" lon="1.94933">
        <ele>117</ele>
        <time>2010-05-13T11:26:36Z</time>
      </trkpt>
      <trkpt lat="48.72996" lon="1.94932">
        <ele>117</ele>
        <time>2010-05-13T11:26:37Z</time>
      </trkpt>
      <trkpt lat="48.72998" lon="1.94929">
        <ele>117</ele>
        <time>2010-05-13T11:26:38Z</time>
      </trkpt>
      <trkpt lat="48.72999" lon="1.94928">
        <ele>117</ele>
        <time>2010-05-13T11:26:39Z</time>
      </trkpt>
      <trkpt lat="48.73001" lon="1.94926">
        <ele>117</ele>
        <time>2010-05-13T11:26:40Z</time>
      </trkpt>
      <trkpt lat="48.73002" lon="1.94924">
        <ele>117</ele>
        <time>2010-05-13T11:26:41Z</time>
      </trkpt>
      <trkpt lat="48.73003" lon="1.94923">
        <ele>117</ele>
        <time>2010-05-13T11:26:42Z</time>
      </trkpt>
      <trkpt lat="48.73004" lon="1.94921">
        <ele>117</ele>
        <time>2010-05-13T11:26:43Z</time>
      </trkpt>
      <trkpt lat="48.73006" lon="1.94919">
        <ele>117</ele>
        <time>2010-05-13T11:26:44Z</time>
      </trkpt>
      <trkpt lat="48.73007" lon="1.94918">
        <ele>117</ele>
        <time>2010-05-13T11:26:45Z</time>
      </trkpt>
      <trkpt lat="48.73008" lon="1.94916">
        <ele>117</ele>
        <time>2010-05-13T11:26:46Z</time>
      </trkpt>
      <trkpt lat="48.7301" lon="1.94913">
        <ele>118</ele>
        <time>2010-05-13T11:26:48Z</time>
      </trkpt>
      <trkpt lat="48.7301" lon="1.9491">
        <ele>118</ele>
        <time>2010-05-13T11:26:49Z</time>
      </trkpt>
      <trkpt lat="48.73012" lon="1.94909">
        <ele>118</ele>
        <time>2010-05-13T11:26:50Z</time>
      </trkpt>
      <trkpt lat="48.73013" lon="1.94906">
        <ele>118</ele>
        <time>2010-05-13T11:26:51Z</time>
      </trkpt>
      <trkpt lat="48.73014" lon="1.94904">
        <ele>118</ele>
        <time>2010-05-13T11:26:52Z</time>
      </trkpt>
      <trkpt lat="48.73016" lon="1.94902">
        <ele>118</ele>
        <time>2010-05-13T11:26:53Z</time>
      </trkpt>
      <trkpt lat="48.73017" lon="1.94901">
        <ele>118</ele>
        <time>2010-05-13T11:26:54Z</time>
      </trkpt>
      <trkpt lat="48.73019" lon="1.94899">
        <ele>118</ele>
        <time>2010-05-13T11:26:55Z</time>
      </trkpt>
      <trkpt lat="48.7302" lon="1.94898">
        <ele>118</ele>
        <time>2010-05-13T11:26:56Z</time>
      </trkpt>
      <trkpt lat="48.73022" lon="1.94896">
        <ele>118</ele>
        <time>2010-05-13T11:26:57Z</time>
      </trkpt>
      <trkpt lat="48.73023" lon="1.94894">
        <ele>118</ele>
        <time>2010-05-13T11:26:58Z</time>
      </trkpt>
      <trkpt lat="48.73025" lon="1.94893">
        <ele>118</ele>
        <time>2010-05-13T11:26:59Z</time>
      </trkpt>
      <trkpt lat="48.73026" lon="1.94891">
        <ele>118</ele>
        <time>2010-05-13T11:27:00Z</time>
      </trkpt>
      <trkpt lat="48.73027" lon="1.94889">
        <ele>118</ele>
        <time>2010-05-13T11:27:01Z</time>
      </trkpt>
      <trkpt lat="48.73029" lon="1.94887">
        <ele>118</ele>
        <time>2010-05-13T11:27:02Z</time>
      </trkpt>
      <trkpt lat="48.7303" lon="1.94886">
        <ele>118</ele>
        <time>2010-05-13T11:27:03Z</time>
      </trkpt>
      <trkpt lat="48.73031" lon="1.94884">
        <ele>118</ele>
        <time>2010-05-13T11:27:04Z</time>
      </trkpt>
      <trkpt lat="48.73033" lon="1.94883">
        <ele>118</ele>
        <time>2010-05-13T11:27:05Z</time>
      </trkpt>
      <trkpt lat="48.73034" lon="1.94881">
        <ele>118</ele>
        <time>2010-05-13T11:27:06Z</time>
      </trkpt>
      <trkpt lat="48.73035" lon="1.94879">
        <ele>118</ele>
        <time>2010-05-13T11:27:07Z</time>
      </trkpt>
      <trkpt lat="48.73036" lon="1.94877">
        <ele>118</ele>
        <time>2010-05-13T11:27:08Z</time>
      </trkpt>
      <trkpt lat="48.73037" lon="1.94875">
        <ele>118</ele>
        <time>2010-05-13T11:27:09Z</time>
      </trkpt>
      <trkpt lat="48.73038" lon="1.94873">
        <ele>118</ele>
        <time>2010-05-13T11:27:10Z</time>
      </trkpt>
      <trkpt lat="48.73039" lon="1.94871">
        <ele>118</ele>
        <time>2010-05-13T11:27:11Z</time>
      </trkpt>
      <trkpt lat="48.7304" lon="1.94869">
        <ele>118</ele>
        <time>2010-05-13T11:27:12Z</time>
      </trkpt>
      <trkpt lat="48.73041" lon="1.94867">
        <ele>118</ele>
        <time>2010-05-13T11:27:13Z</time>
      </trkpt>
      <trkpt lat="48.73042" lon="1.94865">
        <ele>118</ele>
        <time>2010-05-13T11:27:14Z</time>
      </trkpt>
      <trkpt lat="48.73043" lon="1.94863">
        <ele>118</ele>
        <time>2010-05-13T11:27:15Z</time>
      </trkpt>
      <trkpt lat="48.73045" lon="1.94862">
        <ele>118</ele>
        <time>2010-05-13T11:27:16Z</time>
      </trkpt>
      <trkpt lat="48.73046" lon="1.94859">
        <ele>118</ele>
        <time>2010-05-13T11:27:17Z</time>
      </trkpt>
      <trkpt lat="48.73046" lon="1.94857">
        <ele>119</ele>
        <time>2010-05-13T11:27:18Z</time>
      </trkpt>
      <trkpt lat="48.73047" lon="1.94855">
        <ele>119</ele>
        <time>2010-05-13T11:27:19Z</time>
      </trkpt>
      <trkpt lat="48.73048" lon="1.94853">
        <ele>120</ele>
        <time>2010-05-13T11:27:20Z</time>
      </trkpt>
      <trkpt lat="48.73049" lon="1.94852">
        <ele>121</ele>
        <time>2010-05-13T11:27:21Z</time>
      </trkpt>
      <trkpt lat="48.7305" lon="1.9485">
        <ele>121</ele>
        <time>2010-05-13T11:27:22Z</time>
      </trkpt>
      <trkpt lat="48.73052" lon="1.94848">
        <ele>121</ele>
        <time>2010-05-13T11:27:23Z</time>
      </trkpt>
      <trkpt lat="48.73052" lon="1.94846">
        <ele>122</ele>
        <time>2010-05-13T11:27:24Z</time>
      </trkpt>
      <trkpt lat="48.73053" lon="1.94844">
        <ele>122</ele>
        <time>2010-05-13T11:27:25Z</time>
      </trkpt>
      <trkpt lat="48.73054" lon="1.94843">
        <ele>122</ele>
        <time>2010-05-13T11:27:26Z</time>
      </trkpt>
      <trkpt lat="48.73055" lon="1.94841">
        <ele>122</ele>
        <time>2010-05-13T11:27:27Z</time>
      </trkpt>
      <trkpt lat="48.73057" lon="1.9484">
        <ele>122</ele>
        <time>2010-05-13T11:27:28Z</time>
      </trkpt>
      <trkpt lat="48.73058" lon="1.94837">
        <ele>122</ele>
        <time>2010-05-13T11:27:30Z</time>
      </trkpt>
      <trkpt lat="48.7306" lon="1.94834">
        <ele>122</ele>
        <time>2010-05-13T11:27:32Z</time>
      </trkpt>
      <trkpt lat="48.73063" lon="1.94832">
        <ele>122</ele>
        <time>2010-05-13T11:27:34Z</time>
      </trkpt>
      <trkpt lat="48.73064" lon="1.9483">
        <ele>122</ele>
        <time>2010-05-13T11:27:35Z</time>
      </trkpt>
      <trkpt lat="48.73066" lon="1.94829">
        <ele>122</ele>
        <time>2010-05-13T11:27:36Z</time>
      </trkpt>
      <trkpt lat="48.73068" lon="1.94828">
        <ele>122</ele>
        <time>2010-05-13T11:27:37Z</time>
      </trkpt>
      <trkpt lat="48.7307" lon="1.94826">
        <ele>122</ele>
        <time>2010-05-13T11:27:38Z</time>
      </trkpt>
      <trkpt lat="48.73071" lon="1.94825">
        <ele>122</ele>
        <time>2010-05-13T11:27:39Z</time>
      </trkpt>
      <trkpt lat="48.73073" lon="1.94824">
        <ele>122</ele>
        <time>2010-05-13T11:27:40Z</time>
      </trkpt>
      <trkpt lat="48.73074" lon="1.94823">
        <ele>122</ele>
        <time>2010-05-13T11:27:41Z</time>
      </trkpt>
      <trkpt lat="48.73075" lon="1.94821">
        <ele>122</ele>
        <time>2010-05-13T11:27:42Z</time>
      </trkpt>
      <trkpt lat="48.73076" lon="1.9482">
        <ele>122</ele>
        <time>2010-05-13T11:27:43Z</time>
      </trkpt>
      <trkpt lat="48.73078" lon="1.94819">
        <ele>122</ele>
        <time>2010-05-13T11:27:44Z</time>
      </trkpt>
      <trkpt lat="48.7308" lon="1.94816">
        <ele>122</ele>
        <time>2010-05-13T11:27:46Z</time>
      </trkpt>
      <trkpt lat="48.73081" lon="1.94814">
        <ele>122</ele>
        <time>2010-05-13T11:27:47Z</time>
      </trkpt>
      <trkpt lat="48.73082" lon="1.94813">
        <ele>122</ele>
        <time>2010-05-13T11:27:48Z</time>
      </trkpt>
      <trkpt lat="48.73084" lon="1.9481">
        <ele>122</ele>
        <time>2010-05-13T11:27:50Z</time>
      </trkpt>
      <trkpt lat="48.73086" lon="1.94807">
        <ele>122</ele>
        <time>2010-05-13T11:27:52Z</time>
      </trkpt>
      <trkpt lat="48.73088" lon="1.94806">
        <ele>122</ele>
        <time>2010-05-13T11:27:53Z</time>
      </trkpt>
      <trkpt lat="48.73089" lon="1.94804">
        <ele>122</ele>
        <time>2010-05-13T11:27:54Z</time>
      </trkpt>
      <trkpt lat="48.7309" lon="1.94802">
        <ele>122</ele>
        <time>2010-05-13T11:27:55Z</time>
      </trkpt>
      <trkpt lat="48.73091" lon="1.94801">
        <ele>122</ele>
        <time>2010-05-13T11:27:56Z</time>
      </trkpt>
      <trkpt lat="48.73093" lon="1.94799">
        <ele>122</ele>
        <time>2010-05-13T11:27:57Z</time>
      </trkpt>
      <trkpt lat="48.73094" lon="1.94797">
        <ele>122</ele>
        <time>2010-05-13T11:27:58Z</time>
      </trkpt>
      <trkpt lat="48.73095" lon="1.94795">
        <ele>122</ele>
        <time>2010-05-13T11:27:59Z</time>
      </trkpt>
      <trkpt lat="48.73097" lon="1.94793">
        <ele>122</ele>
        <time>2010-05-13T11:28:00Z</time>
      </trkpt>
      <trkpt lat="48.73098" lon="1.94791">
        <ele>122</ele>
        <time>2010-05-13T11:28:01Z</time>
      </trkpt>
      <trkpt lat="48.73099" lon="1.9479">
        <ele>122</ele>
        <time>2010-05-13T11:28:02Z</time>
      </trkpt>
      <trkpt lat="48.731" lon="1.94788">
        <ele>122</ele>
        <time>2010-05-13T11:28:03Z</time>
      </trkpt>
      <trkpt lat="48.73102" lon="1.94787">
        <ele>122</ele>
        <time>2010-05-13T11:28:04Z</time>
      </trkpt>
      <trkpt lat="48.73104" lon="1.94784">
        <ele>122</ele>
        <time>2010-05-13T11:28:06Z</time>
      </trkpt>
      <trkpt lat="48.73106" lon="1.94781">
        <ele>122</ele>
        <time>2010-05-13T11:28:08Z</time>
      </trkpt>
      <trkpt lat="48.73107" lon="1.94779">
        <ele>122</ele>
        <time>2010-05-13T11:28:09Z</time>
      </trkpt>
      <trkpt lat="48.73109" lon="1.94777">
        <ele>122</ele>
        <time>2010-05-13T11:28:11Z</time>
      </trkpt>
      <trkpt lat="48.73111" lon="1.94774">
        <ele>122</ele>
        <time>2010-05-13T11:28:13Z</time>
      </trkpt>
      <trkpt lat="48.73113" lon="1.94772">
        <ele>122</ele>
        <time>2010-05-13T11:28:15Z</time>
      </trkpt>
      <trkpt lat="48.73114" lon="1.9477">
        <ele>122</ele>
        <time>2010-05-13T11:28:16Z</time>
      </trkpt>
      <trkpt lat="48.73115" lon="1.94768">
        <ele>122</ele>
        <time>2010-05-13T11:28:17Z</time>
      </trkpt>
      <trkpt lat="48.73117" lon="1.94766">
        <ele>122</ele>
        <time>2010-05-13T11:28:18Z</time>
      </trkpt>
      <trkpt lat="48.73118" lon="1.94764">
        <ele>122</ele>
        <time>2010-05-13T11:28:19Z</time>
      </trkpt>
      <trkpt lat="48.73119" lon="1.94762">
        <ele>122</ele>
        <time>2010-05-13T11:28:20Z</time>
      </trkpt>
      <trkpt lat="48.73121" lon="1.94761">
        <ele>122</ele>
        <time>2010-05-13T11:28:21Z</time>
      </trkpt>
      <trkpt lat="48.73122" lon="1.94759">
        <ele>122</ele>
        <time>2010-05-13T11:28:22Z</time>
      </trkpt>
      <trkpt lat="48.73123" lon="1.94758">
        <ele>122</ele>
        <time>2010-05-13T11:28:23Z</time>
      </trkpt>
      <trkpt lat="48.73125" lon="1.94755">
        <ele>122</ele>
        <time>2010-05-13T11:28:25Z</time>
      </trkpt>
      <trkpt lat="48.73126" lon="1.94753">
        <ele>122</ele>
        <time>2010-05-13T11:28:26Z</time>
      </trkpt>
      <trkpt lat="48.73129" lon="1.9475">
        <ele>122</ele>
        <time>2010-05-13T11:28:28Z</time>
      </trkpt>
      <trkpt lat="48.7313" lon="1.94749">
        <ele>122</ele>
        <time>2010-05-13T11:28:29Z</time>
      </trkpt>
      <trkpt lat="48.73132" lon="1.94746">
        <ele>122</ele>
        <time>2010-05-13T11:28:31Z</time>
      </trkpt>
      <trkpt lat="48.73133" lon="1.94744">
        <ele>122</ele>
        <time>2010-05-13T11:28:32Z</time>
      </trkpt>
      <trkpt lat="48.73135" lon="1.94742">
        <ele>122</ele>
        <time>2010-05-13T11:28:33Z</time>
      </trkpt>
      <trkpt lat="48.73136" lon="1.94741">
        <ele>122</ele>
        <time>2010-05-13T11:28:34Z</time>
      </trkpt>
      <trkpt lat="48.73137" lon="1.94739">
        <ele>122</ele>
        <time>2010-05-13T11:28:35Z</time>
      </trkpt>
      <trkpt lat="48.73138" lon="1.94738">
        <ele>122</ele>
        <time>2010-05-13T11:28:36Z</time>
      </trkpt>
      <trkpt lat="48.73139" lon="1.94736">
        <ele>122</ele>
        <time>2010-05-13T11:28:37Z</time>
      </trkpt>
      <trkpt lat="48.73141" lon="1.94734">
        <ele>122</ele>
        <time>2010-05-13T11:28:38Z</time>
      </trkpt>
      <trkpt lat="48.73142" lon="1.94733">
        <ele>122</ele>
        <time>2010-05-13T11:28:39Z</time>
      </trkpt>
      <trkpt lat="48.73144" lon="1.9473">
        <ele>122</ele>
        <time>2010-05-13T11:28:41Z</time>
      </trkpt>
      <trkpt lat="48.73146" lon="1.94728">
        <ele>122</ele>
        <time>2010-05-13T11:28:43Z</time>
      </trkpt>
      <trkpt lat="48.73148" lon="1.94725">
        <ele>122</ele>
        <time>2010-05-13T11:28:45Z</time>
      </trkpt>
      <trkpt lat="48.73149" lon="1.94723">
        <ele>122</ele>
        <time>2010-05-13T11:28:46Z</time>
      </trkpt>
      <trkpt lat="48.73151" lon="1.94721">
        <ele>122</ele>
        <time>2010-05-13T11:28:47Z</time>
      </trkpt>
      <trkpt lat="48.73152" lon="1.94719">
        <ele>122</ele>
        <time>2010-05-13T11:28:48Z</time>
      </trkpt>
      <trkpt lat="48.73153" lon="1.94717">
        <ele>122</ele>
        <time>2010-05-13T11:28:49Z</time>
      </trkpt>
      <trkpt lat="48.73155" lon="1.94715">
        <ele>122</ele>
        <time>2010-05-13T11:28:50Z</time>
      </trkpt>
      <trkpt lat="48.73156" lon="1.94714">
        <ele>122</ele>
        <time>2010-05-13T11:28:51Z</time>
      </trkpt>
      <trkpt lat="48.73157" lon="1.94712">
        <ele>122</ele>
        <time>2010-05-13T11:28:52Z</time>
      </trkpt>
      <trkpt lat="48.73159" lon="1.94709">
        <ele>122</ele>
        <time>2010-05-13T11:28:54Z</time>
      </trkpt>
      <trkpt lat="48.7316" lon="1.94708">
        <ele>122</ele>
        <time>2010-05-13T11:28:55Z</time>
      </trkpt>
      <trkpt lat="48.73162" lon="1.94705">
        <ele>122</ele>
        <time>2010-05-13T11:28:57Z</time>
      </trkpt>
      <trkpt lat="48.73164" lon="1.94703">
        <ele>122</ele>
        <time>2010-05-13T11:28:59Z</time>
      </trkpt>
      <trkpt lat="48.73166" lon="1.947">
        <ele>122</ele>
        <time>2010-05-13T11:29:01Z</time>
      </trkpt>
      <trkpt lat="48.73168" lon="1.94697">
        <ele>122</ele>
        <time>2010-05-13T11:29:03Z</time>
      </trkpt>
      <trkpt lat="48.7317" lon="1.94695">
        <ele>122</ele>
        <time>2010-05-13T11:29:05Z</time>
      </trkpt>
      <trkpt lat="48.73172" lon="1.94692">
        <ele>122</ele>
        <time>2010-05-13T11:29:07Z</time>
      </trkpt>
      <trkpt lat="48.73174" lon="1.94689">
        <ele>122</ele>
        <time>2010-05-13T11:29:09Z</time>
      </trkpt>
      <trkpt lat="48.73176" lon="1.94686">
        <ele>122</ele>
        <time>2010-05-13T11:29:11Z</time>
      </trkpt>
      <trkpt lat="48.73178" lon="1.94684">
        <ele>122</ele>
        <time>2010-05-13T11:29:13Z</time>
      </trkpt>
      <trkpt lat="48.7318" lon="1.94681">
        <ele>122</ele>
        <time>2010-05-13T11:29:15Z</time>
      </trkpt>
      <trkpt lat="48.73182" lon="1.94678">
        <ele>122</ele>
        <time>2010-05-13T11:29:17Z</time>
      </trkpt>
      <trkpt lat="48.73184" lon="1.94675">
        <ele>122</ele>
        <time>2010-05-13T11:29:19Z</time>
      </trkpt>
      <trkpt lat="48.73186" lon="1.94672">
        <ele>122</ele>
        <time>2010-05-13T11:29:21Z</time>
      </trkpt>
      <trkpt lat="48.73188" lon="1.9467">
        <ele>122</ele>
        <time>2010-05-13T11:29:23Z</time>
      </trkpt>
      <trkpt lat="48.73189" lon="1.94667">
        <ele>122</ele>
        <time>2010-05-13T11:29:25Z</time>
      </trkpt>
      <trkpt lat="48.73191" lon="1.94665">
        <ele>122</ele>
        <time>2010-05-13T11:29:27Z</time>
      </trkpt>
      <trkpt lat="48.73193" lon="1.94662">
        <ele>122</ele>
        <time>2010-05-13T11:29:29Z</time>
      </trkpt>
      <trkpt lat="48.73195" lon="1.9466">
        <ele>122</ele>
        <time>2010-05-13T11:29:31Z</time>
      </trkpt>
      <trkpt lat="48.73197" lon="1.94657">
        <ele>122</ele>
        <time>2010-05-13T11:29:33Z</time>
      </trkpt>
      <trkpt lat="48.73199" lon="1.94654">
        <ele>122</ele>
        <time>2010-05-13T11:29:35Z</time>
      </trkpt>
      <trkpt lat="48.732" lon="1.94652">
        <ele>122</ele>
        <time>2010-05-13T11:29:37Z</time>
      </trkpt>
      <trkpt lat="48.73202" lon="1.94651">
        <ele>122</ele>
        <time>2010-05-13T11:29:38Z</time>
      </trkpt>
      <trkpt lat="48.73203" lon="1.94648">
        <ele>122</ele>
        <time>2010-05-13T11:29:40Z</time>
      </trkpt>
      <trkpt lat="48.73205" lon="1.94646">
        <ele>122</ele>
        <time>2010-05-13T11:29:42Z</time>
      </trkpt>
      <trkpt lat="48.73207" lon="1.94643">
        <ele>122</ele>
        <time>2010-05-13T11:29:44Z</time>
      </trkpt>
      <trkpt lat="48.73208" lon="1.94641">
        <ele>122</ele>
        <time>2010-05-13T11:29:45Z</time>
      </trkpt>
      <trkpt lat="48.7321" lon="1.94638">
        <ele>122</ele>
        <time>2010-05-13T11:29:47Z</time>
      </trkpt>
      <trkpt lat="48.73212" lon="1.94635">
        <ele>122</ele>
        <time>2010-05-13T11:29:49Z</time>
      </trkpt>
      <trkpt lat="48.73214" lon="1.94632">
        <ele>122</ele>
        <time>2010-05-13T11:29:51Z</time>
      </trkpt>
      <trkpt lat="48.73216" lon="1.94629">
        <ele>122</ele>
        <time>2010-05-13T11:29:53Z</time>
      </trkpt>
      <trkpt lat="48.73218" lon="1.94626">
        <ele>122</ele>
        <time>2010-05-13T11:29:55Z</time>
      </trkpt>
      <trkpt lat="48.73219" lon="1.94625">
        <ele>122</ele>
        <time>2010-05-13T11:29:56Z</time>
      </trkpt>
      <trkpt lat="48.73221" lon="1.94621">
        <ele>122</ele>
        <time>2010-05-13T11:29:58Z</time>
      </trkpt>
      <trkpt lat="48.73222" lon="1.94619">
        <ele>122</ele>
        <time>2010-05-13T11:29:59Z</time>
      </trkpt>
      <trkpt lat="48.73224" lon="1.94617">
        <ele>122</ele>
        <time>2010-05-13T11:30:00Z</time>
      </trkpt>
      <trkpt lat="48.73226" lon="1.94613">
        <ele>122</ele>
        <time>2010-05-13T11:30:01Z</time>
      </trkpt>
      <trkpt lat="48.73228" lon="1.9461">
        <ele>122</ele>
        <time>2010-05-13T11:30:02Z</time>
      </trkpt>
      <trkpt lat="48.7323" lon="1.94606">
        <ele>122</ele>
        <time>2010-05-13T11:30:03Z</time>
      </trkpt>
      <trkpt lat="48.73232" lon="1.94602">
        <ele>122</ele>
        <time>2010-05-13T11:30:04Z</time>
      </trkpt>
      <trkpt lat="48.73234" lon="1.94599">
        <ele>122</ele>
        <time>2010-05-13T11:30:05Z</time>
      </trkpt>
      <trkpt lat="48.73236" lon="1.94595">
        <ele>122</ele>
        <time>2010-05-13T11:30:06Z</time>
      </trkpt>
      <trkpt lat="48.73237" lon="1.94592">
        <ele>122</ele>
        <time>2010-05-13T11:30:07Z</time>
      </trkpt>
      <trkpt lat="48.73238" lon="1.94589">
        <ele>122</ele>
        <time>2010-05-13T11:30:08Z</time>
      </trkpt>
      <trkpt lat="48.73239" lon="1.94586">
        <ele>122</ele>
        <time>2010-05-13T11:30:09Z</time>
      </trkpt>
      <trkpt lat="48.7324" lon="1.94584">
        <ele>122</ele>
        <time>2010-05-13T11:30:10Z</time>
      </trkpt>
      <trkpt lat="48.73241" lon="1.94582">
        <ele>122</ele>
        <time>2010-05-13T11:30:11Z</time>
      </trkpt>
      <trkpt lat="48.73242" lon="1.9458">
        <ele>122</ele>
        <time>2010-05-13T11:30:12Z</time>
      </trkpt>
      <trkpt lat="48.73243" lon="1.94578">
        <ele>122</ele>
        <time>2010-05-13T11:30:13Z</time>
      </trkpt>
      <trkpt lat="48.73244" lon="1.94576">
        <ele>122</ele>
        <time>2010-05-13T11:30:14Z</time>
      </trkpt>
      <trkpt lat="48.73245" lon="1.94575">
        <ele>122</ele>
        <time>2010-05-13T11:30:15Z</time>
      </trkpt>
      <trkpt lat="48.73246" lon="1.94573">
        <ele>122</ele>
        <time>2010-05-13T11:30:16Z</time>
      </trkpt>
      <trkpt lat="48.73247" lon="1.94571">
        <ele>122</ele>
        <time>2010-05-13T11:30:17Z</time>
      </trkpt>
      <trkpt lat="48.73248" lon="1.9457">
        <ele>122</ele>
        <time>2010-05-13T11:30:18Z</time>
      </trkpt>
      <trkpt lat="48.73249" lon="1.94568">
        <ele>122</ele>
        <time>2010-05-13T11:30:19Z</time>
      </trkpt>
      <trkpt lat="48.7325" lon="1.94566">
        <ele>122</ele>
        <time>2010-05-13T11:30:20Z</time>
      </trkpt>
      <trkpt lat="48.73251" lon="1.94565">
        <ele>122</ele>
        <time>2010-05-13T11:30:21Z</time>
      </trkpt>
      <trkpt lat="48.73252" lon="1.94563">
        <ele>122</ele>
        <time>2010-05-13T11:30:22Z</time>
      </trkpt>
      <trkpt lat="48.73253" lon="1.94561">
        <ele>122</ele>
        <time>2010-05-13T11:30:23Z</time>
      </trkpt>
      <trkpt lat="48.73253" lon="1.94559">
        <ele>122</ele>
        <time>2010-05-13T11:30:24Z</time>
      </trkpt>
      <trkpt lat="48.73254" lon="1.94558">
        <ele>122</ele>
        <time>2010-05-13T11:30:25Z</time>
      </trkpt>
      <trkpt lat="48.73255" lon="1.94556">
        <ele>122</ele>
        <time>2010-05-13T11:30:26Z</time>
      </trkpt>
      <trkpt lat="48.73256" lon="1.94554">
        <ele>122</ele>
        <time>2010-05-13T11:30:27Z</time>
      </trkpt>
      <trkpt lat="48.73257" lon="1.94553">
        <ele>122</ele>
        <time>2010-05-13T11:30:28Z</time>
      </trkpt>
      <trkpt lat="48.73258" lon="1.94551">
        <ele>122</ele>
        <time>2010-05-13T11:30:29Z</time>
      </trkpt>
      <trkpt lat="48.73258" lon="1.94549">
        <ele>122</ele>
        <time>2010-05-13T11:30:30Z</time>
      </trkpt>
      <trkpt lat="48.73259" lon="1.94547">
        <ele>122</ele>
        <time>2010-05-13T11:30:31Z</time>
      </trkpt>
      <trkpt lat="48.73259" lon="1.94545">
        <ele>122</ele>
        <time>2010-05-13T11:30:32Z</time>
      </trkpt>
      <trkpt lat="48.7326" lon="1.94543">
        <ele>122</ele>
        <time>2010-05-13T11:30:33Z</time>
      </trkpt>
      <trkpt lat="48.73261" lon="1.94542">
        <ele>122</ele>
        <time>2010-05-13T11:30:34Z</time>
      </trkpt>
      <trkpt lat="48.73262" lon="1.9454">
        <ele>122</ele>
        <time>2010-05-13T11:30:35Z</time>
      </trkpt>
      <trkpt lat="48.73263" lon="1.94538">
        <ele>122</ele>
        <time>2010-05-13T11:30:36Z</time>
      </trkpt>
      <trkpt lat="48.73263" lon="1.94536">
        <ele>122</ele>
        <time>2010-05-13T11:30:37Z</time>
      </trkpt>
      <trkpt lat="48.73264" lon="1.94534">
        <ele>122</ele>
        <time>2010-05-13T11:30:38Z</time>
      </trkpt>
      <trkpt lat="48.73265" lon="1.94532">
        <ele>122</ele>
        <time>2010-05-13T11:30:39Z</time>
      </trkpt>
      <trkpt lat="48.73266" lon="1.94531">
        <ele>122</ele>
        <time>2010-05-13T11:30:40Z</time>
      </trkpt>
      <trkpt lat="48.73266" lon="1.94529">
        <ele>122</ele>
        <time>2010-05-13T11:30:41Z</time>
      </trkpt>
      <trkpt lat="48.73267" lon="1.94527">
        <ele>122</ele>
        <time>2010-05-13T11:30:42Z</time>
      </trkpt>
      <trkpt lat="48.73268" lon="1.94525">
        <ele>122</ele>
        <time>2010-05-13T11:30:43Z</time>
      </trkpt>
      <trkpt lat="48.73269" lon="1.94523">
        <ele>122</ele>
        <time>2010-05-13T11:30:45Z</time>
      </trkpt>
      <trkpt lat="48.7327" lon="1.94523">
        <ele>122</ele>
        <time>2010-05-13T11:30:51Z</time>
      </trkpt>
      <trkpt lat="48.73272" lon="1.94522">
        <ele>122</ele>
        <time>2010-05-13T11:30:53Z</time>
      </trkpt>
      <trkpt lat="48.73273" lon="1.94521">
        <ele>122</ele>
        <time>2010-05-13T11:30:54Z</time>
      </trkpt>
      <trkpt lat="48.73275" lon="1.94521">
        <ele>122</ele>
        <time>2010-05-13T11:30:56Z</time>
      </trkpt>
      <trkpt lat="48.73276" lon="1.94522">
        <ele>121</ele>
        <time>2010-05-13T11:30:58Z</time>
      </trkpt>
      <trkpt lat="48.73277" lon="1.94522">
        <ele>120</ele>
        <time>2010-05-13T11:31:00Z</time>
      </trkpt>
      <trkpt lat="48.73278" lon="1.94523">
        <ele>120</ele>
        <time>2010-05-13T11:31:04Z</time>
      </trkpt>
      <trkpt lat="48.7328" lon="1.94523">
        <ele>120</ele>
        <time>2010-05-13T11:31:06Z</time>
      </trkpt>
      <trkpt lat="48.73282" lon="1.94524">
        <ele>120</ele>
        <time>2010-05-13T11:31:08Z</time>
      </trkpt>
      <trkpt lat="48.73284" lon="1.94525">
        <ele>120</ele>
        <time>2010-05-13T11:31:10Z</time>
      </trkpt>
      <trkpt lat="48.73285" lon="1.94527">
        <ele>119</ele>
        <time>2010-05-13T11:31:13Z</time>
      </trkpt>
      <trkpt lat="48.73286" lon="1.94529">
        <ele>118</ele>
        <time>2010-05-13T11:31:15Z</time>
      </trkpt>
      <trkpt lat="48.73287" lon="1.9453">
        <ele>118</ele>
        <time>2010-05-13T11:31:16Z</time>
      </trkpt>
      <trkpt lat="48.73288" lon="1.94531">
        <ele>117</ele>
        <time>2010-05-13T11:31:19Z</time>
      </trkpt>
      <trkpt lat="48.73289" lon="1.94533">
        <ele>117</ele>
        <time>2010-05-13T11:31:26Z</time>
      </trkpt>
      <trkpt lat="48.7329" lon="1.94534">
        <ele>117</ele>
        <time>2010-05-13T11:31:31Z</time>
      </trkpt>
      <trkpt lat="48.73289" lon="1.94532">
        <ele>117</ele>
        <time>2010-05-13T11:31:35Z</time>
      </trkpt>
      <trkpt lat="48.73288" lon="1.9453">
        <ele>117</ele>
        <time>2010-05-13T11:31:41Z</time>
      </trkpt>
      <trkpt lat="48.73287" lon="1.94528">
        <ele>117</ele>
        <time>2010-05-13T11:31:43Z</time>
      </trkpt>
      <trkpt lat="48.73286" lon="1.94529">
        <ele>118</ele>
        <time>2010-05-13T11:31:47Z</time>
      </trkpt>
      <trkpt lat="48.73284" lon="1.9453">
        <ele>120</ele>
        <time>2010-05-13T11:32:04Z</time>
      </trkpt>
      <trkpt lat="48.73283" lon="1.9453">
        <ele>120</ele>
        <time>2010-05-13T11:32:05Z</time>
      </trkpt>
      <trkpt lat="48.73281" lon="1.9453">
        <ele>120</ele>
        <time>2010-05-13T11:32:07Z</time>
      </trkpt>
      <trkpt lat="48.73283" lon="1.9453">
        <ele>120</ele>
        <time>2010-05-13T11:32:21Z</time>
      </trkpt>
      <trkpt lat="48.73285" lon="1.94531">
        <ele>120</ele>
        <time>2010-05-13T11:32:23Z</time>
      </trkpt>
      <trkpt lat="48.73286" lon="1.94532">
        <ele>120</ele>
        <time>2010-05-13T11:32:24Z</time>
      </trkpt>
      <trkpt lat="48.73287" lon="1.94532">
        <ele>120</ele>
        <time>2010-05-13T11:32:25Z</time>
      </trkpt>
      <trkpt lat="48.73288" lon="1.94533">
        <ele>120</ele>
        <time>2010-05-13T11:32:29Z</time>
      </trkpt>
      <trkpt lat="48.7329" lon="1.94532">
        <ele>119</ele>
        <time>2010-05-13T11:32:33Z</time>
      </trkpt>
      <trkpt lat="48.73291" lon="1.94531">
        <ele>118</ele>
        <time>2010-05-13T11:32:34Z</time>
      </trkpt>
      <trkpt lat="48.73292" lon="1.94531">
        <ele>118</ele>
        <time>2010-05-13T11:32:36Z</time>
      </trkpt>
      <trkpt lat="48.73294" lon="1.94531">
        <ele>118</ele>
        <time>2010-05-13T11:32:38Z</time>
      </trkpt>
      <trkpt lat="48.73295" lon="1.9453">
        <ele>118</ele>
        <time>2010-05-13T11:32:39Z</time>
      </trkpt>
      <trkpt lat="48.73296" lon="1.9453">
        <ele>118</ele>
        <time>2010-05-13T11:32:41Z</time>
      </trkpt>
      <trkpt lat="48.73297" lon="1.94532">
        <ele>118</ele>
        <time>2010-05-13T11:32:43Z</time>
      </trkpt>
      <trkpt lat="48.73298" lon="1.94535">
        <ele>118</ele>
        <time>2010-05-13T11:32:45Z</time>
      </trkpt>
      <trkpt lat="48.73299" lon="1.94537">
        <ele>118</ele>
        <time>2010-05-13T11:32:47Z</time>
      </trkpt>
      <trkpt lat="48.733" lon="1.9454">
        <ele>118</ele>
        <time>2010-05-13T11:32:49Z</time>
      </trkpt>
      <trkpt lat="48.733" lon="1.94541">
        <ele>118</ele>
        <time>2010-05-13T11:32:50Z</time>
      </trkpt>
      <trkpt lat="48.733" lon="1.94543">
        <ele>118</ele>
        <time>2010-05-13T11:32:51Z</time>
      </trkpt>
      <trkpt lat="48.733" lon="1.94545">
        <ele>118</ele>
        <time>2010-05-13T11:32:52Z</time>
      </trkpt>
      <trkpt lat="48.733" lon="1.94547">
        <ele>118</ele>
        <time>2010-05-13T11:32:54Z</time>
      </trkpt>
      <trkpt lat="48.733" lon="1.94549">
        <ele>118</ele>
        <time>2010-05-13T11:32:56Z</time>
      </trkpt>
      <trkpt lat="48.73301" lon="1.94551">
        <ele>117</ele>
        <time>2010-05-13T11:33:00Z</time>
      </trkpt>
      <trkpt lat="48.733" lon="1.94553">
        <ele>116</ele>
        <time>2010-05-13T11:33:02Z</time>
      </trkpt>
      <trkpt lat="48.733" lon="1.94556">
        <ele>116</ele>
        <time>2010-05-13T11:33:05Z</time>
      </trkpt>
      <trkpt lat="48.733" lon="1.94557">
        <ele>116</ele>
        <time>2010-05-13T11:33:08Z</time>
      </trkpt>
      <trkpt lat="48.73299" lon="1.9456">
        <ele>116</ele>
        <time>2010-05-13T11:33:10Z</time>
      </trkpt>
      <trkpt lat="48.73299" lon="1.94562">
        <ele>116</ele>
        <time>2010-05-13T11:33:12Z</time>
      </trkpt>
      <trkpt lat="48.733" lon="1.94564">
        <ele>117</ele>
        <time>2010-05-13T11:33:16Z</time>
      </trkpt>
      <trkpt lat="48.73302" lon="1.94564">
        <ele>119</ele>
        <time>2010-05-13T11:33:18Z</time>
      </trkpt>
      <trkpt lat="48.73303" lon="1.94562">
        <ele>122</ele>
        <time>2010-05-13T11:33:21Z</time>
      </trkpt>
      <trkpt lat="48.73304" lon="1.94559">
        <ele>124</ele>
        <time>2010-05-13T11:33:24Z</time>
      </trkpt>
      <trkpt lat="48.73303" lon="1.94556">
        <ele>124</ele>
        <time>2010-05-13T11:33:25Z</time>
      </trkpt>
      <trkpt lat="48.73303" lon="1.94554">
        <ele>124</ele>
        <time>2010-05-13T11:33:26Z</time>
      </trkpt>
      <trkpt lat="48.73302" lon="1.94552">
        <ele>124</ele>
        <time>2010-05-13T11:33:27Z</time>
      </trkpt>
      <trkpt lat="48.73302" lon="1.9455">
        <ele>124</ele>
        <time>2010-05-13T11:33:28Z</time>
      </trkpt>
      <trkpt lat="48.73302" lon="1.94547">
        <ele>124</ele>
        <time>2010-05-13T11:33:29Z</time>
      </trkpt>
      <trkpt lat="48.73301" lon="1.94545">
        <ele>124</ele>
        <time>2010-05-13T11:33:30Z</time>
      </trkpt>
      <trkpt lat="48.733" lon="1.94543">
        <ele>124</ele>
        <time>2010-05-13T11:33:31Z</time>
      </trkpt>
      <trkpt lat="48.733" lon="1.94541">
        <ele>124</ele>
        <time>2010-05-13T11:33:32Z</time>
      </trkpt>
      <trkpt lat="48.733" lon="1.94538">
        <ele>124</ele>
        <time>2010-05-13T11:33:33Z</time>
      </trkpt>
      <trkpt lat="48.73299" lon="1.94536">
        <ele>124</ele>
        <time>2010-05-13T11:33:34Z</time>
      </trkpt>
      <trkpt lat="48.73297" lon="1.94535">
        <ele>124</ele>
        <time>2010-05-13T11:33:35Z</time>
      </trkpt>
      <trkpt lat="48.73295" lon="1.94534">
        <ele>124</ele>
        <time>2010-05-13T11:33:36Z</time>
      </trkpt>
      <trkpt lat="48.73294" lon="1.94535">
        <ele>124</ele>
        <time>2010-05-13T11:33:37Z</time>
      </trkpt>
      <trkpt lat="48.73292" lon="1.94534">
        <ele>124</ele>
        <time>2010-05-13T11:33:39Z</time>
      </trkpt>
      <trkpt lat="48.73291" lon="1.94534">
        <ele>122</ele>
        <time>2010-05-13T11:33:42Z</time>
      </trkpt>
      <trkpt lat="48.73289" lon="1.94534">
        <ele>122</ele>
        <time>2010-05-13T11:33:43Z</time>
      </trkpt>
      <trkpt lat="48.73287" lon="1.94534">
        <ele>122</ele>
        <time>2010-05-13T11:33:44Z</time>
      </trkpt>
      <trkpt lat="48.73285" lon="1.94533">
        <ele>122</ele>
        <time>2010-05-13T11:33:46Z</time>
      </trkpt>
      <trkpt lat="48.73284" lon="1.94534">
        <ele>122</ele>
        <time>2010-05-13T11:33:47Z</time>
      </trkpt>
      <trkpt lat="48.73282" lon="1.94535">
        <ele>122</ele>
        <time>2010-05-13T11:33:49Z</time>
      </trkpt>
      <trkpt lat="48.73281" lon="1.94535">
        <ele>122</ele>
        <time>2010-05-13T11:33:50Z</time>
      </trkpt>
      <trkpt lat="48.73279" lon="1.94536">
        <ele>122</ele>
        <time>2010-05-13T11:33:52Z</time>
      </trkpt>
      <trkpt lat="48.7328" lon="1.94537">
        <ele>122</ele>
        <time>2010-05-13T11:33:57Z</time>
      </trkpt>
      <trkpt lat="48.73282" lon="1.94538">
        <ele>121</ele>
        <time>2010-05-13T11:34:02Z</time>
      </trkpt>
      <trkpt lat="48.73283" lon="1.94537">
        <ele>121</ele>
        <time>2010-05-13T11:34:07Z</time>
      </trkpt>
      <trkpt lat="48.73284" lon="1.94539">
        <ele>121</ele>
        <time>2010-05-13T11:34:11Z</time>
      </trkpt>
      <trkpt lat="48.73285" lon="1.94541">
        <ele>120</ele>
        <time>2010-05-13T11:34:13Z</time>
      </trkpt>
      <trkpt lat="48.73284" lon="1.9454">
        <ele>120</ele>
        <time>2010-05-13T11:34:17Z</time>
      </trkpt>
      <trkpt lat="48.73282" lon="1.9454">
        <ele>120</ele>
        <time>2010-05-13T11:34:28Z</time>
      </trkpt>
      <trkpt lat="48.73282" lon="1.94542">
        <ele>120</ele>
        <time>2010-05-13T11:34:32Z</time>
      </trkpt>
      <trkpt lat="48.73281" lon="1.94544">
        <ele>120</ele>
        <time>2010-05-13T11:34:34Z</time>
      </trkpt>
      <trkpt lat="48.73281" lon="1.94545">
        <ele>121</ele>
        <time>2010-05-13T11:34:37Z</time>
      </trkpt>
      <trkpt lat="48.73281" lon="1.94543">
        <ele>122</ele>
        <time>2010-05-13T11:34:43Z</time>
      </trkpt>
      <trkpt lat="48.73282" lon="1.94541">
        <ele>122</ele>
        <time>2010-05-13T11:35:02Z</time>
      </trkpt>
      <trkpt lat="48.73281" lon="1.9454">
        <ele>122</ele>
        <time>2010-05-13T11:35:06Z</time>
      </trkpt>
      <trkpt lat="48.73283" lon="1.9454">
        <ele>122</ele>
        <time>2010-05-13T11:35:12Z</time>
      </trkpt>
      <trkpt lat="48.73281" lon="1.9454">
        <ele>121</ele>
        <time>2010-05-13T11:35:15Z</time>
      </trkpt>
      <trkpt lat="48.73282" lon="1.94542">
        <ele>121</ele>
        <time>2010-05-13T11:35:20Z</time>
      </trkpt>
      <trkpt lat="48.73281" lon="1.9454">
        <ele>121</ele>
        <time>2010-05-13T11:35:24Z</time>
      </trkpt>
      <trkpt lat="48.73281" lon="1.94542">
        <ele>121</ele>
        <time>2010-05-13T11:35:29Z</time>
      </trkpt>
      <trkpt lat="48.73279" lon="1.94543">
        <ele>121</ele>
        <time>2010-05-13T11:35:32Z</time>
      </trkpt>
      <trkpt lat="48.7328" lon="1.94545">
        <ele>121</ele>
        <time>2010-05-13T11:35:37Z</time>
      </trkpt>
      <trkpt lat="48.73282" lon="1.94544">
        <ele>121</ele>
        <time>2010-05-13T11:35:39Z</time>
      </trkpt>
      <trkpt lat="48.73284" lon="1.94542">
        <ele>121</ele>
        <time>2010-05-13T11:35:41Z</time>
      </trkpt>
      <trkpt lat="48.73283" lon="1.9454">
        <ele>121</ele>
        <time>2010-05-13T11:35:43Z</time>
      </trkpt>
      <trkpt lat="48.73281" lon="1.94539">
        <ele>121</ele>
        <time>2010-05-13T11:35:48Z</time>
      </trkpt>
      <trkpt lat="48.73281" lon="1.94537">
        <ele>119</ele>
        <time>2010-05-13T11:35:55Z</time>
      </trkpt>
      <trkpt lat="48.73282" lon="1.94535">
        <ele>118</ele>
        <time>2010-05-13T11:35:58Z</time>
      </trkpt>
      <trkpt lat="48.73281" lon="1.94536">
        <ele>116</ele>
        <time>2010-05-13T11:36:09Z</time>
      </trkpt>
      <trkpt lat="48.73283" lon="1.94535">
        <ele>116</ele>
        <time>2010-05-13T11:36:18Z</time>
      </trkpt>
      <trkpt lat="48.73283" lon="1.94532">
        <ele>116</ele>
        <time>2010-05-13T11:36:20Z</time>
      </trkpt>
      <trkpt lat="48.73282" lon="1.94534">
        <ele>116</ele>
        <time>2010-05-13T11:36:28Z</time>
      </trkpt>
      <trkpt lat="48.73281" lon="1.94536">
        <ele>116</ele>
        <time>2010-05-13T11:36:37Z</time>
      </trkpt>
      <trkpt lat="48.73281" lon="1.94538">
        <ele>116</ele>
        <time>2010-05-13T11:36:41Z</time>
      </trkpt>
      <trkpt lat="48.7328" lon="1.94539">
        <ele>114</ele>
        <time>2010-05-13T11:36:49Z</time>
      </trkpt>
      <trkpt lat="48.73279" lon="1.94539">
        <ele>113</ele>
        <time>2010-05-13T11:36:52Z</time>
      </trkpt>
      <trkpt lat="48.73279" lon="1.94542">
        <ele>113</ele>
        <time>2010-05-13T11:36:58Z</time>
      </trkpt>
      <trkpt lat="48.73281" lon="1.94542">
        <ele>113</ele>
        <time>2010-05-13T11:37:00Z</time>
      </trkpt>
      <trkpt lat="48.73282" lon="1.94542">
        <ele>113</ele>
        <time>2010-05-13T11:37:13Z</time>
      </trkpt>
      <trkpt lat="48.73283" lon="1.9454">
        <ele>114</ele>
        <time>2010-05-13T11:37:19Z</time>
      </trkpt>
      <trkpt lat="48.73282" lon="1.9454">
        <ele>116</ele>
        <time>2010-05-13T11:37:28Z</time>
      </trkpt>
      <trkpt lat="48.73281" lon="1.94539">
        <ele>118</ele>
        <time>2010-05-13T11:37:35Z</time>
      </trkpt>
      <trkpt lat="48.73279" lon="1.9454">
        <ele>119</ele>
        <time>2010-05-13T11:37:37Z</time>
      </trkpt>
      <trkpt lat="48.73278" lon="1.94542">
        <ele>119</ele>
        <time>2010-05-13T11:37:39Z</time>
      </trkpt>
      <trkpt lat="48.73279" lon="1.9454">
        <ele>119</ele>
        <time>2010-05-13T11:37:42Z</time>
      </trkpt>
      <trkpt lat="48.73281" lon="1.9454">
        <ele>119</ele>
        <time>2010-05-13T11:37:44Z</time>
      </trkpt>
      <trkpt lat="48.73283" lon="1.9454">
        <ele>119</ele>
        <time>2010-05-13T11:37:46Z</time>
      </trkpt>
      <trkpt lat="48.73283" lon="1.94538">
        <ele>119</ele>
        <time>2010-05-13T11:37:49Z</time>
      </trkpt>
      <trkpt lat="48.73282" lon="1.94539">
        <ele>120</ele>
        <time>2010-05-13T11:38:01Z</time>
      </trkpt>
      <trkpt lat="48.73281" lon="1.9454">
        <ele>120</ele>
        <time>2010-05-13T11:38:10Z</time>
      </trkpt>
      <trkpt lat="48.73279" lon="1.9454">
        <ele>123</ele>
        <time>2010-05-13T11:38:16Z</time>
      </trkpt>
      <trkpt lat="48.7328" lon="1.94541">
        <ele>123</ele>
        <time>2010-05-13T11:38:21Z</time>
      </trkpt>
      <trkpt lat="48.73281" lon="1.94539">
        <ele>123</ele>
        <time>2010-05-13T11:38:25Z</time>
      </trkpt>
      <trkpt lat="48.73282" lon="1.94538">
        <ele>123</ele>
        <time>2010-05-13T11:38:27Z</time>
      </trkpt>
      <trkpt lat="48.73283" lon="1.94535">
        <ele>123</ele>
        <time>2010-05-13T11:38:29Z</time>
      </trkpt>
      <trkpt lat="48.73283" lon="1.94533">
        <ele>123</ele>
        <time>2010-05-13T11:38:30Z</time>
      </trkpt>
      <trkpt lat="48.73283" lon="1.94531">
        <ele>123</ele>
        <time>2010-05-13T11:38:32Z</time>
      </trkpt>
      <trkpt lat="48.73285" lon="1.9453">
        <ele>123</ele>
        <time>2010-05-13T11:38:34Z</time>
      </trkpt>
      <trkpt lat="48.73286" lon="1.9453">
        <ele>123</ele>
        <time>2010-05-13T11:38:36Z</time>
      </trkpt>
      <trkpt lat="48.73286" lon="1.94532">
        <ele>122</ele>
        <time>2010-05-13T11:38:41Z</time>
      </trkpt>
      <trkpt lat="48.73284" lon="1.94533">
        <ele>122</ele>
        <time>2010-05-13T11:38:43Z</time>
      </trkpt>
      <trkpt lat="48.73282" lon="1.94535">
        <ele>121</ele>
        <time>2010-05-13T11:38:45Z</time>
      </trkpt>
      <trkpt lat="48.73282" lon="1.94538">
        <ele>120</ele>
        <time>2010-05-13T11:38:47Z</time>
      </trkpt>
      <trkpt lat="48.73282" lon="1.9454">
        <ele>120</ele>
        <time>2010-05-13T11:38:49Z</time>
      </trkpt>
      <trkpt lat="48.73282" lon="1.94542">
        <ele>120</ele>
        <time>2010-05-13T11:38:52Z</time>
      </trkpt>
      <trkpt lat="48.7328" lon="1.94544">
        <ele>120</ele>
        <time>2010-05-13T11:38:54Z</time>
      </trkpt>
      <trkpt lat="48.73278" lon="1.94546">
        <ele>120</ele>
        <time>2010-05-13T11:38:56Z</time>
      </trkpt>
      <trkpt lat="48.73277" lon="1.94548">
        <ele>120</ele>
        <time>2010-05-13T11:38:58Z</time>
      </trkpt>
      <trkpt lat="48.73278" lon="1.94545">
        <ele>120</ele>
        <time>2010-05-13T11:39:09Z</time>
      </trkpt>
      <trkpt lat="48.73279" lon="1.94543">
        <ele>120</ele>
        <time>2010-05-13T11:39:11Z</time>
      </trkpt>
      <trkpt lat="48.7328" lon="1.94541">
        <ele>120</ele>
        <time>2010-05-13T11:39:13Z</time>
      </trkpt>
      <trkpt lat="48.73282" lon="1.9454">
        <ele>120</ele>
        <time>2010-05-13T11:39:14Z</time>
      </trkpt>
      <trkpt lat="48.73283" lon="1.94538">
        <ele>120</ele>
        <time>2010-05-13T11:39:16Z</time>
      </trkpt>
      <trkpt lat="48.73282" lon="1.94537">
        <ele>120</ele>
        <time>2010-05-13T11:39:31Z</time>
      </trkpt>
      <trkpt lat="48.73281" lon="1.94534">
        <ele>120</ele>
        <time>2010-05-13T11:39:33Z</time>
      </trkpt>
      <trkpt lat="48.7328" lon="1.94531">
        <ele>120</ele>
        <time>2010-05-13T11:39:35Z</time>
      </trkpt>
      <trkpt lat="48.7328" lon="1.9453">
        <ele>120</ele>
        <time>2010-05-13T11:39:36Z</time>
      </trkpt>
      <trkpt lat="48.73279" lon="1.94528">
        <ele>120</ele>
        <time>2010-05-13T11:39:37Z</time>
      </trkpt>
      <trkpt lat="48.73279" lon="1.94526">
        <ele>120</ele>
        <time>2010-05-13T11:39:38Z</time>
      </trkpt>
      <trkpt lat="48.73279" lon="1.94524">
        <ele>120</ele>
        <time>2010-05-13T11:39:39Z</time>
      </trkpt>
      <trkpt lat="48.73277" lon="1.94521">
        <ele>120</ele>
        <time>2010-05-13T11:39:41Z</time>
      </trkpt>
      <trkpt lat="48.73276" lon="1.94519">
        <ele>120</ele>
        <time>2010-05-13T11:39:43Z</time>
      </trkpt>
      <trkpt lat="48.73275" lon="1.94517">
        <ele>120</ele>
        <time>2010-05-13T11:39:45Z</time>
      </trkpt>
      <trkpt lat="48.73274" lon="1.94515">
        <ele>120</ele>
        <time>2010-05-13T11:39:47Z</time>
      </trkpt>
      <trkpt lat="48.73274" lon="1.94513">
        <ele>120</ele>
        <time>2010-05-13T11:39:49Z</time>
      </trkpt>
      <trkpt lat="48.73274" lon="1.94511">
        <ele>120</ele>
        <time>2010-05-13T11:39:52Z</time>
      </trkpt>
      <trkpt lat="48.73273" lon="1.94511">
        <ele>120</ele>
        <time>2010-05-13T11:40:08Z</time>
      </trkpt>
      <trkpt lat="48.73273" lon="1.94513">
        <ele>120</ele>
        <time>2010-05-13T11:40:13Z</time>
      </trkpt>
      <trkpt lat="48.73273" lon="1.94515">
        <ele>120</ele>
        <time>2010-05-13T11:40:15Z</time>
      </trkpt>
      <trkpt lat="48.73273" lon="1.94518">
        <ele>120</ele>
        <time>2010-05-13T11:40:17Z</time>
      </trkpt>
      <trkpt lat="48.73274" lon="1.94519">
        <ele>120</ele>
        <time>2010-05-13T11:40:19Z</time>
      </trkpt>
      <trkpt lat="48.73274" lon="1.94517">
        <ele>120</ele>
        <time>2010-05-13T11:40:33Z</time>
      </trkpt>
      <trkpt lat="48.73274" lon="1.94515">
        <ele>120</ele>
        <time>2010-05-13T11:40:35Z</time>
      </trkpt>
      <trkpt lat="48.73276" lon="1.94514">
        <ele>120</ele>
        <time>2010-05-13T11:40:47Z</time>
      </trkpt>
      <trkpt lat="48.73274" lon="1.94513">
        <ele>120</ele>
        <time>2010-05-13T11:41:00Z</time>
      </trkpt>
      <trkpt lat="48.73274" lon="1.94511">
        <ele>120</ele>
        <time>2010-05-13T11:41:07Z</time>
      </trkpt>
      <trkpt lat="48.73273" lon="1.94509">
        <ele>120</ele>
        <time>2010-05-13T11:41:15Z</time>
      </trkpt>
      <trkpt lat="48.73274" lon="1.94505">
        <ele>120</ele>
        <time>2010-05-13T11:41:16Z</time>
      </trkpt>
      <trkpt lat="48.73274" lon="1.94502">
        <ele>120</ele>
        <time>2010-05-13T11:41:17Z</time>
      </trkpt>
      <trkpt lat="48.73276" lon="1.94501">
        <ele>120</ele>
        <time>2010-05-13T11:41:18Z</time>
      </trkpt>
      <trkpt lat="48.73277" lon="1.94499">
        <ele>120</ele>
        <time>2010-05-13T11:41:19Z</time>
      </trkpt>
      <trkpt lat="48.73279" lon="1.94497">
        <ele>120</ele>
        <time>2010-05-13T11:41:20Z</time>
      </trkpt>
      <trkpt lat="48.73279" lon="1.94495">
        <ele>120</ele>
        <time>2010-05-13T11:41:21Z</time>
      </trkpt>
      <trkpt lat="48.7328" lon="1.94493">
        <ele>120</ele>
        <time>2010-05-13T11:41:22Z</time>
      </trkpt>
      <trkpt lat="48.7328" lon="1.94491">
        <ele>120</ele>
        <time>2010-05-13T11:41:23Z</time>
      </trkpt>
      <trkpt lat="48.73281" lon="1.94489">
        <ele>120</ele>
        <time>2010-05-13T11:41:24Z</time>
      </trkpt>
      <trkpt lat="48.73282" lon="1.94488">
        <ele>120</ele>
        <time>2010-05-13T11:41:25Z</time>
      </trkpt>
      <trkpt lat="48.73283" lon="1.94486">
        <ele>120</ele>
        <time>2010-05-13T11:41:26Z</time>
      </trkpt>
      <trkpt lat="48.73284" lon="1.94484">
        <ele>120</ele>
        <time>2010-05-13T11:41:27Z</time>
      </trkpt>
      <trkpt lat="48.73285" lon="1.94481">
        <ele>120</ele>
        <time>2010-05-13T11:41:29Z</time>
      </trkpt>
      <trkpt lat="48.73286" lon="1.94478">
        <ele>120</ele>
        <time>2010-05-13T11:41:31Z</time>
      </trkpt>
      <trkpt lat="48.73287" lon="1.94475">
        <ele>120</ele>
        <time>2010-05-13T11:41:32Z</time>
      </trkpt>
      <trkpt lat="48.73289" lon="1.94472">
        <ele>120</ele>
        <time>2010-05-13T11:41:33Z</time>
      </trkpt>
      <trkpt lat="48.73289" lon="1.9447">
        <ele>120</ele>
        <time>2010-05-13T11:41:34Z</time>
      </trkpt>
      <trkpt lat="48.7329" lon="1.94469">
        <ele>120</ele>
        <time>2010-05-13T11:41:35Z</time>
      </trkpt>
      <trkpt lat="48.73291" lon="1.94467">
        <ele>120</ele>
        <time>2010-05-13T11:41:36Z</time>
      </trkpt>
      <trkpt lat="48.73291" lon="1.94465">
        <ele>120</ele>
        <time>2010-05-13T11:41:37Z</time>
      </trkpt>
      <trkpt lat="48.73292" lon="1.94463">
        <ele>120</ele>
        <time>2010-05-13T11:41:38Z</time>
      </trkpt>
      <trkpt lat="48.73293" lon="1.94461">
        <ele>120</ele>
        <time>2010-05-13T11:41:39Z</time>
      </trkpt>
      <trkpt lat="48.73293" lon="1.94459">
        <ele>120</ele>
        <time>2010-05-13T11:41:40Z</time>
      </trkpt>
      <trkpt lat="48.73293" lon="1.94456">
        <ele>120</ele>
        <time>2010-05-13T11:41:41Z</time>
      </trkpt>
      <trkpt lat="48.73294" lon="1.94454">
        <ele>120</ele>
        <time>2010-05-13T11:41:42Z</time>
      </trkpt>
      <trkpt lat="48.73295" lon="1.94452">
        <ele>120</ele>
        <time>2010-05-13T11:41:43Z</time>
      </trkpt>
      <trkpt lat="48.73296" lon="1.9445">
        <ele>120</ele>
        <time>2010-05-13T11:41:44Z</time>
      </trkpt>
      <trkpt lat="48.73298" lon="1.94447">
        <ele>120</ele>
        <time>2010-05-13T11:41:46Z</time>
      </trkpt>
      <trkpt lat="48.73298" lon="1.94445">
        <ele>120</ele>
        <time>2010-05-13T11:41:47Z</time>
      </trkpt>
      <trkpt lat="48.73299" lon="1.94443">
        <ele>120</ele>
        <time>2010-05-13T11:41:48Z</time>
      </trkpt>
      <trkpt lat="48.733" lon="1.94441">
        <ele>120</ele>
        <time>2010-05-13T11:41:49Z</time>
      </trkpt>
      <trkpt lat="48.733" lon="1.94439">
        <ele>120</ele>
        <time>2010-05-13T11:41:50Z</time>
      </trkpt>
      <trkpt lat="48.73301" lon="1.94436">
        <ele>120</ele>
        <time>2010-05-13T11:41:51Z</time>
      </trkpt>
      <trkpt lat="48.73302" lon="1.94434">
        <ele>120</ele>
        <time>2010-05-13T11:41:52Z</time>
      </trkpt>
      <trkpt lat="48.73302" lon="1.94431">
        <ele>120</ele>
        <time>2010-05-13T11:41:53Z</time>
      </trkpt>
      <trkpt lat="48.73303" lon="1.94429">
        <ele>120</ele>
        <time>2010-05-13T11:41:54Z</time>
      </trkpt>
      <trkpt lat="48.73304" lon="1.94427">
        <ele>120</ele>
        <time>2010-05-13T11:41:55Z</time>
      </trkpt>
      <trkpt lat="48.73305" lon="1.94426">
        <ele>120</ele>
        <time>2010-05-13T11:41:56Z</time>
      </trkpt>
      <trkpt lat="48.73306" lon="1.94422">
        <ele>120</ele>
        <time>2010-05-13T11:41:58Z</time>
      </trkpt>
      <trkpt lat="48.73308" lon="1.94419">
        <ele>120</ele>
        <time>2010-05-13T11:42:00Z</time>
      </trkpt>
      <trkpt lat="48.73309" lon="1.94417">
        <ele>120</ele>
        <time>2010-05-13T11:42:02Z</time>
      </trkpt>
      <trkpt lat="48.7331" lon="1.94415">
        <ele>120</ele>
        <time>2010-05-13T11:42:03Z</time>
      </trkpt>
      <trkpt lat="48.73311" lon="1.94413">
        <ele>120</ele>
        <time>2010-05-13T11:42:04Z</time>
      </trkpt>
      <trkpt lat="48.73313" lon="1.9441">
        <ele>120</ele>
        <time>2010-05-13T11:42:06Z</time>
      </trkpt>
      <trkpt lat="48.73314" lon="1.94409">
        <ele>120</ele>
        <time>2010-05-13T11:42:07Z</time>
      </trkpt>
      <trkpt lat="48.73316" lon="1.94408">
        <ele>120</ele>
        <time>2010-05-13T11:42:08Z</time>
      </trkpt>
      <trkpt lat="48.73317" lon="1.94406">
        <ele>120</ele>
        <time>2010-05-13T11:42:09Z</time>
      </trkpt>
      <trkpt lat="48.73318" lon="1.94405">
        <ele>120</ele>
        <time>2010-05-13T11:42:10Z</time>
      </trkpt>
      <trkpt lat="48.73319" lon="1.94404">
        <ele>120</ele>
        <time>2010-05-13T11:42:11Z</time>
      </trkpt>
      <trkpt lat="48.73321" lon="1.94402">
        <ele>120</ele>
        <time>2010-05-13T11:42:12Z</time>
      </trkpt>
      <trkpt lat="48.73322" lon="1.94401">
        <ele>120</ele>
        <time>2010-05-13T11:42:13Z</time>
      </trkpt>
      <trkpt lat="48.73323" lon="1.94399">
        <ele>120</ele>
        <time>2010-05-13T11:42:14Z</time>
      </trkpt>
      <trkpt lat="48.73325" lon="1.94396">
        <ele>120</ele>
        <time>2010-05-13T11:42:15Z</time>
      </trkpt>
      <trkpt lat="48.73326" lon="1.94394">
        <ele>120</ele>
        <time>2010-05-13T11:42:16Z</time>
      </trkpt>
      <trkpt lat="48.73328" lon="1.94392">
        <ele>120</ele>
        <time>2010-05-13T11:42:17Z</time>
      </trkpt>
      <trkpt lat="48.73329" lon="1.94389">
        <ele>120</ele>
        <time>2010-05-13T11:42:18Z</time>
      </trkpt>
      <trkpt lat="48.73331" lon="1.94388">
        <ele>120</ele>
        <time>2010-05-13T11:42:19Z</time>
      </trkpt>
      <trkpt lat="48.73332" lon="1.94386">
        <ele>120</ele>
        <time>2010-05-13T11:42:20Z</time>
      </trkpt>
      <trkpt lat="48.73333" lon="1.94384">
        <ele>120</ele>
        <time>2010-05-13T11:42:21Z</time>
      </trkpt>
      <trkpt lat="48.73335" lon="1.94382">
        <ele>120</ele>
        <time>2010-05-13T11:42:22Z</time>
      </trkpt>
      <trkpt lat="48.73336" lon="1.94381">
        <ele>120</ele>
        <time>2010-05-13T11:42:23Z</time>
      </trkpt>
      <trkpt lat="48.73338" lon="1.94378">
        <ele>120</ele>
        <time>2010-05-13T11:42:25Z</time>
      </trkpt>
      <trkpt lat="48.73339" lon="1.94377">
        <ele>120</ele>
        <time>2010-05-13T11:42:26Z</time>
      </trkpt>
      <trkpt lat="48.7334" lon="1.94376">
        <ele>120</ele>
        <time>2010-05-13T11:42:27Z</time>
      </trkpt>
      <trkpt lat="48.73341" lon="1.94375">
        <ele>120</ele>
        <time>2010-05-13T11:42:28Z</time>
      </trkpt>
      <trkpt lat="48.73343" lon="1.94372">
        <ele>120</ele>
        <time>2010-05-13T11:42:30Z</time>
      </trkpt>
      <trkpt lat="48.73344" lon="1.9437">
        <ele>120</ele>
        <time>2010-05-13T11:42:31Z</time>
      </trkpt>
      <trkpt lat="48.73345" lon="1.94368">
        <ele>120</ele>
        <time>2010-05-13T11:42:32Z</time>
      </trkpt>
      <trkpt lat="48.73346" lon="1.94366">
        <ele>120</ele>
        <time>2010-05-13T11:42:33Z</time>
      </trkpt>
      <trkpt lat="48.73347" lon="1.94365">
        <ele>120</ele>
        <time>2010-05-13T11:42:34Z</time>
      </trkpt>
      <trkpt lat="48.73348" lon="1.94363">
        <ele>120</ele>
        <time>2010-05-13T11:42:35Z</time>
      </trkpt>
      <trkpt lat="48.7335" lon="1.9436">
        <ele>120</ele>
        <time>2010-05-13T11:42:37Z</time>
      </trkpt>
      <trkpt lat="48.73352" lon="1.94357">
        <ele>120</ele>
        <time>2010-05-13T11:42:39Z</time>
      </trkpt>
      <trkpt lat="48.73353" lon="1.94356">
        <ele>120</ele>
        <time>2010-05-13T11:42:40Z</time>
      </trkpt>
      <trkpt lat="48.73354" lon="1.94354">
        <ele>120</ele>
        <time>2010-05-13T11:42:41Z</time>
      </trkpt>
      <trkpt lat="48.73355" lon="1.94353">
        <ele>120</ele>
        <time>2010-05-13T11:42:42Z</time>
      </trkpt>
      <trkpt lat="48.73356" lon="1.94351">
        <ele>120</ele>
        <time>2010-05-13T11:42:43Z</time>
      </trkpt>
      <trkpt lat="48.73357" lon="1.94349">
        <ele>120</ele>
        <time>2010-05-13T11:42:44Z</time>
      </trkpt>
      <trkpt lat="48.73358" lon="1.94348">
        <ele>120</ele>
        <time>2010-05-13T11:42:45Z</time>
      </trkpt>
      <trkpt lat="48.7336" lon="1.94345">
        <ele>120</ele>
        <time>2010-05-13T11:42:47Z</time>
      </trkpt>
      <trkpt lat="48.73362" lon="1.94344">
        <ele>120</ele>
        <time>2010-05-13T11:42:48Z</time>
      </trkpt>
      <trkpt lat="48.73363" lon="1.94342">
        <ele>120</ele>
        <time>2010-05-13T11:42:49Z</time>
      </trkpt>
      <trkpt lat="48.73365" lon="1.9434">
        <ele>120</ele>
        <time>2010-05-13T11:42:51Z</time>
      </trkpt>
      <trkpt lat="48.73366" lon="1.94338">
        <ele>120</ele>
        <time>2010-05-13T11:42:52Z</time>
      </trkpt>
      <trkpt lat="48.73367" lon="1.94337">
        <ele>120</ele>
        <time>2010-05-13T11:42:53Z</time>
      </trkpt>
      <trkpt lat="48.73368" lon="1.94336">
        <ele>120</ele>
        <time>2010-05-13T11:42:54Z</time>
      </trkpt>
      <trkpt lat="48.7337" lon="1.94333">
        <ele>120</ele>
        <time>2010-05-13T11:42:56Z</time>
      </trkpt>
      <trkpt lat="48.73372" lon="1.9433">
        <ele>120</ele>
        <time>2010-05-13T11:42:58Z</time>
      </trkpt>
      <trkpt lat="48.73374" lon="1.94329">
        <ele>120</ele>
        <time>2010-05-13T11:42:59Z</time>
      </trkpt>
      <trkpt lat="48.73375" lon="1.94327">
        <ele>120</ele>
        <time>2010-05-13T11:43:00Z</time>
      </trkpt>
      <trkpt lat="48.73377" lon="1.94323">
        <ele>120</ele>
        <time>2010-05-13T11:43:01Z</time>
      </trkpt>
      <trkpt lat="48.73378" lon="1.94318">
        <ele>120</ele>
        <time>2010-05-13T11:43:02Z</time>
      </trkpt>
      <trkpt lat="48.7338" lon="1.94313">
        <ele>120</ele>
        <time>2010-05-13T11:43:03Z</time>
      </trkpt>
      <trkpt lat="48.73383" lon="1.94308">
        <ele>120</ele>
        <time>2010-05-13T11:43:04Z</time>
      </trkpt>
      <trkpt lat="48.73385" lon="1.94304">
        <ele>120</ele>
        <time>2010-05-13T11:43:05Z</time>
      </trkpt>
      <trkpt lat="48.73388" lon="1.943">
        <ele>120</ele>
        <time>2010-05-13T11:43:06Z</time>
      </trkpt>
      <trkpt lat="48.7339" lon="1.94297">
        <ele>120</ele>
        <time>2010-05-13T11:43:07Z</time>
      </trkpt>
      <trkpt lat="48.73393" lon="1.94294">
        <ele>120</ele>
        <time>2010-05-13T11:43:08Z</time>
      </trkpt>
      <trkpt lat="48.73396" lon="1.94291">
        <ele>120</ele>
        <time>2010-05-13T11:43:09Z</time>
      </trkpt>
      <trkpt lat="48.73398" lon="1.94288">
        <ele>120</ele>
        <time>2010-05-13T11:43:10Z</time>
      </trkpt>
      <trkpt lat="48.734" lon="1.94285">
        <ele>120</ele>
        <time>2010-05-13T11:43:11Z</time>
      </trkpt>
      <trkpt lat="48.73401" lon="1.94281">
        <ele>120</ele>
        <time>2010-05-13T11:43:12Z</time>
      </trkpt>
      <trkpt lat="48.73403" lon="1.94278">
        <ele>120</ele>
        <time>2010-05-13T11:43:13Z</time>
      </trkpt>
      <trkpt lat="48.73405" lon="1.94275">
        <ele>120</ele>
        <time>2010-05-13T11:43:14Z</time>
      </trkpt>
      <trkpt lat="48.73407" lon="1.94271">
        <ele>120</ele>
        <time>2010-05-13T11:43:15Z</time>
      </trkpt>
      <trkpt lat="48.73409" lon="1.94267">
        <ele>120</ele>
        <time>2010-05-13T11:43:16Z</time>
      </trkpt>
      <trkpt lat="48.73411" lon="1.94264">
        <ele>120</ele>
        <time>2010-05-13T11:43:17Z</time>
      </trkpt>
      <trkpt lat="48.73412" lon="1.9426">
        <ele>120</ele>
        <time>2010-05-13T11:43:18Z</time>
      </trkpt>
      <trkpt lat="48.73414" lon="1.94257">
        <ele>120</ele>
        <time>2010-05-13T11:43:19Z</time>
      </trkpt>
      <trkpt lat="48.73415" lon="1.94254">
        <ele>120</ele>
        <time>2010-05-13T11:43:20Z</time>
      </trkpt>
      <trkpt lat="48.73416" lon="1.94251">
        <ele>120</ele>
        <time>2010-05-13T11:43:21Z</time>
      </trkpt>
      <trkpt lat="48.73418" lon="1.94249">
        <ele>120</ele>
        <time>2010-05-13T11:43:22Z</time>
      </trkpt>
      <trkpt lat="48.73419" lon="1.94246">
        <ele>120</ele>
        <time>2010-05-13T11:43:23Z</time>
      </trkpt>
      <trkpt lat="48.73421" lon="1.94243">
        <ele>120</ele>
        <time>2010-05-13T11:43:24Z</time>
      </trkpt>
      <trkpt lat="48.73423" lon="1.9424">
        <ele>120</ele>
        <time>2010-05-13T11:43:25Z</time>
      </trkpt>
      <trkpt lat="48.73424" lon="1.94237">
        <ele>120</ele>
        <time>2010-05-13T11:43:26Z</time>
      </trkpt>
      <trkpt lat="48.73426" lon="1.94234">
        <ele>120</ele>
        <time>2010-05-13T11:43:27Z</time>
      </trkpt>
      <trkpt lat="48.73428" lon="1.9423">
        <ele>120</ele>
        <time>2010-05-13T11:43:28Z</time>
      </trkpt>
      <trkpt lat="48.7343" lon="1.94226">
        <ele>120</ele>
        <time>2010-05-13T11:43:29Z</time>
      </trkpt>
      <trkpt lat="48.73432" lon="1.94223">
        <ele>120</ele>
        <time>2010-05-13T11:43:30Z</time>
      </trkpt>
      <trkpt lat="48.73434" lon="1.94219">
        <ele>120</ele>
        <time>2010-05-13T11:43:31Z</time>
      </trkpt>
      <trkpt lat="48.73436" lon="1.94216">
        <ele>120</ele>
        <time>2010-05-13T11:43:32Z</time>
      </trkpt>
      <trkpt lat="48.73437" lon="1.94212">
        <ele>120</ele>
        <time>2010-05-13T11:43:33Z</time>
      </trkpt>
      <trkpt lat="48.73439" lon="1.94209">
        <ele>120</ele>
        <time>2010-05-13T11:43:34Z</time>
      </trkpt>
      <trkpt lat="48.73441" lon="1.94205">
        <ele>120</ele>
        <time>2010-05-13T11:43:35Z</time>
      </trkpt>
      <trkpt lat="48.73442" lon="1.94202">
        <ele>120</ele>
        <time>2010-05-13T11:43:36Z</time>
      </trkpt>
      <trkpt lat="48.73444" lon="1.94199">
        <ele>120</ele>
        <time>2010-05-13T11:43:37Z</time>
      </trkpt>
      <trkpt lat="48.73446" lon="1.94197">
        <ele>120</ele>
        <time>2010-05-13T11:43:38Z</time>
      </trkpt>
      <trkpt lat="48.73447" lon="1.94195">
        <ele>120</ele>
        <time>2010-05-13T11:43:39Z</time>
      </trkpt>
      <trkpt lat="48.73448" lon="1.94193">
        <ele>120</ele>
        <time>2010-05-13T11:43:40Z</time>
      </trkpt>
      <trkpt lat="48.73449" lon="1.94191">
        <ele>120</ele>
        <time>2010-05-13T11:43:41Z</time>
      </trkpt>
      <trkpt lat="48.7345" lon="1.94189">
        <ele>120</ele>
        <time>2010-05-13T11:43:42Z</time>
      </trkpt>
      <trkpt lat="48.7345" lon="1.94187">
        <ele>120</ele>
        <time>2010-05-13T11:43:43Z</time>
      </trkpt>
      <trkpt lat="48.73451" lon="1.94186">
        <ele>120</ele>
        <time>2010-05-13T11:43:44Z</time>
      </trkpt>
      <trkpt lat="48.73452" lon="1.94184">
        <ele>120</ele>
        <time>2010-05-13T11:43:45Z</time>
      </trkpt>
      <trkpt lat="48.73453" lon="1.94182">
        <ele>120</ele>
        <time>2010-05-13T11:43:46Z</time>
      </trkpt>
      <trkpt lat="48.73454" lon="1.9418">
        <ele>120</ele>
        <time>2010-05-13T11:43:47Z</time>
      </trkpt>
      <trkpt lat="48.73455" lon="1.94179">
        <ele>121</ele>
        <time>2010-05-13T11:43:48Z</time>
      </trkpt>
      <trkpt lat="48.73456" lon="1.94177">
        <ele>121</ele>
        <time>2010-05-13T11:43:49Z</time>
      </trkpt>
      <trkpt lat="48.73457" lon="1.94175">
        <ele>121</ele>
        <time>2010-05-13T11:43:50Z</time>
      </trkpt>
      <trkpt lat="48.73458" lon="1.94173">
        <ele>121</ele>
        <time>2010-05-13T11:43:51Z</time>
      </trkpt>
      <trkpt lat="48.73459" lon="1.94172">
        <ele>121</ele>
        <time>2010-05-13T11:43:52Z</time>
      </trkpt>
      <trkpt lat="48.7346" lon="1.9417">
        <ele>121</ele>
        <time>2010-05-13T11:43:53Z</time>
      </trkpt>
      <trkpt lat="48.73461" lon="1.94168">
        <ele>121</ele>
        <time>2010-05-13T11:43:54Z</time>
      </trkpt>
      <trkpt lat="48.73463" lon="1.94165">
        <ele>121</ele>
        <time>2010-05-13T11:43:55Z</time>
      </trkpt>
      <trkpt lat="48.73464" lon="1.94162">
        <ele>121</ele>
        <time>2010-05-13T11:43:56Z</time>
      </trkpt>
      <trkpt lat="48.73466" lon="1.94158">
        <ele>121</ele>
        <time>2010-05-13T11:43:57Z</time>
      </trkpt>
      <trkpt lat="48.73468" lon="1.94153">
        <ele>121</ele>
        <time>2010-05-13T11:43:58Z</time>
      </trkpt>
      <trkpt lat="48.73471" lon="1.94149">
        <ele>121</ele>
        <time>2010-05-13T11:43:59Z</time>
      </trkpt>
      <trkpt lat="48.73474" lon="1.94145">
        <ele>121</ele>
        <time>2010-05-13T11:44:00Z</time>
      </trkpt>
      <trkpt lat="48.73476" lon="1.94141">
        <ele>122</ele>
        <time>2010-05-13T11:44:01Z</time>
      </trkpt>
      <trkpt lat="48.73479" lon="1.94137">
        <ele>122</ele>
        <time>2010-05-13T11:44:02Z</time>
      </trkpt>
      <trkpt lat="48.73481" lon="1.94134">
        <ele>122</ele>
        <time>2010-05-13T11:44:03Z</time>
      </trkpt>
      <trkpt lat="48.73483" lon="1.94131">
        <ele>122</ele>
        <time>2010-05-13T11:44:04Z</time>
      </trkpt>
      <trkpt lat="48.73485" lon="1.94128">
        <ele>122</ele>
        <time>2010-05-13T11:44:05Z</time>
      </trkpt>
      <trkpt lat="48.73487" lon="1.94124">
        <ele>122</ele>
        <time>2010-05-13T11:44:06Z</time>
      </trkpt>
      <trkpt lat="48.7349" lon="1.94121">
        <ele>122</ele>
        <time>2010-05-13T11:44:07Z</time>
      </trkpt>
      <trkpt lat="48.73492" lon="1.94117">
        <ele>122</ele>
        <time>2010-05-13T11:44:08Z</time>
      </trkpt>
      <trkpt lat="48.73494" lon="1.94113">
        <ele>123</ele>
        <time>2010-05-13T11:44:09Z</time>
      </trkpt>
      <trkpt lat="48.73497" lon="1.94109">
        <ele>123</ele>
        <time>2010-05-13T11:44:10Z</time>
      </trkpt>
      <trkpt lat="48.735" lon="1.94104">
        <ele>123</ele>
        <time>2010-05-13T11:44:11Z</time>
      </trkpt>
      <trkpt lat="48.73503" lon="1.941">
        <ele>124</ele>
        <time>2010-05-13T11:44:12Z</time>
      </trkpt>
      <trkpt lat="48.73506" lon="1.94096">
        <ele>124</ele>
        <time>2010-05-13T11:44:13Z</time>
      </trkpt>
      <trkpt lat="48.73508" lon="1.94092">
        <ele>125</ele>
        <time>2010-05-13T11:44:14Z</time>
      </trkpt>
      <trkpt lat="48.73511" lon="1.94088">
        <ele>125</ele>
        <time>2010-05-13T11:44:15Z</time>
      </trkpt>
      <trkpt lat="48.73513" lon="1.94084">
        <ele>126</ele>
        <time>2010-05-13T11:44:16Z</time>
      </trkpt>
      <trkpt lat="48.73516" lon="1.9408">
        <ele>126</ele>
        <time>2010-05-13T11:44:17Z</time>
      </trkpt>
      <trkpt lat="48.73519" lon="1.94076">
        <ele>126</ele>
        <time>2010-05-13T11:44:18Z</time>
      </trkpt>
      <trkpt lat="48.73521" lon="1.94072">
        <ele>127</ele>
        <time>2010-05-13T11:44:19Z</time>
      </trkpt>
      <trkpt lat="48.73524" lon="1.94068">
        <ele>127</ele>
        <time>2010-05-13T11:44:20Z</time>
      </trkpt>
      <trkpt lat="48.73526" lon="1.94065">
        <ele>127</ele>
        <time>2010-05-13T11:44:21Z</time>
      </trkpt>
      <trkpt lat="48.73529" lon="1.94062">
        <ele>127</ele>
        <time>2010-05-13T11:44:22Z</time>
      </trkpt>
      <trkpt lat="48.73531" lon="1.94059">
        <ele>127</ele>
        <time>2010-05-13T11:44:23Z</time>
      </trkpt>
      <trkpt lat="48.73534" lon="1.94055">
        <ele>127</ele>
        <time>2010-05-13T11:44:24Z</time>
      </trkpt>
      <trkpt lat="48.73537" lon="1.94052">
        <ele>127</ele>
        <time>2010-05-13T11:44:25Z</time>
      </trkpt>
      <trkpt lat="48.7354" lon="1.94048">
        <ele>127</ele>
        <time>2010-05-13T11:44:26Z</time>
      </trkpt>
      <trkpt lat="48.73543" lon="1.94044">
        <ele>127</ele>
        <time>2010-05-13T11:44:27Z</time>
      </trkpt>
      <trkpt lat="48.73545" lon="1.94041">
        <ele>127</ele>
        <time>2010-05-13T11:44:28Z</time>
      </trkpt>
      <trkpt lat="48.73548" lon="1.94037">
        <ele>127</ele>
        <time>2010-05-13T11:44:29Z</time>
      </trkpt>
      <trkpt lat="48.7355" lon="1.94034">
        <ele>127</ele>
        <time>2010-05-13T11:44:30Z</time>
      </trkpt>
      <trkpt lat="48.73552" lon="1.94031">
        <ele>127</ele>
        <time>2010-05-13T11:44:31Z</time>
      </trkpt>
      <trkpt lat="48.73555" lon="1.94028">
        <ele>127</ele>
        <time>2010-05-13T11:44:32Z</time>
      </trkpt>
      <trkpt lat="48.73558" lon="1.94025">
        <ele>127</ele>
        <time>2010-05-13T11:44:33Z</time>
      </trkpt>
      <trkpt lat="48.7356" lon="1.94022">
        <ele>127</ele>
        <time>2010-05-13T11:44:34Z</time>
      </trkpt>
      <trkpt lat="48.73562" lon="1.9402">
        <ele>127</ele>
        <time>2010-05-13T11:44:35Z</time>
      </trkpt>
      <trkpt lat="48.73564" lon="1.94018">
        <ele>127</ele>
        <time>2010-05-13T11:44:36Z</time>
      </trkpt>
      <trkpt lat="48.73565" lon="1.94016">
        <ele>127</ele>
        <time>2010-05-13T11:44:37Z</time>
      </trkpt>
      <trkpt lat="48.73567" lon="1.94015">
        <ele>127</ele>
        <time>2010-05-13T11:44:38Z</time>
      </trkpt>
      <trkpt lat="48.73568" lon="1.94013">
        <ele>127</ele>
        <time>2010-05-13T11:44:39Z</time>
      </trkpt>
      <trkpt lat="48.73569" lon="1.94012">
        <ele>127</ele>
        <time>2010-05-13T11:44:40Z</time>
      </trkpt>
      <trkpt lat="48.73571" lon="1.9401">
        <ele>127</ele>
        <time>2010-05-13T11:44:41Z</time>
      </trkpt>
      <trkpt lat="48.73572" lon="1.94009">
        <ele>127</ele>
        <time>2010-05-13T11:44:42Z</time>
      </trkpt>
      <trkpt lat="48.73573" lon="1.94007">
        <ele>127</ele>
        <time>2010-05-13T11:44:43Z</time>
      </trkpt>
      <trkpt lat="48.73575" lon="1.94006">
        <ele>127</ele>
        <time>2010-05-13T11:44:44Z</time>
      </trkpt>
      <trkpt lat="48.73576" lon="1.94004">
        <ele>127</ele>
        <time>2010-05-13T11:44:45Z</time>
      </trkpt>
      <trkpt lat="48.73578" lon="1.94002">
        <ele>127</ele>
        <time>2010-05-13T11:44:46Z</time>
      </trkpt>
      <trkpt lat="48.73579" lon="1.94">
        <ele>127</ele>
        <time>2010-05-13T11:44:47Z</time>
      </trkpt>
      <trkpt lat="48.73581" lon="1.93998">
        <ele>127</ele>
        <time>2010-05-13T11:44:48Z</time>
      </trkpt>
      <trkpt lat="48.73583" lon="1.93994">
        <ele>127</ele>
        <time>2010-05-13T11:44:49Z</time>
      </trkpt>
      <trkpt lat="48.73586" lon="1.93991">
        <ele>127</ele>
        <time>2010-05-13T11:44:50Z</time>
      </trkpt>
      <trkpt lat="48.73588" lon="1.93987">
        <ele>127</ele>
        <time>2010-05-13T11:44:51Z</time>
      </trkpt>
      <trkpt lat="48.7359" lon="1.93984">
        <ele>127</ele>
        <time>2010-05-13T11:44:52Z</time>
      </trkpt>
      <trkpt lat="48.73592" lon="1.93981">
        <ele>127</ele>
        <time>2010-05-13T11:44:53Z</time>
      </trkpt>
      <trkpt lat="48.73595" lon="1.93977">
        <ele>127</ele>
        <time>2010-05-13T11:44:54Z</time>
      </trkpt>
      <trkpt lat="48.73597" lon="1.93974">
        <ele>127</ele>
        <time>2010-05-13T11:44:55Z</time>
      </trkpt>
      <trkpt lat="48.736" lon="1.9397">
        <ele>127</ele>
        <time>2010-05-13T11:44:56Z</time>
      </trkpt>
      <trkpt lat="48.73603" lon="1.93967">
        <ele>127</ele>
        <time>2010-05-13T11:44:57Z</time>
      </trkpt>
      <trkpt lat="48.73606" lon="1.93963">
        <ele>127</ele>
        <time>2010-05-13T11:44:58Z</time>
      </trkpt>
      <trkpt lat="48.73608" lon="1.9396">
        <ele>127</ele>
        <time>2010-05-13T11:44:59Z</time>
      </trkpt>
      <trkpt lat="48.73611" lon="1.93955">
        <ele>127</ele>
        <time>2010-05-13T11:45:00Z</time>
      </trkpt>
      <trkpt lat="48.73614" lon="1.93951">
        <ele>127</ele>
        <time>2010-05-13T11:45:01Z</time>
      </trkpt>
      <trkpt lat="48.73617" lon="1.93947">
        <ele>127</ele>
        <time>2010-05-13T11:45:02Z</time>
      </trkpt>
      <trkpt lat="48.7362" lon="1.93942">
        <ele>127</ele>
        <time>2010-05-13T11:45:03Z</time>
      </trkpt>
      <trkpt lat="48.73623" lon="1.93938">
        <ele>127</ele>
        <time>2010-05-13T11:45:04Z</time>
      </trkpt>
      <trkpt lat="48.73627" lon="1.93935">
        <ele>127</ele>
        <time>2010-05-13T11:45:05Z</time>
      </trkpt>
      <trkpt lat="48.7363" lon="1.93931">
        <ele>127</ele>
        <time>2010-05-13T11:45:06Z</time>
      </trkpt>
      <trkpt lat="48.73632" lon="1.93928">
        <ele>127</ele>
        <time>2010-05-13T11:45:07Z</time>
      </trkpt>
      <trkpt lat="48.73635" lon="1.93923">
        <ele>127</ele>
        <time>2010-05-13T11:45:08Z</time>
      </trkpt>
      <trkpt lat="48.73637" lon="1.93919">
        <ele>127</ele>
        <time>2010-05-13T11:45:09Z</time>
      </trkpt>
      <trkpt lat="48.7364" lon="1.93916">
        <ele>127</ele>
        <time>2010-05-13T11:45:10Z</time>
      </trkpt>
      <trkpt lat="48.73643" lon="1.93911">
        <ele>127</ele>
        <time>2010-05-13T11:45:11Z</time>
      </trkpt>
      <trkpt lat="48.73645" lon="1.93906">
        <ele>127</ele>
        <time>2010-05-13T11:45:12Z</time>
      </trkpt>
      <trkpt lat="48.73647" lon="1.939">
        <ele>127</ele>
        <time>2010-05-13T11:45:13Z</time>
      </trkpt>
      <trkpt lat="48.7365" lon="1.93895">
        <ele>127</ele>
        <time>2010-05-13T11:45:14Z</time>
      </trkpt>
      <trkpt lat="48.73652" lon="1.9389">
        <ele>127</ele>
        <time>2010-05-13T11:45:15Z</time>
      </trkpt>
      <trkpt lat="48.73655" lon="1.93884">
        <ele>127</ele>
        <time>2010-05-13T11:45:16Z</time>
      </trkpt>
      <trkpt lat="48.73656" lon="1.93878">
        <ele>127</ele>
        <time>2010-05-13T11:45:17Z</time>
      </trkpt>
      <trkpt lat="48.73658" lon="1.93873">
        <ele>127</ele>
        <time>2010-05-13T11:45:18Z</time>
      </trkpt>
      <trkpt lat="48.73659" lon="1.93867">
        <ele>127</ele>
        <time>2010-05-13T11:45:19Z</time>
      </trkpt>
      <trkpt lat="48.7366" lon="1.93863">
        <ele>127</ele>
        <time>2010-05-13T11:45:20Z</time>
      </trkpt>
      <trkpt lat="48.73661" lon="1.93858">
        <ele>127</ele>
        <time>2010-05-13T11:45:21Z</time>
      </trkpt>
      <trkpt lat="48.73664" lon="1.93853">
        <ele>127</ele>
        <time>2010-05-13T11:45:22Z</time>
      </trkpt>
      <trkpt lat="48.73666" lon="1.93849">
        <ele>128</ele>
        <time>2010-05-13T11:45:23Z</time>
      </trkpt>
      <trkpt lat="48.73669" lon="1.93845">
        <ele>128</ele>
        <time>2010-05-13T11:45:24Z</time>
      </trkpt>
      <trkpt lat="48.73671" lon="1.93841">
        <ele>128</ele>
        <time>2010-05-13T11:45:25Z</time>
      </trkpt>
      <trkpt lat="48.73673" lon="1.93835">
        <ele>128</ele>
        <time>2010-05-13T11:45:26Z</time>
      </trkpt>
      <trkpt lat="48.73675" lon="1.9383">
        <ele>128</ele>
        <time>2010-05-13T11:45:27Z</time>
      </trkpt>
      <trkpt lat="48.73678" lon="1.93826">
        <ele>128</ele>
        <time>2010-05-13T11:45:28Z</time>
      </trkpt>
      <trkpt lat="48.7368" lon="1.93822">
        <ele>128</ele>
        <time>2010-05-13T11:45:29Z</time>
      </trkpt>
      <trkpt lat="48.73682" lon="1.93818">
        <ele>128</ele>
        <time>2010-05-13T11:45:30Z</time>
      </trkpt>
      <trkpt lat="48.73685" lon="1.93814">
        <ele>128</ele>
        <time>2010-05-13T11:45:31Z</time>
      </trkpt>
      <trkpt lat="48.73687" lon="1.93809">
        <ele>128</ele>
        <time>2010-05-13T11:45:32Z</time>
      </trkpt>
      <trkpt lat="48.73689" lon="1.93805">
        <ele>128</ele>
        <time>2010-05-13T11:45:33Z</time>
      </trkpt>
      <trkpt lat="48.7369" lon="1.93801">
        <ele>128</ele>
        <time>2010-05-13T11:45:34Z</time>
      </trkpt>
      <trkpt lat="48.73692" lon="1.93796">
        <ele>128</ele>
        <time>2010-05-13T11:45:35Z</time>
      </trkpt>
      <trkpt lat="48.73693" lon="1.93791">
        <ele>128</ele>
        <time>2010-05-13T11:45:36Z</time>
      </trkpt>
      <trkpt lat="48.73695" lon="1.93787">
        <ele>128</ele>
        <time>2010-05-13T11:45:37Z</time>
      </trkpt>
      <trkpt lat="48.73697" lon="1.93783">
        <ele>128</ele>
        <time>2010-05-13T11:45:38Z</time>
      </trkpt>
      <trkpt lat="48.73698" lon="1.93779">
        <ele>128</ele>
        <time>2010-05-13T11:45:39Z</time>
      </trkpt>
      <trkpt lat="48.737" lon="1.93774">
        <ele>128</ele>
        <time>2010-05-13T11:45:40Z</time>
      </trkpt>
      <trkpt lat="48.73703" lon="1.9377">
        <ele>128</ele>
        <time>2010-05-13T11:45:41Z</time>
      </trkpt>
      <trkpt lat="48.73704" lon="1.93766">
        <ele>128</ele>
        <time>2010-05-13T11:45:42Z</time>
      </trkpt>
      <trkpt lat="48.73705" lon="1.93763">
        <ele>128</ele>
        <time>2010-05-13T11:45:43Z</time>
      </trkpt>
      <trkpt lat="48.73707" lon="1.9376">
        <ele>128</ele>
        <time>2010-05-13T11:45:44Z</time>
      </trkpt>
      <trkpt lat="48.73708" lon="1.93757">
        <ele>128</ele>
        <time>2010-05-13T11:45:45Z</time>
      </trkpt>
      <trkpt lat="48.73709" lon="1.93755">
        <ele>128</ele>
        <time>2010-05-13T11:45:46Z</time>
      </trkpt>
      <trkpt lat="48.73711" lon="1.93753">
        <ele>128</ele>
        <time>2010-05-13T11:45:47Z</time>
      </trkpt>
      <trkpt lat="48.73712" lon="1.9375">
        <ele>128</ele>
        <time>2010-05-13T11:45:48Z</time>
      </trkpt>
      <trkpt lat="48.73713" lon="1.93747">
        <ele>128</ele>
        <time>2010-05-13T11:45:49Z</time>
      </trkpt>
      <trkpt lat="48.73714" lon="1.93744">
        <ele>128</ele>
        <time>2010-05-13T11:45:50Z</time>
      </trkpt>
      <trkpt lat="48.73715" lon="1.93741">
        <ele>128</ele>
        <time>2010-05-13T11:45:51Z</time>
      </trkpt>
      <trkpt lat="48.73716" lon="1.93738">
        <ele>128</ele>
        <time>2010-05-13T11:45:52Z</time>
      </trkpt>
      <trkpt lat="48.73717" lon="1.93736">
        <ele>128</ele>
        <time>2010-05-13T11:45:53Z</time>
      </trkpt>
      <trkpt lat="48.73718" lon="1.93733">
        <ele>128</ele>
        <time>2010-05-13T11:45:54Z</time>
      </trkpt>
      <trkpt lat="48.7372" lon="1.93731">
        <ele>128</ele>
        <time>2010-05-13T11:45:55Z</time>
      </trkpt>
      <trkpt lat="48.7372" lon="1.9373">
        <ele>129</ele>
        <time>2010-05-13T11:45:56Z</time>
      </trkpt>
      <trkpt lat="48.73722" lon="1.93727">
        <ele>129</ele>
        <time>2010-05-13T11:45:57Z</time>
      </trkpt>
      <trkpt lat="48.73723" lon="1.93725">
        <ele>129</ele>
        <time>2010-05-13T11:45:58Z</time>
      </trkpt>
      <trkpt lat="48.73723" lon="1.93723">
        <ele>130</ele>
        <time>2010-05-13T11:45:59Z</time>
      </trkpt>
      <trkpt lat="48.73725" lon="1.9372">
        <ele>130</ele>
        <time>2010-05-13T11:46:00Z</time>
      </trkpt>
      <trkpt lat="48.73726" lon="1.93718">
        <ele>130</ele>
        <time>2010-05-13T11:46:01Z</time>
      </trkpt>
      <trkpt lat="48.73727" lon="1.93716">
        <ele>130</ele>
        <time>2010-05-13T11:46:02Z</time>
      </trkpt>
      <trkpt lat="48.73728" lon="1.93714">
        <ele>130</ele>
        <time>2010-05-13T11:46:03Z</time>
      </trkpt>
      <trkpt lat="48.73729" lon="1.93711">
        <ele>130</ele>
        <time>2010-05-13T11:46:04Z</time>
      </trkpt>
      <trkpt lat="48.7373" lon="1.93709">
        <ele>130</ele>
        <time>2010-05-13T11:46:05Z</time>
      </trkpt>
      <trkpt lat="48.7373" lon="1.93707">
        <ele>130</ele>
        <time>2010-05-13T11:46:06Z</time>
      </trkpt>
      <trkpt lat="48.73731" lon="1.93704">
        <ele>130</ele>
        <time>2010-05-13T11:46:07Z</time>
      </trkpt>
      <trkpt lat="48.73732" lon="1.93701">
        <ele>130</ele>
        <time>2010-05-13T11:46:08Z</time>
      </trkpt>
      <trkpt lat="48.73732" lon="1.93699">
        <ele>130</ele>
        <time>2010-05-13T11:46:09Z</time>
      </trkpt>
      <trkpt lat="48.73733" lon="1.93696">
        <ele>130</ele>
        <time>2010-05-13T11:46:10Z</time>
      </trkpt>
      <trkpt lat="48.73734" lon="1.93693">
        <ele>130</ele>
        <time>2010-05-13T11:46:11Z</time>
      </trkpt>
      <trkpt lat="48.73735" lon="1.93688">
        <ele>130</ele>
        <time>2010-05-13T11:46:12Z</time>
      </trkpt>
      <trkpt lat="48.73736" lon="1.93683">
        <ele>130</ele>
        <time>2010-05-13T11:46:13Z</time>
      </trkpt>
      <trkpt lat="48.73735" lon="1.93679">
        <ele>130</ele>
        <time>2010-05-13T11:46:14Z</time>
      </trkpt>
      <trkpt lat="48.73736" lon="1.93675">
        <ele>130</ele>
        <time>2010-05-13T11:46:15Z</time>
      </trkpt>
      <trkpt lat="48.73737" lon="1.9367">
        <ele>130</ele>
        <time>2010-05-13T11:46:16Z</time>
      </trkpt>
      <trkpt lat="48.73737" lon="1.93666">
        <ele>130</ele>
        <time>2010-05-13T11:46:17Z</time>
      </trkpt>
      <trkpt lat="48.73737" lon="1.93662">
        <ele>130</ele>
        <time>2010-05-13T11:46:18Z</time>
      </trkpt>
      <trkpt lat="48.73737" lon="1.93656">
        <ele>130</ele>
        <time>2010-05-13T11:46:19Z</time>
      </trkpt>
      <trkpt lat="48.73737" lon="1.93651">
        <ele>130</ele>
        <time>2010-05-13T11:46:20Z</time>
      </trkpt>
      <trkpt lat="48.73738" lon="1.93646">
        <ele>130</ele>
        <time>2010-05-13T11:46:21Z</time>
      </trkpt>
      <trkpt lat="48.73738" lon="1.93643">
        <ele>130</ele>
        <time>2010-05-13T11:46:22Z</time>
      </trkpt>
      <trkpt lat="48.73737" lon="1.93638">
        <ele>130</ele>
        <time>2010-05-13T11:46:23Z</time>
      </trkpt>
      <trkpt lat="48.73735" lon="1.93634">
        <ele>130</ele>
        <time>2010-05-13T11:46:24Z</time>
      </trkpt>
      <trkpt lat="48.73734" lon="1.93629">
        <ele>130</ele>
        <time>2010-05-13T11:46:25Z</time>
      </trkpt>
      <trkpt lat="48.73732" lon="1.93624">
        <ele>130</ele>
        <time>2010-05-13T11:46:26Z</time>
      </trkpt>
      <trkpt lat="48.73731" lon="1.93619">
        <ele>131</ele>
        <time>2010-05-13T11:46:27Z</time>
      </trkpt>
      <trkpt lat="48.73732" lon="1.93613">
        <ele>132</ele>
        <time>2010-05-13T11:46:28Z</time>
      </trkpt>
      <trkpt lat="48.73733" lon="1.93607">
        <ele>133</ele>
        <time>2010-05-13T11:46:29Z</time>
      </trkpt>
      <trkpt lat="48.73733" lon="1.936">
        <ele>133</ele>
        <time>2010-05-13T11:46:30Z</time>
      </trkpt>
      <trkpt lat="48.73733" lon="1.93593">
        <ele>133</ele>
        <time>2010-05-13T11:46:31Z</time>
      </trkpt>
      <trkpt lat="48.73732" lon="1.93587">
        <ele>133</ele>
        <time>2010-05-13T11:46:32Z</time>
      </trkpt>
      <trkpt lat="48.73732" lon="1.93581">
        <ele>134</ele>
        <time>2010-05-13T11:46:33Z</time>
      </trkpt>
      <trkpt lat="48.73733" lon="1.93576">
        <ele>134</ele>
        <time>2010-05-13T11:46:34Z</time>
      </trkpt>
      <trkpt lat="48.73734" lon="1.93572">
        <ele>134</ele>
        <time>2010-05-13T11:46:35Z</time>
      </trkpt>
      <trkpt lat="48.73735" lon="1.93567">
        <ele>134</ele>
        <time>2010-05-13T11:46:36Z</time>
      </trkpt>
      <trkpt lat="48.73736" lon="1.93563">
        <ele>134</ele>
        <time>2010-05-13T11:46:37Z</time>
      </trkpt>
      <trkpt lat="48.73737" lon="1.93559">
        <ele>134</ele>
        <time>2010-05-13T11:46:38Z</time>
      </trkpt>
      <trkpt lat="48.73738" lon="1.93555">
        <ele>134</ele>
        <time>2010-05-13T11:46:39Z</time>
      </trkpt>
      <trkpt lat="48.7374" lon="1.9355">
        <ele>134</ele>
        <time>2010-05-13T11:46:40Z</time>
      </trkpt>
      <trkpt lat="48.73742" lon="1.93546">
        <ele>134</ele>
        <time>2010-05-13T11:46:41Z</time>
      </trkpt>
      <trkpt lat="48.73745" lon="1.93542">
        <ele>134</ele>
        <time>2010-05-13T11:46:42Z</time>
      </trkpt>
      <trkpt lat="48.73748" lon="1.93536">
        <ele>134</ele>
        <time>2010-05-13T11:46:43Z</time>
      </trkpt>
      <trkpt lat="48.73751" lon="1.93531">
        <ele>134</ele>
        <time>2010-05-13T11:46:44Z</time>
      </trkpt>
      <trkpt lat="48.73753" lon="1.93526">
        <ele>134</ele>
        <time>2010-05-13T11:46:45Z</time>
      </trkpt>
      <trkpt lat="48.73755" lon="1.93522">
        <ele>134</ele>
        <time>2010-05-13T11:46:46Z</time>
      </trkpt>
      <trkpt lat="48.73756" lon="1.93519">
        <ele>134</ele>
        <time>2010-05-13T11:46:47Z</time>
      </trkpt>
      <trkpt lat="48.7376" lon="1.93515">
        <ele>134</ele>
        <time>2010-05-13T11:46:48Z</time>
      </trkpt>
      <trkpt lat="48.73763" lon="1.93511">
        <ele>134</ele>
        <time>2010-05-13T11:46:49Z</time>
      </trkpt>
      <trkpt lat="48.73765" lon="1.93507">
        <ele>134</ele>
        <time>2010-05-13T11:46:50Z</time>
      </trkpt>
      <trkpt lat="48.73768" lon="1.93504">
        <ele>134</ele>
        <time>2010-05-13T11:46:51Z</time>
      </trkpt>
      <trkpt lat="48.73771" lon="1.93501">
        <ele>134</ele>
        <time>2010-05-13T11:46:52Z</time>
      </trkpt>
      <trkpt lat="48.73775" lon="1.93497">
        <ele>134</ele>
        <time>2010-05-13T11:46:53Z</time>
      </trkpt>
      <trkpt lat="48.73779" lon="1.93494">
        <ele>134</ele>
        <time>2010-05-13T11:46:54Z</time>
      </trkpt>
      <trkpt lat="48.73783" lon="1.93491">
        <ele>134</ele>
        <time>2010-05-13T11:46:55Z</time>
      </trkpt>
      <trkpt lat="48.73787" lon="1.93487">
        <ele>134</ele>
        <time>2010-05-13T11:46:56Z</time>
      </trkpt>
      <trkpt lat="48.7379" lon="1.93484">
        <ele>134</ele>
        <time>2010-05-13T11:46:57Z</time>
      </trkpt>
      <trkpt lat="48.73793" lon="1.93481">
        <ele>135</ele>
        <time>2010-05-13T11:46:58Z</time>
      </trkpt>
      <trkpt lat="48.73797" lon="1.93479">
        <ele>136</ele>
        <time>2010-05-13T11:46:59Z</time>
      </trkpt>
      <trkpt lat="48.738" lon="1.93477">
        <ele>136</ele>
        <time>2010-05-13T11:47:00Z</time>
      </trkpt>
      <trkpt lat="48.73803" lon="1.93475">
        <ele>136</ele>
        <time>2010-05-13T11:47:01Z</time>
      </trkpt>
      <trkpt lat="48.73805" lon="1.93473">
        <ele>136</ele>
        <time>2010-05-13T11:47:02Z</time>
      </trkpt>
      <trkpt lat="48.73808" lon="1.93472">
        <ele>136</ele>
        <time>2010-05-13T11:47:03Z</time>
      </trkpt>
      <trkpt lat="48.73811" lon="1.93471">
        <ele>136</ele>
        <time>2010-05-13T11:47:04Z</time>
      </trkpt>
      <trkpt lat="48.73814" lon="1.9347">
        <ele>136</ele>
        <time>2010-05-13T11:47:05Z</time>
      </trkpt>
      <trkpt lat="48.73817" lon="1.93469">
        <ele>136</ele>
        <time>2010-05-13T11:47:06Z</time>
      </trkpt>
      <trkpt lat="48.73819" lon="1.93468">
        <ele>136</ele>
        <time>2010-05-13T11:47:07Z</time>
      </trkpt>
      <trkpt lat="48.73821" lon="1.93467">
        <ele>136</ele>
        <time>2010-05-13T11:47:08Z</time>
      </trkpt>
      <trkpt lat="48.73823" lon="1.93467">
        <ele>136</ele>
        <time>2010-05-13T11:47:09Z</time>
      </trkpt>
      <trkpt lat="48.73826" lon="1.93466">
        <ele>136</ele>
        <time>2010-05-13T11:47:10Z</time>
      </trkpt>
      <trkpt lat="48.73828" lon="1.93466">
        <ele>136</ele>
        <time>2010-05-13T11:47:11Z</time>
      </trkpt>
      <trkpt lat="48.73829" lon="1.93465">
        <ele>136</ele>
        <time>2010-05-13T11:47:12Z</time>
      </trkpt>
      <trkpt lat="48.73831" lon="1.93465">
        <ele>136</ele>
        <time>2010-05-13T11:47:13Z</time>
      </trkpt>
      <trkpt lat="48.73833" lon="1.93464">
        <ele>136</ele>
        <time>2010-05-13T11:47:14Z</time>
      </trkpt>
      <trkpt lat="48.73835" lon="1.93464">
        <ele>136</ele>
        <time>2010-05-13T11:47:15Z</time>
      </trkpt>
      <trkpt lat="48.73836" lon="1.93463">
        <ele>136</ele>
        <time>2010-05-13T11:47:16Z</time>
      </trkpt>
      <trkpt lat="48.73838" lon="1.93463">
        <ele>136</ele>
        <time>2010-05-13T11:47:17Z</time>
      </trkpt>
      <trkpt lat="48.7384" lon="1.93463">
        <ele>136</ele>
        <time>2010-05-13T11:47:18Z</time>
      </trkpt>
      <trkpt lat="48.73842" lon="1.93463">
        <ele>136</ele>
        <time>2010-05-13T11:47:19Z</time>
      </trkpt>
      <trkpt lat="48.73844" lon="1.93462">
        <ele>136</ele>
        <time>2010-05-13T11:47:20Z</time>
      </trkpt>
      <trkpt lat="48.73846" lon="1.93462">
        <ele>136</ele>
        <time>2010-05-13T11:47:21Z</time>
      </trkpt>
      <trkpt lat="48.73847" lon="1.93462">
        <ele>136</ele>
        <time>2010-05-13T11:47:22Z</time>
      </trkpt>
      <trkpt lat="48.73849" lon="1.93462">
        <ele>136</ele>
        <time>2010-05-13T11:47:23Z</time>
      </trkpt>
      <trkpt lat="48.7385" lon="1.93461">
        <ele>136</ele>
        <time>2010-05-13T11:47:24Z</time>
      </trkpt>
      <trkpt lat="48.73852" lon="1.93461">
        <ele>136</ele>
        <time>2010-05-13T11:47:25Z</time>
      </trkpt>
      <trkpt lat="48.73854" lon="1.93461">
        <ele>136</ele>
        <time>2010-05-13T11:47:26Z</time>
      </trkpt>
      <trkpt lat="48.73856" lon="1.9346">
        <ele>136</ele>
        <time>2010-05-13T11:47:27Z</time>
      </trkpt>
      <trkpt lat="48.73858" lon="1.93459">
        <ele>136</ele>
        <time>2010-05-13T11:47:28Z</time>
      </trkpt>
      <trkpt lat="48.7386" lon="1.93459">
        <ele>136</ele>
        <time>2010-05-13T11:47:29Z</time>
      </trkpt>
      <trkpt lat="48.73861" lon="1.93459">
        <ele>136</ele>
        <time>2010-05-13T11:47:30Z</time>
      </trkpt>
      <trkpt lat="48.73863" lon="1.93458">
        <ele>136</ele>
        <time>2010-05-13T11:47:31Z</time>
      </trkpt>
      <trkpt lat="48.73864" lon="1.93458">
        <ele>136</ele>
        <time>2010-05-13T11:47:32Z</time>
      </trkpt>
      <trkpt lat="48.73866" lon="1.93458">
        <ele>136</ele>
        <time>2010-05-13T11:47:33Z</time>
      </trkpt>
      <trkpt lat="48.73868" lon="1.93457">
        <ele>136</ele>
        <time>2010-05-13T11:47:34Z</time>
      </trkpt>
      <trkpt lat="48.73869" lon="1.93457">
        <ele>136</ele>
        <time>2010-05-13T11:47:35Z</time>
      </trkpt>
      <trkpt lat="48.73871" lon="1.93457">
        <ele>136</ele>
        <time>2010-05-13T11:47:36Z</time>
      </trkpt>
      <trkpt lat="48.73873" lon="1.93457">
        <ele>136</ele>
        <time>2010-05-13T11:47:37Z</time>
      </trkpt>
      <trkpt lat="48.73874" lon="1.93456">
        <ele>136</ele>
        <time>2010-05-13T11:47:38Z</time>
      </trkpt>
      <trkpt lat="48.73876" lon="1.93456">
        <ele>136</ele>
        <time>2010-05-13T11:47:39Z</time>
      </trkpt>
      <trkpt lat="48.73877" lon="1.93456">
        <ele>136</ele>
        <time>2010-05-13T11:47:40Z</time>
      </trkpt>
      <trkpt lat="48.73879" lon="1.93456">
        <ele>136</ele>
        <time>2010-05-13T11:47:41Z</time>
      </trkpt>
      <trkpt lat="48.73881" lon="1.93456">
        <ele>136</ele>
        <time>2010-05-13T11:47:42Z</time>
      </trkpt>
      <trkpt lat="48.73883" lon="1.93456">
        <ele>136</ele>
        <time>2010-05-13T11:47:43Z</time>
      </trkpt>
      <trkpt lat="48.73884" lon="1.93455">
        <ele>136</ele>
        <time>2010-05-13T11:47:44Z</time>
      </trkpt>
      <trkpt lat="48.73885" lon="1.93455">
        <ele>136</ele>
        <time>2010-05-13T11:47:45Z</time>
      </trkpt>
      <trkpt lat="48.73887" lon="1.93454">
        <ele>136</ele>
        <time>2010-05-13T11:47:46Z</time>
      </trkpt>
      <trkpt lat="48.73888" lon="1.93453">
        <ele>136</ele>
        <time>2010-05-13T11:47:47Z</time>
      </trkpt>
      <trkpt lat="48.7389" lon="1.93452">
        <ele>136</ele>
        <time>2010-05-13T11:47:48Z</time>
      </trkpt>
      <trkpt lat="48.73891" lon="1.93451">
        <ele>136</ele>
        <time>2010-05-13T11:47:49Z</time>
      </trkpt>
      <trkpt lat="48.73893" lon="1.93449">
        <ele>136</ele>
        <time>2010-05-13T11:47:50Z</time>
      </trkpt>
      <trkpt lat="48.73895" lon="1.93447">
        <ele>136</ele>
        <time>2010-05-13T11:47:51Z</time>
      </trkpt>
      <trkpt lat="48.73897" lon="1.93445">
        <ele>136</ele>
        <time>2010-05-13T11:47:52Z</time>
      </trkpt>
      <trkpt lat="48.73897" lon="1.93442">
        <ele>136</ele>
        <time>2010-05-13T11:47:53Z</time>
      </trkpt>
      <trkpt lat="48.73899" lon="1.93441">
        <ele>136</ele>
        <time>2010-05-13T11:47:54Z</time>
      </trkpt>
      <trkpt lat="48.739" lon="1.93439">
        <ele>136</ele>
        <time>2010-05-13T11:47:55Z</time>
      </trkpt>
      <trkpt lat="48.73902" lon="1.93438">
        <ele>136</ele>
        <time>2010-05-13T11:47:56Z</time>
      </trkpt>
      <trkpt lat="48.73904" lon="1.93435">
        <ele>136</ele>
        <time>2010-05-13T11:47:57Z</time>
      </trkpt>
      <trkpt lat="48.73906" lon="1.93431">
        <ele>136</ele>
        <time>2010-05-13T11:47:58Z</time>
      </trkpt>
      <trkpt lat="48.73909" lon="1.93428">
        <ele>136</ele>
        <time>2010-05-13T11:47:59Z</time>
      </trkpt>
      <trkpt lat="48.73911" lon="1.93424">
        <ele>136</ele>
        <time>2010-05-13T11:48:00Z</time>
      </trkpt>
      <trkpt lat="48.73913" lon="1.93419">
        <ele>136</ele>
        <time>2010-05-13T11:48:01Z</time>
      </trkpt>
      <trkpt lat="48.73915" lon="1.93415">
        <ele>137</ele>
        <time>2010-05-13T11:48:02Z</time>
      </trkpt>
      <trkpt lat="48.73918" lon="1.93412">
        <ele>137</ele>
        <time>2010-05-13T11:48:03Z</time>
      </trkpt>
      <trkpt lat="48.7392" lon="1.93408">
        <ele>138</ele>
        <time>2010-05-13T11:48:04Z</time>
      </trkpt>
      <trkpt lat="48.73923" lon="1.93404">
        <ele>138</ele>
        <time>2010-05-13T11:48:05Z</time>
      </trkpt>
      <trkpt lat="48.73926" lon="1.93401">
        <ele>138</ele>
        <time>2010-05-13T11:48:06Z</time>
      </trkpt>
      <trkpt lat="48.73929" lon="1.93397">
        <ele>138</ele>
        <time>2010-05-13T11:48:07Z</time>
      </trkpt>
      <trkpt lat="48.7393" lon="1.93394">
        <ele>138</ele>
        <time>2010-05-13T11:48:08Z</time>
      </trkpt>
      <trkpt lat="48.73932" lon="1.9339">
        <ele>139</ele>
        <time>2010-05-13T11:48:09Z</time>
      </trkpt>
      <trkpt lat="48.73934" lon="1.93387">
        <ele>139</ele>
        <time>2010-05-13T11:48:10Z</time>
      </trkpt>
      <trkpt lat="48.73936" lon="1.93383">
        <ele>139</ele>
        <time>2010-05-13T11:48:11Z</time>
      </trkpt>
      <trkpt lat="48.73939" lon="1.93378">
        <ele>139</ele>
        <time>2010-05-13T11:48:12Z</time>
      </trkpt>
      <trkpt lat="48.73941" lon="1.93374">
        <ele>139</ele>
        <time>2010-05-13T11:48:13Z</time>
      </trkpt>
      <trkpt lat="48.73944" lon="1.9337">
        <ele>139</ele>
        <time>2010-05-13T11:48:14Z</time>
      </trkpt>
      <trkpt lat="48.73948" lon="1.93365">
        <ele>140</ele>
        <time>2010-05-13T11:48:15Z</time>
      </trkpt>
      <trkpt lat="48.73952" lon="1.93361">
        <ele>140</ele>
        <time>2010-05-13T11:48:16Z</time>
      </trkpt>
      <trkpt lat="48.73955" lon="1.93356">
        <ele>141</ele>
        <time>2010-05-13T11:48:17Z</time>
      </trkpt>
      <trkpt lat="48.73957" lon="1.93353">
        <ele>142</ele>
        <time>2010-05-13T11:48:18Z</time>
      </trkpt>
      <trkpt lat="48.73961" lon="1.9335">
        <ele>143</ele>
        <time>2010-05-13T11:48:19Z</time>
      </trkpt>
      <trkpt lat="48.73964" lon="1.93347">
        <ele>144</ele>
        <time>2010-05-13T11:48:20Z</time>
      </trkpt>
      <trkpt lat="48.73967" lon="1.93343">
        <ele>145</ele>
        <time>2010-05-13T11:48:21Z</time>
      </trkpt>
      <trkpt lat="48.73968" lon="1.9334">
        <ele>146</ele>
        <time>2010-05-13T11:48:22Z</time>
      </trkpt>
      <trkpt lat="48.7397" lon="1.93337">
        <ele>147</ele>
        <time>2010-05-13T11:48:23Z</time>
      </trkpt>
      <trkpt lat="48.73971" lon="1.93333">
        <ele>147</ele>
        <time>2010-05-13T11:48:24Z</time>
      </trkpt>
      <trkpt lat="48.73973" lon="1.93329">
        <ele>147</ele>
        <time>2010-05-13T11:48:25Z</time>
      </trkpt>
      <trkpt lat="48.73975" lon="1.93324">
        <ele>147</ele>
        <time>2010-05-13T11:48:26Z</time>
      </trkpt>
      <trkpt lat="48.73977" lon="1.9332">
        <ele>147</ele>
        <time>2010-05-13T11:48:27Z</time>
      </trkpt>
      <trkpt lat="48.73979" lon="1.93315">
        <ele>147</ele>
        <time>2010-05-13T11:48:28Z</time>
      </trkpt>
      <trkpt lat="48.73982" lon="1.9331">
        <ele>147</ele>
        <time>2010-05-13T11:48:29Z</time>
      </trkpt>
      <trkpt lat="48.73985" lon="1.93304">
        <ele>147</ele>
        <time>2010-05-13T11:48:30Z</time>
      </trkpt>
      <trkpt lat="48.73987" lon="1.933">
        <ele>147</ele>
        <time>2010-05-13T11:48:31Z</time>
      </trkpt>
      <trkpt lat="48.7399" lon="1.93297">
        <ele>147</ele>
        <time>2010-05-13T11:48:32Z</time>
      </trkpt>
      <trkpt lat="48.73993" lon="1.93294">
        <ele>147</ele>
        <time>2010-05-13T11:48:33Z</time>
      </trkpt>
      <trkpt lat="48.73996" lon="1.93292">
        <ele>147</ele>
        <time>2010-05-13T11:48:34Z</time>
      </trkpt>
      <trkpt lat="48.74" lon="1.9329">
        <ele>147</ele>
        <time>2010-05-13T11:48:35Z</time>
      </trkpt>
      <trkpt lat="48.74003" lon="1.93287">
        <ele>147</ele>
        <time>2010-05-13T11:48:36Z</time>
      </trkpt>
      <trkpt lat="48.74005" lon="1.93286">
        <ele>147</ele>
        <time>2010-05-13T11:48:37Z</time>
      </trkpt>
      <trkpt lat="48.74009" lon="1.93283">
        <ele>147</ele>
        <time>2010-05-13T11:48:38Z</time>
      </trkpt>
      <trkpt lat="48.74012" lon="1.93281">
        <ele>147</ele>
        <time>2010-05-13T11:48:39Z</time>
      </trkpt>
      <trkpt lat="48.74017" lon="1.93277">
        <ele>147</ele>
        <time>2010-05-13T11:48:40Z</time>
      </trkpt>
      <trkpt lat="48.74021" lon="1.93274">
        <ele>147</ele>
        <time>2010-05-13T11:48:41Z</time>
      </trkpt>
      <trkpt lat="48.74025" lon="1.93271">
        <ele>147</ele>
        <time>2010-05-13T11:48:42Z</time>
      </trkpt>
      <trkpt lat="48.74028" lon="1.93268">
        <ele>147</ele>
        <time>2010-05-13T11:48:43Z</time>
      </trkpt>
      <trkpt lat="48.7403" lon="1.93264">
        <ele>147</ele>
        <time>2010-05-13T11:48:44Z</time>
      </trkpt>
      <trkpt lat="48.74033" lon="1.93261">
        <ele>147</ele>
        <time>2010-05-13T11:48:45Z</time>
      </trkpt>
      <trkpt lat="48.74035" lon="1.93257">
        <ele>147</ele>
        <time>2010-05-13T11:48:46Z</time>
      </trkpt>
      <trkpt lat="48.74037" lon="1.93254">
        <ele>146</ele>
        <time>2010-05-13T11:48:47Z</time>
      </trkpt>
      <trkpt lat="48.74041" lon="1.93251">
        <ele>146</ele>
        <time>2010-05-13T11:48:48Z</time>
      </trkpt>
      <trkpt lat="48.74044" lon="1.93249">
        <ele>145</ele>
        <time>2010-05-13T11:48:49Z</time>
      </trkpt>
      <trkpt lat="48.74048" lon="1.93247">
        <ele>144</ele>
        <time>2010-05-13T11:48:50Z</time>
      </trkpt>
      <trkpt lat="48.74051" lon="1.93244">
        <ele>143</ele>
        <time>2010-05-13T11:48:51Z</time>
      </trkpt>
      <trkpt lat="48.74055" lon="1.93241">
        <ele>143</ele>
        <time>2010-05-13T11:48:52Z</time>
      </trkpt>
      <trkpt lat="48.74059" lon="1.93239">
        <ele>143</ele>
        <time>2010-05-13T11:48:53Z</time>
      </trkpt>
      <trkpt lat="48.74063" lon="1.93238">
        <ele>142</ele>
        <time>2010-05-13T11:48:54Z</time>
      </trkpt>
      <trkpt lat="48.74066" lon="1.93237">
        <ele>142</ele>
        <time>2010-05-13T11:48:55Z</time>
      </trkpt>
      <trkpt lat="48.74068" lon="1.93237">
        <ele>142</ele>
        <time>2010-05-13T11:48:56Z</time>
      </trkpt>
      <trkpt lat="48.74071" lon="1.93237">
        <ele>141</ele>
        <time>2010-05-13T11:48:57Z</time>
      </trkpt>
      <trkpt lat="48.74075" lon="1.93236">
        <ele>140</ele>
        <time>2010-05-13T11:48:58Z</time>
      </trkpt>
      <trkpt lat="48.74078" lon="1.93237">
        <ele>140</ele>
        <time>2010-05-13T11:48:59Z</time>
      </trkpt>
      <trkpt lat="48.74082" lon="1.93237">
        <ele>139</ele>
        <time>2010-05-13T11:49:00Z</time>
      </trkpt>
      <trkpt lat="48.74086" lon="1.93237">
        <ele>139</ele>
        <time>2010-05-13T11:49:01Z</time>
      </trkpt>
      <trkpt lat="48.74091" lon="1.93236">
        <ele>139</ele>
        <time>2010-05-13T11:49:02Z</time>
      </trkpt>
      <trkpt lat="48.74094" lon="1.93236">
        <ele>139</ele>
        <time>2010-05-13T11:49:03Z</time>
      </trkpt>
      <trkpt lat="48.74097" lon="1.93236">
        <ele>139</ele>
        <time>2010-05-13T11:49:04Z</time>
      </trkpt>
      <trkpt lat="48.74101" lon="1.93236">
        <ele>139</ele>
        <time>2010-05-13T11:49:05Z</time>
      </trkpt>
      <trkpt lat="48.74105" lon="1.93236">
        <ele>139</ele>
        <time>2010-05-13T11:49:06Z</time>
      </trkpt>
      <trkpt lat="48.74109" lon="1.93237">
        <ele>139</ele>
        <time>2010-05-13T11:49:07Z</time>
      </trkpt>
      <trkpt lat="48.74114" lon="1.93237">
        <ele>139</ele>
        <time>2010-05-13T11:49:08Z</time>
      </trkpt>
      <trkpt lat="48.74117" lon="1.93237">
        <ele>139</ele>
        <time>2010-05-13T11:49:09Z</time>
      </trkpt>
      <trkpt lat="48.74121" lon="1.93237">
        <ele>139</ele>
        <time>2010-05-13T11:49:10Z</time>
      </trkpt>
      <trkpt lat="48.74125" lon="1.93238">
        <ele>139</ele>
        <time>2010-05-13T11:49:11Z</time>
      </trkpt>
      <trkpt lat="48.74129" lon="1.93239">
        <ele>139</ele>
        <time>2010-05-13T11:49:12Z</time>
      </trkpt>
      <trkpt lat="48.74132" lon="1.93241">
        <ele>139</ele>
        <time>2010-05-13T11:49:13Z</time>
      </trkpt>
      <trkpt lat="48.74138" lon="1.93243">
        <ele>139</ele>
        <time>2010-05-13T11:49:14Z</time>
      </trkpt>
      <trkpt lat="48.74141" lon="1.93246">
        <ele>139</ele>
        <time>2010-05-13T11:49:15Z</time>
      </trkpt>
      <trkpt lat="48.74144" lon="1.93248">
        <ele>139</ele>
        <time>2010-05-13T11:49:16Z</time>
      </trkpt>
      <trkpt lat="48.74149" lon="1.93249">
        <ele>139</ele>
        <time>2010-05-13T11:49:17Z</time>
      </trkpt>
      <trkpt lat="48.74152" lon="1.93251">
        <ele>139</ele>
        <time>2010-05-13T11:49:18Z</time>
      </trkpt>
      <trkpt lat="48.74156" lon="1.93252">
        <ele>139</ele>
        <time>2010-05-13T11:49:19Z</time>
      </trkpt>
      <trkpt lat="48.74159" lon="1.93254">
        <ele>139</ele>
        <time>2010-05-13T11:49:20Z</time>
      </trkpt>
      <trkpt lat="48.74163" lon="1.93255">
        <ele>139</ele>
        <time>2010-05-13T11:49:21Z</time>
      </trkpt>
      <trkpt lat="48.74167" lon="1.93255">
        <ele>139</ele>
        <time>2010-05-13T11:49:22Z</time>
      </trkpt>
      <trkpt lat="48.7417" lon="1.93254">
        <ele>139</ele>
        <time>2010-05-13T11:49:23Z</time>
      </trkpt>
      <trkpt lat="48.74173" lon="1.93252">
        <ele>139</ele>
        <time>2010-05-13T11:49:24Z</time>
      </trkpt>
      <trkpt lat="48.74175" lon="1.93249">
        <ele>139</ele>
        <time>2010-05-13T11:49:25Z</time>
      </trkpt>
      <trkpt lat="48.74178" lon="1.93245">
        <ele>139</ele>
        <time>2010-05-13T11:49:26Z</time>
      </trkpt>
      <trkpt lat="48.7418" lon="1.93241">
        <ele>139</ele>
        <time>2010-05-13T11:49:27Z</time>
      </trkpt>
      <trkpt lat="48.74181" lon="1.93237">
        <ele>139</ele>
        <time>2010-05-13T11:49:28Z</time>
      </trkpt>
      <trkpt lat="48.74182" lon="1.93232">
        <ele>139</ele>
        <time>2010-05-13T11:49:29Z</time>
      </trkpt>
      <trkpt lat="48.74183" lon="1.93227">
        <ele>139</ele>
        <time>2010-05-13T11:49:30Z</time>
      </trkpt>
      <trkpt lat="48.74184" lon="1.93221">
        <ele>139</ele>
        <time>2010-05-13T11:49:31Z</time>
      </trkpt>
      <trkpt lat="48.74185" lon="1.93216">
        <ele>139</ele>
        <time>2010-05-13T11:49:32Z</time>
      </trkpt>
      <trkpt lat="48.74185" lon="1.93211">
        <ele>139</ele>
        <time>2010-05-13T11:49:33Z</time>
      </trkpt>
      <trkpt lat="48.74186" lon="1.93206">
        <ele>139</ele>
        <time>2010-05-13T11:49:34Z</time>
      </trkpt>
      <trkpt lat="48.74187" lon="1.93201">
        <ele>139</ele>
        <time>2010-05-13T11:49:35Z</time>
      </trkpt>
      <trkpt lat="48.74188" lon="1.93196">
        <ele>139</ele>
        <time>2010-05-13T11:49:36Z</time>
      </trkpt>
      <trkpt lat="48.74188" lon="1.9319">
        <ele>139</ele>
        <time>2010-05-13T11:49:37Z</time>
      </trkpt>
      <trkpt lat="48.74189" lon="1.93185">
        <ele>139</ele>
        <time>2010-05-13T11:49:38Z</time>
      </trkpt>
      <trkpt lat="48.7419" lon="1.93179">
        <ele>139</ele>
        <time>2010-05-13T11:49:39Z</time>
      </trkpt>
      <trkpt lat="48.74192" lon="1.93174">
        <ele>139</ele>
        <time>2010-05-13T11:49:40Z</time>
      </trkpt>
      <trkpt lat="48.74192" lon="1.93167">
        <ele>139</ele>
        <time>2010-05-13T11:49:41Z</time>
      </trkpt>
      <trkpt lat="48.74193" lon="1.93162">
        <ele>139</ele>
        <time>2010-05-13T11:49:42Z</time>
      </trkpt>
      <trkpt lat="48.74193" lon="1.93157">
        <ele>139</ele>
        <time>2010-05-13T11:49:43Z</time>
      </trkpt>
      <trkpt lat="48.74194" lon="1.93153">
        <ele>139</ele>
        <time>2010-05-13T11:49:44Z</time>
      </trkpt>
      <trkpt lat="48.74195" lon="1.93148">
        <ele>139</ele>
        <time>2010-05-13T11:49:45Z</time>
      </trkpt>
      <trkpt lat="48.74196" lon="1.93142">
        <ele>139</ele>
        <time>2010-05-13T11:49:46Z</time>
      </trkpt>
      <trkpt lat="48.74197" lon="1.93136">
        <ele>139</ele>
        <time>2010-05-13T11:49:47Z</time>
      </trkpt>
      <trkpt lat="48.74196" lon="1.9313">
        <ele>139</ele>
        <time>2010-05-13T11:49:48Z</time>
      </trkpt>
      <trkpt lat="48.74196" lon="1.93124">
        <ele>139</ele>
        <time>2010-05-13T11:49:49Z</time>
      </trkpt>
      <trkpt lat="48.74197" lon="1.93118">
        <ele>139</ele>
        <time>2010-05-13T11:49:50Z</time>
      </trkpt>
      <trkpt lat="48.74197" lon="1.93112">
        <ele>139</ele>
        <time>2010-05-13T11:49:51Z</time>
      </trkpt>
      <trkpt lat="48.74197" lon="1.93106">
        <ele>139</ele>
        <time>2010-05-13T11:49:52Z</time>
      </trkpt>
      <trkpt lat="48.74198" lon="1.931">
        <ele>139</ele>
        <time>2010-05-13T11:49:53Z</time>
      </trkpt>
      <trkpt lat="48.74199" lon="1.93095">
        <ele>139</ele>
        <time>2010-05-13T11:49:54Z</time>
      </trkpt>
      <trkpt lat="48.74199" lon="1.93089">
        <ele>139</ele>
        <time>2010-05-13T11:49:55Z</time>
      </trkpt>
      <trkpt lat="48.742" lon="1.93084">
        <ele>139</ele>
        <time>2010-05-13T11:49:56Z</time>
      </trkpt>
      <trkpt lat="48.74201" lon="1.93078">
        <ele>139</ele>
        <time>2010-05-13T11:49:57Z</time>
      </trkpt>
      <trkpt lat="48.74202" lon="1.93072">
        <ele>139</ele>
        <time>2010-05-13T11:49:58Z</time>
      </trkpt>
      <trkpt lat="48.74203" lon="1.93066">
        <ele>139</ele>
        <time>2010-05-13T11:49:59Z</time>
      </trkpt>
      <trkpt lat="48.74203" lon="1.93061">
        <ele>139</ele>
        <time>2010-05-13T11:50:00Z</time>
      </trkpt>
      <trkpt lat="48.74204" lon="1.93055">
        <ele>140</ele>
        <time>2010-05-13T11:50:01Z</time>
      </trkpt>
      <trkpt lat="48.74205" lon="1.9305">
        <ele>140</ele>
        <time>2010-05-13T11:50:02Z</time>
      </trkpt>
      <trkpt lat="48.74206" lon="1.93044">
        <ele>140</ele>
        <time>2010-05-13T11:50:03Z</time>
      </trkpt>
      <trkpt lat="48.74207" lon="1.93039">
        <ele>140</ele>
        <time>2010-05-13T11:50:04Z</time>
      </trkpt>
      <trkpt lat="48.74208" lon="1.93034">
        <ele>141</ele>
        <time>2010-05-13T11:50:05Z</time>
      </trkpt>
      <trkpt lat="48.74208" lon="1.93029">
        <ele>141</ele>
        <time>2010-05-13T11:50:06Z</time>
      </trkpt>
      <trkpt lat="48.74208" lon="1.93024">
        <ele>141</ele>
        <time>2010-05-13T11:50:07Z</time>
      </trkpt>
      <trkpt lat="48.74209" lon="1.93018">
        <ele>141</ele>
        <time>2010-05-13T11:50:08Z</time>
      </trkpt>
      <trkpt lat="48.74209" lon="1.93013">
        <ele>141</ele>
        <time>2010-05-13T11:50:09Z</time>
      </trkpt>
      <trkpt lat="48.7421" lon="1.93007">
        <ele>142</ele>
        <time>2010-05-13T11:50:10Z</time>
      </trkpt>
      <trkpt lat="48.7421" lon="1.93002">
        <ele>142</ele>
        <time>2010-05-13T11:50:11Z</time>
      </trkpt>
      <trkpt lat="48.74211" lon="1.92997">
        <ele>143</ele>
        <time>2010-05-13T11:50:12Z</time>
      </trkpt>
      <trkpt lat="48.74211" lon="1.92992">
        <ele>144</ele>
        <time>2010-05-13T11:50:13Z</time>
      </trkpt>
      <trkpt lat="48.74212" lon="1.92987">
        <ele>144</ele>
        <time>2010-05-13T11:50:14Z</time>
      </trkpt>
      <trkpt lat="48.74213" lon="1.92981">
        <ele>145</ele>
        <time>2010-05-13T11:50:15Z</time>
      </trkpt>
      <trkpt lat="48.74214" lon="1.92977">
        <ele>145</ele>
        <time>2010-05-13T11:50:16Z</time>
      </trkpt>
      <trkpt lat="48.74215" lon="1.92972">
        <ele>145</ele>
        <time>2010-05-13T11:50:17Z</time>
      </trkpt>
      <trkpt lat="48.74216" lon="1.92968">
        <ele>146</ele>
        <time>2010-05-13T11:50:18Z</time>
      </trkpt>
      <trkpt lat="48.74218" lon="1.92964">
        <ele>146</ele>
        <time>2010-05-13T11:50:19Z</time>
      </trkpt>
      <trkpt lat="48.74219" lon="1.9296">
        <ele>147</ele>
        <time>2010-05-13T11:50:20Z</time>
      </trkpt>
      <trkpt lat="48.7422" lon="1.92956">
        <ele>147</ele>
        <time>2010-05-13T11:50:21Z</time>
      </trkpt>
      <trkpt lat="48.74221" lon="1.92953">
        <ele>147</ele>
        <time>2010-05-13T11:50:22Z</time>
      </trkpt>
      <trkpt lat="48.74222" lon="1.92949">
        <ele>148</ele>
        <time>2010-05-13T11:50:23Z</time>
      </trkpt>
      <trkpt lat="48.74223" lon="1.92946">
        <ele>148</ele>
        <time>2010-05-13T11:50:24Z</time>
      </trkpt>
      <trkpt lat="48.74224" lon="1.92942">
        <ele>149</ele>
        <time>2010-05-13T11:50:25Z</time>
      </trkpt>
      <trkpt lat="48.74225" lon="1.92939">
        <ele>149</ele>
        <time>2010-05-13T11:50:26Z</time>
      </trkpt>
      <trkpt lat="48.74227" lon="1.92935">
        <ele>149</ele>
        <time>2010-05-13T11:50:27Z</time>
      </trkpt>
      <trkpt lat="48.74228" lon="1.92931">
        <ele>149</ele>
        <time>2010-05-13T11:50:28Z</time>
      </trkpt>
      <trkpt lat="48.7423" lon="1.92926">
        <ele>150</ele>
        <time>2010-05-13T11:50:29Z</time>
      </trkpt>
      <trkpt lat="48.74232" lon="1.92921">
        <ele>150</ele>
        <time>2010-05-13T11:50:30Z</time>
      </trkpt>
      <trkpt lat="48.74234" lon="1.92916">
        <ele>150</ele>
        <time>2010-05-13T11:50:31Z</time>
      </trkpt>
      <trkpt lat="48.74236" lon="1.92911">
        <ele>150</ele>
        <time>2010-05-13T11:50:32Z</time>
      </trkpt>
      <trkpt lat="48.74238" lon="1.92907">
        <ele>151</ele>
        <time>2010-05-13T11:50:33Z</time>
      </trkpt>
      <trkpt lat="48.7424" lon="1.92902">
        <ele>151</ele>
        <time>2010-05-13T11:50:34Z</time>
      </trkpt>
      <trkpt lat="48.74242" lon="1.92898">
        <ele>151</ele>
        <time>2010-05-13T11:50:35Z</time>
      </trkpt>
      <trkpt lat="48.74244" lon="1.92894">
        <ele>151</ele>
        <time>2010-05-13T11:50:36Z</time>
      </trkpt>
      <trkpt lat="48.74246" lon="1.92891">
        <ele>151</ele>
        <time>2010-05-13T11:50:37Z</time>
      </trkpt>
      <trkpt lat="48.74247" lon="1.92888">
        <ele>151</ele>
        <time>2010-05-13T11:50:38Z</time>
      </trkpt>
      <trkpt lat="48.74249" lon="1.92885">
        <ele>151</ele>
        <time>2010-05-13T11:50:39Z</time>
      </trkpt>
      <trkpt lat="48.7425" lon="1.92883">
        <ele>152</ele>
        <time>2010-05-13T11:50:40Z</time>
      </trkpt>
      <trkpt lat="48.74251" lon="1.92881">
        <ele>152</ele>
        <time>2010-05-13T11:50:41Z</time>
      </trkpt>
      <trkpt lat="48.74252" lon="1.92879">
        <ele>152</ele>
        <time>2010-05-13T11:50:42Z</time>
      </trkpt>
      <trkpt lat="48.74253" lon="1.92877">
        <ele>152</ele>
        <time>2010-05-13T11:50:43Z</time>
      </trkpt>
      <trkpt lat="48.74254" lon="1.92875">
        <ele>152</ele>
        <time>2010-05-13T11:50:44Z</time>
      </trkpt>
      <trkpt lat="48.74255" lon="1.92873">
        <ele>152</ele>
        <time>2010-05-13T11:50:45Z</time>
      </trkpt>
      <trkpt lat="48.74256" lon="1.92871">
        <ele>152</ele>
        <time>2010-05-13T11:50:46Z</time>
      </trkpt>
      <trkpt lat="48.74256" lon="1.9287">
        <ele>152</ele>
        <time>2010-05-13T11:50:47Z</time>
      </trkpt>
      <trkpt lat="48.74258" lon="1.92867">
        <ele>152</ele>
        <time>2010-05-13T11:50:49Z</time>
      </trkpt>
      <trkpt lat="48.74259" lon="1.92866">
        <ele>153</ele>
        <time>2010-05-13T11:50:50Z</time>
      </trkpt>
      <trkpt lat="48.74261" lon="1.92865">
        <ele>153</ele>
        <time>2010-05-13T11:50:51Z</time>
      </trkpt>
      <trkpt lat="48.74262" lon="1.92865">
        <ele>153</ele>
        <time>2010-05-13T11:50:52Z</time>
      </trkpt>
      <trkpt lat="48.74264" lon="1.92863">
        <ele>153</ele>
        <time>2010-05-13T11:50:54Z</time>
      </trkpt>
      <trkpt lat="48.74265" lon="1.92864">
        <ele>154</ele>
        <time>2010-05-13T11:50:59Z</time>
      </trkpt>
      <trkpt lat="48.74267" lon="1.92864">
        <ele>154</ele>
        <time>2010-05-13T11:51:01Z</time>
      </trkpt>
      <trkpt lat="48.74268" lon="1.92863">
        <ele>154</ele>
        <time>2010-05-13T11:51:02Z</time>
      </trkpt>
      <trkpt lat="48.7427" lon="1.92863">
        <ele>154</ele>
        <time>2010-05-13T11:51:03Z</time>
      </trkpt>
      <trkpt lat="48.74271" lon="1.92863">
        <ele>154</ele>
        <time>2010-05-13T11:51:04Z</time>
      </trkpt>
      <trkpt lat="48.74272" lon="1.92862">
        <ele>154</ele>
        <time>2010-05-13T11:51:05Z</time>
      </trkpt>
      <trkpt lat="48.74274" lon="1.92862">
        <ele>154</ele>
        <time>2010-05-13T11:51:06Z</time>
      </trkpt>
      <trkpt lat="48.74275" lon="1.92861">
        <ele>154</ele>
        <time>2010-05-13T11:51:07Z</time>
      </trkpt>
      <trkpt lat="48.74277" lon="1.9286">
        <ele>154</ele>
        <time>2010-05-13T11:51:08Z</time>
      </trkpt>
      <trkpt lat="48.74278" lon="1.92859">
        <ele>155</ele>
        <time>2010-05-13T11:51:09Z</time>
      </trkpt>
      <trkpt lat="48.7428" lon="1.92858">
        <ele>155</ele>
        <time>2010-05-13T11:51:10Z</time>
      </trkpt>
      <trkpt lat="48.74281" lon="1.92857">
        <ele>155</ele>
        <time>2010-05-13T11:51:11Z</time>
      </trkpt>
      <trkpt lat="48.74283" lon="1.92856">
        <ele>155</ele>
        <time>2010-05-13T11:51:12Z</time>
      </trkpt>
      <trkpt lat="48.74284" lon="1.92855">
        <ele>155</ele>
        <time>2010-05-13T11:51:13Z</time>
      </trkpt>
      <trkpt lat="48.74286" lon="1.92854">
        <ele>155</ele>
        <time>2010-05-13T11:51:14Z</time>
      </trkpt>
      <trkpt lat="48.74287" lon="1.92852">
        <ele>155</ele>
        <time>2010-05-13T11:51:15Z</time>
      </trkpt>
      <trkpt lat="48.74289" lon="1.92851">
        <ele>155</ele>
        <time>2010-05-13T11:51:16Z</time>
      </trkpt>
      <trkpt lat="48.7429" lon="1.9285">
        <ele>155</ele>
        <time>2010-05-13T11:51:17Z</time>
      </trkpt>
      <trkpt lat="48.74292" lon="1.92849">
        <ele>155</ele>
        <time>2010-05-13T11:51:18Z</time>
      </trkpt>
      <trkpt lat="48.74293" lon="1.92847">
        <ele>156</ele>
        <time>2010-05-13T11:51:19Z</time>
      </trkpt>
      <trkpt lat="48.74295" lon="1.92845">
        <ele>156</ele>
        <time>2010-05-13T11:51:20Z</time>
      </trkpt>
      <trkpt lat="48.74296" lon="1.92844">
        <ele>156</ele>
        <time>2010-05-13T11:51:21Z</time>
      </trkpt>
      <trkpt lat="48.74297" lon="1.92842">
        <ele>156</ele>
        <time>2010-05-13T11:51:22Z</time>
      </trkpt>
      <trkpt lat="48.74299" lon="1.92841">
        <ele>156</ele>
        <time>2010-05-13T11:51:23Z</time>
      </trkpt>
      <trkpt lat="48.743" lon="1.92839">
        <ele>156</ele>
        <time>2010-05-13T11:51:24Z</time>
      </trkpt>
      <trkpt lat="48.74302" lon="1.92838">
        <ele>156</ele>
        <time>2010-05-13T11:51:25Z</time>
      </trkpt>
      <trkpt lat="48.74303" lon="1.92836">
        <ele>156</ele>
        <time>2010-05-13T11:51:26Z</time>
      </trkpt>
      <trkpt lat="48.74304" lon="1.92835">
        <ele>156</ele>
        <time>2010-05-13T11:51:27Z</time>
      </trkpt>
      <trkpt lat="48.74305" lon="1.92834">
        <ele>156</ele>
        <time>2010-05-13T11:51:28Z</time>
      </trkpt>
      <trkpt lat="48.74307" lon="1.92831">
        <ele>156</ele>
        <time>2010-05-13T11:51:30Z</time>
      </trkpt>
      <trkpt lat="48.74307" lon="1.92829">
        <ele>156</ele>
        <time>2010-05-13T11:51:31Z</time>
      </trkpt>
      <trkpt lat="48.74307" lon="1.92826">
        <ele>156</ele>
        <time>2010-05-13T11:51:32Z</time>
      </trkpt>
      <trkpt lat="48.74307" lon="1.92824">
        <ele>156</ele>
        <time>2010-05-13T11:51:33Z</time>
      </trkpt>
      <trkpt lat="48.74307" lon="1.92822">
        <ele>156</ele>
        <time>2010-05-13T11:51:34Z</time>
      </trkpt>
      <trkpt lat="48.74308" lon="1.92819">
        <ele>156</ele>
        <time>2010-05-13T11:51:36Z</time>
      </trkpt>
      <trkpt lat="48.74309" lon="1.92817">
        <ele>156</ele>
        <time>2010-05-13T11:51:38Z</time>
      </trkpt>
      <trkpt lat="48.74311" lon="1.92814">
        <ele>157</ele>
        <time>2010-05-13T11:51:40Z</time>
      </trkpt>
      <trkpt lat="48.74312" lon="1.92812">
        <ele>157</ele>
        <time>2010-05-13T11:51:41Z</time>
      </trkpt>
      <trkpt lat="48.74313" lon="1.9281">
        <ele>157</ele>
        <time>2010-05-13T11:51:42Z</time>
      </trkpt>
      <trkpt lat="48.74314" lon="1.92809">
        <ele>157</ele>
        <time>2010-05-13T11:51:43Z</time>
      </trkpt>
      <trkpt lat="48.74315" lon="1.92807">
        <ele>157</ele>
        <time>2010-05-13T11:51:44Z</time>
      </trkpt>
      <trkpt lat="48.74316" lon="1.92805">
        <ele>157</ele>
        <time>2010-05-13T11:51:45Z</time>
      </trkpt>
      <trkpt lat="48.74317" lon="1.92804">
        <ele>157</ele>
        <time>2010-05-13T11:51:46Z</time>
      </trkpt>
      <trkpt lat="48.74318" lon="1.92802">
        <ele>157</ele>
        <time>2010-05-13T11:51:47Z</time>
      </trkpt>
      <trkpt lat="48.74319" lon="1.928">
        <ele>157</ele>
        <time>2010-05-13T11:51:48Z</time>
      </trkpt>
      <trkpt lat="48.7432" lon="1.92799">
        <ele>157</ele>
        <time>2010-05-13T11:51:49Z</time>
      </trkpt>
      <trkpt lat="48.7432" lon="1.92797">
        <ele>157</ele>
        <time>2010-05-13T11:51:50Z</time>
      </trkpt>
      <trkpt lat="48.74321" lon="1.92795">
        <ele>157</ele>
        <time>2010-05-13T11:51:51Z</time>
      </trkpt>
      <trkpt lat="48.74322" lon="1.92793">
        <ele>157</ele>
        <time>2010-05-13T11:51:52Z</time>
      </trkpt>
      <trkpt lat="48.74323" lon="1.92792">
        <ele>157</ele>
        <time>2010-05-13T11:51:53Z</time>
      </trkpt>
      <trkpt lat="48.74323" lon="1.9279">
        <ele>157</ele>
        <time>2010-05-13T11:51:54Z</time>
      </trkpt>
      <trkpt lat="48.74324" lon="1.92788">
        <ele>157</ele>
        <time>2010-05-13T11:51:55Z</time>
      </trkpt>
      <trkpt lat="48.74324" lon="1.92786">
        <ele>157</ele>
        <time>2010-05-13T11:51:56Z</time>
      </trkpt>
      <trkpt lat="48.74325" lon="1.92784">
        <ele>157</ele>
        <time>2010-05-13T11:51:57Z</time>
      </trkpt>
      <trkpt lat="48.74325" lon="1.92782">
        <ele>157</ele>
        <time>2010-05-13T11:51:58Z</time>
      </trkpt>
      <trkpt lat="48.74325" lon="1.92781">
        <ele>157</ele>
        <time>2010-05-13T11:51:59Z</time>
      </trkpt>
      <trkpt lat="48.74326" lon="1.92779">
        <ele>157</ele>
        <time>2010-05-13T11:52:00Z</time>
      </trkpt>
      <trkpt lat="48.74326" lon="1.92777">
        <ele>157</ele>
        <time>2010-05-13T11:52:01Z</time>
      </trkpt>
      <trkpt lat="48.74326" lon="1.92775">
        <ele>157</ele>
        <time>2010-05-13T11:52:02Z</time>
      </trkpt>
      <trkpt lat="48.74326" lon="1.92773">
        <ele>157</ele>
        <time>2010-05-13T11:52:03Z</time>
      </trkpt>
      <trkpt lat="48.74326" lon="1.9277">
        <ele>157</ele>
        <time>2010-05-13T11:52:05Z</time>
      </trkpt>
      <trkpt lat="48.74326" lon="1.92768">
        <ele>157</ele>
        <time>2010-05-13T11:52:06Z</time>
      </trkpt>
      <trkpt lat="48.74326" lon="1.92766">
        <ele>157</ele>
        <time>2010-05-13T11:52:07Z</time>
      </trkpt>
      <trkpt lat="48.74327" lon="1.92764">
        <ele>157</ele>
        <time>2010-05-13T11:52:08Z</time>
      </trkpt>
      <trkpt lat="48.74327" lon="1.92762">
        <ele>157</ele>
        <time>2010-05-13T11:52:09Z</time>
      </trkpt>
      <trkpt lat="48.74328" lon="1.9276">
        <ele>157</ele>
        <time>2010-05-13T11:52:10Z</time>
      </trkpt>
      <trkpt lat="48.74328" lon="1.92758">
        <ele>157</ele>
        <time>2010-05-13T11:52:11Z</time>
      </trkpt>
      <trkpt lat="48.74328" lon="1.92756">
        <ele>157</ele>
        <time>2010-05-13T11:52:12Z</time>
      </trkpt>
      <trkpt lat="48.74329" lon="1.92754">
        <ele>157</ele>
        <time>2010-05-13T11:52:13Z</time>
      </trkpt>
      <trkpt lat="48.74329" lon="1.92752">
        <ele>157</ele>
        <time>2010-05-13T11:52:14Z</time>
      </trkpt>
      <trkpt lat="48.74329" lon="1.92749">
        <ele>157</ele>
        <time>2010-05-13T11:52:15Z</time>
      </trkpt>
      <trkpt lat="48.74329" lon="1.92747">
        <ele>157</ele>
        <time>2010-05-13T11:52:16Z</time>
      </trkpt>
      <trkpt lat="48.74329" lon="1.92745">
        <ele>157</ele>
        <time>2010-05-13T11:52:17Z</time>
      </trkpt>
      <trkpt lat="48.7433" lon="1.92743">
        <ele>157</ele>
        <time>2010-05-13T11:52:18Z</time>
      </trkpt>
      <trkpt lat="48.7433" lon="1.92741">
        <ele>157</ele>
        <time>2010-05-13T11:52:19Z</time>
      </trkpt>
      <trkpt lat="48.7433" lon="1.92739">
        <ele>157</ele>
        <time>2010-05-13T11:52:20Z</time>
      </trkpt>
      <trkpt lat="48.7433" lon="1.92736">
        <ele>157</ele>
        <time>2010-05-13T11:52:21Z</time>
      </trkpt>
      <trkpt lat="48.74329" lon="1.92734">
        <ele>157</ele>
        <time>2010-05-13T11:52:22Z</time>
      </trkpt>
      <trkpt lat="48.74327" lon="1.92731">
        <ele>157</ele>
        <time>2010-05-13T11:52:23Z</time>
      </trkpt>
      <trkpt lat="48.74326" lon="1.92729">
        <ele>157</ele>
        <time>2010-05-13T11:52:24Z</time>
      </trkpt>
      <trkpt lat="48.74324" lon="1.92728">
        <ele>157</ele>
        <time>2010-05-13T11:52:25Z</time>
      </trkpt>
      <trkpt lat="48.74323" lon="1.92727">
        <ele>157</ele>
        <time>2010-05-13T11:52:26Z</time>
      </trkpt>
      <trkpt lat="48.74321" lon="1.92727">
        <ele>157</ele>
        <time>2010-05-13T11:52:27Z</time>
      </trkpt>
      <trkpt lat="48.7432" lon="1.92726">
        <ele>157</ele>
        <time>2010-05-13T11:52:28Z</time>
      </trkpt>
      <trkpt lat="48.74318" lon="1.92725">
        <ele>157</ele>
        <time>2010-05-13T11:52:29Z</time>
      </trkpt>
      <trkpt lat="48.74316" lon="1.92724">
        <ele>157</ele>
        <time>2010-05-13T11:52:30Z</time>
      </trkpt>
      <trkpt lat="48.74314" lon="1.92723">
        <ele>157</ele>
        <time>2010-05-13T11:52:31Z</time>
      </trkpt>
      <trkpt lat="48.74312" lon="1.92722">
        <ele>157</ele>
        <time>2010-05-13T11:52:32Z</time>
      </trkpt>
      <trkpt lat="48.74311" lon="1.9272">
        <ele>157</ele>
        <time>2010-05-13T11:52:33Z</time>
      </trkpt>
      <trkpt lat="48.74309" lon="1.92719">
        <ele>157</ele>
        <time>2010-05-13T11:52:34Z</time>
      </trkpt>
      <trkpt lat="48.74307" lon="1.92717">
        <ele>157</ele>
        <time>2010-05-13T11:52:35Z</time>
      </trkpt>
      <trkpt lat="48.74306" lon="1.92716">
        <ele>157</ele>
        <time>2010-05-13T11:52:36Z</time>
      </trkpt>
      <trkpt lat="48.74304" lon="1.92714">
        <ele>157</ele>
        <time>2010-05-13T11:52:37Z</time>
      </trkpt>
      <trkpt lat="48.74303" lon="1.92713">
        <ele>157</ele>
        <time>2010-05-13T11:52:38Z</time>
      </trkpt>
      <trkpt lat="48.74301" lon="1.92711">
        <ele>157</ele>
        <time>2010-05-13T11:52:39Z</time>
      </trkpt>
      <trkpt lat="48.74299" lon="1.92709">
        <ele>157</ele>
        <time>2010-05-13T11:52:40Z</time>
      </trkpt>
      <trkpt lat="48.74298" lon="1.92707">
        <ele>157</ele>
        <time>2010-05-13T11:52:41Z</time>
      </trkpt>
      <trkpt lat="48.74296" lon="1.92705">
        <ele>157</ele>
        <time>2010-05-13T11:52:42Z</time>
      </trkpt>
      <trkpt lat="48.74294" lon="1.92703">
        <ele>157</ele>
        <time>2010-05-13T11:52:43Z</time>
      </trkpt>
      <trkpt lat="48.74292" lon="1.92702">
        <ele>158</ele>
        <time>2010-05-13T11:52:44Z</time>
      </trkpt>
      <trkpt lat="48.74291" lon="1.927">
        <ele>158</ele>
        <time>2010-05-13T11:52:45Z</time>
      </trkpt>
      <trkpt lat="48.74289" lon="1.92698">
        <ele>158</ele>
        <time>2010-05-13T11:52:46Z</time>
      </trkpt>
      <trkpt lat="48.74288" lon="1.92697">
        <ele>158</ele>
        <time>2010-05-13T11:52:47Z</time>
      </trkpt>
      <trkpt lat="48.74287" lon="1.92695">
        <ele>158</ele>
        <time>2010-05-13T11:52:48Z</time>
      </trkpt>
      <trkpt lat="48.74286" lon="1.92694">
        <ele>158</ele>
        <time>2010-05-13T11:52:49Z</time>
      </trkpt>
      <trkpt lat="48.74284" lon="1.92692">
        <ele>158</ele>
        <time>2010-05-13T11:52:50Z</time>
      </trkpt>
      <trkpt lat="48.74283" lon="1.92691">
        <ele>159</ele>
        <time>2010-05-13T11:52:51Z</time>
      </trkpt>
      <trkpt lat="48.74282" lon="1.92689">
        <ele>159</ele>
        <time>2010-05-13T11:52:52Z</time>
      </trkpt>
      <trkpt lat="48.74281" lon="1.92688">
        <ele>159</ele>
        <time>2010-05-13T11:52:53Z</time>
      </trkpt>
      <trkpt lat="48.74279" lon="1.92686">
        <ele>159</ele>
        <time>2010-05-13T11:52:54Z</time>
      </trkpt>
      <trkpt lat="48.74278" lon="1.92685">
        <ele>159</ele>
        <time>2010-05-13T11:52:55Z</time>
      </trkpt>
      <trkpt lat="48.74277" lon="1.92683">
        <ele>159</ele>
        <time>2010-05-13T11:52:56Z</time>
      </trkpt>
      <trkpt lat="48.74275" lon="1.9268">
        <ele>159</ele>
        <time>2010-05-13T11:52:58Z</time>
      </trkpt>
      <trkpt lat="48.74274" lon="1.92678">
        <ele>159</ele>
        <time>2010-05-13T11:52:59Z</time>
      </trkpt>
      <trkpt lat="48.74272" lon="1.92677">
        <ele>159</ele>
        <time>2010-05-13T11:53:00Z</time>
      </trkpt>
      <trkpt lat="48.74271" lon="1.92675">
        <ele>159</ele>
        <time>2010-05-13T11:53:01Z</time>
      </trkpt>
      <trkpt lat="48.7427" lon="1.92674">
        <ele>160</ele>
        <time>2010-05-13T11:53:02Z</time>
      </trkpt>
      <trkpt lat="48.74268" lon="1.92671">
        <ele>160</ele>
        <time>2010-05-13T11:53:04Z</time>
      </trkpt>
      <trkpt lat="48.74266" lon="1.92669">
        <ele>160</ele>
        <time>2010-05-13T11:53:05Z</time>
      </trkpt>
      <trkpt lat="48.74265" lon="1.92668">
        <ele>160</ele>
        <time>2010-05-13T11:53:06Z</time>
      </trkpt>
      <trkpt lat="48.74264" lon="1.92666">
        <ele>160</ele>
        <time>2010-05-13T11:53:07Z</time>
      </trkpt>
      <trkpt lat="48.74264" lon="1.92664">
        <ele>160</ele>
        <time>2010-05-13T11:53:08Z</time>
      </trkpt>
      <trkpt lat="48.74263" lon="1.92662">
        <ele>160</ele>
        <time>2010-05-13T11:53:09Z</time>
      </trkpt>
      <trkpt lat="48.74262" lon="1.9266">
        <ele>160</ele>
        <time>2010-05-13T11:53:10Z</time>
      </trkpt>
      <trkpt lat="48.74261" lon="1.92658">
        <ele>160</ele>
        <time>2010-05-13T11:53:11Z</time>
      </trkpt>
      <trkpt lat="48.7426" lon="1.92656">
        <ele>160</ele>
        <time>2010-05-13T11:53:12Z</time>
      </trkpt>
      <trkpt lat="48.74259" lon="1.92653">
        <ele>160</ele>
        <time>2010-05-13T11:53:13Z</time>
      </trkpt>
      <trkpt lat="48.74258" lon="1.92651">
        <ele>160</ele>
        <time>2010-05-13T11:53:14Z</time>
      </trkpt>
      <trkpt lat="48.74257" lon="1.92648">
        <ele>160</ele>
        <time>2010-05-13T11:53:15Z</time>
      </trkpt>
      <trkpt lat="48.74256" lon="1.92645">
        <ele>160</ele>
        <time>2010-05-13T11:53:16Z</time>
      </trkpt>
      <trkpt lat="48.74256" lon="1.92643">
        <ele>160</ele>
        <time>2010-05-13T11:53:17Z</time>
      </trkpt>
      <trkpt lat="48.74255" lon="1.9264">
        <ele>160</ele>
        <time>2010-05-13T11:53:18Z</time>
      </trkpt>
      <trkpt lat="48.74254" lon="1.92638">
        <ele>160</ele>
        <time>2010-05-13T11:53:19Z</time>
      </trkpt>
      <trkpt lat="48.74253" lon="1.92636">
        <ele>160</ele>
        <time>2010-05-13T11:53:20Z</time>
      </trkpt>
      <trkpt lat="48.74253" lon="1.92634">
        <ele>160</ele>
        <time>2010-05-13T11:53:21Z</time>
      </trkpt>
      <trkpt lat="48.74252" lon="1.92632">
        <ele>160</ele>
        <time>2010-05-13T11:53:22Z</time>
      </trkpt>
      <trkpt lat="48.74251" lon="1.9263">
        <ele>160</ele>
        <time>2010-05-13T11:53:23Z</time>
      </trkpt>
      <trkpt lat="48.7425" lon="1.92628">
        <ele>160</ele>
        <time>2010-05-13T11:53:24Z</time>
      </trkpt>
      <trkpt lat="48.7425" lon="1.92625">
        <ele>160</ele>
        <time>2010-05-13T11:53:25Z</time>
      </trkpt>
      <trkpt lat="48.74249" lon="1.92623">
        <ele>160</ele>
        <time>2010-05-13T11:53:26Z</time>
      </trkpt>
      <trkpt lat="48.74248" lon="1.92621">
        <ele>160</ele>
        <time>2010-05-13T11:53:27Z</time>
      </trkpt>
      <trkpt lat="48.74248" lon="1.92619">
        <ele>160</ele>
        <time>2010-05-13T11:53:28Z</time>
      </trkpt>
      <trkpt lat="48.74247" lon="1.92617">
        <ele>160</ele>
        <time>2010-05-13T11:53:29Z</time>
      </trkpt>
      <trkpt lat="48.74246" lon="1.92615">
        <ele>160</ele>
        <time>2010-05-13T11:53:30Z</time>
      </trkpt>
      <trkpt lat="48.74245" lon="1.92613">
        <ele>160</ele>
        <time>2010-05-13T11:53:31Z</time>
      </trkpt>
      <trkpt lat="48.74245" lon="1.92611">
        <ele>160</ele>
        <time>2010-05-13T11:53:32Z</time>
      </trkpt>
      <trkpt lat="48.74244" lon="1.92609">
        <ele>160</ele>
        <time>2010-05-13T11:53:33Z</time>
      </trkpt>
      <trkpt lat="48.74244" lon="1.92607">
        <ele>160</ele>
        <time>2010-05-13T11:53:34Z</time>
      </trkpt>
      <trkpt lat="48.74243" lon="1.92605">
        <ele>160</ele>
        <time>2010-05-13T11:53:35Z</time>
      </trkpt>
      <trkpt lat="48.74242" lon="1.92603">
        <ele>160</ele>
        <time>2010-05-13T11:53:36Z</time>
      </trkpt>
      <trkpt lat="48.74242" lon="1.926">
        <ele>160</ele>
        <time>2010-05-13T11:53:37Z</time>
      </trkpt>
      <trkpt lat="48.74241" lon="1.92598">
        <ele>160</ele>
        <time>2010-05-13T11:53:38Z</time>
      </trkpt>
      <trkpt lat="48.7424" lon="1.92596">
        <ele>160</ele>
        <time>2010-05-13T11:53:39Z</time>
      </trkpt>
      <trkpt lat="48.7424" lon="1.92594">
        <ele>160</ele>
        <time>2010-05-13T11:53:40Z</time>
      </trkpt>
      <trkpt lat="48.74239" lon="1.92592">
        <ele>160</ele>
        <time>2010-05-13T11:53:41Z</time>
      </trkpt>
      <trkpt lat="48.74238" lon="1.9259">
        <ele>160</ele>
        <time>2010-05-13T11:53:42Z</time>
      </trkpt>
      <trkpt lat="48.74237" lon="1.92588">
        <ele>160</ele>
        <time>2010-05-13T11:53:43Z</time>
      </trkpt>
      <trkpt lat="48.74237" lon="1.92586">
        <ele>160</ele>
        <time>2010-05-13T11:53:44Z</time>
      </trkpt>
      <trkpt lat="48.74236" lon="1.92583">
        <ele>160</ele>
        <time>2010-05-13T11:53:45Z</time>
      </trkpt>
      <trkpt lat="48.74235" lon="1.92581">
        <ele>160</ele>
        <time>2010-05-13T11:53:46Z</time>
      </trkpt>
      <trkpt lat="48.74234" lon="1.92579">
        <ele>160</ele>
        <time>2010-05-13T11:53:47Z</time>
      </trkpt>
      <trkpt lat="48.74233" lon="1.92576">
        <ele>160</ele>
        <time>2010-05-13T11:53:48Z</time>
      </trkpt>
      <trkpt lat="48.74232" lon="1.92574">
        <ele>160</ele>
        <time>2010-05-13T11:53:49Z</time>
      </trkpt>
      <trkpt lat="48.74231" lon="1.92571">
        <ele>160</ele>
        <time>2010-05-13T11:53:50Z</time>
      </trkpt>
      <trkpt lat="48.7423" lon="1.92569">
        <ele>160</ele>
        <time>2010-05-13T11:53:51Z</time>
      </trkpt>
      <trkpt lat="48.74229" lon="1.92566">
        <ele>160</ele>
        <time>2010-05-13T11:53:52Z</time>
      </trkpt>
      <trkpt lat="48.74229" lon="1.92564">
        <ele>160</ele>
        <time>2010-05-13T11:53:53Z</time>
      </trkpt>
      <trkpt lat="48.74228" lon="1.92562">
        <ele>160</ele>
        <time>2010-05-13T11:53:54Z</time>
      </trkpt>
      <trkpt lat="48.74227" lon="1.92559">
        <ele>160</ele>
        <time>2010-05-13T11:53:55Z</time>
      </trkpt>
      <trkpt lat="48.74227" lon="1.92557">
        <ele>160</ele>
        <time>2010-05-13T11:53:56Z</time>
      </trkpt>
      <trkpt lat="48.74226" lon="1.92555">
        <ele>160</ele>
        <time>2010-05-13T11:53:57Z</time>
      </trkpt>
      <trkpt lat="48.74225" lon="1.92553">
        <ele>160</ele>
        <time>2010-05-13T11:53:58Z</time>
      </trkpt>
      <trkpt lat="48.74224" lon="1.9255">
        <ele>160</ele>
        <time>2010-05-13T11:53:59Z</time>
      </trkpt>
      <trkpt lat="48.74224" lon="1.92548">
        <ele>160</ele>
        <time>2010-05-13T11:54:00Z</time>
      </trkpt>
      <trkpt lat="48.74223" lon="1.92546">
        <ele>160</ele>
        <time>2010-05-13T11:54:01Z</time>
      </trkpt>
      <trkpt lat="48.74222" lon="1.92544">
        <ele>160</ele>
        <time>2010-05-13T11:54:02Z</time>
      </trkpt>
      <trkpt lat="48.74221" lon="1.92542">
        <ele>160</ele>
        <time>2010-05-13T11:54:03Z</time>
      </trkpt>
      <trkpt lat="48.74221" lon="1.92539">
        <ele>160</ele>
        <time>2010-05-13T11:54:04Z</time>
      </trkpt>
      <trkpt lat="48.7422" lon="1.92537">
        <ele>160</ele>
        <time>2010-05-13T11:54:05Z</time>
      </trkpt>
      <trkpt lat="48.7422" lon="1.92534">
        <ele>160</ele>
        <time>2010-05-13T11:54:06Z</time>
      </trkpt>
      <trkpt lat="48.74219" lon="1.92532">
        <ele>160</ele>
        <time>2010-05-13T11:54:07Z</time>
      </trkpt>
      <trkpt lat="48.74218" lon="1.92529">
        <ele>160</ele>
        <time>2010-05-13T11:54:08Z</time>
      </trkpt>
      <trkpt lat="48.74217" lon="1.92527">
        <ele>160</ele>
        <time>2010-05-13T11:54:09Z</time>
      </trkpt>
      <trkpt lat="48.74217" lon="1.92525">
        <ele>160</ele>
        <time>2010-05-13T11:54:10Z</time>
      </trkpt>
      <trkpt lat="48.74216" lon="1.92523">
        <ele>160</ele>
        <time>2010-05-13T11:54:11Z</time>
      </trkpt>
      <trkpt lat="48.74215" lon="1.92521">
        <ele>160</ele>
        <time>2010-05-13T11:54:12Z</time>
      </trkpt>
      <trkpt lat="48.74215" lon="1.92518">
        <ele>160</ele>
        <time>2010-05-13T11:54:13Z</time>
      </trkpt>
      <trkpt lat="48.74214" lon="1.92516">
        <ele>160</ele>
        <time>2010-05-13T11:54:14Z</time>
      </trkpt>
      <trkpt lat="48.74213" lon="1.92513">
        <ele>160</ele>
        <time>2010-05-13T11:54:15Z</time>
      </trkpt>
      <trkpt lat="48.74212" lon="1.9251">
        <ele>160</ele>
        <time>2010-05-13T11:54:16Z</time>
      </trkpt>
      <trkpt lat="48.74211" lon="1.92507">
        <ele>160</ele>
        <time>2010-05-13T11:54:17Z</time>
      </trkpt>
      <trkpt lat="48.7421" lon="1.92504">
        <ele>160</ele>
        <time>2010-05-13T11:54:18Z</time>
      </trkpt>
      <trkpt lat="48.74209" lon="1.92502">
        <ele>160</ele>
        <time>2010-05-13T11:54:19Z</time>
      </trkpt>
      <trkpt lat="48.74208" lon="1.92499">
        <ele>160</ele>
        <time>2010-05-13T11:54:20Z</time>
      </trkpt>
      <trkpt lat="48.74208" lon="1.92497">
        <ele>160</ele>
        <time>2010-05-13T11:54:21Z</time>
      </trkpt>
      <trkpt lat="48.74207" lon="1.92495">
        <ele>160</ele>
        <time>2010-05-13T11:54:22Z</time>
      </trkpt>
      <trkpt lat="48.74206" lon="1.92493">
        <ele>160</ele>
        <time>2010-05-13T11:54:23Z</time>
      </trkpt>
      <trkpt lat="48.74205" lon="1.9249">
        <ele>160</ele>
        <time>2010-05-13T11:54:24Z</time>
      </trkpt>
      <trkpt lat="48.74204" lon="1.92488">
        <ele>160</ele>
        <time>2010-05-13T11:54:25Z</time>
      </trkpt>
      <trkpt lat="48.74204" lon="1.92485">
        <ele>160</ele>
        <time>2010-05-13T11:54:26Z</time>
      </trkpt>
      <trkpt lat="48.74203" lon="1.92483">
        <ele>160</ele>
        <time>2010-05-13T11:54:27Z</time>
      </trkpt>
      <trkpt lat="48.74202" lon="1.9248">
        <ele>160</ele>
        <time>2010-05-13T11:54:28Z</time>
      </trkpt>
      <trkpt lat="48.74202" lon="1.92478">
        <ele>160</ele>
        <time>2010-05-13T11:54:29Z</time>
      </trkpt>
      <trkpt lat="48.74201" lon="1.92476">
        <ele>160</ele>
        <time>2010-05-13T11:54:30Z</time>
      </trkpt>
      <trkpt lat="48.742" lon="1.92473">
        <ele>160</ele>
        <time>2010-05-13T11:54:31Z</time>
      </trkpt>
      <trkpt lat="48.742" lon="1.92471">
        <ele>160</ele>
        <time>2010-05-13T11:54:32Z</time>
      </trkpt>
      <trkpt lat="48.742" lon="1.92469">
        <ele>160</ele>
        <time>2010-05-13T11:54:33Z</time>
      </trkpt>
      <trkpt lat="48.74199" lon="1.92467">
        <ele>160</ele>
        <time>2010-05-13T11:54:34Z</time>
      </trkpt>
      <trkpt lat="48.74199" lon="1.92465">
        <ele>160</ele>
        <time>2010-05-13T11:54:35Z</time>
      </trkpt>
      <trkpt lat="48.742" lon="1.92463">
        <ele>160</ele>
        <time>2010-05-13T11:54:36Z</time>
      </trkpt>
      <trkpt lat="48.742" lon="1.92461">
        <ele>160</ele>
        <time>2010-05-13T11:54:37Z</time>
      </trkpt>
      <trkpt lat="48.74201" lon="1.92459">
        <ele>160</ele>
        <time>2010-05-13T11:54:38Z</time>
      </trkpt>
      <trkpt lat="48.74202" lon="1.92457">
        <ele>160</ele>
        <time>2010-05-13T11:54:39Z</time>
      </trkpt>
      <trkpt lat="48.74203" lon="1.92455">
        <ele>160</ele>
        <time>2010-05-13T11:54:40Z</time>
      </trkpt>
      <trkpt lat="48.74204" lon="1.92453">
        <ele>160</ele>
        <time>2010-05-13T11:54:41Z</time>
      </trkpt>
      <trkpt lat="48.74205" lon="1.9245">
        <ele>160</ele>
        <time>2010-05-13T11:54:42Z</time>
      </trkpt>
      <trkpt lat="48.74206" lon="1.92448">
        <ele>160</ele>
        <time>2010-05-13T11:54:43Z</time>
      </trkpt>
      <trkpt lat="48.74207" lon="1.92446">
        <ele>160</ele>
        <time>2010-05-13T11:54:44Z</time>
      </trkpt>
      <trkpt lat="48.74209" lon="1.92443">
        <ele>160</ele>
        <time>2010-05-13T11:54:45Z</time>
      </trkpt>
      <trkpt lat="48.7421" lon="1.92441">
        <ele>160</ele>
        <time>2010-05-13T11:54:46Z</time>
      </trkpt>
      <trkpt lat="48.74211" lon="1.92439">
        <ele>160</ele>
        <time>2010-05-13T11:54:47Z</time>
      </trkpt>
      <trkpt lat="48.74213" lon="1.92437">
        <ele>160</ele>
        <time>2010-05-13T11:54:48Z</time>
      </trkpt>
      <trkpt lat="48.74214" lon="1.92435">
        <ele>160</ele>
        <time>2010-05-13T11:54:49Z</time>
      </trkpt>
      <trkpt lat="48.74215" lon="1.92433">
        <ele>160</ele>
        <time>2010-05-13T11:54:50Z</time>
      </trkpt>
      <trkpt lat="48.74216" lon="1.92432">
        <ele>160</ele>
        <time>2010-05-13T11:54:51Z</time>
      </trkpt>
      <trkpt lat="48.74218" lon="1.9243">
        <ele>160</ele>
        <time>2010-05-13T11:54:52Z</time>
      </trkpt>
      <trkpt lat="48.74219" lon="1.92428">
        <ele>160</ele>
        <time>2010-05-13T11:54:53Z</time>
      </trkpt>
      <trkpt lat="48.7422" lon="1.92426">
        <ele>160</ele>
        <time>2010-05-13T11:54:54Z</time>
      </trkpt>
      <trkpt lat="48.74221" lon="1.92424">
        <ele>160</ele>
        <time>2010-05-13T11:54:55Z</time>
      </trkpt>
      <trkpt lat="48.74222" lon="1.92422">
        <ele>160</ele>
        <time>2010-05-13T11:54:56Z</time>
      </trkpt>
      <trkpt lat="48.74225" lon="1.92419">
        <ele>160</ele>
        <time>2010-05-13T11:54:58Z</time>
      </trkpt>
      <trkpt lat="48.74226" lon="1.92417">
        <ele>160</ele>
        <time>2010-05-13T11:54:59Z</time>
      </trkpt>
      <trkpt lat="48.74227" lon="1.92415">
        <ele>160</ele>
        <time>2010-05-13T11:55:00Z</time>
      </trkpt>
      <trkpt lat="48.74229" lon="1.92413">
        <ele>160</ele>
        <time>2010-05-13T11:55:01Z</time>
      </trkpt>
      <trkpt lat="48.7423" lon="1.92411">
        <ele>160</ele>
        <time>2010-05-13T11:55:02Z</time>
      </trkpt>
      <trkpt lat="48.74231" lon="1.92409">
        <ele>160</ele>
        <time>2010-05-13T11:55:03Z</time>
      </trkpt>
      <trkpt lat="48.74232" lon="1.92407">
        <ele>160</ele>
        <time>2010-05-13T11:55:04Z</time>
      </trkpt>
      <trkpt lat="48.74234" lon="1.92405">
        <ele>160</ele>
        <time>2010-05-13T11:55:05Z</time>
      </trkpt>
      <trkpt lat="48.74235" lon="1.92403">
        <ele>160</ele>
        <time>2010-05-13T11:55:06Z</time>
      </trkpt>
      <trkpt lat="48.74236" lon="1.92402">
        <ele>160</ele>
        <time>2010-05-13T11:55:07Z</time>
      </trkpt>
      <trkpt lat="48.74237" lon="1.924">
        <ele>160</ele>
        <time>2010-05-13T11:55:08Z</time>
      </trkpt>
      <trkpt lat="48.74238" lon="1.92398">
        <ele>160</ele>
        <time>2010-05-13T11:55:09Z</time>
      </trkpt>
      <trkpt lat="48.74239" lon="1.92397">
        <ele>160</ele>
        <time>2010-05-13T11:55:10Z</time>
      </trkpt>
      <trkpt lat="48.7424" lon="1.92395">
        <ele>160</ele>
        <time>2010-05-13T11:55:11Z</time>
      </trkpt>
      <trkpt lat="48.74242" lon="1.92392">
        <ele>160</ele>
        <time>2010-05-13T11:55:13Z</time>
      </trkpt>
      <trkpt lat="48.74243" lon="1.9239">
        <ele>160</ele>
        <time>2010-05-13T11:55:14Z</time>
      </trkpt>
      <trkpt lat="48.74245" lon="1.92387">
        <ele>160</ele>
        <time>2010-05-13T11:55:16Z</time>
      </trkpt>
      <trkpt lat="48.74247" lon="1.92384">
        <ele>160</ele>
        <time>2010-05-13T11:55:18Z</time>
      </trkpt>
      <trkpt lat="48.74249" lon="1.92381">
        <ele>160</ele>
        <time>2010-05-13T11:55:20Z</time>
      </trkpt>
      <trkpt lat="48.74251" lon="1.92378">
        <ele>160</ele>
        <time>2010-05-13T11:55:22Z</time>
      </trkpt>
      <trkpt lat="48.74253" lon="1.92376">
        <ele>160</ele>
        <time>2010-05-13T11:55:24Z</time>
      </trkpt>
      <trkpt lat="48.74254" lon="1.92374">
        <ele>160</ele>
        <time>2010-05-13T11:55:25Z</time>
      </trkpt>
      <trkpt lat="48.74255" lon="1.92371">
        <ele>160</ele>
        <time>2010-05-13T11:55:27Z</time>
      </trkpt>
      <trkpt lat="48.74256" lon="1.92369">
        <ele>160</ele>
        <time>2010-05-13T11:55:28Z</time>
      </trkpt>
      <trkpt lat="48.74258" lon="1.92366">
        <ele>160</ele>
        <time>2010-05-13T11:55:30Z</time>
      </trkpt>
      <trkpt lat="48.7426" lon="1.92364">
        <ele>160</ele>
        <time>2010-05-13T11:55:32Z</time>
      </trkpt>
      <trkpt lat="48.74262" lon="1.92362">
        <ele>160</ele>
        <time>2010-05-13T11:55:34Z</time>
      </trkpt>
      <trkpt lat="48.74263" lon="1.92361">
        <ele>160</ele>
        <time>2010-05-13T11:55:35Z</time>
      </trkpt>
      <trkpt lat="48.74264" lon="1.92361">
        <ele>160</ele>
        <time>2010-05-13T11:55:36Z</time>
      </trkpt>
      <trkpt lat="48.74266" lon="1.9236">
        <ele>160</ele>
        <time>2010-05-13T11:55:38Z</time>
      </trkpt>
      <trkpt lat="48.74268" lon="1.92358">
        <ele>160</ele>
        <time>2010-05-13T11:55:40Z</time>
      </trkpt>
      <trkpt lat="48.7427" lon="1.92356">
        <ele>160</ele>
        <time>2010-05-13T11:55:42Z</time>
      </trkpt>
      <trkpt lat="48.74272" lon="1.92354">
        <ele>160</ele>
        <time>2010-05-13T11:55:44Z</time>
      </trkpt>
      <trkpt lat="48.74274" lon="1.92352">
        <ele>160</ele>
        <time>2010-05-13T11:55:46Z</time>
      </trkpt>
      <trkpt lat="48.74276" lon="1.9235">
        <ele>160</ele>
        <time>2010-05-13T11:55:48Z</time>
      </trkpt>
      <trkpt lat="48.74278" lon="1.92347">
        <ele>160</ele>
        <time>2010-05-13T11:55:50Z</time>
      </trkpt>
      <trkpt lat="48.7428" lon="1.92344">
        <ele>160</ele>
        <time>2010-05-13T11:55:52Z</time>
      </trkpt>
      <trkpt lat="48.74282" lon="1.92342">
        <ele>160</ele>
        <time>2010-05-13T11:55:54Z</time>
      </trkpt>
      <trkpt lat="48.74283" lon="1.92342">
        <ele>160</ele>
        <time>2010-05-13T11:55:55Z</time>
      </trkpt>
      <trkpt lat="48.74284" lon="1.92341">
        <ele>160</ele>
        <time>2010-05-13T11:55:56Z</time>
      </trkpt>
      <trkpt lat="48.74286" lon="1.92339">
        <ele>160</ele>
        <time>2010-05-13T11:55:58Z</time>
      </trkpt>
      <trkpt lat="48.74288" lon="1.92338">
        <ele>160</ele>
        <time>2010-05-13T11:56:00Z</time>
      </trkpt>
      <trkpt lat="48.74289" lon="1.92337">
        <ele>160</ele>
        <time>2010-05-13T11:56:01Z</time>
      </trkpt>
      <trkpt lat="48.7429" lon="1.92336">
        <ele>160</ele>
        <time>2010-05-13T11:56:02Z</time>
      </trkpt>
      <trkpt lat="48.74292" lon="1.92335">
        <ele>160</ele>
        <time>2010-05-13T11:56:03Z</time>
      </trkpt>
      <trkpt lat="48.74293" lon="1.92334">
        <ele>160</ele>
        <time>2010-05-13T11:56:04Z</time>
      </trkpt>
      <trkpt lat="48.74294" lon="1.92334">
        <ele>160</ele>
        <time>2010-05-13T11:56:05Z</time>
      </trkpt>
      <trkpt lat="48.74295" lon="1.92331">
        <ele>160</ele>
        <time>2010-05-13T11:56:07Z</time>
      </trkpt>
      <trkpt lat="48.74296" lon="1.92329">
        <ele>160</ele>
        <time>2010-05-13T11:56:08Z</time>
      </trkpt>
      <trkpt lat="48.74296" lon="1.92327">
        <ele>160</ele>
        <time>2010-05-13T11:56:09Z</time>
      </trkpt>
      <trkpt lat="48.74296" lon="1.92325">
        <ele>160</ele>
        <time>2010-05-13T11:56:10Z</time>
      </trkpt>
      <trkpt lat="48.74296" lon="1.92323">
        <ele>160</ele>
        <time>2010-05-13T11:56:11Z</time>
      </trkpt>
      <trkpt lat="48.74296" lon="1.92321">
        <ele>160</ele>
        <time>2010-05-13T11:56:12Z</time>
      </trkpt>
      <trkpt lat="48.74296" lon="1.92319">
        <ele>160</ele>
        <time>2010-05-13T11:56:13Z</time>
      </trkpt>
      <trkpt lat="48.74296" lon="1.92317">
        <ele>160</ele>
        <time>2010-05-13T11:56:14Z</time>
      </trkpt>
      <trkpt lat="48.74296" lon="1.92314">
        <ele>160</ele>
        <time>2010-05-13T11:56:15Z</time>
      </trkpt>
      <trkpt lat="48.74296" lon="1.92312">
        <ele>160</ele>
        <time>2010-05-13T11:56:16Z</time>
      </trkpt>
      <trkpt lat="48.74296" lon="1.9231">
        <ele>160</ele>
        <time>2010-05-13T11:56:17Z</time>
      </trkpt>
      <trkpt lat="48.74297" lon="1.92308">
        <ele>160</ele>
        <time>2010-05-13T11:56:18Z</time>
      </trkpt>
      <trkpt lat="48.74297" lon="1.92305">
        <ele>160</ele>
        <time>2010-05-13T11:56:19Z</time>
      </trkpt>
      <trkpt lat="48.74298" lon="1.92302">
        <ele>160</ele>
        <time>2010-05-13T11:56:20Z</time>
      </trkpt>
      <trkpt lat="48.74298" lon="1.92299">
        <ele>160</ele>
        <time>2010-05-13T11:56:21Z</time>
      </trkpt>
      <trkpt lat="48.74299" lon="1.92296">
        <ele>160</ele>
        <time>2010-05-13T11:56:22Z</time>
      </trkpt>
      <trkpt lat="48.743" lon="1.92293">
        <ele>160</ele>
        <time>2010-05-13T11:56:23Z</time>
      </trkpt>
      <trkpt lat="48.743" lon="1.92291">
        <ele>160</ele>
        <time>2010-05-13T11:56:24Z</time>
      </trkpt>
      <trkpt lat="48.74301" lon="1.92288">
        <ele>160</ele>
        <time>2010-05-13T11:56:25Z</time>
      </trkpt>
      <trkpt lat="48.74301" lon="1.92286">
        <ele>160</ele>
        <time>2010-05-13T11:56:26Z</time>
      </trkpt>
      <trkpt lat="48.74301" lon="1.92284">
        <ele>160</ele>
        <time>2010-05-13T11:56:27Z</time>
      </trkpt>
      <trkpt lat="48.74302" lon="1.92282">
        <ele>160</ele>
        <time>2010-05-13T11:56:28Z</time>
      </trkpt>
      <trkpt lat="48.74302" lon="1.9228">
        <ele>160</ele>
        <time>2010-05-13T11:56:29Z</time>
      </trkpt>
      <trkpt lat="48.74302" lon="1.92277">
        <ele>160</ele>
        <time>2010-05-13T11:56:30Z</time>
      </trkpt>
      <trkpt lat="48.74302" lon="1.92275">
        <ele>160</ele>
        <time>2010-05-13T11:56:31Z</time>
      </trkpt>
      <trkpt lat="48.74303" lon="1.92273">
        <ele>160</ele>
        <time>2010-05-13T11:56:32Z</time>
      </trkpt>
      <trkpt lat="48.74303" lon="1.92271">
        <ele>160</ele>
        <time>2010-05-13T11:56:33Z</time>
      </trkpt>
      <trkpt lat="48.74303" lon="1.92268">
        <ele>160</ele>
        <time>2010-05-13T11:56:34Z</time>
      </trkpt>
      <trkpt lat="48.74304" lon="1.92265">
        <ele>160</ele>
        <time>2010-05-13T11:56:35Z</time>
      </trkpt>
      <trkpt lat="48.74304" lon="1.92263">
        <ele>160</ele>
        <time>2010-05-13T11:56:36Z</time>
      </trkpt>
      <trkpt lat="48.74305" lon="1.9226">
        <ele>160</ele>
        <time>2010-05-13T11:56:37Z</time>
      </trkpt>
      <trkpt lat="48.74306" lon="1.92259">
        <ele>160</ele>
        <time>2010-05-13T11:56:38Z</time>
      </trkpt>
      <trkpt lat="48.74306" lon="1.92257">
        <ele>161</ele>
        <time>2010-05-13T11:56:39Z</time>
      </trkpt>
      <trkpt lat="48.74307" lon="1.92255">
        <ele>161</ele>
        <time>2010-05-13T11:56:40Z</time>
      </trkpt>
      <trkpt lat="48.74307" lon="1.92253">
        <ele>161</ele>
        <time>2010-05-13T11:56:41Z</time>
      </trkpt>
      <trkpt lat="48.74308" lon="1.9225">
        <ele>161</ele>
        <time>2010-05-13T11:56:42Z</time>
      </trkpt>
      <trkpt lat="48.74309" lon="1.92248">
        <ele>161</ele>
        <time>2010-05-13T11:56:43Z</time>
      </trkpt>
      <trkpt lat="48.7431" lon="1.92247">
        <ele>161</ele>
        <time>2010-05-13T11:56:44Z</time>
      </trkpt>
      <trkpt lat="48.7431" lon="1.92245">
        <ele>162</ele>
        <time>2010-05-13T11:56:45Z</time>
      </trkpt>
      <trkpt lat="48.74311" lon="1.92243">
        <ele>162</ele>
        <time>2010-05-13T11:56:46Z</time>
      </trkpt>
      <trkpt lat="48.74312" lon="1.9224">
        <ele>162</ele>
        <time>2010-05-13T11:56:47Z</time>
      </trkpt>
      <trkpt lat="48.74313" lon="1.92238">
        <ele>162</ele>
        <time>2010-05-13T11:56:48Z</time>
      </trkpt>
      <trkpt lat="48.74314" lon="1.92236">
        <ele>162</ele>
        <time>2010-05-13T11:56:49Z</time>
      </trkpt>
      <trkpt lat="48.74315" lon="1.92234">
        <ele>162</ele>
        <time>2010-05-13T11:56:50Z</time>
      </trkpt>
      <trkpt lat="48.74316" lon="1.92231">
        <ele>162</ele>
        <time>2010-05-13T11:56:51Z</time>
      </trkpt>
      <trkpt lat="48.74317" lon="1.92229">
        <ele>162</ele>
        <time>2010-05-13T11:56:52Z</time>
      </trkpt>
      <trkpt lat="48.74318" lon="1.92227">
        <ele>162</ele>
        <time>2010-05-13T11:56:53Z</time>
      </trkpt>
      <trkpt lat="48.74319" lon="1.92224">
        <ele>162</ele>
        <time>2010-05-13T11:56:54Z</time>
      </trkpt>
      <trkpt lat="48.74321" lon="1.92222">
        <ele>162</ele>
        <time>2010-05-13T11:56:55Z</time>
      </trkpt>
      <trkpt lat="48.74322" lon="1.92219">
        <ele>162</ele>
        <time>2010-05-13T11:56:56Z</time>
      </trkpt>
      <trkpt lat="48.74323" lon="1.92217">
        <ele>162</ele>
        <time>2010-05-13T11:56:57Z</time>
      </trkpt>
      <trkpt lat="48.74324" lon="1.92215">
        <ele>162</ele>
        <time>2010-05-13T11:56:58Z</time>
      </trkpt>
      <trkpt lat="48.74326" lon="1.92212">
        <ele>162</ele>
        <time>2010-05-13T11:57:00Z</time>
      </trkpt>
      <trkpt lat="48.74327" lon="1.92211">
        <ele>162</ele>
        <time>2010-05-13T11:57:01Z</time>
      </trkpt>
      <trkpt lat="48.74328" lon="1.92209">
        <ele>162</ele>
        <time>2010-05-13T11:57:02Z</time>
      </trkpt>
      <trkpt lat="48.74329" lon="1.92207">
        <ele>162</ele>
        <time>2010-05-13T11:57:03Z</time>
      </trkpt>
      <trkpt lat="48.7433" lon="1.92206">
        <ele>162</ele>
        <time>2010-05-13T11:57:04Z</time>
      </trkpt>
      <trkpt lat="48.74331" lon="1.92204">
        <ele>162</ele>
        <time>2010-05-13T11:57:05Z</time>
      </trkpt>
      <trkpt lat="48.74332" lon="1.92202">
        <ele>162</ele>
        <time>2010-05-13T11:57:06Z</time>
      </trkpt>
      <trkpt lat="48.74333" lon="1.922">
        <ele>162</ele>
        <time>2010-05-13T11:57:07Z</time>
      </trkpt>
      <trkpt lat="48.74335" lon="1.92198">
        <ele>162</ele>
        <time>2010-05-13T11:57:08Z</time>
      </trkpt>
      <trkpt lat="48.74336" lon="1.92197">
        <ele>162</ele>
        <time>2010-05-13T11:57:09Z</time>
      </trkpt>
      <trkpt lat="48.74337" lon="1.92195">
        <ele>162</ele>
        <time>2010-05-13T11:57:10Z</time>
      </trkpt>
      <trkpt lat="48.74338" lon="1.92193">
        <ele>162</ele>
        <time>2010-05-13T11:57:11Z</time>
      </trkpt>
      <trkpt lat="48.74339" lon="1.92192">
        <ele>162</ele>
        <time>2010-05-13T11:57:12Z</time>
      </trkpt>
      <trkpt lat="48.7434" lon="1.9219">
        <ele>162</ele>
        <time>2010-05-13T11:57:13Z</time>
      </trkpt>
      <trkpt lat="48.74341" lon="1.92188">
        <ele>162</ele>
        <time>2010-05-13T11:57:14Z</time>
      </trkpt>
      <trkpt lat="48.74342" lon="1.92186">
        <ele>162</ele>
        <time>2010-05-13T11:57:15Z</time>
      </trkpt>
      <trkpt lat="48.74343" lon="1.92185">
        <ele>162</ele>
        <time>2010-05-13T11:57:16Z</time>
      </trkpt>
      <trkpt lat="48.74344" lon="1.92183">
        <ele>162</ele>
        <time>2010-05-13T11:57:17Z</time>
      </trkpt>
      <trkpt lat="48.74346" lon="1.9218">
        <ele>162</ele>
        <time>2010-05-13T11:57:19Z</time>
      </trkpt>
      <trkpt lat="48.74347" lon="1.92178">
        <ele>162</ele>
        <time>2010-05-13T11:57:20Z</time>
      </trkpt>
      <trkpt lat="48.74349" lon="1.92176">
        <ele>162</ele>
        <time>2010-05-13T11:57:21Z</time>
      </trkpt>
      <trkpt lat="48.7435" lon="1.92174">
        <ele>162</ele>
        <time>2010-05-13T11:57:22Z</time>
      </trkpt>
      <trkpt lat="48.74351" lon="1.92172">
        <ele>162</ele>
        <time>2010-05-13T11:57:23Z</time>
      </trkpt>
      <trkpt lat="48.74353" lon="1.9217">
        <ele>162</ele>
        <time>2010-05-13T11:57:24Z</time>
      </trkpt>
      <trkpt lat="48.74354" lon="1.92169">
        <ele>162</ele>
        <time>2010-05-13T11:57:25Z</time>
      </trkpt>
      <trkpt lat="48.74355" lon="1.92167">
        <ele>162</ele>
        <time>2010-05-13T11:57:26Z</time>
      </trkpt>
      <trkpt lat="48.74357" lon="1.92165">
        <ele>162</ele>
        <time>2010-05-13T11:57:27Z</time>
      </trkpt>
      <trkpt lat="48.74358" lon="1.92163">
        <ele>162</ele>
        <time>2010-05-13T11:57:28Z</time>
      </trkpt>
      <trkpt lat="48.74359" lon="1.92162">
        <ele>162</ele>
        <time>2010-05-13T11:57:29Z</time>
      </trkpt>
      <trkpt lat="48.7436" lon="1.9216">
        <ele>162</ele>
        <time>2010-05-13T11:57:30Z</time>
      </trkpt>
      <trkpt lat="48.7436" lon="1.92158">
        <ele>162</ele>
        <time>2010-05-13T11:57:31Z</time>
      </trkpt>
      <trkpt lat="48.74361" lon="1.92156">
        <ele>162</ele>
        <time>2010-05-13T11:57:32Z</time>
      </trkpt>
      <trkpt lat="48.74361" lon="1.92155">
        <ele>162</ele>
        <time>2010-05-13T11:57:33Z</time>
      </trkpt>
      <trkpt lat="48.74362" lon="1.92153">
        <ele>162</ele>
        <time>2010-05-13T11:57:34Z</time>
      </trkpt>
      <trkpt lat="48.74362" lon="1.92151">
        <ele>162</ele>
        <time>2010-05-13T11:57:35Z</time>
      </trkpt>
      <trkpt lat="48.74362" lon="1.92149">
        <ele>162</ele>
        <time>2010-05-13T11:57:36Z</time>
      </trkpt>
      <trkpt lat="48.74362" lon="1.92147">
        <ele>162</ele>
        <time>2010-05-13T11:57:37Z</time>
      </trkpt>
      <trkpt lat="48.74361" lon="1.92145">
        <ele>162</ele>
        <time>2010-05-13T11:57:39Z</time>
      </trkpt>
      <trkpt lat="48.7436" lon="1.92144">
        <ele>162</ele>
        <time>2010-05-13T11:57:47Z</time>
      </trkpt>
      <trkpt lat="48.7436" lon="1.92142">
        <ele>162</ele>
        <time>2010-05-13T11:57:57Z</time>
      </trkpt>
      <trkpt lat="48.74359" lon="1.9214">
        <ele>162</ele>
        <time>2010-05-13T11:57:59Z</time>
      </trkpt>
      <trkpt lat="48.74358" lon="1.92137">
        <ele>162</ele>
        <time>2010-05-13T11:58:01Z</time>
      </trkpt>
      <trkpt lat="48.74356" lon="1.92134">
        <ele>162</ele>
        <time>2010-05-13T11:58:03Z</time>
      </trkpt>
      <trkpt lat="48.74354" lon="1.92131">
        <ele>162</ele>
        <time>2010-05-13T11:58:05Z</time>
      </trkpt>
      <trkpt lat="48.74353" lon="1.92129">
        <ele>162</ele>
        <time>2010-05-13T11:58:07Z</time>
      </trkpt>
      <trkpt lat="48.74351" lon="1.92128">
        <ele>162</ele>
        <time>2010-05-13T11:58:08Z</time>
      </trkpt>
      <trkpt lat="48.7435" lon="1.92125">
        <ele>162</ele>
        <time>2010-05-13T11:58:10Z</time>
      </trkpt>
      <trkpt lat="48.74349" lon="1.92123">
        <ele>162</ele>
        <time>2010-05-13T11:58:12Z</time>
      </trkpt>
      <trkpt lat="48.74351" lon="1.92123">
        <ele>162</ele>
        <time>2010-05-13T11:58:14Z</time>
      </trkpt>
      <trkpt lat="48.74353" lon="1.92125">
        <ele>162</ele>
        <time>2010-05-13T11:58:16Z</time>
      </trkpt>
      <trkpt lat="48.74353" lon="1.92127">
        <ele>162</ele>
        <time>2010-05-13T11:58:17Z</time>
      </trkpt>
      <trkpt lat="48.74354" lon="1.92129">
        <ele>162</ele>
        <time>2010-05-13T11:58:18Z</time>
      </trkpt>
      <trkpt lat="48.74356" lon="1.92131">
        <ele>162</ele>
        <time>2010-05-13T11:58:20Z</time>
      </trkpt>
      <trkpt lat="48.74358" lon="1.92133">
        <ele>162</ele>
        <time>2010-05-13T11:58:22Z</time>
      </trkpt>
      <trkpt lat="48.74359" lon="1.92134">
        <ele>162</ele>
        <time>2010-05-13T11:58:27Z</time>
      </trkpt>
      <trkpt lat="48.7436" lon="1.92134">
        <ele>162</ele>
        <time>2010-05-13T11:58:38Z</time>
      </trkpt>
      <trkpt lat="48.74362" lon="1.92136">
        <ele>162</ele>
        <time>2010-05-13T11:58:40Z</time>
      </trkpt>
      <trkpt lat="48.74363" lon="1.92139">
        <ele>162</ele>
        <time>2010-05-13T11:58:42Z</time>
      </trkpt>
      <trkpt lat="48.74364" lon="1.92137">
        <ele>162</ele>
        <time>2010-05-13T11:58:46Z</time>
      </trkpt>
      <trkpt lat="48.74361" lon="1.92132">
        <ele>162</ele>
        <time>2010-05-13T11:58:48Z</time>
      </trkpt>
      <trkpt lat="48.74382" lon="1.92121">
        <ele>161</ele>
        <time>2010-05-13T11:59:14Z</time>
      </trkpt>
      <trkpt lat="48.74381" lon="1.92124">
        <ele>161</ele>
        <time>2010-05-13T11:59:15Z</time>
      </trkpt>
      <trkpt lat="48.74383" lon="1.92123">
        <ele>161</ele>
        <time>2010-05-13T11:59:16Z</time>
      </trkpt>
      <trkpt lat="48.74386" lon="1.92122">
        <ele>161</ele>
        <time>2010-05-13T11:59:17Z</time>
      </trkpt>
      <trkpt lat="48.74388" lon="1.92124">
        <ele>161</ele>
        <time>2010-05-13T11:59:19Z</time>
      </trkpt>
      <trkpt lat="48.74389" lon="1.92125">
        <ele>161</ele>
        <time>2010-05-13T11:59:20Z</time>
      </trkpt>
      <trkpt lat="48.74388" lon="1.92127">
        <ele>161</ele>
        <time>2010-05-13T11:59:24Z</time>
      </trkpt>
      <trkpt lat="48.74387" lon="1.92128">
        <ele>161</ele>
        <time>2010-05-13T11:59:31Z</time>
      </trkpt>
      <trkpt lat="48.74385" lon="1.92127">
        <ele>161</ele>
        <time>2010-05-13T11:59:33Z</time>
      </trkpt>
      <trkpt lat="48.74384" lon="1.92126">
        <ele>161</ele>
        <time>2010-05-13T11:59:34Z</time>
      </trkpt>
      <trkpt lat="48.74382" lon="1.92123">
        <ele>161</ele>
        <time>2010-05-13T11:59:36Z</time>
      </trkpt>
      <trkpt lat="48.74382" lon="1.92122">
        <ele>161</ele>
        <time>2010-05-13T11:59:38Z</time>
      </trkpt>
      <trkpt lat="48.7438" lon="1.92121">
        <ele>161</ele>
        <time>2010-05-13T11:59:40Z</time>
      </trkpt>
      <trkpt lat="48.74381" lon="1.92122">
        <ele>162</ele>
        <time>2010-05-13T11:59:44Z</time>
      </trkpt>
      <trkpt lat="48.74382" lon="1.92123">
        <ele>163</ele>
        <time>2010-05-13T11:59:46Z</time>
      </trkpt>
      <trkpt lat="48.74383" lon="1.92125">
        <ele>164</ele>
        <time>2010-05-13T11:59:51Z</time>
      </trkpt>
      <trkpt lat="48.74382" lon="1.92127">
        <ele>164</ele>
        <time>2010-05-13T11:59:58Z</time>
      </trkpt>
      <trkpt lat="48.74384" lon="1.92129">
        <ele>164</ele>
        <time>2010-05-13T12:00:01Z</time>
      </trkpt>
      <trkpt lat="48.74385" lon="1.92131">
        <ele>164</ele>
        <time>2010-05-13T12:00:03Z</time>
      </trkpt>
      <trkpt lat="48.74386" lon="1.92132">
        <ele>164</ele>
        <time>2010-05-13T12:00:05Z</time>
      </trkpt>
      <trkpt lat="48.74388" lon="1.92134">
        <ele>164</ele>
        <time>2010-05-13T12:00:07Z</time>
      </trkpt>
      <trkpt lat="48.74389" lon="1.92135">
        <ele>164</ele>
        <time>2010-05-13T12:00:09Z</time>
      </trkpt>
      <trkpt lat="48.7439" lon="1.92134">
        <ele>164</ele>
        <time>2010-05-13T12:00:11Z</time>
      </trkpt>
      <trkpt lat="48.74389" lon="1.92132">
        <ele>164</ele>
        <time>2010-05-13T12:00:13Z</time>
      </trkpt>
      <trkpt lat="48.74388" lon="1.92129">
        <ele>164</ele>
        <time>2010-05-13T12:00:15Z</time>
      </trkpt>
      <trkpt lat="48.74386" lon="1.92128">
        <ele>164</ele>
        <time>2010-05-13T12:00:16Z</time>
      </trkpt>
      <trkpt lat="48.74385" lon="1.92127">
        <ele>164</ele>
        <time>2010-05-13T12:00:17Z</time>
      </trkpt>
      <trkpt lat="48.74384" lon="1.92125">
        <ele>164</ele>
        <time>2010-05-13T12:00:18Z</time>
      </trkpt>
      <trkpt lat="48.74383" lon="1.92124">
        <ele>164</ele>
        <time>2010-05-13T12:00:19Z</time>
      </trkpt>
      <trkpt lat="48.74381" lon="1.92121">
        <ele>164</ele>
        <time>2010-05-13T12:00:21Z</time>
      </trkpt>
      <trkpt lat="48.74379" lon="1.92118">
        <ele>164</ele>
        <time>2010-05-13T12:00:23Z</time>
      </trkpt>
      <trkpt lat="48.74379" lon="1.92116">
        <ele>164</ele>
        <time>2010-05-13T12:00:24Z</time>
      </trkpt>
      <trkpt lat="48.74378" lon="1.92115">
        <ele>164</ele>
        <time>2010-05-13T12:00:25Z</time>
      </trkpt>
      <trkpt lat="48.74378" lon="1.92113">
        <ele>164</ele>
        <time>2010-05-13T12:00:26Z</time>
      </trkpt>
      <trkpt lat="48.74379" lon="1.92111">
        <ele>164</ele>
        <time>2010-05-13T12:00:28Z</time>
      </trkpt>
      <trkpt lat="48.7438" lon="1.92111">
        <ele>164</ele>
        <time>2010-05-13T12:00:29Z</time>
      </trkpt>
      <trkpt lat="48.74382" lon="1.9211">
        <ele>164</ele>
        <time>2010-05-13T12:00:30Z</time>
      </trkpt>
      <trkpt lat="48.74383" lon="1.92109">
        <ele>164</ele>
        <time>2010-05-13T12:00:32Z</time>
      </trkpt>
      <trkpt lat="48.74385" lon="1.92106">
        <ele>164</ele>
        <time>2010-05-13T12:00:34Z</time>
      </trkpt>
      <trkpt lat="48.74386" lon="1.92103">
        <ele>164</ele>
        <time>2010-05-13T12:00:36Z</time>
      </trkpt>
      <trkpt lat="48.74388" lon="1.921">
        <ele>164</ele>
        <time>2010-05-13T12:00:38Z</time>
      </trkpt>
      <trkpt lat="48.74388" lon="1.92098">
        <ele>164</ele>
        <time>2010-05-13T12:00:39Z</time>
      </trkpt>
      <trkpt lat="48.74388" lon="1.92096">
        <ele>164</ele>
        <time>2010-05-13T12:00:40Z</time>
      </trkpt>
      <trkpt lat="48.74388" lon="1.92095">
        <ele>164</ele>
        <time>2010-05-13T12:00:41Z</time>
      </trkpt>
      <trkpt lat="48.74388" lon="1.92093">
        <ele>164</ele>
        <time>2010-05-13T12:00:42Z</time>
      </trkpt>
      <trkpt lat="48.74387" lon="1.92091">
        <ele>164</ele>
        <time>2010-05-13T12:00:43Z</time>
      </trkpt>
      <trkpt lat="48.74387" lon="1.92089">
        <ele>164</ele>
        <time>2010-05-13T12:00:44Z</time>
      </trkpt>
      <trkpt lat="48.74387" lon="1.92086">
        <ele>164</ele>
        <time>2010-05-13T12:00:46Z</time>
      </trkpt>
      <trkpt lat="48.74387" lon="1.92084">
        <ele>164</ele>
        <time>2010-05-13T12:00:47Z</time>
      </trkpt>
      <trkpt lat="48.74386" lon="1.92082">
        <ele>164</ele>
        <time>2010-05-13T12:00:49Z</time>
      </trkpt>
      <trkpt lat="48.74387" lon="1.92079">
        <ele>164</ele>
        <time>2010-05-13T12:00:51Z</time>
      </trkpt>
      <trkpt lat="48.74388" lon="1.92079">
        <ele>164</ele>
        <time>2010-05-13T12:00:52Z</time>
      </trkpt>
      <trkpt lat="48.74389" lon="1.92079">
        <ele>164</ele>
        <time>2010-05-13T12:00:53Z</time>
      </trkpt>
      <trkpt lat="48.7439" lon="1.92078">
        <ele>164</ele>
        <time>2010-05-13T12:00:54Z</time>
      </trkpt>
      <trkpt lat="48.74392" lon="1.92078">
        <ele>164</ele>
        <time>2010-05-13T12:00:56Z</time>
      </trkpt>
      <trkpt lat="48.74393" lon="1.92078">
        <ele>164</ele>
        <time>2010-05-13T12:00:58Z</time>
      </trkpt>
      <trkpt lat="48.74394" lon="1.92077">
        <ele>164</ele>
        <time>2010-05-13T12:01:04Z</time>
      </trkpt>
      <trkpt lat="48.74396" lon="1.92078">
        <ele>164</ele>
        <time>2010-05-13T12:01:26Z</time>
      </trkpt>
      <trkpt lat="48.74398" lon="1.92078">
        <ele>164</ele>
        <time>2010-05-13T12:01:28Z</time>
      </trkpt>
      <trkpt lat="48.744" lon="1.92077">
        <ele>164</ele>
        <time>2010-05-13T12:01:30Z</time>
      </trkpt>
      <trkpt lat="48.74402" lon="1.92078">
        <ele>164</ele>
        <time>2010-05-13T12:01:32Z</time>
      </trkpt>
      <trkpt lat="48.74404" lon="1.92078">
        <ele>164</ele>
        <time>2010-05-13T12:01:34Z</time>
      </trkpt>
      <trkpt lat="48.74405" lon="1.92078">
        <ele>164</ele>
        <time>2010-05-13T12:01:35Z</time>
      </trkpt>
      <trkpt lat="48.74407" lon="1.92079">
        <ele>164</ele>
        <time>2010-05-13T12:01:36Z</time>
      </trkpt>
      <trkpt lat="48.74408" lon="1.9208">
        <ele>164</ele>
        <time>2010-05-13T12:01:37Z</time>
      </trkpt>
      <trkpt lat="48.74409" lon="1.92082">
        <ele>164</ele>
        <time>2010-05-13T12:01:38Z</time>
      </trkpt>
      <trkpt lat="48.74411" lon="1.92083">
        <ele>164</ele>
        <time>2010-05-13T12:01:39Z</time>
      </trkpt>
      <trkpt lat="48.74412" lon="1.92085">
        <ele>164</ele>
        <time>2010-05-13T12:01:40Z</time>
      </trkpt>
      <trkpt lat="48.74413" lon="1.92087">
        <ele>164</ele>
        <time>2010-05-13T12:01:41Z</time>
      </trkpt>
      <trkpt lat="48.74415" lon="1.92089">
        <ele>164</ele>
        <time>2010-05-13T12:01:42Z</time>
      </trkpt>
      <trkpt lat="48.74416" lon="1.9209">
        <ele>164</ele>
        <time>2010-05-13T12:01:43Z</time>
      </trkpt>
      <trkpt lat="48.74418" lon="1.92092">
        <ele>164</ele>
        <time>2010-05-13T12:01:45Z</time>
      </trkpt>
      <trkpt lat="48.7442" lon="1.92093">
        <ele>164</ele>
        <time>2010-05-13T12:01:47Z</time>
      </trkpt>
      <trkpt lat="48.7442" lon="1.92095">
        <ele>164</ele>
        <time>2010-05-13T12:01:56Z</time>
      </trkpt>
      <trkpt lat="48.74419" lon="1.92096">
        <ele>164</ele>
        <time>2010-05-13T12:01:58Z</time>
      </trkpt>
      <trkpt lat="48.74418" lon="1.92096">
        <ele>164</ele>
        <time>2010-05-13T12:02:00Z</time>
      </trkpt>
      <trkpt lat="48.74418" lon="1.92094">
        <ele>164</ele>
        <time>2010-05-13T12:02:06Z</time>
      </trkpt>
      <trkpt lat="48.7442" lon="1.92093">
        <ele>164</ele>
        <time>2010-05-13T12:02:07Z</time>
      </trkpt>
      <trkpt lat="48.74421" lon="1.92092">
        <ele>164</ele>
        <time>2010-05-13T12:02:08Z</time>
      </trkpt>
      <trkpt lat="48.74423" lon="1.92091">
        <ele>164</ele>
        <time>2010-05-13T12:02:09Z</time>
      </trkpt>
      <trkpt lat="48.74424" lon="1.92089">
        <ele>164</ele>
        <time>2010-05-13T12:02:10Z</time>
      </trkpt>
      <trkpt lat="48.74426" lon="1.92088">
        <ele>164</ele>
        <time>2010-05-13T12:02:11Z</time>
      </trkpt>
      <trkpt lat="48.74428" lon="1.92087">
        <ele>164</ele>
        <time>2010-05-13T12:02:12Z</time>
      </trkpt>
      <trkpt lat="48.74429" lon="1.92086">
        <ele>164</ele>
        <time>2010-05-13T12:02:13Z</time>
      </trkpt>
      <trkpt lat="48.7443" lon="1.92085">
        <ele>164</ele>
        <time>2010-05-13T12:02:14Z</time>
      </trkpt>
      <trkpt lat="48.74431" lon="1.92084">
        <ele>164</ele>
        <time>2010-05-13T12:02:15Z</time>
      </trkpt>
      <trkpt lat="48.74433" lon="1.92083">
        <ele>164</ele>
        <time>2010-05-13T12:02:16Z</time>
      </trkpt>
      <trkpt lat="48.74434" lon="1.92083">
        <ele>164</ele>
        <time>2010-05-13T12:02:17Z</time>
      </trkpt>
      <trkpt lat="48.74436" lon="1.92082">
        <ele>164</ele>
        <time>2010-05-13T12:02:18Z</time>
      </trkpt>
      <trkpt lat="48.74438" lon="1.92082">
        <ele>164</ele>
        <time>2010-05-13T12:02:19Z</time>
      </trkpt>
      <trkpt lat="48.7444" lon="1.92082">
        <ele>164</ele>
        <time>2010-05-13T12:02:20Z</time>
      </trkpt>
      <trkpt lat="48.74442" lon="1.92083">
        <ele>164</ele>
        <time>2010-05-13T12:02:21Z</time>
      </trkpt>
      <trkpt lat="48.74444" lon="1.92083">
        <ele>164</ele>
        <time>2010-05-13T12:02:22Z</time>
      </trkpt>
      <trkpt lat="48.74446" lon="1.92085">
        <ele>164</ele>
        <time>2010-05-13T12:02:23Z</time>
      </trkpt>
      <trkpt lat="48.74448" lon="1.92086">
        <ele>164</ele>
        <time>2010-05-13T12:02:24Z</time>
      </trkpt>
      <trkpt lat="48.7445" lon="1.92087">
        <ele>164</ele>
        <time>2010-05-13T12:02:25Z</time>
      </trkpt>
      <trkpt lat="48.74451" lon="1.92089">
        <ele>164</ele>
        <time>2010-05-13T12:02:26Z</time>
      </trkpt>
      <trkpt lat="48.74452" lon="1.9209">
        <ele>164</ele>
        <time>2010-05-13T12:02:27Z</time>
      </trkpt>
      <trkpt lat="48.74453" lon="1.92091">
        <ele>164</ele>
        <time>2010-05-13T12:02:28Z</time>
      </trkpt>
      <trkpt lat="48.74455" lon="1.92092">
        <ele>164</ele>
        <time>2010-05-13T12:02:30Z</time>
      </trkpt>
      <trkpt lat="48.74456" lon="1.92093">
        <ele>164</ele>
        <time>2010-05-13T12:02:32Z</time>
      </trkpt>
      <trkpt lat="48.74458" lon="1.92093">
        <ele>164</ele>
        <time>2010-05-13T12:02:33Z</time>
      </trkpt>
      <trkpt lat="48.74459" lon="1.92093">
        <ele>164</ele>
        <time>2010-05-13T12:02:34Z</time>
      </trkpt>
      <trkpt lat="48.74461" lon="1.92094">
        <ele>164</ele>
        <time>2010-05-13T12:02:35Z</time>
      </trkpt>
      <trkpt lat="48.74462" lon="1.92095">
        <ele>164</ele>
        <time>2010-05-13T12:02:36Z</time>
      </trkpt>
      <trkpt lat="48.74464" lon="1.92096">
        <ele>164</ele>
        <time>2010-05-13T12:02:37Z</time>
      </trkpt>
      <trkpt lat="48.74465" lon="1.92097">
        <ele>164</ele>
        <time>2010-05-13T12:02:38Z</time>
      </trkpt>
      <trkpt lat="48.74466" lon="1.92098">
        <ele>164</ele>
        <time>2010-05-13T12:02:39Z</time>
      </trkpt>
      <trkpt lat="48.74468" lon="1.92098">
        <ele>164</ele>
        <time>2010-05-13T12:02:40Z</time>
      </trkpt>
      <trkpt lat="48.74469" lon="1.92098">
        <ele>164</ele>
        <time>2010-05-13T12:02:41Z</time>
      </trkpt>
      <trkpt lat="48.74471" lon="1.92098">
        <ele>164</ele>
        <time>2010-05-13T12:02:42Z</time>
      </trkpt>
      <trkpt lat="48.74473" lon="1.92098">
        <ele>164</ele>
        <time>2010-05-13T12:02:43Z</time>
      </trkpt>
      <trkpt lat="48.74475" lon="1.92098">
        <ele>164</ele>
        <time>2010-05-13T12:02:44Z</time>
      </trkpt>
      <trkpt lat="48.74476" lon="1.92097">
        <ele>164</ele>
        <time>2010-05-13T12:02:45Z</time>
      </trkpt>
      <trkpt lat="48.74477" lon="1.92096">
        <ele>164</ele>
        <time>2010-05-13T12:02:46Z</time>
      </trkpt>
      <trkpt lat="48.74479" lon="1.92095">
        <ele>164</ele>
        <time>2010-05-13T12:02:47Z</time>
      </trkpt>
      <trkpt lat="48.74481" lon="1.92092">
        <ele>164</ele>
        <time>2010-05-13T12:02:49Z</time>
      </trkpt>
      <trkpt lat="48.74483" lon="1.9209">
        <ele>164</ele>
        <time>2010-05-13T12:02:51Z</time>
      </trkpt>
      <trkpt lat="48.74485" lon="1.92087">
        <ele>164</ele>
        <time>2010-05-13T12:02:53Z</time>
      </trkpt>
      <trkpt lat="48.74487" lon="1.92084">
        <ele>164</ele>
        <time>2010-05-13T12:02:55Z</time>
      </trkpt>
      <trkpt lat="48.74489" lon="1.92081">
        <ele>164</ele>
        <time>2010-05-13T12:02:57Z</time>
      </trkpt>
      <trkpt lat="48.74491" lon="1.92078">
        <ele>164</ele>
        <time>2010-05-13T12:02:59Z</time>
      </trkpt>
      <trkpt lat="48.74492" lon="1.92076">
        <ele>164</ele>
        <time>2010-05-13T12:03:00Z</time>
      </trkpt>
      <trkpt lat="48.74493" lon="1.92075">
        <ele>164</ele>
        <time>2010-05-13T12:03:01Z</time>
      </trkpt>
      <trkpt lat="48.74495" lon="1.92072">
        <ele>164</ele>
        <time>2010-05-13T12:03:03Z</time>
      </trkpt>
      <trkpt lat="48.74496" lon="1.92071">
        <ele>164</ele>
        <time>2010-05-13T12:03:04Z</time>
      </trkpt>
      <trkpt lat="48.74498" lon="1.92069">
        <ele>164</ele>
        <time>2010-05-13T12:03:05Z</time>
      </trkpt>
      <trkpt lat="48.74499" lon="1.92068">
        <ele>164</ele>
        <time>2010-05-13T12:03:06Z</time>
      </trkpt>
      <trkpt lat="48.74501" lon="1.92065">
        <ele>164</ele>
        <time>2010-05-13T12:03:08Z</time>
      </trkpt>
      <trkpt lat="48.74503" lon="1.92062">
        <ele>164</ele>
        <time>2010-05-13T12:03:10Z</time>
      </trkpt>
      <trkpt lat="48.74505" lon="1.92059">
        <ele>164</ele>
        <time>2010-05-13T12:03:12Z</time>
      </trkpt>
      <trkpt lat="48.74506" lon="1.92056">
        <ele>164</ele>
        <time>2010-05-13T12:03:14Z</time>
      </trkpt>
      <trkpt lat="48.74507" lon="1.92055">
        <ele>164</ele>
        <time>2010-05-13T12:03:15Z</time>
      </trkpt>
      <trkpt lat="48.74508" lon="1.92053">
        <ele>164</ele>
        <time>2010-05-13T12:03:16Z</time>
      </trkpt>
      <trkpt lat="48.74509" lon="1.92051">
        <ele>164</ele>
        <time>2010-05-13T12:03:17Z</time>
      </trkpt>
      <trkpt lat="48.74511" lon="1.92049">
        <ele>164</ele>
        <time>2010-05-13T12:03:18Z</time>
      </trkpt>
      <trkpt lat="48.74512" lon="1.92047">
        <ele>164</ele>
        <time>2010-05-13T12:03:19Z</time>
      </trkpt>
      <trkpt lat="48.74513" lon="1.92045">
        <ele>164</ele>
        <time>2010-05-13T12:03:20Z</time>
      </trkpt>
      <trkpt lat="48.74514" lon="1.92043">
        <ele>164</ele>
        <time>2010-05-13T12:03:21Z</time>
      </trkpt>
      <trkpt lat="48.74516" lon="1.92041">
        <ele>164</ele>
        <time>2010-05-13T12:03:22Z</time>
      </trkpt>
      <trkpt lat="48.74517" lon="1.9204">
        <ele>164</ele>
        <time>2010-05-13T12:03:23Z</time>
      </trkpt>
      <trkpt lat="48.74518" lon="1.92038">
        <ele>164</ele>
        <time>2010-05-13T12:03:24Z</time>
      </trkpt>
      <trkpt lat="48.74519" lon="1.92037">
        <ele>164</ele>
        <time>2010-05-13T12:03:25Z</time>
      </trkpt>
      <trkpt lat="48.74521" lon="1.92035">
        <ele>164</ele>
        <time>2010-05-13T12:03:26Z</time>
      </trkpt>
      <trkpt lat="48.74522" lon="1.92033">
        <ele>164</ele>
        <time>2010-05-13T12:03:27Z</time>
      </trkpt>
      <trkpt lat="48.74523" lon="1.92031">
        <ele>164</ele>
        <time>2010-05-13T12:03:28Z</time>
      </trkpt>
      <trkpt lat="48.74524" lon="1.92029">
        <ele>164</ele>
        <time>2010-05-13T12:03:29Z</time>
      </trkpt>
      <trkpt lat="48.74526" lon="1.92028">
        <ele>164</ele>
        <time>2010-05-13T12:03:30Z</time>
      </trkpt>
      <trkpt lat="48.74527" lon="1.92026">
        <ele>164</ele>
        <time>2010-05-13T12:03:31Z</time>
      </trkpt>
      <trkpt lat="48.74528" lon="1.92024">
        <ele>164</ele>
        <time>2010-05-13T12:03:32Z</time>
      </trkpt>
      <trkpt lat="48.74529" lon="1.92022">
        <ele>164</ele>
        <time>2010-05-13T12:03:33Z</time>
      </trkpt>
      <trkpt lat="48.7453" lon="1.92021">
        <ele>164</ele>
        <time>2010-05-13T12:03:34Z</time>
      </trkpt>
      <trkpt lat="48.74531" lon="1.92019">
        <ele>164</ele>
        <time>2010-05-13T12:03:35Z</time>
      </trkpt>
      <trkpt lat="48.74533" lon="1.92017">
        <ele>164</ele>
        <time>2010-05-13T12:03:36Z</time>
      </trkpt>
      <trkpt lat="48.74534" lon="1.92015">
        <ele>164</ele>
        <time>2010-05-13T12:03:37Z</time>
      </trkpt>
      <trkpt lat="48.74535" lon="1.92013">
        <ele>164</ele>
        <time>2010-05-13T12:03:38Z</time>
      </trkpt>
      <trkpt lat="48.74536" lon="1.92012">
        <ele>164</ele>
        <time>2010-05-13T12:03:39Z</time>
      </trkpt>
      <trkpt lat="48.74537" lon="1.9201">
        <ele>164</ele>
        <time>2010-05-13T12:03:40Z</time>
      </trkpt>
      <trkpt lat="48.74539" lon="1.92008">
        <ele>164</ele>
        <time>2010-05-13T12:03:41Z</time>
      </trkpt>
      <trkpt lat="48.7454" lon="1.92006">
        <ele>164</ele>
        <time>2010-05-13T12:03:42Z</time>
      </trkpt>
      <trkpt lat="48.74541" lon="1.92005">
        <ele>164</ele>
        <time>2010-05-13T12:03:43Z</time>
      </trkpt>
      <trkpt lat="48.74543" lon="1.92003">
        <ele>164</ele>
        <time>2010-05-13T12:03:44Z</time>
      </trkpt>
      <trkpt lat="48.74545" lon="1.92001">
        <ele>164</ele>
        <time>2010-05-13T12:03:45Z</time>
      </trkpt>
      <trkpt lat="48.74546" lon="1.91999">
        <ele>164</ele>
        <time>2010-05-13T12:03:46Z</time>
      </trkpt>
      <trkpt lat="48.74547" lon="1.91998">
        <ele>164</ele>
        <time>2010-05-13T12:03:47Z</time>
      </trkpt>
      <trkpt lat="48.74549" lon="1.91996">
        <ele>164</ele>
        <time>2010-05-13T12:03:48Z</time>
      </trkpt>
      <trkpt lat="48.7455" lon="1.91995">
        <ele>164</ele>
        <time>2010-05-13T12:03:49Z</time>
      </trkpt>
      <trkpt lat="48.74551" lon="1.91994">
        <ele>164</ele>
        <time>2010-05-13T12:03:50Z</time>
      </trkpt>
      <trkpt lat="48.74552" lon="1.91993">
        <ele>164</ele>
        <time>2010-05-13T12:03:51Z</time>
      </trkpt>
      <trkpt lat="48.74554" lon="1.91992">
        <ele>163</ele>
        <time>2010-05-13T12:03:52Z</time>
      </trkpt>
      <trkpt lat="48.74555" lon="1.9199">
        <ele>163</ele>
        <time>2010-05-13T12:03:53Z</time>
      </trkpt>
      <trkpt lat="48.74556" lon="1.91989">
        <ele>163</ele>
        <time>2010-05-13T12:03:54Z</time>
      </trkpt>
      <trkpt lat="48.74558" lon="1.91986">
        <ele>162</ele>
        <time>2010-05-13T12:03:56Z</time>
      </trkpt>
      <trkpt lat="48.7456" lon="1.91984">
        <ele>162</ele>
        <time>2010-05-13T12:03:57Z</time>
      </trkpt>
      <trkpt lat="48.74561" lon="1.91982">
        <ele>162</ele>
        <time>2010-05-13T12:03:58Z</time>
      </trkpt>
      <trkpt lat="48.74563" lon="1.9198">
        <ele>161</ele>
        <time>2010-05-13T12:04:00Z</time>
      </trkpt>
      <trkpt lat="48.74565" lon="1.91978">
        <ele>161</ele>
        <time>2010-05-13T12:04:01Z</time>
      </trkpt>
      <trkpt lat="48.74566" lon="1.91977">
        <ele>161</ele>
        <time>2010-05-13T12:04:02Z</time>
      </trkpt>
      <trkpt lat="48.74568" lon="1.91975">
        <ele>161</ele>
        <time>2010-05-13T12:04:03Z</time>
      </trkpt>
      <trkpt lat="48.74569" lon="1.91974">
        <ele>161</ele>
        <time>2010-05-13T12:04:04Z</time>
      </trkpt>
      <trkpt lat="48.74571" lon="1.91972">
        <ele>161</ele>
        <time>2010-05-13T12:04:05Z</time>
      </trkpt>
      <trkpt lat="48.74573" lon="1.9197">
        <ele>161</ele>
        <time>2010-05-13T12:04:07Z</time>
      </trkpt>
      <trkpt lat="48.74574" lon="1.91968">
        <ele>161</ele>
        <time>2010-05-13T12:04:08Z</time>
      </trkpt>
      <trkpt lat="48.74575" lon="1.91967">
        <ele>161</ele>
        <time>2010-05-13T12:04:09Z</time>
      </trkpt>
      <trkpt lat="48.74576" lon="1.91965">
        <ele>161</ele>
        <time>2010-05-13T12:04:10Z</time>
      </trkpt>
      <trkpt lat="48.74578" lon="1.91964">
        <ele>161</ele>
        <time>2010-05-13T12:04:11Z</time>
      </trkpt>
      <trkpt lat="48.74579" lon="1.91963">
        <ele>161</ele>
        <time>2010-05-13T12:04:12Z</time>
      </trkpt>
      <trkpt lat="48.7458" lon="1.91962">
        <ele>161</ele>
        <time>2010-05-13T12:04:13Z</time>
      </trkpt>
      <trkpt lat="48.74581" lon="1.91961">
        <ele>161</ele>
        <time>2010-05-13T12:04:14Z</time>
      </trkpt>
      <trkpt lat="48.74583" lon="1.91961">
        <ele>161</ele>
        <time>2010-05-13T12:04:15Z</time>
      </trkpt>
      <trkpt lat="48.74584" lon="1.9196">
        <ele>161</ele>
        <time>2010-05-13T12:04:16Z</time>
      </trkpt>
      <trkpt lat="48.74586" lon="1.9196">
        <ele>161</ele>
        <time>2010-05-13T12:04:18Z</time>
      </trkpt>
      <trkpt lat="48.74588" lon="1.91961">
        <ele>161</ele>
        <time>2010-05-13T12:04:20Z</time>
      </trkpt>
      <trkpt lat="48.7459" lon="1.91964">
        <ele>161</ele>
        <time>2010-05-13T12:04:22Z</time>
      </trkpt>
      <trkpt lat="48.74591" lon="1.91966">
        <ele>161</ele>
        <time>2010-05-13T12:04:23Z</time>
      </trkpt>
      <trkpt lat="48.74592" lon="1.91968">
        <ele>161</ele>
        <time>2010-05-13T12:04:24Z</time>
      </trkpt>
      <trkpt lat="48.74592" lon="1.9197">
        <ele>161</ele>
        <time>2010-05-13T12:04:25Z</time>
      </trkpt>
      <trkpt lat="48.74593" lon="1.91972">
        <ele>161</ele>
        <time>2010-05-13T12:04:26Z</time>
      </trkpt>
      <trkpt lat="48.74594" lon="1.91974">
        <ele>161</ele>
        <time>2010-05-13T12:04:27Z</time>
      </trkpt>
      <trkpt lat="48.74595" lon="1.91976">
        <ele>161</ele>
        <time>2010-05-13T12:04:28Z</time>
      </trkpt>
      <trkpt lat="48.74596" lon="1.91977">
        <ele>161</ele>
        <time>2010-05-13T12:04:29Z</time>
      </trkpt>
      <trkpt lat="48.74596" lon="1.91979">
        <ele>161</ele>
        <time>2010-05-13T12:04:30Z</time>
      </trkpt>
      <trkpt lat="48.74597" lon="1.91981">
        <ele>161</ele>
        <time>2010-05-13T12:04:31Z</time>
      </trkpt>
      <trkpt lat="48.74598" lon="1.91983">
        <ele>161</ele>
        <time>2010-05-13T12:04:32Z</time>
      </trkpt>
      <trkpt lat="48.74599" lon="1.91985">
        <ele>161</ele>
        <time>2010-05-13T12:04:33Z</time>
      </trkpt>
      <trkpt lat="48.746" lon="1.91987">
        <ele>161</ele>
        <time>2010-05-13T12:04:34Z</time>
      </trkpt>
      <trkpt lat="48.746" lon="1.91988">
        <ele>161</ele>
        <time>2010-05-13T12:04:35Z</time>
      </trkpt>
      <trkpt lat="48.74602" lon="1.91991">
        <ele>161</ele>
        <time>2010-05-13T12:04:37Z</time>
      </trkpt>
      <trkpt lat="48.74603" lon="1.91993">
        <ele>161</ele>
        <time>2010-05-13T12:04:44Z</time>
      </trkpt>
      <trkpt lat="48.74604" lon="1.91994">
        <ele>161</ele>
        <time>2010-05-13T12:04:46Z</time>
      </trkpt>
      <trkpt lat="48.74605" lon="1.91997">
        <ele>161</ele>
        <time>2010-05-13T12:04:48Z</time>
      </trkpt>
      <trkpt lat="48.74607" lon="1.91997">
        <ele>161</ele>
        <time>2010-05-13T12:04:50Z</time>
      </trkpt>
      <trkpt lat="48.74608" lon="1.91996">
        <ele>161</ele>
        <time>2010-05-13T12:05:11Z</time>
      </trkpt>
      <trkpt lat="48.74607" lon="1.91994">
        <ele>161</ele>
        <time>2010-05-13T12:05:21Z</time>
      </trkpt>
      <trkpt lat="48.74607" lon="1.91993">
        <ele>161</ele>
        <time>2010-05-13T12:05:26Z</time>
      </trkpt>
      <trkpt lat="48.74607" lon="1.91991">
        <ele>161</ele>
        <time>2010-05-13T12:05:28Z</time>
      </trkpt>
      <trkpt lat="48.74606" lon="1.91989">
        <ele>161</ele>
        <time>2010-05-13T12:05:31Z</time>
      </trkpt>
      <trkpt lat="48.74605" lon="1.91989">
        <ele>161</ele>
        <time>2010-05-13T12:05:39Z</time>
      </trkpt>
      <trkpt lat="48.74606" lon="1.91987">
        <ele>161</ele>
        <time>2010-05-13T12:05:46Z</time>
      </trkpt>
      <trkpt lat="48.74605" lon="1.91985">
        <ele>161</ele>
        <time>2010-05-13T12:05:55Z</time>
      </trkpt>
      <trkpt lat="48.74604" lon="1.91982">
        <ele>161</ele>
        <time>2010-05-13T12:05:57Z</time>
      </trkpt>
      <trkpt lat="48.74603" lon="1.9198">
        <ele>161</ele>
        <time>2010-05-13T12:05:59Z</time>
      </trkpt>
      <trkpt lat="48.74602" lon="1.91979">
        <ele>161</ele>
        <time>2010-05-13T12:06:01Z</time>
      </trkpt>
      <trkpt lat="48.74602" lon="1.91976">
        <ele>161</ele>
        <time>2010-05-13T12:06:03Z</time>
      </trkpt>
      <trkpt lat="48.746" lon="1.91974">
        <ele>161</ele>
        <time>2010-05-13T12:06:05Z</time>
      </trkpt>
      <trkpt lat="48.74599" lon="1.91972">
        <ele>161</ele>
        <time>2010-05-13T12:06:07Z</time>
      </trkpt>
      <trkpt lat="48.74598" lon="1.91969">
        <ele>161</ele>
        <time>2010-05-13T12:06:09Z</time>
      </trkpt>
      <trkpt lat="48.74597" lon="1.91967">
        <ele>161</ele>
        <time>2010-05-13T12:06:11Z</time>
      </trkpt>
      <trkpt lat="48.74596" lon="1.91965">
        <ele>161</ele>
        <time>2010-05-13T12:06:13Z</time>
      </trkpt>
      <trkpt lat="48.74595" lon="1.91963">
        <ele>161</ele>
        <time>2010-05-13T12:06:14Z</time>
      </trkpt>
      <trkpt lat="48.74595" lon="1.91961">
        <ele>161</ele>
        <time>2010-05-13T12:06:16Z</time>
      </trkpt>
      <trkpt lat="48.74594" lon="1.91958">
        <ele>161</ele>
        <time>2010-05-13T12:06:18Z</time>
      </trkpt>
      <trkpt lat="48.74611" lon="1.91933">
        <ele>164</ele>
        <time>2010-05-13T12:06:34Z</time>
      </trkpt>
      <trkpt lat="48.74612" lon="1.91931">
        <ele>164</ele>
        <time>2010-05-13T12:06:35Z</time>
      </trkpt>
      <trkpt lat="48.74615" lon="1.91932">
        <ele>164</ele>
        <time>2010-05-13T12:06:36Z</time>
      </trkpt>
      <trkpt lat="48.74613" lon="1.9193">
        <ele>164</ele>
        <time>2010-05-13T12:06:39Z</time>
      </trkpt>
      <trkpt lat="48.74612" lon="1.91928">
        <ele>164</ele>
        <time>2010-05-13T12:06:41Z</time>
      </trkpt>
      <trkpt lat="48.74611" lon="1.91924">
        <ele>164</ele>
        <time>2010-05-13T12:06:43Z</time>
      </trkpt>
      <trkpt lat="48.7461" lon="1.91922">
        <ele>164</ele>
        <time>2010-05-13T12:06:44Z</time>
      </trkpt>
      <trkpt lat="48.74609" lon="1.9192">
        <ele>164</ele>
        <time>2010-05-13T12:06:45Z</time>
      </trkpt>
      <trkpt lat="48.74608" lon="1.91918">
        <ele>164</ele>
        <time>2010-05-13T12:06:46Z</time>
      </trkpt>
      <trkpt lat="48.74607" lon="1.91917">
        <ele>164</ele>
        <time>2010-05-13T12:06:47Z</time>
      </trkpt>
      <trkpt lat="48.74607" lon="1.91915">
        <ele>164</ele>
        <time>2010-05-13T12:06:48Z</time>
      </trkpt>
      <trkpt lat="48.74605" lon="1.91913">
        <ele>164</ele>
        <time>2010-05-13T12:06:53Z</time>
      </trkpt>
      <trkpt lat="48.74605" lon="1.91911">
        <ele>164</ele>
        <time>2010-05-13T12:06:57Z</time>
      </trkpt>
      <trkpt lat="48.74605" lon="1.91909">
        <ele>164</ele>
        <time>2010-05-13T12:07:06Z</time>
      </trkpt>
      <trkpt lat="48.74606" lon="1.91908">
        <ele>164</ele>
        <time>2010-05-13T12:07:11Z</time>
      </trkpt>
      <trkpt lat="48.74605" lon="1.91906">
        <ele>164</ele>
        <time>2010-05-13T12:07:13Z</time>
      </trkpt>
      <trkpt lat="48.74604" lon="1.91906">
        <ele>164</ele>
        <time>2010-05-13T12:07:15Z</time>
      </trkpt>
      <trkpt lat="48.74604" lon="1.91908">
        <ele>164</ele>
        <time>2010-05-13T12:07:45Z</time>
      </trkpt>
      <trkpt lat="48.74603" lon="1.91908">
        <ele>164</ele>
        <time>2010-05-13T12:08:03Z</time>
      </trkpt>
      <trkpt lat="48.74601" lon="1.91909">
        <ele>164</ele>
        <time>2010-05-13T12:08:05Z</time>
      </trkpt>
      <trkpt lat="48.746" lon="1.91908">
        <ele>164</ele>
        <time>2010-05-13T12:08:08Z</time>
      </trkpt>
      <trkpt lat="48.746" lon="1.91906">
        <ele>164</ele>
        <time>2010-05-13T12:08:21Z</time>
      </trkpt>
      <trkpt lat="48.746" lon="1.91903">
        <ele>164</ele>
        <time>2010-05-13T12:08:23Z</time>
      </trkpt>
      <trkpt lat="48.74601" lon="1.91901">
        <ele>164</ele>
        <time>2010-05-13T12:08:24Z</time>
      </trkpt>
      <trkpt lat="48.74602" lon="1.91898">
        <ele>164</ele>
        <time>2010-05-13T12:08:26Z</time>
      </trkpt>
      <trkpt lat="48.74604" lon="1.91895">
        <ele>164</ele>
        <time>2010-05-13T12:08:28Z</time>
      </trkpt>
      <trkpt lat="48.74605" lon="1.91894">
        <ele>164</ele>
        <time>2010-05-13T12:08:29Z</time>
      </trkpt>
      <trkpt lat="48.74606" lon="1.91893">
        <ele>164</ele>
        <time>2010-05-13T12:08:30Z</time>
      </trkpt>
      <trkpt lat="48.74608" lon="1.91892">
        <ele>164</ele>
        <time>2010-05-13T12:08:31Z</time>
      </trkpt>
      <trkpt lat="48.74609" lon="1.91892">
        <ele>164</ele>
        <time>2010-05-13T12:08:32Z</time>
      </trkpt>
      <trkpt lat="48.74611" lon="1.9189">
        <ele>164</ele>
        <time>2010-05-13T12:08:33Z</time>
      </trkpt>
      <trkpt lat="48.74612" lon="1.91889">
        <ele>164</ele>
        <time>2010-05-13T12:08:34Z</time>
      </trkpt>
      <trkpt lat="48.74614" lon="1.91888">
        <ele>164</ele>
        <time>2010-05-13T12:08:35Z</time>
      </trkpt>
      <trkpt lat="48.74615" lon="1.91886">
        <ele>164</ele>
        <time>2010-05-13T12:08:36Z</time>
      </trkpt>
      <trkpt lat="48.74617" lon="1.91885">
        <ele>164</ele>
        <time>2010-05-13T12:08:37Z</time>
      </trkpt>
      <trkpt lat="48.74619" lon="1.91883">
        <ele>164</ele>
        <time>2010-05-13T12:08:38Z</time>
      </trkpt>
      <trkpt lat="48.7462" lon="1.91881">
        <ele>164</ele>
        <time>2010-05-13T12:08:39Z</time>
      </trkpt>
      <trkpt lat="48.74622" lon="1.9188">
        <ele>164</ele>
        <time>2010-05-13T12:08:40Z</time>
      </trkpt>
      <trkpt lat="48.74624" lon="1.91878">
        <ele>164</ele>
        <time>2010-05-13T12:08:41Z</time>
      </trkpt>
      <trkpt lat="48.74625" lon="1.91876">
        <ele>164</ele>
        <time>2010-05-13T12:08:42Z</time>
      </trkpt>
      <trkpt lat="48.74627" lon="1.91875">
        <ele>164</ele>
        <time>2010-05-13T12:08:43Z</time>
      </trkpt>
      <trkpt lat="48.74628" lon="1.91874">
        <ele>164</ele>
        <time>2010-05-13T12:08:44Z</time>
      </trkpt>
      <trkpt lat="48.7463" lon="1.91872">
        <ele>164</ele>
        <time>2010-05-13T12:08:45Z</time>
      </trkpt>
      <trkpt lat="48.74632" lon="1.91871">
        <ele>164</ele>
        <time>2010-05-13T12:08:46Z</time>
      </trkpt>
      <trkpt lat="48.74633" lon="1.91869">
        <ele>164</ele>
        <time>2010-05-13T12:08:47Z</time>
      </trkpt>
      <trkpt lat="48.74634" lon="1.91868">
        <ele>164</ele>
        <time>2010-05-13T12:08:48Z</time>
      </trkpt>
      <trkpt lat="48.74635" lon="1.91866">
        <ele>164</ele>
        <time>2010-05-13T12:08:49Z</time>
      </trkpt>
      <trkpt lat="48.74637" lon="1.91865">
        <ele>164</ele>
        <time>2010-05-13T12:08:50Z</time>
      </trkpt>
      <trkpt lat="48.74638" lon="1.91864">
        <ele>164</ele>
        <time>2010-05-13T12:08:51Z</time>
      </trkpt>
      <trkpt lat="48.74639" lon="1.91863">
        <ele>164</ele>
        <time>2010-05-13T12:08:52Z</time>
      </trkpt>
      <trkpt lat="48.74641" lon="1.91862">
        <ele>164</ele>
        <time>2010-05-13T12:08:53Z</time>
      </trkpt>
      <trkpt lat="48.74642" lon="1.91861">
        <ele>164</ele>
        <time>2010-05-13T12:08:54Z</time>
      </trkpt>
      <trkpt lat="48.74643" lon="1.91859">
        <ele>164</ele>
        <time>2010-05-13T12:08:55Z</time>
      </trkpt>
      <trkpt lat="48.74645" lon="1.91857">
        <ele>164</ele>
        <time>2010-05-13T12:08:57Z</time>
      </trkpt>
      <trkpt lat="48.74647" lon="1.91854">
        <ele>164</ele>
        <time>2010-05-13T12:08:59Z</time>
      </trkpt>
      <trkpt lat="48.74649" lon="1.91852">
        <ele>164</ele>
        <time>2010-05-13T12:09:01Z</time>
      </trkpt>
      <trkpt lat="48.74651" lon="1.91849">
        <ele>164</ele>
        <time>2010-05-13T12:09:03Z</time>
      </trkpt>
      <trkpt lat="48.74652" lon="1.91846">
        <ele>164</ele>
        <time>2010-05-13T12:09:05Z</time>
      </trkpt>
      <trkpt lat="48.74654" lon="1.91845">
        <ele>164</ele>
        <time>2010-05-13T12:09:06Z</time>
      </trkpt>
      <trkpt lat="48.74656" lon="1.91842">
        <ele>164</ele>
        <time>2010-05-13T12:09:08Z</time>
      </trkpt>
      <trkpt lat="48.74657" lon="1.9184">
        <ele>164</ele>
        <time>2010-05-13T12:09:10Z</time>
      </trkpt>
      <trkpt lat="48.74659" lon="1.91837">
        <ele>164</ele>
        <time>2010-05-13T12:09:12Z</time>
      </trkpt>
      <trkpt lat="48.74661" lon="1.91835">
        <ele>164</ele>
        <time>2010-05-13T12:09:14Z</time>
      </trkpt>
      <trkpt lat="48.74662" lon="1.91833">
        <ele>164</ele>
        <time>2010-05-13T12:09:15Z</time>
      </trkpt>
      <trkpt lat="48.74664" lon="1.9183">
        <ele>164</ele>
        <time>2010-05-13T12:09:17Z</time>
      </trkpt>
      <trkpt lat="48.74665" lon="1.91829">
        <ele>164</ele>
        <time>2010-05-13T12:09:18Z</time>
      </trkpt>
      <trkpt lat="48.74667" lon="1.91828">
        <ele>164</ele>
        <time>2010-05-13T12:09:19Z</time>
      </trkpt>
      <trkpt lat="48.74668" lon="1.91826">
        <ele>164</ele>
        <time>2010-05-13T12:09:20Z</time>
      </trkpt>
      <trkpt lat="48.7467" lon="1.91825">
        <ele>164</ele>
        <time>2010-05-13T12:09:21Z</time>
      </trkpt>
      <trkpt lat="48.74671" lon="1.91823">
        <ele>164</ele>
        <time>2010-05-13T12:09:22Z</time>
      </trkpt>
      <trkpt lat="48.74673" lon="1.91822">
        <ele>164</ele>
        <time>2010-05-13T12:09:23Z</time>
      </trkpt>
      <trkpt lat="48.74674" lon="1.9182">
        <ele>164</ele>
        <time>2010-05-13T12:09:24Z</time>
      </trkpt>
      <trkpt lat="48.74676" lon="1.91819">
        <ele>164</ele>
        <time>2010-05-13T12:09:25Z</time>
      </trkpt>
      <trkpt lat="48.74677" lon="1.91817">
        <ele>164</ele>
        <time>2010-05-13T12:09:26Z</time>
      </trkpt>
      <trkpt lat="48.74678" lon="1.91816">
        <ele>164</ele>
        <time>2010-05-13T12:09:27Z</time>
      </trkpt>
      <trkpt lat="48.74679" lon="1.91815">
        <ele>164</ele>
        <time>2010-05-13T12:09:28Z</time>
      </trkpt>
      <trkpt lat="48.74681" lon="1.91814">
        <ele>164</ele>
        <time>2010-05-13T12:09:29Z</time>
      </trkpt>
      <trkpt lat="48.74682" lon="1.91813">
        <ele>164</ele>
        <time>2010-05-13T12:09:30Z</time>
      </trkpt>
      <trkpt lat="48.74683" lon="1.91811">
        <ele>164</ele>
        <time>2010-05-13T12:09:31Z</time>
      </trkpt>
      <trkpt lat="48.74685" lon="1.91808">
        <ele>164</ele>
        <time>2010-05-13T12:09:33Z</time>
      </trkpt>
      <trkpt lat="48.74686" lon="1.91807">
        <ele>164</ele>
        <time>2010-05-13T12:09:34Z</time>
      </trkpt>
      <trkpt lat="48.74687" lon="1.91805">
        <ele>164</ele>
        <time>2010-05-13T12:09:35Z</time>
      </trkpt>
      <trkpt lat="48.74689" lon="1.91802">
        <ele>164</ele>
        <time>2010-05-13T12:09:37Z</time>
      </trkpt>
      <trkpt lat="48.7469" lon="1.918">
        <ele>164</ele>
        <time>2010-05-13T12:09:38Z</time>
      </trkpt>
      <trkpt lat="48.74691" lon="1.91798">
        <ele>164</ele>
        <time>2010-05-13T12:09:39Z</time>
      </trkpt>
      <trkpt lat="48.74692" lon="1.91796">
        <ele>164</ele>
        <time>2010-05-13T12:09:40Z</time>
      </trkpt>
      <trkpt lat="48.74693" lon="1.91794">
        <ele>164</ele>
        <time>2010-05-13T12:09:41Z</time>
      </trkpt>
      <trkpt lat="48.74694" lon="1.91792">
        <ele>164</ele>
        <time>2010-05-13T12:09:42Z</time>
      </trkpt>
      <trkpt lat="48.74695" lon="1.9179">
        <ele>164</ele>
        <time>2010-05-13T12:09:43Z</time>
      </trkpt>
      <trkpt lat="48.74697" lon="1.91788">
        <ele>164</ele>
        <time>2010-05-13T12:09:44Z</time>
      </trkpt>
      <trkpt lat="48.74698" lon="1.91786">
        <ele>164</ele>
        <time>2010-05-13T12:09:45Z</time>
      </trkpt>
      <trkpt lat="48.74699" lon="1.91784">
        <ele>164</ele>
        <time>2010-05-13T12:09:46Z</time>
      </trkpt>
      <trkpt lat="48.747" lon="1.91782">
        <ele>164</ele>
        <time>2010-05-13T12:09:47Z</time>
      </trkpt>
      <trkpt lat="48.74701" lon="1.9178">
        <ele>164</ele>
        <time>2010-05-13T12:09:48Z</time>
      </trkpt>
      <trkpt lat="48.74702" lon="1.91778">
        <ele>164</ele>
        <time>2010-05-13T12:09:49Z</time>
      </trkpt>
      <trkpt lat="48.74703" lon="1.91776">
        <ele>164</ele>
        <time>2010-05-13T12:09:50Z</time>
      </trkpt>
      <trkpt lat="48.74705" lon="1.91774">
        <ele>164</ele>
        <time>2010-05-13T12:09:51Z</time>
      </trkpt>
      <trkpt lat="48.74706" lon="1.91772">
        <ele>164</ele>
        <time>2010-05-13T12:09:52Z</time>
      </trkpt>
      <trkpt lat="48.74707" lon="1.91771">
        <ele>164</ele>
        <time>2010-05-13T12:09:53Z</time>
      </trkpt>
      <trkpt lat="48.74708" lon="1.91769">
        <ele>164</ele>
        <time>2010-05-13T12:09:54Z</time>
      </trkpt>
      <trkpt lat="48.74709" lon="1.91767">
        <ele>164</ele>
        <time>2010-05-13T12:09:55Z</time>
      </trkpt>
      <trkpt lat="48.74711" lon="1.91765">
        <ele>164</ele>
        <time>2010-05-13T12:09:56Z</time>
      </trkpt>
      <trkpt lat="48.74712" lon="1.91764">
        <ele>164</ele>
        <time>2010-05-13T12:09:57Z</time>
      </trkpt>
      <trkpt lat="48.74713" lon="1.91762">
        <ele>164</ele>
        <time>2010-05-13T12:09:58Z</time>
      </trkpt>
      <trkpt lat="48.74714" lon="1.91761">
        <ele>164</ele>
        <time>2010-05-13T12:09:59Z</time>
      </trkpt>
      <trkpt lat="48.74715" lon="1.9176">
        <ele>164</ele>
        <time>2010-05-13T12:10:00Z</time>
      </trkpt>
      <trkpt lat="48.74717" lon="1.91758">
        <ele>164</ele>
        <time>2010-05-13T12:10:01Z</time>
      </trkpt>
      <trkpt lat="48.74719" lon="1.91757">
        <ele>164</ele>
        <time>2010-05-13T12:10:02Z</time>
      </trkpt>
      <trkpt lat="48.7472" lon="1.91756">
        <ele>164</ele>
        <time>2010-05-13T12:10:03Z</time>
      </trkpt>
      <trkpt lat="48.74722" lon="1.91755">
        <ele>164</ele>
        <time>2010-05-13T12:10:04Z</time>
      </trkpt>
      <trkpt lat="48.74723" lon="1.91754">
        <ele>164</ele>
        <time>2010-05-13T12:10:05Z</time>
      </trkpt>
      <trkpt lat="48.74725" lon="1.91752">
        <ele>164</ele>
        <time>2010-05-13T12:10:06Z</time>
      </trkpt>
      <trkpt lat="48.74726" lon="1.91751">
        <ele>164</ele>
        <time>2010-05-13T12:10:07Z</time>
      </trkpt>
      <trkpt lat="48.74728" lon="1.91749">
        <ele>164</ele>
        <time>2010-05-13T12:10:08Z</time>
      </trkpt>
      <trkpt lat="48.74729" lon="1.91747">
        <ele>164</ele>
        <time>2010-05-13T12:10:09Z</time>
      </trkpt>
      <trkpt lat="48.7473" lon="1.91746">
        <ele>164</ele>
        <time>2010-05-13T12:10:10Z</time>
      </trkpt>
      <trkpt lat="48.74732" lon="1.91744">
        <ele>164</ele>
        <time>2010-05-13T12:10:11Z</time>
      </trkpt>
      <trkpt lat="48.74733" lon="1.91743">
        <ele>164</ele>
        <time>2010-05-13T12:10:12Z</time>
      </trkpt>
      <trkpt lat="48.74734" lon="1.91742">
        <ele>164</ele>
        <time>2010-05-13T12:10:13Z</time>
      </trkpt>
      <trkpt lat="48.74735" lon="1.91741">
        <ele>164</ele>
        <time>2010-05-13T12:10:14Z</time>
      </trkpt>
      <trkpt lat="48.74737" lon="1.9174">
        <ele>164</ele>
        <time>2010-05-13T12:10:15Z</time>
      </trkpt>
      <trkpt lat="48.74738" lon="1.91739">
        <ele>164</ele>
        <time>2010-05-13T12:10:16Z</time>
      </trkpt>
      <trkpt lat="48.74739" lon="1.91738">
        <ele>164</ele>
        <time>2010-05-13T12:10:17Z</time>
      </trkpt>
      <trkpt lat="48.74741" lon="1.91737">
        <ele>164</ele>
        <time>2010-05-13T12:10:18Z</time>
      </trkpt>
      <trkpt lat="48.74742" lon="1.91736">
        <ele>164</ele>
        <time>2010-05-13T12:10:19Z</time>
      </trkpt>
      <trkpt lat="48.74743" lon="1.91735">
        <ele>164</ele>
        <time>2010-05-13T12:10:20Z</time>
      </trkpt>
      <trkpt lat="48.74745" lon="1.91733">
        <ele>164</ele>
        <time>2010-05-13T12:10:21Z</time>
      </trkpt>
      <trkpt lat="48.74746" lon="1.91732">
        <ele>164</ele>
        <time>2010-05-13T12:10:22Z</time>
      </trkpt>
      <trkpt lat="48.74747" lon="1.91731">
        <ele>164</ele>
        <time>2010-05-13T12:10:23Z</time>
      </trkpt>
      <trkpt lat="48.74749" lon="1.9173">
        <ele>164</ele>
        <time>2010-05-13T12:10:24Z</time>
      </trkpt>
      <trkpt lat="48.7475" lon="1.91729">
        <ele>164</ele>
        <time>2010-05-13T12:10:25Z</time>
      </trkpt>
      <trkpt lat="48.74751" lon="1.91728">
        <ele>164</ele>
        <time>2010-05-13T12:10:26Z</time>
      </trkpt>
      <trkpt lat="48.74752" lon="1.91726">
        <ele>164</ele>
        <time>2010-05-13T12:10:27Z</time>
      </trkpt>
      <trkpt lat="48.74754" lon="1.91725">
        <ele>164</ele>
        <time>2010-05-13T12:10:28Z</time>
      </trkpt>
      <trkpt lat="48.74755" lon="1.91724">
        <ele>164</ele>
        <time>2010-05-13T12:10:29Z</time>
      </trkpt>
      <trkpt lat="48.74756" lon="1.91723">
        <ele>164</ele>
        <time>2010-05-13T12:10:30Z</time>
      </trkpt>
      <trkpt lat="48.74758" lon="1.91722">
        <ele>164</ele>
        <time>2010-05-13T12:10:31Z</time>
      </trkpt>
      <trkpt lat="48.74759" lon="1.91721">
        <ele>164</ele>
        <time>2010-05-13T12:10:32Z</time>
      </trkpt>
      <trkpt lat="48.7476" lon="1.9172">
        <ele>164</ele>
        <time>2010-05-13T12:10:33Z</time>
      </trkpt>
      <trkpt lat="48.74762" lon="1.91719">
        <ele>164</ele>
        <time>2010-05-13T12:10:34Z</time>
      </trkpt>
      <trkpt lat="48.74763" lon="1.91718">
        <ele>164</ele>
        <time>2010-05-13T12:10:35Z</time>
      </trkpt>
      <trkpt lat="48.74764" lon="1.91717">
        <ele>164</ele>
        <time>2010-05-13T12:10:36Z</time>
      </trkpt>
      <trkpt lat="48.74765" lon="1.91716">
        <ele>164</ele>
        <time>2010-05-13T12:10:37Z</time>
      </trkpt>
      <trkpt lat="48.74766" lon="1.91715">
        <ele>164</ele>
        <time>2010-05-13T12:10:38Z</time>
      </trkpt>
      <trkpt lat="48.74768" lon="1.91714">
        <ele>164</ele>
        <time>2010-05-13T12:10:39Z</time>
      </trkpt>
      <trkpt lat="48.74769" lon="1.91712">
        <ele>164</ele>
        <time>2010-05-13T12:10:40Z</time>
      </trkpt>
      <trkpt lat="48.7477" lon="1.91711">
        <ele>164</ele>
        <time>2010-05-13T12:10:41Z</time>
      </trkpt>
      <trkpt lat="48.74772" lon="1.9171">
        <ele>164</ele>
        <time>2010-05-13T12:10:42Z</time>
      </trkpt>
      <trkpt lat="48.74774" lon="1.91708">
        <ele>164</ele>
        <time>2010-05-13T12:10:43Z</time>
      </trkpt>
      <trkpt lat="48.74776" lon="1.91706">
        <ele>164</ele>
        <time>2010-05-13T12:10:44Z</time>
      </trkpt>
      <trkpt lat="48.74777" lon="1.91705">
        <ele>164</ele>
        <time>2010-05-13T12:10:45Z</time>
      </trkpt>
      <trkpt lat="48.74778" lon="1.91704">
        <ele>164</ele>
        <time>2010-05-13T12:10:46Z</time>
      </trkpt>
      <trkpt lat="48.7478" lon="1.91702">
        <ele>164</ele>
        <time>2010-05-13T12:10:47Z</time>
      </trkpt>
      <trkpt lat="48.74781" lon="1.91701">
        <ele>164</ele>
        <time>2010-05-13T12:10:48Z</time>
      </trkpt>
      <trkpt lat="48.74783" lon="1.917">
        <ele>164</ele>
        <time>2010-05-13T12:10:49Z</time>
      </trkpt>
      <trkpt lat="48.74784" lon="1.91699">
        <ele>164</ele>
        <time>2010-05-13T12:10:50Z</time>
      </trkpt>
      <trkpt lat="48.74786" lon="1.91698">
        <ele>164</ele>
        <time>2010-05-13T12:10:51Z</time>
      </trkpt>
      <trkpt lat="48.74787" lon="1.91697">
        <ele>164</ele>
        <time>2010-05-13T12:10:52Z</time>
      </trkpt>
      <trkpt lat="48.74789" lon="1.91695">
        <ele>164</ele>
        <time>2010-05-13T12:10:53Z</time>
      </trkpt>
      <trkpt lat="48.74791" lon="1.91694">
        <ele>164</ele>
        <time>2010-05-13T12:10:54Z</time>
      </trkpt>
      <trkpt lat="48.74792" lon="1.91693">
        <ele>164</ele>
        <time>2010-05-13T12:10:55Z</time>
      </trkpt>
      <trkpt lat="48.74793" lon="1.91692">
        <ele>164</ele>
        <time>2010-05-13T12:10:56Z</time>
      </trkpt>
      <trkpt lat="48.74795" lon="1.9169">
        <ele>164</ele>
        <time>2010-05-13T12:10:57Z</time>
      </trkpt>
      <trkpt lat="48.74796" lon="1.91689">
        <ele>164</ele>
        <time>2010-05-13T12:10:58Z</time>
      </trkpt>
      <trkpt lat="48.74798" lon="1.91688">
        <ele>164</ele>
        <time>2010-05-13T12:10:59Z</time>
      </trkpt>
      <trkpt lat="48.74799" lon="1.91687">
        <ele>164</ele>
        <time>2010-05-13T12:11:00Z</time>
      </trkpt>
      <trkpt lat="48.74801" lon="1.91685">
        <ele>164</ele>
        <time>2010-05-13T12:11:01Z</time>
      </trkpt>
      <trkpt lat="48.74802" lon="1.91684">
        <ele>164</ele>
        <time>2010-05-13T12:11:02Z</time>
      </trkpt>
      <trkpt lat="48.74804" lon="1.91682">
        <ele>164</ele>
        <time>2010-05-13T12:11:03Z</time>
      </trkpt>
      <trkpt lat="48.74805" lon="1.91681">
        <ele>164</ele>
        <time>2010-05-13T12:11:04Z</time>
      </trkpt>
      <trkpt lat="48.74806" lon="1.9168">
        <ele>164</ele>
        <time>2010-05-13T12:11:05Z</time>
      </trkpt>
      <trkpt lat="48.74808" lon="1.91679">
        <ele>164</ele>
        <time>2010-05-13T12:11:06Z</time>
      </trkpt>
      <trkpt lat="48.74809" lon="1.91678">
        <ele>164</ele>
        <time>2010-05-13T12:11:07Z</time>
      </trkpt>
      <trkpt lat="48.74811" lon="1.91676">
        <ele>164</ele>
        <time>2010-05-13T12:11:08Z</time>
      </trkpt>
      <trkpt lat="48.74812" lon="1.91675">
        <ele>164</ele>
        <time>2010-05-13T12:11:09Z</time>
      </trkpt>
      <trkpt lat="48.74813" lon="1.91674">
        <ele>164</ele>
        <time>2010-05-13T12:11:10Z</time>
      </trkpt>
      <trkpt lat="48.74815" lon="1.91673">
        <ele>164</ele>
        <time>2010-05-13T12:11:11Z</time>
      </trkpt>
      <trkpt lat="48.74816" lon="1.91671">
        <ele>164</ele>
        <time>2010-05-13T12:11:12Z</time>
      </trkpt>
      <trkpt lat="48.74818" lon="1.9167">
        <ele>164</ele>
        <time>2010-05-13T12:11:13Z</time>
      </trkpt>
      <trkpt lat="48.74819" lon="1.91668">
        <ele>164</ele>
        <time>2010-05-13T12:11:14Z</time>
      </trkpt>
      <trkpt lat="48.74821" lon="1.91667">
        <ele>164</ele>
        <time>2010-05-13T12:11:15Z</time>
      </trkpt>
      <trkpt lat="48.74822" lon="1.91666">
        <ele>164</ele>
        <time>2010-05-13T12:11:16Z</time>
      </trkpt>
      <trkpt lat="48.74824" lon="1.91665">
        <ele>164</ele>
        <time>2010-05-13T12:11:17Z</time>
      </trkpt>
      <trkpt lat="48.74825" lon="1.91664">
        <ele>164</ele>
        <time>2010-05-13T12:11:18Z</time>
      </trkpt>
      <trkpt lat="48.74827" lon="1.91662">
        <ele>164</ele>
        <time>2010-05-13T12:11:19Z</time>
      </trkpt>
      <trkpt lat="48.74828" lon="1.91661">
        <ele>164</ele>
        <time>2010-05-13T12:11:20Z</time>
      </trkpt>
      <trkpt lat="48.7483" lon="1.9166">
        <ele>164</ele>
        <time>2010-05-13T12:11:21Z</time>
      </trkpt>
      <trkpt lat="48.74831" lon="1.91659">
        <ele>164</ele>
        <time>2010-05-13T12:11:22Z</time>
      </trkpt>
      <trkpt lat="48.74833" lon="1.91658">
        <ele>164</ele>
        <time>2010-05-13T12:11:23Z</time>
      </trkpt>
      <trkpt lat="48.74834" lon="1.91657">
        <ele>164</ele>
        <time>2010-05-13T12:11:24Z</time>
      </trkpt>
      <trkpt lat="48.74836" lon="1.91655">
        <ele>164</ele>
        <time>2010-05-13T12:11:25Z</time>
      </trkpt>
      <trkpt lat="48.74837" lon="1.91654">
        <ele>164</ele>
        <time>2010-05-13T12:11:26Z</time>
      </trkpt>
      <trkpt lat="48.74839" lon="1.91653">
        <ele>164</ele>
        <time>2010-05-13T12:11:27Z</time>
      </trkpt>
      <trkpt lat="48.7484" lon="1.91652">
        <ele>164</ele>
        <time>2010-05-13T12:11:28Z</time>
      </trkpt>
      <trkpt lat="48.74842" lon="1.91651">
        <ele>164</ele>
        <time>2010-05-13T12:11:29Z</time>
      </trkpt>
      <trkpt lat="48.74843" lon="1.91649">
        <ele>164</ele>
        <time>2010-05-13T12:11:30Z</time>
      </trkpt>
      <trkpt lat="48.74845" lon="1.91648">
        <ele>164</ele>
        <time>2010-05-13T12:11:31Z</time>
      </trkpt>
      <trkpt lat="48.74846" lon="1.91647">
        <ele>164</ele>
        <time>2010-05-13T12:11:32Z</time>
      </trkpt>
      <trkpt lat="48.74848" lon="1.91646">
        <ele>164</ele>
        <time>2010-05-13T12:11:33Z</time>
      </trkpt>
      <trkpt lat="48.74849" lon="1.91644">
        <ele>164</ele>
        <time>2010-05-13T12:11:34Z</time>
      </trkpt>
      <trkpt lat="48.74851" lon="1.91643">
        <ele>164</ele>
        <time>2010-05-13T12:11:35Z</time>
      </trkpt>
      <trkpt lat="48.74852" lon="1.91642">
        <ele>164</ele>
        <time>2010-05-13T12:11:36Z</time>
      </trkpt>
      <trkpt lat="48.74854" lon="1.91641">
        <ele>164</ele>
        <time>2010-05-13T12:11:37Z</time>
      </trkpt>
      <trkpt lat="48.74855" lon="1.9164">
        <ele>164</ele>
        <time>2010-05-13T12:11:38Z</time>
      </trkpt>
      <trkpt lat="48.74857" lon="1.91639">
        <ele>164</ele>
        <time>2010-05-13T12:11:39Z</time>
      </trkpt>
      <trkpt lat="48.74859" lon="1.91638">
        <ele>164</ele>
        <time>2010-05-13T12:11:40Z</time>
      </trkpt>
      <trkpt lat="48.7486" lon="1.91636">
        <ele>164</ele>
        <time>2010-05-13T12:11:41Z</time>
      </trkpt>
      <trkpt lat="48.74862" lon="1.91635">
        <ele>164</ele>
        <time>2010-05-13T12:11:42Z</time>
      </trkpt>
      <trkpt lat="48.74863" lon="1.91633">
        <ele>164</ele>
        <time>2010-05-13T12:11:43Z</time>
      </trkpt>
      <trkpt lat="48.74865" lon="1.91632">
        <ele>164</ele>
        <time>2010-05-13T12:11:44Z</time>
      </trkpt>
      <trkpt lat="48.74867" lon="1.91631">
        <ele>164</ele>
        <time>2010-05-13T12:11:45Z</time>
      </trkpt>
      <trkpt lat="48.74868" lon="1.9163">
        <ele>164</ele>
        <time>2010-05-13T12:11:46Z</time>
      </trkpt>
      <trkpt lat="48.7487" lon="1.91629">
        <ele>164</ele>
        <time>2010-05-13T12:11:47Z</time>
      </trkpt>
      <trkpt lat="48.74871" lon="1.91627">
        <ele>164</ele>
        <time>2010-05-13T12:11:48Z</time>
      </trkpt>
      <trkpt lat="48.74873" lon="1.91626">
        <ele>164</ele>
        <time>2010-05-13T12:11:49Z</time>
      </trkpt>
      <trkpt lat="48.74874" lon="1.91625">
        <ele>164</ele>
        <time>2010-05-13T12:11:50Z</time>
      </trkpt>
      <trkpt lat="48.74876" lon="1.91624">
        <ele>164</ele>
        <time>2010-05-13T12:11:51Z</time>
      </trkpt>
      <trkpt lat="48.74877" lon="1.91623">
        <ele>164</ele>
        <time>2010-05-13T12:11:52Z</time>
      </trkpt>
      <trkpt lat="48.74879" lon="1.91622">
        <ele>164</ele>
        <time>2010-05-13T12:11:53Z</time>
      </trkpt>
      <trkpt lat="48.7488" lon="1.9162">
        <ele>164</ele>
        <time>2010-05-13T12:11:54Z</time>
      </trkpt>
      <trkpt lat="48.74882" lon="1.91619">
        <ele>164</ele>
        <time>2010-05-13T12:11:55Z</time>
      </trkpt>
      <trkpt lat="48.74883" lon="1.91618">
        <ele>164</ele>
        <time>2010-05-13T12:11:56Z</time>
      </trkpt>
      <trkpt lat="48.74885" lon="1.91617">
        <ele>164</ele>
        <time>2010-05-13T12:11:57Z</time>
      </trkpt>
      <trkpt lat="48.74886" lon="1.91615">
        <ele>164</ele>
        <time>2010-05-13T12:11:58Z</time>
      </trkpt>
      <trkpt lat="48.74888" lon="1.91614">
        <ele>164</ele>
        <time>2010-05-13T12:11:59Z</time>
      </trkpt>
      <trkpt lat="48.7489" lon="1.91613">
        <ele>164</ele>
        <time>2010-05-13T12:12:00Z</time>
      </trkpt>
      <trkpt lat="48.74891" lon="1.91611">
        <ele>164</ele>
        <time>2010-05-13T12:12:01Z</time>
      </trkpt>
      <trkpt lat="48.74892" lon="1.91611">
        <ele>164</ele>
        <time>2010-05-13T12:12:02Z</time>
      </trkpt>
      <trkpt lat="48.74894" lon="1.9161">
        <ele>164</ele>
        <time>2010-05-13T12:12:03Z</time>
      </trkpt>
      <trkpt lat="48.74895" lon="1.91609">
        <ele>164</ele>
        <time>2010-05-13T12:12:04Z</time>
      </trkpt>
      <trkpt lat="48.74897" lon="1.91609">
        <ele>164</ele>
        <time>2010-05-13T12:12:05Z</time>
      </trkpt>
      <trkpt lat="48.74898" lon="1.91609">
        <ele>164</ele>
        <time>2010-05-13T12:12:06Z</time>
      </trkpt>
      <trkpt lat="48.749" lon="1.91608">
        <ele>164</ele>
        <time>2010-05-13T12:12:07Z</time>
      </trkpt>
      <trkpt lat="48.74901" lon="1.91607">
        <ele>164</ele>
        <time>2010-05-13T12:12:08Z</time>
      </trkpt>
      <trkpt lat="48.74902" lon="1.91606">
        <ele>164</ele>
        <time>2010-05-13T12:12:09Z</time>
      </trkpt>
      <trkpt lat="48.74904" lon="1.91604">
        <ele>164</ele>
        <time>2010-05-13T12:12:10Z</time>
      </trkpt>
      <trkpt lat="48.74906" lon="1.91603">
        <ele>164</ele>
        <time>2010-05-13T12:12:11Z</time>
      </trkpt>
      <trkpt lat="48.74907" lon="1.91601">
        <ele>164</ele>
        <time>2010-05-13T12:12:12Z</time>
      </trkpt>
      <trkpt lat="48.74909" lon="1.916">
        <ele>164</ele>
        <time>2010-05-13T12:12:13Z</time>
      </trkpt>
      <trkpt lat="48.74911" lon="1.91598">
        <ele>164</ele>
        <time>2010-05-13T12:12:14Z</time>
      </trkpt>
      <trkpt lat="48.74913" lon="1.91597">
        <ele>164</ele>
        <time>2010-05-13T12:12:15Z</time>
      </trkpt>
      <trkpt lat="48.74915" lon="1.91596">
        <ele>164</ele>
        <time>2010-05-13T12:12:16Z</time>
      </trkpt>
      <trkpt lat="48.74916" lon="1.91595">
        <ele>164</ele>
        <time>2010-05-13T12:12:17Z</time>
      </trkpt>
      <trkpt lat="48.74918" lon="1.91594">
        <ele>164</ele>
        <time>2010-05-13T12:12:18Z</time>
      </trkpt>
      <trkpt lat="48.7492" lon="1.91594">
        <ele>164</ele>
        <time>2010-05-13T12:12:19Z</time>
      </trkpt>
      <trkpt lat="48.74921" lon="1.91593">
        <ele>164</ele>
        <time>2010-05-13T12:12:20Z</time>
      </trkpt>
      <trkpt lat="48.74923" lon="1.91592">
        <ele>164</ele>
        <time>2010-05-13T12:12:21Z</time>
      </trkpt>
      <trkpt lat="48.74924" lon="1.91591">
        <ele>164</ele>
        <time>2010-05-13T12:12:22Z</time>
      </trkpt>
      <trkpt lat="48.74926" lon="1.9159">
        <ele>164</ele>
        <time>2010-05-13T12:12:23Z</time>
      </trkpt>
      <trkpt lat="48.74927" lon="1.91589">
        <ele>164</ele>
        <time>2010-05-13T12:12:24Z</time>
      </trkpt>
      <trkpt lat="48.74929" lon="1.91589">
        <ele>164</ele>
        <time>2010-05-13T12:12:25Z</time>
      </trkpt>
      <trkpt lat="48.74931" lon="1.91588">
        <ele>164</ele>
        <time>2010-05-13T12:12:26Z</time>
      </trkpt>
      <trkpt lat="48.74932" lon="1.91588">
        <ele>164</ele>
        <time>2010-05-13T12:12:27Z</time>
      </trkpt>
      <trkpt lat="48.74934" lon="1.91587">
        <ele>164</ele>
        <time>2010-05-13T12:12:28Z</time>
      </trkpt>
      <trkpt lat="48.74935" lon="1.91587">
        <ele>164</ele>
        <time>2010-05-13T12:12:29Z</time>
      </trkpt>
      <trkpt lat="48.74937" lon="1.91586">
        <ele>164</ele>
        <time>2010-05-13T12:12:30Z</time>
      </trkpt>
      <trkpt lat="48.74938" lon="1.91586">
        <ele>164</ele>
        <time>2010-05-13T12:12:31Z</time>
      </trkpt>
      <trkpt lat="48.7494" lon="1.91585">
        <ele>164</ele>
        <time>2010-05-13T12:12:32Z</time>
      </trkpt>
      <trkpt lat="48.74942" lon="1.91584">
        <ele>164</ele>
        <time>2010-05-13T12:12:33Z</time>
      </trkpt>
      <trkpt lat="48.74944" lon="1.91583">
        <ele>164</ele>
        <time>2010-05-13T12:12:34Z</time>
      </trkpt>
      <trkpt lat="48.74947" lon="1.91582">
        <ele>164</ele>
        <time>2010-05-13T12:12:35Z</time>
      </trkpt>
      <trkpt lat="48.74949" lon="1.91582">
        <ele>164</ele>
        <time>2010-05-13T12:12:36Z</time>
      </trkpt>
      <trkpt lat="48.74951" lon="1.91582">
        <ele>164</ele>
        <time>2010-05-13T12:12:37Z</time>
      </trkpt>
      <trkpt lat="48.74952" lon="1.91581">
        <ele>164</ele>
        <time>2010-05-13T12:12:38Z</time>
      </trkpt>
      <trkpt lat="48.74954" lon="1.9158">
        <ele>164</ele>
        <time>2010-05-13T12:12:39Z</time>
      </trkpt>
      <trkpt lat="48.74955" lon="1.9158">
        <ele>164</ele>
        <time>2010-05-13T12:12:40Z</time>
      </trkpt>
      <trkpt lat="48.74957" lon="1.91579">
        <ele>164</ele>
        <time>2010-05-13T12:12:41Z</time>
      </trkpt>
      <trkpt lat="48.74958" lon="1.91578">
        <ele>164</ele>
        <time>2010-05-13T12:12:42Z</time>
      </trkpt>
      <trkpt lat="48.74959" lon="1.91575">
        <ele>164</ele>
        <time>2010-05-13T12:12:44Z</time>
      </trkpt>
      <trkpt lat="48.74959" lon="1.91573">
        <ele>164</ele>
        <time>2010-05-13T12:12:45Z</time>
      </trkpt>
      <trkpt lat="48.74959" lon="1.91571">
        <ele>164</ele>
        <time>2010-05-13T12:12:46Z</time>
      </trkpt>
      <trkpt lat="48.74959" lon="1.91569">
        <ele>164</ele>
        <time>2010-05-13T12:12:47Z</time>
      </trkpt>
      <trkpt lat="48.74959" lon="1.91567">
        <ele>164</ele>
        <time>2010-05-13T12:12:48Z</time>
      </trkpt>
      <trkpt lat="48.74959" lon="1.91565">
        <ele>164</ele>
        <time>2010-05-13T12:12:49Z</time>
      </trkpt>
      <trkpt lat="48.74959" lon="1.91562">
        <ele>164</ele>
        <time>2010-05-13T12:12:51Z</time>
      </trkpt>
      <trkpt lat="48.74959" lon="1.9156">
        <ele>164</ele>
        <time>2010-05-13T12:12:52Z</time>
      </trkpt>
      <trkpt lat="48.74959" lon="1.91558">
        <ele>164</ele>
        <time>2010-05-13T12:12:54Z</time>
      </trkpt>
      <trkpt lat="48.74958" lon="1.91555">
        <ele>164</ele>
        <time>2010-05-13T12:12:56Z</time>
      </trkpt>
      <trkpt lat="48.74958" lon="1.91554">
        <ele>164</ele>
        <time>2010-05-13T12:12:57Z</time>
      </trkpt>
      <trkpt lat="48.74959" lon="1.9155">
        <ele>164</ele>
        <time>2010-05-13T12:12:59Z</time>
      </trkpt>
      <trkpt lat="48.74959" lon="1.91549">
        <ele>164</ele>
        <time>2010-05-13T12:13:00Z</time>
      </trkpt>
      <trkpt lat="48.7496" lon="1.91547">
        <ele>164</ele>
        <time>2010-05-13T12:13:01Z</time>
      </trkpt>
      <trkpt lat="48.74961" lon="1.91545">
        <ele>164</ele>
        <time>2010-05-13T12:13:02Z</time>
      </trkpt>
      <trkpt lat="48.74961" lon="1.91543">
        <ele>164</ele>
        <time>2010-05-13T12:13:03Z</time>
      </trkpt>
      <trkpt lat="48.74961" lon="1.9154">
        <ele>164</ele>
        <time>2010-05-13T12:13:05Z</time>
      </trkpt>
      <trkpt lat="48.74961" lon="1.91538">
        <ele>164</ele>
        <time>2010-05-13T12:13:06Z</time>
      </trkpt>
      <trkpt lat="48.74959" lon="1.91535">
        <ele>164</ele>
        <time>2010-05-13T12:13:08Z</time>
      </trkpt>
      <trkpt lat="48.74957" lon="1.91534">
        <ele>164</ele>
        <time>2010-05-13T12:13:09Z</time>
      </trkpt>
      <trkpt lat="48.74956" lon="1.91531">
        <ele>164</ele>
        <time>2010-05-13T12:13:10Z</time>
      </trkpt>
      <trkpt lat="48.74955" lon="1.91529">
        <ele>164</ele>
        <time>2010-05-13T12:13:11Z</time>
      </trkpt>
      <trkpt lat="48.74955" lon="1.91527">
        <ele>164</ele>
        <time>2010-05-13T12:13:12Z</time>
      </trkpt>
      <trkpt lat="48.74954" lon="1.91525">
        <ele>164</ele>
        <time>2010-05-13T12:13:13Z</time>
      </trkpt>
      <trkpt lat="48.74953" lon="1.91523">
        <ele>164</ele>
        <time>2010-05-13T12:13:14Z</time>
      </trkpt>
      <trkpt lat="48.74951" lon="1.9152">
        <ele>164</ele>
        <time>2010-05-13T12:13:16Z</time>
      </trkpt>
      <trkpt lat="48.74951" lon="1.91519">
        <ele>164</ele>
        <time>2010-05-13T12:13:17Z</time>
      </trkpt>
      <trkpt lat="48.74951" lon="1.91517">
        <ele>165</ele>
        <time>2010-05-13T12:13:18Z</time>
      </trkpt>
      <trkpt lat="48.74949" lon="1.91514">
        <ele>165</ele>
        <time>2010-05-13T12:13:19Z</time>
      </trkpt>
      <trkpt lat="48.74948" lon="1.91512">
        <ele>166</ele>
        <time>2010-05-13T12:13:20Z</time>
      </trkpt>
      <trkpt lat="48.74946" lon="1.9151">
        <ele>167</ele>
        <time>2010-05-13T12:13:21Z</time>
      </trkpt>
      <trkpt lat="48.74946" lon="1.91508">
        <ele>167</ele>
        <time>2010-05-13T12:13:22Z</time>
      </trkpt>
      <trkpt lat="48.74945" lon="1.91505">
        <ele>168</ele>
        <time>2010-05-13T12:13:23Z</time>
      </trkpt>
      <trkpt lat="48.74944" lon="1.91502">
        <ele>169</ele>
        <time>2010-05-13T12:13:24Z</time>
      </trkpt>
      <trkpt lat="48.74943" lon="1.91497">
        <ele>169</ele>
        <time>2010-05-13T12:13:25Z</time>
      </trkpt>
      <trkpt lat="48.74942" lon="1.91493">
        <ele>170</ele>
        <time>2010-05-13T12:13:26Z</time>
      </trkpt>
      <trkpt lat="48.74941" lon="1.9149">
        <ele>171</ele>
        <time>2010-05-13T12:13:27Z</time>
      </trkpt>
      <trkpt lat="48.74939" lon="1.91487">
        <ele>171</ele>
        <time>2010-05-13T12:13:28Z</time>
      </trkpt>
      <trkpt lat="48.74937" lon="1.91484">
        <ele>171</ele>
        <time>2010-05-13T12:13:29Z</time>
      </trkpt>
      <trkpt lat="48.74936" lon="1.9148">
        <ele>171</ele>
        <time>2010-05-13T12:13:30Z</time>
      </trkpt>
      <trkpt lat="48.74936" lon="1.91476">
        <ele>171</ele>
        <time>2010-05-13T12:13:31Z</time>
      </trkpt>
      <trkpt lat="48.74935" lon="1.91473">
        <ele>171</ele>
        <time>2010-05-13T12:13:32Z</time>
      </trkpt>
      <trkpt lat="48.74935" lon="1.9147">
        <ele>171</ele>
        <time>2010-05-13T12:13:33Z</time>
      </trkpt>
      <trkpt lat="48.74933" lon="1.91467">
        <ele>171</ele>
        <time>2010-05-13T12:13:34Z</time>
      </trkpt>
      <trkpt lat="48.74932" lon="1.91464">
        <ele>171</ele>
        <time>2010-05-13T12:13:35Z</time>
      </trkpt>
      <trkpt lat="48.74933" lon="1.91461">
        <ele>171</ele>
        <time>2010-05-13T12:13:36Z</time>
      </trkpt>
      <trkpt lat="48.74932" lon="1.91459">
        <ele>171</ele>
        <time>2010-05-13T12:13:37Z</time>
      </trkpt>
      <trkpt lat="48.74931" lon="1.91457">
        <ele>171</ele>
        <time>2010-05-13T12:13:38Z</time>
      </trkpt>
      <trkpt lat="48.74932" lon="1.91454">
        <ele>171</ele>
        <time>2010-05-13T12:13:39Z</time>
      </trkpt>
      <trkpt lat="48.74932" lon="1.91452">
        <ele>171</ele>
        <time>2010-05-13T12:13:40Z</time>
      </trkpt>
      <trkpt lat="48.74932" lon="1.9145">
        <ele>171</ele>
        <time>2010-05-13T12:13:41Z</time>
      </trkpt>
      <trkpt lat="48.74933" lon="1.91447">
        <ele>171</ele>
        <time>2010-05-13T12:13:42Z</time>
      </trkpt>
      <trkpt lat="48.74933" lon="1.91445">
        <ele>171</ele>
        <time>2010-05-13T12:13:43Z</time>
      </trkpt>
      <trkpt lat="48.74933" lon="1.91444">
        <ele>171</ele>
        <time>2010-05-13T12:13:44Z</time>
      </trkpt>
      <trkpt lat="48.74931" lon="1.91441">
        <ele>171</ele>
        <time>2010-05-13T12:13:45Z</time>
      </trkpt>
      <trkpt lat="48.74932" lon="1.91438">
        <ele>171</ele>
        <time>2010-05-13T12:13:46Z</time>
      </trkpt>
      <trkpt lat="48.74932" lon="1.91435">
        <ele>172</ele>
        <time>2010-05-13T12:13:47Z</time>
      </trkpt>
      <trkpt lat="48.74932" lon="1.91432">
        <ele>172</ele>
        <time>2010-05-13T12:13:48Z</time>
      </trkpt>
      <trkpt lat="48.74932" lon="1.9143">
        <ele>173</ele>
        <time>2010-05-13T12:13:49Z</time>
      </trkpt>
      <trkpt lat="48.74931" lon="1.91427">
        <ele>174</ele>
        <time>2010-05-13T12:13:50Z</time>
      </trkpt>
      <trkpt lat="48.74932" lon="1.91425">
        <ele>174</ele>
        <time>2010-05-13T12:13:51Z</time>
      </trkpt>
      <trkpt lat="48.74932" lon="1.91423">
        <ele>175</ele>
        <time>2010-05-13T12:13:52Z</time>
      </trkpt>
      <trkpt lat="48.74931" lon="1.9142">
        <ele>175</ele>
        <time>2010-05-13T12:13:53Z</time>
      </trkpt>
      <trkpt lat="48.7493" lon="1.91417">
        <ele>175</ele>
        <time>2010-05-13T12:13:54Z</time>
      </trkpt>
      <trkpt lat="48.74929" lon="1.91415">
        <ele>175</ele>
        <time>2010-05-13T12:13:55Z</time>
      </trkpt>
      <trkpt lat="48.74928" lon="1.91413">
        <ele>175</ele>
        <time>2010-05-13T12:13:57Z</time>
      </trkpt>
      <trkpt lat="48.74927" lon="1.9141">
        <ele>175</ele>
        <time>2010-05-13T12:13:58Z</time>
      </trkpt>
      <trkpt lat="48.74927" lon="1.91408">
        <ele>175</ele>
        <time>2010-05-13T12:13:59Z</time>
      </trkpt>
      <trkpt lat="48.74926" lon="1.91405">
        <ele>175</ele>
        <time>2010-05-13T12:14:00Z</time>
      </trkpt>
      <trkpt lat="48.74926" lon="1.91402">
        <ele>175</ele>
        <time>2010-05-13T12:14:01Z</time>
      </trkpt>
      <trkpt lat="48.74924" lon="1.91398">
        <ele>175</ele>
        <time>2010-05-13T12:14:02Z</time>
      </trkpt>
      <trkpt lat="48.74922" lon="1.91394">
        <ele>175</ele>
        <time>2010-05-13T12:14:03Z</time>
      </trkpt>
      <trkpt lat="48.74921" lon="1.91391">
        <ele>175</ele>
        <time>2010-05-13T12:14:04Z</time>
      </trkpt>
      <trkpt lat="48.7492" lon="1.91388">
        <ele>175</ele>
        <time>2010-05-13T12:14:05Z</time>
      </trkpt>
      <trkpt lat="48.74919" lon="1.91386">
        <ele>175</ele>
        <time>2010-05-13T12:14:06Z</time>
      </trkpt>
      <trkpt lat="48.74919" lon="1.91385">
        <ele>175</ele>
        <time>2010-05-13T12:14:07Z</time>
      </trkpt>
      <trkpt lat="48.74918" lon="1.91383">
        <ele>175</ele>
        <time>2010-05-13T12:14:08Z</time>
      </trkpt>
      <trkpt lat="48.74918" lon="1.91381">
        <ele>175</ele>
        <time>2010-05-13T12:14:09Z</time>
      </trkpt>
      <trkpt lat="48.74917" lon="1.91379">
        <ele>175</ele>
        <time>2010-05-13T12:14:10Z</time>
      </trkpt>
      <trkpt lat="48.74916" lon="1.91374">
        <ele>175</ele>
        <time>2010-05-13T12:14:11Z</time>
      </trkpt>
      <trkpt lat="48.74915" lon="1.9137">
        <ele>175</ele>
        <time>2010-05-13T12:14:12Z</time>
      </trkpt>
      <trkpt lat="48.74915" lon="1.91366">
        <ele>175</ele>
        <time>2010-05-13T12:14:13Z</time>
      </trkpt>
      <trkpt lat="48.74914" lon="1.91363">
        <ele>175</ele>
        <time>2010-05-13T12:14:14Z</time>
      </trkpt>
      <trkpt lat="48.74912" lon="1.91359">
        <ele>175</ele>
        <time>2010-05-13T12:14:15Z</time>
      </trkpt>
      <trkpt lat="48.74912" lon="1.91356">
        <ele>175</ele>
        <time>2010-05-13T12:14:16Z</time>
      </trkpt>
      <trkpt lat="48.74912" lon="1.91354">
        <ele>175</ele>
        <time>2010-05-13T12:14:17Z</time>
      </trkpt>
      <trkpt lat="48.74912" lon="1.91352">
        <ele>176</ele>
        <time>2010-05-13T12:14:18Z</time>
      </trkpt>
      <trkpt lat="48.7491" lon="1.9135">
        <ele>176</ele>
        <time>2010-05-13T12:14:19Z</time>
      </trkpt>
      <trkpt lat="48.74909" lon="1.91347">
        <ele>176</ele>
        <time>2010-05-13T12:14:20Z</time>
      </trkpt>
      <trkpt lat="48.74908" lon="1.91344">
        <ele>177</ele>
        <time>2010-05-13T12:14:21Z</time>
      </trkpt>
      <trkpt lat="48.74907" lon="1.91341">
        <ele>177</ele>
        <time>2010-05-13T12:14:22Z</time>
      </trkpt>
      <trkpt lat="48.74906" lon="1.91339">
        <ele>177</ele>
        <time>2010-05-13T12:14:23Z</time>
      </trkpt>
      <trkpt lat="48.74906" lon="1.91335">
        <ele>177</ele>
        <time>2010-05-13T12:14:24Z</time>
      </trkpt>
      <trkpt lat="48.74906" lon="1.91334">
        <ele>178</ele>
        <time>2010-05-13T12:14:25Z</time>
      </trkpt>
      <trkpt lat="48.74905" lon="1.91332">
        <ele>178</ele>
        <time>2010-05-13T12:14:26Z</time>
      </trkpt>
      <trkpt lat="48.74904" lon="1.91327">
        <ele>178</ele>
        <time>2010-05-13T12:14:28Z</time>
      </trkpt>
      <trkpt lat="48.74903" lon="1.91324">
        <ele>178</ele>
        <time>2010-05-13T12:14:29Z</time>
      </trkpt>
      <trkpt lat="48.74902" lon="1.91322">
        <ele>178</ele>
        <time>2010-05-13T12:14:30Z</time>
      </trkpt>
      <trkpt lat="48.74901" lon="1.91321">
        <ele>178</ele>
        <time>2010-05-13T12:14:31Z</time>
      </trkpt>
      <trkpt lat="48.74901" lon="1.91318">
        <ele>178</ele>
        <time>2010-05-13T12:14:32Z</time>
      </trkpt>
      <trkpt lat="48.74901" lon="1.91316">
        <ele>178</ele>
        <time>2010-05-13T12:14:33Z</time>
      </trkpt>
      <trkpt lat="48.74901" lon="1.91313">
        <ele>178</ele>
        <time>2010-05-13T12:14:34Z</time>
      </trkpt>
      <trkpt lat="48.74901" lon="1.91311">
        <ele>178</ele>
        <time>2010-05-13T12:14:35Z</time>
      </trkpt>
      <trkpt lat="48.74901" lon="1.9131">
        <ele>178</ele>
        <time>2010-05-13T12:14:36Z</time>
      </trkpt>
      <trkpt lat="48.74901" lon="1.91307">
        <ele>179</ele>
        <time>2010-05-13T12:14:37Z</time>
      </trkpt>
      <trkpt lat="48.749" lon="1.91304">
        <ele>180</ele>
        <time>2010-05-13T12:14:38Z</time>
      </trkpt>
      <trkpt lat="48.749" lon="1.91301">
        <ele>181</ele>
        <time>2010-05-13T12:14:39Z</time>
      </trkpt>
      <trkpt lat="48.74898" lon="1.91297">
        <ele>182</ele>
        <time>2010-05-13T12:14:41Z</time>
      </trkpt>
      <trkpt lat="48.74897" lon="1.91296">
        <ele>182</ele>
        <time>2010-05-13T12:14:42Z</time>
      </trkpt>
      <trkpt lat="48.74896" lon="1.91294">
        <ele>182</ele>
        <time>2010-05-13T12:14:43Z</time>
      </trkpt>
      <trkpt lat="48.74896" lon="1.91292">
        <ele>182</ele>
        <time>2010-05-13T12:14:44Z</time>
      </trkpt>
      <trkpt lat="48.74896" lon="1.91289">
        <ele>182</ele>
        <time>2010-05-13T12:14:45Z</time>
      </trkpt>
      <trkpt lat="48.74894" lon="1.91286">
        <ele>182</ele>
        <time>2010-05-13T12:14:46Z</time>
      </trkpt>
      <trkpt lat="48.74893" lon="1.91282">
        <ele>182</ele>
        <time>2010-05-13T12:14:47Z</time>
      </trkpt>
      <trkpt lat="48.74892" lon="1.91279">
        <ele>182</ele>
        <time>2010-05-13T12:14:48Z</time>
      </trkpt>
      <trkpt lat="48.74891" lon="1.91276">
        <ele>182</ele>
        <time>2010-05-13T12:14:49Z</time>
      </trkpt>
      <trkpt lat="48.74889" lon="1.91273">
        <ele>182</ele>
        <time>2010-05-13T12:14:50Z</time>
      </trkpt>
      <trkpt lat="48.74888" lon="1.91271">
        <ele>182</ele>
        <time>2010-05-13T12:14:51Z</time>
      </trkpt>
      <trkpt lat="48.74887" lon="1.91269">
        <ele>182</ele>
        <time>2010-05-13T12:14:52Z</time>
      </trkpt>
      <trkpt lat="48.74886" lon="1.91268">
        <ele>182</ele>
        <time>2010-05-13T12:14:53Z</time>
      </trkpt>
      <trkpt lat="48.74885" lon="1.91264">
        <ele>182</ele>
        <time>2010-05-13T12:14:55Z</time>
      </trkpt>
      <trkpt lat="48.74885" lon="1.9126">
        <ele>181</ele>
        <time>2010-05-13T12:14:56Z</time>
      </trkpt>
      <trkpt lat="48.74885" lon="1.91258">
        <ele>181</ele>
        <time>2010-05-13T12:14:57Z</time>
      </trkpt>
      <trkpt lat="48.74885" lon="1.91256">
        <ele>181</ele>
        <time>2010-05-13T12:14:58Z</time>
      </trkpt>
      <trkpt lat="48.74885" lon="1.91255">
        <ele>181</ele>
        <time>2010-05-13T12:14:59Z</time>
      </trkpt>
      <trkpt lat="48.74884" lon="1.91252">
        <ele>181</ele>
        <time>2010-05-13T12:15:00Z</time>
      </trkpt>
      <trkpt lat="48.74884" lon="1.91249">
        <ele>181</ele>
        <time>2010-05-13T12:15:01Z</time>
      </trkpt>
      <trkpt lat="48.74884" lon="1.91247">
        <ele>181</ele>
        <time>2010-05-13T12:15:02Z</time>
      </trkpt>
      <trkpt lat="48.74883" lon="1.91245">
        <ele>181</ele>
        <time>2010-05-13T12:15:03Z</time>
      </trkpt>
      <trkpt lat="48.74882" lon="1.91243">
        <ele>181</ele>
        <time>2010-05-13T12:15:04Z</time>
      </trkpt>
      <trkpt lat="48.74881" lon="1.9124">
        <ele>181</ele>
        <time>2010-05-13T12:15:05Z</time>
      </trkpt>
      <trkpt lat="48.7488" lon="1.91238">
        <ele>181</ele>
        <time>2010-05-13T12:15:06Z</time>
      </trkpt>
      <trkpt lat="48.74879" lon="1.91234">
        <ele>180</ele>
        <time>2010-05-13T12:15:07Z</time>
      </trkpt>
      <trkpt lat="48.74879" lon="1.91231">
        <ele>180</ele>
        <time>2010-05-13T12:15:08Z</time>
      </trkpt>
      <trkpt lat="48.74878" lon="1.91228">
        <ele>180</ele>
        <time>2010-05-13T12:15:09Z</time>
      </trkpt>
      <trkpt lat="48.74878" lon="1.91225">
        <ele>180</ele>
        <time>2010-05-13T12:15:10Z</time>
      </trkpt>
      <trkpt lat="48.74878" lon="1.91224">
        <ele>180</ele>
        <time>2010-05-13T12:15:11Z</time>
      </trkpt>
      <trkpt lat="48.74877" lon="1.91221">
        <ele>180</ele>
        <time>2010-05-13T12:15:12Z</time>
      </trkpt>
      <trkpt lat="48.74876" lon="1.91219">
        <ele>180</ele>
        <time>2010-05-13T12:15:13Z</time>
      </trkpt>
      <trkpt lat="48.74875" lon="1.91217">
        <ele>180</ele>
        <time>2010-05-13T12:15:14Z</time>
      </trkpt>
      <trkpt lat="48.74874" lon="1.91215">
        <ele>180</ele>
        <time>2010-05-13T12:15:15Z</time>
      </trkpt>
      <trkpt lat="48.74873" lon="1.91213">
        <ele>180</ele>
        <time>2010-05-13T12:15:16Z</time>
      </trkpt>
      <trkpt lat="48.74872" lon="1.91211">
        <ele>180</ele>
        <time>2010-05-13T12:15:17Z</time>
      </trkpt>
      <trkpt lat="48.74871" lon="1.91209">
        <ele>180</ele>
        <time>2010-05-13T12:15:18Z</time>
      </trkpt>
      <trkpt lat="48.74871" lon="1.91207">
        <ele>180</ele>
        <time>2010-05-13T12:15:19Z</time>
      </trkpt>
      <trkpt lat="48.74871" lon="1.91205">
        <ele>180</ele>
        <time>2010-05-13T12:15:20Z</time>
      </trkpt>
      <trkpt lat="48.7487" lon="1.91203">
        <ele>180</ele>
        <time>2010-05-13T12:15:21Z</time>
      </trkpt>
      <trkpt lat="48.7487" lon="1.91199">
        <ele>180</ele>
        <time>2010-05-13T12:15:22Z</time>
      </trkpt>
      <trkpt lat="48.74869" lon="1.91197">
        <ele>180</ele>
        <time>2010-05-13T12:15:23Z</time>
      </trkpt>
      <trkpt lat="48.74868" lon="1.91195">
        <ele>180</ele>
        <time>2010-05-13T12:15:24Z</time>
      </trkpt>
      <trkpt lat="48.74866" lon="1.91192">
        <ele>180</ele>
        <time>2010-05-13T12:15:25Z</time>
      </trkpt>
      <trkpt lat="48.74866" lon="1.91188">
        <ele>180</ele>
        <time>2010-05-13T12:15:26Z</time>
      </trkpt>
      <trkpt lat="48.74864" lon="1.91186">
        <ele>180</ele>
        <time>2010-05-13T12:15:27Z</time>
      </trkpt>
      <trkpt lat="48.74863" lon="1.91183">
        <ele>180</ele>
        <time>2010-05-13T12:15:28Z</time>
      </trkpt>
      <trkpt lat="48.74862" lon="1.9118">
        <ele>180</ele>
        <time>2010-05-13T12:15:29Z</time>
      </trkpt>
      <trkpt lat="48.74862" lon="1.91177">
        <ele>180</ele>
        <time>2010-05-13T12:15:30Z</time>
      </trkpt>
      <trkpt lat="48.74862" lon="1.91174">
        <ele>180</ele>
        <time>2010-05-13T12:15:31Z</time>
      </trkpt>
      <trkpt lat="48.74862" lon="1.91173">
        <ele>180</ele>
        <time>2010-05-13T12:15:32Z</time>
      </trkpt>
      <trkpt lat="48.74862" lon="1.9117">
        <ele>180</ele>
        <time>2010-05-13T12:15:33Z</time>
      </trkpt>
      <trkpt lat="48.74862" lon="1.91167">
        <ele>180</ele>
        <time>2010-05-13T12:15:35Z</time>
      </trkpt>
      <trkpt lat="48.74862" lon="1.91165">
        <ele>180</ele>
        <time>2010-05-13T12:15:36Z</time>
      </trkpt>
      <trkpt lat="48.74861" lon="1.91161">
        <ele>180</ele>
        <time>2010-05-13T12:15:38Z</time>
      </trkpt>
      <trkpt lat="48.74859" lon="1.91159">
        <ele>180</ele>
        <time>2010-05-13T12:15:39Z</time>
      </trkpt>
      <trkpt lat="48.7486" lon="1.91157">
        <ele>180</ele>
        <time>2010-05-13T12:15:40Z</time>
      </trkpt>
      <trkpt lat="48.7486" lon="1.91154">
        <ele>180</ele>
        <time>2010-05-13T12:15:41Z</time>
      </trkpt>
      <trkpt lat="48.74859" lon="1.91152">
        <ele>180</ele>
        <time>2010-05-13T12:15:42Z</time>
      </trkpt>
      <trkpt lat="48.74857" lon="1.9115">
        <ele>180</ele>
        <time>2010-05-13T12:15:43Z</time>
      </trkpt>
      <trkpt lat="48.74856" lon="1.91148">
        <ele>180</ele>
        <time>2010-05-13T12:15:44Z</time>
      </trkpt>
      <trkpt lat="48.74855" lon="1.91146">
        <ele>180</ele>
        <time>2010-05-13T12:15:45Z</time>
      </trkpt>
      <trkpt lat="48.74855" lon="1.91143">
        <ele>180</ele>
        <time>2010-05-13T12:15:46Z</time>
      </trkpt>
      <trkpt lat="48.74855" lon="1.91141">
        <ele>180</ele>
        <time>2010-05-13T12:15:47Z</time>
      </trkpt>
      <trkpt lat="48.74855" lon="1.91138">
        <ele>180</ele>
        <time>2010-05-13T12:15:48Z</time>
      </trkpt>
      <trkpt lat="48.74854" lon="1.91134">
        <ele>180</ele>
        <time>2010-05-13T12:15:49Z</time>
      </trkpt>
      <trkpt lat="48.74852" lon="1.91126">
        <ele>180</ele>
        <time>2010-05-13T12:15:52Z</time>
      </trkpt>
      <trkpt lat="48.74852" lon="1.91122">
        <ele>180</ele>
        <time>2010-05-13T12:15:53Z</time>
      </trkpt>
      <trkpt lat="48.7485" lon="1.91119">
        <ele>180</ele>
        <time>2010-05-13T12:15:54Z</time>
      </trkpt>
      <trkpt lat="48.7485" lon="1.91116">
        <ele>180</ele>
        <time>2010-05-13T12:15:55Z</time>
      </trkpt>
      <trkpt lat="48.74848" lon="1.91114">
        <ele>180</ele>
        <time>2010-05-13T12:15:56Z</time>
      </trkpt>
      <trkpt lat="48.74849" lon="1.91111">
        <ele>180</ele>
        <time>2010-05-13T12:15:57Z</time>
      </trkpt>
      <trkpt lat="48.74848" lon="1.91109">
        <ele>180</ele>
        <time>2010-05-13T12:15:58Z</time>
      </trkpt>
      <trkpt lat="48.74847" lon="1.91106">
        <ele>180</ele>
        <time>2010-05-13T12:15:59Z</time>
      </trkpt>
      <trkpt lat="48.74847" lon="1.91103">
        <ele>180</ele>
        <time>2010-05-13T12:16:00Z</time>
      </trkpt>
      <trkpt lat="48.74847" lon="1.91099">
        <ele>180</ele>
        <time>2010-05-13T12:16:03Z</time>
      </trkpt>
      <trkpt lat="48.74845" lon="1.91096">
        <ele>180</ele>
        <time>2010-05-13T12:16:04Z</time>
      </trkpt>
      <trkpt lat="48.74844" lon="1.91092">
        <ele>180</ele>
        <time>2010-05-13T12:16:05Z</time>
      </trkpt>
      <trkpt lat="48.74844" lon="1.91089">
        <ele>180</ele>
        <time>2010-05-13T12:16:06Z</time>
      </trkpt>
      <trkpt lat="48.74843" lon="1.91085">
        <ele>180</ele>
        <time>2010-05-13T12:16:08Z</time>
      </trkpt>
      <trkpt lat="48.74842" lon="1.91082">
        <ele>180</ele>
        <time>2010-05-13T12:16:09Z</time>
      </trkpt>
      <trkpt lat="48.74842" lon="1.9108">
        <ele>180</ele>
        <time>2010-05-13T12:16:10Z</time>
      </trkpt>
      <trkpt lat="48.74841" lon="1.91078">
        <ele>179</ele>
        <time>2010-05-13T12:16:12Z</time>
      </trkpt>
      <trkpt lat="48.7484" lon="1.91073">
        <ele>178</ele>
        <time>2010-05-13T12:16:14Z</time>
      </trkpt>
      <trkpt lat="48.7484" lon="1.91071">
        <ele>178</ele>
        <time>2010-05-13T12:16:15Z</time>
      </trkpt>
      <trkpt lat="48.7484" lon="1.91068">
        <ele>178</ele>
        <time>2010-05-13T12:16:16Z</time>
      </trkpt>
      <trkpt lat="48.74839" lon="1.91066">
        <ele>177</ele>
        <time>2010-05-13T12:16:17Z</time>
      </trkpt>
      <trkpt lat="48.74838" lon="1.91063">
        <ele>177</ele>
        <time>2010-05-13T12:16:19Z</time>
      </trkpt>
      <trkpt lat="48.74836" lon="1.9106">
        <ele>177</ele>
        <time>2010-05-13T12:16:21Z</time>
      </trkpt>
      <trkpt lat="48.74835" lon="1.91057">
        <ele>177</ele>
        <time>2010-05-13T12:16:22Z</time>
      </trkpt>
      <trkpt lat="48.74834" lon="1.91055">
        <ele>177</ele>
        <time>2010-05-13T12:16:23Z</time>
      </trkpt>
      <trkpt lat="48.74833" lon="1.91052">
        <ele>177</ele>
        <time>2010-05-13T12:16:24Z</time>
      </trkpt>
      <trkpt lat="48.74832" lon="1.91049">
        <ele>177</ele>
        <time>2010-05-13T12:16:25Z</time>
      </trkpt>
      <trkpt lat="48.7483" lon="1.91046">
        <ele>177</ele>
        <time>2010-05-13T12:16:26Z</time>
      </trkpt>
      <trkpt lat="48.74829" lon="1.91042">
        <ele>177</ele>
        <time>2010-05-13T12:16:28Z</time>
      </trkpt>
      <trkpt lat="48.74828" lon="1.9104">
        <ele>177</ele>
        <time>2010-05-13T12:16:29Z</time>
      </trkpt>
      <trkpt lat="48.74827" lon="1.91038">
        <ele>177</ele>
        <time>2010-05-13T12:16:30Z</time>
      </trkpt>
      <trkpt lat="48.74826" lon="1.91035">
        <ele>177</ele>
        <time>2010-05-13T12:16:31Z</time>
      </trkpt>
      <trkpt lat="48.74826" lon="1.91033">
        <ele>177</ele>
        <time>2010-05-13T12:16:32Z</time>
      </trkpt>
      <trkpt lat="48.74825" lon="1.91031">
        <ele>177</ele>
        <time>2010-05-13T12:16:33Z</time>
      </trkpt>
      <trkpt lat="48.74824" lon="1.91029">
        <ele>177</ele>
        <time>2010-05-13T12:16:34Z</time>
      </trkpt>
      <trkpt lat="48.74824" lon="1.91027">
        <ele>177</ele>
        <time>2010-05-13T12:16:35Z</time>
      </trkpt>
      <trkpt lat="48.74823" lon="1.91024">
        <ele>177</ele>
        <time>2010-05-13T12:16:36Z</time>
      </trkpt>
      <trkpt lat="48.74822" lon="1.91021">
        <ele>177</ele>
        <time>2010-05-13T12:16:38Z</time>
      </trkpt>
      <trkpt lat="48.74821" lon="1.91018">
        <ele>177</ele>
        <time>2010-05-13T12:16:39Z</time>
      </trkpt>
      <trkpt lat="48.7482" lon="1.91016">
        <ele>177</ele>
        <time>2010-05-13T12:16:40Z</time>
      </trkpt>
      <trkpt lat="48.74819" lon="1.91014">
        <ele>177</ele>
        <time>2010-05-13T12:16:41Z</time>
      </trkpt>
      <trkpt lat="48.74817" lon="1.91011">
        <ele>177</ele>
        <time>2010-05-13T12:16:42Z</time>
      </trkpt>
      <trkpt lat="48.74816" lon="1.91009">
        <ele>177</ele>
        <time>2010-05-13T12:16:43Z</time>
      </trkpt>
      <trkpt lat="48.74816" lon="1.91007">
        <ele>177</ele>
        <time>2010-05-13T12:16:44Z</time>
      </trkpt>
      <trkpt lat="48.74815" lon="1.91004">
        <ele>177</ele>
        <time>2010-05-13T12:16:45Z</time>
      </trkpt>
      <trkpt lat="48.74815" lon="1.90999">
        <ele>177</ele>
        <time>2010-05-13T12:16:46Z</time>
      </trkpt>
      <trkpt lat="48.74814" lon="1.90996">
        <ele>177</ele>
        <time>2010-05-13T12:16:47Z</time>
      </trkpt>
      <trkpt lat="48.74813" lon="1.90993">
        <ele>177</ele>
        <time>2010-05-13T12:16:48Z</time>
      </trkpt>
      <trkpt lat="48.74812" lon="1.90991">
        <ele>177</ele>
        <time>2010-05-13T12:16:49Z</time>
      </trkpt>
      <trkpt lat="48.74811" lon="1.90989">
        <ele>176</ele>
        <time>2010-05-13T12:16:50Z</time>
      </trkpt>
      <trkpt lat="48.74811" lon="1.90986">
        <ele>176</ele>
        <time>2010-05-13T12:16:51Z</time>
      </trkpt>
      <trkpt lat="48.74811" lon="1.90983">
        <ele>176</ele>
        <time>2010-05-13T12:16:52Z</time>
      </trkpt>
      <trkpt lat="48.74811" lon="1.90981">
        <ele>176</ele>
        <time>2010-05-13T12:16:53Z</time>
      </trkpt>
      <trkpt lat="48.7481" lon="1.90978">
        <ele>176</ele>
        <time>2010-05-13T12:16:54Z</time>
      </trkpt>
      <trkpt lat="48.7481" lon="1.90976">
        <ele>176</ele>
        <time>2010-05-13T12:16:55Z</time>
      </trkpt>
      <trkpt lat="48.74811" lon="1.90972">
        <ele>176</ele>
        <time>2010-05-13T12:16:56Z</time>
      </trkpt>
      <trkpt lat="48.7481" lon="1.90969">
        <ele>176</ele>
        <time>2010-05-13T12:16:57Z</time>
      </trkpt>
      <trkpt lat="48.7481" lon="1.90967">
        <ele>176</ele>
        <time>2010-05-13T12:16:58Z</time>
      </trkpt>
      <trkpt lat="48.7481" lon="1.90965">
        <ele>176</ele>
        <time>2010-05-13T12:16:59Z</time>
      </trkpt>
      <trkpt lat="48.7481" lon="1.90962">
        <ele>176</ele>
        <time>2010-05-13T12:17:00Z</time>
      </trkpt>
      <trkpt lat="48.74809" lon="1.90959">
        <ele>176</ele>
        <time>2010-05-13T12:17:02Z</time>
      </trkpt>
      <trkpt lat="48.74808" lon="1.90958">
        <ele>177</ele>
        <time>2010-05-13T12:17:04Z</time>
      </trkpt>
      <trkpt lat="48.74806" lon="1.90954">
        <ele>177</ele>
        <time>2010-05-13T12:17:06Z</time>
      </trkpt>
      <trkpt lat="48.74804" lon="1.9095">
        <ele>177</ele>
        <time>2010-05-13T12:17:07Z</time>
      </trkpt>
      <trkpt lat="48.74804" lon="1.90948">
        <ele>177</ele>
        <time>2010-05-13T12:17:08Z</time>
      </trkpt>
      <trkpt lat="48.74804" lon="1.90946">
        <ele>177</ele>
        <time>2010-05-13T12:17:09Z</time>
      </trkpt>
      <trkpt lat="48.74803" lon="1.90943">
        <ele>177</ele>
        <time>2010-05-13T12:17:10Z</time>
      </trkpt>
      <trkpt lat="48.74803" lon="1.9094">
        <ele>177</ele>
        <time>2010-05-13T12:17:11Z</time>
      </trkpt>
      <trkpt lat="48.74803" lon="1.90938">
        <ele>177</ele>
        <time>2010-05-13T12:17:13Z</time>
      </trkpt>
      <trkpt lat="48.74803" lon="1.90934">
        <ele>177</ele>
        <time>2010-05-13T12:17:14Z</time>
      </trkpt>
      <trkpt lat="48.74803" lon="1.90932">
        <ele>177</ele>
        <time>2010-05-13T12:17:15Z</time>
      </trkpt>
      <trkpt lat="48.74804" lon="1.9093">
        <ele>178</ele>
        <time>2010-05-13T12:17:16Z</time>
      </trkpt>
      <trkpt lat="48.74803" lon="1.90927">
        <ele>179</ele>
        <time>2010-05-13T12:17:17Z</time>
      </trkpt>
      <trkpt lat="48.74804" lon="1.90924">
        <ele>180</ele>
        <time>2010-05-13T12:17:18Z</time>
      </trkpt>
      <trkpt lat="48.74803" lon="1.90921">
        <ele>181</ele>
        <time>2010-05-13T12:17:19Z</time>
      </trkpt>
      <trkpt lat="48.74803" lon="1.90918">
        <ele>182</ele>
        <time>2010-05-13T12:17:20Z</time>
      </trkpt>
      <trkpt lat="48.74803" lon="1.90916">
        <ele>182</ele>
        <time>2010-05-13T12:17:21Z</time>
      </trkpt>
      <trkpt lat="48.74803" lon="1.90914">
        <ele>183</ele>
        <time>2010-05-13T12:17:22Z</time>
      </trkpt>
      <trkpt lat="48.74802" lon="1.90911">
        <ele>183</ele>
        <time>2010-05-13T12:17:23Z</time>
      </trkpt>
      <trkpt lat="48.74801" lon="1.90909">
        <ele>183</ele>
        <time>2010-05-13T12:17:24Z</time>
      </trkpt>
      <trkpt lat="48.748" lon="1.90906">
        <ele>183</ele>
        <time>2010-05-13T12:17:25Z</time>
      </trkpt>
      <trkpt lat="48.74799" lon="1.90904">
        <ele>183</ele>
        <time>2010-05-13T12:17:26Z</time>
      </trkpt>
      <trkpt lat="48.74799" lon="1.90901">
        <ele>183</ele>
        <time>2010-05-13T12:17:28Z</time>
      </trkpt>
      <trkpt lat="48.74799" lon="1.90899">
        <ele>183</ele>
        <time>2010-05-13T12:17:29Z</time>
      </trkpt>
      <trkpt lat="48.74798" lon="1.90897">
        <ele>183</ele>
        <time>2010-05-13T12:17:30Z</time>
      </trkpt>
      <trkpt lat="48.74796" lon="1.90893">
        <ele>183</ele>
        <time>2010-05-13T12:17:32Z</time>
      </trkpt>
      <trkpt lat="48.74795" lon="1.9089">
        <ele>183</ele>
        <time>2010-05-13T12:17:33Z</time>
      </trkpt>
      <trkpt lat="48.74794" lon="1.90888">
        <ele>183</ele>
        <time>2010-05-13T12:17:34Z</time>
      </trkpt>
      <trkpt lat="48.74793" lon="1.90886">
        <ele>183</ele>
        <time>2010-05-13T12:17:35Z</time>
      </trkpt>
      <trkpt lat="48.74792" lon="1.90883">
        <ele>183</ele>
        <time>2010-05-13T12:17:36Z</time>
      </trkpt>
      <trkpt lat="48.74792" lon="1.90881">
        <ele>183</ele>
        <time>2010-05-13T12:17:37Z</time>
      </trkpt>
      <trkpt lat="48.74792" lon="1.9088">
        <ele>183</ele>
        <time>2010-05-13T12:17:38Z</time>
      </trkpt>
      <trkpt lat="48.74792" lon="1.90877">
        <ele>184</ele>
        <time>2010-05-13T12:17:39Z</time>
      </trkpt>
      <trkpt lat="48.74791" lon="1.90874">
        <ele>185</ele>
        <time>2010-05-13T12:17:41Z</time>
      </trkpt>
      <trkpt lat="48.7479" lon="1.90872">
        <ele>185</ele>
        <time>2010-05-13T12:17:42Z</time>
      </trkpt>
      <trkpt lat="48.74789" lon="1.9087">
        <ele>186</ele>
        <time>2010-05-13T12:17:43Z</time>
      </trkpt>
      <trkpt lat="48.74788" lon="1.90867">
        <ele>186</ele>
        <time>2010-05-13T12:17:44Z</time>
      </trkpt>
      <trkpt lat="48.74787" lon="1.90865">
        <ele>186</ele>
        <time>2010-05-13T12:17:45Z</time>
      </trkpt>
      <trkpt lat="48.74786" lon="1.90863">
        <ele>186</ele>
        <time>2010-05-13T12:17:46Z</time>
      </trkpt>
      <trkpt lat="48.74785" lon="1.9086">
        <ele>186</ele>
        <time>2010-05-13T12:17:47Z</time>
      </trkpt>
      <trkpt lat="48.74784" lon="1.90857">
        <ele>186</ele>
        <time>2010-05-13T12:17:48Z</time>
      </trkpt>
      <trkpt lat="48.74783" lon="1.90855">
        <ele>186</ele>
        <time>2010-05-13T12:17:49Z</time>
      </trkpt>
      <trkpt lat="48.74781" lon="1.90852">
        <ele>186</ele>
        <time>2010-05-13T12:17:51Z</time>
      </trkpt>
      <trkpt lat="48.74779" lon="1.9085">
        <ele>186</ele>
        <time>2010-05-13T12:17:53Z</time>
      </trkpt>
      <trkpt lat="48.74778" lon="1.90849">
        <ele>186</ele>
        <time>2010-05-13T12:17:56Z</time>
      </trkpt>
      <trkpt lat="48.74777" lon="1.90847">
        <ele>185</ele>
        <time>2010-05-13T12:17:57Z</time>
      </trkpt>
      <trkpt lat="48.74777" lon="1.90845">
        <ele>184</ele>
        <time>2010-05-13T12:17:58Z</time>
      </trkpt>
      <trkpt lat="48.74776" lon="1.90843">
        <ele>183</ele>
        <time>2010-05-13T12:17:59Z</time>
      </trkpt>
      <trkpt lat="48.74775" lon="1.90841">
        <ele>183</ele>
        <time>2010-05-13T12:18:00Z</time>
      </trkpt>
      <trkpt lat="48.74774" lon="1.90838">
        <ele>182</ele>
        <time>2010-05-13T12:18:01Z</time>
      </trkpt>
      <trkpt lat="48.74773" lon="1.90836">
        <ele>182</ele>
        <time>2010-05-13T12:18:02Z</time>
      </trkpt>
      <trkpt lat="48.74772" lon="1.90834">
        <ele>182</ele>
        <time>2010-05-13T12:18:03Z</time>
      </trkpt>
      <trkpt lat="48.74771" lon="1.90832">
        <ele>182</ele>
        <time>2010-05-13T12:18:04Z</time>
      </trkpt>
      <trkpt lat="48.74771" lon="1.90829">
        <ele>181</ele>
        <time>2010-05-13T12:18:06Z</time>
      </trkpt>
      <trkpt lat="48.74771" lon="1.90827">
        <ele>181</ele>
        <time>2010-05-13T12:18:07Z</time>
      </trkpt>
      <trkpt lat="48.74771" lon="1.90825">
        <ele>181</ele>
        <time>2010-05-13T12:18:08Z</time>
      </trkpt>
      <trkpt lat="48.7477" lon="1.90822">
        <ele>181</ele>
        <time>2010-05-13T12:18:09Z</time>
      </trkpt>
      <trkpt lat="48.74769" lon="1.9082">
        <ele>180</ele>
        <time>2010-05-13T12:18:10Z</time>
      </trkpt>
      <trkpt lat="48.74768" lon="1.90818">
        <ele>180</ele>
        <time>2010-05-13T12:18:11Z</time>
      </trkpt>
      <trkpt lat="48.74767" lon="1.90816">
        <ele>178</ele>
        <time>2010-05-13T12:18:13Z</time>
      </trkpt>
      <trkpt lat="48.74766" lon="1.90813">
        <ele>177</ele>
        <time>2010-05-13T12:18:14Z</time>
      </trkpt>
      <trkpt lat="48.74765" lon="1.90811">
        <ele>176</ele>
        <time>2010-05-13T12:18:15Z</time>
      </trkpt>
      <trkpt lat="48.74764" lon="1.90809">
        <ele>175</ele>
        <time>2010-05-13T12:18:16Z</time>
      </trkpt>
      <trkpt lat="48.74763" lon="1.90806">
        <ele>174</ele>
        <time>2010-05-13T12:18:17Z</time>
      </trkpt>
      <trkpt lat="48.74762" lon="1.90804">
        <ele>174</ele>
        <time>2010-05-13T12:18:18Z</time>
      </trkpt>
      <trkpt lat="48.74763" lon="1.90802">
        <ele>174</ele>
        <time>2010-05-13T12:18:19Z</time>
      </trkpt>
      <trkpt lat="48.74761" lon="1.908">
        <ele>174</ele>
        <time>2010-05-13T12:18:20Z</time>
      </trkpt>
      <trkpt lat="48.74761" lon="1.90798">
        <ele>174</ele>
        <time>2010-05-13T12:18:21Z</time>
      </trkpt>
      <trkpt lat="48.7476" lon="1.90795">
        <ele>174</ele>
        <time>2010-05-13T12:18:23Z</time>
      </trkpt>
      <trkpt lat="48.74759" lon="1.90795">
        <ele>174</ele>
        <time>2010-05-13T12:18:35Z</time>
      </trkpt>
      <trkpt lat="48.74758" lon="1.90793">
        <ele>174</ele>
        <time>2010-05-13T12:18:37Z</time>
      </trkpt>
      <trkpt lat="48.74758" lon="1.90791">
        <ele>174</ele>
        <time>2010-05-13T12:18:39Z</time>
      </trkpt>
      <trkpt lat="48.74757" lon="1.90788">
        <ele>174</ele>
        <time>2010-05-13T12:18:41Z</time>
      </trkpt>
      <trkpt lat="48.74757" lon="1.90786">
        <ele>174</ele>
        <time>2010-05-13T12:18:42Z</time>
      </trkpt>
      <trkpt lat="48.74758" lon="1.90783">
        <ele>174</ele>
        <time>2010-05-13T12:18:43Z</time>
      </trkpt>
      <trkpt lat="48.74759" lon="1.9078">
        <ele>174</ele>
        <time>2010-05-13T12:18:45Z</time>
      </trkpt>
      <trkpt lat="48.74761" lon="1.90781">
        <ele>174</ele>
        <time>2010-05-13T12:18:47Z</time>
      </trkpt>
      <trkpt lat="48.74763" lon="1.90779">
        <ele>174</ele>
        <time>2010-05-13T12:18:49Z</time>
      </trkpt>
      <trkpt lat="48.74761" lon="1.90777">
        <ele>174</ele>
        <time>2010-05-13T12:18:51Z</time>
      </trkpt>
      <trkpt lat="48.74759" lon="1.90774">
        <ele>174</ele>
        <time>2010-05-13T12:18:53Z</time>
      </trkpt>
      <trkpt lat="48.74757" lon="1.90773">
        <ele>174</ele>
        <time>2010-05-13T12:18:54Z</time>
      </trkpt>
      <trkpt lat="48.74757" lon="1.90771">
        <ele>174</ele>
        <time>2010-05-13T12:18:56Z</time>
      </trkpt>
      <trkpt lat="48.74757" lon="1.90769">
        <ele>174</ele>
        <time>2010-05-13T12:18:57Z</time>
      </trkpt>
      <trkpt lat="48.74756" lon="1.90763">
        <ele>174</ele>
        <time>2010-05-13T12:19:00Z</time>
      </trkpt>
      <trkpt lat="48.74756" lon="1.9076">
        <ele>174</ele>
        <time>2010-05-13T12:19:01Z</time>
      </trkpt>
      <trkpt lat="48.74755" lon="1.90756">
        <ele>174</ele>
        <time>2010-05-13T12:19:02Z</time>
      </trkpt>
      <trkpt lat="48.74755" lon="1.90753">
        <ele>174</ele>
        <time>2010-05-13T12:19:03Z</time>
      </trkpt>
      <trkpt lat="48.74755" lon="1.90748">
        <ele>174</ele>
        <time>2010-05-13T12:19:04Z</time>
      </trkpt>
      <trkpt lat="48.74755" lon="1.90745">
        <ele>174</ele>
        <time>2010-05-13T12:19:05Z</time>
      </trkpt>
      <trkpt lat="48.74754" lon="1.90743">
        <ele>174</ele>
        <time>2010-05-13T12:19:06Z</time>
      </trkpt>
      <trkpt lat="48.74753" lon="1.9074">
        <ele>175</ele>
        <time>2010-05-13T12:19:07Z</time>
      </trkpt>
      <trkpt lat="48.74753" lon="1.90737">
        <ele>176</ele>
        <time>2010-05-13T12:19:08Z</time>
      </trkpt>
      <trkpt lat="48.7475" lon="1.90732">
        <ele>176</ele>
        <time>2010-05-13T12:19:11Z</time>
      </trkpt>
      <trkpt lat="48.74749" lon="1.90726">
        <ele>177</ele>
        <time>2010-05-13T12:19:12Z</time>
      </trkpt>
      <trkpt lat="48.74747" lon="1.90724">
        <ele>177</ele>
        <time>2010-05-13T12:19:13Z</time>
      </trkpt>
      <trkpt lat="48.74746" lon="1.9072">
        <ele>178</ele>
        <time>2010-05-13T12:19:14Z</time>
      </trkpt>
      <trkpt lat="48.74744" lon="1.90719">
        <ele>178</ele>
        <time>2010-05-13T12:19:15Z</time>
      </trkpt>
      <trkpt lat="48.74742" lon="1.90717">
        <ele>178</ele>
        <time>2010-05-13T12:19:16Z</time>
      </trkpt>
      <trkpt lat="48.74741" lon="1.90713">
        <ele>178</ele>
        <time>2010-05-13T12:19:18Z</time>
      </trkpt>
      <trkpt lat="48.7474" lon="1.90711">
        <ele>178</ele>
        <time>2010-05-13T12:19:19Z</time>
      </trkpt>
      <trkpt lat="48.74739" lon="1.90709">
        <ele>178</ele>
        <time>2010-05-13T12:19:20Z</time>
      </trkpt>
      <trkpt lat="48.74738" lon="1.90705">
        <ele>178</ele>
        <time>2010-05-13T12:19:23Z</time>
      </trkpt>
      <trkpt lat="48.74739" lon="1.90691">
        <ele>178</ele>
        <time>2010-05-13T12:19:29Z</time>
      </trkpt>
      <trkpt lat="48.74738" lon="1.90685">
        <ele>178</ele>
        <time>2010-05-13T12:19:30Z</time>
      </trkpt>
      <trkpt lat="48.7474" lon="1.90682">
        <ele>178</ele>
        <time>2010-05-13T12:19:31Z</time>
      </trkpt>
      <trkpt lat="48.74741" lon="1.9068">
        <ele>178</ele>
        <time>2010-05-13T12:19:34Z</time>
      </trkpt>
      <trkpt lat="48.74744" lon="1.90677">
        <ele>178</ele>
        <time>2010-05-13T12:19:36Z</time>
      </trkpt>
      <trkpt lat="48.74746" lon="1.90674">
        <ele>178</ele>
        <time>2010-05-13T12:19:37Z</time>
      </trkpt>
      <trkpt lat="48.74744" lon="1.90668">
        <ele>178</ele>
        <time>2010-05-13T12:19:44Z</time>
      </trkpt>
      <trkpt lat="48.74745" lon="1.90669">
        <ele>174</ele>
        <time>2010-05-13T12:19:49Z</time>
      </trkpt>
      <trkpt lat="48.74746" lon="1.90672">
        <ele>171</ele>
        <time>2010-05-13T12:19:52Z</time>
      </trkpt>
      <trkpt lat="48.74747" lon="1.90674">
        <ele>168</ele>
        <time>2010-05-13T12:19:55Z</time>
      </trkpt>
      <trkpt lat="48.74748" lon="1.90675">
        <ele>159</ele>
        <time>2010-05-13T12:20:01Z</time>
      </trkpt>
      <trkpt lat="48.7475" lon="1.90677">
        <ele>155</ele>
        <time>2010-05-13T12:20:05Z</time>
      </trkpt>
      <trkpt lat="48.74752" lon="1.90674">
        <ele>153</ele>
        <time>2010-05-13T12:20:07Z</time>
      </trkpt>
      <trkpt lat="48.74753" lon="1.90672">
        <ele>152</ele>
        <time>2010-05-13T12:20:08Z</time>
      </trkpt>
      <trkpt lat="48.74754" lon="1.90665">
        <ele>155</ele>
        <time>2010-05-13T12:20:14Z</time>
      </trkpt>
      <trkpt lat="48.74756" lon="1.90664">
        <ele>157</ele>
        <time>2010-05-13T12:20:16Z</time>
      </trkpt>
      <trkpt lat="48.74754" lon="1.90664">
        <ele>159</ele>
        <time>2010-05-13T12:20:18Z</time>
      </trkpt>
      <trkpt lat="48.74754" lon="1.90662">
        <ele>160</ele>
        <time>2010-05-13T12:20:19Z</time>
      </trkpt>
      <trkpt lat="48.74752" lon="1.90661">
        <ele>161</ele>
        <time>2010-05-13T12:20:20Z</time>
      </trkpt>
      <trkpt lat="48.74751" lon="1.90658">
        <ele>162</ele>
        <time>2010-05-13T12:20:21Z</time>
      </trkpt>
      <trkpt lat="48.74751" lon="1.90656">
        <ele>163</ele>
        <time>2010-05-13T12:20:22Z</time>
      </trkpt>
      <trkpt lat="48.7475" lon="1.90653">
        <ele>164</ele>
        <time>2010-05-13T12:20:23Z</time>
      </trkpt>
      <trkpt lat="48.74749" lon="1.90651">
        <ele>165</ele>
        <time>2010-05-13T12:20:24Z</time>
      </trkpt>
      <trkpt lat="48.74749" lon="1.90649">
        <ele>166</ele>
        <time>2010-05-13T12:20:25Z</time>
      </trkpt>
      <trkpt lat="48.74747" lon="1.90652">
        <ele>169</ele>
        <time>2010-05-13T12:20:28Z</time>
      </trkpt>
      <trkpt lat="48.74745" lon="1.90652">
        <ele>169</ele>
        <time>2010-05-13T12:20:29Z</time>
      </trkpt>
      <trkpt lat="48.74744" lon="1.90653">
        <ele>169</ele>
        <time>2010-05-13T12:20:30Z</time>
      </trkpt>
      <trkpt lat="48.74751" lon="1.90653">
        <ele>176</ele>
        <time>2010-05-13T12:20:44Z</time>
      </trkpt>
      <trkpt lat="48.74752" lon="1.90655">
        <ele>177</ele>
        <time>2010-05-13T12:20:45Z</time>
      </trkpt>
      <trkpt lat="48.74751" lon="1.90656">
        <ele>178</ele>
        <time>2010-05-13T12:20:46Z</time>
      </trkpt>
      <trkpt lat="48.74751" lon="1.90658">
        <ele>179</ele>
        <time>2010-05-13T12:20:48Z</time>
      </trkpt>
      <trkpt lat="48.74751" lon="1.9066">
        <ele>179</ele>
        <time>2010-05-13T12:20:51Z</time>
      </trkpt>
      <trkpt lat="48.74748" lon="1.90663">
        <ele>179</ele>
        <time>2010-05-13T12:20:55Z</time>
      </trkpt>
      <trkpt lat="48.74747" lon="1.90665">
        <ele>179</ele>
        <time>2010-05-13T12:20:56Z</time>
      </trkpt>
      <trkpt lat="48.74747" lon="1.90668">
        <ele>179</ele>
        <time>2010-05-13T12:20:57Z</time>
      </trkpt>
      <trkpt lat="48.74747" lon="1.90666">
        <ele>179</ele>
        <time>2010-05-13T12:21:00Z</time>
      </trkpt>
      <trkpt lat="48.74749" lon="1.90662">
        <ele>179</ele>
        <time>2010-05-13T12:21:05Z</time>
      </trkpt>
      <trkpt lat="48.74751" lon="1.90661">
        <ele>179</ele>
        <time>2010-05-13T12:21:06Z</time>
      </trkpt>
      <trkpt lat="48.74752" lon="1.90662">
        <ele>179</ele>
        <time>2010-05-13T12:21:07Z</time>
      </trkpt>
      <trkpt lat="48.74754" lon="1.90662">
        <ele>179</ele>
        <time>2010-05-13T12:21:09Z</time>
      </trkpt>
      <trkpt lat="48.74752" lon="1.90659">
        <ele>179</ele>
        <time>2010-05-13T12:21:10Z</time>
      </trkpt>
      <trkpt lat="48.74749" lon="1.90658">
        <ele>179</ele>
        <time>2010-05-13T12:21:11Z</time>
      </trkpt>
      <trkpt lat="48.74746" lon="1.90657">
        <ele>179</ele>
        <time>2010-05-13T12:21:12Z</time>
      </trkpt>
      <trkpt lat="48.74745" lon="1.90657">
        <ele>179</ele>
        <time>2010-05-13T12:21:13Z</time>
      </trkpt>
      <trkpt lat="48.74744" lon="1.90654">
        <ele>176</ele>
        <time>2010-05-13T12:21:17Z</time>
      </trkpt>
      <trkpt lat="48.74744" lon="1.90652">
        <ele>175</ele>
        <time>2010-05-13T12:21:18Z</time>
      </trkpt>
      <trkpt lat="48.74746" lon="1.90652">
        <ele>172</ele>
        <time>2010-05-13T12:21:21Z</time>
      </trkpt>
      <trkpt lat="48.74744" lon="1.90653">
        <ele>170</ele>
        <time>2010-05-13T12:21:28Z</time>
      </trkpt>
      <trkpt lat="48.74746" lon="1.90652">
        <ele>169</ele>
        <time>2010-05-13T12:21:29Z</time>
      </trkpt>
      <trkpt lat="48.74746" lon="1.9065">
        <ele>169</ele>
        <time>2010-05-13T12:21:32Z</time>
      </trkpt>
      <trkpt lat="48.74747" lon="1.90647">
        <ele>169</ele>
        <time>2010-05-13T12:21:33Z</time>
      </trkpt>
      <trkpt lat="48.74749" lon="1.90646">
        <ele>170</ele>
        <time>2010-05-13T12:21:36Z</time>
      </trkpt>
      <trkpt lat="48.74746" lon="1.90644">
        <ele>172</ele>
        <time>2010-05-13T12:21:40Z</time>
      </trkpt>
      <trkpt lat="48.74746" lon="1.90648">
        <ele>174</ele>
        <time>2010-05-13T12:21:45Z</time>
      </trkpt>
      <trkpt lat="48.74743" lon="1.90656">
        <ele>174</ele>
        <time>2010-05-13T12:21:46Z</time>
      </trkpt>
      <trkpt lat="48.74742" lon="1.90658">
        <ele>174</ele>
        <time>2010-05-13T12:21:47Z</time>
      </trkpt>
      <trkpt lat="48.7474" lon="1.90662">
        <ele>173</ele>
        <time>2010-05-13T12:21:49Z</time>
      </trkpt>
      <trkpt lat="48.74741" lon="1.90664">
        <ele>172</ele>
        <time>2010-05-13T12:21:50Z</time>
      </trkpt>
      <trkpt lat="48.7474" lon="1.90667">
        <ele>171</ele>
        <time>2010-05-13T12:21:51Z</time>
      </trkpt>
      <trkpt lat="48.7474" lon="1.9067">
        <ele>170</ele>
        <time>2010-05-13T12:21:52Z</time>
      </trkpt>
      <trkpt lat="48.74738" lon="1.90671">
        <ele>169</ele>
        <time>2010-05-13T12:21:53Z</time>
      </trkpt>
      <trkpt lat="48.74739" lon="1.90673">
        <ele>168</ele>
        <time>2010-05-13T12:21:56Z</time>
      </trkpt>
      <trkpt lat="48.74741" lon="1.90674">
        <ele>167</ele>
        <time>2010-05-13T12:21:57Z</time>
      </trkpt>
      <trkpt lat="48.74739" lon="1.90673">
        <ele>167</ele>
        <time>2010-05-13T12:21:58Z</time>
      </trkpt>
      <trkpt lat="48.74737" lon="1.90671">
        <ele>166</ele>
        <time>2010-05-13T12:21:59Z</time>
      </trkpt>
      <trkpt lat="48.74736" lon="1.90668">
        <ele>166</ele>
        <time>2010-05-13T12:22:00Z</time>
      </trkpt>
      <trkpt lat="48.74738" lon="1.90666">
        <ele>166</ele>
        <time>2010-05-13T12:22:02Z</time>
      </trkpt>
      <trkpt lat="48.74739" lon="1.90664">
        <ele>166</ele>
        <time>2010-05-13T12:22:03Z</time>
      </trkpt>
      <trkpt lat="48.7474" lon="1.90661">
        <ele>166</ele>
        <time>2010-05-13T12:22:04Z</time>
      </trkpt>
      <trkpt lat="48.74742" lon="1.90659">
        <ele>166</ele>
        <time>2010-05-13T12:22:05Z</time>
      </trkpt>
      <trkpt lat="48.74743" lon="1.90657">
        <ele>166</ele>
        <time>2010-05-13T12:22:06Z</time>
      </trkpt>
      <trkpt lat="48.74743" lon="1.90655">
        <ele>166</ele>
        <time>2010-05-13T12:22:07Z</time>
      </trkpt>
      <trkpt lat="48.74746" lon="1.90655">
        <ele>166</ele>
        <time>2010-05-13T12:22:08Z</time>
      </trkpt>
      <trkpt lat="48.74747" lon="1.90654">
        <ele>166</ele>
        <time>2010-05-13T12:22:09Z</time>
      </trkpt>
      <trkpt lat="48.74748" lon="1.90651">
        <ele>166</ele>
        <time>2010-05-13T12:22:10Z</time>
      </trkpt>
      <trkpt lat="48.74748" lon="1.90649">
        <ele>166</ele>
        <time>2010-05-13T12:22:11Z</time>
      </trkpt>
      <trkpt lat="48.7475" lon="1.90647">
        <ele>166</ele>
        <time>2010-05-13T12:22:12Z</time>
      </trkpt>
      <trkpt lat="48.74753" lon="1.90644">
        <ele>166</ele>
        <time>2010-05-13T12:22:13Z</time>
      </trkpt>
      <trkpt lat="48.74755" lon="1.90641">
        <ele>166</ele>
        <time>2010-05-13T12:22:14Z</time>
      </trkpt>
      <trkpt lat="48.74756" lon="1.9064">
        <ele>166</ele>
        <time>2010-05-13T12:22:15Z</time>
      </trkpt>
      <trkpt lat="48.74758" lon="1.90637">
        <ele>166</ele>
        <time>2010-05-13T12:22:16Z</time>
      </trkpt>
      <trkpt lat="48.74759" lon="1.90634">
        <ele>167</ele>
        <time>2010-05-13T12:22:17Z</time>
      </trkpt>
      <trkpt lat="48.7476" lon="1.90631">
        <ele>168</ele>
        <time>2010-05-13T12:22:18Z</time>
      </trkpt>
      <trkpt lat="48.74761" lon="1.90629">
        <ele>168</ele>
        <time>2010-05-13T12:22:19Z</time>
      </trkpt>
      <trkpt lat="48.74761" lon="1.90627">
        <ele>168</ele>
        <time>2010-05-13T12:22:20Z</time>
      </trkpt>
      <trkpt lat="48.74763" lon="1.90624">
        <ele>169</ele>
        <time>2010-05-13T12:22:21Z</time>
      </trkpt>
      <trkpt lat="48.74763" lon="1.90622">
        <ele>169</ele>
        <time>2010-05-13T12:22:22Z</time>
      </trkpt>
      <trkpt lat="48.74763" lon="1.9062">
        <ele>170</ele>
        <time>2010-05-13T12:22:23Z</time>
      </trkpt>
      <trkpt lat="48.74764" lon="1.90618">
        <ele>170</ele>
        <time>2010-05-13T12:22:24Z</time>
      </trkpt>
      <trkpt lat="48.74763" lon="1.90615">
        <ele>170</ele>
        <time>2010-05-13T12:22:25Z</time>
      </trkpt>
      <trkpt lat="48.74765" lon="1.90613">
        <ele>170</ele>
        <time>2010-05-13T12:22:26Z</time>
      </trkpt>
      <trkpt lat="48.74765" lon="1.9061">
        <ele>171</ele>
        <time>2010-05-13T12:22:27Z</time>
      </trkpt>
      <trkpt lat="48.74765" lon="1.90608">
        <ele>171</ele>
        <time>2010-05-13T12:22:28Z</time>
      </trkpt>
      <trkpt lat="48.74765" lon="1.90605">
        <ele>172</ele>
        <time>2010-05-13T12:22:29Z</time>
      </trkpt>
      <trkpt lat="48.74767" lon="1.90601">
        <ele>173</ele>
        <time>2010-05-13T12:22:32Z</time>
      </trkpt>
      <trkpt lat="48.74768" lon="1.90599">
        <ele>174</ele>
        <time>2010-05-13T12:22:33Z</time>
      </trkpt>
      <trkpt lat="48.74769" lon="1.90596">
        <ele>175</ele>
        <time>2010-05-13T12:22:34Z</time>
      </trkpt>
      <trkpt lat="48.74771" lon="1.90591">
        <ele>177</ele>
        <time>2010-05-13T12:22:39Z</time>
      </trkpt>
      <trkpt lat="48.74772" lon="1.90585">
        <ele>178</ele>
        <time>2010-05-13T12:22:40Z</time>
      </trkpt>
      <trkpt lat="48.74772" lon="1.9058">
        <ele>178</ele>
        <time>2010-05-13T12:22:41Z</time>
      </trkpt>
      <trkpt lat="48.74775" lon="1.90579">
        <ele>178</ele>
        <time>2010-05-13T12:22:42Z</time>
      </trkpt>
      <trkpt lat="48.74776" lon="1.90576">
        <ele>178</ele>
        <time>2010-05-13T12:22:43Z</time>
      </trkpt>
      <trkpt lat="48.74779" lon="1.90568">
        <ele>178</ele>
        <time>2010-05-13T12:22:47Z</time>
      </trkpt>
      <trkpt lat="48.74782" lon="1.90561">
        <ele>178</ele>
        <time>2010-05-13T12:22:48Z</time>
      </trkpt>
      <trkpt lat="48.74782" lon="1.90554">
        <ele>178</ele>
        <time>2010-05-13T12:22:52Z</time>
      </trkpt>
      <trkpt lat="48.7478" lon="1.90551">
        <ele>178</ele>
        <time>2010-05-13T12:22:53Z</time>
      </trkpt>
      <trkpt lat="48.74778" lon="1.90549">
        <ele>178</ele>
        <time>2010-05-13T12:22:54Z</time>
      </trkpt>
      <trkpt lat="48.74777" lon="1.90547">
        <ele>178</ele>
        <time>2010-05-13T12:22:56Z</time>
      </trkpt>
      <trkpt lat="48.74779" lon="1.90545">
        <ele>177</ele>
        <time>2010-05-13T12:22:57Z</time>
      </trkpt>
      <trkpt lat="48.74781" lon="1.90541">
        <ele>176</ele>
        <time>2010-05-13T12:23:01Z</time>
      </trkpt>
      <trkpt lat="48.74782" lon="1.90535">
        <ele>176</ele>
        <time>2010-05-13T12:23:02Z</time>
      </trkpt>
      <trkpt lat="48.74782" lon="1.90532">
        <ele>175</ele>
        <time>2010-05-13T12:23:03Z</time>
      </trkpt>
      <trkpt lat="48.74782" lon="1.90527">
        <ele>175</ele>
        <time>2010-05-13T12:23:04Z</time>
      </trkpt>
      <trkpt lat="48.74783" lon="1.90525">
        <ele>174</ele>
        <time>2010-05-13T12:23:05Z</time>
      </trkpt>
      <trkpt lat="48.74785" lon="1.90523">
        <ele>174</ele>
        <time>2010-05-13T12:23:06Z</time>
      </trkpt>
      <trkpt lat="48.74787" lon="1.90521">
        <ele>174</ele>
        <time>2010-05-13T12:23:07Z</time>
      </trkpt>
      <trkpt lat="48.74786" lon="1.90518">
        <ele>174</ele>
        <time>2010-05-13T12:23:08Z</time>
      </trkpt>
      <trkpt lat="48.74786" lon="1.90515">
        <ele>174</ele>
        <time>2010-05-13T12:23:10Z</time>
      </trkpt>
      <trkpt lat="48.74787" lon="1.90513">
        <ele>174</ele>
        <time>2010-05-13T12:23:11Z</time>
      </trkpt>
      <trkpt lat="48.74788" lon="1.9051">
        <ele>174</ele>
        <time>2010-05-13T12:23:12Z</time>
      </trkpt>
      <trkpt lat="48.74787" lon="1.90505">
        <ele>174</ele>
        <time>2010-05-13T12:23:15Z</time>
      </trkpt>
      <trkpt lat="48.74792" lon="1.90491">
        <ele>175</ele>
        <time>2010-05-13T12:23:19Z</time>
      </trkpt>
      <trkpt lat="48.74792" lon="1.90483">
        <ele>176</ele>
        <time>2010-05-13T12:23:20Z</time>
      </trkpt>
      <trkpt lat="48.7479" lon="1.90479">
        <ele>179</ele>
        <time>2010-05-13T12:23:26Z</time>
      </trkpt>
      <trkpt lat="48.7479" lon="1.90473">
        <ele>180</ele>
        <time>2010-05-13T12:23:27Z</time>
      </trkpt>
      <trkpt lat="48.74791" lon="1.90471">
        <ele>181</ele>
        <time>2010-05-13T12:23:28Z</time>
      </trkpt>
      <trkpt lat="48.74792" lon="1.90467">
        <ele>182</ele>
        <time>2010-05-13T12:23:29Z</time>
      </trkpt>
      <trkpt lat="48.74793" lon="1.90465">
        <ele>183</ele>
        <time>2010-05-13T12:23:30Z</time>
      </trkpt>
      <trkpt lat="48.74792" lon="1.90461">
        <ele>183</ele>
        <time>2010-05-13T12:23:32Z</time>
      </trkpt>
      <trkpt lat="48.74793" lon="1.90458">
        <ele>183</ele>
        <time>2010-05-13T12:23:33Z</time>
      </trkpt>
      <trkpt lat="48.74793" lon="1.90456">
        <ele>183</ele>
        <time>2010-05-13T12:23:34Z</time>
      </trkpt>
      <trkpt lat="48.74794" lon="1.90454">
        <ele>183</ele>
        <time>2010-05-13T12:23:35Z</time>
      </trkpt>
      <trkpt lat="48.74794" lon="1.90452">
        <ele>185</ele>
        <time>2010-05-13T12:23:37Z</time>
      </trkpt>
      <trkpt lat="48.74793" lon="1.90449">
        <ele>185</ele>
        <time>2010-05-13T12:23:38Z</time>
      </trkpt>
      <trkpt lat="48.74793" lon="1.90447">
        <ele>186</ele>
        <time>2010-05-13T12:23:40Z</time>
      </trkpt>
      <trkpt lat="48.74794" lon="1.90446">
        <ele>187</ele>
        <time>2010-05-13T12:23:41Z</time>
      </trkpt>
      <trkpt lat="48.74793" lon="1.90444">
        <ele>187</ele>
        <time>2010-05-13T12:23:42Z</time>
      </trkpt>
      <trkpt lat="48.74792" lon="1.90442">
        <ele>187</ele>
        <time>2010-05-13T12:23:43Z</time>
      </trkpt>
      <trkpt lat="48.74791" lon="1.9044">
        <ele>187</ele>
        <time>2010-05-13T12:23:44Z</time>
      </trkpt>
      <trkpt lat="48.7479" lon="1.90437">
        <ele>188</ele>
        <time>2010-05-13T12:23:45Z</time>
      </trkpt>
      <trkpt lat="48.74789" lon="1.90436">
        <ele>188</ele>
        <time>2010-05-13T12:23:46Z</time>
      </trkpt>
      <trkpt lat="48.74789" lon="1.90434">
        <ele>188</ele>
        <time>2010-05-13T12:23:47Z</time>
      </trkpt>
      <trkpt lat="48.74788" lon="1.90431">
        <ele>189</ele>
        <time>2010-05-13T12:23:48Z</time>
      </trkpt>
      <trkpt lat="48.74788" lon="1.90429">
        <ele>190</ele>
        <time>2010-05-13T12:23:49Z</time>
      </trkpt>
      <trkpt lat="48.74787" lon="1.90426">
        <ele>191</ele>
        <time>2010-05-13T12:23:50Z</time>
      </trkpt>
      <trkpt lat="48.74787" lon="1.90424">
        <ele>192</ele>
        <time>2010-05-13T12:23:51Z</time>
      </trkpt>
      <trkpt lat="48.74786" lon="1.90422">
        <ele>192</ele>
        <time>2010-05-13T12:23:53Z</time>
      </trkpt>
      <trkpt lat="48.74786" lon="1.90419">
        <ele>192</ele>
        <time>2010-05-13T12:23:55Z</time>
      </trkpt>
      <trkpt lat="48.74786" lon="1.90417">
        <ele>192</ele>
        <time>2010-05-13T12:23:56Z</time>
      </trkpt>
      <trkpt lat="48.74786" lon="1.90415">
        <ele>192</ele>
        <time>2010-05-13T12:23:57Z</time>
      </trkpt>
      <trkpt lat="48.74788" lon="1.90406">
        <ele>191</ele>
        <time>2010-05-13T12:24:01Z</time>
      </trkpt>
      <trkpt lat="48.74789" lon="1.90398">
        <ele>190</ele>
        <time>2010-05-13T12:24:02Z</time>
      </trkpt>
      <trkpt lat="48.74792" lon="1.90394">
        <ele>189</ele>
        <time>2010-05-13T12:24:03Z</time>
      </trkpt>
      <trkpt lat="48.74793" lon="1.9039">
        <ele>189</ele>
        <time>2010-05-13T12:24:04Z</time>
      </trkpt>
      <trkpt lat="48.74793" lon="1.90386">
        <ele>189</ele>
        <time>2010-05-13T12:24:05Z</time>
      </trkpt>
      <trkpt lat="48.74791" lon="1.90383">
        <ele>189</ele>
        <time>2010-05-13T12:24:06Z</time>
      </trkpt>
      <trkpt lat="48.74791" lon="1.90379">
        <ele>189</ele>
        <time>2010-05-13T12:24:07Z</time>
      </trkpt>
      <trkpt lat="48.74791" lon="1.90375">
        <ele>189</ele>
        <time>2010-05-13T12:24:08Z</time>
      </trkpt>
      <trkpt lat="48.74791" lon="1.90367">
        <ele>188</ele>
        <time>2010-05-13T12:24:11Z</time>
      </trkpt>
      <trkpt lat="48.74794" lon="1.90358">
        <ele>187</ele>
        <time>2010-05-13T12:24:12Z</time>
      </trkpt>
      <trkpt lat="48.74795" lon="1.90354">
        <ele>186</ele>
        <time>2010-05-13T12:24:13Z</time>
      </trkpt>
      <trkpt lat="48.74807" lon="1.90314">
        <ele>171</ele>
        <time>2010-05-13T12:24:24Z</time>
      </trkpt>
      <trkpt lat="48.74807" lon="1.90311">
        <ele>170</ele>
        <time>2010-05-13T12:24:25Z</time>
      </trkpt>
      <trkpt lat="48.74807" lon="1.90308">
        <ele>169</ele>
        <time>2010-05-13T12:24:26Z</time>
      </trkpt>
      <trkpt lat="48.74807" lon="1.90305">
        <ele>168</ele>
        <time>2010-05-13T12:24:27Z</time>
      </trkpt>
      <trkpt lat="48.74807" lon="1.90302">
        <ele>167</ele>
        <time>2010-05-13T12:24:28Z</time>
      </trkpt>
      <trkpt lat="48.74808" lon="1.90284">
        <ele>160</ele>
        <time>2010-05-13T12:24:34Z</time>
      </trkpt>
      <trkpt lat="48.74807" lon="1.9028">
        <ele>158</ele>
        <time>2010-05-13T12:24:35Z</time>
      </trkpt>
      <trkpt lat="48.74811" lon="1.90266">
        <ele>156</ele>
        <time>2010-05-13T12:24:39Z</time>
      </trkpt>
      <trkpt lat="48.74815" lon="1.90258">
        <ele>154</ele>
        <time>2010-05-13T12:24:40Z</time>
      </trkpt>
      <trkpt lat="48.74815" lon="1.90255">
        <ele>153</ele>
        <time>2010-05-13T12:24:41Z</time>
      </trkpt>
      <trkpt lat="48.74816" lon="1.90253">
        <ele>152</ele>
        <time>2010-05-13T12:24:42Z</time>
      </trkpt>
      <trkpt lat="48.74817" lon="1.9025">
        <ele>151</ele>
        <time>2010-05-13T12:24:43Z</time>
      </trkpt>
      <trkpt lat="48.74818" lon="1.90247">
        <ele>150</ele>
        <time>2010-05-13T12:24:44Z</time>
      </trkpt>
      <trkpt lat="48.74818" lon="1.90244">
        <ele>149</ele>
        <time>2010-05-13T12:24:45Z</time>
      </trkpt>
      <trkpt lat="48.74819" lon="1.9024">
        <ele>148</ele>
        <time>2010-05-13T12:24:46Z</time>
      </trkpt>
      <trkpt lat="48.74821" lon="1.90236">
        <ele>148</ele>
        <time>2010-05-13T12:24:47Z</time>
      </trkpt>
      <trkpt lat="48.74823" lon="1.9023">
        <ele>148</ele>
        <time>2010-05-13T12:24:48Z</time>
      </trkpt>
      <trkpt lat="48.74822" lon="1.90226">
        <ele>148</ele>
        <time>2010-05-13T12:24:49Z</time>
      </trkpt>
      <trkpt lat="48.74822" lon="1.9022">
        <ele>148</ele>
        <time>2010-05-13T12:24:50Z</time>
      </trkpt>
      <trkpt lat="48.7482" lon="1.90216">
        <ele>148</ele>
        <time>2010-05-13T12:24:51Z</time>
      </trkpt>
      <trkpt lat="48.74818" lon="1.90211">
        <ele>148</ele>
        <time>2010-05-13T12:24:52Z</time>
      </trkpt>
      <trkpt lat="48.74816" lon="1.90207">
        <ele>148</ele>
        <time>2010-05-13T12:24:53Z</time>
      </trkpt>
      <trkpt lat="48.74814" lon="1.90196">
        <ele>148</ele>
        <time>2010-05-13T12:24:57Z</time>
      </trkpt>
      <trkpt lat="48.74817" lon="1.90189">
        <ele>148</ele>
        <time>2010-05-13T12:24:58Z</time>
      </trkpt>
      <trkpt lat="48.74819" lon="1.90183">
        <ele>148</ele>
        <time>2010-05-13T12:24:59Z</time>
      </trkpt>
      <trkpt lat="48.7482" lon="1.90178">
        <ele>148</ele>
        <time>2010-05-13T12:25:00Z</time>
      </trkpt>
      <trkpt lat="48.7482" lon="1.90173">
        <ele>148</ele>
        <time>2010-05-13T12:25:01Z</time>
      </trkpt>
      <trkpt lat="48.74821" lon="1.90163">
        <ele>148</ele>
        <time>2010-05-13T12:25:05Z</time>
      </trkpt>
      <trkpt lat="48.74821" lon="1.90155">
        <ele>148</ele>
        <time>2010-05-13T12:25:06Z</time>
      </trkpt>
      <trkpt lat="48.74822" lon="1.90148">
        <ele>148</ele>
        <time>2010-05-13T12:25:07Z</time>
      </trkpt>
      <trkpt lat="48.74822" lon="1.90142">
        <ele>148</ele>
        <time>2010-05-13T12:25:08Z</time>
      </trkpt>
      <trkpt lat="48.74822" lon="1.90137">
        <ele>148</ele>
        <time>2010-05-13T12:25:09Z</time>
      </trkpt>
      <trkpt lat="48.74823" lon="1.90133">
        <ele>148</ele>
        <time>2010-05-13T12:25:10Z</time>
      </trkpt>
      <trkpt lat="48.74823" lon="1.9013">
        <ele>148</ele>
        <time>2010-05-13T12:25:11Z</time>
      </trkpt>
      <trkpt lat="48.74823" lon="1.90124">
        <ele>148</ele>
        <time>2010-05-13T12:25:12Z</time>
      </trkpt>
      <trkpt lat="48.74823" lon="1.90119">
        <ele>149</ele>
        <time>2010-05-13T12:25:13Z</time>
      </trkpt>
      <trkpt lat="48.74824" lon="1.90115">
        <ele>150</ele>
        <time>2010-05-13T12:25:14Z</time>
      </trkpt>
      <trkpt lat="48.74825" lon="1.90112">
        <ele>151</ele>
        <time>2010-05-13T12:25:15Z</time>
      </trkpt>
      <trkpt lat="48.74824" lon="1.90103">
        <ele>152</ele>
        <time>2010-05-13T12:25:16Z</time>
      </trkpt>
      <trkpt lat="48.74825" lon="1.90099">
        <ele>153</ele>
        <time>2010-05-13T12:25:17Z</time>
      </trkpt>
      <trkpt lat="48.74825" lon="1.90094">
        <ele>154</ele>
        <time>2010-05-13T12:25:18Z</time>
      </trkpt>
      <trkpt lat="48.74826" lon="1.90088">
        <ele>155</ele>
        <time>2010-05-13T12:25:19Z</time>
      </trkpt>
      <trkpt lat="48.74827" lon="1.90082">
        <ele>157</ele>
        <time>2010-05-13T12:25:20Z</time>
      </trkpt>
      <trkpt lat="48.74829" lon="1.90078">
        <ele>158</ele>
        <time>2010-05-13T12:25:21Z</time>
      </trkpt>
      <trkpt lat="48.74831" lon="1.90072">
        <ele>159</ele>
        <time>2010-05-13T12:25:22Z</time>
      </trkpt>
      <trkpt lat="48.74835" lon="1.90064">
        <ele>160</ele>
        <time>2010-05-13T12:25:23Z</time>
      </trkpt>
      <trkpt lat="48.74838" lon="1.9006">
        <ele>161</ele>
        <time>2010-05-13T12:25:24Z</time>
      </trkpt>
      <trkpt lat="48.74839" lon="1.90055">
        <ele>162</ele>
        <time>2010-05-13T12:25:25Z</time>
      </trkpt>
      <trkpt lat="48.74842" lon="1.90045">
        <ele>163</ele>
        <time>2010-05-13T12:25:26Z</time>
      </trkpt>
      <trkpt lat="48.74844" lon="1.90039">
        <ele>164</ele>
        <time>2010-05-13T12:25:27Z</time>
      </trkpt>
      <trkpt lat="48.74845" lon="1.90035">
        <ele>165</ele>
        <time>2010-05-13T12:25:28Z</time>
      </trkpt>
      <trkpt lat="48.74846" lon="1.90031">
        <ele>166</ele>
        <time>2010-05-13T12:25:29Z</time>
      </trkpt>
      <trkpt lat="48.74847" lon="1.90029">
        <ele>167</ele>
        <time>2010-05-13T12:25:30Z</time>
      </trkpt>
      <trkpt lat="48.74848" lon="1.90024">
        <ele>168</ele>
        <time>2010-05-13T12:25:31Z</time>
      </trkpt>
      <trkpt lat="48.7485" lon="1.90021">
        <ele>169</ele>
        <time>2010-05-13T12:25:32Z</time>
      </trkpt>
      <trkpt lat="48.7485" lon="1.90017">
        <ele>170</ele>
        <time>2010-05-13T12:25:33Z</time>
      </trkpt>
      <trkpt lat="48.74851" lon="1.90013">
        <ele>170</ele>
        <time>2010-05-13T12:25:34Z</time>
      </trkpt>
      <trkpt lat="48.74852" lon="1.9001">
        <ele>170</ele>
        <time>2010-05-13T12:25:35Z</time>
      </trkpt>
      <trkpt lat="48.74852" lon="1.90008">
        <ele>170</ele>
        <time>2010-05-13T12:25:36Z</time>
      </trkpt>
      <trkpt lat="48.74854" lon="1.90004">
        <ele>170</ele>
        <time>2010-05-13T12:25:37Z</time>
      </trkpt>
      <trkpt lat="48.74855" lon="1.90001">
        <ele>170</ele>
        <time>2010-05-13T12:25:38Z</time>
      </trkpt>
      <trkpt lat="48.74855" lon="1.89998">
        <ele>170</ele>
        <time>2010-05-13T12:25:39Z</time>
      </trkpt>
      <trkpt lat="48.74857" lon="1.89995">
        <ele>170</ele>
        <time>2010-05-13T12:25:40Z</time>
      </trkpt>
      <trkpt lat="48.74857" lon="1.89992">
        <ele>169</ele>
        <time>2010-05-13T12:25:41Z</time>
      </trkpt>
      <trkpt lat="48.74859" lon="1.89988">
        <ele>168</ele>
        <time>2010-05-13T12:25:42Z</time>
      </trkpt>
      <trkpt lat="48.7486" lon="1.89986">
        <ele>167</ele>
        <time>2010-05-13T12:25:43Z</time>
      </trkpt>
      <trkpt lat="48.74872" lon="1.89965">
        <ele>165</ele>
        <time>2010-05-13T12:25:49Z</time>
      </trkpt>
      <trkpt lat="48.74873" lon="1.89959">
        <ele>165</ele>
        <time>2010-05-13T12:25:52Z</time>
      </trkpt>
      <trkpt lat="48.74872" lon="1.89948">
        <ele>165</ele>
        <time>2010-05-13T12:25:53Z</time>
      </trkpt>
      <trkpt lat="48.74871" lon="1.89942">
        <ele>165</ele>
        <time>2010-05-13T12:25:54Z</time>
      </trkpt>
      <trkpt lat="48.74871" lon="1.89938">
        <ele>165</ele>
        <time>2010-05-13T12:25:55Z</time>
      </trkpt>
      <trkpt lat="48.74872" lon="1.89934">
        <ele>165</ele>
        <time>2010-05-13T12:25:56Z</time>
      </trkpt>
      <trkpt lat="48.74873" lon="1.8993">
        <ele>165</ele>
        <time>2010-05-13T12:25:57Z</time>
      </trkpt>
      <trkpt lat="48.74873" lon="1.89926">
        <ele>164</ele>
        <time>2010-05-13T12:25:58Z</time>
      </trkpt>
      <trkpt lat="48.74878" lon="1.89912">
        <ele>164</ele>
        <time>2010-05-13T12:26:02Z</time>
      </trkpt>
      <trkpt lat="48.74879" lon="1.89911">
        <ele>164</ele>
        <time>2010-05-13T12:26:03Z</time>
      </trkpt>
      <trkpt lat="48.74883" lon="1.89909">
        <ele>164</ele>
        <time>2010-05-13T12:26:04Z</time>
      </trkpt>
      <trkpt lat="48.74889" lon="1.89907">
        <ele>164</ele>
        <time>2010-05-13T12:26:05Z</time>
      </trkpt>
      <trkpt lat="48.74891" lon="1.89906">
        <ele>164</ele>
        <time>2010-05-13T12:26:06Z</time>
      </trkpt>
      <trkpt lat="48.74892" lon="1.89904">
        <ele>165</ele>
        <time>2010-05-13T12:26:09Z</time>
      </trkpt>
      <trkpt lat="48.74891" lon="1.89901">
        <ele>165</ele>
        <time>2010-05-13T12:26:11Z</time>
      </trkpt>
      <trkpt lat="48.7489" lon="1.89899">
        <ele>165</ele>
        <time>2010-05-13T12:26:12Z</time>
      </trkpt>
      <trkpt lat="48.74892" lon="1.89898">
        <ele>165</ele>
        <time>2010-05-13T12:26:14Z</time>
      </trkpt>
      <trkpt lat="48.74894" lon="1.89898">
        <ele>165</ele>
        <time>2010-05-13T12:26:15Z</time>
      </trkpt>
      <trkpt lat="48.74896" lon="1.89897">
        <ele>165</ele>
        <time>2010-05-13T12:26:16Z</time>
      </trkpt>
      <trkpt lat="48.74897" lon="1.89893">
        <ele>165</ele>
        <time>2010-05-13T12:26:18Z</time>
      </trkpt>
      <trkpt lat="48.74898" lon="1.8989">
        <ele>165</ele>
        <time>2010-05-13T12:26:19Z</time>
      </trkpt>
      <trkpt lat="48.74899" lon="1.89887">
        <ele>165</ele>
        <time>2010-05-13T12:26:20Z</time>
      </trkpt>
      <trkpt lat="48.74901" lon="1.89883">
        <ele>165</ele>
        <time>2010-05-13T12:26:21Z</time>
      </trkpt>
      <trkpt lat="48.74901" lon="1.8988">
        <ele>165</ele>
        <time>2010-05-13T12:26:22Z</time>
      </trkpt>
      <trkpt lat="48.74902" lon="1.89878">
        <ele>165</ele>
        <time>2010-05-13T12:26:23Z</time>
      </trkpt>
      <trkpt lat="48.74904" lon="1.89872">
        <ele>165</ele>
        <time>2010-05-13T12:26:26Z</time>
      </trkpt>
      <trkpt lat="48.74904" lon="1.89866">
        <ele>165</ele>
        <time>2010-05-13T12:26:27Z</time>
      </trkpt>
      <trkpt lat="48.74903" lon="1.89861">
        <ele>165</ele>
        <time>2010-05-13T12:26:28Z</time>
      </trkpt>
      <trkpt lat="48.74904" lon="1.89859">
        <ele>164</ele>
        <time>2010-05-13T12:26:29Z</time>
      </trkpt>
      <trkpt lat="48.74904" lon="1.89857">
        <ele>164</ele>
        <time>2010-05-13T12:26:30Z</time>
      </trkpt>
      <trkpt lat="48.74906" lon="1.89856">
        <ele>164</ele>
        <time>2010-05-13T12:26:31Z</time>
      </trkpt>
      <trkpt lat="48.74906" lon="1.89853">
        <ele>162</ele>
        <time>2010-05-13T12:26:33Z</time>
      </trkpt>
      <trkpt lat="48.74906" lon="1.89851">
        <ele>161</ele>
        <time>2010-05-13T12:26:34Z</time>
      </trkpt>
      <trkpt lat="48.74906" lon="1.89849">
        <ele>161</ele>
        <time>2010-05-13T12:26:35Z</time>
      </trkpt>
      <trkpt lat="48.74906" lon="1.89847">
        <ele>160</ele>
        <time>2010-05-13T12:26:36Z</time>
      </trkpt>
      <trkpt lat="48.74907" lon="1.89846">
        <ele>159</ele>
        <time>2010-05-13T12:26:38Z</time>
      </trkpt>
      <trkpt lat="48.74909" lon="1.89844">
        <ele>159</ele>
        <time>2010-05-13T12:26:40Z</time>
      </trkpt>
      <trkpt lat="48.74909" lon="1.89842">
        <ele>159</ele>
        <time>2010-05-13T12:26:41Z</time>
      </trkpt>
      <trkpt lat="48.7491" lon="1.89839">
        <ele>159</ele>
        <time>2010-05-13T12:26:43Z</time>
      </trkpt>
      <trkpt lat="48.7491" lon="1.89836">
        <ele>159</ele>
        <time>2010-05-13T12:26:45Z</time>
      </trkpt>
      <trkpt lat="48.7491" lon="1.89833">
        <ele>159</ele>
        <time>2010-05-13T12:26:46Z</time>
      </trkpt>
      <trkpt lat="48.74911" lon="1.89831">
        <ele>159</ele>
        <time>2010-05-13T12:26:47Z</time>
      </trkpt>
      <trkpt lat="48.74911" lon="1.89829">
        <ele>159</ele>
        <time>2010-05-13T12:26:48Z</time>
      </trkpt>
      <trkpt lat="48.74913" lon="1.89828">
        <ele>159</ele>
        <time>2010-05-13T12:26:49Z</time>
      </trkpt>
      <trkpt lat="48.74913" lon="1.89826">
        <ele>159</ele>
        <time>2010-05-13T12:26:50Z</time>
      </trkpt>
      <trkpt lat="48.74913" lon="1.89823">
        <ele>159</ele>
        <time>2010-05-13T12:26:51Z</time>
      </trkpt>
      <trkpt lat="48.74914" lon="1.8982">
        <ele>159</ele>
        <time>2010-05-13T12:26:52Z</time>
      </trkpt>
      <trkpt lat="48.74914" lon="1.89818">
        <ele>159</ele>
        <time>2010-05-13T12:26:53Z</time>
      </trkpt>
      <trkpt lat="48.74914" lon="1.89816">
        <ele>159</ele>
        <time>2010-05-13T12:26:54Z</time>
      </trkpt>
      <trkpt lat="48.74914" lon="1.89813">
        <ele>159</ele>
        <time>2010-05-13T12:26:55Z</time>
      </trkpt>
      <trkpt lat="48.74914" lon="1.89811">
        <ele>160</ele>
        <time>2010-05-13T12:26:56Z</time>
      </trkpt>
      <trkpt lat="48.74914" lon="1.89809">
        <ele>160</ele>
        <time>2010-05-13T12:26:57Z</time>
      </trkpt>
      <trkpt lat="48.74916" lon="1.89806">
        <ele>161</ele>
        <time>2010-05-13T12:26:59Z</time>
      </trkpt>
      <trkpt lat="48.74917" lon="1.89804">
        <ele>161</ele>
        <time>2010-05-13T12:27:00Z</time>
      </trkpt>
      <trkpt lat="48.7492" lon="1.89801">
        <ele>161</ele>
        <time>2010-05-13T12:27:01Z</time>
      </trkpt>
      <trkpt lat="48.74921" lon="1.89799">
        <ele>161</ele>
        <time>2010-05-13T12:27:02Z</time>
      </trkpt>
      <trkpt lat="48.74921" lon="1.89796">
        <ele>161</ele>
        <time>2010-05-13T12:27:03Z</time>
      </trkpt>
      <trkpt lat="48.74922" lon="1.89794">
        <ele>161</ele>
        <time>2010-05-13T12:27:04Z</time>
      </trkpt>
      <trkpt lat="48.74922" lon="1.89791">
        <ele>159</ele>
        <time>2010-05-13T12:27:06Z</time>
      </trkpt>
      <trkpt lat="48.74924" lon="1.89788">
        <ele>157</ele>
        <time>2010-05-13T12:27:08Z</time>
      </trkpt>
      <trkpt lat="48.74924" lon="1.89785">
        <ele>156</ele>
        <time>2010-05-13T12:27:09Z</time>
      </trkpt>
      <trkpt lat="48.74924" lon="1.89784">
        <ele>155</ele>
        <time>2010-05-13T12:27:10Z</time>
      </trkpt>
      <trkpt lat="48.74925" lon="1.89781">
        <ele>154</ele>
        <time>2010-05-13T12:27:11Z</time>
      </trkpt>
      <trkpt lat="48.74928" lon="1.89777">
        <ele>154</ele>
        <time>2010-05-13T12:27:12Z</time>
      </trkpt>
      <trkpt lat="48.74929" lon="1.89775">
        <ele>154</ele>
        <time>2010-05-13T12:27:13Z</time>
      </trkpt>
      <trkpt lat="48.7493" lon="1.89772">
        <ele>154</ele>
        <time>2010-05-13T12:27:14Z</time>
      </trkpt>
      <trkpt lat="48.7493" lon="1.8977">
        <ele>154</ele>
        <time>2010-05-13T12:27:15Z</time>
      </trkpt>
      <trkpt lat="48.74931" lon="1.89767">
        <ele>154</ele>
        <time>2010-05-13T12:27:16Z</time>
      </trkpt>
      <trkpt lat="48.74931" lon="1.89765">
        <ele>154</ele>
        <time>2010-05-13T12:27:17Z</time>
      </trkpt>
      <trkpt lat="48.74932" lon="1.89762">
        <ele>154</ele>
        <time>2010-05-13T12:27:18Z</time>
      </trkpt>
      <trkpt lat="48.74933" lon="1.89759">
        <ele>154</ele>
        <time>2010-05-13T12:27:19Z</time>
      </trkpt>
      <trkpt lat="48.74934" lon="1.89751">
        <ele>154</ele>
        <time>2010-05-13T12:27:22Z</time>
      </trkpt>
      <trkpt lat="48.74934" lon="1.89747">
        <ele>154</ele>
        <time>2010-05-13T12:27:23Z</time>
      </trkpt>
      <trkpt lat="48.74934" lon="1.89745">
        <ele>154</ele>
        <time>2010-05-13T12:27:24Z</time>
      </trkpt>
      <trkpt lat="48.74937" lon="1.89742">
        <ele>153</ele>
        <time>2010-05-13T12:27:25Z</time>
      </trkpt>
      <trkpt lat="48.74937" lon="1.89738">
        <ele>152</ele>
        <time>2010-05-13T12:27:26Z</time>
      </trkpt>
      <trkpt lat="48.74939" lon="1.89736">
        <ele>150</ele>
        <time>2010-05-13T12:27:28Z</time>
      </trkpt>
      <trkpt lat="48.74939" lon="1.89732">
        <ele>149</ele>
        <time>2010-05-13T12:27:30Z</time>
      </trkpt>
      <trkpt lat="48.7494" lon="1.8973">
        <ele>149</ele>
        <time>2010-05-13T12:27:31Z</time>
      </trkpt>
      <trkpt lat="48.7494" lon="1.89728">
        <ele>149</ele>
        <time>2010-05-13T12:27:32Z</time>
      </trkpt>
      <trkpt lat="48.74941" lon="1.89726">
        <ele>147</ele>
        <time>2010-05-13T12:27:34Z</time>
      </trkpt>
      <trkpt lat="48.74943" lon="1.89723">
        <ele>147</ele>
        <time>2010-05-13T12:27:37Z</time>
      </trkpt>
      <trkpt lat="48.74946" lon="1.89719">
        <ele>146</ele>
        <time>2010-05-13T12:27:38Z</time>
      </trkpt>
      <trkpt lat="48.74948" lon="1.89716">
        <ele>146</ele>
        <time>2010-05-13T12:27:39Z</time>
      </trkpt>
      <trkpt lat="48.74949" lon="1.89713">
        <ele>146</ele>
        <time>2010-05-13T12:27:40Z</time>
      </trkpt>
      <trkpt lat="48.7495" lon="1.89704">
        <ele>146</ele>
        <time>2010-05-13T12:27:44Z</time>
      </trkpt>
      <trkpt lat="48.74952" lon="1.89703">
        <ele>146</ele>
        <time>2010-05-13T12:27:45Z</time>
      </trkpt>
      <trkpt lat="48.74952" lon="1.89698">
        <ele>146</ele>
        <time>2010-05-13T12:27:46Z</time>
      </trkpt>
      <trkpt lat="48.74951" lon="1.89696">
        <ele>146</ele>
        <time>2010-05-13T12:27:47Z</time>
      </trkpt>
      <trkpt lat="48.74953" lon="1.89692">
        <ele>146</ele>
        <time>2010-05-13T12:27:49Z</time>
      </trkpt>
      <trkpt lat="48.74953" lon="1.89694">
        <ele>145</ele>
        <time>2010-05-13T12:27:52Z</time>
      </trkpt>
      <trkpt lat="48.74954" lon="1.89696">
        <ele>144</ele>
        <time>2010-05-13T12:27:53Z</time>
      </trkpt>
      <trkpt lat="48.74958" lon="1.89694">
        <ele>143</ele>
        <time>2010-05-13T12:27:54Z</time>
      </trkpt>
      <trkpt lat="48.74958" lon="1.89691">
        <ele>143</ele>
        <time>2010-05-13T12:27:55Z</time>
      </trkpt>
      <trkpt lat="48.74965" lon="1.89677">
        <ele>143</ele>
        <time>2010-05-13T12:28:01Z</time>
      </trkpt>
      <trkpt lat="48.74968" lon="1.89667">
        <ele>143</ele>
        <time>2010-05-13T12:28:02Z</time>
      </trkpt>
      <trkpt lat="48.74967" lon="1.89664">
        <ele>143</ele>
        <time>2010-05-13T12:28:03Z</time>
      </trkpt>
      <trkpt lat="48.74966" lon="1.89663">
        <ele>143</ele>
        <time>2010-05-13T12:28:04Z</time>
      </trkpt>
      <trkpt lat="48.74969" lon="1.89662">
        <ele>142</ele>
        <time>2010-05-13T12:28:06Z</time>
      </trkpt>
      <trkpt lat="48.74968" lon="1.89659">
        <ele>140</ele>
        <time>2010-05-13T12:28:08Z</time>
      </trkpt>
      <trkpt lat="48.74968" lon="1.89657">
        <ele>138</ele>
        <time>2010-05-13T12:28:10Z</time>
      </trkpt>
      <trkpt lat="48.74969" lon="1.89657">
        <ele>137</ele>
        <time>2010-05-13T12:28:11Z</time>
      </trkpt>
      <trkpt lat="48.7497" lon="1.89658">
        <ele>136</ele>
        <time>2010-05-13T12:28:12Z</time>
      </trkpt>
      <trkpt lat="48.74971" lon="1.89655">
        <ele>133</ele>
        <time>2010-05-13T12:28:15Z</time>
      </trkpt>
      <trkpt lat="48.74973" lon="1.89654">
        <ele>131</ele>
        <time>2010-05-13T12:28:17Z</time>
      </trkpt>
      <trkpt lat="48.74974" lon="1.8965">
        <ele>131</ele>
        <time>2010-05-13T12:28:20Z</time>
      </trkpt>
      <trkpt lat="48.74976" lon="1.89648">
        <ele>131</ele>
        <time>2010-05-13T12:28:22Z</time>
      </trkpt>
      <trkpt lat="48.74978" lon="1.89648">
        <ele>130</ele>
        <time>2010-05-13T12:28:23Z</time>
      </trkpt>
      <trkpt lat="48.74979" lon="1.89648">
        <ele>130</ele>
        <time>2010-05-13T12:28:24Z</time>
      </trkpt>
      <trkpt lat="48.74981" lon="1.89646">
        <ele>125</ele>
        <time>2010-05-13T12:28:29Z</time>
      </trkpt>
      <trkpt lat="48.74982" lon="1.89644">
        <ele>124</ele>
        <time>2010-05-13T12:28:30Z</time>
      </trkpt>
      <trkpt lat="48.74984" lon="1.89644">
        <ele>123</ele>
        <time>2010-05-13T12:28:31Z</time>
      </trkpt>
      <trkpt lat="48.74985" lon="1.89643">
        <ele>122</ele>
        <time>2010-05-13T12:28:32Z</time>
      </trkpt>
      <trkpt lat="48.74987" lon="1.89643">
        <ele>121</ele>
        <time>2010-05-13T12:28:33Z</time>
      </trkpt>
      <trkpt lat="48.74987" lon="1.89641">
        <ele>121</ele>
        <time>2010-05-13T12:28:34Z</time>
      </trkpt>
      <trkpt lat="48.7499" lon="1.8964">
        <ele>121</ele>
        <time>2010-05-13T12:28:36Z</time>
      </trkpt>
      <trkpt lat="48.7499" lon="1.89637">
        <ele>121</ele>
        <time>2010-05-13T12:28:37Z</time>
      </trkpt>
      <trkpt lat="48.74996" lon="1.89631">
        <ele>121</ele>
        <time>2010-05-13T12:28:41Z</time>
      </trkpt>
      <trkpt lat="48.75" lon="1.89623">
        <ele>121</ele>
        <time>2010-05-13T12:28:42Z</time>
      </trkpt>
      <trkpt lat="48.75002" lon="1.8962">
        <ele>121</ele>
        <time>2010-05-13T12:28:43Z</time>
      </trkpt>
      <trkpt lat="48.75004" lon="1.89619">
        <ele>121</ele>
        <time>2010-05-13T12:28:44Z</time>
      </trkpt>
      <trkpt lat="48.75007" lon="1.89617">
        <ele>121</ele>
        <time>2010-05-13T12:28:45Z</time>
      </trkpt>
      <trkpt lat="48.75009" lon="1.89615">
        <ele>121</ele>
        <time>2010-05-13T12:28:47Z</time>
      </trkpt>
      <trkpt lat="48.75012" lon="1.89614">
        <ele>121</ele>
        <time>2010-05-13T12:28:48Z</time>
      </trkpt>
      <trkpt lat="48.75013" lon="1.89614">
        <ele>121</ele>
        <time>2010-05-13T12:28:49Z</time>
      </trkpt>
      <trkpt lat="48.75016" lon="1.89614">
        <ele>121</ele>
        <time>2010-05-13T12:28:50Z</time>
      </trkpt>
      <trkpt lat="48.75017" lon="1.89614">
        <ele>121</ele>
        <time>2010-05-13T12:28:51Z</time>
      </trkpt>
      <trkpt lat="48.75019" lon="1.89613">
        <ele>122</ele>
        <time>2010-05-13T12:28:52Z</time>
      </trkpt>
      <trkpt lat="48.75021" lon="1.89611">
        <ele>123</ele>
        <time>2010-05-13T12:28:54Z</time>
      </trkpt>
      <trkpt lat="48.75022" lon="1.8961">
        <ele>124</ele>
        <time>2010-05-13T12:28:55Z</time>
      </trkpt>
      <trkpt lat="48.75024" lon="1.89609">
        <ele>124</ele>
        <time>2010-05-13T12:28:56Z</time>
      </trkpt>
      <trkpt lat="48.75025" lon="1.89609">
        <ele>124</ele>
        <time>2010-05-13T12:28:57Z</time>
      </trkpt>
      <trkpt lat="48.75027" lon="1.89609">
        <ele>124</ele>
        <time>2010-05-13T12:28:59Z</time>
      </trkpt>
      <trkpt lat="48.75029" lon="1.89609">
        <ele>124</ele>
        <time>2010-05-13T12:29:00Z</time>
      </trkpt>
      <trkpt lat="48.7503" lon="1.89608">
        <ele>124</ele>
        <time>2010-05-13T12:29:02Z</time>
      </trkpt>
      <trkpt lat="48.75031" lon="1.89608">
        <ele>124</ele>
        <time>2010-05-13T12:29:03Z</time>
      </trkpt>
      <trkpt lat="48.75033" lon="1.89607">
        <ele>123</ele>
        <time>2010-05-13T12:29:06Z</time>
      </trkpt>
      <trkpt lat="48.75036" lon="1.89604">
        <ele>122</ele>
        <time>2010-05-13T12:29:07Z</time>
      </trkpt>
      <trkpt lat="48.75039" lon="1.89602">
        <ele>121</ele>
        <time>2010-05-13T12:29:08Z</time>
      </trkpt>
      <trkpt lat="48.75041" lon="1.896">
        <ele>121</ele>
        <time>2010-05-13T12:29:09Z</time>
      </trkpt>
      <trkpt lat="48.75043" lon="1.89597">
        <ele>121</ele>
        <time>2010-05-13T12:29:10Z</time>
      </trkpt>
      <trkpt lat="48.75047" lon="1.89593">
        <ele>121</ele>
        <time>2010-05-13T12:29:11Z</time>
      </trkpt>
      <trkpt lat="48.75051" lon="1.8959">
        <ele>121</ele>
        <time>2010-05-13T12:29:12Z</time>
      </trkpt>
      <trkpt lat="48.75053" lon="1.89586">
        <ele>121</ele>
        <time>2010-05-13T12:29:13Z</time>
      </trkpt>
      <trkpt lat="48.75055" lon="1.89582">
        <ele>121</ele>
        <time>2010-05-13T12:29:14Z</time>
      </trkpt>
      <trkpt lat="48.75058" lon="1.89578">
        <ele>122</ele>
        <time>2010-05-13T12:29:15Z</time>
      </trkpt>
      <trkpt lat="48.75061" lon="1.89574">
        <ele>123</ele>
        <time>2010-05-13T12:29:16Z</time>
      </trkpt>
      <trkpt lat="48.75066" lon="1.89566">
        <ele>124</ele>
        <time>2010-05-13T12:29:20Z</time>
      </trkpt>
      <trkpt lat="48.75069" lon="1.89565">
        <ele>125</ele>
        <time>2010-05-13T12:29:21Z</time>
      </trkpt>
      <trkpt lat="48.75073" lon="1.89568">
        <ele>125</ele>
        <time>2010-05-13T12:29:22Z</time>
      </trkpt>
      <trkpt lat="48.75077" lon="1.89564">
        <ele>125</ele>
        <time>2010-05-13T12:29:23Z</time>
      </trkpt>
      <trkpt lat="48.75079" lon="1.89563">
        <ele>125</ele>
        <time>2010-05-13T12:29:24Z</time>
      </trkpt>
      <trkpt lat="48.75082" lon="1.89562">
        <ele>125</ele>
        <time>2010-05-13T12:29:25Z</time>
      </trkpt>
      <trkpt lat="48.75084" lon="1.89561">
        <ele>125</ele>
        <time>2010-05-13T12:29:26Z</time>
      </trkpt>
      <trkpt lat="48.75086" lon="1.8956">
        <ele>125</ele>
        <time>2010-05-13T12:29:27Z</time>
      </trkpt>
      <trkpt lat="48.75088" lon="1.89559">
        <ele>125</ele>
        <time>2010-05-13T12:29:28Z</time>
      </trkpt>
      <trkpt lat="48.75089" lon="1.89558">
        <ele>124</ele>
        <time>2010-05-13T12:29:29Z</time>
      </trkpt>
      <trkpt lat="48.75091" lon="1.89558">
        <ele>124</ele>
        <time>2010-05-13T12:29:30Z</time>
      </trkpt>
      <trkpt lat="48.75092" lon="1.89557">
        <ele>123</ele>
        <time>2010-05-13T12:29:31Z</time>
      </trkpt>
      <trkpt lat="48.75094" lon="1.89556">
        <ele>122</ele>
        <time>2010-05-13T12:29:32Z</time>
      </trkpt>
      <trkpt lat="48.75095" lon="1.89556">
        <ele>122</ele>
        <time>2010-05-13T12:29:33Z</time>
      </trkpt>
      <trkpt lat="48.75097" lon="1.89556">
        <ele>122</ele>
        <time>2010-05-13T12:29:34Z</time>
      </trkpt>
      <trkpt lat="48.75099" lon="1.89555">
        <ele>122</ele>
        <time>2010-05-13T12:29:35Z</time>
      </trkpt>
      <trkpt lat="48.751" lon="1.89554">
        <ele>122</ele>
        <time>2010-05-13T12:29:36Z</time>
      </trkpt>
      <trkpt lat="48.75102" lon="1.89553">
        <ele>122</ele>
        <time>2010-05-13T12:29:37Z</time>
      </trkpt>
      <trkpt lat="48.75104" lon="1.89552">
        <ele>122</ele>
        <time>2010-05-13T12:29:38Z</time>
      </trkpt>
      <trkpt lat="48.75105" lon="1.89551">
        <ele>122</ele>
        <time>2010-05-13T12:29:39Z</time>
      </trkpt>
      <trkpt lat="48.75106" lon="1.8955">
        <ele>122</ele>
        <time>2010-05-13T12:29:40Z</time>
      </trkpt>
      <trkpt lat="48.75108" lon="1.89547">
        <ele>122</ele>
        <time>2010-05-13T12:29:42Z</time>
      </trkpt>
      <trkpt lat="48.7511" lon="1.89546">
        <ele>122</ele>
        <time>2010-05-13T12:29:43Z</time>
      </trkpt>
      <trkpt lat="48.75112" lon="1.89545">
        <ele>123</ele>
        <time>2010-05-13T12:29:44Z</time>
      </trkpt>
      <trkpt lat="48.75113" lon="1.89543">
        <ele>124</ele>
        <time>2010-05-13T12:29:45Z</time>
      </trkpt>
      <trkpt lat="48.75114" lon="1.89542">
        <ele>125</ele>
        <time>2010-05-13T12:29:46Z</time>
      </trkpt>
      <trkpt lat="48.75116" lon="1.89542">
        <ele>126</ele>
        <time>2010-05-13T12:29:47Z</time>
      </trkpt>
      <trkpt lat="48.75117" lon="1.89541">
        <ele>127</ele>
        <time>2010-05-13T12:29:48Z</time>
      </trkpt>
      <trkpt lat="48.75119" lon="1.89539">
        <ele>128</ele>
        <time>2010-05-13T12:29:49Z</time>
      </trkpt>
      <trkpt lat="48.7512" lon="1.89536">
        <ele>129</ele>
        <time>2010-05-13T12:29:50Z</time>
      </trkpt>
      <trkpt lat="48.75122" lon="1.89535">
        <ele>130</ele>
        <time>2010-05-13T12:29:51Z</time>
      </trkpt>
      <trkpt lat="48.75124" lon="1.89534">
        <ele>132</ele>
        <time>2010-05-13T12:29:52Z</time>
      </trkpt>
      <trkpt lat="48.75125" lon="1.89534">
        <ele>133</ele>
        <time>2010-05-13T12:29:53Z</time>
      </trkpt>
      <trkpt lat="48.75127" lon="1.89532">
        <ele>134</ele>
        <time>2010-05-13T12:29:54Z</time>
      </trkpt>
      <trkpt lat="48.75128" lon="1.89532">
        <ele>135</ele>
        <time>2010-05-13T12:29:55Z</time>
      </trkpt>
      <trkpt lat="48.7513" lon="1.89532">
        <ele>136</ele>
        <time>2010-05-13T12:29:56Z</time>
      </trkpt>
      <trkpt lat="48.75131" lon="1.8953">
        <ele>137</ele>
        <time>2010-05-13T12:29:57Z</time>
      </trkpt>
      <trkpt lat="48.7514" lon="1.89518">
        <ele>140</ele>
        <time>2010-05-13T12:30:04Z</time>
      </trkpt>
      <trkpt lat="48.75147" lon="1.89515">
        <ele>141</ele>
        <time>2010-05-13T12:30:05Z</time>
      </trkpt>
      <trkpt lat="48.75151" lon="1.89516">
        <ele>142</ele>
        <time>2010-05-13T12:30:06Z</time>
      </trkpt>
      <trkpt lat="48.75154" lon="1.89517">
        <ele>143</ele>
        <time>2010-05-13T12:30:07Z</time>
      </trkpt>
      <trkpt lat="48.75156" lon="1.89518">
        <ele>144</ele>
        <time>2010-05-13T12:30:08Z</time>
      </trkpt>
      <trkpt lat="48.75159" lon="1.89519">
        <ele>144</ele>
        <time>2010-05-13T12:30:09Z</time>
      </trkpt>
      <trkpt lat="48.7516" lon="1.89521">
        <ele>144</ele>
        <time>2010-05-13T12:30:10Z</time>
      </trkpt>
      <trkpt lat="48.75161" lon="1.8952">
        <ele>143</ele>
        <time>2010-05-13T12:30:12Z</time>
      </trkpt>
      <trkpt lat="48.75162" lon="1.89519">
        <ele>142</ele>
        <time>2010-05-13T12:30:13Z</time>
      </trkpt>
      <trkpt lat="48.75164" lon="1.89518">
        <ele>141</ele>
        <time>2010-05-13T12:30:14Z</time>
      </trkpt>
      <trkpt lat="48.75165" lon="1.89518">
        <ele>140</ele>
        <time>2010-05-13T12:30:15Z</time>
      </trkpt>
      <trkpt lat="48.75166" lon="1.89517">
        <ele>139</ele>
        <time>2010-05-13T12:30:16Z</time>
      </trkpt>
      <trkpt lat="48.75168" lon="1.89516">
        <ele>138</ele>
        <time>2010-05-13T12:30:17Z</time>
      </trkpt>
      <trkpt lat="48.75169" lon="1.89515">
        <ele>137</ele>
        <time>2010-05-13T12:30:18Z</time>
      </trkpt>
      <trkpt lat="48.7517" lon="1.89513">
        <ele>136</ele>
        <time>2010-05-13T12:30:20Z</time>
      </trkpt>
      <trkpt lat="48.75173" lon="1.89511">
        <ele>135</ele>
        <time>2010-05-13T12:30:22Z</time>
      </trkpt>
      <trkpt lat="48.75175" lon="1.8951">
        <ele>133</ele>
        <time>2010-05-13T12:30:24Z</time>
      </trkpt>
      <trkpt lat="48.75176" lon="1.89508">
        <ele>132</ele>
        <time>2010-05-13T12:30:26Z</time>
      </trkpt>
      <trkpt lat="48.75178" lon="1.89505">
        <ele>132</ele>
        <time>2010-05-13T12:30:28Z</time>
      </trkpt>
      <trkpt lat="48.7518" lon="1.89504">
        <ele>132</ele>
        <time>2010-05-13T12:30:29Z</time>
      </trkpt>
      <trkpt lat="48.7518" lon="1.89502">
        <ele>132</ele>
        <time>2010-05-13T12:30:30Z</time>
      </trkpt>
      <trkpt lat="48.75182" lon="1.895">
        <ele>132</ele>
        <time>2010-05-13T12:30:31Z</time>
      </trkpt>
      <trkpt lat="48.75183" lon="1.89498">
        <ele>132</ele>
        <time>2010-05-13T12:30:33Z</time>
      </trkpt>
      <trkpt lat="48.75186" lon="1.89494">
        <ele>132</ele>
        <time>2010-05-13T12:30:35Z</time>
      </trkpt>
      <trkpt lat="48.75187" lon="1.89492">
        <ele>132</ele>
        <time>2010-05-13T12:30:36Z</time>
      </trkpt>
      <trkpt lat="48.75187" lon="1.8949">
        <ele>132</ele>
        <time>2010-05-13T12:30:37Z</time>
      </trkpt>
      <trkpt lat="48.75189" lon="1.89488">
        <ele>132</ele>
        <time>2010-05-13T12:30:38Z</time>
      </trkpt>
      <trkpt lat="48.75191" lon="1.89485">
        <ele>133</ele>
        <time>2010-05-13T12:30:39Z</time>
      </trkpt>
      <trkpt lat="48.75191" lon="1.89484">
        <ele>134</ele>
        <time>2010-05-13T12:30:40Z</time>
      </trkpt>
      <trkpt lat="48.75192" lon="1.89482">
        <ele>136</ele>
        <time>2010-05-13T12:30:42Z</time>
      </trkpt>
      <trkpt lat="48.75193" lon="1.89479">
        <ele>137</ele>
        <time>2010-05-13T12:30:44Z</time>
      </trkpt>
      <trkpt lat="48.75194" lon="1.89477">
        <ele>137</ele>
        <time>2010-05-13T12:30:46Z</time>
      </trkpt>
      <trkpt lat="48.75194" lon="1.89474">
        <ele>137</ele>
        <time>2010-05-13T12:30:47Z</time>
      </trkpt>
      <trkpt lat="48.75194" lon="1.8947">
        <ele>136</ele>
        <time>2010-05-13T12:30:48Z</time>
      </trkpt>
      <trkpt lat="48.75194" lon="1.89468">
        <ele>135</ele>
        <time>2010-05-13T12:30:49Z</time>
      </trkpt>
      <trkpt lat="48.75195" lon="1.89467">
        <ele>134</ele>
        <time>2010-05-13T12:30:50Z</time>
      </trkpt>
      <trkpt lat="48.75196" lon="1.89464">
        <ele>132</ele>
        <time>2010-05-13T12:30:52Z</time>
      </trkpt>
      <trkpt lat="48.75198" lon="1.89464">
        <ele>131</ele>
        <time>2010-05-13T12:30:53Z</time>
      </trkpt>
      <trkpt lat="48.75199" lon="1.89466">
        <ele>128</ele>
        <time>2010-05-13T12:31:04Z</time>
      </trkpt>
      <trkpt lat="48.75199" lon="1.89465">
        <ele>127</ele>
        <time>2010-05-13T12:31:06Z</time>
      </trkpt>
      <trkpt lat="48.75198" lon="1.89466">
        <ele>127</ele>
        <time>2010-05-13T12:31:11Z</time>
      </trkpt>
      <trkpt lat="48.75198" lon="1.89464">
        <ele>127</ele>
        <time>2010-05-13T12:31:13Z</time>
      </trkpt>
      <trkpt lat="48.75199" lon="1.89461">
        <ele>127</ele>
        <time>2010-05-13T12:31:15Z</time>
      </trkpt>
      <trkpt lat="48.752" lon="1.89458">
        <ele>127</ele>
        <time>2010-05-13T12:31:17Z</time>
      </trkpt>
      <trkpt lat="48.75202" lon="1.89457">
        <ele>127</ele>
        <time>2010-05-13T12:31:18Z</time>
      </trkpt>
      <trkpt lat="48.75204" lon="1.89455">
        <ele>127</ele>
        <time>2010-05-13T12:31:20Z</time>
      </trkpt>
      <trkpt lat="48.75205" lon="1.89451">
        <ele>127</ele>
        <time>2010-05-13T12:31:22Z</time>
      </trkpt>
      <trkpt lat="48.75206" lon="1.8945">
        <ele>127</ele>
        <time>2010-05-13T12:31:23Z</time>
      </trkpt>
      <trkpt lat="48.75208" lon="1.89447">
        <ele>127</ele>
        <time>2010-05-13T12:31:24Z</time>
      </trkpt>
      <trkpt lat="48.75209" lon="1.89447">
        <ele>127</ele>
        <time>2010-05-13T12:31:25Z</time>
      </trkpt>
      <trkpt lat="48.7521" lon="1.89444">
        <ele>127</ele>
        <time>2010-05-13T12:31:27Z</time>
      </trkpt>
      <trkpt lat="48.7521" lon="1.89441">
        <ele>127</ele>
        <time>2010-05-13T12:31:28Z</time>
      </trkpt>
      <trkpt lat="48.7521" lon="1.89439">
        <ele>127</ele>
        <time>2010-05-13T12:31:29Z</time>
      </trkpt>
      <trkpt lat="48.75211" lon="1.89436">
        <ele>126</ele>
        <time>2010-05-13T12:31:30Z</time>
      </trkpt>
      <trkpt lat="48.75211" lon="1.89434">
        <ele>125</ele>
        <time>2010-05-13T12:31:31Z</time>
      </trkpt>
      <trkpt lat="48.75212" lon="1.89431">
        <ele>123</ele>
        <time>2010-05-13T12:31:33Z</time>
      </trkpt>
      <trkpt lat="48.75214" lon="1.89429">
        <ele>122</ele>
        <time>2010-05-13T12:31:34Z</time>
      </trkpt>
      <trkpt lat="48.75215" lon="1.89426">
        <ele>121</ele>
        <time>2010-05-13T12:31:35Z</time>
      </trkpt>
      <trkpt lat="48.75215" lon="1.89423">
        <ele>121</ele>
        <time>2010-05-13T12:31:36Z</time>
      </trkpt>
      <trkpt lat="48.75216" lon="1.8942">
        <ele>121</ele>
        <time>2010-05-13T12:31:37Z</time>
      </trkpt>
      <trkpt lat="48.75217" lon="1.89417">
        <ele>121</ele>
        <time>2010-05-13T12:31:38Z</time>
      </trkpt>
      <trkpt lat="48.75219" lon="1.89415">
        <ele>121</ele>
        <time>2010-05-13T12:31:39Z</time>
      </trkpt>
      <trkpt lat="48.75221" lon="1.89412">
        <ele>121</ele>
        <time>2010-05-13T12:31:40Z</time>
      </trkpt>
      <trkpt lat="48.75222" lon="1.8941">
        <ele>121</ele>
        <time>2010-05-13T12:31:41Z</time>
      </trkpt>
      <trkpt lat="48.75221" lon="1.89407">
        <ele>122</ele>
        <time>2010-05-13T12:31:42Z</time>
      </trkpt>
      <trkpt lat="48.75221" lon="1.89404">
        <ele>123</ele>
        <time>2010-05-13T12:31:43Z</time>
      </trkpt>
      <trkpt lat="48.75221" lon="1.89401">
        <ele>124</ele>
        <time>2010-05-13T12:31:44Z</time>
      </trkpt>
      <trkpt lat="48.75222" lon="1.89399">
        <ele>125</ele>
        <time>2010-05-13T12:31:45Z</time>
      </trkpt>
      <trkpt lat="48.75224" lon="1.89398">
        <ele>126</ele>
        <time>2010-05-13T12:31:46Z</time>
      </trkpt>
      <trkpt lat="48.75224" lon="1.89395">
        <ele>127</ele>
        <time>2010-05-13T12:31:47Z</time>
      </trkpt>
      <trkpt lat="48.75225" lon="1.89393">
        <ele>128</ele>
        <time>2010-05-13T12:31:48Z</time>
      </trkpt>
      <trkpt lat="48.75225" lon="1.89391">
        <ele>128</ele>
        <time>2010-05-13T12:31:49Z</time>
      </trkpt>
      <trkpt lat="48.75225" lon="1.8939">
        <ele>128</ele>
        <time>2010-05-13T12:31:50Z</time>
      </trkpt>
      <trkpt lat="48.75226" lon="1.89387">
        <ele>129</ele>
        <time>2010-05-13T12:31:51Z</time>
      </trkpt>
      <trkpt lat="48.75226" lon="1.89385">
        <ele>129</ele>
        <time>2010-05-13T12:31:52Z</time>
      </trkpt>
      <trkpt lat="48.75227" lon="1.89382">
        <ele>130</ele>
        <time>2010-05-13T12:31:53Z</time>
      </trkpt>
      <trkpt lat="48.75228" lon="1.8938">
        <ele>131</ele>
        <time>2010-05-13T12:31:55Z</time>
      </trkpt>
      <trkpt lat="48.75228" lon="1.89377">
        <ele>131</ele>
        <time>2010-05-13T12:31:56Z</time>
      </trkpt>
      <trkpt lat="48.7523" lon="1.89374">
        <ele>132</ele>
        <time>2010-05-13T12:31:57Z</time>
      </trkpt>
      <trkpt lat="48.7523" lon="1.89369">
        <ele>133</ele>
        <time>2010-05-13T12:31:58Z</time>
      </trkpt>
      <trkpt lat="48.75232" lon="1.89365">
        <ele>133</ele>
        <time>2010-05-13T12:31:59Z</time>
      </trkpt>
      <trkpt lat="48.75232" lon="1.89361">
        <ele>133</ele>
        <time>2010-05-13T12:32:00Z</time>
      </trkpt>
      <trkpt lat="48.75233" lon="1.89357">
        <ele>133</ele>
        <time>2010-05-13T12:32:01Z</time>
      </trkpt>
      <trkpt lat="48.75234" lon="1.89353">
        <ele>133</ele>
        <time>2010-05-13T12:32:02Z</time>
      </trkpt>
      <trkpt lat="48.75235" lon="1.89349">
        <ele>133</ele>
        <time>2010-05-13T12:32:03Z</time>
      </trkpt>
      <trkpt lat="48.75236" lon="1.89346">
        <ele>133</ele>
        <time>2010-05-13T12:32:04Z</time>
      </trkpt>
      <trkpt lat="48.75237" lon="1.89343">
        <ele>133</ele>
        <time>2010-05-13T12:32:05Z</time>
      </trkpt>
      <trkpt lat="48.75239" lon="1.89342">
        <ele>133</ele>
        <time>2010-05-13T12:32:06Z</time>
      </trkpt>
      <trkpt lat="48.7524" lon="1.89339">
        <ele>133</ele>
        <time>2010-05-13T12:32:07Z</time>
      </trkpt>
      <trkpt lat="48.75241" lon="1.89338">
        <ele>133</ele>
        <time>2010-05-13T12:32:08Z</time>
      </trkpt>
      <trkpt lat="48.75242" lon="1.89337">
        <ele>133</ele>
        <time>2010-05-13T12:32:09Z</time>
      </trkpt>
      <trkpt lat="48.75244" lon="1.89336">
        <ele>133</ele>
        <time>2010-05-13T12:32:10Z</time>
      </trkpt>
      <trkpt lat="48.75246" lon="1.89332">
        <ele>133</ele>
        <time>2010-05-13T12:32:13Z</time>
      </trkpt>
      <trkpt lat="48.75246" lon="1.89329">
        <ele>132</ele>
        <time>2010-05-13T12:32:14Z</time>
      </trkpt>
      <trkpt lat="48.75246" lon="1.89327">
        <ele>131</ele>
        <time>2010-05-13T12:32:15Z</time>
      </trkpt>
      <trkpt lat="48.75247" lon="1.89325">
        <ele>130</ele>
        <time>2010-05-13T12:32:16Z</time>
      </trkpt>
      <trkpt lat="48.75249" lon="1.89322">
        <ele>129</ele>
        <time>2010-05-13T12:32:17Z</time>
      </trkpt>
      <trkpt lat="48.75252" lon="1.89321">
        <ele>128</ele>
        <time>2010-05-13T12:32:18Z</time>
      </trkpt>
      <trkpt lat="48.75254" lon="1.8932">
        <ele>127</ele>
        <time>2010-05-13T12:32:19Z</time>
      </trkpt>
      <trkpt lat="48.75257" lon="1.89319">
        <ele>125</ele>
        <time>2010-05-13T12:32:21Z</time>
      </trkpt>
      <trkpt lat="48.75258" lon="1.89316">
        <ele>123</ele>
        <time>2010-05-13T12:32:23Z</time>
      </trkpt>
      <trkpt lat="48.7526" lon="1.89312">
        <ele>121</ele>
        <time>2010-05-13T12:32:25Z</time>
      </trkpt>
      <trkpt lat="48.75261" lon="1.89309">
        <ele>120</ele>
        <time>2010-05-13T12:32:26Z</time>
      </trkpt>
      <trkpt lat="48.75262" lon="1.89308">
        <ele>120</ele>
        <time>2010-05-13T12:32:27Z</time>
      </trkpt>
      <trkpt lat="48.75264" lon="1.89307">
        <ele>120</ele>
        <time>2010-05-13T12:32:28Z</time>
      </trkpt>
      <trkpt lat="48.75266" lon="1.89306">
        <ele>120</ele>
        <time>2010-05-13T12:32:29Z</time>
      </trkpt>
      <trkpt lat="48.75268" lon="1.89304">
        <ele>120</ele>
        <time>2010-05-13T12:32:30Z</time>
      </trkpt>
      <trkpt lat="48.75269" lon="1.89304">
        <ele>120</ele>
        <time>2010-05-13T12:32:31Z</time>
      </trkpt>
      <trkpt lat="48.7527" lon="1.89303">
        <ele>120</ele>
        <time>2010-05-13T12:32:32Z</time>
      </trkpt>
      <trkpt lat="48.75273" lon="1.89301">
        <ele>120</ele>
        <time>2010-05-13T12:32:33Z</time>
      </trkpt>
      <trkpt lat="48.75274" lon="1.893">
        <ele>121</ele>
        <time>2010-05-13T12:32:34Z</time>
      </trkpt>
      <trkpt lat="48.75276" lon="1.89299">
        <ele>121</ele>
        <time>2010-05-13T12:32:35Z</time>
      </trkpt>
      <trkpt lat="48.75279" lon="1.89297">
        <ele>123</ele>
        <time>2010-05-13T12:32:37Z</time>
      </trkpt>
      <trkpt lat="48.7528" lon="1.89295">
        <ele>123</ele>
        <time>2010-05-13T12:32:38Z</time>
      </trkpt>
      <trkpt lat="48.75281" lon="1.89293">
        <ele>123</ele>
        <time>2010-05-13T12:32:39Z</time>
      </trkpt>
      <trkpt lat="48.75282" lon="1.89292">
        <ele>124</ele>
        <time>2010-05-13T12:32:40Z</time>
      </trkpt>
      <trkpt lat="48.75283" lon="1.8929">
        <ele>124</ele>
        <time>2010-05-13T12:32:42Z</time>
      </trkpt>
      <trkpt lat="48.75284" lon="1.89288">
        <ele>124</ele>
        <time>2010-05-13T12:32:43Z</time>
      </trkpt>
      <trkpt lat="48.75285" lon="1.89286">
        <ele>125</ele>
        <time>2010-05-13T12:32:44Z</time>
      </trkpt>
      <trkpt lat="48.75287" lon="1.89285">
        <ele>125</ele>
        <time>2010-05-13T12:32:45Z</time>
      </trkpt>
      <trkpt lat="48.75289" lon="1.89285">
        <ele>125</ele>
        <time>2010-05-13T12:32:46Z</time>
      </trkpt>
      <trkpt lat="48.75291" lon="1.89281">
        <ele>125</ele>
        <time>2010-05-13T12:32:48Z</time>
      </trkpt>
      <trkpt lat="48.75293" lon="1.89279">
        <ele>125</ele>
        <time>2010-05-13T12:32:50Z</time>
      </trkpt>
      <trkpt lat="48.75295" lon="1.89277">
        <ele>126</ele>
        <time>2010-05-13T12:32:52Z</time>
      </trkpt>
      <trkpt lat="48.75296" lon="1.89277">
        <ele>126</ele>
        <time>2010-05-13T12:32:53Z</time>
      </trkpt>
      <trkpt lat="48.75298" lon="1.89275">
        <ele>126</ele>
        <time>2010-05-13T12:32:55Z</time>
      </trkpt>
      <trkpt lat="48.753" lon="1.8927">
        <ele>126</ele>
        <time>2010-05-13T12:32:59Z</time>
      </trkpt>
      <trkpt lat="48.75303" lon="1.89271">
        <ele>127</ele>
        <time>2010-05-13T12:33:00Z</time>
      </trkpt>
      <trkpt lat="48.75307" lon="1.89269">
        <ele>128</ele>
        <time>2010-05-13T12:33:01Z</time>
      </trkpt>
      <trkpt lat="48.75311" lon="1.89268">
        <ele>129</ele>
        <time>2010-05-13T12:33:02Z</time>
      </trkpt>
      <trkpt lat="48.75313" lon="1.89268">
        <ele>129</ele>
        <time>2010-05-13T12:33:03Z</time>
      </trkpt>
      <trkpt lat="48.75314" lon="1.89268">
        <ele>129</ele>
        <time>2010-05-13T12:33:04Z</time>
      </trkpt>
      <trkpt lat="48.75316" lon="1.89269">
        <ele>129</ele>
        <time>2010-05-13T12:33:05Z</time>
      </trkpt>
      <trkpt lat="48.75319" lon="1.89269">
        <ele>129</ele>
        <time>2010-05-13T12:33:06Z</time>
      </trkpt>
      <trkpt lat="48.75322" lon="1.89268">
        <ele>129</ele>
        <time>2010-05-13T12:33:07Z</time>
      </trkpt>
      <trkpt lat="48.75324" lon="1.89268">
        <ele>129</ele>
        <time>2010-05-13T12:33:08Z</time>
      </trkpt>
      <trkpt lat="48.75326" lon="1.89268">
        <ele>129</ele>
        <time>2010-05-13T12:33:09Z</time>
      </trkpt>
      <trkpt lat="48.75327" lon="1.89268">
        <ele>129</ele>
        <time>2010-05-13T12:33:10Z</time>
      </trkpt>
      <trkpt lat="48.75328" lon="1.89266">
        <ele>129</ele>
        <time>2010-05-13T12:33:11Z</time>
      </trkpt>
      <trkpt lat="48.7533" lon="1.89266">
        <ele>129</ele>
        <time>2010-05-13T12:33:12Z</time>
      </trkpt>
      <trkpt lat="48.75331" lon="1.89263">
        <ele>129</ele>
        <time>2010-05-13T12:33:13Z</time>
      </trkpt>
      <trkpt lat="48.75333" lon="1.89263">
        <ele>129</ele>
        <time>2010-05-13T12:33:14Z</time>
      </trkpt>
      <trkpt lat="48.75335" lon="1.89263">
        <ele>128</ele>
        <time>2010-05-13T12:33:15Z</time>
      </trkpt>
      <trkpt lat="48.75336" lon="1.89263">
        <ele>128</ele>
        <time>2010-05-13T12:33:16Z</time>
      </trkpt>
      <trkpt lat="48.75337" lon="1.89263">
        <ele>127</ele>
        <time>2010-05-13T12:33:17Z</time>
      </trkpt>
      <trkpt lat="48.75339" lon="1.89262">
        <ele>126</ele>
        <time>2010-05-13T12:33:19Z</time>
      </trkpt>
      <trkpt lat="48.75341" lon="1.89262">
        <ele>126</ele>
        <time>2010-05-13T12:33:21Z</time>
      </trkpt>
      <trkpt lat="48.75343" lon="1.89262">
        <ele>126</ele>
        <time>2010-05-13T12:33:22Z</time>
      </trkpt>
      <trkpt lat="48.75345" lon="1.89261">
        <ele>126</ele>
        <time>2010-05-13T12:33:23Z</time>
      </trkpt>
      <trkpt lat="48.75346" lon="1.89262">
        <ele>124</ele>
        <time>2010-05-13T12:33:25Z</time>
      </trkpt>
      <trkpt lat="48.75347" lon="1.89262">
        <ele>123</ele>
        <time>2010-05-13T12:33:26Z</time>
      </trkpt>
      <trkpt lat="48.75349" lon="1.89261">
        <ele>122</ele>
        <time>2010-05-13T12:33:28Z</time>
      </trkpt>
      <trkpt lat="48.7535" lon="1.8926">
        <ele>121</ele>
        <time>2010-05-13T12:33:29Z</time>
      </trkpt>
      <trkpt lat="48.75352" lon="1.8926">
        <ele>121</ele>
        <time>2010-05-13T12:33:30Z</time>
      </trkpt>
      <trkpt lat="48.75354" lon="1.8926">
        <ele>121</ele>
        <time>2010-05-13T12:33:31Z</time>
      </trkpt>
      <trkpt lat="48.75356" lon="1.89259">
        <ele>121</ele>
        <time>2010-05-13T12:33:33Z</time>
      </trkpt>
      <trkpt lat="48.75357" lon="1.89259">
        <ele>121</ele>
        <time>2010-05-13T12:33:34Z</time>
      </trkpt>
      <trkpt lat="48.75359" lon="1.89259">
        <ele>121</ele>
        <time>2010-05-13T12:33:35Z</time>
      </trkpt>
      <trkpt lat="48.7536" lon="1.89257">
        <ele>121</ele>
        <time>2010-05-13T12:33:36Z</time>
      </trkpt>
      <trkpt lat="48.75361" lon="1.89258">
        <ele>121</ele>
        <time>2010-05-13T12:33:37Z</time>
      </trkpt>
      <trkpt lat="48.75363" lon="1.89257">
        <ele>121</ele>
        <time>2010-05-13T12:33:38Z</time>
      </trkpt>
      <trkpt lat="48.75364" lon="1.89257">
        <ele>121</ele>
        <time>2010-05-13T12:33:39Z</time>
      </trkpt>
      <trkpt lat="48.75365" lon="1.89257">
        <ele>121</ele>
        <time>2010-05-13T12:33:40Z</time>
      </trkpt>
      <trkpt lat="48.75367" lon="1.89258">
        <ele>121</ele>
        <time>2010-05-13T12:33:41Z</time>
      </trkpt>
      <trkpt lat="48.75369" lon="1.89259">
        <ele>121</ele>
        <time>2010-05-13T12:33:42Z</time>
      </trkpt>
      <trkpt lat="48.75369" lon="1.89261">
        <ele>120</ele>
        <time>2010-05-13T12:33:43Z</time>
      </trkpt>
      <trkpt lat="48.75374" lon="1.89264">
        <ele>119</ele>
        <time>2010-05-13T12:33:47Z</time>
      </trkpt>
      <trkpt lat="48.75378" lon="1.89267">
        <ele>118</ele>
        <time>2010-05-13T12:33:48Z</time>
      </trkpt>
      <trkpt lat="48.7538" lon="1.89268">
        <ele>116</ele>
        <time>2010-05-13T12:33:49Z</time>
      </trkpt>
      <trkpt lat="48.75382" lon="1.89269">
        <ele>114</ele>
        <time>2010-05-13T12:33:50Z</time>
      </trkpt>
      <trkpt lat="48.75384" lon="1.8927">
        <ele>113</ele>
        <time>2010-05-13T12:33:51Z</time>
      </trkpt>
      <trkpt lat="48.75384" lon="1.89271">
        <ele>112</ele>
        <time>2010-05-13T12:33:52Z</time>
      </trkpt>
      <trkpt lat="48.75385" lon="1.89271">
        <ele>109</ele>
        <time>2010-05-13T12:33:54Z</time>
      </trkpt>
      <trkpt lat="48.75387" lon="1.8927">
        <ele>108</ele>
        <time>2010-05-13T12:33:55Z</time>
      </trkpt>
      <trkpt lat="48.75389" lon="1.89271">
        <ele>106</ele>
        <time>2010-05-13T12:33:57Z</time>
      </trkpt>
      <trkpt lat="48.75391" lon="1.89273">
        <ele>105</ele>
        <time>2010-05-13T12:33:58Z</time>
      </trkpt>
      <trkpt lat="48.75392" lon="1.89275">
        <ele>104</ele>
        <time>2010-05-13T12:34:00Z</time>
      </trkpt>
      <trkpt lat="48.75393" lon="1.89277">
        <ele>104</ele>
        <time>2010-05-13T12:34:01Z</time>
      </trkpt>
      <trkpt lat="48.75394" lon="1.89278">
        <ele>104</ele>
        <time>2010-05-13T12:34:02Z</time>
      </trkpt>
      <trkpt lat="48.75397" lon="1.8928">
        <ele>104</ele>
        <time>2010-05-13T12:34:03Z</time>
      </trkpt>
      <trkpt lat="48.75398" lon="1.8928">
        <ele>104</ele>
        <time>2010-05-13T12:34:04Z</time>
      </trkpt>
      <trkpt lat="48.754" lon="1.89281">
        <ele>104</ele>
        <time>2010-05-13T12:34:05Z</time>
      </trkpt>
      <trkpt lat="48.75401" lon="1.89281">
        <ele>104</ele>
        <time>2010-05-13T12:34:07Z</time>
      </trkpt>
      <trkpt lat="48.75403" lon="1.89281">
        <ele>104</ele>
        <time>2010-05-13T12:34:09Z</time>
      </trkpt>
      <trkpt lat="48.75405" lon="1.89281">
        <ele>104</ele>
        <time>2010-05-13T12:34:10Z</time>
      </trkpt>
      <trkpt lat="48.75406" lon="1.8928">
        <ele>104</ele>
        <time>2010-05-13T12:34:11Z</time>
      </trkpt>
      <trkpt lat="48.75407" lon="1.8928">
        <ele>104</ele>
        <time>2010-05-13T12:34:12Z</time>
      </trkpt>
      <trkpt lat="48.75409" lon="1.89279">
        <ele>105</ele>
        <time>2010-05-13T12:34:13Z</time>
      </trkpt>
      <trkpt lat="48.75411" lon="1.89278">
        <ele>106</ele>
        <time>2010-05-13T12:34:14Z</time>
      </trkpt>
      <trkpt lat="48.75413" lon="1.89278">
        <ele>106</ele>
        <time>2010-05-13T12:34:15Z</time>
      </trkpt>
      <trkpt lat="48.75414" lon="1.89278">
        <ele>107</ele>
        <time>2010-05-13T12:34:16Z</time>
      </trkpt>
      <trkpt lat="48.75415" lon="1.89278">
        <ele>108</ele>
        <time>2010-05-13T12:34:17Z</time>
      </trkpt>
      <trkpt lat="48.75417" lon="1.89278">
        <ele>108</ele>
        <time>2010-05-13T12:34:19Z</time>
      </trkpt>
      <trkpt lat="48.75419" lon="1.89277">
        <ele>108</ele>
        <time>2010-05-13T12:34:21Z</time>
      </trkpt>
      <trkpt lat="48.7542" lon="1.89277">
        <ele>108</ele>
        <time>2010-05-13T12:34:22Z</time>
      </trkpt>
      <trkpt lat="48.75422" lon="1.89276">
        <ele>108</ele>
        <time>2010-05-13T12:34:23Z</time>
      </trkpt>
      <trkpt lat="48.75425" lon="1.89275">
        <ele>108</ele>
        <time>2010-05-13T12:34:24Z</time>
      </trkpt>
      <trkpt lat="48.75426" lon="1.89274">
        <ele>108</ele>
        <time>2010-05-13T12:34:25Z</time>
      </trkpt>
      <trkpt lat="48.75428" lon="1.89272">
        <ele>108</ele>
        <time>2010-05-13T12:34:26Z</time>
      </trkpt>
      <trkpt lat="48.7543" lon="1.89271">
        <ele>108</ele>
        <time>2010-05-13T12:34:27Z</time>
      </trkpt>
      <trkpt lat="48.75432" lon="1.8927">
        <ele>108</ele>
        <time>2010-05-13T12:34:28Z</time>
      </trkpt>
      <trkpt lat="48.75433" lon="1.89269">
        <ele>108</ele>
        <time>2010-05-13T12:34:29Z</time>
      </trkpt>
      <trkpt lat="48.75435" lon="1.8927">
        <ele>109</ele>
        <time>2010-05-13T12:34:30Z</time>
      </trkpt>
      <trkpt lat="48.75437" lon="1.89269">
        <ele>109</ele>
        <time>2010-05-13T12:34:32Z</time>
      </trkpt>
      <trkpt lat="48.75438" lon="1.8927">
        <ele>109</ele>
        <time>2010-05-13T12:34:33Z</time>
      </trkpt>
      <trkpt lat="48.75439" lon="1.8927">
        <ele>109</ele>
        <time>2010-05-13T12:34:34Z</time>
      </trkpt>
      <trkpt lat="48.7544" lon="1.8927">
        <ele>109</ele>
        <time>2010-05-13T12:34:35Z</time>
      </trkpt>
      <trkpt lat="48.75442" lon="1.89272">
        <ele>109</ele>
        <time>2010-05-13T12:34:37Z</time>
      </trkpt>
      <trkpt lat="48.75445" lon="1.89273">
        <ele>109</ele>
        <time>2010-05-13T12:34:38Z</time>
      </trkpt>
      <trkpt lat="48.75448" lon="1.89274">
        <ele>109</ele>
        <time>2010-05-13T12:34:39Z</time>
      </trkpt>
      <trkpt lat="48.75451" lon="1.89275">
        <ele>109</ele>
        <time>2010-05-13T12:34:40Z</time>
      </trkpt>
      <trkpt lat="48.75454" lon="1.89277">
        <ele>109</ele>
        <time>2010-05-13T12:34:42Z</time>
      </trkpt>
      <trkpt lat="48.75455" lon="1.89281">
        <ele>109</ele>
        <time>2010-05-13T12:34:45Z</time>
      </trkpt>
      <trkpt lat="48.75455" lon="1.89283">
        <ele>109</ele>
        <time>2010-05-13T12:34:46Z</time>
      </trkpt>
      <trkpt lat="48.75457" lon="1.89287">
        <ele>109</ele>
        <time>2010-05-13T12:34:47Z</time>
      </trkpt>
      <trkpt lat="48.75459" lon="1.89289">
        <ele>109</ele>
        <time>2010-05-13T12:34:48Z</time>
      </trkpt>
      <trkpt lat="48.75461" lon="1.89289">
        <ele>109</ele>
        <time>2010-05-13T12:34:49Z</time>
      </trkpt>
      <trkpt lat="48.75463" lon="1.89288">
        <ele>109</ele>
        <time>2010-05-13T12:34:51Z</time>
      </trkpt>
      <trkpt lat="48.75465" lon="1.89288">
        <ele>109</ele>
        <time>2010-05-13T12:34:52Z</time>
      </trkpt>
      <trkpt lat="48.75466" lon="1.89288">
        <ele>109</ele>
        <time>2010-05-13T12:34:53Z</time>
      </trkpt>
      <trkpt lat="48.75467" lon="1.89286">
        <ele>109</ele>
        <time>2010-05-13T12:34:54Z</time>
      </trkpt>
      <trkpt lat="48.75469" lon="1.89284">
        <ele>109</ele>
        <time>2010-05-13T12:34:55Z</time>
      </trkpt>
      <trkpt lat="48.75469" lon="1.89282">
        <ele>109</ele>
        <time>2010-05-13T12:34:56Z</time>
      </trkpt>
      <trkpt lat="48.75471" lon="1.8928">
        <ele>109</ele>
        <time>2010-05-13T12:34:57Z</time>
      </trkpt>
      <trkpt lat="48.75473" lon="1.89278">
        <ele>109</ele>
        <time>2010-05-13T12:34:58Z</time>
      </trkpt>
      <trkpt lat="48.75474" lon="1.89276">
        <ele>109</ele>
        <time>2010-05-13T12:34:59Z</time>
      </trkpt>
      <trkpt lat="48.75476" lon="1.89275">
        <ele>109</ele>
        <time>2010-05-13T12:35:00Z</time>
      </trkpt>
      <trkpt lat="48.75477" lon="1.89272">
        <ele>109</ele>
        <time>2010-05-13T12:35:02Z</time>
      </trkpt>
      <trkpt lat="48.75477" lon="1.89269">
        <ele>109</ele>
        <time>2010-05-13T12:35:03Z</time>
      </trkpt>
      <trkpt lat="48.75477" lon="1.89265">
        <ele>110</ele>
        <time>2010-05-13T12:35:04Z</time>
      </trkpt>
      <trkpt lat="48.75478" lon="1.89263">
        <ele>110</ele>
        <time>2010-05-13T12:35:05Z</time>
      </trkpt>
      <trkpt lat="48.75479" lon="1.89261">
        <ele>110</ele>
        <time>2010-05-13T12:35:06Z</time>
      </trkpt>
      <trkpt lat="48.75481" lon="1.89259">
        <ele>110</ele>
        <time>2010-05-13T12:35:07Z</time>
      </trkpt>
      <trkpt lat="48.75481" lon="1.89257">
        <ele>111</ele>
        <time>2010-05-13T12:35:08Z</time>
      </trkpt>
      <trkpt lat="48.75482" lon="1.89251">
        <ele>112</ele>
        <time>2010-05-13T12:35:11Z</time>
      </trkpt>
      <trkpt lat="48.75482" lon="1.89246">
        <ele>113</ele>
        <time>2010-05-13T12:35:12Z</time>
      </trkpt>
      <trkpt lat="48.75484" lon="1.89242">
        <ele>114</ele>
        <time>2010-05-13T12:35:13Z</time>
      </trkpt>
      <trkpt lat="48.75484" lon="1.89237">
        <ele>115</ele>
        <time>2010-05-13T12:35:14Z</time>
      </trkpt>
      <trkpt lat="48.75483" lon="1.89232">
        <ele>115</ele>
        <time>2010-05-13T12:35:15Z</time>
      </trkpt>
      <trkpt lat="48.75484" lon="1.89224">
        <ele>115</ele>
        <time>2010-05-13T12:35:18Z</time>
      </trkpt>
      <trkpt lat="48.75485" lon="1.89217">
        <ele>115</ele>
        <time>2010-05-13T12:35:19Z</time>
      </trkpt>
      <trkpt lat="48.75484" lon="1.89211">
        <ele>115</ele>
        <time>2010-05-13T12:35:20Z</time>
      </trkpt>
      <trkpt lat="48.75485" lon="1.89208">
        <ele>115</ele>
        <time>2010-05-13T12:35:21Z</time>
      </trkpt>
      <trkpt lat="48.75486" lon="1.89204">
        <ele>115</ele>
        <time>2010-05-13T12:35:22Z</time>
      </trkpt>
      <trkpt lat="48.75487" lon="1.892">
        <ele>115</ele>
        <time>2010-05-13T12:35:24Z</time>
      </trkpt>
      <trkpt lat="48.75488" lon="1.89199">
        <ele>115</ele>
        <time>2010-05-13T12:35:25Z</time>
      </trkpt>
      <trkpt lat="48.7549" lon="1.89195">
        <ele>115</ele>
        <time>2010-05-13T12:35:27Z</time>
      </trkpt>
      <trkpt lat="48.7549" lon="1.89193">
        <ele>116</ele>
        <time>2010-05-13T12:35:29Z</time>
      </trkpt>
      <trkpt lat="48.7549" lon="1.89191">
        <ele>116</ele>
        <time>2010-05-13T12:35:30Z</time>
      </trkpt>
      <trkpt lat="48.75492" lon="1.89189">
        <ele>117</ele>
        <time>2010-05-13T12:35:32Z</time>
      </trkpt>
      <trkpt lat="48.75493" lon="1.89186">
        <ele>117</ele>
        <time>2010-05-13T12:35:34Z</time>
      </trkpt>
      <trkpt lat="48.75493" lon="1.89184">
        <ele>117</ele>
        <time>2010-05-13T12:35:36Z</time>
      </trkpt>
      <trkpt lat="48.75493" lon="1.89181">
        <ele>117</ele>
        <time>2010-05-13T12:35:37Z</time>
      </trkpt>
      <trkpt lat="48.75494" lon="1.89179">
        <ele>117</ele>
        <time>2010-05-13T12:35:38Z</time>
      </trkpt>
      <trkpt lat="48.75493" lon="1.89177">
        <ele>117</ele>
        <time>2010-05-13T12:35:39Z</time>
      </trkpt>
      <trkpt lat="48.75494" lon="1.89175">
        <ele>116</ele>
        <time>2010-05-13T12:35:40Z</time>
      </trkpt>
      <trkpt lat="48.75494" lon="1.89171">
        <ele>115</ele>
        <time>2010-05-13T12:35:41Z</time>
      </trkpt>
      <trkpt lat="48.75494" lon="1.89168">
        <ele>114</ele>
        <time>2010-05-13T12:35:42Z</time>
      </trkpt>
      <trkpt lat="48.75495" lon="1.89166">
        <ele>113</ele>
        <time>2010-05-13T12:35:44Z</time>
      </trkpt>
      <trkpt lat="48.75495" lon="1.89163">
        <ele>113</ele>
        <time>2010-05-13T12:35:45Z</time>
      </trkpt>
      <trkpt lat="48.75495" lon="1.89159">
        <ele>111</ele>
        <time>2010-05-13T12:35:47Z</time>
      </trkpt>
      <trkpt lat="48.75495" lon="1.89156">
        <ele>110</ele>
        <time>2010-05-13T12:35:48Z</time>
      </trkpt>
      <trkpt lat="48.75496" lon="1.89152">
        <ele>109</ele>
        <time>2010-05-13T12:35:51Z</time>
      </trkpt>
      <trkpt lat="48.75495" lon="1.89148">
        <ele>108</ele>
        <time>2010-05-13T12:35:52Z</time>
      </trkpt>
      <trkpt lat="48.75495" lon="1.89145">
        <ele>107</ele>
        <time>2010-05-13T12:35:53Z</time>
      </trkpt>
      <trkpt lat="48.75496" lon="1.89141">
        <ele>107</ele>
        <time>2010-05-13T12:35:54Z</time>
      </trkpt>
      <trkpt lat="48.75495" lon="1.89137">
        <ele>107</ele>
        <time>2010-05-13T12:35:55Z</time>
      </trkpt>
      <trkpt lat="48.75495" lon="1.89135">
        <ele>107</ele>
        <time>2010-05-13T12:35:57Z</time>
      </trkpt>
      <trkpt lat="48.75496" lon="1.89133">
        <ele>107</ele>
        <time>2010-05-13T12:35:58Z</time>
      </trkpt>
      <trkpt lat="48.75495" lon="1.89131">
        <ele>107</ele>
        <time>2010-05-13T12:35:59Z</time>
      </trkpt>
      <trkpt lat="48.75493" lon="1.89131">
        <ele>108</ele>
        <time>2010-05-13T12:36:03Z</time>
      </trkpt>
      <trkpt lat="48.75493" lon="1.8913">
        <ele>108</ele>
        <time>2010-05-13T12:36:06Z</time>
      </trkpt>
      <trkpt lat="48.75493" lon="1.89127">
        <ele>108</ele>
        <time>2010-05-13T12:36:07Z</time>
      </trkpt>
      <trkpt lat="48.75493" lon="1.89124">
        <ele>108</ele>
        <time>2010-05-13T12:36:10Z</time>
      </trkpt>
      <trkpt lat="48.75492" lon="1.89123">
        <ele>108</ele>
        <time>2010-05-13T12:36:15Z</time>
      </trkpt>
      <trkpt lat="48.75492" lon="1.89121">
        <ele>108</ele>
        <time>2010-05-13T12:36:17Z</time>
      </trkpt>
      <trkpt lat="48.75493" lon="1.89118">
        <ele>108</ele>
        <time>2010-05-13T12:36:19Z</time>
      </trkpt>
      <trkpt lat="48.75495" lon="1.89118">
        <ele>108</ele>
        <time>2010-05-13T12:36:20Z</time>
      </trkpt>
      <trkpt lat="48.75495" lon="1.89115">
        <ele>108</ele>
        <time>2010-05-13T12:36:22Z</time>
      </trkpt>
      <trkpt lat="48.75496" lon="1.89114">
        <ele>108</ele>
        <time>2010-05-13T12:36:23Z</time>
      </trkpt>
      <trkpt lat="48.75497" lon="1.8911">
        <ele>108</ele>
        <time>2010-05-13T12:36:24Z</time>
      </trkpt>
      <trkpt lat="48.75503" lon="1.8908">
        <ele>108</ele>
        <time>2010-05-13T12:36:31Z</time>
      </trkpt>
      <trkpt lat="48.75509" lon="1.89063">
        <ele>108</ele>
        <time>2010-05-13T12:36:32Z</time>
      </trkpt>
      <trkpt lat="48.7551" lon="1.89051">
        <ele>109</ele>
        <time>2010-05-13T12:36:33Z</time>
      </trkpt>
      <trkpt lat="48.75511" lon="1.89043">
        <ele>110</ele>
        <time>2010-05-13T12:36:34Z</time>
      </trkpt>
      <trkpt lat="48.75513" lon="1.89039">
        <ele>111</ele>
        <time>2010-05-13T12:36:35Z</time>
      </trkpt>
      <trkpt lat="48.75513" lon="1.89034">
        <ele>112</ele>
        <time>2010-05-13T12:36:36Z</time>
      </trkpt>
      <trkpt lat="48.75515" lon="1.89031">
        <ele>113</ele>
        <time>2010-05-13T12:36:37Z</time>
      </trkpt>
      <trkpt lat="48.75517" lon="1.89029">
        <ele>115</ele>
        <time>2010-05-13T12:36:39Z</time>
      </trkpt>
      <trkpt lat="48.75518" lon="1.89029">
        <ele>115</ele>
        <time>2010-05-13T12:36:40Z</time>
      </trkpt>
      <trkpt lat="48.7552" lon="1.89029">
        <ele>115</ele>
        <time>2010-05-13T12:36:41Z</time>
      </trkpt>
      <trkpt lat="48.75521" lon="1.89028">
        <ele>115</ele>
        <time>2010-05-13T12:36:42Z</time>
      </trkpt>
      <trkpt lat="48.75522" lon="1.89027">
        <ele>115</ele>
        <time>2010-05-13T12:36:43Z</time>
      </trkpt>
      <trkpt lat="48.75525" lon="1.89027">
        <ele>117</ele>
        <time>2010-05-13T12:36:45Z</time>
      </trkpt>
      <trkpt lat="48.75527" lon="1.89024">
        <ele>118</ele>
        <time>2010-05-13T12:36:48Z</time>
      </trkpt>
      <trkpt lat="48.75527" lon="1.89022">
        <ele>119</ele>
        <time>2010-05-13T12:36:50Z</time>
      </trkpt>
      <trkpt lat="48.75526" lon="1.89017">
        <ele>120</ele>
        <time>2010-05-13T12:36:51Z</time>
      </trkpt>
      <trkpt lat="48.75526" lon="1.89012">
        <ele>121</ele>
        <time>2010-05-13T12:36:52Z</time>
      </trkpt>
      <trkpt lat="48.75524" lon="1.89013">
        <ele>122</ele>
        <time>2010-05-13T12:36:53Z</time>
      </trkpt>
      <trkpt lat="48.75522" lon="1.89013">
        <ele>128</ele>
        <time>2010-05-13T12:36:59Z</time>
      </trkpt>
      <trkpt lat="48.75522" lon="1.89016">
        <ele>130</ele>
        <time>2010-05-13T12:37:01Z</time>
      </trkpt>
      <trkpt lat="48.75522" lon="1.89018">
        <ele>130</ele>
        <time>2010-05-13T12:37:02Z</time>
      </trkpt>
      <trkpt lat="48.75521" lon="1.89016">
        <ele>130</ele>
        <time>2010-05-13T12:37:10Z</time>
      </trkpt>
      <trkpt lat="48.75522" lon="1.89016">
        <ele>130</ele>
        <time>2010-05-13T12:37:12Z</time>
      </trkpt>
      <trkpt lat="48.75521" lon="1.89017">
        <ele>131</ele>
        <time>2010-05-13T12:37:14Z</time>
      </trkpt>
      <trkpt lat="48.75523" lon="1.89017">
        <ele>135</ele>
        <time>2010-05-13T12:37:20Z</time>
      </trkpt>
      <trkpt lat="48.75523" lon="1.89015">
        <ele>136</ele>
        <time>2010-05-13T12:37:21Z</time>
      </trkpt>
      <trkpt lat="48.75523" lon="1.89014">
        <ele>137</ele>
        <time>2010-05-13T12:37:22Z</time>
      </trkpt>
      <trkpt lat="48.75525" lon="1.89014">
        <ele>138</ele>
        <time>2010-05-13T12:37:24Z</time>
      </trkpt>
      <trkpt lat="48.75523" lon="1.89016">
        <ele>138</ele>
        <time>2010-05-13T12:37:26Z</time>
      </trkpt>
      <trkpt lat="48.75524" lon="1.89015">
        <ele>138</ele>
        <time>2010-05-13T12:37:28Z</time>
      </trkpt>
      <trkpt lat="48.75526" lon="1.89012">
        <ele>138</ele>
        <time>2010-05-13T12:37:30Z</time>
      </trkpt>
      <trkpt lat="48.75528" lon="1.89012">
        <ele>138</ele>
        <time>2010-05-13T12:37:35Z</time>
      </trkpt>
      <trkpt lat="48.7553" lon="1.89012">
        <ele>138</ele>
        <time>2010-05-13T12:37:37Z</time>
      </trkpt>
      <trkpt lat="48.75528" lon="1.89013">
        <ele>138</ele>
        <time>2010-05-13T12:37:39Z</time>
      </trkpt>
      <trkpt lat="48.75526" lon="1.89013">
        <ele>138</ele>
        <time>2010-05-13T12:37:41Z</time>
      </trkpt>
      <trkpt lat="48.75525" lon="1.89012">
        <ele>138</ele>
        <time>2010-05-13T12:37:43Z</time>
      </trkpt>
      <trkpt lat="48.75523" lon="1.89014">
        <ele>138</ele>
        <time>2010-05-13T12:37:46Z</time>
      </trkpt>
      <trkpt lat="48.75523" lon="1.89016">
        <ele>136</ele>
        <time>2010-05-13T12:37:48Z</time>
      </trkpt>
      <trkpt lat="48.75523" lon="1.89013">
        <ele>130</ele>
        <time>2010-05-13T12:37:54Z</time>
      </trkpt>
      <trkpt lat="48.75524" lon="1.89011">
        <ele>128</ele>
        <time>2010-05-13T12:37:56Z</time>
      </trkpt>
      <trkpt lat="48.75525" lon="1.89009">
        <ele>126</ele>
        <time>2010-05-13T12:37:58Z</time>
      </trkpt>
      <trkpt lat="48.75526" lon="1.89008">
        <ele>122</ele>
        <time>2010-05-13T12:38:02Z</time>
      </trkpt>
      <trkpt lat="48.75525" lon="1.89007">
        <ele>117</ele>
        <time>2010-05-13T12:38:07Z</time>
      </trkpt>
      <trkpt lat="48.75524" lon="1.89008">
        <ele>115</ele>
        <time>2010-05-13T12:38:09Z</time>
      </trkpt>
      <trkpt lat="48.75525" lon="1.89008">
        <ele>115</ele>
        <time>2010-05-13T12:38:11Z</time>
      </trkpt>
      <trkpt lat="48.75524" lon="1.89008">
        <ele>115</ele>
        <time>2010-05-13T12:38:17Z</time>
      </trkpt>
      <trkpt lat="48.75522" lon="1.8901">
        <ele>115</ele>
        <time>2010-05-13T12:38:19Z</time>
      </trkpt>
      <trkpt lat="48.75521" lon="1.89009">
        <ele>115</ele>
        <time>2010-05-13T12:38:20Z</time>
      </trkpt>
      <trkpt lat="48.7552" lon="1.8901">
        <ele>115</ele>
        <time>2010-05-13T12:38:21Z</time>
      </trkpt>
      <trkpt lat="48.75519" lon="1.8901">
        <ele>115</ele>
        <time>2010-05-13T12:38:22Z</time>
      </trkpt>
      <trkpt lat="48.75518" lon="1.89012">
        <ele>115</ele>
        <time>2010-05-13T12:38:23Z</time>
      </trkpt>
      <trkpt lat="48.75516" lon="1.89015">
        <ele>115</ele>
        <time>2010-05-13T12:38:25Z</time>
      </trkpt>
      <trkpt lat="48.75515" lon="1.89017">
        <ele>115</ele>
        <time>2010-05-13T12:38:27Z</time>
      </trkpt>
      <trkpt lat="48.75514" lon="1.89019">
        <ele>114</ele>
        <time>2010-05-13T12:38:29Z</time>
      </trkpt>
      <trkpt lat="48.75513" lon="1.89021">
        <ele>111</ele>
        <time>2010-05-13T12:38:32Z</time>
      </trkpt>
      <trkpt lat="48.75514" lon="1.89021">
        <ele>109</ele>
        <time>2010-05-13T12:38:36Z</time>
      </trkpt>
      <trkpt lat="48.75516" lon="1.89021">
        <ele>109</ele>
        <time>2010-05-13T12:38:37Z</time>
      </trkpt>
      <trkpt lat="48.75517" lon="1.89021">
        <ele>109</ele>
        <time>2010-05-13T12:38:46Z</time>
      </trkpt>
      <trkpt lat="48.75518" lon="1.89022">
        <ele>111</ele>
        <time>2010-05-13T12:38:48Z</time>
      </trkpt>
      <trkpt lat="48.75518" lon="1.89023">
        <ele>114</ele>
        <time>2010-05-13T12:38:51Z</time>
      </trkpt>
      <trkpt lat="48.75517" lon="1.89025">
        <ele>116</ele>
        <time>2010-05-13T12:38:53Z</time>
      </trkpt>
      <trkpt lat="48.75518" lon="1.89024">
        <ele>120</ele>
        <time>2010-05-13T12:38:57Z</time>
      </trkpt>
      <trkpt lat="48.75519" lon="1.89023">
        <ele>123</ele>
        <time>2010-05-13T12:39:01Z</time>
      </trkpt>
      <trkpt lat="48.75521" lon="1.89022">
        <ele>125</ele>
        <time>2010-05-13T12:39:04Z</time>
      </trkpt>
      <trkpt lat="48.75521" lon="1.8902">
        <ele>126</ele>
        <time>2010-05-13T12:39:06Z</time>
      </trkpt>
      <trkpt lat="48.75523" lon="1.89019">
        <ele>127</ele>
        <time>2010-05-13T12:39:08Z</time>
      </trkpt>
      <trkpt lat="48.75522" lon="1.89018">
        <ele>127</ele>
        <time>2010-05-13T12:39:15Z</time>
      </trkpt>
      <trkpt lat="48.75522" lon="1.89017">
        <ele>127</ele>
        <time>2010-05-13T12:39:18Z</time>
      </trkpt>
      <trkpt lat="48.75523" lon="1.89019">
        <ele>127</ele>
        <time>2010-05-13T12:39:19Z</time>
      </trkpt>
      <trkpt lat="48.75522" lon="1.8902">
        <ele>127</ele>
        <time>2010-05-13T12:39:20Z</time>
      </trkpt>
      <trkpt lat="48.7552" lon="1.8902">
        <ele>125</ele>
        <time>2010-05-13T12:39:22Z</time>
      </trkpt>
      <trkpt lat="48.75518" lon="1.89019">
        <ele>124</ele>
        <time>2010-05-13T12:39:23Z</time>
      </trkpt>
      <trkpt lat="48.75516" lon="1.89017">
        <ele>123</ele>
        <time>2010-05-13T12:39:25Z</time>
      </trkpt>
      <trkpt lat="48.75515" lon="1.89014">
        <ele>123</ele>
        <time>2010-05-13T12:39:27Z</time>
      </trkpt>
      <trkpt lat="48.75514" lon="1.89013">
        <ele>123</ele>
        <time>2010-05-13T12:39:28Z</time>
      </trkpt>
      <trkpt lat="48.75514" lon="1.89011">
        <ele>123</ele>
        <time>2010-05-13T12:39:29Z</time>
      </trkpt>
      <trkpt lat="48.75513" lon="1.89009">
        <ele>123</ele>
        <time>2010-05-13T12:39:31Z</time>
      </trkpt>
      <trkpt lat="48.75512" lon="1.89007">
        <ele>122</ele>
        <time>2010-05-13T12:39:33Z</time>
      </trkpt>
      <trkpt lat="48.75511" lon="1.89008">
        <ele>122</ele>
        <time>2010-05-13T12:39:35Z</time>
      </trkpt>
      <trkpt lat="48.75509" lon="1.89008">
        <ele>122</ele>
        <time>2010-05-13T12:39:37Z</time>
      </trkpt>
      <trkpt lat="48.75507" lon="1.89011">
        <ele>122</ele>
        <time>2010-05-13T12:39:39Z</time>
      </trkpt>
      <trkpt lat="48.75506" lon="1.89013">
        <ele>123</ele>
        <time>2010-05-13T12:39:41Z</time>
      </trkpt>
      <trkpt lat="48.75505" lon="1.89014">
        <ele>124</ele>
        <time>2010-05-13T12:39:42Z</time>
      </trkpt>
      <trkpt lat="48.75503" lon="1.89019">
        <ele>126</ele>
        <time>2010-05-13T12:39:44Z</time>
      </trkpt>
      <trkpt lat="48.75502" lon="1.8902">
        <ele>129</ele>
        <time>2010-05-13T12:39:47Z</time>
      </trkpt>
      <trkpt lat="48.75501" lon="1.89022">
        <ele>130</ele>
        <time>2010-05-13T12:39:48Z</time>
      </trkpt>
      <trkpt lat="48.75501" lon="1.89024">
        <ele>131</ele>
        <time>2010-05-13T12:39:50Z</time>
      </trkpt>
      <trkpt lat="48.75501" lon="1.89026">
        <ele>131</ele>
        <time>2010-05-13T12:39:52Z</time>
      </trkpt>
      <trkpt lat="48.75503" lon="1.89026">
        <ele>132</ele>
        <time>2010-05-13T12:39:54Z</time>
      </trkpt>
      <trkpt lat="48.75504" lon="1.89026">
        <ele>133</ele>
        <time>2010-05-13T12:39:55Z</time>
      </trkpt>
      <trkpt lat="48.75506" lon="1.89024">
        <ele>134</ele>
        <time>2010-05-13T12:39:56Z</time>
      </trkpt>
      <trkpt lat="48.75508" lon="1.89022">
        <ele>136</ele>
        <time>2010-05-13T12:40:00Z</time>
      </trkpt>
      <trkpt lat="48.75511" lon="1.89022">
        <ele>137</ele>
        <time>2010-05-13T12:40:01Z</time>
      </trkpt>
      <trkpt lat="48.75516" lon="1.89022">
        <ele>138</ele>
        <time>2010-05-13T12:40:02Z</time>
      </trkpt>
      <trkpt lat="48.75517" lon="1.89023">
        <ele>140</ele>
        <time>2010-05-13T12:40:04Z</time>
      </trkpt>
      <trkpt lat="48.75516" lon="1.89026">
        <ele>141</ele>
        <time>2010-05-13T12:40:06Z</time>
      </trkpt>
      <trkpt lat="48.75515" lon="1.89023">
        <ele>141</ele>
        <time>2010-05-13T12:40:08Z</time>
      </trkpt>
      <trkpt lat="48.75516" lon="1.89022">
        <ele>141</ele>
        <time>2010-05-13T12:40:09Z</time>
      </trkpt>
      <trkpt lat="48.75517" lon="1.8902">
        <ele>141</ele>
        <time>2010-05-13T12:40:11Z</time>
      </trkpt>
      <trkpt lat="48.75519" lon="1.8902">
        <ele>142</ele>
        <time>2010-05-13T12:40:14Z</time>
      </trkpt>
      <trkpt lat="48.75518" lon="1.8902">
        <ele>143</ele>
        <time>2010-05-13T12:40:15Z</time>
      </trkpt>
      <trkpt lat="48.75517" lon="1.89017">
        <ele>145</ele>
        <time>2010-05-13T12:40:17Z</time>
      </trkpt>
      <trkpt lat="48.75519" lon="1.89016">
        <ele>146</ele>
        <time>2010-05-13T12:40:18Z</time>
      </trkpt>
      <trkpt lat="48.7552" lon="1.89016">
        <ele>147</ele>
        <time>2010-05-13T12:40:19Z</time>
      </trkpt>
      <trkpt lat="48.75522" lon="1.89016">
        <ele>148</ele>
        <time>2010-05-13T12:40:20Z</time>
      </trkpt>
      <trkpt lat="48.75522" lon="1.89019">
        <ele>150</ele>
        <time>2010-05-13T12:40:22Z</time>
      </trkpt>
      <trkpt lat="48.75521" lon="1.89022">
        <ele>150</ele>
        <time>2010-05-13T12:40:24Z</time>
      </trkpt>
      <trkpt lat="48.75521" lon="1.89024">
        <ele>150</ele>
        <time>2010-05-13T12:40:25Z</time>
      </trkpt>
      <trkpt lat="48.75522" lon="1.89023">
        <ele>147</ele>
        <time>2010-05-13T12:40:28Z</time>
      </trkpt>
      <trkpt lat="48.75524" lon="1.8902">
        <ele>146</ele>
        <time>2010-05-13T12:40:29Z</time>
      </trkpt>
      <trkpt lat="48.75525" lon="1.89017">
        <ele>144</ele>
        <time>2010-05-13T12:40:31Z</time>
      </trkpt>
      <trkpt lat="48.75526" lon="1.89015">
        <ele>144</ele>
        <time>2010-05-13T12:40:34Z</time>
      </trkpt>
      <trkpt lat="48.75523" lon="1.89017">
        <ele>143</ele>
        <time>2010-05-13T12:40:35Z</time>
      </trkpt>
      <trkpt lat="48.75518" lon="1.89017">
        <ele>142</ele>
        <time>2010-05-13T12:40:36Z</time>
      </trkpt>
      <trkpt lat="48.75518" lon="1.89019">
        <ele>141</ele>
        <time>2010-05-13T12:40:37Z</time>
      </trkpt>
      <trkpt lat="48.75518" lon="1.89021">
        <ele>140</ele>
        <time>2010-05-13T12:40:38Z</time>
      </trkpt>
      <trkpt lat="48.75518" lon="1.89024">
        <ele>137</ele>
        <time>2010-05-13T12:40:41Z</time>
      </trkpt>
      <trkpt lat="48.75518" lon="1.89026">
        <ele>136</ele>
        <time>2010-05-13T12:40:42Z</time>
      </trkpt>
      <trkpt lat="48.75516" lon="1.89026">
        <ele>135</ele>
        <time>2010-05-13T12:40:43Z</time>
      </trkpt>
      <trkpt lat="48.75515" lon="1.89028">
        <ele>134</ele>
        <time>2010-05-13T12:40:44Z</time>
      </trkpt>
      <trkpt lat="48.75514" lon="1.89031">
        <ele>133</ele>
        <time>2010-05-13T12:40:45Z</time>
      </trkpt>
      <trkpt lat="48.75514" lon="1.89033">
        <ele>132</ele>
        <time>2010-05-13T12:40:46Z</time>
      </trkpt>
      <trkpt lat="48.75513" lon="1.89036">
        <ele>131</ele>
        <time>2010-05-13T12:40:47Z</time>
      </trkpt>
      <trkpt lat="48.75513" lon="1.89038">
        <ele>131</ele>
        <time>2010-05-13T12:40:48Z</time>
      </trkpt>
      <trkpt lat="48.75513" lon="1.8904">
        <ele>131</ele>
        <time>2010-05-13T12:40:51Z</time>
      </trkpt>
      <trkpt lat="48.75513" lon="1.89038">
        <ele>131</ele>
        <time>2010-05-13T12:40:56Z</time>
      </trkpt>
      <trkpt lat="48.75514" lon="1.89036">
        <ele>131</ele>
        <time>2010-05-13T12:40:59Z</time>
      </trkpt>
      <trkpt lat="48.75512" lon="1.89037">
        <ele>131</ele>
        <time>2010-05-13T12:41:01Z</time>
      </trkpt>
      <trkpt lat="48.7551" lon="1.89038">
        <ele>131</ele>
        <time>2010-05-13T12:41:03Z</time>
      </trkpt>
      <trkpt lat="48.7551" lon="1.89039">
        <ele>131</ele>
        <time>2010-05-13T12:41:07Z</time>
      </trkpt>
      <trkpt lat="48.75511" lon="1.89039">
        <ele>131</ele>
        <time>2010-05-13T12:41:09Z</time>
      </trkpt>
      <trkpt lat="48.75513" lon="1.89038">
        <ele>133</ele>
        <time>2010-05-13T12:41:12Z</time>
      </trkpt>
      <trkpt lat="48.75514" lon="1.89037">
        <ele>134</ele>
        <time>2010-05-13T12:41:13Z</time>
      </trkpt>
      <trkpt lat="48.75516" lon="1.89036">
        <ele>135</ele>
        <time>2010-05-13T12:41:14Z</time>
      </trkpt>
      <trkpt lat="48.75517" lon="1.89033">
        <ele>137</ele>
        <time>2010-05-13T12:41:16Z</time>
      </trkpt>
      <trkpt lat="48.75518" lon="1.89031">
        <ele>138</ele>
        <time>2010-05-13T12:41:17Z</time>
      </trkpt>
      <trkpt lat="48.75518" lon="1.89028">
        <ele>140</ele>
        <time>2010-05-13T12:41:19Z</time>
      </trkpt>
      <trkpt lat="48.75517" lon="1.89029">
        <ele>141</ele>
        <time>2010-05-13T12:41:20Z</time>
      </trkpt>
      <trkpt lat="48.75515" lon="1.89029">
        <ele>142</ele>
        <time>2010-05-13T12:41:22Z</time>
      </trkpt>
      <trkpt lat="48.75513" lon="1.89029">
        <ele>142</ele>
        <time>2010-05-13T12:41:24Z</time>
      </trkpt>
      <trkpt lat="48.75512" lon="1.8903">
        <ele>138</ele>
        <time>2010-05-13T12:41:28Z</time>
      </trkpt>
      <trkpt lat="48.75513" lon="1.89029">
        <ele>134</ele>
        <time>2010-05-13T12:41:32Z</time>
      </trkpt>
      <trkpt lat="48.75515" lon="1.89027">
        <ele>131</ele>
        <time>2010-05-13T12:41:35Z</time>
      </trkpt>
      <trkpt lat="48.75515" lon="1.89024">
        <ele>129</ele>
        <time>2010-05-13T12:41:37Z</time>
      </trkpt>
      <trkpt lat="48.75515" lon="1.89022">
        <ele>129</ele>
        <time>2010-05-13T12:41:38Z</time>
      </trkpt>
      <trkpt lat="48.75517" lon="1.8902">
        <ele>129</ele>
        <time>2010-05-13T12:41:41Z</time>
      </trkpt>
      <trkpt lat="48.75517" lon="1.89023">
        <ele>129</ele>
        <time>2010-05-13T12:41:44Z</time>
      </trkpt>
      <trkpt lat="48.75515" lon="1.89025">
        <ele>129</ele>
        <time>2010-05-13T12:41:46Z</time>
      </trkpt>
      <trkpt lat="48.75516" lon="1.89028">
        <ele>129</ele>
        <time>2010-05-13T12:41:48Z</time>
      </trkpt>
      <trkpt lat="48.75514" lon="1.89031">
        <ele>128</ele>
        <time>2010-05-13T12:41:50Z</time>
      </trkpt>
      <trkpt lat="48.75513" lon="1.89031">
        <ele>128</ele>
        <time>2010-05-13T12:41:51Z</time>
      </trkpt>
      <trkpt lat="48.75514" lon="1.89029">
        <ele>128</ele>
        <time>2010-05-13T12:41:54Z</time>
      </trkpt>
      <trkpt lat="48.75516" lon="1.89026">
        <ele>128</ele>
        <time>2010-05-13T12:41:56Z</time>
      </trkpt>
      <trkpt lat="48.75517" lon="1.89024">
        <ele>128</ele>
        <time>2010-05-13T12:41:58Z</time>
      </trkpt>
      <trkpt lat="48.75518" lon="1.89021">
        <ele>130</ele>
        <time>2010-05-13T12:42:00Z</time>
      </trkpt>
      <trkpt lat="48.7552" lon="1.8902">
        <ele>132</ele>
        <time>2010-05-13T12:42:02Z</time>
      </trkpt>
      <trkpt lat="48.75519" lon="1.89023">
        <ele>134</ele>
        <time>2010-05-13T12:42:04Z</time>
      </trkpt>
      <trkpt lat="48.75521" lon="1.89022">
        <ele>134</ele>
        <time>2010-05-13T12:42:07Z</time>
      </trkpt>
      <trkpt lat="48.75519" lon="1.89022">
        <ele>134</ele>
        <time>2010-05-13T12:42:15Z</time>
      </trkpt>
      <trkpt lat="48.75519" lon="1.89025">
        <ele>134</ele>
        <time>2010-05-13T12:42:17Z</time>
      </trkpt>
      <trkpt lat="48.75519" lon="1.89027">
        <ele>133</ele>
        <time>2010-05-13T12:42:19Z</time>
      </trkpt>
      <trkpt lat="48.75518" lon="1.89027">
        <ele>131</ele>
        <time>2010-05-13T12:42:21Z</time>
      </trkpt>
      <trkpt lat="48.75516" lon="1.89029">
        <ele>127</ele>
        <time>2010-05-13T12:42:25Z</time>
      </trkpt>
      <trkpt lat="48.75517" lon="1.89031">
        <ele>125</ele>
        <time>2010-05-13T12:42:27Z</time>
      </trkpt>
      <trkpt lat="48.75517" lon="1.89034">
        <ele>125</ele>
        <time>2010-05-13T12:42:29Z</time>
      </trkpt>
      <trkpt lat="48.75517" lon="1.89036">
        <ele>125</ele>
        <time>2010-05-13T12:42:30Z</time>
      </trkpt>
      <trkpt lat="48.75518" lon="1.89037">
        <ele>125</ele>
        <time>2010-05-13T12:42:35Z</time>
      </trkpt>
      <trkpt lat="48.7552" lon="1.89038">
        <ele>126</ele>
        <time>2010-05-13T12:42:38Z</time>
      </trkpt>
      <trkpt lat="48.75519" lon="1.8904">
        <ele>128</ele>
        <time>2010-05-13T12:42:40Z</time>
      </trkpt>
      <trkpt lat="48.75518" lon="1.89042">
        <ele>130</ele>
        <time>2010-05-13T12:42:42Z</time>
      </trkpt>
      <trkpt lat="48.75518" lon="1.8904">
        <ele>136</ele>
        <time>2010-05-13T12:42:48Z</time>
      </trkpt>
      <trkpt lat="48.75517" lon="1.8904">
        <ele>139</ele>
        <time>2010-05-13T12:42:51Z</time>
      </trkpt>
      <trkpt lat="48.75516" lon="1.89039">
        <ele>142</ele>
        <time>2010-05-13T12:42:54Z</time>
      </trkpt>
      <trkpt lat="48.75514" lon="1.89039">
        <ele>144</ele>
        <time>2010-05-13T12:42:56Z</time>
      </trkpt>
      <trkpt lat="48.75513" lon="1.8904">
        <ele>145</ele>
        <time>2010-05-13T12:42:57Z</time>
      </trkpt>
      <trkpt lat="48.75512" lon="1.89038">
        <ele>147</ele>
        <time>2010-05-13T12:42:59Z</time>
      </trkpt>
      <trkpt lat="48.75512" lon="1.89036">
        <ele>150</ele>
        <time>2010-05-13T12:43:07Z</time>
      </trkpt>
      <trkpt lat="48.75513" lon="1.89034">
        <ele>150</ele>
        <time>2010-05-13T12:43:08Z</time>
      </trkpt>
      <trkpt lat="48.75515" lon="1.89032">
        <ele>150</ele>
        <time>2010-05-13T12:43:09Z</time>
      </trkpt>
      <trkpt lat="48.75516" lon="1.89029">
        <ele>150</ele>
        <time>2010-05-13T12:43:13Z</time>
      </trkpt>
      <trkpt lat="48.75518" lon="1.89027">
        <ele>150</ele>
        <time>2010-05-13T12:43:15Z</time>
      </trkpt>
      <trkpt lat="48.75518" lon="1.89026">
        <ele>148</ele>
        <time>2010-05-13T12:43:17Z</time>
      </trkpt>
      <trkpt lat="48.7552" lon="1.89025">
        <ele>146</ele>
        <time>2010-05-13T12:43:19Z</time>
      </trkpt>
      <trkpt lat="48.75522" lon="1.89025">
        <ele>145</ele>
        <time>2010-05-13T12:43:20Z</time>
      </trkpt>
      <trkpt lat="48.75524" lon="1.89023">
        <ele>143</ele>
        <time>2010-05-13T12:43:22Z</time>
      </trkpt>
      <trkpt lat="48.75523" lon="1.89021">
        <ele>141</ele>
        <time>2010-05-13T12:43:24Z</time>
      </trkpt>
      <trkpt lat="48.75522" lon="1.89019">
        <ele>140</ele>
        <time>2010-05-13T12:43:26Z</time>
      </trkpt>
      <trkpt lat="48.7552" lon="1.89021">
        <ele>138</ele>
        <time>2010-05-13T12:43:28Z</time>
      </trkpt>
      <trkpt lat="48.75519" lon="1.89022">
        <ele>137</ele>
        <time>2010-05-13T12:43:29Z</time>
      </trkpt>
      <trkpt lat="48.7552" lon="1.89022">
        <ele>133</ele>
        <time>2010-05-13T12:43:34Z</time>
      </trkpt>
      <trkpt lat="48.75521" lon="1.8902">
        <ele>134</ele>
        <time>2010-05-13T12:43:39Z</time>
      </trkpt>
      <trkpt lat="48.75521" lon="1.89018">
        <ele>136</ele>
        <time>2010-05-13T12:43:42Z</time>
      </trkpt>
      <trkpt lat="48.75519" lon="1.8902">
        <ele>137</ele>
        <time>2010-05-13T12:43:46Z</time>
      </trkpt>
      <trkpt lat="48.75518" lon="1.89019">
        <ele>137</ele>
        <time>2010-05-13T12:43:50Z</time>
      </trkpt>
      <trkpt lat="48.7552" lon="1.89017">
        <ele>137</ele>
        <time>2010-05-13T12:43:52Z</time>
      </trkpt>
      <trkpt lat="48.75519" lon="1.89018">
        <ele>137</ele>
        <time>2010-05-13T12:43:53Z</time>
      </trkpt>
      <trkpt lat="48.7552" lon="1.89018">
        <ele>135</ele>
        <time>2010-05-13T12:43:57Z</time>
      </trkpt>
      <trkpt lat="48.75521" lon="1.89016">
        <ele>134</ele>
        <time>2010-05-13T12:43:59Z</time>
      </trkpt>
      <trkpt lat="48.75519" lon="1.89016">
        <ele>134</ele>
        <time>2010-05-13T12:44:02Z</time>
      </trkpt>
      <trkpt lat="48.75521" lon="1.89016">
        <ele>134</ele>
        <time>2010-05-13T12:44:07Z</time>
      </trkpt>
      <trkpt lat="48.75521" lon="1.89021">
        <ele>134</ele>
        <time>2010-05-13T12:44:08Z</time>
      </trkpt>
      <trkpt lat="48.7552" lon="1.89025">
        <ele>134</ele>
        <time>2010-05-13T12:44:09Z</time>
      </trkpt>
      <trkpt lat="48.75522" lon="1.89024">
        <ele>134</ele>
        <time>2010-05-13T12:44:11Z</time>
      </trkpt>
      <trkpt lat="48.7552" lon="1.89026">
        <ele>134</ele>
        <time>2010-05-13T12:44:12Z</time>
      </trkpt>
      <trkpt lat="48.75514" lon="1.8902">
        <ele>139</ele>
        <time>2010-05-13T12:44:29Z</time>
      </trkpt>
      <trkpt lat="48.75512" lon="1.8902">
        <ele>141</ele>
        <time>2010-05-13T12:44:31Z</time>
      </trkpt>
      <trkpt lat="48.75512" lon="1.89018">
        <ele>143</ele>
        <time>2010-05-13T12:44:35Z</time>
      </trkpt>
      <trkpt lat="48.75512" lon="1.89016">
        <ele>144</ele>
        <time>2010-05-13T12:44:36Z</time>
      </trkpt>
      <trkpt lat="48.75515" lon="1.89013">
        <ele>145</ele>
        <time>2010-05-13T12:44:37Z</time>
      </trkpt>
      <trkpt lat="48.75518" lon="1.89014">
        <ele>146</ele>
        <time>2010-05-13T12:44:40Z</time>
      </trkpt>
      <trkpt lat="48.75519" lon="1.89014">
        <ele>147</ele>
        <time>2010-05-13T12:44:41Z</time>
      </trkpt>
      <trkpt lat="48.75522" lon="1.89014">
        <ele>148</ele>
        <time>2010-05-13T12:44:42Z</time>
      </trkpt>
      <trkpt lat="48.75524" lon="1.89015">
        <ele>149</ele>
        <time>2010-05-13T12:44:43Z</time>
      </trkpt>
      <trkpt lat="48.75527" lon="1.89015">
        <ele>149</ele>
        <time>2010-05-13T12:44:44Z</time>
      </trkpt>
      <trkpt lat="48.75529" lon="1.89015">
        <ele>149</ele>
        <time>2010-05-13T12:44:45Z</time>
      </trkpt>
      <trkpt lat="48.7553" lon="1.89014">
        <ele>149</ele>
        <time>2010-05-13T12:44:46Z</time>
      </trkpt>
      <trkpt lat="48.75532" lon="1.89013">
        <ele>149</ele>
        <time>2010-05-13T12:44:47Z</time>
      </trkpt>
      <trkpt lat="48.75535" lon="1.89013">
        <ele>149</ele>
        <time>2010-05-13T12:44:48Z</time>
      </trkpt>
      <trkpt lat="48.75537" lon="1.89013">
        <ele>149</ele>
        <time>2010-05-13T12:44:49Z</time>
      </trkpt>
      <trkpt lat="48.75539" lon="1.89012">
        <ele>149</ele>
        <time>2010-05-13T12:44:50Z</time>
      </trkpt>
      <trkpt lat="48.75541" lon="1.89011">
        <ele>149</ele>
        <time>2010-05-13T12:44:51Z</time>
      </trkpt>
      <trkpt lat="48.75543" lon="1.89009">
        <ele>149</ele>
        <time>2010-05-13T12:44:52Z</time>
      </trkpt>
      <trkpt lat="48.75545" lon="1.89007">
        <ele>149</ele>
        <time>2010-05-13T12:44:53Z</time>
      </trkpt>
      <trkpt lat="48.75546" lon="1.89006">
        <ele>148</ele>
        <time>2010-05-13T12:44:54Z</time>
      </trkpt>
      <trkpt lat="48.75548" lon="1.89005">
        <ele>148</ele>
        <time>2010-05-13T12:44:55Z</time>
      </trkpt>
      <trkpt lat="48.75549" lon="1.89002">
        <ele>148</ele>
        <time>2010-05-13T12:44:56Z</time>
      </trkpt>
      <trkpt lat="48.75551" lon="1.89001">
        <ele>148</ele>
        <time>2010-05-13T12:44:59Z</time>
      </trkpt>
      <trkpt lat="48.75553" lon="1.88999">
        <ele>148</ele>
        <time>2010-05-13T12:45:02Z</time>
      </trkpt>
      <trkpt lat="48.75554" lon="1.88995">
        <ele>148</ele>
        <time>2010-05-13T12:45:03Z</time>
      </trkpt>
      <trkpt lat="48.75558" lon="1.88992">
        <ele>148</ele>
        <time>2010-05-13T12:45:04Z</time>
      </trkpt>
      <trkpt lat="48.7556" lon="1.8899">
        <ele>148</ele>
        <time>2010-05-13T12:45:05Z</time>
      </trkpt>
      <trkpt lat="48.75561" lon="1.88989">
        <ele>148</ele>
        <time>2010-05-13T12:45:06Z</time>
      </trkpt>
      <trkpt lat="48.75562" lon="1.88985">
        <ele>147</ele>
        <time>2010-05-13T12:45:08Z</time>
      </trkpt>
      <trkpt lat="48.75563" lon="1.88982">
        <ele>147</ele>
        <time>2010-05-13T12:45:09Z</time>
      </trkpt>
      <trkpt lat="48.75565" lon="1.8898">
        <ele>146</ele>
        <time>2010-05-13T12:45:10Z</time>
      </trkpt>
      <trkpt lat="48.75566" lon="1.88978">
        <ele>146</ele>
        <time>2010-05-13T12:45:11Z</time>
      </trkpt>
      <trkpt lat="48.75568" lon="1.88976">
        <ele>146</ele>
        <time>2010-05-13T12:45:13Z</time>
      </trkpt>
      <trkpt lat="48.75569" lon="1.88975">
        <ele>146</ele>
        <time>2010-05-13T12:45:14Z</time>
      </trkpt>
      <trkpt lat="48.7557" lon="1.88974">
        <ele>145</ele>
        <time>2010-05-13T12:45:15Z</time>
      </trkpt>
      <trkpt lat="48.75572" lon="1.88972">
        <ele>145</ele>
        <time>2010-05-13T12:45:17Z</time>
      </trkpt>
      <trkpt lat="48.75573" lon="1.88971">
        <ele>145</ele>
        <time>2010-05-13T12:45:18Z</time>
      </trkpt>
      <trkpt lat="48.75575" lon="1.8897">
        <ele>145</ele>
        <time>2010-05-13T12:45:19Z</time>
      </trkpt>
      <trkpt lat="48.75577" lon="1.88969">
        <ele>145</ele>
        <time>2010-05-13T12:45:20Z</time>
      </trkpt>
      <trkpt lat="48.7558" lon="1.88968">
        <ele>145</ele>
        <time>2010-05-13T12:45:21Z</time>
      </trkpt>
      <trkpt lat="48.75582" lon="1.88966">
        <ele>145</ele>
        <time>2010-05-13T12:45:22Z</time>
      </trkpt>
      <trkpt lat="48.75583" lon="1.88965">
        <ele>145</ele>
        <time>2010-05-13T12:45:23Z</time>
      </trkpt>
      <trkpt lat="48.75585" lon="1.88964">
        <ele>146</ele>
        <time>2010-05-13T12:45:24Z</time>
      </trkpt>
      <trkpt lat="48.75587" lon="1.88963">
        <ele>146</ele>
        <time>2010-05-13T12:45:25Z</time>
      </trkpt>
      <trkpt lat="48.75588" lon="1.88963">
        <ele>147</ele>
        <time>2010-05-13T12:45:26Z</time>
      </trkpt>
      <trkpt lat="48.7559" lon="1.88961">
        <ele>147</ele>
        <time>2010-05-13T12:45:29Z</time>
      </trkpt>
      <trkpt lat="48.75591" lon="1.88961">
        <ele>147</ele>
        <time>2010-05-13T12:45:30Z</time>
      </trkpt>
      <trkpt lat="48.75593" lon="1.88962">
        <ele>147</ele>
        <time>2010-05-13T12:45:33Z</time>
      </trkpt>
      <trkpt lat="48.75594" lon="1.88962">
        <ele>147</ele>
        <time>2010-05-13T12:45:36Z</time>
      </trkpt>
      <trkpt lat="48.75597" lon="1.88961">
        <ele>147</ele>
        <time>2010-05-13T12:45:37Z</time>
      </trkpt>
      <trkpt lat="48.75599" lon="1.88962">
        <ele>147</ele>
        <time>2010-05-13T12:45:38Z</time>
      </trkpt>
      <trkpt lat="48.75602" lon="1.88963">
        <ele>147</ele>
        <time>2010-05-13T12:45:39Z</time>
      </trkpt>
      <trkpt lat="48.75604" lon="1.88962">
        <ele>147</ele>
        <time>2010-05-13T12:45:40Z</time>
      </trkpt>
      <trkpt lat="48.75606" lon="1.88962">
        <ele>147</ele>
        <time>2010-05-13T12:45:41Z</time>
      </trkpt>
      <trkpt lat="48.75607" lon="1.88962">
        <ele>147</ele>
        <time>2010-05-13T12:45:42Z</time>
      </trkpt>
      <trkpt lat="48.75609" lon="1.88961">
        <ele>147</ele>
        <time>2010-05-13T12:45:43Z</time>
      </trkpt>
      <trkpt lat="48.75611" lon="1.88961">
        <ele>147</ele>
        <time>2010-05-13T12:45:44Z</time>
      </trkpt>
      <trkpt lat="48.75612" lon="1.8896">
        <ele>146</ele>
        <time>2010-05-13T12:45:45Z</time>
      </trkpt>
      <trkpt lat="48.75614" lon="1.88959">
        <ele>146</ele>
        <time>2010-05-13T12:45:46Z</time>
      </trkpt>
      <trkpt lat="48.75617" lon="1.88958">
        <ele>146</ele>
        <time>2010-05-13T12:45:47Z</time>
      </trkpt>
      <trkpt lat="48.75618" lon="1.88958">
        <ele>146</ele>
        <time>2010-05-13T12:45:48Z</time>
      </trkpt>
      <trkpt lat="48.7562" lon="1.88957">
        <ele>146</ele>
        <time>2010-05-13T12:45:49Z</time>
      </trkpt>
      <trkpt lat="48.75622" lon="1.88955">
        <ele>146</ele>
        <time>2010-05-13T12:45:50Z</time>
      </trkpt>
      <trkpt lat="48.75624" lon="1.88955">
        <ele>146</ele>
        <time>2010-05-13T12:45:51Z</time>
      </trkpt>
      <trkpt lat="48.75626" lon="1.88953">
        <ele>146</ele>
        <time>2010-05-13T12:45:53Z</time>
      </trkpt>
      <trkpt lat="48.75628" lon="1.8895">
        <ele>146</ele>
        <time>2010-05-13T12:45:55Z</time>
      </trkpt>
      <trkpt lat="48.7563" lon="1.88949">
        <ele>146</ele>
        <time>2010-05-13T12:45:56Z</time>
      </trkpt>
      <trkpt lat="48.75631" lon="1.88949">
        <ele>146</ele>
        <time>2010-05-13T12:45:57Z</time>
      </trkpt>
      <trkpt lat="48.75633" lon="1.88948">
        <ele>146</ele>
        <time>2010-05-13T12:45:58Z</time>
      </trkpt>
      <trkpt lat="48.75635" lon="1.88947">
        <ele>146</ele>
        <time>2010-05-13T12:45:59Z</time>
      </trkpt>
      <trkpt lat="48.75637" lon="1.88946">
        <ele>146</ele>
        <time>2010-05-13T12:46:00Z</time>
      </trkpt>
      <trkpt lat="48.75639" lon="1.88944">
        <ele>146</ele>
        <time>2010-05-13T12:46:01Z</time>
      </trkpt>
      <trkpt lat="48.75641" lon="1.88942">
        <ele>146</ele>
        <time>2010-05-13T12:46:02Z</time>
      </trkpt>
      <trkpt lat="48.75642" lon="1.8894">
        <ele>146</ele>
        <time>2010-05-13T12:46:03Z</time>
      </trkpt>
      <trkpt lat="48.75644" lon="1.88939">
        <ele>146</ele>
        <time>2010-05-13T12:46:04Z</time>
      </trkpt>
      <trkpt lat="48.75645" lon="1.88937">
        <ele>146</ele>
        <time>2010-05-13T12:46:07Z</time>
      </trkpt>
      <trkpt lat="48.75646" lon="1.88934">
        <ele>146</ele>
        <time>2010-05-13T12:46:11Z</time>
      </trkpt>
      <trkpt lat="48.75648" lon="1.88934">
        <ele>145</ele>
        <time>2010-05-13T12:46:12Z</time>
      </trkpt>
      <trkpt lat="48.75649" lon="1.88931">
        <ele>144</ele>
        <time>2010-05-13T12:46:13Z</time>
      </trkpt>
      <trkpt lat="48.75651" lon="1.8893">
        <ele>143</ele>
        <time>2010-05-13T12:46:14Z</time>
      </trkpt>
      <trkpt lat="48.75652" lon="1.88929">
        <ele>141</ele>
        <time>2010-05-13T12:46:15Z</time>
      </trkpt>
      <trkpt lat="48.75653" lon="1.88927">
        <ele>136</ele>
        <time>2010-05-13T12:46:18Z</time>
      </trkpt>
      <trkpt lat="48.75653" lon="1.88925">
        <ele>135</ele>
        <time>2010-05-13T12:46:19Z</time>
      </trkpt>
      <trkpt lat="48.75654" lon="1.88922">
        <ele>134</ele>
        <time>2010-05-13T12:46:20Z</time>
      </trkpt>
      <trkpt lat="48.75654" lon="1.8892">
        <ele>133</ele>
        <time>2010-05-13T12:46:21Z</time>
      </trkpt>
      <trkpt lat="48.75655" lon="1.88918">
        <ele>132</ele>
        <time>2010-05-13T12:46:22Z</time>
      </trkpt>
      <trkpt lat="48.75656" lon="1.88916">
        <ele>130</ele>
        <time>2010-05-13T12:46:24Z</time>
      </trkpt>
      <trkpt lat="48.75656" lon="1.88914">
        <ele>129</ele>
        <time>2010-05-13T12:46:25Z</time>
      </trkpt>
      <trkpt lat="48.75657" lon="1.88911">
        <ele>127</ele>
        <time>2010-05-13T12:46:27Z</time>
      </trkpt>
      <trkpt lat="48.75658" lon="1.88908">
        <ele>125</ele>
        <time>2010-05-13T12:46:29Z</time>
      </trkpt>
      <trkpt lat="48.75658" lon="1.88906">
        <ele>124</ele>
        <time>2010-05-13T12:46:30Z</time>
      </trkpt>
      <trkpt lat="48.75658" lon="1.88903">
        <ele>124</ele>
        <time>2010-05-13T12:46:31Z</time>
      </trkpt>
      <trkpt lat="48.75659" lon="1.889">
        <ele>124</ele>
        <time>2010-05-13T12:46:32Z</time>
      </trkpt>
      <trkpt lat="48.75658" lon="1.88898">
        <ele>124</ele>
        <time>2010-05-13T12:46:33Z</time>
      </trkpt>
      <trkpt lat="48.75659" lon="1.88895">
        <ele>124</ele>
        <time>2010-05-13T12:46:34Z</time>
      </trkpt>
      <trkpt lat="48.7566" lon="1.88892">
        <ele>124</ele>
        <time>2010-05-13T12:46:35Z</time>
      </trkpt>
      <trkpt lat="48.75661" lon="1.8889">
        <ele>124</ele>
        <time>2010-05-13T12:46:36Z</time>
      </trkpt>
      <trkpt lat="48.75661" lon="1.88888">
        <ele>124</ele>
        <time>2010-05-13T12:46:37Z</time>
      </trkpt>
      <trkpt lat="48.75663" lon="1.88886">
        <ele>124</ele>
        <time>2010-05-13T12:46:38Z</time>
      </trkpt>
      <trkpt lat="48.75664" lon="1.88884">
        <ele>124</ele>
        <time>2010-05-13T12:46:39Z</time>
      </trkpt>
      <trkpt lat="48.75665" lon="1.88883">
        <ele>124</ele>
        <time>2010-05-13T12:46:41Z</time>
      </trkpt>
      <trkpt lat="48.75667" lon="1.88881">
        <ele>125</ele>
        <time>2010-05-13T12:46:46Z</time>
      </trkpt>
      <trkpt lat="48.75665" lon="1.8888">
        <ele>125</ele>
        <time>2010-05-13T12:46:48Z</time>
      </trkpt>
      <trkpt lat="48.75664" lon="1.88879">
        <ele>125</ele>
        <time>2010-05-13T12:46:50Z</time>
      </trkpt>
      <trkpt lat="48.75664" lon="1.88878">
        <ele>123</ele>
        <time>2010-05-13T12:46:52Z</time>
      </trkpt>
      <trkpt lat="48.75662" lon="1.88877">
        <ele>116</ele>
        <time>2010-05-13T12:46:59Z</time>
      </trkpt>
      <trkpt lat="48.75661" lon="1.88875">
        <ele>114</ele>
        <time>2010-05-13T12:47:05Z</time>
      </trkpt>
      <trkpt lat="48.75662" lon="1.88876">
        <ele>113</ele>
        <time>2010-05-13T12:47:08Z</time>
      </trkpt>
      <trkpt lat="48.75664" lon="1.88876">
        <ele>113</ele>
        <time>2010-05-13T12:47:11Z</time>
      </trkpt>
      <trkpt lat="48.75662" lon="1.88874">
        <ele>113</ele>
        <time>2010-05-13T12:47:20Z</time>
      </trkpt>
      <trkpt lat="48.75661" lon="1.88872">
        <ele>113</ele>
        <time>2010-05-13T12:47:22Z</time>
      </trkpt>
      <trkpt lat="48.75661" lon="1.8887">
        <ele>113</ele>
        <time>2010-05-13T12:47:24Z</time>
      </trkpt>
      <trkpt lat="48.75663" lon="1.88868">
        <ele>113</ele>
        <time>2010-05-13T12:47:27Z</time>
      </trkpt>
      <trkpt lat="48.75665" lon="1.88867">
        <ele>114</ele>
        <time>2010-05-13T12:47:29Z</time>
      </trkpt>
      <trkpt lat="48.75665" lon="1.88865">
        <ele>118</ele>
        <time>2010-05-13T12:47:33Z</time>
      </trkpt>
      <trkpt lat="48.75666" lon="1.88863">
        <ele>120</ele>
        <time>2010-05-13T12:47:35Z</time>
      </trkpt>
      <trkpt lat="48.75667" lon="1.88861">
        <ele>122</ele>
        <time>2010-05-13T12:47:37Z</time>
      </trkpt>
      <trkpt lat="48.75666" lon="1.88859">
        <ele>125</ele>
        <time>2010-05-13T12:47:40Z</time>
      </trkpt>
      <trkpt lat="48.75665" lon="1.88856">
        <ele>125</ele>
        <time>2010-05-13T12:47:42Z</time>
      </trkpt>
      <trkpt lat="48.75664" lon="1.88854">
        <ele>125</ele>
        <time>2010-05-13T12:47:43Z</time>
      </trkpt>
      <trkpt lat="48.75664" lon="1.88851">
        <ele>126</ele>
        <time>2010-05-13T12:47:44Z</time>
      </trkpt>
      <trkpt lat="48.75663" lon="1.88849">
        <ele>127</ele>
        <time>2010-05-13T12:47:47Z</time>
      </trkpt>
      <trkpt lat="48.75661" lon="1.88849">
        <ele>128</ele>
        <time>2010-05-13T12:47:49Z</time>
      </trkpt>
      <trkpt lat="48.7566" lon="1.88847">
        <ele>128</ele>
        <time>2010-05-13T12:47:52Z</time>
      </trkpt>
      <trkpt lat="48.75658" lon="1.88845">
        <ele>128</ele>
        <time>2010-05-13T12:47:54Z</time>
      </trkpt>
      <trkpt lat="48.75656" lon="1.88843">
        <ele>128</ele>
        <time>2010-05-13T12:47:56Z</time>
      </trkpt>
      <trkpt lat="48.75655" lon="1.88842">
        <ele>128</ele>
        <time>2010-05-13T12:47:57Z</time>
      </trkpt>
      <trkpt lat="48.75654" lon="1.88841">
        <ele>128</ele>
        <time>2010-05-13T12:47:59Z</time>
      </trkpt>
      <trkpt lat="48.75652" lon="1.8884">
        <ele>128</ele>
        <time>2010-05-13T12:48:01Z</time>
      </trkpt>
      <trkpt lat="48.7565" lon="1.88838">
        <ele>128</ele>
        <time>2010-05-13T12:48:03Z</time>
      </trkpt>
      <trkpt lat="48.75649" lon="1.88836">
        <ele>127</ele>
        <time>2010-05-13T12:48:06Z</time>
      </trkpt>
      <trkpt lat="48.75648" lon="1.88835">
        <ele>127</ele>
        <time>2010-05-13T12:48:08Z</time>
      </trkpt>
      <trkpt lat="48.75645" lon="1.88834">
        <ele>125</ele>
        <time>2010-05-13T12:48:10Z</time>
      </trkpt>
      <trkpt lat="48.75645" lon="1.88831">
        <ele>125</ele>
        <time>2010-05-13T12:48:12Z</time>
      </trkpt>
      <trkpt lat="48.75645" lon="1.88829">
        <ele>124</ele>
        <time>2010-05-13T12:48:14Z</time>
      </trkpt>
      <trkpt lat="48.75645" lon="1.88827">
        <ele>124</ele>
        <time>2010-05-13T12:48:16Z</time>
      </trkpt>
      <trkpt lat="48.75646" lon="1.88825">
        <ele>124</ele>
        <time>2010-05-13T12:48:18Z</time>
      </trkpt>
      <trkpt lat="48.75646" lon="1.88824">
        <ele>124</ele>
        <time>2010-05-13T12:48:20Z</time>
      </trkpt>
      <trkpt lat="48.75645" lon="1.88822">
        <ele>124</ele>
        <time>2010-05-13T12:48:22Z</time>
      </trkpt>
      <trkpt lat="48.75645" lon="1.88818">
        <ele>124</ele>
        <time>2010-05-13T12:48:25Z</time>
      </trkpt>
      <trkpt lat="48.75644" lon="1.88816">
        <ele>124</ele>
        <time>2010-05-13T12:48:27Z</time>
      </trkpt>
      <trkpt lat="48.75643" lon="1.88814">
        <ele>124</ele>
        <time>2010-05-13T12:48:29Z</time>
      </trkpt>
      <trkpt lat="48.75643" lon="1.88812">
        <ele>124</ele>
        <time>2010-05-13T12:48:31Z</time>
      </trkpt>
      <trkpt lat="48.75642" lon="1.88809">
        <ele>124</ele>
        <time>2010-05-13T12:48:34Z</time>
      </trkpt>
      <trkpt lat="48.75643" lon="1.88806">
        <ele>124</ele>
        <time>2010-05-13T12:48:35Z</time>
      </trkpt>
      <trkpt lat="48.75644" lon="1.88804">
        <ele>124</ele>
        <time>2010-05-13T12:48:36Z</time>
      </trkpt>
      <trkpt lat="48.75644" lon="1.88802">
        <ele>124</ele>
        <time>2010-05-13T12:48:37Z</time>
      </trkpt>
      <trkpt lat="48.75643" lon="1.88796">
        <ele>124</ele>
        <time>2010-05-13T12:48:39Z</time>
      </trkpt>
      <trkpt lat="48.75643" lon="1.88793">
        <ele>124</ele>
        <time>2010-05-13T12:48:40Z</time>
      </trkpt>
      <trkpt lat="48.7564" lon="1.8879">
        <ele>124</ele>
        <time>2010-05-13T12:48:41Z</time>
      </trkpt>
      <trkpt lat="48.75638" lon="1.88785">
        <ele>124</ele>
        <time>2010-05-13T12:48:42Z</time>
      </trkpt>
      <trkpt lat="48.75637" lon="1.88782">
        <ele>124</ele>
        <time>2010-05-13T12:48:43Z</time>
      </trkpt>
      <trkpt lat="48.75635" lon="1.8878">
        <ele>124</ele>
        <time>2010-05-13T12:48:44Z</time>
      </trkpt>
      <trkpt lat="48.75634" lon="1.88777">
        <ele>124</ele>
        <time>2010-05-13T12:48:45Z</time>
      </trkpt>
      <trkpt lat="48.75634" lon="1.88773">
        <ele>124</ele>
        <time>2010-05-13T12:48:46Z</time>
      </trkpt>
      <trkpt lat="48.75635" lon="1.8877">
        <ele>124</ele>
        <time>2010-05-13T12:48:47Z</time>
      </trkpt>
      <trkpt lat="48.75635" lon="1.88766">
        <ele>124</ele>
        <time>2010-05-13T12:48:48Z</time>
      </trkpt>
      <trkpt lat="48.75635" lon="1.88764">
        <ele>124</ele>
        <time>2010-05-13T12:48:49Z</time>
      </trkpt>
      <trkpt lat="48.75635" lon="1.8876">
        <ele>124</ele>
        <time>2010-05-13T12:48:50Z</time>
      </trkpt>
      <trkpt lat="48.75635" lon="1.88757">
        <ele>124</ele>
        <time>2010-05-13T12:48:51Z</time>
      </trkpt>
      <trkpt lat="48.75634" lon="1.88753">
        <ele>124</ele>
        <time>2010-05-13T12:48:52Z</time>
      </trkpt>
      <trkpt lat="48.75635" lon="1.88751">
        <ele>124</ele>
        <time>2010-05-13T12:48:53Z</time>
      </trkpt>
      <trkpt lat="48.75635" lon="1.88749">
        <ele>124</ele>
        <time>2010-05-13T12:48:54Z</time>
      </trkpt>
      <trkpt lat="48.75635" lon="1.88747">
        <ele>124</ele>
        <time>2010-05-13T12:48:55Z</time>
      </trkpt>
      <trkpt lat="48.75635" lon="1.88745">
        <ele>124</ele>
        <time>2010-05-13T12:48:57Z</time>
      </trkpt>
      <trkpt lat="48.75636" lon="1.88742">
        <ele>124</ele>
        <time>2010-05-13T12:48:58Z</time>
      </trkpt>
      <trkpt lat="48.75636" lon="1.8874">
        <ele>125</ele>
        <time>2010-05-13T12:48:59Z</time>
      </trkpt>
      <trkpt lat="48.75636" lon="1.88738">
        <ele>125</ele>
        <time>2010-05-13T12:49:00Z</time>
      </trkpt>
      <trkpt lat="48.75635" lon="1.88733">
        <ele>126</ele>
        <time>2010-05-13T12:49:01Z</time>
      </trkpt>
      <trkpt lat="48.75635" lon="1.88728">
        <ele>126</ele>
        <time>2010-05-13T12:49:02Z</time>
      </trkpt>
      <trkpt lat="48.75635" lon="1.88724">
        <ele>126</ele>
        <time>2010-05-13T12:49:04Z</time>
      </trkpt>
      <trkpt lat="48.75635" lon="1.88719">
        <ele>126</ele>
        <time>2010-05-13T12:49:05Z</time>
      </trkpt>
      <trkpt lat="48.75635" lon="1.88716">
        <ele>127</ele>
        <time>2010-05-13T12:49:06Z</time>
      </trkpt>
      <trkpt lat="48.75637" lon="1.88714">
        <ele>127</ele>
        <time>2010-05-13T12:49:07Z</time>
      </trkpt>
      <trkpt lat="48.75637" lon="1.88712">
        <ele>128</ele>
        <time>2010-05-13T12:49:08Z</time>
      </trkpt>
      <trkpt lat="48.75638" lon="1.88709">
        <ele>130</ele>
        <time>2010-05-13T12:49:10Z</time>
      </trkpt>
      <trkpt lat="48.75639" lon="1.88706">
        <ele>131</ele>
        <time>2010-05-13T12:49:12Z</time>
      </trkpt>
      <trkpt lat="48.75641" lon="1.88704">
        <ele>133</ele>
        <time>2010-05-13T12:49:14Z</time>
      </trkpt>
      <trkpt lat="48.75641" lon="1.88701">
        <ele>133</ele>
        <time>2010-05-13T12:49:15Z</time>
      </trkpt>
      <trkpt lat="48.75641" lon="1.88699">
        <ele>134</ele>
        <time>2010-05-13T12:49:16Z</time>
      </trkpt>
      <trkpt lat="48.7564" lon="1.88694">
        <ele>134</ele>
        <time>2010-05-13T12:49:17Z</time>
      </trkpt>
      <trkpt lat="48.75639" lon="1.88691">
        <ele>134</ele>
        <time>2010-05-13T12:49:18Z</time>
      </trkpt>
      <trkpt lat="48.75639" lon="1.88687">
        <ele>134</ele>
        <time>2010-05-13T12:49:19Z</time>
      </trkpt>
      <trkpt lat="48.7564" lon="1.88685">
        <ele>135</ele>
        <time>2010-05-13T12:49:20Z</time>
      </trkpt>
      <trkpt lat="48.7564" lon="1.88683">
        <ele>135</ele>
        <time>2010-05-13T12:49:21Z</time>
      </trkpt>
      <trkpt lat="48.75641" lon="1.88681">
        <ele>136</ele>
        <time>2010-05-13T12:49:22Z</time>
      </trkpt>
      <trkpt lat="48.75641" lon="1.88679">
        <ele>136</ele>
        <time>2010-05-13T12:49:23Z</time>
      </trkpt>
      <trkpt lat="48.75641" lon="1.88675">
        <ele>137</ele>
        <time>2010-05-13T12:49:24Z</time>
      </trkpt>
      <trkpt lat="48.7564" lon="1.88669">
        <ele>137</ele>
        <time>2010-05-13T12:49:25Z</time>
      </trkpt>
      <trkpt lat="48.7564" lon="1.88664">
        <ele>137</ele>
        <time>2010-05-13T12:49:26Z</time>
      </trkpt>
      <trkpt lat="48.7564" lon="1.8866">
        <ele>137</ele>
        <time>2010-05-13T12:49:27Z</time>
      </trkpt>
      <trkpt lat="48.75638" lon="1.88655">
        <ele>138</ele>
        <time>2010-05-13T12:49:28Z</time>
      </trkpt>
      <trkpt lat="48.75633" lon="1.88621">
        <ele>143</ele>
        <time>2010-05-13T12:49:39Z</time>
      </trkpt>
      <trkpt lat="48.75632" lon="1.88617">
        <ele>144</ele>
        <time>2010-05-13T12:49:40Z</time>
      </trkpt>
      <trkpt lat="48.75632" lon="1.88614">
        <ele>145</ele>
        <time>2010-05-13T12:49:41Z</time>
      </trkpt>
      <trkpt lat="48.75632" lon="1.88612">
        <ele>146</ele>
        <time>2010-05-13T12:49:42Z</time>
      </trkpt>
      <trkpt lat="48.75631" lon="1.88609">
        <ele>147</ele>
        <time>2010-05-13T12:49:43Z</time>
      </trkpt>
      <trkpt lat="48.75633" lon="1.88596">
        <ele>150</ele>
        <time>2010-05-13T12:49:49Z</time>
      </trkpt>
      <trkpt lat="48.75633" lon="1.88594">
        <ele>150</ele>
        <time>2010-05-13T12:49:50Z</time>
      </trkpt>
      <trkpt lat="48.75634" lon="1.88591">
        <ele>150</ele>
        <time>2010-05-13T12:49:53Z</time>
      </trkpt>
      <trkpt lat="48.75634" lon="1.88585">
        <ele>150</ele>
        <time>2010-05-13T12:49:54Z</time>
      </trkpt>
      <trkpt lat="48.75634" lon="1.88581">
        <ele>150</ele>
        <time>2010-05-13T12:49:55Z</time>
      </trkpt>
      <trkpt lat="48.75635" lon="1.88578">
        <ele>151</ele>
        <time>2010-05-13T12:49:56Z</time>
      </trkpt>
      <trkpt lat="48.75636" lon="1.88576">
        <ele>152</ele>
        <time>2010-05-13T12:49:59Z</time>
      </trkpt>
      <trkpt lat="48.75635" lon="1.88573">
        <ele>152</ele>
        <time>2010-05-13T12:50:01Z</time>
      </trkpt>
      <trkpt lat="48.75636" lon="1.8857">
        <ele>152</ele>
        <time>2010-05-13T12:50:04Z</time>
      </trkpt>
      <trkpt lat="48.75635" lon="1.88567">
        <ele>152</ele>
        <time>2010-05-13T12:50:05Z</time>
      </trkpt>
      <trkpt lat="48.75636" lon="1.88565">
        <ele>152</ele>
        <time>2010-05-13T12:50:06Z</time>
      </trkpt>
      <trkpt lat="48.75635" lon="1.88562">
        <ele>152</ele>
        <time>2010-05-13T12:50:08Z</time>
      </trkpt>
      <trkpt lat="48.75634" lon="1.88559">
        <ele>152</ele>
        <time>2010-05-13T12:50:10Z</time>
      </trkpt>
      <trkpt lat="48.75634" lon="1.88557">
        <ele>152</ele>
        <time>2010-05-13T12:50:11Z</time>
      </trkpt>
      <trkpt lat="48.75633" lon="1.88553">
        <ele>150</ele>
        <time>2010-05-13T12:50:13Z</time>
      </trkpt>
      <trkpt lat="48.75632" lon="1.88552">
        <ele>149</ele>
        <time>2010-05-13T12:50:14Z</time>
      </trkpt>
      <trkpt lat="48.75632" lon="1.8855">
        <ele>148</ele>
        <time>2010-05-13T12:50:15Z</time>
      </trkpt>
      <trkpt lat="48.75631" lon="1.88548">
        <ele>147</ele>
        <time>2010-05-13T12:50:16Z</time>
      </trkpt>
      <trkpt lat="48.75631" lon="1.88545">
        <ele>146</ele>
        <time>2010-05-13T12:50:18Z</time>
      </trkpt>
      <trkpt lat="48.7563" lon="1.88544">
        <ele>146</ele>
        <time>2010-05-13T12:50:20Z</time>
      </trkpt>
      <trkpt lat="48.75628" lon="1.88543">
        <ele>145</ele>
        <time>2010-05-13T12:50:21Z</time>
      </trkpt>
      <trkpt lat="48.75627" lon="1.88541">
        <ele>144</ele>
        <time>2010-05-13T12:50:23Z</time>
      </trkpt>
      <trkpt lat="48.75627" lon="1.88537">
        <ele>144</ele>
        <time>2010-05-13T12:50:26Z</time>
      </trkpt>
      <trkpt lat="48.75627" lon="1.88534">
        <ele>144</ele>
        <time>2010-05-13T12:50:28Z</time>
      </trkpt>
      <trkpt lat="48.75626" lon="1.8853">
        <ele>144</ele>
        <time>2010-05-13T12:50:31Z</time>
      </trkpt>
      <trkpt lat="48.75626" lon="1.88528">
        <ele>144</ele>
        <time>2010-05-13T12:50:34Z</time>
      </trkpt>
      <trkpt lat="48.75624" lon="1.88525">
        <ele>144</ele>
        <time>2010-05-13T12:50:37Z</time>
      </trkpt>
      <trkpt lat="48.75621" lon="1.88524">
        <ele>144</ele>
        <time>2010-05-13T12:50:39Z</time>
      </trkpt>
      <trkpt lat="48.7562" lon="1.88523">
        <ele>144</ele>
        <time>2010-05-13T12:50:40Z</time>
      </trkpt>
      <trkpt lat="48.75618" lon="1.88522">
        <ele>144</ele>
        <time>2010-05-13T12:50:41Z</time>
      </trkpt>
      <trkpt lat="48.75617" lon="1.88521">
        <ele>142</ele>
        <time>2010-05-13T12:50:43Z</time>
      </trkpt>
      <trkpt lat="48.75616" lon="1.8852">
        <ele>140</ele>
        <time>2010-05-13T12:50:45Z</time>
      </trkpt>
      <trkpt lat="48.75615" lon="1.88518">
        <ele>139</ele>
        <time>2010-05-13T12:50:47Z</time>
      </trkpt>
      <trkpt lat="48.75613" lon="1.88517">
        <ele>138</ele>
        <time>2010-05-13T12:50:48Z</time>
      </trkpt>
      <trkpt lat="48.75612" lon="1.88517">
        <ele>137</ele>
        <time>2010-05-13T12:50:49Z</time>
      </trkpt>
      <trkpt lat="48.75611" lon="1.88516">
        <ele>134</ele>
        <time>2010-05-13T12:50:52Z</time>
      </trkpt>
      <trkpt lat="48.7561" lon="1.88514">
        <ele>134</ele>
        <time>2010-05-13T12:50:54Z</time>
      </trkpt>
      <trkpt lat="48.75609" lon="1.88512">
        <ele>133</ele>
        <time>2010-05-13T12:50:56Z</time>
      </trkpt>
      <trkpt lat="48.75608" lon="1.88511">
        <ele>133</ele>
        <time>2010-05-13T12:50:57Z</time>
      </trkpt>
      <trkpt lat="48.75607" lon="1.88509">
        <ele>132</ele>
        <time>2010-05-13T12:50:58Z</time>
      </trkpt>
      <trkpt lat="48.75606" lon="1.88507">
        <ele>131</ele>
        <time>2010-05-13T12:50:59Z</time>
      </trkpt>
      <trkpt lat="48.75606" lon="1.88505">
        <ele>130</ele>
        <time>2010-05-13T12:51:00Z</time>
      </trkpt>
      <trkpt lat="48.75605" lon="1.88503">
        <ele>130</ele>
        <time>2010-05-13T12:51:01Z</time>
      </trkpt>
      <trkpt lat="48.75604" lon="1.88501">
        <ele>130</ele>
        <time>2010-05-13T12:51:03Z</time>
      </trkpt>
      <trkpt lat="48.75605" lon="1.88499">
        <ele>130</ele>
        <time>2010-05-13T12:51:04Z</time>
      </trkpt>
      <trkpt lat="48.75605" lon="1.88497">
        <ele>130</ele>
        <time>2010-05-13T12:51:05Z</time>
      </trkpt>
      <trkpt lat="48.75604" lon="1.88495">
        <ele>130</ele>
        <time>2010-05-13T12:51:06Z</time>
      </trkpt>
      <trkpt lat="48.75605" lon="1.88492">
        <ele>130</ele>
        <time>2010-05-13T12:51:08Z</time>
      </trkpt>
      <trkpt lat="48.75605" lon="1.8849">
        <ele>130</ele>
        <time>2010-05-13T12:51:09Z</time>
      </trkpt>
      <trkpt lat="48.75606" lon="1.88488">
        <ele>130</ele>
        <time>2010-05-13T12:51:10Z</time>
      </trkpt>
      <trkpt lat="48.75606" lon="1.88486">
        <ele>130</ele>
        <time>2010-05-13T12:51:11Z</time>
      </trkpt>
      <trkpt lat="48.75606" lon="1.88484">
        <ele>130</ele>
        <time>2010-05-13T12:51:12Z</time>
      </trkpt>
      <trkpt lat="48.75606" lon="1.88482">
        <ele>130</ele>
        <time>2010-05-13T12:51:13Z</time>
      </trkpt>
      <trkpt lat="48.75606" lon="1.88479">
        <ele>130</ele>
        <time>2010-05-13T12:51:14Z</time>
      </trkpt>
      <trkpt lat="48.75606" lon="1.88477">
        <ele>130</ele>
        <time>2010-05-13T12:51:15Z</time>
      </trkpt>
      <trkpt lat="48.75605" lon="1.88475">
        <ele>130</ele>
        <time>2010-05-13T12:51:16Z</time>
      </trkpt>
      <trkpt lat="48.75605" lon="1.88473">
        <ele>130</ele>
        <time>2010-05-13T12:51:17Z</time>
      </trkpt>
      <trkpt lat="48.75604" lon="1.88468">
        <ele>131</ele>
        <time>2010-05-13T12:51:19Z</time>
      </trkpt>
      <trkpt lat="48.75604" lon="1.88462">
        <ele>131</ele>
        <time>2010-05-13T12:51:22Z</time>
      </trkpt>
      <trkpt lat="48.75605" lon="1.88458">
        <ele>131</ele>
        <time>2010-05-13T12:51:23Z</time>
      </trkpt>
      <trkpt lat="48.75604" lon="1.88449">
        <ele>131</ele>
        <time>2010-05-13T12:51:25Z</time>
      </trkpt>
      <trkpt lat="48.75606" lon="1.88444">
        <ele>131</ele>
        <time>2010-05-13T12:51:26Z</time>
      </trkpt>
      <trkpt lat="48.75605" lon="1.88442">
        <ele>132</ele>
        <time>2010-05-13T12:51:27Z</time>
      </trkpt>
      <trkpt lat="48.75604" lon="1.8844">
        <ele>133</ele>
        <time>2010-05-13T12:51:28Z</time>
      </trkpt>
      <trkpt lat="48.75606" lon="1.88435">
        <ele>134</ele>
        <time>2010-05-13T12:51:29Z</time>
      </trkpt>
      <trkpt lat="48.75607" lon="1.8843">
        <ele>135</ele>
        <time>2010-05-13T12:51:30Z</time>
      </trkpt>
      <trkpt lat="48.75608" lon="1.88428">
        <ele>136</ele>
        <time>2010-05-13T12:51:31Z</time>
      </trkpt>
      <trkpt lat="48.75607" lon="1.88425">
        <ele>137</ele>
        <time>2010-05-13T12:51:32Z</time>
      </trkpt>
      <trkpt lat="48.75607" lon="1.88422">
        <ele>138</ele>
        <time>2010-05-13T12:51:33Z</time>
      </trkpt>
      <trkpt lat="48.75607" lon="1.88418">
        <ele>139</ele>
        <time>2010-05-13T12:51:34Z</time>
      </trkpt>
      <trkpt lat="48.75607" lon="1.88415">
        <ele>140</ele>
        <time>2010-05-13T12:51:35Z</time>
      </trkpt>
      <trkpt lat="48.75607" lon="1.88412">
        <ele>140</ele>
        <time>2010-05-13T12:51:36Z</time>
      </trkpt>
      <trkpt lat="48.75607" lon="1.8841">
        <ele>140</ele>
        <time>2010-05-13T12:51:37Z</time>
      </trkpt>
      <trkpt lat="48.75607" lon="1.88408">
        <ele>141</ele>
        <time>2010-05-13T12:51:38Z</time>
      </trkpt>
      <trkpt lat="48.75607" lon="1.88406">
        <ele>141</ele>
        <time>2010-05-13T12:51:39Z</time>
      </trkpt>
      <trkpt lat="48.75607" lon="1.88404">
        <ele>142</ele>
        <time>2010-05-13T12:51:40Z</time>
      </trkpt>
      <trkpt lat="48.75607" lon="1.88397">
        <ele>144</ele>
        <time>2010-05-13T12:51:42Z</time>
      </trkpt>
      <trkpt lat="48.75607" lon="1.88392">
        <ele>145</ele>
        <time>2010-05-13T12:51:43Z</time>
      </trkpt>
      <trkpt lat="48.75607" lon="1.88389">
        <ele>146</ele>
        <time>2010-05-13T12:51:44Z</time>
      </trkpt>
      <trkpt lat="48.75606" lon="1.88385">
        <ele>147</ele>
        <time>2010-05-13T12:51:45Z</time>
      </trkpt>
      <trkpt lat="48.75605" lon="1.88381">
        <ele>147</ele>
        <time>2010-05-13T12:51:46Z</time>
      </trkpt>
      <trkpt lat="48.75605" lon="1.88378">
        <ele>148</ele>
        <time>2010-05-13T12:51:48Z</time>
      </trkpt>
      <trkpt lat="48.75605" lon="1.88376">
        <ele>149</ele>
        <time>2010-05-13T12:51:49Z</time>
      </trkpt>
      <trkpt lat="48.75604" lon="1.88374">
        <ele>149</ele>
        <time>2010-05-13T12:51:50Z</time>
      </trkpt>
      <trkpt lat="48.75604" lon="1.88372">
        <ele>149</ele>
        <time>2010-05-13T12:51:51Z</time>
      </trkpt>
      <trkpt lat="48.75604" lon="1.88369">
        <ele>149</ele>
        <time>2010-05-13T12:51:52Z</time>
      </trkpt>
      <trkpt lat="48.75604" lon="1.88366">
        <ele>149</ele>
        <time>2010-05-13T12:51:53Z</time>
      </trkpt>
      <trkpt lat="48.75605" lon="1.88364">
        <ele>150</ele>
        <time>2010-05-13T12:51:54Z</time>
      </trkpt>
      <trkpt lat="48.75605" lon="1.8836">
        <ele>150</ele>
        <time>2010-05-13T12:51:55Z</time>
      </trkpt>
      <trkpt lat="48.75605" lon="1.88357">
        <ele>151</ele>
        <time>2010-05-13T12:51:56Z</time>
      </trkpt>
      <trkpt lat="48.75604" lon="1.88354">
        <ele>152</ele>
        <time>2010-05-13T12:51:57Z</time>
      </trkpt>
      <trkpt lat="48.75603" lon="1.8835">
        <ele>153</ele>
        <time>2010-05-13T12:51:58Z</time>
      </trkpt>
      <trkpt lat="48.75602" lon="1.88348">
        <ele>154</ele>
        <time>2010-05-13T12:51:59Z</time>
      </trkpt>
      <trkpt lat="48.75602" lon="1.88346">
        <ele>155</ele>
        <time>2010-05-13T12:52:00Z</time>
      </trkpt>
      <trkpt lat="48.75603" lon="1.88344">
        <ele>156</ele>
        <time>2010-05-13T12:52:01Z</time>
      </trkpt>
      <trkpt lat="48.75604" lon="1.88342">
        <ele>158</ele>
        <time>2010-05-13T12:52:03Z</time>
      </trkpt>
      <trkpt lat="48.75605" lon="1.8834">
        <ele>159</ele>
        <time>2010-05-13T12:52:05Z</time>
      </trkpt>
      <trkpt lat="48.75608" lon="1.88338">
        <ele>159</ele>
        <time>2010-05-13T12:52:07Z</time>
      </trkpt>
      <trkpt lat="48.75608" lon="1.88337">
        <ele>159</ele>
        <time>2010-05-13T12:52:08Z</time>
      </trkpt>
      <trkpt lat="48.75608" lon="1.88335">
        <ele>159</ele>
        <time>2010-05-13T12:52:09Z</time>
      </trkpt>
      <trkpt lat="48.75609" lon="1.88333">
        <ele>159</ele>
        <time>2010-05-13T12:52:10Z</time>
      </trkpt>
      <trkpt lat="48.75609" lon="1.8833">
        <ele>159</ele>
        <time>2010-05-13T12:52:11Z</time>
      </trkpt>
      <trkpt lat="48.7561" lon="1.88328">
        <ele>159</ele>
        <time>2010-05-13T12:52:12Z</time>
      </trkpt>
      <trkpt lat="48.7561" lon="1.88325">
        <ele>160</ele>
        <time>2010-05-13T12:52:13Z</time>
      </trkpt>
      <trkpt lat="48.75611" lon="1.88323">
        <ele>160</ele>
        <time>2010-05-13T12:52:14Z</time>
      </trkpt>
      <trkpt lat="48.75611" lon="1.88322">
        <ele>160</ele>
        <time>2010-05-13T12:52:15Z</time>
      </trkpt>
      <trkpt lat="48.75612" lon="1.8832">
        <ele>160</ele>
        <time>2010-05-13T12:52:16Z</time>
      </trkpt>
      <trkpt lat="48.75612" lon="1.88318">
        <ele>160</ele>
        <time>2010-05-13T12:52:17Z</time>
      </trkpt>
      <trkpt lat="48.75613" lon="1.88316">
        <ele>160</ele>
        <time>2010-05-13T12:52:18Z</time>
      </trkpt>
      <trkpt lat="48.75614" lon="1.88314">
        <ele>160</ele>
        <time>2010-05-13T12:52:20Z</time>
      </trkpt>
      <trkpt lat="48.75615" lon="1.8831">
        <ele>160</ele>
        <time>2010-05-13T12:52:22Z</time>
      </trkpt>
      <trkpt lat="48.75617" lon="1.88309">
        <ele>160</ele>
        <time>2010-05-13T12:52:23Z</time>
      </trkpt>
      <trkpt lat="48.75618" lon="1.88308">
        <ele>160</ele>
        <time>2010-05-13T12:52:24Z</time>
      </trkpt>
      <trkpt lat="48.75619" lon="1.88307">
        <ele>160</ele>
        <time>2010-05-13T12:52:25Z</time>
      </trkpt>
      <trkpt lat="48.75622" lon="1.88306">
        <ele>160</ele>
        <time>2010-05-13T12:52:26Z</time>
      </trkpt>
      <trkpt lat="48.75624" lon="1.88305">
        <ele>160</ele>
        <time>2010-05-13T12:52:27Z</time>
      </trkpt>
      <trkpt lat="48.75625" lon="1.88304">
        <ele>161</ele>
        <time>2010-05-13T12:52:29Z</time>
      </trkpt>
      <trkpt lat="48.75627" lon="1.88303">
        <ele>162</ele>
        <time>2010-05-13T12:52:30Z</time>
      </trkpt>
      <trkpt lat="48.75628" lon="1.883">
        <ele>162</ele>
        <time>2010-05-13T12:52:32Z</time>
      </trkpt>
      <trkpt lat="48.75631" lon="1.88298">
        <ele>162</ele>
        <time>2010-05-13T12:52:34Z</time>
      </trkpt>
      <trkpt lat="48.75632" lon="1.88296">
        <ele>162</ele>
        <time>2010-05-13T12:52:35Z</time>
      </trkpt>
      <trkpt lat="48.75634" lon="1.88295">
        <ele>162</ele>
        <time>2010-05-13T12:52:36Z</time>
      </trkpt>
      <trkpt lat="48.75636" lon="1.88293">
        <ele>163</ele>
        <time>2010-05-13T12:52:37Z</time>
      </trkpt>
      <trkpt lat="48.75638" lon="1.88291">
        <ele>164</ele>
        <time>2010-05-13T12:52:39Z</time>
      </trkpt>
      <trkpt lat="48.7564" lon="1.8829">
        <ele>164</ele>
        <time>2010-05-13T12:52:40Z</time>
      </trkpt>
      <trkpt lat="48.75641" lon="1.88289">
        <ele>164</ele>
        <time>2010-05-13T12:52:41Z</time>
      </trkpt>
      <trkpt lat="48.75642" lon="1.88288">
        <ele>165</ele>
        <time>2010-05-13T12:52:42Z</time>
      </trkpt>
      <trkpt lat="48.75644" lon="1.88286">
        <ele>165</ele>
        <time>2010-05-13T12:52:44Z</time>
      </trkpt>
      <trkpt lat="48.75645" lon="1.88283">
        <ele>165</ele>
        <time>2010-05-13T12:52:46Z</time>
      </trkpt>
      <trkpt lat="48.75647" lon="1.88282">
        <ele>165</ele>
        <time>2010-05-13T12:52:47Z</time>
      </trkpt>
      <trkpt lat="48.75649" lon="1.8828">
        <ele>165</ele>
        <time>2010-05-13T12:52:48Z</time>
      </trkpt>
      <trkpt lat="48.75651" lon="1.88279">
        <ele>165</ele>
        <time>2010-05-13T12:52:49Z</time>
      </trkpt>
      <trkpt lat="48.75653" lon="1.88277">
        <ele>166</ele>
        <time>2010-05-13T12:52:51Z</time>
      </trkpt>
      <trkpt lat="48.75654" lon="1.88275">
        <ele>166</ele>
        <time>2010-05-13T12:52:53Z</time>
      </trkpt>
      <trkpt lat="48.75655" lon="1.88273">
        <ele>166</ele>
        <time>2010-05-13T12:52:55Z</time>
      </trkpt>
      <trkpt lat="48.75656" lon="1.8827">
        <ele>166</ele>
        <time>2010-05-13T12:52:57Z</time>
      </trkpt>
      <trkpt lat="48.75657" lon="1.88268">
        <ele>166</ele>
        <time>2010-05-13T12:52:59Z</time>
      </trkpt>
      <trkpt lat="48.75659" lon="1.88267">
        <ele>166</ele>
        <time>2010-05-13T12:53:00Z</time>
      </trkpt>
      <trkpt lat="48.75661" lon="1.88265">
        <ele>166</ele>
        <time>2010-05-13T12:53:02Z</time>
      </trkpt>
      <trkpt lat="48.75662" lon="1.88263">
        <ele>166</ele>
        <time>2010-05-13T12:53:04Z</time>
      </trkpt>
      <trkpt lat="48.75663" lon="1.88261">
        <ele>166</ele>
        <time>2010-05-13T12:53:06Z</time>
      </trkpt>
      <trkpt lat="48.75665" lon="1.88259">
        <ele>166</ele>
        <time>2010-05-13T12:53:08Z</time>
      </trkpt>
      <trkpt lat="48.75666" lon="1.88257">
        <ele>166</ele>
        <time>2010-05-13T12:53:10Z</time>
      </trkpt>
      <trkpt lat="48.7567" lon="1.88255">
        <ele>166</ele>
        <time>2010-05-13T12:53:15Z</time>
      </trkpt>
      <trkpt lat="48.75671" lon="1.88254">
        <ele>166</ele>
        <time>2010-05-13T12:53:16Z</time>
      </trkpt>
      <trkpt lat="48.75673" lon="1.88253">
        <ele>166</ele>
        <time>2010-05-13T12:53:17Z</time>
      </trkpt>
      <trkpt lat="48.75675" lon="1.88251">
        <ele>166</ele>
        <time>2010-05-13T12:53:18Z</time>
      </trkpt>
      <trkpt lat="48.75677" lon="1.88249">
        <ele>166</ele>
        <time>2010-05-13T12:53:19Z</time>
      </trkpt>
      <trkpt lat="48.75679" lon="1.88248">
        <ele>166</ele>
        <time>2010-05-13T12:53:20Z</time>
      </trkpt>
      <trkpt lat="48.75681" lon="1.88247">
        <ele>167</ele>
        <time>2010-05-13T12:53:21Z</time>
      </trkpt>
      <trkpt lat="48.75682" lon="1.88246">
        <ele>168</ele>
        <time>2010-05-13T12:53:22Z</time>
      </trkpt>
      <trkpt lat="48.75684" lon="1.88244">
        <ele>170</ele>
        <time>2010-05-13T12:53:24Z</time>
      </trkpt>
      <trkpt lat="48.75684" lon="1.88241">
        <ele>170</ele>
        <time>2010-05-13T12:53:26Z</time>
      </trkpt>
      <trkpt lat="48.75684" lon="1.88238">
        <ele>170</ele>
        <time>2010-05-13T12:53:28Z</time>
      </trkpt>
      <trkpt lat="48.75685" lon="1.88236">
        <ele>170</ele>
        <time>2010-05-13T12:53:30Z</time>
      </trkpt>
      <trkpt lat="48.75685" lon="1.88234">
        <ele>170</ele>
        <time>2010-05-13T12:53:31Z</time>
      </trkpt>
      <trkpt lat="48.75686" lon="1.88231">
        <ele>170</ele>
        <time>2010-05-13T12:53:33Z</time>
      </trkpt>
      <trkpt lat="48.75686" lon="1.88228">
        <ele>170</ele>
        <time>2010-05-13T12:53:34Z</time>
      </trkpt>
      <trkpt lat="48.75686" lon="1.88226">
        <ele>170</ele>
        <time>2010-05-13T12:53:35Z</time>
      </trkpt>
      <trkpt lat="48.75685" lon="1.88224">
        <ele>170</ele>
        <time>2010-05-13T12:53:36Z</time>
      </trkpt>
      <trkpt lat="48.75685" lon="1.88221">
        <ele>170</ele>
        <time>2010-05-13T12:53:37Z</time>
      </trkpt>
      <trkpt lat="48.75686" lon="1.8822">
        <ele>170</ele>
        <time>2010-05-13T12:53:38Z</time>
      </trkpt>
      <trkpt lat="48.75685" lon="1.88218">
        <ele>170</ele>
        <time>2010-05-13T12:53:39Z</time>
      </trkpt>
      <trkpt lat="48.75685" lon="1.88216">
        <ele>170</ele>
        <time>2010-05-13T12:53:41Z</time>
      </trkpt>
      <trkpt lat="48.75684" lon="1.88213">
        <ele>170</ele>
        <time>2010-05-13T12:53:44Z</time>
      </trkpt>
      <trkpt lat="48.75683" lon="1.88212">
        <ele>170</ele>
        <time>2010-05-13T12:53:46Z</time>
      </trkpt>
      <trkpt lat="48.75682" lon="1.8821">
        <ele>169</ele>
        <time>2010-05-13T12:53:48Z</time>
      </trkpt>
      <trkpt lat="48.75681" lon="1.88208">
        <ele>167</ele>
        <time>2010-05-13T12:53:51Z</time>
      </trkpt>
      <trkpt lat="48.7568" lon="1.88206">
        <ele>166</ele>
        <time>2010-05-13T12:53:52Z</time>
      </trkpt>
      <trkpt lat="48.75679" lon="1.88203">
        <ele>165</ele>
        <time>2010-05-13T12:53:53Z</time>
      </trkpt>
      <trkpt lat="48.75678" lon="1.88202">
        <ele>165</ele>
        <time>2010-05-13T12:53:54Z</time>
      </trkpt>
      <trkpt lat="48.75676" lon="1.88199">
        <ele>164</ele>
        <time>2010-05-13T12:53:56Z</time>
      </trkpt>
      <trkpt lat="48.75674" lon="1.88195">
        <ele>164</ele>
        <time>2010-05-13T12:53:57Z</time>
      </trkpt>
      <trkpt lat="48.75673" lon="1.88193">
        <ele>164</ele>
        <time>2010-05-13T12:53:58Z</time>
      </trkpt>
      <trkpt lat="48.75672" lon="1.88191">
        <ele>164</ele>
        <time>2010-05-13T12:53:59Z</time>
      </trkpt>
      <trkpt lat="48.75671" lon="1.88189">
        <ele>164</ele>
        <time>2010-05-13T12:54:00Z</time>
      </trkpt>
      <trkpt lat="48.7567" lon="1.88187">
        <ele>164</ele>
        <time>2010-05-13T12:54:01Z</time>
      </trkpt>
      <trkpt lat="48.75668" lon="1.88185">
        <ele>164</ele>
        <time>2010-05-13T12:54:02Z</time>
      </trkpt>
      <trkpt lat="48.75667" lon="1.88183">
        <ele>163</ele>
        <time>2010-05-13T12:54:03Z</time>
      </trkpt>
      <trkpt lat="48.75667" lon="1.88181">
        <ele>162</ele>
        <time>2010-05-13T12:54:05Z</time>
      </trkpt>
      <trkpt lat="48.75665" lon="1.88179">
        <ele>159</ele>
        <time>2010-05-13T12:54:08Z</time>
      </trkpt>
      <trkpt lat="48.75664" lon="1.88177">
        <ele>159</ele>
        <time>2010-05-13T12:54:10Z</time>
      </trkpt>
      <trkpt lat="48.75663" lon="1.88175">
        <ele>158</ele>
        <time>2010-05-13T12:54:12Z</time>
      </trkpt>
      <trkpt lat="48.75662" lon="1.88174">
        <ele>157</ele>
        <time>2010-05-13T12:54:14Z</time>
      </trkpt>
      <trkpt lat="48.75661" lon="1.88173">
        <ele>157</ele>
        <time>2010-05-13T12:54:15Z</time>
      </trkpt>
      <trkpt lat="48.75659" lon="1.8817">
        <ele>157</ele>
        <time>2010-05-13T12:54:17Z</time>
      </trkpt>
      <trkpt lat="48.75658" lon="1.88168">
        <ele>157</ele>
        <time>2010-05-13T12:54:19Z</time>
      </trkpt>
      <trkpt lat="48.75657" lon="1.88167">
        <ele>156</ele>
        <time>2010-05-13T12:54:20Z</time>
      </trkpt>
      <trkpt lat="48.75655" lon="1.88166">
        <ele>156</ele>
        <time>2010-05-13T12:54:21Z</time>
      </trkpt>
      <trkpt lat="48.75654" lon="1.88166">
        <ele>156</ele>
        <time>2010-05-13T12:54:22Z</time>
      </trkpt>
      <trkpt lat="48.75652" lon="1.88165">
        <ele>156</ele>
        <time>2010-05-13T12:54:23Z</time>
      </trkpt>
      <trkpt lat="48.75651" lon="1.88164">
        <ele>156</ele>
        <time>2010-05-13T12:54:24Z</time>
      </trkpt>
      <trkpt lat="48.7565" lon="1.88164">
        <ele>156</ele>
        <time>2010-05-13T12:54:25Z</time>
      </trkpt>
      <trkpt lat="48.75648" lon="1.88164">
        <ele>156</ele>
        <time>2010-05-13T12:54:26Z</time>
      </trkpt>
      <trkpt lat="48.75646" lon="1.88163">
        <ele>156</ele>
        <time>2010-05-13T12:54:27Z</time>
      </trkpt>
      <trkpt lat="48.75645" lon="1.88163">
        <ele>156</ele>
        <time>2010-05-13T12:54:28Z</time>
      </trkpt>
      <trkpt lat="48.75644" lon="1.88162">
        <ele>156</ele>
        <time>2010-05-13T12:54:29Z</time>
      </trkpt>
      <trkpt lat="48.75643" lon="1.88162">
        <ele>156</ele>
        <time>2010-05-13T12:54:30Z</time>
      </trkpt>
      <trkpt lat="48.75641" lon="1.88162">
        <ele>156</ele>
        <time>2010-05-13T12:54:31Z</time>
      </trkpt>
      <trkpt lat="48.7564" lon="1.88162">
        <ele>156</ele>
        <time>2010-05-13T12:54:32Z</time>
      </trkpt>
      <trkpt lat="48.75639" lon="1.88162">
        <ele>156</ele>
        <time>2010-05-13T12:54:33Z</time>
      </trkpt>
      <trkpt lat="48.75637" lon="1.88161">
        <ele>156</ele>
        <time>2010-05-13T12:54:34Z</time>
      </trkpt>
      <trkpt lat="48.75636" lon="1.88161">
        <ele>156</ele>
        <time>2010-05-13T12:54:35Z</time>
      </trkpt>
      <trkpt lat="48.75634" lon="1.8816">
        <ele>156</ele>
        <time>2010-05-13T12:54:36Z</time>
      </trkpt>
      <trkpt lat="48.75632" lon="1.88161">
        <ele>156</ele>
        <time>2010-05-13T12:54:37Z</time>
      </trkpt>
      <trkpt lat="48.75631" lon="1.8816">
        <ele>156</ele>
        <time>2010-05-13T12:54:38Z</time>
      </trkpt>
      <trkpt lat="48.75629" lon="1.8816">
        <ele>156</ele>
        <time>2010-05-13T12:54:39Z</time>
      </trkpt>
      <trkpt lat="48.75628" lon="1.88158">
        <ele>156</ele>
        <time>2010-05-13T12:54:40Z</time>
      </trkpt>
      <trkpt lat="48.75626" lon="1.88158">
        <ele>156</ele>
        <time>2010-05-13T12:54:41Z</time>
      </trkpt>
      <trkpt lat="48.75625" lon="1.88157">
        <ele>156</ele>
        <time>2010-05-13T12:54:42Z</time>
      </trkpt>
      <trkpt lat="48.75623" lon="1.88156">
        <ele>156</ele>
        <time>2010-05-13T12:54:43Z</time>
      </trkpt>
      <trkpt lat="48.75621" lon="1.88156">
        <ele>156</ele>
        <time>2010-05-13T12:54:44Z</time>
      </trkpt>
      <trkpt lat="48.7562" lon="1.88155">
        <ele>156</ele>
        <time>2010-05-13T12:54:45Z</time>
      </trkpt>
      <trkpt lat="48.75619" lon="1.88153">
        <ele>156</ele>
        <time>2010-05-13T12:54:46Z</time>
      </trkpt>
      <trkpt lat="48.75617" lon="1.88151">
        <ele>156</ele>
        <time>2010-05-13T12:54:48Z</time>
      </trkpt>
      <trkpt lat="48.75615" lon="1.88148">
        <ele>156</ele>
        <time>2010-05-13T12:54:50Z</time>
      </trkpt>
      <trkpt lat="48.75613" lon="1.88145">
        <ele>155</ele>
        <time>2010-05-13T12:54:52Z</time>
      </trkpt>
      <trkpt lat="48.75612" lon="1.88142">
        <ele>155</ele>
        <time>2010-05-13T12:54:54Z</time>
      </trkpt>
      <trkpt lat="48.7561" lon="1.88139">
        <ele>154</ele>
        <time>2010-05-13T12:54:56Z</time>
      </trkpt>
      <trkpt lat="48.7561" lon="1.88137">
        <ele>154</ele>
        <time>2010-05-13T12:54:57Z</time>
      </trkpt>
      <trkpt lat="48.75609" lon="1.88136">
        <ele>154</ele>
        <time>2010-05-13T12:54:58Z</time>
      </trkpt>
      <trkpt lat="48.75608" lon="1.88133">
        <ele>154</ele>
        <time>2010-05-13T12:54:59Z</time>
      </trkpt>
      <trkpt lat="48.75607" lon="1.88129">
        <ele>154</ele>
        <time>2010-05-13T12:55:00Z</time>
      </trkpt>
      <trkpt lat="48.75606" lon="1.88127">
        <ele>154</ele>
        <time>2010-05-13T12:55:01Z</time>
      </trkpt>
      <trkpt lat="48.75605" lon="1.88125">
        <ele>154</ele>
        <time>2010-05-13T12:55:02Z</time>
      </trkpt>
      <trkpt lat="48.75604" lon="1.88122">
        <ele>154</ele>
        <time>2010-05-13T12:55:03Z</time>
      </trkpt>
      <trkpt lat="48.75603" lon="1.88117">
        <ele>154</ele>
        <time>2010-05-13T12:55:04Z</time>
      </trkpt>
      <trkpt lat="48.75602" lon="1.88114">
        <ele>155</ele>
        <time>2010-05-13T12:55:05Z</time>
      </trkpt>
      <trkpt lat="48.75601" lon="1.88112">
        <ele>155</ele>
        <time>2010-05-13T12:55:06Z</time>
      </trkpt>
      <trkpt lat="48.756" lon="1.8811">
        <ele>156</ele>
        <time>2010-05-13T12:55:07Z</time>
      </trkpt>
      <trkpt lat="48.75599" lon="1.88108">
        <ele>156</ele>
        <time>2010-05-13T12:55:08Z</time>
      </trkpt>
      <trkpt lat="48.75598" lon="1.88105">
        <ele>158</ele>
        <time>2010-05-13T12:55:10Z</time>
      </trkpt>
      <trkpt lat="48.75597" lon="1.88103">
        <ele>160</ele>
        <time>2010-05-13T12:55:12Z</time>
      </trkpt>
      <trkpt lat="48.75596" lon="1.88101">
        <ele>161</ele>
        <time>2010-05-13T12:55:13Z</time>
      </trkpt>
      <trkpt lat="48.75596" lon="1.88099">
        <ele>162</ele>
        <time>2010-05-13T12:55:15Z</time>
      </trkpt>
      <trkpt lat="48.75595" lon="1.88097">
        <ele>162</ele>
        <time>2010-05-13T12:55:17Z</time>
      </trkpt>
      <trkpt lat="48.75594" lon="1.88093">
        <ele>162</ele>
        <time>2010-05-13T12:55:18Z</time>
      </trkpt>
      <trkpt lat="48.75594" lon="1.8809">
        <ele>162</ele>
        <time>2010-05-13T12:55:19Z</time>
      </trkpt>
      <trkpt lat="48.75592" lon="1.88086">
        <ele>162</ele>
        <time>2010-05-13T12:55:20Z</time>
      </trkpt>
      <trkpt lat="48.7559" lon="1.88082">
        <ele>162</ele>
        <time>2010-05-13T12:55:22Z</time>
      </trkpt>
      <trkpt lat="48.7559" lon="1.88079">
        <ele>162</ele>
        <time>2010-05-13T12:55:24Z</time>
      </trkpt>
      <trkpt lat="48.75589" lon="1.88077">
        <ele>162</ele>
        <time>2010-05-13T12:55:25Z</time>
      </trkpt>
      <trkpt lat="48.75589" lon="1.88075">
        <ele>162</ele>
        <time>2010-05-13T12:55:26Z</time>
      </trkpt>
      <trkpt lat="48.75589" lon="1.88073">
        <ele>163</ele>
        <time>2010-05-13T12:55:27Z</time>
      </trkpt>
      <trkpt lat="48.75588" lon="1.8807">
        <ele>163</ele>
        <time>2010-05-13T12:55:29Z</time>
      </trkpt>
      <trkpt lat="48.75588" lon="1.88068">
        <ele>163</ele>
        <time>2010-05-13T12:55:30Z</time>
      </trkpt>
      <trkpt lat="48.75589" lon="1.88067">
        <ele>163</ele>
        <time>2010-05-13T12:55:31Z</time>
      </trkpt>
      <trkpt lat="48.75588" lon="1.88064">
        <ele>163</ele>
        <time>2010-05-13T12:55:32Z</time>
      </trkpt>
      <trkpt lat="48.75588" lon="1.88061">
        <ele>163</ele>
        <time>2010-05-13T12:55:33Z</time>
      </trkpt>
      <trkpt lat="48.75588" lon="1.88058">
        <ele>163</ele>
        <time>2010-05-13T12:55:34Z</time>
      </trkpt>
      <trkpt lat="48.75588" lon="1.88056">
        <ele>164</ele>
        <time>2010-05-13T12:55:35Z</time>
      </trkpt>
      <trkpt lat="48.75588" lon="1.88053">
        <ele>165</ele>
        <time>2010-05-13T12:55:36Z</time>
      </trkpt>
      <trkpt lat="48.75587" lon="1.88051">
        <ele>165</ele>
        <time>2010-05-13T12:55:37Z</time>
      </trkpt>
      <trkpt lat="48.75587" lon="1.88049">
        <ele>165</ele>
        <time>2010-05-13T12:55:38Z</time>
      </trkpt>
      <trkpt lat="48.75586" lon="1.88046">
        <ele>165</ele>
        <time>2010-05-13T12:55:39Z</time>
      </trkpt>
      <trkpt lat="48.75585" lon="1.88044">
        <ele>165</ele>
        <time>2010-05-13T12:55:41Z</time>
      </trkpt>
      <trkpt lat="48.75584" lon="1.88041">
        <ele>165</ele>
        <time>2010-05-13T12:55:43Z</time>
      </trkpt>
      <trkpt lat="48.75582" lon="1.8804">
        <ele>164</ele>
        <time>2010-05-13T12:55:45Z</time>
      </trkpt>
      <trkpt lat="48.75581" lon="1.88039">
        <ele>162</ele>
        <time>2010-05-13T12:55:47Z</time>
      </trkpt>
      <trkpt lat="48.75579" lon="1.88037">
        <ele>160</ele>
        <time>2010-05-13T12:55:49Z</time>
      </trkpt>
      <trkpt lat="48.75578" lon="1.88036">
        <ele>160</ele>
        <time>2010-05-13T12:55:50Z</time>
      </trkpt>
      <trkpt lat="48.75577" lon="1.88034">
        <ele>159</ele>
        <time>2010-05-13T12:55:52Z</time>
      </trkpt>
      <trkpt lat="48.75577" lon="1.88032">
        <ele>158</ele>
        <time>2010-05-13T12:55:55Z</time>
      </trkpt>
      <trkpt lat="48.75577" lon="1.8803">
        <ele>158</ele>
        <time>2010-05-13T12:55:57Z</time>
      </trkpt>
      <trkpt lat="48.75576" lon="1.88028">
        <ele>158</ele>
        <time>2010-05-13T12:55:59Z</time>
      </trkpt>
      <trkpt lat="48.75576" lon="1.88026">
        <ele>158</ele>
        <time>2010-05-13T12:56:01Z</time>
      </trkpt>
      <trkpt lat="48.75575" lon="1.88024">
        <ele>158</ele>
        <time>2010-05-13T12:56:06Z</time>
      </trkpt>
      <trkpt lat="48.75575" lon="1.88026">
        <ele>158</ele>
        <time>2010-05-13T12:56:15Z</time>
      </trkpt>
      <trkpt lat="48.75577" lon="1.88027">
        <ele>158</ele>
        <time>2010-05-13T12:56:22Z</time>
      </trkpt>
      <trkpt lat="48.75577" lon="1.88031">
        <ele>158</ele>
        <time>2010-05-13T12:56:27Z</time>
      </trkpt>
      <trkpt lat="48.75577" lon="1.88033">
        <ele>157</ele>
        <time>2010-05-13T12:56:29Z</time>
      </trkpt>
      <trkpt lat="48.75578" lon="1.88035">
        <ele>155</ele>
        <time>2010-05-13T12:56:31Z</time>
      </trkpt>
      <trkpt lat="48.75579" lon="1.88033">
        <ele>151</ele>
        <time>2010-05-13T12:56:45Z</time>
      </trkpt>
      <trkpt lat="48.7558" lon="1.88031">
        <ele>151</ele>
        <time>2010-05-13T12:56:51Z</time>
      </trkpt>
      <trkpt lat="48.7558" lon="1.88029">
        <ele>151</ele>
        <time>2010-05-13T12:56:55Z</time>
      </trkpt>
      <trkpt lat="48.75579" lon="1.88028">
        <ele>151</ele>
        <time>2010-05-13T12:57:01Z</time>
      </trkpt>
      <trkpt lat="48.75581" lon="1.88028">
        <ele>151</ele>
        <time>2010-05-13T12:57:05Z</time>
      </trkpt>
      <trkpt lat="48.75582" lon="1.88028">
        <ele>149</ele>
        <time>2010-05-13T12:57:10Z</time>
      </trkpt>
      <trkpt lat="48.75581" lon="1.88028">
        <ele>147</ele>
        <time>2010-05-13T12:57:18Z</time>
      </trkpt>
      <trkpt lat="48.7558" lon="1.88028">
        <ele>143</ele>
        <time>2010-05-13T12:57:35Z</time>
      </trkpt>
      <trkpt lat="48.75579" lon="1.88026">
        <ele>143</ele>
        <time>2010-05-13T12:57:41Z</time>
      </trkpt>
      <trkpt lat="48.75578" lon="1.88024">
        <ele>143</ele>
        <time>2010-05-13T12:57:43Z</time>
      </trkpt>
      <trkpt lat="48.7558" lon="1.88025">
        <ele>143</ele>
        <time>2010-05-13T12:57:47Z</time>
      </trkpt>
      <trkpt lat="48.7558" lon="1.88027">
        <ele>143</ele>
        <time>2010-05-13T12:57:51Z</time>
      </trkpt>
      <trkpt lat="48.75581" lon="1.8803">
        <ele>143</ele>
        <time>2010-05-13T12:57:54Z</time>
      </trkpt>
      <trkpt lat="48.75582" lon="1.88031">
        <ele>143</ele>
        <time>2010-05-13T12:57:56Z</time>
      </trkpt>
      <trkpt lat="48.75583" lon="1.88032">
        <ele>143</ele>
        <time>2010-05-13T12:57:59Z</time>
      </trkpt>
      <trkpt lat="48.75582" lon="1.8803">
        <ele>143</ele>
        <time>2010-05-13T12:58:02Z</time>
      </trkpt>
      <trkpt lat="48.75583" lon="1.8803">
        <ele>143</ele>
        <time>2010-05-13T12:58:05Z</time>
      </trkpt>
      <trkpt lat="48.75585" lon="1.88031">
        <ele>143</ele>
        <time>2010-05-13T12:58:08Z</time>
      </trkpt>
      <trkpt lat="48.75583" lon="1.88031">
        <ele>143</ele>
        <time>2010-05-13T12:58:12Z</time>
      </trkpt>
      <trkpt lat="48.75583" lon="1.88029">
        <ele>143</ele>
        <time>2010-05-13T12:58:16Z</time>
      </trkpt>
      <trkpt lat="48.75583" lon="1.88027">
        <ele>145</ele>
        <time>2010-05-13T12:58:20Z</time>
      </trkpt>
      <trkpt lat="48.75582" lon="1.88026">
        <ele>146</ele>
        <time>2010-05-13T12:58:23Z</time>
      </trkpt>
      <trkpt lat="48.75582" lon="1.88024">
        <ele>147</ele>
        <time>2010-05-13T12:58:27Z</time>
      </trkpt>
      <trkpt lat="48.75581" lon="1.88026">
        <ele>147</ele>
        <time>2010-05-13T12:58:29Z</time>
      </trkpt>
      <trkpt lat="48.7558" lon="1.88026">
        <ele>147</ele>
        <time>2010-05-13T12:58:32Z</time>
      </trkpt>
      <trkpt lat="48.7558" lon="1.88025">
        <ele>147</ele>
        <time>2010-05-13T12:58:34Z</time>
      </trkpt>
      <trkpt lat="48.7558" lon="1.88023">
        <ele>147</ele>
        <time>2010-05-13T12:58:37Z</time>
      </trkpt>
      <trkpt lat="48.75581" lon="1.88022">
        <ele>149</ele>
        <time>2010-05-13T12:58:40Z</time>
      </trkpt>
      <trkpt lat="48.75581" lon="1.8802">
        <ele>151</ele>
        <time>2010-05-13T12:58:42Z</time>
      </trkpt>
      <trkpt lat="48.7558" lon="1.88018">
        <ele>155</ele>
        <time>2010-05-13T12:58:52Z</time>
      </trkpt>
      <trkpt lat="48.75578" lon="1.88017">
        <ele>155</ele>
        <time>2010-05-13T12:58:57Z</time>
      </trkpt>
      <trkpt lat="48.75577" lon="1.88017">
        <ele>156</ele>
        <time>2010-05-13T12:58:58Z</time>
      </trkpt>
      <trkpt lat="48.75576" lon="1.88016">
        <ele>156</ele>
        <time>2010-05-13T12:58:59Z</time>
      </trkpt>
      <trkpt lat="48.75574" lon="1.88016">
        <ele>156</ele>
        <time>2010-05-13T12:59:00Z</time>
      </trkpt>
      <trkpt lat="48.75572" lon="1.88016">
        <ele>156</ele>
        <time>2010-05-13T12:59:01Z</time>
      </trkpt>
      <trkpt lat="48.7557" lon="1.88016">
        <ele>156</ele>
        <time>2010-05-13T12:59:02Z</time>
      </trkpt>
      <trkpt lat="48.75569" lon="1.88016">
        <ele>156</ele>
        <time>2010-05-13T12:59:03Z</time>
      </trkpt>
      <trkpt lat="48.75568" lon="1.88016">
        <ele>156</ele>
        <time>2010-05-13T12:59:04Z</time>
      </trkpt>
      <trkpt lat="48.75566" lon="1.88016">
        <ele>156</ele>
        <time>2010-05-13T12:59:05Z</time>
      </trkpt>
      <trkpt lat="48.75565" lon="1.88014">
        <ele>156</ele>
        <time>2010-05-13T12:59:06Z</time>
      </trkpt>
      <trkpt lat="48.75564" lon="1.88014">
        <ele>156</ele>
        <time>2010-05-13T12:59:07Z</time>
      </trkpt>
      <trkpt lat="48.75562" lon="1.88012">
        <ele>156</ele>
        <time>2010-05-13T12:59:09Z</time>
      </trkpt>
      <trkpt lat="48.7556" lon="1.8801">
        <ele>156</ele>
        <time>2010-05-13T12:59:10Z</time>
      </trkpt>
      <trkpt lat="48.75559" lon="1.88009">
        <ele>156</ele>
        <time>2010-05-13T12:59:11Z</time>
      </trkpt>
      <trkpt lat="48.75558" lon="1.88008">
        <ele>155</ele>
        <time>2010-05-13T12:59:12Z</time>
      </trkpt>
      <trkpt lat="48.75556" lon="1.88007">
        <ele>155</ele>
        <time>2010-05-13T12:59:14Z</time>
      </trkpt>
      <trkpt lat="48.75554" lon="1.88005">
        <ele>155</ele>
        <time>2010-05-13T12:59:17Z</time>
      </trkpt>
      <trkpt lat="48.75554" lon="1.88004">
        <ele>155</ele>
        <time>2010-05-13T12:59:22Z</time>
      </trkpt>
      <trkpt lat="48.75552" lon="1.88003">
        <ele>155</ele>
        <time>2010-05-13T12:59:24Z</time>
      </trkpt>
      <trkpt lat="48.7555" lon="1.88001">
        <ele>155</ele>
        <time>2010-05-13T12:59:26Z</time>
      </trkpt>
      <trkpt lat="48.75548" lon="1.87999">
        <ele>155</ele>
        <time>2010-05-13T12:59:29Z</time>
      </trkpt>
      <trkpt lat="48.75547" lon="1.87999">
        <ele>155</ele>
        <time>2010-05-13T12:59:30Z</time>
      </trkpt>
      <trkpt lat="48.75546" lon="1.87998">
        <ele>155</ele>
        <time>2010-05-13T12:59:31Z</time>
      </trkpt>
      <trkpt lat="48.75545" lon="1.87997">
        <ele>155</ele>
        <time>2010-05-13T12:59:32Z</time>
      </trkpt>
      <trkpt lat="48.75543" lon="1.87996">
        <ele>155</ele>
        <time>2010-05-13T12:59:33Z</time>
      </trkpt>
      <trkpt lat="48.75542" lon="1.87996">
        <ele>155</ele>
        <time>2010-05-13T12:59:34Z</time>
      </trkpt>
      <trkpt lat="48.75539" lon="1.87996">
        <ele>155</ele>
        <time>2010-05-13T12:59:36Z</time>
      </trkpt>
      <trkpt lat="48.75538" lon="1.87995">
        <ele>155</ele>
        <time>2010-05-13T12:59:37Z</time>
      </trkpt>
      <trkpt lat="48.75536" lon="1.87997">
        <ele>155</ele>
        <time>2010-05-13T12:59:39Z</time>
      </trkpt>
      <trkpt lat="48.75535" lon="1.87998">
        <ele>155</ele>
        <time>2010-05-13T12:59:40Z</time>
      </trkpt>
      <trkpt lat="48.75534" lon="1.87998">
        <ele>155</ele>
        <time>2010-05-13T12:59:41Z</time>
      </trkpt>
      <trkpt lat="48.75531" lon="1.87998">
        <ele>155</ele>
        <time>2010-05-13T12:59:44Z</time>
      </trkpt>
      <trkpt lat="48.75529" lon="1.87998">
        <ele>154</ele>
        <time>2010-05-13T12:59:45Z</time>
      </trkpt>
      <trkpt lat="48.75527" lon="1.87997">
        <ele>154</ele>
        <time>2010-05-13T12:59:46Z</time>
      </trkpt>
      <trkpt lat="48.75525" lon="1.87996">
        <ele>153</ele>
        <time>2010-05-13T12:59:47Z</time>
      </trkpt>
      <trkpt lat="48.75524" lon="1.87996">
        <ele>152</ele>
        <time>2010-05-13T12:59:48Z</time>
      </trkpt>
      <trkpt lat="48.75523" lon="1.87996">
        <ele>152</ele>
        <time>2010-05-13T12:59:50Z</time>
      </trkpt>
      <trkpt lat="48.75523" lon="1.87998">
        <ele>151</ele>
        <time>2010-05-13T12:59:52Z</time>
      </trkpt>
      <trkpt lat="48.75521" lon="1.87997">
        <ele>150</ele>
        <time>2010-05-13T12:59:56Z</time>
      </trkpt>
      <trkpt lat="48.75522" lon="1.87997">
        <ele>149</ele>
        <time>2010-05-13T13:00:01Z</time>
      </trkpt>
      <trkpt lat="48.75524" lon="1.87997">
        <ele>149</ele>
        <time>2010-05-13T13:00:03Z</time>
      </trkpt>
      <trkpt lat="48.75522" lon="1.87996">
        <ele>149</ele>
        <time>2010-05-13T13:00:10Z</time>
      </trkpt>
      <trkpt lat="48.7552" lon="1.87996">
        <ele>149</ele>
        <time>2010-05-13T13:00:12Z</time>
      </trkpt>
      <trkpt lat="48.75518" lon="1.87993">
        <ele>149</ele>
        <time>2010-05-13T13:00:14Z</time>
      </trkpt>
      <trkpt lat="48.75517" lon="1.87995">
        <ele>150</ele>
        <time>2010-05-13T13:00:25Z</time>
      </trkpt>
      <trkpt lat="48.75515" lon="1.87994">
        <ele>150</ele>
        <time>2010-05-13T13:00:27Z</time>
      </trkpt>
      <trkpt lat="48.75514" lon="1.87994">
        <ele>150</ele>
        <time>2010-05-13T13:00:30Z</time>
      </trkpt>
      <trkpt lat="48.75513" lon="1.87995">
        <ele>150</ele>
        <time>2010-05-13T13:00:33Z</time>
      </trkpt>
      <trkpt lat="48.75513" lon="1.87993">
        <ele>150</ele>
        <time>2010-05-13T13:00:40Z</time>
      </trkpt>
      <trkpt lat="48.75514" lon="1.87993">
        <ele>151</ele>
        <time>2010-05-13T13:00:44Z</time>
      </trkpt>
      <trkpt lat="48.75513" lon="1.87994">
        <ele>154</ele>
        <time>2010-05-13T13:01:04Z</time>
      </trkpt>
      <trkpt lat="48.75511" lon="1.87994">
        <ele>153</ele>
        <time>2010-05-13T13:01:06Z</time>
      </trkpt>
      <trkpt lat="48.75512" lon="1.87996">
        <ele>151</ele>
        <time>2010-05-13T13:01:13Z</time>
      </trkpt>
      <trkpt lat="48.75513" lon="1.87998">
        <ele>151</ele>
        <time>2010-05-13T13:01:19Z</time>
      </trkpt>
      <trkpt lat="48.75514" lon="1.87998">
        <ele>151</ele>
        <time>2010-05-13T13:01:22Z</time>
      </trkpt>
      <trkpt lat="48.75516" lon="1.87999">
        <ele>151</ele>
        <time>2010-05-13T13:01:24Z</time>
      </trkpt>
      <trkpt lat="48.75514" lon="1.87998">
        <ele>151</ele>
        <time>2010-05-13T13:01:31Z</time>
      </trkpt>
      <trkpt lat="48.75514" lon="1.87996">
        <ele>151</ele>
        <time>2010-05-13T13:01:38Z</time>
      </trkpt>
      <trkpt lat="48.75513" lon="1.87997">
        <ele>151</ele>
        <time>2010-05-13T13:01:44Z</time>
      </trkpt>
      <trkpt lat="48.75513" lon="1.87995">
        <ele>151</ele>
        <time>2010-05-13T13:01:51Z</time>
      </trkpt>
      <trkpt lat="48.75514" lon="1.87994">
        <ele>153</ele>
        <time>2010-05-13T13:01:54Z</time>
      </trkpt>
      <trkpt lat="48.75515" lon="1.87995">
        <ele>153</ele>
        <time>2010-05-13T13:01:56Z</time>
      </trkpt>
      <trkpt lat="48.75515" lon="1.87992">
        <ele>157</ele>
        <time>2010-05-13T13:02:03Z</time>
      </trkpt>
      <trkpt lat="48.75516" lon="1.87992">
        <ele>161</ele>
        <time>2010-05-13T13:02:07Z</time>
      </trkpt>
      <trkpt lat="48.75515" lon="1.87991">
        <ele>163</ele>
        <time>2010-05-13T13:02:13Z</time>
      </trkpt>
      <trkpt lat="48.75513" lon="1.87991">
        <ele>163</ele>
        <time>2010-05-13T13:02:15Z</time>
      </trkpt>
      <trkpt lat="48.75512" lon="1.87989">
        <ele>163</ele>
        <time>2010-05-13T13:02:21Z</time>
      </trkpt>
      <trkpt lat="48.75511" lon="1.87988">
        <ele>164</ele>
        <time>2010-05-13T13:02:24Z</time>
      </trkpt>
      <trkpt lat="48.7551" lon="1.87987">
        <ele>165</ele>
        <time>2010-05-13T13:02:27Z</time>
      </trkpt>
      <trkpt lat="48.7551" lon="1.87989">
        <ele>165</ele>
        <time>2010-05-13T13:02:29Z</time>
      </trkpt>
      <trkpt lat="48.7551" lon="1.8799">
        <ele>165</ele>
        <time>2010-05-13T13:02:34Z</time>
      </trkpt>
      <trkpt lat="48.75509" lon="1.87989">
        <ele>165</ele>
        <time>2010-05-13T13:02:37Z</time>
      </trkpt>
      <trkpt lat="48.7551" lon="1.87988">
        <ele>165</ele>
        <time>2010-05-13T13:02:40Z</time>
      </trkpt>
      <trkpt lat="48.75511" lon="1.87986">
        <ele>165</ele>
        <time>2010-05-13T13:02:42Z</time>
      </trkpt>
      <trkpt lat="48.7551" lon="1.87986">
        <ele>166</ele>
        <time>2010-05-13T13:02:51Z</time>
      </trkpt>
      <trkpt lat="48.75509" lon="1.87984">
        <ele>167</ele>
        <time>2010-05-13T13:02:53Z</time>
      </trkpt>
      <trkpt lat="48.75507" lon="1.87985">
        <ele>167</ele>
        <time>2010-05-13T13:02:55Z</time>
      </trkpt>
      <trkpt lat="48.75506" lon="1.87984">
        <ele>167</ele>
        <time>2010-05-13T13:02:56Z</time>
      </trkpt>
      <trkpt lat="48.75504" lon="1.87985">
        <ele>167</ele>
        <time>2010-05-13T13:02:58Z</time>
      </trkpt>
      <trkpt lat="48.75502" lon="1.87985">
        <ele>167</ele>
        <time>2010-05-13T13:03:00Z</time>
      </trkpt>
      <trkpt lat="48.75501" lon="1.87985">
        <ele>167</ele>
        <time>2010-05-13T13:03:02Z</time>
      </trkpt>
      <trkpt lat="48.75499" lon="1.87985">
        <ele>167</ele>
        <time>2010-05-13T13:03:04Z</time>
      </trkpt>
      <trkpt lat="48.75498" lon="1.87986">
        <ele>167</ele>
        <time>2010-05-13T13:03:06Z</time>
      </trkpt>
      <trkpt lat="48.75496" lon="1.87985">
        <ele>165</ele>
        <time>2010-05-13T13:03:08Z</time>
      </trkpt>
      <trkpt lat="48.75494" lon="1.87986">
        <ele>164</ele>
        <time>2010-05-13T13:03:10Z</time>
      </trkpt>
      <trkpt lat="48.75492" lon="1.87987">
        <ele>163</ele>
        <time>2010-05-13T13:03:12Z</time>
      </trkpt>
      <trkpt lat="48.75491" lon="1.87987">
        <ele>162</ele>
        <time>2010-05-13T13:03:13Z</time>
      </trkpt>
      <trkpt lat="48.75489" lon="1.87988">
        <ele>161</ele>
        <time>2010-05-13T13:03:15Z</time>
      </trkpt>
      <trkpt lat="48.75487" lon="1.87988">
        <ele>160</ele>
        <time>2010-05-13T13:03:17Z</time>
      </trkpt>
      <trkpt lat="48.75485" lon="1.87988">
        <ele>160</ele>
        <time>2010-05-13T13:03:19Z</time>
      </trkpt>
      <trkpt lat="48.75484" lon="1.87988">
        <ele>159</ele>
        <time>2010-05-13T13:03:20Z</time>
      </trkpt>
      <trkpt lat="48.75482" lon="1.87988">
        <ele>159</ele>
        <time>2010-05-13T13:03:22Z</time>
      </trkpt>
      <trkpt lat="48.7548" lon="1.87988">
        <ele>158</ele>
        <time>2010-05-13T13:03:24Z</time>
      </trkpt>
      <trkpt lat="48.75478" lon="1.87987">
        <ele>157</ele>
        <time>2010-05-13T13:03:26Z</time>
      </trkpt>
      <trkpt lat="48.75476" lon="1.87986">
        <ele>157</ele>
        <time>2010-05-13T13:03:27Z</time>
      </trkpt>
      <trkpt lat="48.75475" lon="1.87985">
        <ele>157</ele>
        <time>2010-05-13T13:03:28Z</time>
      </trkpt>
      <trkpt lat="48.75472" lon="1.87984">
        <ele>156</ele>
        <time>2010-05-13T13:03:29Z</time>
      </trkpt>
      <trkpt lat="48.7547" lon="1.87983">
        <ele>156</ele>
        <time>2010-05-13T13:03:30Z</time>
      </trkpt>
      <trkpt lat="48.75468" lon="1.87984">
        <ele>155</ele>
        <time>2010-05-13T13:03:31Z</time>
      </trkpt>
      <trkpt lat="48.75467" lon="1.87984">
        <ele>155</ele>
        <time>2010-05-13T13:03:32Z</time>
      </trkpt>
      <trkpt lat="48.75465" lon="1.87984">
        <ele>155</ele>
        <time>2010-05-13T13:03:33Z</time>
      </trkpt>
      <trkpt lat="48.75464" lon="1.87984">
        <ele>155</ele>
        <time>2010-05-13T13:03:34Z</time>
      </trkpt>
      <trkpt lat="48.75462" lon="1.87984">
        <ele>155</ele>
        <time>2010-05-13T13:03:35Z</time>
      </trkpt>
      <trkpt lat="48.75461" lon="1.87985">
        <ele>155</ele>
        <time>2010-05-13T13:03:36Z</time>
      </trkpt>
      <trkpt lat="48.7546" lon="1.87984">
        <ele>155</ele>
        <time>2010-05-13T13:03:37Z</time>
      </trkpt>
      <trkpt lat="48.75458" lon="1.87984">
        <ele>155</ele>
        <time>2010-05-13T13:03:39Z</time>
      </trkpt>
      <trkpt lat="48.75457" lon="1.87983">
        <ele>155</ele>
        <time>2010-05-13T13:03:40Z</time>
      </trkpt>
      <trkpt lat="48.75456" lon="1.87983">
        <ele>155</ele>
        <time>2010-05-13T13:03:41Z</time>
      </trkpt>
      <trkpt lat="48.75454" lon="1.87984">
        <ele>155</ele>
        <time>2010-05-13T13:03:42Z</time>
      </trkpt>
      <trkpt lat="48.75453" lon="1.87985">
        <ele>155</ele>
        <time>2010-05-13T13:03:43Z</time>
      </trkpt>
      <trkpt lat="48.75452" lon="1.87986">
        <ele>155</ele>
        <time>2010-05-13T13:03:44Z</time>
      </trkpt>
      <trkpt lat="48.75451" lon="1.87986">
        <ele>155</ele>
        <time>2010-05-13T13:03:45Z</time>
      </trkpt>
      <trkpt lat="48.75449" lon="1.87987">
        <ele>155</ele>
        <time>2010-05-13T13:03:47Z</time>
      </trkpt>
      <trkpt lat="48.75447" lon="1.87988">
        <ele>155</ele>
        <time>2010-05-13T13:03:49Z</time>
      </trkpt>
      <trkpt lat="48.75445" lon="1.87985">
        <ele>155</ele>
        <time>2010-05-13T13:03:51Z</time>
      </trkpt>
      <trkpt lat="48.75443" lon="1.87983">
        <ele>155</ele>
        <time>2010-05-13T13:03:52Z</time>
      </trkpt>
      <trkpt lat="48.75442" lon="1.87982">
        <ele>155</ele>
        <time>2010-05-13T13:03:53Z</time>
      </trkpt>
      <trkpt lat="48.75441" lon="1.87983">
        <ele>155</ele>
        <time>2010-05-13T13:03:54Z</time>
      </trkpt>
      <trkpt lat="48.75439" lon="1.87983">
        <ele>155</ele>
        <time>2010-05-13T13:03:55Z</time>
      </trkpt>
      <trkpt lat="48.75438" lon="1.87983">
        <ele>155</ele>
        <time>2010-05-13T13:03:56Z</time>
      </trkpt>
      <trkpt lat="48.75436" lon="1.87983">
        <ele>155</ele>
        <time>2010-05-13T13:03:58Z</time>
      </trkpt>
      <trkpt lat="48.75434" lon="1.87982">
        <ele>155</ele>
        <time>2010-05-13T13:04:00Z</time>
      </trkpt>
      <trkpt lat="48.75433" lon="1.87981">
        <ele>155</ele>
        <time>2010-05-13T13:04:01Z</time>
      </trkpt>
      <trkpt lat="48.75431" lon="1.87982">
        <ele>155</ele>
        <time>2010-05-13T13:04:03Z</time>
      </trkpt>
      <trkpt lat="48.75429" lon="1.87981">
        <ele>155</ele>
        <time>2010-05-13T13:04:04Z</time>
      </trkpt>
      <trkpt lat="48.75428" lon="1.87981">
        <ele>155</ele>
        <time>2010-05-13T13:04:05Z</time>
      </trkpt>
      <trkpt lat="48.75427" lon="1.87981">
        <ele>155</ele>
        <time>2010-05-13T13:04:06Z</time>
      </trkpt>
      <trkpt lat="48.75425" lon="1.87982">
        <ele>155</ele>
        <time>2010-05-13T13:04:07Z</time>
      </trkpt>
      <trkpt lat="48.75424" lon="1.87983">
        <ele>155</ele>
        <time>2010-05-13T13:04:08Z</time>
      </trkpt>
      <trkpt lat="48.75423" lon="1.87983">
        <ele>155</ele>
        <time>2010-05-13T13:04:09Z</time>
      </trkpt>
      <trkpt lat="48.75421" lon="1.87983">
        <ele>155</ele>
        <time>2010-05-13T13:04:10Z</time>
      </trkpt>
      <trkpt lat="48.7542" lon="1.87983">
        <ele>155</ele>
        <time>2010-05-13T13:04:11Z</time>
      </trkpt>
      <trkpt lat="48.75418" lon="1.87983">
        <ele>155</ele>
        <time>2010-05-13T13:04:12Z</time>
      </trkpt>
      <trkpt lat="48.75417" lon="1.87983">
        <ele>155</ele>
        <time>2010-05-13T13:04:13Z</time>
      </trkpt>
      <trkpt lat="48.75416" lon="1.87983">
        <ele>155</ele>
        <time>2010-05-13T13:04:14Z</time>
      </trkpt>
      <trkpt lat="48.75414" lon="1.87984">
        <ele>155</ele>
        <time>2010-05-13T13:04:15Z</time>
      </trkpt>
      <trkpt lat="48.75413" lon="1.87983">
        <ele>155</ele>
        <time>2010-05-13T13:04:16Z</time>
      </trkpt>
      <trkpt lat="48.75412" lon="1.87984">
        <ele>154</ele>
        <time>2010-05-13T13:04:17Z</time>
      </trkpt>
      <trkpt lat="48.7541" lon="1.87983">
        <ele>154</ele>
        <time>2010-05-13T13:04:18Z</time>
      </trkpt>
      <trkpt lat="48.75409" lon="1.87983">
        <ele>154</ele>
        <time>2010-05-13T13:04:19Z</time>
      </trkpt>
      <trkpt lat="48.75408" lon="1.87983">
        <ele>154</ele>
        <time>2010-05-13T13:04:20Z</time>
      </trkpt>
      <trkpt lat="48.75407" lon="1.87983">
        <ele>154</ele>
        <time>2010-05-13T13:04:21Z</time>
      </trkpt>
      <trkpt lat="48.75405" lon="1.87983">
        <ele>154</ele>
        <time>2010-05-13T13:04:22Z</time>
      </trkpt>
      <trkpt lat="48.75404" lon="1.87983">
        <ele>154</ele>
        <time>2010-05-13T13:04:23Z</time>
      </trkpt>
      <trkpt lat="48.75403" lon="1.87982">
        <ele>154</ele>
        <time>2010-05-13T13:04:24Z</time>
      </trkpt>
      <trkpt lat="48.75401" lon="1.87981">
        <ele>154</ele>
        <time>2010-05-13T13:04:26Z</time>
      </trkpt>
      <trkpt lat="48.75399" lon="1.8798">
        <ele>154</ele>
        <time>2010-05-13T13:04:27Z</time>
      </trkpt>
      <trkpt lat="48.75398" lon="1.8798">
        <ele>154</ele>
        <time>2010-05-13T13:04:28Z</time>
      </trkpt>
      <trkpt lat="48.75396" lon="1.87979">
        <ele>154</ele>
        <time>2010-05-13T13:04:30Z</time>
      </trkpt>
      <trkpt lat="48.75395" lon="1.87979">
        <ele>154</ele>
        <time>2010-05-13T13:04:31Z</time>
      </trkpt>
      <trkpt lat="48.75393" lon="1.87978">
        <ele>154</ele>
        <time>2010-05-13T13:04:33Z</time>
      </trkpt>
      <trkpt lat="48.75391" lon="1.87977">
        <ele>154</ele>
        <time>2010-05-13T13:04:35Z</time>
      </trkpt>
      <trkpt lat="48.7539" lon="1.87977">
        <ele>154</ele>
        <time>2010-05-13T13:04:36Z</time>
      </trkpt>
      <trkpt lat="48.75388" lon="1.87977">
        <ele>154</ele>
        <time>2010-05-13T13:04:38Z</time>
      </trkpt>
      <trkpt lat="48.75386" lon="1.87977">
        <ele>153</ele>
        <time>2010-05-13T13:04:40Z</time>
      </trkpt>
      <trkpt lat="48.75384" lon="1.87976">
        <ele>152</ele>
        <time>2010-05-13T13:04:42Z</time>
      </trkpt>
      <trkpt lat="48.75383" lon="1.87975">
        <ele>151</ele>
        <time>2010-05-13T13:04:43Z</time>
      </trkpt>
      <trkpt lat="48.75382" lon="1.87973">
        <ele>151</ele>
        <time>2010-05-13T13:04:44Z</time>
      </trkpt>
      <trkpt lat="48.7538" lon="1.87971">
        <ele>150</ele>
        <time>2010-05-13T13:04:45Z</time>
      </trkpt>
      <trkpt lat="48.75378" lon="1.87969">
        <ele>149</ele>
        <time>2010-05-13T13:04:47Z</time>
      </trkpt>
      <trkpt lat="48.75375" lon="1.87969">
        <ele>149</ele>
        <time>2010-05-13T13:04:49Z</time>
      </trkpt>
      <trkpt lat="48.75373" lon="1.87967">
        <ele>149</ele>
        <time>2010-05-13T13:04:50Z</time>
      </trkpt>
      <trkpt lat="48.75372" lon="1.87967">
        <ele>149</ele>
        <time>2010-05-13T13:04:51Z</time>
      </trkpt>
      <trkpt lat="48.7537" lon="1.87967">
        <ele>149</ele>
        <time>2010-05-13T13:04:52Z</time>
      </trkpt>
      <trkpt lat="48.75368" lon="1.87968">
        <ele>149</ele>
        <time>2010-05-13T13:04:54Z</time>
      </trkpt>
      <trkpt lat="48.75366" lon="1.87969">
        <ele>149</ele>
        <time>2010-05-13T13:04:56Z</time>
      </trkpt>
      <trkpt lat="48.75364" lon="1.87968">
        <ele>149</ele>
        <time>2010-05-13T13:04:58Z</time>
      </trkpt>
      <trkpt lat="48.75363" lon="1.87969">
        <ele>149</ele>
        <time>2010-05-13T13:04:59Z</time>
      </trkpt>
      <trkpt lat="48.75361" lon="1.87968">
        <ele>149</ele>
        <time>2010-05-13T13:05:01Z</time>
      </trkpt>
      <trkpt lat="48.7536" lon="1.87967">
        <ele>149</ele>
        <time>2010-05-13T13:05:03Z</time>
      </trkpt>
      <trkpt lat="48.75358" lon="1.87968">
        <ele>148</ele>
        <time>2010-05-13T13:05:05Z</time>
      </trkpt>
      <trkpt lat="48.75356" lon="1.87967">
        <ele>148</ele>
        <time>2010-05-13T13:05:06Z</time>
      </trkpt>
      <trkpt lat="48.75354" lon="1.87967">
        <ele>148</ele>
        <time>2010-05-13T13:05:07Z</time>
      </trkpt>
      <trkpt lat="48.75353" lon="1.87966">
        <ele>148</ele>
        <time>2010-05-13T13:05:08Z</time>
      </trkpt>
      <trkpt lat="48.75351" lon="1.87966">
        <ele>148</ele>
        <time>2010-05-13T13:05:10Z</time>
      </trkpt>
      <trkpt lat="48.75349" lon="1.87965">
        <ele>148</ele>
        <time>2010-05-13T13:05:12Z</time>
      </trkpt>
      <trkpt lat="48.75348" lon="1.87965">
        <ele>148</ele>
        <time>2010-05-13T13:05:13Z</time>
      </trkpt>
      <trkpt lat="48.75347" lon="1.87966">
        <ele>148</ele>
        <time>2010-05-13T13:05:14Z</time>
      </trkpt>
      <trkpt lat="48.75345" lon="1.87966">
        <ele>146</ele>
        <time>2010-05-13T13:05:16Z</time>
      </trkpt>
      <trkpt lat="48.75344" lon="1.87967">
        <ele>146</ele>
        <time>2010-05-13T13:05:17Z</time>
      </trkpt>
      <trkpt lat="48.75341" lon="1.87968">
        <ele>146</ele>
        <time>2010-05-13T13:05:19Z</time>
      </trkpt>
      <trkpt lat="48.7534" lon="1.87969">
        <ele>146</ele>
        <time>2010-05-13T13:05:20Z</time>
      </trkpt>
      <trkpt lat="48.75339" lon="1.87969">
        <ele>146</ele>
        <time>2010-05-13T13:05:21Z</time>
      </trkpt>
      <trkpt lat="48.75337" lon="1.87969">
        <ele>146</ele>
        <time>2010-05-13T13:05:22Z</time>
      </trkpt>
      <trkpt lat="48.75336" lon="1.87969">
        <ele>146</ele>
        <time>2010-05-13T13:05:23Z</time>
      </trkpt>
      <trkpt lat="48.75334" lon="1.8797">
        <ele>146</ele>
        <time>2010-05-13T13:05:24Z</time>
      </trkpt>
      <trkpt lat="48.75332" lon="1.8797">
        <ele>146</ele>
        <time>2010-05-13T13:05:25Z</time>
      </trkpt>
      <trkpt lat="48.75331" lon="1.87969">
        <ele>146</ele>
        <time>2010-05-13T13:05:26Z</time>
      </trkpt>
      <trkpt lat="48.75329" lon="1.87969">
        <ele>146</ele>
        <time>2010-05-13T13:05:27Z</time>
      </trkpt>
      <trkpt lat="48.75328" lon="1.87969">
        <ele>146</ele>
        <time>2010-05-13T13:05:28Z</time>
      </trkpt>
      <trkpt lat="48.75327" lon="1.87969">
        <ele>146</ele>
        <time>2010-05-13T13:05:29Z</time>
      </trkpt>
      <trkpt lat="48.75325" lon="1.8797">
        <ele>146</ele>
        <time>2010-05-13T13:05:30Z</time>
      </trkpt>
      <trkpt lat="48.75324" lon="1.8797">
        <ele>146</ele>
        <time>2010-05-13T13:05:31Z</time>
      </trkpt>
      <trkpt lat="48.75322" lon="1.87969">
        <ele>146</ele>
        <time>2010-05-13T13:05:32Z</time>
      </trkpt>
      <trkpt lat="48.75321" lon="1.87968">
        <ele>146</ele>
        <time>2010-05-13T13:05:33Z</time>
      </trkpt>
      <trkpt lat="48.75318" lon="1.87969">
        <ele>146</ele>
        <time>2010-05-13T13:05:35Z</time>
      </trkpt>
      <trkpt lat="48.75317" lon="1.8797">
        <ele>146</ele>
        <time>2010-05-13T13:05:36Z</time>
      </trkpt>
      <trkpt lat="48.75316" lon="1.8797">
        <ele>146</ele>
        <time>2010-05-13T13:05:37Z</time>
      </trkpt>
      <trkpt lat="48.75314" lon="1.8797">
        <ele>147</ele>
        <time>2010-05-13T13:05:38Z</time>
      </trkpt>
      <trkpt lat="48.75313" lon="1.8797">
        <ele>147</ele>
        <time>2010-05-13T13:05:39Z</time>
      </trkpt>
      <trkpt lat="48.75311" lon="1.8797">
        <ele>148</ele>
        <time>2010-05-13T13:05:40Z</time>
      </trkpt>
      <trkpt lat="48.7531" lon="1.8797">
        <ele>148</ele>
        <time>2010-05-13T13:05:41Z</time>
      </trkpt>
      <trkpt lat="48.75309" lon="1.8797">
        <ele>149</ele>
        <time>2010-05-13T13:05:42Z</time>
      </trkpt>
      <trkpt lat="48.75307" lon="1.87971">
        <ele>149</ele>
        <time>2010-05-13T13:05:43Z</time>
      </trkpt>
      <trkpt lat="48.75306" lon="1.87971">
        <ele>150</ele>
        <time>2010-05-13T13:05:44Z</time>
      </trkpt>
      <trkpt lat="48.75305" lon="1.87971">
        <ele>150</ele>
        <time>2010-05-13T13:05:45Z</time>
      </trkpt>
      <trkpt lat="48.75303" lon="1.87971">
        <ele>150</ele>
        <time>2010-05-13T13:05:46Z</time>
      </trkpt>
      <trkpt lat="48.75302" lon="1.8797">
        <ele>151</ele>
        <time>2010-05-13T13:05:47Z</time>
      </trkpt>
      <trkpt lat="48.75301" lon="1.87971">
        <ele>151</ele>
        <time>2010-05-13T13:05:48Z</time>
      </trkpt>
      <trkpt lat="48.753" lon="1.87971">
        <ele>151</ele>
        <time>2010-05-13T13:05:49Z</time>
      </trkpt>
      <trkpt lat="48.75298" lon="1.87971">
        <ele>151</ele>
        <time>2010-05-13T13:05:50Z</time>
      </trkpt>
      <trkpt lat="48.75297" lon="1.87972">
        <ele>151</ele>
        <time>2010-05-13T13:05:51Z</time>
      </trkpt>
      <trkpt lat="48.75295" lon="1.87972">
        <ele>151</ele>
        <time>2010-05-13T13:05:52Z</time>
      </trkpt>
      <trkpt lat="48.75294" lon="1.87973">
        <ele>151</ele>
        <time>2010-05-13T13:05:53Z</time>
      </trkpt>
      <trkpt lat="48.75293" lon="1.87973">
        <ele>151</ele>
        <time>2010-05-13T13:05:54Z</time>
      </trkpt>
      <trkpt lat="48.75292" lon="1.87973">
        <ele>151</ele>
        <time>2010-05-13T13:05:55Z</time>
      </trkpt>
      <trkpt lat="48.7529" lon="1.87974">
        <ele>151</ele>
        <time>2010-05-13T13:05:56Z</time>
      </trkpt>
      <trkpt lat="48.75289" lon="1.87974">
        <ele>151</ele>
        <time>2010-05-13T13:05:57Z</time>
      </trkpt>
      <trkpt lat="48.75288" lon="1.87975">
        <ele>151</ele>
        <time>2010-05-13T13:05:58Z</time>
      </trkpt>
      <trkpt lat="48.75286" lon="1.87975">
        <ele>151</ele>
        <time>2010-05-13T13:05:59Z</time>
      </trkpt>
      <trkpt lat="48.75285" lon="1.87976">
        <ele>151</ele>
        <time>2010-05-13T13:06:00Z</time>
      </trkpt>
      <trkpt lat="48.75283" lon="1.87977">
        <ele>151</ele>
        <time>2010-05-13T13:06:02Z</time>
      </trkpt>
      <trkpt lat="48.75281" lon="1.87978">
        <ele>151</ele>
        <time>2010-05-13T13:06:04Z</time>
      </trkpt>
      <trkpt lat="48.7528" lon="1.87978">
        <ele>151</ele>
        <time>2010-05-13T13:06:05Z</time>
      </trkpt>
      <trkpt lat="48.75279" lon="1.87978">
        <ele>151</ele>
        <time>2010-05-13T13:06:06Z</time>
      </trkpt>
      <trkpt lat="48.75278" lon="1.87979">
        <ele>151</ele>
        <time>2010-05-13T13:06:07Z</time>
      </trkpt>
      <trkpt lat="48.75275" lon="1.87979">
        <ele>151</ele>
        <time>2010-05-13T13:06:09Z</time>
      </trkpt>
      <trkpt lat="48.75274" lon="1.87979">
        <ele>151</ele>
        <time>2010-05-13T13:06:10Z</time>
      </trkpt>
      <trkpt lat="48.75273" lon="1.8798">
        <ele>151</ele>
        <time>2010-05-13T13:06:11Z</time>
      </trkpt>
      <trkpt lat="48.75272" lon="1.8798">
        <ele>151</ele>
        <time>2010-05-13T13:06:12Z</time>
      </trkpt>
      <trkpt lat="48.7527" lon="1.8798">
        <ele>151</ele>
        <time>2010-05-13T13:06:13Z</time>
      </trkpt>
      <trkpt lat="48.75269" lon="1.8798">
        <ele>151</ele>
        <time>2010-05-13T13:06:14Z</time>
      </trkpt>
      <trkpt lat="48.75267" lon="1.87979">
        <ele>151</ele>
        <time>2010-05-13T13:06:15Z</time>
      </trkpt>
      <trkpt lat="48.75265" lon="1.87979">
        <ele>151</ele>
        <time>2010-05-13T13:06:17Z</time>
      </trkpt>
      <trkpt lat="48.75263" lon="1.87979">
        <ele>151</ele>
        <time>2010-05-13T13:06:18Z</time>
      </trkpt>
      <trkpt lat="48.75261" lon="1.87979">
        <ele>151</ele>
        <time>2010-05-13T13:06:20Z</time>
      </trkpt>
      <trkpt lat="48.75259" lon="1.8798">
        <ele>151</ele>
        <time>2010-05-13T13:06:21Z</time>
      </trkpt>
      <trkpt lat="48.75255" lon="1.87979">
        <ele>151</ele>
        <time>2010-05-13T13:06:22Z</time>
      </trkpt>
      <trkpt lat="48.75252" lon="1.87978">
        <ele>151</ele>
        <time>2010-05-13T13:06:23Z</time>
      </trkpt>
      <trkpt lat="48.7525" lon="1.87976">
        <ele>151</ele>
        <time>2010-05-13T13:06:24Z</time>
      </trkpt>
      <trkpt lat="48.75247" lon="1.87976">
        <ele>151</ele>
        <time>2010-05-13T13:06:25Z</time>
      </trkpt>
      <trkpt lat="48.75244" lon="1.87975">
        <ele>151</ele>
        <time>2010-05-13T13:06:26Z</time>
      </trkpt>
      <trkpt lat="48.75241" lon="1.87974">
        <ele>151</ele>
        <time>2010-05-13T13:06:27Z</time>
      </trkpt>
      <trkpt lat="48.75237" lon="1.87973">
        <ele>151</ele>
        <time>2010-05-13T13:06:28Z</time>
      </trkpt>
      <trkpt lat="48.75233" lon="1.87973">
        <ele>151</ele>
        <time>2010-05-13T13:06:29Z</time>
      </trkpt>
      <trkpt lat="48.7523" lon="1.87972">
        <ele>151</ele>
        <time>2010-05-13T13:06:30Z</time>
      </trkpt>
      <trkpt lat="48.75226" lon="1.87971">
        <ele>152</ele>
        <time>2010-05-13T13:06:31Z</time>
      </trkpt>
      <trkpt lat="48.75223" lon="1.8797">
        <ele>152</ele>
        <time>2010-05-13T13:06:32Z</time>
      </trkpt>
      <trkpt lat="48.7522" lon="1.87969">
        <ele>153</ele>
        <time>2010-05-13T13:06:33Z</time>
      </trkpt>
      <trkpt lat="48.75217" lon="1.87968">
        <ele>154</ele>
        <time>2010-05-13T13:06:34Z</time>
      </trkpt>
      <trkpt lat="48.75215" lon="1.87967">
        <ele>155</ele>
        <time>2010-05-13T13:06:35Z</time>
      </trkpt>
      <trkpt lat="48.75212" lon="1.87967">
        <ele>155</ele>
        <time>2010-05-13T13:06:36Z</time>
      </trkpt>
      <trkpt lat="48.7521" lon="1.87967">
        <ele>156</ele>
        <time>2010-05-13T13:06:37Z</time>
      </trkpt>
      <trkpt lat="48.75208" lon="1.87966">
        <ele>156</ele>
        <time>2010-05-13T13:06:38Z</time>
      </trkpt>
      <trkpt lat="48.75207" lon="1.87966">
        <ele>156</ele>
        <time>2010-05-13T13:06:39Z</time>
      </trkpt>
      <trkpt lat="48.75205" lon="1.87966">
        <ele>156</ele>
        <time>2010-05-13T13:06:40Z</time>
      </trkpt>
      <trkpt lat="48.75203" lon="1.87966">
        <ele>157</ele>
        <time>2010-05-13T13:06:41Z</time>
      </trkpt>
      <trkpt lat="48.75202" lon="1.87966">
        <ele>157</ele>
        <time>2010-05-13T13:06:42Z</time>
      </trkpt>
      <trkpt lat="48.752" lon="1.87966">
        <ele>157</ele>
        <time>2010-05-13T13:06:43Z</time>
      </trkpt>
      <trkpt lat="48.75199" lon="1.87966">
        <ele>158</ele>
        <time>2010-05-13T13:06:44Z</time>
      </trkpt>
      <trkpt lat="48.75196" lon="1.87963">
        <ele>159</ele>
        <time>2010-05-13T13:06:46Z</time>
      </trkpt>
      <trkpt lat="48.75194" lon="1.87961">
        <ele>159</ele>
        <time>2010-05-13T13:06:47Z</time>
      </trkpt>
      <trkpt lat="48.75192" lon="1.87959">
        <ele>159</ele>
        <time>2010-05-13T13:06:48Z</time>
      </trkpt>
      <trkpt lat="48.7519" lon="1.87957">
        <ele>160</ele>
        <time>2010-05-13T13:06:49Z</time>
      </trkpt>
      <trkpt lat="48.75189" lon="1.87956">
        <ele>160</ele>
        <time>2010-05-13T13:06:50Z</time>
      </trkpt>
      <trkpt lat="48.75187" lon="1.87954">
        <ele>161</ele>
        <time>2010-05-13T13:06:52Z</time>
      </trkpt>
      <trkpt lat="48.75186" lon="1.87953">
        <ele>161</ele>
        <time>2010-05-13T13:06:53Z</time>
      </trkpt>
      <trkpt lat="48.75184" lon="1.87953">
        <ele>161</ele>
        <time>2010-05-13T13:06:55Z</time>
      </trkpt>
      <trkpt lat="48.75182" lon="1.87954">
        <ele>161</ele>
        <time>2010-05-13T13:06:57Z</time>
      </trkpt>
      <trkpt lat="48.7518" lon="1.87954">
        <ele>161</ele>
        <time>2010-05-13T13:06:59Z</time>
      </trkpt>
      <trkpt lat="48.75179" lon="1.87955">
        <ele>161</ele>
        <time>2010-05-13T13:07:01Z</time>
      </trkpt>
      <trkpt lat="48.75177" lon="1.87955">
        <ele>161</ele>
        <time>2010-05-13T13:07:03Z</time>
      </trkpt>
      <trkpt lat="48.75176" lon="1.87955">
        <ele>161</ele>
        <time>2010-05-13T13:07:04Z</time>
      </trkpt>
      <trkpt lat="48.75173" lon="1.87955">
        <ele>161</ele>
        <time>2010-05-13T13:07:06Z</time>
      </trkpt>
      <trkpt lat="48.75172" lon="1.87956">
        <ele>161</ele>
        <time>2010-05-13T13:07:08Z</time>
      </trkpt>
      <trkpt lat="48.7517" lon="1.87955">
        <ele>161</ele>
        <time>2010-05-13T13:07:09Z</time>
      </trkpt>
      <trkpt lat="48.75169" lon="1.87955">
        <ele>161</ele>
        <time>2010-05-13T13:07:11Z</time>
      </trkpt>
      <trkpt lat="48.75167" lon="1.87954">
        <ele>161</ele>
        <time>2010-05-13T13:07:13Z</time>
      </trkpt>
      <trkpt lat="48.75165" lon="1.87952">
        <ele>161</ele>
        <time>2010-05-13T13:07:14Z</time>
      </trkpt>
      <trkpt lat="48.75163" lon="1.87951">
        <ele>161</ele>
        <time>2010-05-13T13:07:15Z</time>
      </trkpt>
      <trkpt lat="48.75162" lon="1.8795">
        <ele>161</ele>
        <time>2010-05-13T13:07:16Z</time>
      </trkpt>
      <trkpt lat="48.7516" lon="1.87949">
        <ele>160</ele>
        <time>2010-05-13T13:07:17Z</time>
      </trkpt>
      <trkpt lat="48.75157" lon="1.87949">
        <ele>160</ele>
        <time>2010-05-13T13:07:18Z</time>
      </trkpt>
      <trkpt lat="48.75154" lon="1.87949">
        <ele>159</ele>
        <time>2010-05-13T13:07:19Z</time>
      </trkpt>
      <trkpt lat="48.75151" lon="1.87949">
        <ele>159</ele>
        <time>2010-05-13T13:07:20Z</time>
      </trkpt>
      <trkpt lat="48.75148" lon="1.8795">
        <ele>158</ele>
        <time>2010-05-13T13:07:21Z</time>
      </trkpt>
      <trkpt lat="48.75146" lon="1.87951">
        <ele>158</ele>
        <time>2010-05-13T13:07:22Z</time>
      </trkpt>
      <trkpt lat="48.75143" lon="1.87951">
        <ele>157</ele>
        <time>2010-05-13T13:07:23Z</time>
      </trkpt>
      <trkpt lat="48.7514" lon="1.87952">
        <ele>157</ele>
        <time>2010-05-13T13:07:24Z</time>
      </trkpt>
      <trkpt lat="48.75138" lon="1.87952">
        <ele>157</ele>
        <time>2010-05-13T13:07:25Z</time>
      </trkpt>
      <trkpt lat="48.75136" lon="1.87953">
        <ele>157</ele>
        <time>2010-05-13T13:07:26Z</time>
      </trkpt>
      <trkpt lat="48.75135" lon="1.87953">
        <ele>157</ele>
        <time>2010-05-13T13:07:27Z</time>
      </trkpt>
      <trkpt lat="48.75133" lon="1.87953">
        <ele>157</ele>
        <time>2010-05-13T13:07:28Z</time>
      </trkpt>
      <trkpt lat="48.75132" lon="1.87954">
        <ele>157</ele>
        <time>2010-05-13T13:07:29Z</time>
      </trkpt>
      <trkpt lat="48.7513" lon="1.87955">
        <ele>157</ele>
        <time>2010-05-13T13:07:30Z</time>
      </trkpt>
      <trkpt lat="48.75129" lon="1.87955">
        <ele>157</ele>
        <time>2010-05-13T13:07:31Z</time>
      </trkpt>
      <trkpt lat="48.75128" lon="1.87956">
        <ele>157</ele>
        <time>2010-05-13T13:07:32Z</time>
      </trkpt>
      <trkpt lat="48.75126" lon="1.87957">
        <ele>157</ele>
        <time>2010-05-13T13:07:33Z</time>
      </trkpt>
      <trkpt lat="48.75125" lon="1.87959">
        <ele>157</ele>
        <time>2010-05-13T13:07:34Z</time>
      </trkpt>
      <trkpt lat="48.75123" lon="1.87962">
        <ele>157</ele>
        <time>2010-05-13T13:07:36Z</time>
      </trkpt>
      <trkpt lat="48.75121" lon="1.87964">
        <ele>157</ele>
        <time>2010-05-13T13:07:38Z</time>
      </trkpt>
      <trkpt lat="48.75118" lon="1.87966">
        <ele>157</ele>
        <time>2010-05-13T13:07:40Z</time>
      </trkpt>
      <trkpt lat="48.75117" lon="1.87967">
        <ele>157</ele>
        <time>2010-05-13T13:07:41Z</time>
      </trkpt>
      <trkpt lat="48.75115" lon="1.8797">
        <ele>157</ele>
        <time>2010-05-13T13:07:43Z</time>
      </trkpt>
      <trkpt lat="48.75114" lon="1.87971">
        <ele>157</ele>
        <time>2010-05-13T13:07:44Z</time>
      </trkpt>
      <trkpt lat="48.75112" lon="1.87972">
        <ele>157</ele>
        <time>2010-05-13T13:07:45Z</time>
      </trkpt>
      <trkpt lat="48.75111" lon="1.87973">
        <ele>157</ele>
        <time>2010-05-13T13:07:46Z</time>
      </trkpt>
      <trkpt lat="48.75109" lon="1.87972">
        <ele>157</ele>
        <time>2010-05-13T13:07:47Z</time>
      </trkpt>
      <trkpt lat="48.75107" lon="1.87975">
        <ele>157</ele>
        <time>2010-05-13T13:07:49Z</time>
      </trkpt>
      <trkpt lat="48.75105" lon="1.87978">
        <ele>157</ele>
        <time>2010-05-13T13:07:51Z</time>
      </trkpt>
      <trkpt lat="48.75102" lon="1.87978">
        <ele>157</ele>
        <time>2010-05-13T13:07:53Z</time>
      </trkpt>
      <trkpt lat="48.751" lon="1.87979">
        <ele>158</ele>
        <time>2010-05-13T13:07:54Z</time>
      </trkpt>
      <trkpt lat="48.75099" lon="1.8798">
        <ele>158</ele>
        <time>2010-05-13T13:07:55Z</time>
      </trkpt>
      <trkpt lat="48.75097" lon="1.87981">
        <ele>159</ele>
        <time>2010-05-13T13:07:56Z</time>
      </trkpt>
      <trkpt lat="48.75095" lon="1.87983">
        <ele>160</ele>
        <time>2010-05-13T13:07:58Z</time>
      </trkpt>
      <trkpt lat="48.75094" lon="1.87985">
        <ele>160</ele>
        <time>2010-05-13T13:08:00Z</time>
      </trkpt>
      <trkpt lat="48.75092" lon="1.87986">
        <ele>160</ele>
        <time>2010-05-13T13:08:02Z</time>
      </trkpt>
      <trkpt lat="48.7509" lon="1.87987">
        <ele>160</ele>
        <time>2010-05-13T13:08:03Z</time>
      </trkpt>
      <trkpt lat="48.75088" lon="1.87989">
        <ele>160</ele>
        <time>2010-05-13T13:08:05Z</time>
      </trkpt>
      <trkpt lat="48.75087" lon="1.87991">
        <ele>160</ele>
        <time>2010-05-13T13:08:07Z</time>
      </trkpt>
      <trkpt lat="48.75085" lon="1.87993">
        <ele>160</ele>
        <time>2010-05-13T13:08:09Z</time>
      </trkpt>
      <trkpt lat="48.75084" lon="1.87994">
        <ele>160</ele>
        <time>2010-05-13T13:08:10Z</time>
      </trkpt>
      <trkpt lat="48.75082" lon="1.87995">
        <ele>160</ele>
        <time>2010-05-13T13:08:11Z</time>
      </trkpt>
      <trkpt lat="48.7508" lon="1.87997">
        <ele>160</ele>
        <time>2010-05-13T13:08:13Z</time>
      </trkpt>
      <trkpt lat="48.75079" lon="1.87998">
        <ele>160</ele>
        <time>2010-05-13T13:08:14Z</time>
      </trkpt>
      <trkpt lat="48.75078" lon="1.87999">
        <ele>160</ele>
        <time>2010-05-13T13:08:15Z</time>
      </trkpt>
      <trkpt lat="48.75076" lon="1.88">
        <ele>160</ele>
        <time>2010-05-13T13:08:16Z</time>
      </trkpt>
      <trkpt lat="48.75075" lon="1.88">
        <ele>160</ele>
        <time>2010-05-13T13:08:17Z</time>
      </trkpt>
      <trkpt lat="48.75074" lon="1.88001">
        <ele>160</ele>
        <time>2010-05-13T13:08:18Z</time>
      </trkpt>
      <trkpt lat="48.75073" lon="1.88002">
        <ele>160</ele>
        <time>2010-05-13T13:08:19Z</time>
      </trkpt>
      <trkpt lat="48.75072" lon="1.88003">
        <ele>160</ele>
        <time>2010-05-13T13:08:20Z</time>
      </trkpt>
      <trkpt lat="48.7507" lon="1.88004">
        <ele>160</ele>
        <time>2010-05-13T13:08:21Z</time>
      </trkpt>
      <trkpt lat="48.75069" lon="1.88004">
        <ele>160</ele>
        <time>2010-05-13T13:08:22Z</time>
      </trkpt>
      <trkpt lat="48.75067" lon="1.88005">
        <ele>160</ele>
        <time>2010-05-13T13:08:23Z</time>
      </trkpt>
      <trkpt lat="48.75066" lon="1.88007">
        <ele>160</ele>
        <time>2010-05-13T13:08:25Z</time>
      </trkpt>
      <trkpt lat="48.75064" lon="1.88007">
        <ele>160</ele>
        <time>2010-05-13T13:08:26Z</time>
      </trkpt>
      <trkpt lat="48.75063" lon="1.88008">
        <ele>160</ele>
        <time>2010-05-13T13:08:27Z</time>
      </trkpt>
      <trkpt lat="48.75062" lon="1.88008">
        <ele>160</ele>
        <time>2010-05-13T13:08:28Z</time>
      </trkpt>
      <trkpt lat="48.75059" lon="1.8801">
        <ele>160</ele>
        <time>2010-05-13T13:08:30Z</time>
      </trkpt>
      <trkpt lat="48.75058" lon="1.8801">
        <ele>160</ele>
        <time>2010-05-13T13:08:31Z</time>
      </trkpt>
      <trkpt lat="48.75057" lon="1.88011">
        <ele>160</ele>
        <time>2010-05-13T13:08:32Z</time>
      </trkpt>
      <trkpt lat="48.75056" lon="1.88012">
        <ele>160</ele>
        <time>2010-05-13T13:08:33Z</time>
      </trkpt>
      <trkpt lat="48.75055" lon="1.88012">
        <ele>160</ele>
        <time>2010-05-13T13:08:34Z</time>
      </trkpt>
      <trkpt lat="48.75054" lon="1.88013">
        <ele>160</ele>
        <time>2010-05-13T13:08:35Z</time>
      </trkpt>
      <trkpt lat="48.75052" lon="1.88013">
        <ele>160</ele>
        <time>2010-05-13T13:08:36Z</time>
      </trkpt>
      <trkpt lat="48.75051" lon="1.88014">
        <ele>160</ele>
        <time>2010-05-13T13:08:37Z</time>
      </trkpt>
      <trkpt lat="48.7505" lon="1.88014">
        <ele>160</ele>
        <time>2010-05-13T13:08:38Z</time>
      </trkpt>
      <trkpt lat="48.75048" lon="1.88015">
        <ele>160</ele>
        <time>2010-05-13T13:08:39Z</time>
      </trkpt>
      <trkpt lat="48.75047" lon="1.88015">
        <ele>160</ele>
        <time>2010-05-13T13:08:40Z</time>
      </trkpt>
      <trkpt lat="48.75045" lon="1.88016">
        <ele>160</ele>
        <time>2010-05-13T13:08:41Z</time>
      </trkpt>
      <trkpt lat="48.75044" lon="1.88016">
        <ele>160</ele>
        <time>2010-05-13T13:08:42Z</time>
      </trkpt>
      <trkpt lat="48.75043" lon="1.88017">
        <ele>160</ele>
        <time>2010-05-13T13:08:43Z</time>
      </trkpt>
      <trkpt lat="48.75041" lon="1.88017">
        <ele>160</ele>
        <time>2010-05-13T13:08:44Z</time>
      </trkpt>
      <trkpt lat="48.75039" lon="1.88018">
        <ele>160</ele>
        <time>2010-05-13T13:08:46Z</time>
      </trkpt>
      <trkpt lat="48.75037" lon="1.88019">
        <ele>160</ele>
        <time>2010-05-13T13:08:48Z</time>
      </trkpt>
      <trkpt lat="48.75036" lon="1.8802">
        <ele>160</ele>
        <time>2010-05-13T13:08:49Z</time>
      </trkpt>
      <trkpt lat="48.75034" lon="1.8802">
        <ele>160</ele>
        <time>2010-05-13T13:08:50Z</time>
      </trkpt>
      <trkpt lat="48.75033" lon="1.88021">
        <ele>160</ele>
        <time>2010-05-13T13:08:51Z</time>
      </trkpt>
      <trkpt lat="48.75032" lon="1.88021">
        <ele>160</ele>
        <time>2010-05-13T13:08:52Z</time>
      </trkpt>
      <trkpt lat="48.7503" lon="1.88022">
        <ele>160</ele>
        <time>2010-05-13T13:08:53Z</time>
      </trkpt>
      <trkpt lat="48.75029" lon="1.88023">
        <ele>160</ele>
        <time>2010-05-13T13:08:54Z</time>
      </trkpt>
      <trkpt lat="48.75027" lon="1.88023">
        <ele>160</ele>
        <time>2010-05-13T13:08:55Z</time>
      </trkpt>
      <trkpt lat="48.75026" lon="1.88024">
        <ele>160</ele>
        <time>2010-05-13T13:08:56Z</time>
      </trkpt>
      <trkpt lat="48.75025" lon="1.88024">
        <ele>160</ele>
        <time>2010-05-13T13:08:57Z</time>
      </trkpt>
      <trkpt lat="48.75024" lon="1.88025">
        <ele>160</ele>
        <time>2010-05-13T13:08:58Z</time>
      </trkpt>
      <trkpt lat="48.75022" lon="1.88025">
        <ele>160</ele>
        <time>2010-05-13T13:08:59Z</time>
      </trkpt>
      <trkpt lat="48.75021" lon="1.88025">
        <ele>160</ele>
        <time>2010-05-13T13:09:00Z</time>
      </trkpt>
      <trkpt lat="48.7502" lon="1.88026">
        <ele>160</ele>
        <time>2010-05-13T13:09:01Z</time>
      </trkpt>
      <trkpt lat="48.75018" lon="1.88026">
        <ele>160</ele>
        <time>2010-05-13T13:09:02Z</time>
      </trkpt>
      <trkpt lat="48.75017" lon="1.88026">
        <ele>160</ele>
        <time>2010-05-13T13:09:03Z</time>
      </trkpt>
      <trkpt lat="48.75016" lon="1.88026">
        <ele>160</ele>
        <time>2010-05-13T13:09:04Z</time>
      </trkpt>
      <trkpt lat="48.75014" lon="1.88027">
        <ele>160</ele>
        <time>2010-05-13T13:09:05Z</time>
      </trkpt>
      <trkpt lat="48.75013" lon="1.88027">
        <ele>160</ele>
        <time>2010-05-13T13:09:06Z</time>
      </trkpt>
      <trkpt lat="48.75012" lon="1.88028">
        <ele>160</ele>
        <time>2010-05-13T13:09:07Z</time>
      </trkpt>
      <trkpt lat="48.7501" lon="1.88028">
        <ele>160</ele>
        <time>2010-05-13T13:09:08Z</time>
      </trkpt>
      <trkpt lat="48.75009" lon="1.88028">
        <ele>160</ele>
        <time>2010-05-13T13:09:09Z</time>
      </trkpt>
      <trkpt lat="48.75008" lon="1.88029">
        <ele>160</ele>
        <time>2010-05-13T13:09:10Z</time>
      </trkpt>
      <trkpt lat="48.75006" lon="1.8803">
        <ele>160</ele>
        <time>2010-05-13T13:09:11Z</time>
      </trkpt>
      <trkpt lat="48.75005" lon="1.88031">
        <ele>160</ele>
        <time>2010-05-13T13:09:12Z</time>
      </trkpt>
      <trkpt lat="48.75002" lon="1.88032">
        <ele>160</ele>
        <time>2010-05-13T13:09:13Z</time>
      </trkpt>
      <trkpt lat="48.74999" lon="1.88033">
        <ele>160</ele>
        <time>2010-05-13T13:09:14Z</time>
      </trkpt>
      <trkpt lat="48.74996" lon="1.88034">
        <ele>160</ele>
        <time>2010-05-13T13:09:15Z</time>
      </trkpt>
      <trkpt lat="48.74993" lon="1.88035">
        <ele>160</ele>
        <time>2010-05-13T13:09:16Z</time>
      </trkpt>
      <trkpt lat="48.7499" lon="1.88037">
        <ele>160</ele>
        <time>2010-05-13T13:09:17Z</time>
      </trkpt>
      <trkpt lat="48.74987" lon="1.88038">
        <ele>160</ele>
        <time>2010-05-13T13:09:18Z</time>
      </trkpt>
      <trkpt lat="48.74984" lon="1.88039">
        <ele>160</ele>
        <time>2010-05-13T13:09:19Z</time>
      </trkpt>
      <trkpt lat="48.7498" lon="1.88041">
        <ele>160</ele>
        <time>2010-05-13T13:09:20Z</time>
      </trkpt>
      <trkpt lat="48.74978" lon="1.88042">
        <ele>160</ele>
        <time>2010-05-13T13:09:21Z</time>
      </trkpt>
      <trkpt lat="48.74975" lon="1.88043">
        <ele>160</ele>
        <time>2010-05-13T13:09:22Z</time>
      </trkpt>
      <trkpt lat="48.74973" lon="1.88044">
        <ele>160</ele>
        <time>2010-05-13T13:09:23Z</time>
      </trkpt>
      <trkpt lat="48.74972" lon="1.88046">
        <ele>160</ele>
        <time>2010-05-13T13:09:24Z</time>
      </trkpt>
      <trkpt lat="48.7497" lon="1.88047">
        <ele>160</ele>
        <time>2010-05-13T13:09:25Z</time>
      </trkpt>
      <trkpt lat="48.74969" lon="1.88047">
        <ele>160</ele>
        <time>2010-05-13T13:09:26Z</time>
      </trkpt>
      <trkpt lat="48.74966" lon="1.88046">
        <ele>160</ele>
        <time>2010-05-13T13:09:27Z</time>
      </trkpt>
      <trkpt lat="48.74965" lon="1.88047">
        <ele>160</ele>
        <time>2010-05-13T13:09:28Z</time>
      </trkpt>
      <trkpt lat="48.74963" lon="1.88046">
        <ele>161</ele>
        <time>2010-05-13T13:09:29Z</time>
      </trkpt>
      <trkpt lat="48.74961" lon="1.88045">
        <ele>162</ele>
        <time>2010-05-13T13:09:30Z</time>
      </trkpt>
      <trkpt lat="48.7496" lon="1.88046">
        <ele>163</ele>
        <time>2010-05-13T13:09:31Z</time>
      </trkpt>
      <trkpt lat="48.74958" lon="1.88047">
        <ele>164</ele>
        <time>2010-05-13T13:09:33Z</time>
      </trkpt>
      <trkpt lat="48.74956" lon="1.88048">
        <ele>165</ele>
        <time>2010-05-13T13:09:44Z</time>
      </trkpt>
      <trkpt lat="48.74955" lon="1.88049">
        <ele>165</ele>
        <time>2010-05-13T13:09:45Z</time>
      </trkpt>
      <trkpt lat="48.74954" lon="1.88049">
        <ele>165</ele>
        <time>2010-05-13T13:09:46Z</time>
      </trkpt>
      <trkpt lat="48.74952" lon="1.88052">
        <ele>165</ele>
        <time>2010-05-13T13:09:48Z</time>
      </trkpt>
      <trkpt lat="48.7495" lon="1.88051">
        <ele>165</ele>
        <time>2010-05-13T13:09:49Z</time>
      </trkpt>
      <trkpt lat="48.74949" lon="1.88051">
        <ele>165</ele>
        <time>2010-05-13T13:09:50Z</time>
      </trkpt>
      <trkpt lat="48.74947" lon="1.88051">
        <ele>165</ele>
        <time>2010-05-13T13:09:51Z</time>
      </trkpt>
      <trkpt lat="48.74946" lon="1.8805">
        <ele>165</ele>
        <time>2010-05-13T13:09:52Z</time>
      </trkpt>
      <trkpt lat="48.74944" lon="1.8805">
        <ele>166</ele>
        <time>2010-05-13T13:09:53Z</time>
      </trkpt>
      <trkpt lat="48.74943" lon="1.8805">
        <ele>167</ele>
        <time>2010-05-13T13:09:54Z</time>
      </trkpt>
      <trkpt lat="48.74941" lon="1.88051">
        <ele>167</ele>
        <time>2010-05-13T13:09:55Z</time>
      </trkpt>
      <trkpt lat="48.7494" lon="1.88052">
        <ele>168</ele>
        <time>2010-05-13T13:09:56Z</time>
      </trkpt>
      <trkpt lat="48.74938" lon="1.88052">
        <ele>169</ele>
        <time>2010-05-13T13:09:57Z</time>
      </trkpt>
      <trkpt lat="48.74937" lon="1.88053">
        <ele>170</ele>
        <time>2010-05-13T13:09:58Z</time>
      </trkpt>
      <trkpt lat="48.74935" lon="1.88055">
        <ele>170</ele>
        <time>2010-05-13T13:10:00Z</time>
      </trkpt>
      <trkpt lat="48.74934" lon="1.88055">
        <ele>171</ele>
        <time>2010-05-13T13:10:01Z</time>
      </trkpt>
      <trkpt lat="48.74932" lon="1.88057">
        <ele>171</ele>
        <time>2010-05-13T13:10:03Z</time>
      </trkpt>
      <trkpt lat="48.7493" lon="1.88059">
        <ele>171</ele>
        <time>2010-05-13T13:10:04Z</time>
      </trkpt>
      <trkpt lat="48.74928" lon="1.8806">
        <ele>172</ele>
        <time>2010-05-13T13:10:06Z</time>
      </trkpt>
      <trkpt lat="48.74926" lon="1.88061">
        <ele>172</ele>
        <time>2010-05-13T13:10:08Z</time>
      </trkpt>
      <trkpt lat="48.74924" lon="1.88063">
        <ele>172</ele>
        <time>2010-05-13T13:10:10Z</time>
      </trkpt>
      <trkpt lat="48.74922" lon="1.88064">
        <ele>172</ele>
        <time>2010-05-13T13:10:11Z</time>
      </trkpt>
      <trkpt lat="48.74921" lon="1.88065">
        <ele>172</ele>
        <time>2010-05-13T13:10:12Z</time>
      </trkpt>
      <trkpt lat="48.7492" lon="1.88065">
        <ele>172</ele>
        <time>2010-05-13T13:10:13Z</time>
      </trkpt>
      <trkpt lat="48.74919" lon="1.88066">
        <ele>172</ele>
        <time>2010-05-13T13:10:14Z</time>
      </trkpt>
      <trkpt lat="48.74917" lon="1.88069">
        <ele>172</ele>
        <time>2010-05-13T13:10:16Z</time>
      </trkpt>
      <trkpt lat="48.74915" lon="1.88071">
        <ele>172</ele>
        <time>2010-05-13T13:10:18Z</time>
      </trkpt>
      <trkpt lat="48.74914" lon="1.88072">
        <ele>172</ele>
        <time>2010-05-13T13:10:19Z</time>
      </trkpt>
      <trkpt lat="48.74911" lon="1.88073">
        <ele>172</ele>
        <time>2010-05-13T13:10:21Z</time>
      </trkpt>
      <trkpt lat="48.74909" lon="1.88075">
        <ele>172</ele>
        <time>2010-05-13T13:10:23Z</time>
      </trkpt>
      <trkpt lat="48.74907" lon="1.88076">
        <ele>172</ele>
        <time>2010-05-13T13:10:25Z</time>
      </trkpt>
      <trkpt lat="48.74906" lon="1.88079">
        <ele>172</ele>
        <time>2010-05-13T13:10:27Z</time>
      </trkpt>
      <trkpt lat="48.74904" lon="1.88081">
        <ele>172</ele>
        <time>2010-05-13T13:10:29Z</time>
      </trkpt>
      <trkpt lat="48.74902" lon="1.88084">
        <ele>172</ele>
        <time>2010-05-13T13:10:31Z</time>
      </trkpt>
      <trkpt lat="48.749" lon="1.88086">
        <ele>172</ele>
        <time>2010-05-13T13:10:33Z</time>
      </trkpt>
      <trkpt lat="48.74899" lon="1.88088">
        <ele>172</ele>
        <time>2010-05-13T13:10:35Z</time>
      </trkpt>
      <trkpt lat="48.74897" lon="1.88091">
        <ele>172</ele>
        <time>2010-05-13T13:10:37Z</time>
      </trkpt>
      <trkpt lat="48.74895" lon="1.88092">
        <ele>171</ele>
        <time>2010-05-13T13:10:39Z</time>
      </trkpt>
      <trkpt lat="48.74894" lon="1.88093">
        <ele>171</ele>
        <time>2010-05-13T13:10:40Z</time>
      </trkpt>
      <trkpt lat="48.74892" lon="1.88094">
        <ele>171</ele>
        <time>2010-05-13T13:10:42Z</time>
      </trkpt>
      <trkpt lat="48.7489" lon="1.88095">
        <ele>170</ele>
        <time>2010-05-13T13:10:44Z</time>
      </trkpt>
      <trkpt lat="48.74888" lon="1.88096">
        <ele>169</ele>
        <time>2010-05-13T13:10:46Z</time>
      </trkpt>
      <trkpt lat="48.74887" lon="1.88096">
        <ele>169</ele>
        <time>2010-05-13T13:10:47Z</time>
      </trkpt>
      <trkpt lat="48.74886" lon="1.88097">
        <ele>169</ele>
        <time>2010-05-13T13:10:48Z</time>
      </trkpt>
      <trkpt lat="48.74884" lon="1.88096">
        <ele>169</ele>
        <time>2010-05-13T13:10:49Z</time>
      </trkpt>
      <trkpt lat="48.74883" lon="1.88096">
        <ele>169</ele>
        <time>2010-05-13T13:10:50Z</time>
      </trkpt>
      <trkpt lat="48.74882" lon="1.88096">
        <ele>169</ele>
        <time>2010-05-13T13:10:51Z</time>
      </trkpt>
      <trkpt lat="48.74881" lon="1.88095">
        <ele>169</ele>
        <time>2010-05-13T13:10:52Z</time>
      </trkpt>
      <trkpt lat="48.74879" lon="1.88095">
        <ele>169</ele>
        <time>2010-05-13T13:10:53Z</time>
      </trkpt>
      <trkpt lat="48.74878" lon="1.88095">
        <ele>169</ele>
        <time>2010-05-13T13:10:54Z</time>
      </trkpt>
      <trkpt lat="48.74877" lon="1.88096">
        <ele>169</ele>
        <time>2010-05-13T13:10:56Z</time>
      </trkpt>
      <trkpt lat="48.74875" lon="1.88096">
        <ele>169</ele>
        <time>2010-05-13T13:11:00Z</time>
      </trkpt>
      <trkpt lat="48.74873" lon="1.88096">
        <ele>169</ele>
        <time>2010-05-13T13:11:02Z</time>
      </trkpt>
      <trkpt lat="48.74872" lon="1.88096">
        <ele>169</ele>
        <time>2010-05-13T13:11:03Z</time>
      </trkpt>
      <trkpt lat="48.74871" lon="1.88095">
        <ele>169</ele>
        <time>2010-05-13T13:11:04Z</time>
      </trkpt>
      <trkpt lat="48.74869" lon="1.88095">
        <ele>169</ele>
        <time>2010-05-13T13:11:05Z</time>
      </trkpt>
      <trkpt lat="48.74868" lon="1.88095">
        <ele>169</ele>
        <time>2010-05-13T13:11:06Z</time>
      </trkpt>
      <trkpt lat="48.74866" lon="1.88093">
        <ele>169</ele>
        <time>2010-05-13T13:11:08Z</time>
      </trkpt>
      <trkpt lat="48.74865" lon="1.88092">
        <ele>169</ele>
        <time>2010-05-13T13:11:09Z</time>
      </trkpt>
      <trkpt lat="48.74864" lon="1.88092">
        <ele>169</ele>
        <time>2010-05-13T13:11:10Z</time>
      </trkpt>
      <trkpt lat="48.74862" lon="1.88091">
        <ele>169</ele>
        <time>2010-05-13T13:11:11Z</time>
      </trkpt>
      <trkpt lat="48.74861" lon="1.88089">
        <ele>169</ele>
        <time>2010-05-13T13:11:13Z</time>
      </trkpt>
      <trkpt lat="48.74859" lon="1.88087">
        <ele>169</ele>
        <time>2010-05-13T13:11:15Z</time>
      </trkpt>
      <trkpt lat="48.74857" lon="1.88085">
        <ele>169</ele>
        <time>2010-05-13T13:11:17Z</time>
      </trkpt>
      <trkpt lat="48.74855" lon="1.88083">
        <ele>169</ele>
        <time>2010-05-13T13:11:19Z</time>
      </trkpt>
      <trkpt lat="48.74854" lon="1.88082">
        <ele>169</ele>
        <time>2010-05-13T13:11:20Z</time>
      </trkpt>
      <trkpt lat="48.74851" lon="1.8808">
        <ele>169</ele>
        <time>2010-05-13T13:11:22Z</time>
      </trkpt>
      <trkpt lat="48.7485" lon="1.88078">
        <ele>169</ele>
        <time>2010-05-13T13:11:23Z</time>
      </trkpt>
      <trkpt lat="48.74848" lon="1.88076">
        <ele>169</ele>
        <time>2010-05-13T13:11:25Z</time>
      </trkpt>
      <trkpt lat="48.74847" lon="1.88074">
        <ele>169</ele>
        <time>2010-05-13T13:11:26Z</time>
      </trkpt>
      <trkpt lat="48.74845" lon="1.88073">
        <ele>169</ele>
        <time>2010-05-13T13:11:27Z</time>
      </trkpt>
      <trkpt lat="48.74844" lon="1.8807">
        <ele>169</ele>
        <time>2010-05-13T13:11:28Z</time>
      </trkpt>
      <trkpt lat="48.74842" lon="1.88068">
        <ele>169</ele>
        <time>2010-05-13T13:11:29Z</time>
      </trkpt>
      <trkpt lat="48.7484" lon="1.88065">
        <ele>169</ele>
        <time>2010-05-13T13:11:30Z</time>
      </trkpt>
      <trkpt lat="48.74838" lon="1.88062">
        <ele>169</ele>
        <time>2010-05-13T13:11:31Z</time>
      </trkpt>
      <trkpt lat="48.74836" lon="1.88059">
        <ele>169</ele>
        <time>2010-05-13T13:11:32Z</time>
      </trkpt>
      <trkpt lat="48.74834" lon="1.88056">
        <ele>169</ele>
        <time>2010-05-13T13:11:33Z</time>
      </trkpt>
      <trkpt lat="48.74833" lon="1.88054">
        <ele>169</ele>
        <time>2010-05-13T13:11:34Z</time>
      </trkpt>
      <trkpt lat="48.74831" lon="1.88052">
        <ele>169</ele>
        <time>2010-05-13T13:11:35Z</time>
      </trkpt>
      <trkpt lat="48.7483" lon="1.8805">
        <ele>169</ele>
        <time>2010-05-13T13:11:36Z</time>
      </trkpt>
      <trkpt lat="48.74829" lon="1.88049">
        <ele>169</ele>
        <time>2010-05-13T13:11:37Z</time>
      </trkpt>
      <trkpt lat="48.74828" lon="1.88047">
        <ele>169</ele>
        <time>2010-05-13T13:11:38Z</time>
      </trkpt>
      <trkpt lat="48.74828" lon="1.88045">
        <ele>169</ele>
        <time>2010-05-13T13:11:39Z</time>
      </trkpt>
      <trkpt lat="48.74827" lon="1.88043">
        <ele>168</ele>
        <time>2010-05-13T13:11:40Z</time>
      </trkpt>
      <trkpt lat="48.74825" lon="1.8804">
        <ele>167</ele>
        <time>2010-05-13T13:11:42Z</time>
      </trkpt>
      <trkpt lat="48.74823" lon="1.88037">
        <ele>167</ele>
        <time>2010-05-13T13:11:44Z</time>
      </trkpt>
      <trkpt lat="48.74822" lon="1.88035">
        <ele>166</ele>
        <time>2010-05-13T13:11:46Z</time>
      </trkpt>
      <trkpt lat="48.7482" lon="1.88032">
        <ele>166</ele>
        <time>2010-05-13T13:11:48Z</time>
      </trkpt>
      <trkpt lat="48.74818" lon="1.88029">
        <ele>166</ele>
        <time>2010-05-13T13:11:50Z</time>
      </trkpt>
      <trkpt lat="48.74817" lon="1.88026">
        <ele>165</ele>
        <time>2010-05-13T13:11:52Z</time>
      </trkpt>
      <trkpt lat="48.74815" lon="1.88023">
        <ele>165</ele>
        <time>2010-05-13T13:11:54Z</time>
      </trkpt>
      <trkpt lat="48.74814" lon="1.88021">
        <ele>165</ele>
        <time>2010-05-13T13:11:55Z</time>
      </trkpt>
      <trkpt lat="48.74813" lon="1.88018">
        <ele>165</ele>
        <time>2010-05-13T13:11:57Z</time>
      </trkpt>
      <trkpt lat="48.74811" lon="1.88015">
        <ele>165</ele>
        <time>2010-05-13T13:11:59Z</time>
      </trkpt>
      <trkpt lat="48.74809" lon="1.88013">
        <ele>164</ele>
        <time>2010-05-13T13:12:01Z</time>
      </trkpt>
      <trkpt lat="48.74808" lon="1.8801">
        <ele>164</ele>
        <time>2010-05-13T13:12:03Z</time>
      </trkpt>
      <trkpt lat="48.74806" lon="1.88007">
        <ele>164</ele>
        <time>2010-05-13T13:12:05Z</time>
      </trkpt>
      <trkpt lat="48.74805" lon="1.88004">
        <ele>164</ele>
        <time>2010-05-13T13:12:07Z</time>
      </trkpt>
      <trkpt lat="48.74803" lon="1.88001">
        <ele>163</ele>
        <time>2010-05-13T13:12:09Z</time>
      </trkpt>
      <trkpt lat="48.74801" lon="1.87998">
        <ele>163</ele>
        <time>2010-05-13T13:12:11Z</time>
      </trkpt>
      <trkpt lat="48.74801" lon="1.87996">
        <ele>163</ele>
        <time>2010-05-13T13:12:12Z</time>
      </trkpt>
      <trkpt lat="48.74799" lon="1.87993">
        <ele>162</ele>
        <time>2010-05-13T13:12:14Z</time>
      </trkpt>
      <trkpt lat="48.74797" lon="1.8799">
        <ele>162</ele>
        <time>2010-05-13T13:12:16Z</time>
      </trkpt>
      <trkpt lat="48.74796" lon="1.87989">
        <ele>162</ele>
        <time>2010-05-13T13:12:17Z</time>
      </trkpt>
      <trkpt lat="48.74795" lon="1.87987">
        <ele>162</ele>
        <time>2010-05-13T13:12:18Z</time>
      </trkpt>
      <trkpt lat="48.74794" lon="1.87985">
        <ele>162</ele>
        <time>2010-05-13T13:12:19Z</time>
      </trkpt>
      <trkpt lat="48.74794" lon="1.87984">
        <ele>162</ele>
        <time>2010-05-13T13:12:20Z</time>
      </trkpt>
      <trkpt lat="48.74792" lon="1.87981">
        <ele>162</ele>
        <time>2010-05-13T13:12:22Z</time>
      </trkpt>
      <trkpt lat="48.74791" lon="1.87979">
        <ele>162</ele>
        <time>2010-05-13T13:12:23Z</time>
      </trkpt>
      <trkpt lat="48.74789" lon="1.87976">
        <ele>162</ele>
        <time>2010-05-13T13:12:25Z</time>
      </trkpt>
      <trkpt lat="48.74788" lon="1.87974">
        <ele>161</ele>
        <time>2010-05-13T13:12:27Z</time>
      </trkpt>
      <trkpt lat="48.74786" lon="1.87971">
        <ele>161</ele>
        <time>2010-05-13T13:12:29Z</time>
      </trkpt>
      <trkpt lat="48.74784" lon="1.87968">
        <ele>161</ele>
        <time>2010-05-13T13:12:31Z</time>
      </trkpt>
      <trkpt lat="48.74783" lon="1.87965">
        <ele>161</ele>
        <time>2010-05-13T13:12:33Z</time>
      </trkpt>
      <trkpt lat="48.74782" lon="1.87964">
        <ele>161</ele>
        <time>2010-05-13T13:12:34Z</time>
      </trkpt>
      <trkpt lat="48.7478" lon="1.87961">
        <ele>161</ele>
        <time>2010-05-13T13:12:36Z</time>
      </trkpt>
      <trkpt lat="48.74779" lon="1.87959">
        <ele>161</ele>
        <time>2010-05-13T13:12:37Z</time>
      </trkpt>
      <trkpt lat="48.74778" lon="1.87957">
        <ele>161</ele>
        <time>2010-05-13T13:12:38Z</time>
      </trkpt>
      <trkpt lat="48.74778" lon="1.87956">
        <ele>161</ele>
        <time>2010-05-13T13:12:39Z</time>
      </trkpt>
      <trkpt lat="48.74777" lon="1.87954">
        <ele>160</ele>
        <time>2010-05-13T13:12:40Z</time>
      </trkpt>
      <trkpt lat="48.74776" lon="1.87952">
        <ele>160</ele>
        <time>2010-05-13T13:12:41Z</time>
      </trkpt>
      <trkpt lat="48.74775" lon="1.87949">
        <ele>160</ele>
        <time>2010-05-13T13:12:43Z</time>
      </trkpt>
      <trkpt lat="48.74774" lon="1.87947">
        <ele>160</ele>
        <time>2010-05-13T13:12:44Z</time>
      </trkpt>
      <trkpt lat="48.74773" lon="1.87945">
        <ele>160</ele>
        <time>2010-05-13T13:12:45Z</time>
      </trkpt>
      <trkpt lat="48.74772" lon="1.87944">
        <ele>160</ele>
        <time>2010-05-13T13:12:46Z</time>
      </trkpt>
      <trkpt lat="48.74771" lon="1.87942">
        <ele>160</ele>
        <time>2010-05-13T13:12:47Z</time>
      </trkpt>
      <trkpt lat="48.74771" lon="1.8794">
        <ele>160</ele>
        <time>2010-05-13T13:12:48Z</time>
      </trkpt>
      <trkpt lat="48.7477" lon="1.87938">
        <ele>160</ele>
        <time>2010-05-13T13:12:49Z</time>
      </trkpt>
      <trkpt lat="48.74769" lon="1.87937">
        <ele>160</ele>
        <time>2010-05-13T13:12:50Z</time>
      </trkpt>
      <trkpt lat="48.74769" lon="1.87935">
        <ele>159</ele>
        <time>2010-05-13T13:12:51Z</time>
      </trkpt>
      <trkpt lat="48.74768" lon="1.87933">
        <ele>159</ele>
        <time>2010-05-13T13:12:52Z</time>
      </trkpt>
      <trkpt lat="48.74767" lon="1.87931">
        <ele>159</ele>
        <time>2010-05-13T13:12:53Z</time>
      </trkpt>
      <trkpt lat="48.74767" lon="1.87929">
        <ele>159</ele>
        <time>2010-05-13T13:12:54Z</time>
      </trkpt>
      <trkpt lat="48.74766" lon="1.87927">
        <ele>159</ele>
        <time>2010-05-13T13:12:55Z</time>
      </trkpt>
      <trkpt lat="48.74766" lon="1.87925">
        <ele>159</ele>
        <time>2010-05-13T13:12:56Z</time>
      </trkpt>
      <trkpt lat="48.74765" lon="1.87921">
        <ele>159</ele>
        <time>2010-05-13T13:12:57Z</time>
      </trkpt>
      <trkpt lat="48.74763" lon="1.87917">
        <ele>159</ele>
        <time>2010-05-13T13:12:58Z</time>
      </trkpt>
      <trkpt lat="48.74762" lon="1.87912">
        <ele>159</ele>
        <time>2010-05-13T13:12:59Z</time>
      </trkpt>
      <trkpt lat="48.74761" lon="1.87908">
        <ele>159</ele>
        <time>2010-05-13T13:13:00Z</time>
      </trkpt>
      <trkpt lat="48.7476" lon="1.87904">
        <ele>159</ele>
        <time>2010-05-13T13:13:01Z</time>
      </trkpt>
      <trkpt lat="48.7476" lon="1.87898">
        <ele>159</ele>
        <time>2010-05-13T13:13:02Z</time>
      </trkpt>
      <trkpt lat="48.74759" lon="1.87893">
        <ele>159</ele>
        <time>2010-05-13T13:13:03Z</time>
      </trkpt>
      <trkpt lat="48.74759" lon="1.87888">
        <ele>159</ele>
        <time>2010-05-13T13:13:04Z</time>
      </trkpt>
      <trkpt lat="48.74758" lon="1.87882">
        <ele>159</ele>
        <time>2010-05-13T13:13:05Z</time>
      </trkpt>
      <trkpt lat="48.74758" lon="1.87877">
        <ele>159</ele>
        <time>2010-05-13T13:13:06Z</time>
      </trkpt>
      <trkpt lat="48.74757" lon="1.87871">
        <ele>159</ele>
        <time>2010-05-13T13:13:07Z</time>
      </trkpt>
      <trkpt lat="48.74757" lon="1.87867">
        <ele>159</ele>
        <time>2010-05-13T13:13:08Z</time>
      </trkpt>
      <trkpt lat="48.74757" lon="1.87862">
        <ele>159</ele>
        <time>2010-05-13T13:13:09Z</time>
      </trkpt>
      <trkpt lat="48.74757" lon="1.87858">
        <ele>159</ele>
        <time>2010-05-13T13:13:10Z</time>
      </trkpt>
      <trkpt lat="48.74757" lon="1.87854">
        <ele>159</ele>
        <time>2010-05-13T13:13:11Z</time>
      </trkpt>
      <trkpt lat="48.74758" lon="1.87849">
        <ele>159</ele>
        <time>2010-05-13T13:13:12Z</time>
      </trkpt>
      <trkpt lat="48.74758" lon="1.87845">
        <ele>159</ele>
        <time>2010-05-13T13:13:13Z</time>
      </trkpt>
      <trkpt lat="48.74758" lon="1.87841">
        <ele>159</ele>
        <time>2010-05-13T13:13:14Z</time>
      </trkpt>
      <trkpt lat="48.74758" lon="1.87838">
        <ele>159</ele>
        <time>2010-05-13T13:13:15Z</time>
      </trkpt>
      <trkpt lat="48.74758" lon="1.87835">
        <ele>159</ele>
        <time>2010-05-13T13:13:16Z</time>
      </trkpt>
      <trkpt lat="48.74758" lon="1.87832">
        <ele>159</ele>
        <time>2010-05-13T13:13:17Z</time>
      </trkpt>
      <trkpt lat="48.74758" lon="1.87829">
        <ele>159</ele>
        <time>2010-05-13T13:13:18Z</time>
      </trkpt>
      <trkpt lat="48.74758" lon="1.87827">
        <ele>159</ele>
        <time>2010-05-13T13:13:19Z</time>
      </trkpt>
      <trkpt lat="48.74758" lon="1.87825">
        <ele>159</ele>
        <time>2010-05-13T13:13:21Z</time>
      </trkpt>
      <trkpt lat="48.74758" lon="1.87822">
        <ele>159</ele>
        <time>2010-05-13T13:13:23Z</time>
      </trkpt>
      <trkpt lat="48.74758" lon="1.8782">
        <ele>159</ele>
        <time>2010-05-13T13:13:24Z</time>
      </trkpt>
      <trkpt lat="48.74758" lon="1.87816">
        <ele>159</ele>
        <time>2010-05-13T13:13:25Z</time>
      </trkpt>
      <trkpt lat="48.74759" lon="1.87813">
        <ele>159</ele>
        <time>2010-05-13T13:13:26Z</time>
      </trkpt>
      <trkpt lat="48.74759" lon="1.87811">
        <ele>159</ele>
        <time>2010-05-13T13:13:27Z</time>
      </trkpt>
      <trkpt lat="48.74759" lon="1.87808">
        <ele>159</ele>
        <time>2010-05-13T13:13:28Z</time>
      </trkpt>
      <trkpt lat="48.74758" lon="1.87806">
        <ele>159</ele>
        <time>2010-05-13T13:13:29Z</time>
      </trkpt>
      <trkpt lat="48.74758" lon="1.87803">
        <ele>158</ele>
        <time>2010-05-13T13:13:30Z</time>
      </trkpt>
      <trkpt lat="48.74759" lon="1.87801">
        <ele>158</ele>
        <time>2010-05-13T13:13:31Z</time>
      </trkpt>
      <trkpt lat="48.74759" lon="1.87798">
        <ele>157</ele>
        <time>2010-05-13T13:13:32Z</time>
      </trkpt>
      <trkpt lat="48.7476" lon="1.87794">
        <ele>157</ele>
        <time>2010-05-13T13:13:33Z</time>
      </trkpt>
      <trkpt lat="48.7476" lon="1.87791">
        <ele>157</ele>
        <time>2010-05-13T13:13:34Z</time>
      </trkpt>
      <trkpt lat="48.74761" lon="1.87787">
        <ele>157</ele>
        <time>2010-05-13T13:13:35Z</time>
      </trkpt>
      <trkpt lat="48.74761" lon="1.87783">
        <ele>157</ele>
        <time>2010-05-13T13:13:36Z</time>
      </trkpt>
      <trkpt lat="48.74762" lon="1.8778">
        <ele>157</ele>
        <time>2010-05-13T13:13:37Z</time>
      </trkpt>
      <trkpt lat="48.74762" lon="1.87776">
        <ele>157</ele>
        <time>2010-05-13T13:13:38Z</time>
      </trkpt>
      <trkpt lat="48.74762" lon="1.87772">
        <ele>157</ele>
        <time>2010-05-13T13:13:39Z</time>
      </trkpt>
      <trkpt lat="48.74762" lon="1.87769">
        <ele>157</ele>
        <time>2010-05-13T13:13:40Z</time>
      </trkpt>
      <trkpt lat="48.74762" lon="1.87766">
        <ele>157</ele>
        <time>2010-05-13T13:13:41Z</time>
      </trkpt>
      <trkpt lat="48.74762" lon="1.87763">
        <ele>157</ele>
        <time>2010-05-13T13:13:42Z</time>
      </trkpt>
      <trkpt lat="48.74762" lon="1.87761">
        <ele>157</ele>
        <time>2010-05-13T13:13:43Z</time>
      </trkpt>
      <trkpt lat="48.74762" lon="1.87759">
        <ele>157</ele>
        <time>2010-05-13T13:13:44Z</time>
      </trkpt>
      <trkpt lat="48.74762" lon="1.87756">
        <ele>157</ele>
        <time>2010-05-13T13:13:45Z</time>
      </trkpt>
      <trkpt lat="48.74762" lon="1.87755">
        <ele>157</ele>
        <time>2010-05-13T13:13:46Z</time>
      </trkpt>
      <trkpt lat="48.74762" lon="1.87753">
        <ele>157</ele>
        <time>2010-05-13T13:13:47Z</time>
      </trkpt>
      <trkpt lat="48.74762" lon="1.8775">
        <ele>157</ele>
        <time>2010-05-13T13:13:48Z</time>
      </trkpt>
      <trkpt lat="48.74763" lon="1.87748">
        <ele>157</ele>
        <time>2010-05-13T13:13:49Z</time>
      </trkpt>
      <trkpt lat="48.74763" lon="1.87746">
        <ele>157</ele>
        <time>2010-05-13T13:13:50Z</time>
      </trkpt>
      <trkpt lat="48.74763" lon="1.87744">
        <ele>157</ele>
        <time>2010-05-13T13:13:51Z</time>
      </trkpt>
      <trkpt lat="48.74763" lon="1.87742">
        <ele>157</ele>
        <time>2010-05-13T13:13:52Z</time>
      </trkpt>
      <trkpt lat="48.74763" lon="1.87739">
        <ele>157</ele>
        <time>2010-05-13T13:13:53Z</time>
      </trkpt>
      <trkpt lat="48.74763" lon="1.87737">
        <ele>157</ele>
        <time>2010-05-13T13:13:54Z</time>
      </trkpt>
      <trkpt lat="48.74764" lon="1.87734">
        <ele>157</ele>
        <time>2010-05-13T13:13:55Z</time>
      </trkpt>
      <trkpt lat="48.74764" lon="1.87732">
        <ele>157</ele>
        <time>2010-05-13T13:13:56Z</time>
      </trkpt>
      <trkpt lat="48.74765" lon="1.8773">
        <ele>157</ele>
        <time>2010-05-13T13:13:57Z</time>
      </trkpt>
      <trkpt lat="48.74765" lon="1.87727">
        <ele>157</ele>
        <time>2010-05-13T13:13:58Z</time>
      </trkpt>
      <trkpt lat="48.74765" lon="1.87725">
        <ele>157</ele>
        <time>2010-05-13T13:13:59Z</time>
      </trkpt>
      <trkpt lat="48.74765" lon="1.87723">
        <ele>157</ele>
        <time>2010-05-13T13:14:00Z</time>
      </trkpt>
      <trkpt lat="48.74765" lon="1.8772">
        <ele>157</ele>
        <time>2010-05-13T13:14:01Z</time>
      </trkpt>
      <trkpt lat="48.74764" lon="1.87716">
        <ele>157</ele>
        <time>2010-05-13T13:14:02Z</time>
      </trkpt>
      <trkpt lat="48.74764" lon="1.87711">
        <ele>157</ele>
        <time>2010-05-13T13:14:03Z</time>
      </trkpt>
      <trkpt lat="48.74765" lon="1.87707">
        <ele>157</ele>
        <time>2010-05-13T13:14:04Z</time>
      </trkpt>
      <trkpt lat="48.74765" lon="1.87702">
        <ele>157</ele>
        <time>2010-05-13T13:14:05Z</time>
      </trkpt>
      <trkpt lat="48.74765" lon="1.87698">
        <ele>157</ele>
        <time>2010-05-13T13:14:06Z</time>
      </trkpt>
      <trkpt lat="48.74766" lon="1.87694">
        <ele>157</ele>
        <time>2010-05-13T13:14:07Z</time>
      </trkpt>
      <trkpt lat="48.74766" lon="1.87688">
        <ele>157</ele>
        <time>2010-05-13T13:14:08Z</time>
      </trkpt>
      <trkpt lat="48.74766" lon="1.87684">
        <ele>157</ele>
        <time>2010-05-13T13:14:09Z</time>
      </trkpt>
      <trkpt lat="48.74766" lon="1.87681">
        <ele>157</ele>
        <time>2010-05-13T13:14:10Z</time>
      </trkpt>
      <trkpt lat="48.74767" lon="1.87678">
        <ele>158</ele>
        <time>2010-05-13T13:14:11Z</time>
      </trkpt>
      <trkpt lat="48.74767" lon="1.87675">
        <ele>158</ele>
        <time>2010-05-13T13:14:12Z</time>
      </trkpt>
      <trkpt lat="48.74767" lon="1.87672">
        <ele>159</ele>
        <time>2010-05-13T13:14:13Z</time>
      </trkpt>
      <trkpt lat="48.74767" lon="1.87669">
        <ele>159</ele>
        <time>2010-05-13T13:14:14Z</time>
      </trkpt>
      <trkpt lat="48.74767" lon="1.87667">
        <ele>160</ele>
        <time>2010-05-13T13:14:15Z</time>
      </trkpt>
      <trkpt lat="48.74767" lon="1.87665">
        <ele>160</ele>
        <time>2010-05-13T13:14:16Z</time>
      </trkpt>
      <trkpt lat="48.74768" lon="1.87663">
        <ele>160</ele>
        <time>2010-05-13T13:14:17Z</time>
      </trkpt>
      <trkpt lat="48.74768" lon="1.87661">
        <ele>160</ele>
        <time>2010-05-13T13:14:18Z</time>
      </trkpt>
      <trkpt lat="48.74768" lon="1.87659">
        <ele>160</ele>
        <time>2010-05-13T13:14:19Z</time>
      </trkpt>
      <trkpt lat="48.74768" lon="1.87657">
        <ele>160</ele>
        <time>2010-05-13T13:14:20Z</time>
      </trkpt>
      <trkpt lat="48.74768" lon="1.87655">
        <ele>160</ele>
        <time>2010-05-13T13:14:21Z</time>
      </trkpt>
      <trkpt lat="48.74768" lon="1.87653">
        <ele>160</ele>
        <time>2010-05-13T13:14:22Z</time>
      </trkpt>
      <trkpt lat="48.74768" lon="1.8765">
        <ele>160</ele>
        <time>2010-05-13T13:14:23Z</time>
      </trkpt>
      <trkpt lat="48.74768" lon="1.87649">
        <ele>160</ele>
        <time>2010-05-13T13:14:24Z</time>
      </trkpt>
      <trkpt lat="48.74768" lon="1.87647">
        <ele>160</ele>
        <time>2010-05-13T13:14:25Z</time>
      </trkpt>
      <trkpt lat="48.74768" lon="1.87644">
        <ele>160</ele>
        <time>2010-05-13T13:14:26Z</time>
      </trkpt>
      <trkpt lat="48.74768" lon="1.87643">
        <ele>160</ele>
        <time>2010-05-13T13:14:27Z</time>
      </trkpt>
      <trkpt lat="48.74769" lon="1.87641">
        <ele>160</ele>
        <time>2010-05-13T13:14:28Z</time>
      </trkpt>
      <trkpt lat="48.74769" lon="1.87639">
        <ele>160</ele>
        <time>2010-05-13T13:14:29Z</time>
      </trkpt>
      <trkpt lat="48.74769" lon="1.87637">
        <ele>160</ele>
        <time>2010-05-13T13:14:30Z</time>
      </trkpt>
      <trkpt lat="48.74769" lon="1.87635">
        <ele>160</ele>
        <time>2010-05-13T13:14:31Z</time>
      </trkpt>
      <trkpt lat="48.74769" lon="1.87633">
        <ele>160</ele>
        <time>2010-05-13T13:14:32Z</time>
      </trkpt>
      <trkpt lat="48.7477" lon="1.8763">
        <ele>160</ele>
        <time>2010-05-13T13:14:33Z</time>
      </trkpt>
      <trkpt lat="48.7477" lon="1.87627">
        <ele>160</ele>
        <time>2010-05-13T13:14:34Z</time>
      </trkpt>
      <trkpt lat="48.74771" lon="1.87624">
        <ele>160</ele>
        <time>2010-05-13T13:14:35Z</time>
      </trkpt>
      <trkpt lat="48.74771" lon="1.87622">
        <ele>160</ele>
        <time>2010-05-13T13:14:36Z</time>
      </trkpt>
      <trkpt lat="48.74772" lon="1.87619">
        <ele>161</ele>
        <time>2010-05-13T13:14:37Z</time>
      </trkpt>
      <trkpt lat="48.74772" lon="1.87616">
        <ele>161</ele>
        <time>2010-05-13T13:14:38Z</time>
      </trkpt>
      <trkpt lat="48.74772" lon="1.87614">
        <ele>162</ele>
        <time>2010-05-13T13:14:39Z</time>
      </trkpt>
      <trkpt lat="48.74772" lon="1.87612">
        <ele>162</ele>
        <time>2010-05-13T13:14:40Z</time>
      </trkpt>
      <trkpt lat="48.74772" lon="1.8761">
        <ele>162</ele>
        <time>2010-05-13T13:14:41Z</time>
      </trkpt>
      <trkpt lat="48.74772" lon="1.87608">
        <ele>162</ele>
        <time>2010-05-13T13:14:42Z</time>
      </trkpt>
      <trkpt lat="48.74773" lon="1.87606">
        <ele>163</ele>
        <time>2010-05-13T13:14:43Z</time>
      </trkpt>
      <trkpt lat="48.74773" lon="1.87604">
        <ele>163</ele>
        <time>2010-05-13T13:14:44Z</time>
      </trkpt>
      <trkpt lat="48.74773" lon="1.87602">
        <ele>163</ele>
        <time>2010-05-13T13:14:45Z</time>
      </trkpt>
      <trkpt lat="48.74773" lon="1.876">
        <ele>163</ele>
        <time>2010-05-13T13:14:46Z</time>
      </trkpt>
      <trkpt lat="48.74773" lon="1.87598">
        <ele>163</ele>
        <time>2010-05-13T13:14:47Z</time>
      </trkpt>
      <trkpt lat="48.74773" lon="1.87596">
        <ele>163</ele>
        <time>2010-05-13T13:14:48Z</time>
      </trkpt>
      <trkpt lat="48.74773" lon="1.87594">
        <ele>164</ele>
        <time>2010-05-13T13:14:49Z</time>
      </trkpt>
      <trkpt lat="48.74773" lon="1.87592">
        <ele>164</ele>
        <time>2010-05-13T13:14:50Z</time>
      </trkpt>
      <trkpt lat="48.74773" lon="1.8759">
        <ele>164</ele>
        <time>2010-05-13T13:14:51Z</time>
      </trkpt>
      <trkpt lat="48.74773" lon="1.87588">
        <ele>164</ele>
        <time>2010-05-13T13:14:52Z</time>
      </trkpt>
      <trkpt lat="48.74774" lon="1.87586">
        <ele>164</ele>
        <time>2010-05-13T13:14:53Z</time>
      </trkpt>
      <trkpt lat="48.74774" lon="1.87583">
        <ele>164</ele>
        <time>2010-05-13T13:14:54Z</time>
      </trkpt>
      <trkpt lat="48.74773" lon="1.87581">
        <ele>164</ele>
        <time>2010-05-13T13:14:55Z</time>
      </trkpt>
      <trkpt lat="48.74773" lon="1.87579">
        <ele>164</ele>
        <time>2010-05-13T13:14:56Z</time>
      </trkpt>
      <trkpt lat="48.74773" lon="1.87577">
        <ele>164</ele>
        <time>2010-05-13T13:14:57Z</time>
      </trkpt>
      <trkpt lat="48.74773" lon="1.87575">
        <ele>164</ele>
        <time>2010-05-13T13:14:58Z</time>
      </trkpt>
      <trkpt lat="48.74773" lon="1.87572">
        <ele>164</ele>
        <time>2010-05-13T13:14:59Z</time>
      </trkpt>
      <trkpt lat="48.74773" lon="1.8757">
        <ele>164</ele>
        <time>2010-05-13T13:15:00Z</time>
      </trkpt>
      <trkpt lat="48.74774" lon="1.87568">
        <ele>164</ele>
        <time>2010-05-13T13:15:01Z</time>
      </trkpt>
      <trkpt lat="48.74774" lon="1.87566">
        <ele>164</ele>
        <time>2010-05-13T13:15:02Z</time>
      </trkpt>
      <trkpt lat="48.74774" lon="1.87563">
        <ele>164</ele>
        <time>2010-05-13T13:15:03Z</time>
      </trkpt>
      <trkpt lat="48.74774" lon="1.8756">
        <ele>164</ele>
        <time>2010-05-13T13:15:04Z</time>
      </trkpt>
      <trkpt lat="48.74774" lon="1.87558">
        <ele>164</ele>
        <time>2010-05-13T13:15:05Z</time>
      </trkpt>
      <trkpt lat="48.74773" lon="1.87554">
        <ele>164</ele>
        <time>2010-05-13T13:15:06Z</time>
      </trkpt>
      <trkpt lat="48.74773" lon="1.87552">
        <ele>164</ele>
        <time>2010-05-13T13:15:07Z</time>
      </trkpt>
      <trkpt lat="48.74773" lon="1.87549">
        <ele>164</ele>
        <time>2010-05-13T13:15:08Z</time>
      </trkpt>
      <trkpt lat="48.74773" lon="1.87547">
        <ele>164</ele>
        <time>2010-05-13T13:15:09Z</time>
      </trkpt>
      <trkpt lat="48.74773" lon="1.87544">
        <ele>164</ele>
        <time>2010-05-13T13:15:10Z</time>
      </trkpt>
      <trkpt lat="48.74773" lon="1.87542">
        <ele>164</ele>
        <time>2010-05-13T13:15:11Z</time>
      </trkpt>
      <trkpt lat="48.74773" lon="1.8754">
        <ele>164</ele>
        <time>2010-05-13T13:15:12Z</time>
      </trkpt>
      <trkpt lat="48.74773" lon="1.87537">
        <ele>164</ele>
        <time>2010-05-13T13:15:13Z</time>
      </trkpt>
      <trkpt lat="48.74774" lon="1.87534">
        <ele>164</ele>
        <time>2010-05-13T13:15:14Z</time>
      </trkpt>
      <trkpt lat="48.74774" lon="1.8753">
        <ele>164</ele>
        <time>2010-05-13T13:15:15Z</time>
      </trkpt>
      <trkpt lat="48.74774" lon="1.87525">
        <ele>164</ele>
        <time>2010-05-13T13:15:16Z</time>
      </trkpt>
      <trkpt lat="48.74774" lon="1.87521">
        <ele>164</ele>
        <time>2010-05-13T13:15:17Z</time>
      </trkpt>
      <trkpt lat="48.74774" lon="1.87515">
        <ele>164</ele>
        <time>2010-05-13T13:15:18Z</time>
      </trkpt>
      <trkpt lat="48.74775" lon="1.8751">
        <ele>164</ele>
        <time>2010-05-13T13:15:19Z</time>
      </trkpt>
      <trkpt lat="48.74775" lon="1.87504">
        <ele>164</ele>
        <time>2010-05-13T13:15:20Z</time>
      </trkpt>
      <trkpt lat="48.74775" lon="1.87499">
        <ele>164</ele>
        <time>2010-05-13T13:15:21Z</time>
      </trkpt>
      <trkpt lat="48.74775" lon="1.87494">
        <ele>164</ele>
        <time>2010-05-13T13:15:22Z</time>
      </trkpt>
      <trkpt lat="48.74775" lon="1.87488">
        <ele>164</ele>
        <time>2010-05-13T13:15:23Z</time>
      </trkpt>
      <trkpt lat="48.74775" lon="1.87482">
        <ele>164</ele>
        <time>2010-05-13T13:15:24Z</time>
      </trkpt>
      <trkpt lat="48.74774" lon="1.87476">
        <ele>164</ele>
        <time>2010-05-13T13:15:25Z</time>
      </trkpt>
      <trkpt lat="48.74774" lon="1.87471">
        <ele>164</ele>
        <time>2010-05-13T13:15:26Z</time>
      </trkpt>
      <trkpt lat="48.74774" lon="1.87466">
        <ele>164</ele>
        <time>2010-05-13T13:15:27Z</time>
      </trkpt>
      <trkpt lat="48.74774" lon="1.87461">
        <ele>164</ele>
        <time>2010-05-13T13:15:28Z</time>
      </trkpt>
      <trkpt lat="48.74773" lon="1.87456">
        <ele>164</ele>
        <time>2010-05-13T13:15:29Z</time>
      </trkpt>
      <trkpt lat="48.74773" lon="1.87451">
        <ele>164</ele>
        <time>2010-05-13T13:15:30Z</time>
      </trkpt>
      <trkpt lat="48.74773" lon="1.87446">
        <ele>164</ele>
        <time>2010-05-13T13:15:31Z</time>
      </trkpt>
      <trkpt lat="48.74774" lon="1.87442">
        <ele>164</ele>
        <time>2010-05-13T13:15:32Z</time>
      </trkpt>
      <trkpt lat="48.74774" lon="1.87437">
        <ele>164</ele>
        <time>2010-05-13T13:15:33Z</time>
      </trkpt>
      <trkpt lat="48.74774" lon="1.87433">
        <ele>164</ele>
        <time>2010-05-13T13:15:34Z</time>
      </trkpt>
      <trkpt lat="48.74774" lon="1.87429">
        <ele>164</ele>
        <time>2010-05-13T13:15:35Z</time>
      </trkpt>
      <trkpt lat="48.74775" lon="1.87425">
        <ele>164</ele>
        <time>2010-05-13T13:15:36Z</time>
      </trkpt>
      <trkpt lat="48.74775" lon="1.87421">
        <ele>164</ele>
        <time>2010-05-13T13:15:37Z</time>
      </trkpt>
      <trkpt lat="48.74775" lon="1.87417">
        <ele>163</ele>
        <time>2010-05-13T13:15:38Z</time>
      </trkpt>
      <trkpt lat="48.74776" lon="1.87412">
        <ele>163</ele>
        <time>2010-05-13T13:15:39Z</time>
      </trkpt>
      <trkpt lat="48.74776" lon="1.87408">
        <ele>163</ele>
        <time>2010-05-13T13:15:40Z</time>
      </trkpt>
      <trkpt lat="48.74776" lon="1.87403">
        <ele>163</ele>
        <time>2010-05-13T13:15:41Z</time>
      </trkpt>
      <trkpt lat="48.74776" lon="1.87399">
        <ele>163</ele>
        <time>2010-05-13T13:15:42Z</time>
      </trkpt>
      <trkpt lat="48.74776" lon="1.87394">
        <ele>163</ele>
        <time>2010-05-13T13:15:43Z</time>
      </trkpt>
      <trkpt lat="48.74777" lon="1.8739">
        <ele>163</ele>
        <time>2010-05-13T13:15:44Z</time>
      </trkpt>
      <trkpt lat="48.74778" lon="1.87386">
        <ele>163</ele>
        <time>2010-05-13T13:15:45Z</time>
      </trkpt>
      <trkpt lat="48.74778" lon="1.87382">
        <ele>163</ele>
        <time>2010-05-13T13:15:46Z</time>
      </trkpt>
      <trkpt lat="48.74778" lon="1.87377">
        <ele>163</ele>
        <time>2010-05-13T13:15:47Z</time>
      </trkpt>
      <trkpt lat="48.74779" lon="1.87373">
        <ele>163</ele>
        <time>2010-05-13T13:15:48Z</time>
      </trkpt>
      <trkpt lat="48.74779" lon="1.87369">
        <ele>163</ele>
        <time>2010-05-13T13:15:49Z</time>
      </trkpt>
      <trkpt lat="48.74779" lon="1.87365">
        <ele>163</ele>
        <time>2010-05-13T13:15:50Z</time>
      </trkpt>
      <trkpt lat="48.74779" lon="1.87361">
        <ele>163</ele>
        <time>2010-05-13T13:15:51Z</time>
      </trkpt>
      <trkpt lat="48.74779" lon="1.87357">
        <ele>163</ele>
        <time>2010-05-13T13:15:52Z</time>
      </trkpt>
      <trkpt lat="48.74779" lon="1.87352">
        <ele>163</ele>
        <time>2010-05-13T13:15:53Z</time>
      </trkpt>
      <trkpt lat="48.7478" lon="1.87348">
        <ele>163</ele>
        <time>2010-05-13T13:15:54Z</time>
      </trkpt>
      <trkpt lat="48.7478" lon="1.87344">
        <ele>163</ele>
        <time>2010-05-13T13:15:55Z</time>
      </trkpt>
      <trkpt lat="48.7478" lon="1.8734">
        <ele>163</ele>
        <time>2010-05-13T13:15:56Z</time>
      </trkpt>
      <trkpt lat="48.7478" lon="1.87336">
        <ele>163</ele>
        <time>2010-05-13T13:15:57Z</time>
      </trkpt>
      <trkpt lat="48.74779" lon="1.87332">
        <ele>163</ele>
        <time>2010-05-13T13:15:58Z</time>
      </trkpt>
      <trkpt lat="48.74779" lon="1.87329">
        <ele>163</ele>
        <time>2010-05-13T13:15:59Z</time>
      </trkpt>
      <trkpt lat="48.74779" lon="1.87325">
        <ele>163</ele>
        <time>2010-05-13T13:16:00Z</time>
      </trkpt>
      <trkpt lat="48.74778" lon="1.87323">
        <ele>163</ele>
        <time>2010-05-13T13:16:01Z</time>
      </trkpt>
      <trkpt lat="48.74778" lon="1.87321">
        <ele>163</ele>
        <time>2010-05-13T13:16:02Z</time>
      </trkpt>
      <trkpt lat="48.74778" lon="1.87319">
        <ele>162</ele>
        <time>2010-05-13T13:16:03Z</time>
      </trkpt>
      <trkpt lat="48.74778" lon="1.87316">
        <ele>162</ele>
        <time>2010-05-13T13:16:04Z</time>
      </trkpt>
      <trkpt lat="48.74778" lon="1.87314">
        <ele>161</ele>
        <time>2010-05-13T13:16:05Z</time>
      </trkpt>
      <trkpt lat="48.74779" lon="1.87309">
        <ele>161</ele>
        <time>2010-05-13T13:16:06Z</time>
      </trkpt>
      <trkpt lat="48.74779" lon="1.87307">
        <ele>161</ele>
        <time>2010-05-13T13:16:07Z</time>
      </trkpt>
      <trkpt lat="48.7478" lon="1.87305">
        <ele>161</ele>
        <time>2010-05-13T13:16:08Z</time>
      </trkpt>
      <trkpt lat="48.7478" lon="1.87301">
        <ele>161</ele>
        <time>2010-05-13T13:16:09Z</time>
      </trkpt>
      <trkpt lat="48.7478" lon="1.87298">
        <ele>161</ele>
        <time>2010-05-13T13:16:10Z</time>
      </trkpt>
      <trkpt lat="48.7478" lon="1.87296">
        <ele>161</ele>
        <time>2010-05-13T13:16:11Z</time>
      </trkpt>
      <trkpt lat="48.74781" lon="1.87294">
        <ele>161</ele>
        <time>2010-05-13T13:16:12Z</time>
      </trkpt>
      <trkpt lat="48.74781" lon="1.8729">
        <ele>161</ele>
        <time>2010-05-13T13:16:13Z</time>
      </trkpt>
      <trkpt lat="48.74781" lon="1.87288">
        <ele>161</ele>
        <time>2010-05-13T13:16:14Z</time>
      </trkpt>
      <trkpt lat="48.74781" lon="1.87286">
        <ele>161</ele>
        <time>2010-05-13T13:16:15Z</time>
      </trkpt>
      <trkpt lat="48.74781" lon="1.87284">
        <ele>161</ele>
        <time>2010-05-13T13:16:16Z</time>
      </trkpt>
      <trkpt lat="48.74782" lon="1.87282">
        <ele>161</ele>
        <time>2010-05-13T13:16:17Z</time>
      </trkpt>
      <trkpt lat="48.74782" lon="1.8728">
        <ele>161</ele>
        <time>2010-05-13T13:16:18Z</time>
      </trkpt>
      <trkpt lat="48.74782" lon="1.87278">
        <ele>161</ele>
        <time>2010-05-13T13:16:19Z</time>
      </trkpt>
      <trkpt lat="48.74782" lon="1.87276">
        <ele>161</ele>
        <time>2010-05-13T13:16:20Z</time>
      </trkpt>
      <trkpt lat="48.74782" lon="1.87274">
        <ele>161</ele>
        <time>2010-05-13T13:16:21Z</time>
      </trkpt>
      <trkpt lat="48.74782" lon="1.87272">
        <ele>161</ele>
        <time>2010-05-13T13:16:22Z</time>
      </trkpt>
      <trkpt lat="48.74783" lon="1.8727">
        <ele>161</ele>
        <time>2010-05-13T13:16:23Z</time>
      </trkpt>
      <trkpt lat="48.74783" lon="1.87266">
        <ele>161</ele>
        <time>2010-05-13T13:16:24Z</time>
      </trkpt>
      <trkpt lat="48.74783" lon="1.87263">
        <ele>161</ele>
        <time>2010-05-13T13:16:25Z</time>
      </trkpt>
      <trkpt lat="48.74783" lon="1.8726">
        <ele>161</ele>
        <time>2010-05-13T13:16:26Z</time>
      </trkpt>
      <trkpt lat="48.74783" lon="1.87258">
        <ele>161</ele>
        <time>2010-05-13T13:16:27Z</time>
      </trkpt>
      <trkpt lat="48.74783" lon="1.87255">
        <ele>161</ele>
        <time>2010-05-13T13:16:29Z</time>
      </trkpt>
      <trkpt lat="48.74784" lon="1.87253">
        <ele>161</ele>
        <time>2010-05-13T13:16:30Z</time>
      </trkpt>
      <trkpt lat="48.74784" lon="1.8725">
        <ele>161</ele>
        <time>2010-05-13T13:16:31Z</time>
      </trkpt>
      <trkpt lat="48.74784" lon="1.87248">
        <ele>161</ele>
        <time>2010-05-13T13:16:32Z</time>
      </trkpt>
      <trkpt lat="48.74784" lon="1.87247">
        <ele>161</ele>
        <time>2010-05-13T13:16:33Z</time>
      </trkpt>
      <trkpt lat="48.74784" lon="1.87244">
        <ele>161</ele>
        <time>2010-05-13T13:16:35Z</time>
      </trkpt>
      <trkpt lat="48.74784" lon="1.87241">
        <ele>161</ele>
        <time>2010-05-13T13:16:37Z</time>
      </trkpt>
      <trkpt lat="48.74784" lon="1.87238">
        <ele>161</ele>
        <time>2010-05-13T13:16:39Z</time>
      </trkpt>
      <trkpt lat="48.74784" lon="1.87235">
        <ele>161</ele>
        <time>2010-05-13T13:16:41Z</time>
      </trkpt>
      <trkpt lat="48.74784" lon="1.87234">
        <ele>160</ele>
        <time>2010-05-13T13:16:42Z</time>
      </trkpt>
      <trkpt lat="48.74784" lon="1.87232">
        <ele>160</ele>
        <time>2010-05-13T13:16:43Z</time>
      </trkpt>
      <trkpt lat="48.74784" lon="1.87229">
        <ele>160</ele>
        <time>2010-05-13T13:16:45Z</time>
      </trkpt>
      <trkpt lat="48.74784" lon="1.87227">
        <ele>160</ele>
        <time>2010-05-13T13:16:46Z</time>
      </trkpt>
      <trkpt lat="48.74784" lon="1.87225">
        <ele>159</ele>
        <time>2010-05-13T13:16:47Z</time>
      </trkpt>
      <trkpt lat="48.74784" lon="1.87223">
        <ele>159</ele>
        <time>2010-05-13T13:16:48Z</time>
      </trkpt>
      <trkpt lat="48.74784" lon="1.87216">
        <ele>159</ele>
        <time>2010-05-13T13:16:50Z</time>
      </trkpt>
      <trkpt lat="48.74784" lon="1.87213">
        <ele>159</ele>
        <time>2010-05-13T13:16:51Z</time>
      </trkpt>
      <trkpt lat="48.74784" lon="1.87211">
        <ele>159</ele>
        <time>2010-05-13T13:16:52Z</time>
      </trkpt>
      <trkpt lat="48.74785" lon="1.87209">
        <ele>159</ele>
        <time>2010-05-13T13:16:54Z</time>
      </trkpt>
      <trkpt lat="48.74785" lon="1.87206">
        <ele>159</ele>
        <time>2010-05-13T13:16:56Z</time>
      </trkpt>
      <trkpt lat="48.74785" lon="1.87204">
        <ele>159</ele>
        <time>2010-05-13T13:16:58Z</time>
      </trkpt>
      <trkpt lat="48.74786" lon="1.87201">
        <ele>159</ele>
        <time>2010-05-13T13:16:59Z</time>
      </trkpt>
      <trkpt lat="48.74786" lon="1.87199">
        <ele>159</ele>
        <time>2010-05-13T13:17:00Z</time>
      </trkpt>
      <trkpt lat="48.74786" lon="1.87197">
        <ele>159</ele>
        <time>2010-05-13T13:17:01Z</time>
      </trkpt>
      <trkpt lat="48.74786" lon="1.87196">
        <ele>159</ele>
        <time>2010-05-13T13:17:02Z</time>
      </trkpt>
      <trkpt lat="48.74785" lon="1.87193">
        <ele>159</ele>
        <time>2010-05-13T13:17:03Z</time>
      </trkpt>
      <trkpt lat="48.74785" lon="1.87191">
        <ele>159</ele>
        <time>2010-05-13T13:17:04Z</time>
      </trkpt>
      <trkpt lat="48.74785" lon="1.87187">
        <ele>159</ele>
        <time>2010-05-13T13:17:05Z</time>
      </trkpt>
      <trkpt lat="48.74785" lon="1.87183">
        <ele>159</ele>
        <time>2010-05-13T13:17:06Z</time>
      </trkpt>
      <trkpt lat="48.74785" lon="1.87176">
        <ele>159</ele>
        <time>2010-05-13T13:17:07Z</time>
      </trkpt>
      <trkpt lat="48.74786" lon="1.87172">
        <ele>159</ele>
        <time>2010-05-13T13:17:08Z</time>
      </trkpt>
      <trkpt lat="48.74786" lon="1.87165">
        <ele>159</ele>
        <time>2010-05-13T13:17:09Z</time>
      </trkpt>
      <trkpt lat="48.74787" lon="1.87159">
        <ele>159</ele>
        <time>2010-05-13T13:17:10Z</time>
      </trkpt>
      <trkpt lat="48.74788" lon="1.87154">
        <ele>159</ele>
        <time>2010-05-13T13:17:11Z</time>
      </trkpt>
      <trkpt lat="48.74789" lon="1.87149">
        <ele>159</ele>
        <time>2010-05-13T13:17:12Z</time>
      </trkpt>
      <trkpt lat="48.7479" lon="1.87144">
        <ele>159</ele>
        <time>2010-05-13T13:17:13Z</time>
      </trkpt>
      <trkpt lat="48.7479" lon="1.87141">
        <ele>159</ele>
        <time>2010-05-13T13:17:14Z</time>
      </trkpt>
      <trkpt lat="48.74791" lon="1.87137">
        <ele>159</ele>
        <time>2010-05-13T13:17:15Z</time>
      </trkpt>
      <trkpt lat="48.74791" lon="1.87133">
        <ele>159</ele>
        <time>2010-05-13T13:17:16Z</time>
      </trkpt>
      <trkpt lat="48.74791" lon="1.87129">
        <ele>159</ele>
        <time>2010-05-13T13:17:17Z</time>
      </trkpt>
      <trkpt lat="48.74792" lon="1.87127">
        <ele>159</ele>
        <time>2010-05-13T13:17:18Z</time>
      </trkpt>
      <trkpt lat="48.74792" lon="1.87126">
        <ele>160</ele>
        <time>2010-05-13T13:17:19Z</time>
      </trkpt>
      <trkpt lat="48.74793" lon="1.87124">
        <ele>160</ele>
        <time>2010-05-13T13:17:20Z</time>
      </trkpt>
      <trkpt lat="48.74794" lon="1.87121">
        <ele>160</ele>
        <time>2010-05-13T13:17:21Z</time>
      </trkpt>
      <trkpt lat="48.74795" lon="1.87119">
        <ele>160</ele>
        <time>2010-05-13T13:17:22Z</time>
      </trkpt>
      <trkpt lat="48.74795" lon="1.87118">
        <ele>160</ele>
        <time>2010-05-13T13:17:23Z</time>
      </trkpt>
      <trkpt lat="48.74797" lon="1.87114">
        <ele>160</ele>
        <time>2010-05-13T13:17:25Z</time>
      </trkpt>
      <trkpt lat="48.74797" lon="1.87113">
        <ele>160</ele>
        <time>2010-05-13T13:17:26Z</time>
      </trkpt>
      <trkpt lat="48.74798" lon="1.87111">
        <ele>160</ele>
        <time>2010-05-13T13:17:27Z</time>
      </trkpt>
      <trkpt lat="48.74799" lon="1.87109">
        <ele>160</ele>
        <time>2010-05-13T13:17:28Z</time>
      </trkpt>
      <trkpt lat="48.74799" lon="1.87108">
        <ele>160</ele>
        <time>2010-05-13T13:17:29Z</time>
      </trkpt>
      <trkpt lat="48.748" lon="1.87106">
        <ele>160</ele>
        <time>2010-05-13T13:17:30Z</time>
      </trkpt>
      <trkpt lat="48.748" lon="1.87104">
        <ele>160</ele>
        <time>2010-05-13T13:17:31Z</time>
      </trkpt>
      <trkpt lat="48.74801" lon="1.87102">
        <ele>160</ele>
        <time>2010-05-13T13:17:32Z</time>
      </trkpt>
      <trkpt lat="48.74801" lon="1.87099">
        <ele>160</ele>
        <time>2010-05-13T13:17:33Z</time>
      </trkpt>
      <trkpt lat="48.74802" lon="1.87095">
        <ele>160</ele>
        <time>2010-05-13T13:17:34Z</time>
      </trkpt>
      <trkpt lat="48.74803" lon="1.87092">
        <ele>159</ele>
        <time>2010-05-13T13:17:35Z</time>
      </trkpt>
      <trkpt lat="48.74804" lon="1.8709">
        <ele>159</ele>
        <time>2010-05-13T13:17:36Z</time>
      </trkpt>
      <trkpt lat="48.74804" lon="1.87087">
        <ele>159</ele>
        <time>2010-05-13T13:17:37Z</time>
      </trkpt>
      <trkpt lat="48.74804" lon="1.87085">
        <ele>159</ele>
        <time>2010-05-13T13:17:38Z</time>
      </trkpt>
      <trkpt lat="48.74805" lon="1.87083">
        <ele>159</ele>
        <time>2010-05-13T13:17:39Z</time>
      </trkpt>
      <trkpt lat="48.74806" lon="1.87081">
        <ele>159</ele>
        <time>2010-05-13T13:17:40Z</time>
      </trkpt>
      <trkpt lat="48.74807" lon="1.87079">
        <ele>159</ele>
        <time>2010-05-13T13:17:41Z</time>
      </trkpt>
      <trkpt lat="48.74807" lon="1.87077">
        <ele>159</ele>
        <time>2010-05-13T13:17:42Z</time>
      </trkpt>
      <trkpt lat="48.74807" lon="1.87075">
        <ele>159</ele>
        <time>2010-05-13T13:17:43Z</time>
      </trkpt>
      <trkpt lat="48.74807" lon="1.87073">
        <ele>159</ele>
        <time>2010-05-13T13:17:44Z</time>
      </trkpt>
      <trkpt lat="48.74808" lon="1.87072">
        <ele>159</ele>
        <time>2010-05-13T13:17:45Z</time>
      </trkpt>
      <trkpt lat="48.74808" lon="1.8707">
        <ele>159</ele>
        <time>2010-05-13T13:17:46Z</time>
      </trkpt>
      <trkpt lat="48.7481" lon="1.87066">
        <ele>159</ele>
        <time>2010-05-13T13:17:48Z</time>
      </trkpt>
      <trkpt lat="48.74811" lon="1.87063">
        <ele>160</ele>
        <time>2010-05-13T13:17:50Z</time>
      </trkpt>
      <trkpt lat="48.74813" lon="1.8706">
        <ele>160</ele>
        <time>2010-05-13T13:17:52Z</time>
      </trkpt>
      <trkpt lat="48.74814" lon="1.87057">
        <ele>162</ele>
        <time>2010-05-13T13:17:54Z</time>
      </trkpt>
      <trkpt lat="48.74815" lon="1.87055">
        <ele>162</ele>
        <time>2010-05-13T13:17:55Z</time>
      </trkpt>
      <trkpt lat="48.74816" lon="1.87053">
        <ele>163</ele>
        <time>2010-05-13T13:17:56Z</time>
      </trkpt>
      <trkpt lat="48.74817" lon="1.8705">
        <ele>163</ele>
        <time>2010-05-13T13:17:58Z</time>
      </trkpt>
      <trkpt lat="48.74819" lon="1.87048">
        <ele>163</ele>
        <time>2010-05-13T13:18:00Z</time>
      </trkpt>
      <trkpt lat="48.74821" lon="1.87046">
        <ele>163</ele>
        <time>2010-05-13T13:18:01Z</time>
      </trkpt>
      <trkpt lat="48.74821" lon="1.87044">
        <ele>163</ele>
        <time>2010-05-13T13:18:02Z</time>
      </trkpt>
      <trkpt lat="48.74821" lon="1.87042">
        <ele>163</ele>
        <time>2010-05-13T13:18:03Z</time>
      </trkpt>
      <trkpt lat="48.74821" lon="1.8704">
        <ele>163</ele>
        <time>2010-05-13T13:18:04Z</time>
      </trkpt>
      <trkpt lat="48.74822" lon="1.87038">
        <ele>163</ele>
        <time>2010-05-13T13:18:06Z</time>
      </trkpt>
      <trkpt lat="48.74823" lon="1.87035">
        <ele>163</ele>
        <time>2010-05-13T13:18:08Z</time>
      </trkpt>
      <trkpt lat="48.74823" lon="1.87033">
        <ele>162</ele>
        <time>2010-05-13T13:18:09Z</time>
      </trkpt>
      <trkpt lat="48.74823" lon="1.87031">
        <ele>161</ele>
        <time>2010-05-13T13:18:10Z</time>
      </trkpt>
      <trkpt lat="48.74824" lon="1.8703">
        <ele>161</ele>
        <time>2010-05-13T13:18:11Z</time>
      </trkpt>
      <trkpt lat="48.74825" lon="1.87027">
        <ele>160</ele>
        <time>2010-05-13T13:18:12Z</time>
      </trkpt>
      <trkpt lat="48.74828" lon="1.87025">
        <ele>160</ele>
        <time>2010-05-13T13:18:13Z</time>
      </trkpt>
      <trkpt lat="48.7483" lon="1.87023">
        <ele>160</ele>
        <time>2010-05-13T13:18:14Z</time>
      </trkpt>
      <trkpt lat="48.74831" lon="1.87022">
        <ele>160</ele>
        <time>2010-05-13T13:18:15Z</time>
      </trkpt>
      <trkpt lat="48.74832" lon="1.8702">
        <ele>160</ele>
        <time>2010-05-13T13:18:16Z</time>
      </trkpt>
      <trkpt lat="48.74833" lon="1.87017">
        <ele>160</ele>
        <time>2010-05-13T13:18:17Z</time>
      </trkpt>
      <trkpt lat="48.74833" lon="1.87016">
        <ele>160</ele>
        <time>2010-05-13T13:18:18Z</time>
      </trkpt>
      <trkpt lat="48.74835" lon="1.87014">
        <ele>160</ele>
        <time>2010-05-13T13:18:19Z</time>
      </trkpt>
      <trkpt lat="48.74835" lon="1.87011">
        <ele>160</ele>
        <time>2010-05-13T13:18:20Z</time>
      </trkpt>
      <trkpt lat="48.74836" lon="1.87009">
        <ele>160</ele>
        <time>2010-05-13T13:18:21Z</time>
      </trkpt>
      <trkpt lat="48.74838" lon="1.87006">
        <ele>160</ele>
        <time>2010-05-13T13:18:22Z</time>
      </trkpt>
      <trkpt lat="48.74839" lon="1.87002">
        <ele>160</ele>
        <time>2010-05-13T13:18:23Z</time>
      </trkpt>
      <trkpt lat="48.7484" lon="1.86998">
        <ele>160</ele>
        <time>2010-05-13T13:18:24Z</time>
      </trkpt>
      <trkpt lat="48.74841" lon="1.86995">
        <ele>160</ele>
        <time>2010-05-13T13:18:25Z</time>
      </trkpt>
      <trkpt lat="48.74843" lon="1.86992">
        <ele>160</ele>
        <time>2010-05-13T13:18:26Z</time>
      </trkpt>
      <trkpt lat="48.74844" lon="1.86989">
        <ele>160</ele>
        <time>2010-05-13T13:18:27Z</time>
      </trkpt>
      <trkpt lat="48.74845" lon="1.86987">
        <ele>160</ele>
        <time>2010-05-13T13:18:28Z</time>
      </trkpt>
      <trkpt lat="48.74846" lon="1.86985">
        <ele>159</ele>
        <time>2010-05-13T13:18:30Z</time>
      </trkpt>
      <trkpt lat="48.74846" lon="1.86982">
        <ele>157</ele>
        <time>2010-05-13T13:18:32Z</time>
      </trkpt>
      <trkpt lat="48.74848" lon="1.86979">
        <ele>156</ele>
        <time>2010-05-13T13:18:33Z</time>
      </trkpt>
      <trkpt lat="48.74849" lon="1.86976">
        <ele>155</ele>
        <time>2010-05-13T13:18:35Z</time>
      </trkpt>
      <trkpt lat="48.74848" lon="1.86974">
        <ele>155</ele>
        <time>2010-05-13T13:18:36Z</time>
      </trkpt>
      <trkpt lat="48.74848" lon="1.86972">
        <ele>155</ele>
        <time>2010-05-13T13:18:37Z</time>
      </trkpt>
      <trkpt lat="48.74848" lon="1.8697">
        <ele>155</ele>
        <time>2010-05-13T13:18:38Z</time>
      </trkpt>
      <trkpt lat="48.74846" lon="1.86968">
        <ele>155</ele>
        <time>2010-05-13T13:18:40Z</time>
      </trkpt>
      <trkpt lat="48.74846" lon="1.86966">
        <ele>155</ele>
        <time>2010-05-13T13:18:41Z</time>
      </trkpt>
      <trkpt lat="48.74846" lon="1.86964">
        <ele>155</ele>
        <time>2010-05-13T13:18:42Z</time>
      </trkpt>
      <trkpt lat="48.74846" lon="1.86962">
        <ele>155</ele>
        <time>2010-05-13T13:18:43Z</time>
      </trkpt>
      <trkpt lat="48.74845" lon="1.8696">
        <ele>155</ele>
        <time>2010-05-13T13:18:44Z</time>
      </trkpt>
      <trkpt lat="48.74845" lon="1.86957">
        <ele>155</ele>
        <time>2010-05-13T13:18:45Z</time>
      </trkpt>
      <trkpt lat="48.74844" lon="1.86955">
        <ele>155</ele>
        <time>2010-05-13T13:18:46Z</time>
      </trkpt>
      <trkpt lat="48.74843" lon="1.86951">
        <ele>155</ele>
        <time>2010-05-13T13:18:47Z</time>
      </trkpt>
      <trkpt lat="48.74842" lon="1.86949">
        <ele>155</ele>
        <time>2010-05-13T13:18:48Z</time>
      </trkpt>
      <trkpt lat="48.74842" lon="1.86946">
        <ele>155</ele>
        <time>2010-05-13T13:18:50Z</time>
      </trkpt>
      <trkpt lat="48.74841" lon="1.86943">
        <ele>155</ele>
        <time>2010-05-13T13:18:52Z</time>
      </trkpt>
      <trkpt lat="48.7484" lon="1.86942">
        <ele>155</ele>
        <time>2010-05-13T13:18:53Z</time>
      </trkpt>
      <trkpt lat="48.74838" lon="1.8694">
        <ele>155</ele>
        <time>2010-05-13T13:18:55Z</time>
      </trkpt>
      <trkpt lat="48.74837" lon="1.86938">
        <ele>155</ele>
        <time>2010-05-13T13:18:57Z</time>
      </trkpt>
      <trkpt lat="48.74836" lon="1.86936">
        <ele>155</ele>
        <time>2010-05-13T13:18:59Z</time>
      </trkpt>
      <trkpt lat="48.74834" lon="1.86934">
        <ele>155</ele>
        <time>2010-05-13T13:19:01Z</time>
      </trkpt>
      <trkpt lat="48.74833" lon="1.86932">
        <ele>155</ele>
        <time>2010-05-13T13:19:03Z</time>
      </trkpt>
      <trkpt lat="48.74832" lon="1.8693">
        <ele>155</ele>
        <time>2010-05-13T13:19:05Z</time>
      </trkpt>
      <trkpt lat="48.7483" lon="1.86927">
        <ele>155</ele>
        <time>2010-05-13T13:19:07Z</time>
      </trkpt>
      <trkpt lat="48.74829" lon="1.86925">
        <ele>155</ele>
        <time>2010-05-13T13:19:08Z</time>
      </trkpt>
      <trkpt lat="48.74827" lon="1.86922">
        <ele>155</ele>
        <time>2010-05-13T13:19:10Z</time>
      </trkpt>
      <trkpt lat="48.74826" lon="1.86919">
        <ele>155</ele>
        <time>2010-05-13T13:19:12Z</time>
      </trkpt>
      <trkpt lat="48.74825" lon="1.86917">
        <ele>155</ele>
        <time>2010-05-13T13:19:13Z</time>
      </trkpt>
      <trkpt lat="48.74824" lon="1.86915">
        <ele>155</ele>
        <time>2010-05-13T13:19:14Z</time>
      </trkpt>
      <trkpt lat="48.74823" lon="1.86913">
        <ele>155</ele>
        <time>2010-05-13T13:19:15Z</time>
      </trkpt>
      <trkpt lat="48.74823" lon="1.86912">
        <ele>155</ele>
        <time>2010-05-13T13:19:16Z</time>
      </trkpt>
      <trkpt lat="48.74822" lon="1.8691">
        <ele>155</ele>
        <time>2010-05-13T13:19:17Z</time>
      </trkpt>
      <trkpt lat="48.7482" lon="1.86908">
        <ele>155</ele>
        <time>2010-05-13T13:19:18Z</time>
      </trkpt>
      <trkpt lat="48.74819" lon="1.86906">
        <ele>155</ele>
        <time>2010-05-13T13:19:19Z</time>
      </trkpt>
      <trkpt lat="48.74818" lon="1.86903">
        <ele>155</ele>
        <time>2010-05-13T13:19:21Z</time>
      </trkpt>
      <trkpt lat="48.74817" lon="1.86902">
        <ele>155</ele>
        <time>2010-05-13T13:19:22Z</time>
      </trkpt>
      <trkpt lat="48.74815" lon="1.86899">
        <ele>155</ele>
        <time>2010-05-13T13:19:24Z</time>
      </trkpt>
      <trkpt lat="48.74813" lon="1.86898">
        <ele>155</ele>
        <time>2010-05-13T13:19:25Z</time>
      </trkpt>
      <trkpt lat="48.74812" lon="1.86897">
        <ele>155</ele>
        <time>2010-05-13T13:19:26Z</time>
      </trkpt>
      <trkpt lat="48.7481" lon="1.86894">
        <ele>155</ele>
        <time>2010-05-13T13:19:28Z</time>
      </trkpt>
      <trkpt lat="48.74809" lon="1.86893">
        <ele>155</ele>
        <time>2010-05-13T13:19:29Z</time>
      </trkpt>
      <trkpt lat="48.74808" lon="1.86892">
        <ele>155</ele>
        <time>2010-05-13T13:19:30Z</time>
      </trkpt>
      <trkpt lat="48.74806" lon="1.86889">
        <ele>155</ele>
        <time>2010-05-13T13:19:32Z</time>
      </trkpt>
      <trkpt lat="48.74802" lon="1.86881">
        <ele>155</ele>
        <time>2010-05-13T13:19:34Z</time>
      </trkpt>
      <trkpt lat="48.748" lon="1.86878">
        <ele>155</ele>
        <time>2010-05-13T13:19:36Z</time>
      </trkpt>
      <trkpt lat="48.74799" lon="1.86878">
        <ele>155</ele>
        <time>2010-05-13T13:19:37Z</time>
      </trkpt>
      <trkpt lat="48.74797" lon="1.86876">
        <ele>155</ele>
        <time>2010-05-13T13:19:39Z</time>
      </trkpt>
      <trkpt lat="48.74795" lon="1.86874">
        <ele>155</ele>
        <time>2010-05-13T13:19:41Z</time>
      </trkpt>
      <trkpt lat="48.74794" lon="1.86871">
        <ele>155</ele>
        <time>2010-05-13T13:19:43Z</time>
      </trkpt>
      <trkpt lat="48.74792" lon="1.86869">
        <ele>155</ele>
        <time>2010-05-13T13:19:45Z</time>
      </trkpt>
      <trkpt lat="48.7479" lon="1.86866">
        <ele>155</ele>
        <time>2010-05-13T13:19:47Z</time>
      </trkpt>
      <trkpt lat="48.74788" lon="1.86864">
        <ele>155</ele>
        <time>2010-05-13T13:19:49Z</time>
      </trkpt>
      <trkpt lat="48.74786" lon="1.86861">
        <ele>155</ele>
        <time>2010-05-13T13:19:51Z</time>
      </trkpt>
      <trkpt lat="48.74785" lon="1.86858">
        <ele>155</ele>
        <time>2010-05-13T13:19:53Z</time>
      </trkpt>
      <trkpt lat="48.74783" lon="1.86856">
        <ele>155</ele>
        <time>2010-05-13T13:19:55Z</time>
      </trkpt>
      <trkpt lat="48.74781" lon="1.86853">
        <ele>155</ele>
        <time>2010-05-13T13:19:57Z</time>
      </trkpt>
      <trkpt lat="48.74779" lon="1.8685">
        <ele>155</ele>
        <time>2010-05-13T13:19:59Z</time>
      </trkpt>
      <trkpt lat="48.74777" lon="1.86847">
        <ele>155</ele>
        <time>2010-05-13T13:20:01Z</time>
      </trkpt>
      <trkpt lat="48.74775" lon="1.86844">
        <ele>155</ele>
        <time>2010-05-13T13:20:03Z</time>
      </trkpt>
      <trkpt lat="48.74773" lon="1.86841">
        <ele>155</ele>
        <time>2010-05-13T13:20:05Z</time>
      </trkpt>
      <trkpt lat="48.74771" lon="1.86839">
        <ele>155</ele>
        <time>2010-05-13T13:20:07Z</time>
      </trkpt>
      <trkpt lat="48.7477" lon="1.86838">
        <ele>155</ele>
        <time>2010-05-13T13:20:08Z</time>
      </trkpt>
      <trkpt lat="48.74768" lon="1.86835">
        <ele>155</ele>
        <time>2010-05-13T13:20:10Z</time>
      </trkpt>
      <trkpt lat="48.74767" lon="1.86834">
        <ele>155</ele>
        <time>2010-05-13T13:20:11Z</time>
      </trkpt>
      <trkpt lat="48.74764" lon="1.86832">
        <ele>155</ele>
        <time>2010-05-13T13:20:13Z</time>
      </trkpt>
      <trkpt lat="48.74763" lon="1.86831">
        <ele>155</ele>
        <time>2010-05-13T13:20:14Z</time>
      </trkpt>
      <trkpt lat="48.74762" lon="1.86829">
        <ele>155</ele>
        <time>2010-05-13T13:20:16Z</time>
      </trkpt>
      <trkpt lat="48.7476" lon="1.86826">
        <ele>155</ele>
        <time>2010-05-13T13:20:18Z</time>
      </trkpt>
      <trkpt lat="48.74758" lon="1.86823">
        <ele>155</ele>
        <time>2010-05-13T13:20:20Z</time>
      </trkpt>
      <trkpt lat="48.74755" lon="1.8682">
        <ele>155</ele>
        <time>2010-05-13T13:20:22Z</time>
      </trkpt>
      <trkpt lat="48.74753" lon="1.86817">
        <ele>155</ele>
        <time>2010-05-13T13:20:23Z</time>
      </trkpt>
      <trkpt lat="48.74751" lon="1.86815">
        <ele>155</ele>
        <time>2010-05-13T13:20:24Z</time>
      </trkpt>
      <trkpt lat="48.7475" lon="1.86812">
        <ele>155</ele>
        <time>2010-05-13T13:20:25Z</time>
      </trkpt>
      <trkpt lat="48.74748" lon="1.8681">
        <ele>155</ele>
        <time>2010-05-13T13:20:26Z</time>
      </trkpt>
      <trkpt lat="48.74746" lon="1.86807">
        <ele>155</ele>
        <time>2010-05-13T13:20:27Z</time>
      </trkpt>
      <trkpt lat="48.74744" lon="1.86805">
        <ele>155</ele>
        <time>2010-05-13T13:20:28Z</time>
      </trkpt>
      <trkpt lat="48.74743" lon="1.86803">
        <ele>155</ele>
        <time>2010-05-13T13:20:29Z</time>
      </trkpt>
      <trkpt lat="48.74742" lon="1.86802">
        <ele>155</ele>
        <time>2010-05-13T13:20:30Z</time>
      </trkpt>
      <trkpt lat="48.7474" lon="1.86799">
        <ele>155</ele>
        <time>2010-05-13T13:20:32Z</time>
      </trkpt>
      <trkpt lat="48.74738" lon="1.86796">
        <ele>155</ele>
        <time>2010-05-13T13:20:34Z</time>
      </trkpt>
      <trkpt lat="48.74736" lon="1.86793">
        <ele>155</ele>
        <time>2010-05-13T13:20:36Z</time>
      </trkpt>
      <trkpt lat="48.74734" lon="1.86791">
        <ele>155</ele>
        <time>2010-05-13T13:20:38Z</time>
      </trkpt>
      <trkpt lat="48.74732" lon="1.86789">
        <ele>155</ele>
        <time>2010-05-13T13:20:40Z</time>
      </trkpt>
      <trkpt lat="48.7473" lon="1.86788">
        <ele>155</ele>
        <time>2010-05-13T13:20:41Z</time>
      </trkpt>
      <trkpt lat="48.74729" lon="1.86785">
        <ele>155</ele>
        <time>2010-05-13T13:20:43Z</time>
      </trkpt>
      <trkpt lat="48.74727" lon="1.86783">
        <ele>155</ele>
        <time>2010-05-13T13:20:45Z</time>
      </trkpt>
      <trkpt lat="48.74725" lon="1.8678">
        <ele>155</ele>
        <time>2010-05-13T13:20:47Z</time>
      </trkpt>
      <trkpt lat="48.74723" lon="1.86778">
        <ele>155</ele>
        <time>2010-05-13T13:20:49Z</time>
      </trkpt>
      <trkpt lat="48.74721" lon="1.86776">
        <ele>155</ele>
        <time>2010-05-13T13:20:51Z</time>
      </trkpt>
      <trkpt lat="48.74719" lon="1.86774">
        <ele>155</ele>
        <time>2010-05-13T13:20:53Z</time>
      </trkpt>
      <trkpt lat="48.74718" lon="1.86771">
        <ele>155</ele>
        <time>2010-05-13T13:20:55Z</time>
      </trkpt>
      <trkpt lat="48.74716" lon="1.86768">
        <ele>155</ele>
        <time>2010-05-13T13:20:57Z</time>
      </trkpt>
      <trkpt lat="48.74714" lon="1.86766">
        <ele>155</ele>
        <time>2010-05-13T13:20:59Z</time>
      </trkpt>
      <trkpt lat="48.74712" lon="1.86764">
        <ele>155</ele>
        <time>2010-05-13T13:21:01Z</time>
      </trkpt>
      <trkpt lat="48.7471" lon="1.86761">
        <ele>155</ele>
        <time>2010-05-13T13:21:03Z</time>
      </trkpt>
      <trkpt lat="48.74708" lon="1.86759">
        <ele>155</ele>
        <time>2010-05-13T13:21:05Z</time>
      </trkpt>
      <trkpt lat="48.74706" lon="1.86757">
        <ele>155</ele>
        <time>2010-05-13T13:21:07Z</time>
      </trkpt>
      <trkpt lat="48.74705" lon="1.86756">
        <ele>155</ele>
        <time>2010-05-13T13:21:08Z</time>
      </trkpt>
      <trkpt lat="48.74703" lon="1.86754">
        <ele>155</ele>
        <time>2010-05-13T13:21:10Z</time>
      </trkpt>
      <trkpt lat="48.74702" lon="1.86751">
        <ele>155</ele>
        <time>2010-05-13T13:21:12Z</time>
      </trkpt>
      <trkpt lat="48.74701" lon="1.86749">
        <ele>155</ele>
        <time>2010-05-13T13:21:13Z</time>
      </trkpt>
      <trkpt lat="48.74699" lon="1.86746">
        <ele>155</ele>
        <time>2010-05-13T13:21:15Z</time>
      </trkpt>
      <trkpt lat="48.74697" lon="1.86744">
        <ele>155</ele>
        <time>2010-05-13T13:21:17Z</time>
      </trkpt>
      <trkpt lat="48.74695" lon="1.86741">
        <ele>155</ele>
        <time>2010-05-13T13:21:19Z</time>
      </trkpt>
      <trkpt lat="48.74693" lon="1.86739">
        <ele>155</ele>
        <time>2010-05-13T13:21:21Z</time>
      </trkpt>
      <trkpt lat="48.74692" lon="1.86737">
        <ele>155</ele>
        <time>2010-05-13T13:21:23Z</time>
      </trkpt>
      <trkpt lat="48.7469" lon="1.86735">
        <ele>155</ele>
        <time>2010-05-13T13:21:25Z</time>
      </trkpt>
      <trkpt lat="48.74688" lon="1.86732">
        <ele>155</ele>
        <time>2010-05-13T13:21:27Z</time>
      </trkpt>
      <trkpt lat="48.74686" lon="1.8673">
        <ele>155</ele>
        <time>2010-05-13T13:21:29Z</time>
      </trkpt>
      <trkpt lat="48.74684" lon="1.86727">
        <ele>155</ele>
        <time>2010-05-13T13:21:31Z</time>
      </trkpt>
      <trkpt lat="48.74682" lon="1.86725">
        <ele>155</ele>
        <time>2010-05-13T13:21:33Z</time>
      </trkpt>
      <trkpt lat="48.7468" lon="1.86724">
        <ele>155</ele>
        <time>2010-05-13T13:21:35Z</time>
      </trkpt>
      <trkpt lat="48.74678" lon="1.86722">
        <ele>155</ele>
        <time>2010-05-13T13:21:37Z</time>
      </trkpt>
      <trkpt lat="48.74676" lon="1.8672">
        <ele>155</ele>
        <time>2010-05-13T13:21:39Z</time>
      </trkpt>
      <trkpt lat="48.74674" lon="1.86719">
        <ele>155</ele>
        <time>2010-05-13T13:21:41Z</time>
      </trkpt>
      <trkpt lat="48.74672" lon="1.86717">
        <ele>155</ele>
        <time>2010-05-13T13:21:43Z</time>
      </trkpt>
      <trkpt lat="48.7467" lon="1.86715">
        <ele>155</ele>
        <time>2010-05-13T13:21:45Z</time>
      </trkpt>
      <trkpt lat="48.74668" lon="1.86714">
        <ele>155</ele>
        <time>2010-05-13T13:21:47Z</time>
      </trkpt>
      <trkpt lat="48.74666" lon="1.86711">
        <ele>155</ele>
        <time>2010-05-13T13:21:49Z</time>
      </trkpt>
      <trkpt lat="48.74665" lon="1.86709">
        <ele>155</ele>
        <time>2010-05-13T13:21:51Z</time>
      </trkpt>
      <trkpt lat="48.74663" lon="1.86708">
        <ele>155</ele>
        <time>2010-05-13T13:21:52Z</time>
      </trkpt>
      <trkpt lat="48.74661" lon="1.86707">
        <ele>155</ele>
        <time>2010-05-13T13:21:54Z</time>
      </trkpt>
      <trkpt lat="48.7466" lon="1.86705">
        <ele>155</ele>
        <time>2010-05-13T13:21:56Z</time>
      </trkpt>
      <trkpt lat="48.74658" lon="1.86706">
        <ele>154</ele>
        <time>2010-05-13T13:21:58Z</time>
      </trkpt>
      <trkpt lat="48.74656" lon="1.86706">
        <ele>154</ele>
        <time>2010-05-13T13:22:00Z</time>
      </trkpt>
      <trkpt lat="48.74654" lon="1.86706">
        <ele>154</ele>
        <time>2010-05-13T13:22:02Z</time>
      </trkpt>
      <trkpt lat="48.74654" lon="1.86704">
        <ele>154</ele>
        <time>2010-05-13T13:22:04Z</time>
      </trkpt>
      <trkpt lat="48.74652" lon="1.86704">
        <ele>154</ele>
        <time>2010-05-13T13:22:10Z</time>
      </trkpt>
      <trkpt lat="48.74651" lon="1.86703">
        <ele>154</ele>
        <time>2010-05-13T13:22:13Z</time>
      </trkpt>
      <trkpt lat="48.74651" lon="1.86702">
        <ele>154</ele>
        <time>2010-05-13T13:22:14Z</time>
      </trkpt>
      <trkpt lat="48.7465" lon="1.86703">
        <ele>154</ele>
        <time>2010-05-13T13:22:20Z</time>
      </trkpt>
      <trkpt lat="48.74648" lon="1.86702">
        <ele>154</ele>
        <time>2010-05-13T13:22:25Z</time>
      </trkpt>
      <trkpt lat="48.74647" lon="1.86699">
        <ele>154</ele>
        <time>2010-05-13T13:22:27Z</time>
      </trkpt>
      <trkpt lat="48.74646" lon="1.86699">
        <ele>154</ele>
        <time>2010-05-13T13:22:30Z</time>
      </trkpt>
      <trkpt lat="48.74644" lon="1.86698">
        <ele>154</ele>
        <time>2010-05-13T13:22:32Z</time>
      </trkpt>
      <trkpt lat="48.74642" lon="1.86697">
        <ele>154</ele>
        <time>2010-05-13T13:22:34Z</time>
      </trkpt>
      <trkpt lat="48.74641" lon="1.86696">
        <ele>154</ele>
        <time>2010-05-13T13:22:36Z</time>
      </trkpt>
      <trkpt lat="48.74639" lon="1.86694">
        <ele>154</ele>
        <time>2010-05-13T13:22:38Z</time>
      </trkpt>
      <trkpt lat="48.74638" lon="1.86693">
        <ele>154</ele>
        <time>2010-05-13T13:22:40Z</time>
      </trkpt>
      <trkpt lat="48.74636" lon="1.86692">
        <ele>154</ele>
        <time>2010-05-13T13:22:42Z</time>
      </trkpt>
      <trkpt lat="48.74635" lon="1.86692">
        <ele>154</ele>
        <time>2010-05-13T13:22:43Z</time>
      </trkpt>
      <trkpt lat="48.74634" lon="1.86691">
        <ele>154</ele>
        <time>2010-05-13T13:22:45Z</time>
      </trkpt>
      <trkpt lat="48.74632" lon="1.86691">
        <ele>154</ele>
        <time>2010-05-13T13:22:47Z</time>
      </trkpt>
      <trkpt lat="48.7463" lon="1.86691">
        <ele>154</ele>
        <time>2010-05-13T13:22:49Z</time>
      </trkpt>
      <trkpt lat="48.74629" lon="1.8669">
        <ele>154</ele>
        <time>2010-05-13T13:22:50Z</time>
      </trkpt>
      <trkpt lat="48.74627" lon="1.8669">
        <ele>154</ele>
        <time>2010-05-13T13:22:51Z</time>
      </trkpt>
      <trkpt lat="48.74626" lon="1.8669">
        <ele>154</ele>
        <time>2010-05-13T13:22:52Z</time>
      </trkpt>
      <trkpt lat="48.74625" lon="1.86689">
        <ele>154</ele>
        <time>2010-05-13T13:22:53Z</time>
      </trkpt>
      <trkpt lat="48.74623" lon="1.86689">
        <ele>154</ele>
        <time>2010-05-13T13:22:54Z</time>
      </trkpt>
      <trkpt lat="48.74622" lon="1.86688">
        <ele>154</ele>
        <time>2010-05-13T13:22:55Z</time>
      </trkpt>
      <trkpt lat="48.74621" lon="1.86687">
        <ele>154</ele>
        <time>2010-05-13T13:22:56Z</time>
      </trkpt>
      <trkpt lat="48.7462" lon="1.86687">
        <ele>154</ele>
        <time>2010-05-13T13:22:57Z</time>
      </trkpt>
      <trkpt lat="48.74619" lon="1.86686">
        <ele>154</ele>
        <time>2010-05-13T13:22:58Z</time>
      </trkpt>
      <trkpt lat="48.74618" lon="1.86685">
        <ele>154</ele>
        <time>2010-05-13T13:22:59Z</time>
      </trkpt>
      <trkpt lat="48.74616" lon="1.86685">
        <ele>154</ele>
        <time>2010-05-13T13:23:00Z</time>
      </trkpt>
      <trkpt lat="48.74615" lon="1.86685">
        <ele>154</ele>
        <time>2010-05-13T13:23:01Z</time>
      </trkpt>
      <trkpt lat="48.74614" lon="1.86685">
        <ele>154</ele>
        <time>2010-05-13T13:23:02Z</time>
      </trkpt>
      <trkpt lat="48.74613" lon="1.86685">
        <ele>154</ele>
        <time>2010-05-13T13:23:03Z</time>
      </trkpt>
      <trkpt lat="48.74611" lon="1.86685">
        <ele>154</ele>
        <time>2010-05-13T13:23:04Z</time>
      </trkpt>
      <trkpt lat="48.7461" lon="1.86684">
        <ele>154</ele>
        <time>2010-05-13T13:23:05Z</time>
      </trkpt>
      <trkpt lat="48.74609" lon="1.86684">
        <ele>154</ele>
        <time>2010-05-13T13:23:06Z</time>
      </trkpt>
      <trkpt lat="48.74608" lon="1.86683">
        <ele>154</ele>
        <time>2010-05-13T13:23:07Z</time>
      </trkpt>
      <trkpt lat="48.74607" lon="1.86683">
        <ele>154</ele>
        <time>2010-05-13T13:23:08Z</time>
      </trkpt>
      <trkpt lat="48.74604" lon="1.86682">
        <ele>154</ele>
        <time>2010-05-13T13:23:10Z</time>
      </trkpt>
      <trkpt lat="48.74603" lon="1.86681">
        <ele>154</ele>
        <time>2010-05-13T13:23:11Z</time>
      </trkpt>
      <trkpt lat="48.74601" lon="1.8668">
        <ele>154</ele>
        <time>2010-05-13T13:23:13Z</time>
      </trkpt>
      <trkpt lat="48.74599" lon="1.86679">
        <ele>154</ele>
        <time>2010-05-13T13:23:15Z</time>
      </trkpt>
      <trkpt lat="48.74598" lon="1.86678">
        <ele>154</ele>
        <time>2010-05-13T13:23:16Z</time>
      </trkpt>
      <trkpt lat="48.74597" lon="1.86678">
        <ele>154</ele>
        <time>2010-05-13T13:23:17Z</time>
      </trkpt>
      <trkpt lat="48.74594" lon="1.86677">
        <ele>154</ele>
        <time>2010-05-13T13:23:19Z</time>
      </trkpt>
      <trkpt lat="48.74593" lon="1.86676">
        <ele>154</ele>
        <time>2010-05-13T13:23:20Z</time>
      </trkpt>
      <trkpt lat="48.74592" lon="1.86676">
        <ele>154</ele>
        <time>2010-05-13T13:23:21Z</time>
      </trkpt>
      <trkpt lat="48.74591" lon="1.86674">
        <ele>154</ele>
        <time>2010-05-13T13:23:22Z</time>
      </trkpt>
      <trkpt lat="48.74589" lon="1.86673">
        <ele>154</ele>
        <time>2010-05-13T13:23:23Z</time>
      </trkpt>
      <trkpt lat="48.74588" lon="1.86673">
        <ele>154</ele>
        <time>2010-05-13T13:23:24Z</time>
      </trkpt>
      <trkpt lat="48.74587" lon="1.86672">
        <ele>154</ele>
        <time>2010-05-13T13:23:25Z</time>
      </trkpt>
      <trkpt lat="48.74586" lon="1.86671">
        <ele>154</ele>
        <time>2010-05-13T13:23:26Z</time>
      </trkpt>
      <trkpt lat="48.74584" lon="1.86671">
        <ele>154</ele>
        <time>2010-05-13T13:23:27Z</time>
      </trkpt>
      <trkpt lat="48.74582" lon="1.86669">
        <ele>154</ele>
        <time>2010-05-13T13:23:29Z</time>
      </trkpt>
      <trkpt lat="48.74581" lon="1.86668">
        <ele>154</ele>
        <time>2010-05-13T13:23:30Z</time>
      </trkpt>
      <trkpt lat="48.7458" lon="1.86667">
        <ele>154</ele>
        <time>2010-05-13T13:23:31Z</time>
      </trkpt>
      <trkpt lat="48.74579" lon="1.86667">
        <ele>154</ele>
        <time>2010-05-13T13:23:32Z</time>
      </trkpt>
      <trkpt lat="48.74578" lon="1.86666">
        <ele>154</ele>
        <time>2010-05-13T13:23:33Z</time>
      </trkpt>
      <trkpt lat="48.74576" lon="1.86666">
        <ele>154</ele>
        <time>2010-05-13T13:23:34Z</time>
      </trkpt>
      <trkpt lat="48.74575" lon="1.86665">
        <ele>154</ele>
        <time>2010-05-13T13:23:35Z</time>
      </trkpt>
      <trkpt lat="48.74574" lon="1.86665">
        <ele>154</ele>
        <time>2010-05-13T13:23:37Z</time>
      </trkpt>
      <trkpt lat="48.74572" lon="1.86664">
        <ele>154</ele>
        <time>2010-05-13T13:23:39Z</time>
      </trkpt>
      <trkpt lat="48.74572" lon="1.86662">
        <ele>154</ele>
        <time>2010-05-13T13:23:47Z</time>
      </trkpt>
      <trkpt lat="48.74571" lon="1.8666">
        <ele>154</ele>
        <time>2010-05-13T13:23:53Z</time>
      </trkpt>
      <trkpt lat="48.7457" lon="1.86659">
        <ele>154</ele>
        <time>2010-05-13T13:23:55Z</time>
      </trkpt>
      <trkpt lat="48.74568" lon="1.86658">
        <ele>154</ele>
        <time>2010-05-13T13:23:57Z</time>
      </trkpt>
      <trkpt lat="48.74566" lon="1.86657">
        <ele>154</ele>
        <time>2010-05-13T13:23:59Z</time>
      </trkpt>
      <trkpt lat="48.74565" lon="1.86656">
        <ele>154</ele>
        <time>2010-05-13T13:24:01Z</time>
      </trkpt>
      <trkpt lat="48.74564" lon="1.86655">
        <ele>154</ele>
        <time>2010-05-13T13:24:03Z</time>
      </trkpt>
      <trkpt lat="48.74562" lon="1.86653">
        <ele>154</ele>
        <time>2010-05-13T13:24:05Z</time>
      </trkpt>
      <trkpt lat="48.7456" lon="1.86652">
        <ele>154</ele>
        <time>2010-05-13T13:24:07Z</time>
      </trkpt>
      <trkpt lat="48.74558" lon="1.8665">
        <ele>154</ele>
        <time>2010-05-13T13:24:09Z</time>
      </trkpt>
      <trkpt lat="48.74557" lon="1.86649">
        <ele>154</ele>
        <time>2010-05-13T13:24:10Z</time>
      </trkpt>
      <trkpt lat="48.74556" lon="1.86648">
        <ele>154</ele>
        <time>2010-05-13T13:24:11Z</time>
      </trkpt>
      <trkpt lat="48.74555" lon="1.86648">
        <ele>154</ele>
        <time>2010-05-13T13:24:12Z</time>
      </trkpt>
      <trkpt lat="48.74553" lon="1.86647">
        <ele>154</ele>
        <time>2010-05-13T13:24:13Z</time>
      </trkpt>
      <trkpt lat="48.74551" lon="1.86644">
        <ele>154</ele>
        <time>2010-05-13T13:24:15Z</time>
      </trkpt>
      <trkpt lat="48.7455" lon="1.86641">
        <ele>154</ele>
        <time>2010-05-13T13:24:16Z</time>
      </trkpt>
      <trkpt lat="48.74549" lon="1.8664">
        <ele>154</ele>
        <time>2010-05-13T13:24:17Z</time>
      </trkpt>
      <trkpt lat="48.74546" lon="1.86639">
        <ele>154</ele>
        <time>2010-05-13T13:24:19Z</time>
      </trkpt>
      <trkpt lat="48.74545" lon="1.86639">
        <ele>154</ele>
        <time>2010-05-13T13:24:20Z</time>
      </trkpt>
      <trkpt lat="48.74544" lon="1.86638">
        <ele>154</ele>
        <time>2010-05-13T13:24:21Z</time>
      </trkpt>
      <trkpt lat="48.74542" lon="1.86637">
        <ele>154</ele>
        <time>2010-05-13T13:24:23Z</time>
      </trkpt>
      <trkpt lat="48.7454" lon="1.86635">
        <ele>154</ele>
        <time>2010-05-13T13:24:25Z</time>
      </trkpt>
      <trkpt lat="48.74539" lon="1.86635">
        <ele>154</ele>
        <time>2010-05-13T13:24:26Z</time>
      </trkpt>
      <trkpt lat="48.74537" lon="1.86633">
        <ele>154</ele>
        <time>2010-05-13T13:24:28Z</time>
      </trkpt>
      <trkpt lat="48.74535" lon="1.86632">
        <ele>154</ele>
        <time>2010-05-13T13:24:30Z</time>
      </trkpt>
      <trkpt lat="48.74533" lon="1.86631">
        <ele>154</ele>
        <time>2010-05-13T13:24:32Z</time>
      </trkpt>
      <trkpt lat="48.74532" lon="1.8663">
        <ele>154</ele>
        <time>2010-05-13T13:24:33Z</time>
      </trkpt>
      <trkpt lat="48.74531" lon="1.86629">
        <ele>154</ele>
        <time>2010-05-13T13:24:34Z</time>
      </trkpt>
      <trkpt lat="48.74529" lon="1.86628">
        <ele>154</ele>
        <time>2010-05-13T13:24:35Z</time>
      </trkpt>
      <trkpt lat="48.74528" lon="1.86628">
        <ele>154</ele>
        <time>2010-05-13T13:24:36Z</time>
      </trkpt>
      <trkpt lat="48.74527" lon="1.86627">
        <ele>154</ele>
        <time>2010-05-13T13:24:37Z</time>
      </trkpt>
      <trkpt lat="48.74526" lon="1.86626">
        <ele>154</ele>
        <time>2010-05-13T13:24:38Z</time>
      </trkpt>
      <trkpt lat="48.74524" lon="1.86625">
        <ele>154</ele>
        <time>2010-05-13T13:24:39Z</time>
      </trkpt>
      <trkpt lat="48.74522" lon="1.86623">
        <ele>154</ele>
        <time>2010-05-13T13:24:41Z</time>
      </trkpt>
      <trkpt lat="48.74521" lon="1.86622">
        <ele>154</ele>
        <time>2010-05-13T13:24:42Z</time>
      </trkpt>
      <trkpt lat="48.7452" lon="1.86621">
        <ele>154</ele>
        <time>2010-05-13T13:24:43Z</time>
      </trkpt>
      <trkpt lat="48.74519" lon="1.8662">
        <ele>154</ele>
        <time>2010-05-13T13:24:44Z</time>
      </trkpt>
      <trkpt lat="48.74518" lon="1.8662">
        <ele>154</ele>
        <time>2010-05-13T13:24:45Z</time>
      </trkpt>
      <trkpt lat="48.74516" lon="1.86619">
        <ele>154</ele>
        <time>2010-05-13T13:24:46Z</time>
      </trkpt>
      <trkpt lat="48.74515" lon="1.86618">
        <ele>154</ele>
        <time>2010-05-13T13:24:47Z</time>
      </trkpt>
      <trkpt lat="48.74514" lon="1.86617">
        <ele>154</ele>
        <time>2010-05-13T13:24:48Z</time>
      </trkpt>
      <trkpt lat="48.74513" lon="1.86616">
        <ele>154</ele>
        <time>2010-05-13T13:24:49Z</time>
      </trkpt>
      <trkpt lat="48.74512" lon="1.86615">
        <ele>154</ele>
        <time>2010-05-13T13:24:50Z</time>
      </trkpt>
      <trkpt lat="48.7451" lon="1.86615">
        <ele>154</ele>
        <time>2010-05-13T13:24:51Z</time>
      </trkpt>
      <trkpt lat="48.74509" lon="1.86614">
        <ele>154</ele>
        <time>2010-05-13T13:24:52Z</time>
      </trkpt>
      <trkpt lat="48.74508" lon="1.86613">
        <ele>154</ele>
        <time>2010-05-13T13:24:53Z</time>
      </trkpt>
      <trkpt lat="48.74507" lon="1.86612">
        <ele>154</ele>
        <time>2010-05-13T13:24:54Z</time>
      </trkpt>
      <trkpt lat="48.74505" lon="1.86611">
        <ele>154</ele>
        <time>2010-05-13T13:24:56Z</time>
      </trkpt>
      <trkpt lat="48.74503" lon="1.8661">
        <ele>154</ele>
        <time>2010-05-13T13:24:57Z</time>
      </trkpt>
      <trkpt lat="48.74502" lon="1.86609">
        <ele>154</ele>
        <time>2010-05-13T13:24:58Z</time>
      </trkpt>
      <trkpt lat="48.74501" lon="1.86608">
        <ele>154</ele>
        <time>2010-05-13T13:24:59Z</time>
      </trkpt>
      <trkpt lat="48.745" lon="1.86607">
        <ele>154</ele>
        <time>2010-05-13T13:25:00Z</time>
      </trkpt>
      <trkpt lat="48.74499" lon="1.86606">
        <ele>154</ele>
        <time>2010-05-13T13:25:01Z</time>
      </trkpt>
      <trkpt lat="48.74497" lon="1.86606">
        <ele>154</ele>
        <time>2010-05-13T13:25:02Z</time>
      </trkpt>
      <trkpt lat="48.74496" lon="1.86605">
        <ele>154</ele>
        <time>2010-05-13T13:25:03Z</time>
      </trkpt>
      <trkpt lat="48.74495" lon="1.86604">
        <ele>154</ele>
        <time>2010-05-13T13:25:04Z</time>
      </trkpt>
      <trkpt lat="48.74494" lon="1.86603">
        <ele>154</ele>
        <time>2010-05-13T13:25:05Z</time>
      </trkpt>
      <trkpt lat="48.74493" lon="1.86603">
        <ele>154</ele>
        <time>2010-05-13T13:25:06Z</time>
      </trkpt>
      <trkpt lat="48.74491" lon="1.86602">
        <ele>154</ele>
        <time>2010-05-13T13:25:07Z</time>
      </trkpt>
      <trkpt lat="48.7449" lon="1.86601">
        <ele>154</ele>
        <time>2010-05-13T13:25:08Z</time>
      </trkpt>
      <trkpt lat="48.74489" lon="1.866">
        <ele>154</ele>
        <time>2010-05-13T13:25:09Z</time>
      </trkpt>
      <trkpt lat="48.74488" lon="1.86599">
        <ele>154</ele>
        <time>2010-05-13T13:25:10Z</time>
      </trkpt>
      <trkpt lat="48.74486" lon="1.86599">
        <ele>154</ele>
        <time>2010-05-13T13:25:11Z</time>
      </trkpt>
      <trkpt lat="48.74484" lon="1.86597">
        <ele>154</ele>
        <time>2010-05-13T13:25:13Z</time>
      </trkpt>
      <trkpt lat="48.74483" lon="1.86596">
        <ele>154</ele>
        <time>2010-05-13T13:25:14Z</time>
      </trkpt>
      <trkpt lat="48.74482" lon="1.86595">
        <ele>154</ele>
        <time>2010-05-13T13:25:15Z</time>
      </trkpt>
      <trkpt lat="48.7448" lon="1.86594">
        <ele>154</ele>
        <time>2010-05-13T13:25:16Z</time>
      </trkpt>
      <trkpt lat="48.74479" lon="1.86593">
        <ele>154</ele>
        <time>2010-05-13T13:25:17Z</time>
      </trkpt>
      <trkpt lat="48.74478" lon="1.86593">
        <ele>154</ele>
        <time>2010-05-13T13:25:18Z</time>
      </trkpt>
      <trkpt lat="48.74477" lon="1.86592">
        <ele>154</ele>
        <time>2010-05-13T13:25:19Z</time>
      </trkpt>
      <trkpt lat="48.74476" lon="1.86591">
        <ele>154</ele>
        <time>2010-05-13T13:25:20Z</time>
      </trkpt>
      <trkpt lat="48.74474" lon="1.8659">
        <ele>154</ele>
        <time>2010-05-13T13:25:21Z</time>
      </trkpt>
      <trkpt lat="48.74473" lon="1.86589">
        <ele>154</ele>
        <time>2010-05-13T13:25:22Z</time>
      </trkpt>
      <trkpt lat="48.74472" lon="1.86588">
        <ele>154</ele>
        <time>2010-05-13T13:25:23Z</time>
      </trkpt>
      <trkpt lat="48.74471" lon="1.86587">
        <ele>154</ele>
        <time>2010-05-13T13:25:24Z</time>
      </trkpt>
      <trkpt lat="48.7447" lon="1.86586">
        <ele>154</ele>
        <time>2010-05-13T13:25:25Z</time>
      </trkpt>
      <trkpt lat="48.74469" lon="1.86585">
        <ele>154</ele>
        <time>2010-05-13T13:25:26Z</time>
      </trkpt>
      <trkpt lat="48.74467" lon="1.86584">
        <ele>154</ele>
        <time>2010-05-13T13:25:27Z</time>
      </trkpt>
      <trkpt lat="48.74465" lon="1.86582">
        <ele>154</ele>
        <time>2010-05-13T13:25:29Z</time>
      </trkpt>
      <trkpt lat="48.74463" lon="1.8658">
        <ele>154</ele>
        <time>2010-05-13T13:25:31Z</time>
      </trkpt>
      <trkpt lat="48.74462" lon="1.8658">
        <ele>154</ele>
        <time>2010-05-13T13:25:32Z</time>
      </trkpt>
      <trkpt lat="48.74461" lon="1.86579">
        <ele>154</ele>
        <time>2010-05-13T13:25:33Z</time>
      </trkpt>
      <trkpt lat="48.7446" lon="1.86578">
        <ele>154</ele>
        <time>2010-05-13T13:25:34Z</time>
      </trkpt>
      <trkpt lat="48.74459" lon="1.86577">
        <ele>154</ele>
        <time>2010-05-13T13:25:35Z</time>
      </trkpt>
      <trkpt lat="48.74457" lon="1.86577">
        <ele>154</ele>
        <time>2010-05-13T13:25:36Z</time>
      </trkpt>
      <trkpt lat="48.74456" lon="1.86576">
        <ele>154</ele>
        <time>2010-05-13T13:25:37Z</time>
      </trkpt>
      <trkpt lat="48.74455" lon="1.86575">
        <ele>154</ele>
        <time>2010-05-13T13:25:38Z</time>
      </trkpt>
      <trkpt lat="48.74454" lon="1.86574">
        <ele>154</ele>
        <time>2010-05-13T13:25:39Z</time>
      </trkpt>
      <trkpt lat="48.74453" lon="1.86573">
        <ele>154</ele>
        <time>2010-05-13T13:25:40Z</time>
      </trkpt>
      <trkpt lat="48.74451" lon="1.86572">
        <ele>154</ele>
        <time>2010-05-13T13:25:42Z</time>
      </trkpt>
      <trkpt lat="48.74448" lon="1.8657">
        <ele>154</ele>
        <time>2010-05-13T13:25:44Z</time>
      </trkpt>
      <trkpt lat="48.74447" lon="1.86569">
        <ele>154</ele>
        <time>2010-05-13T13:25:45Z</time>
      </trkpt>
      <trkpt lat="48.74446" lon="1.86568">
        <ele>154</ele>
        <time>2010-05-13T13:25:46Z</time>
      </trkpt>
      <trkpt lat="48.74445" lon="1.86567">
        <ele>154</ele>
        <time>2010-05-13T13:25:47Z</time>
      </trkpt>
      <trkpt lat="48.74444" lon="1.86566">
        <ele>154</ele>
        <time>2010-05-13T13:25:48Z</time>
      </trkpt>
      <trkpt lat="48.74443" lon="1.86566">
        <ele>154</ele>
        <time>2010-05-13T13:25:49Z</time>
      </trkpt>
      <trkpt lat="48.74441" lon="1.86565">
        <ele>154</ele>
        <time>2010-05-13T13:25:50Z</time>
      </trkpt>
      <trkpt lat="48.7444" lon="1.86564">
        <ele>154</ele>
        <time>2010-05-13T13:25:51Z</time>
      </trkpt>
      <trkpt lat="48.74439" lon="1.86563">
        <ele>154</ele>
        <time>2010-05-13T13:25:52Z</time>
      </trkpt>
      <trkpt lat="48.74438" lon="1.86562">
        <ele>154</ele>
        <time>2010-05-13T13:25:53Z</time>
      </trkpt>
      <trkpt lat="48.74437" lon="1.86561">
        <ele>154</ele>
        <time>2010-05-13T13:25:54Z</time>
      </trkpt>
      <trkpt lat="48.74435" lon="1.8656">
        <ele>154</ele>
        <time>2010-05-13T13:25:55Z</time>
      </trkpt>
      <trkpt lat="48.74434" lon="1.86559">
        <ele>154</ele>
        <time>2010-05-13T13:25:56Z</time>
      </trkpt>
      <trkpt lat="48.74433" lon="1.86558">
        <ele>154</ele>
        <time>2010-05-13T13:25:57Z</time>
      </trkpt>
      <trkpt lat="48.74432" lon="1.86557">
        <ele>154</ele>
        <time>2010-05-13T13:25:58Z</time>
      </trkpt>
      <trkpt lat="48.74431" lon="1.86556">
        <ele>154</ele>
        <time>2010-05-13T13:25:59Z</time>
      </trkpt>
      <trkpt lat="48.74429" lon="1.86555">
        <ele>154</ele>
        <time>2010-05-13T13:26:00Z</time>
      </trkpt>
      <trkpt lat="48.74428" lon="1.86555">
        <ele>154</ele>
        <time>2010-05-13T13:26:01Z</time>
      </trkpt>
      <trkpt lat="48.74427" lon="1.86554">
        <ele>154</ele>
        <time>2010-05-13T13:26:02Z</time>
      </trkpt>
      <trkpt lat="48.74426" lon="1.86553">
        <ele>154</ele>
        <time>2010-05-13T13:26:03Z</time>
      </trkpt>
      <trkpt lat="48.74424" lon="1.86553">
        <ele>154</ele>
        <time>2010-05-13T13:26:04Z</time>
      </trkpt>
      <trkpt lat="48.74423" lon="1.86552">
        <ele>154</ele>
        <time>2010-05-13T13:26:05Z</time>
      </trkpt>
      <trkpt lat="48.74422" lon="1.86551">
        <ele>154</ele>
        <time>2010-05-13T13:26:06Z</time>
      </trkpt>
      <trkpt lat="48.74421" lon="1.8655">
        <ele>154</ele>
        <time>2010-05-13T13:26:07Z</time>
      </trkpt>
      <trkpt lat="48.7442" lon="1.86549">
        <ele>154</ele>
        <time>2010-05-13T13:26:08Z</time>
      </trkpt>
      <trkpt lat="48.74418" lon="1.86548">
        <ele>154</ele>
        <time>2010-05-13T13:26:09Z</time>
      </trkpt>
      <trkpt lat="48.74417" lon="1.86547">
        <ele>154</ele>
        <time>2010-05-13T13:26:10Z</time>
      </trkpt>
      <trkpt lat="48.74416" lon="1.86546">
        <ele>154</ele>
        <time>2010-05-13T13:26:11Z</time>
      </trkpt>
      <trkpt lat="48.74414" lon="1.86543">
        <ele>154</ele>
        <time>2010-05-13T13:26:13Z</time>
      </trkpt>
      <trkpt lat="48.74412" lon="1.86542">
        <ele>154</ele>
        <time>2010-05-13T13:26:14Z</time>
      </trkpt>
      <trkpt lat="48.74411" lon="1.86541">
        <ele>154</ele>
        <time>2010-05-13T13:26:15Z</time>
      </trkpt>
      <trkpt lat="48.7441" lon="1.8654">
        <ele>154</ele>
        <time>2010-05-13T13:26:16Z</time>
      </trkpt>
      <trkpt lat="48.74409" lon="1.86539">
        <ele>154</ele>
        <time>2010-05-13T13:26:17Z</time>
      </trkpt>
      <trkpt lat="48.74408" lon="1.86539">
        <ele>154</ele>
        <time>2010-05-13T13:26:18Z</time>
      </trkpt>
      <trkpt lat="48.74406" lon="1.86538">
        <ele>154</ele>
        <time>2010-05-13T13:26:19Z</time>
      </trkpt>
      <trkpt lat="48.74405" lon="1.86537">
        <ele>154</ele>
        <time>2010-05-13T13:26:20Z</time>
      </trkpt>
      <trkpt lat="48.74404" lon="1.86537">
        <ele>154</ele>
        <time>2010-05-13T13:26:21Z</time>
      </trkpt>
      <trkpt lat="48.74403" lon="1.86536">
        <ele>154</ele>
        <time>2010-05-13T13:26:22Z</time>
      </trkpt>
      <trkpt lat="48.74401" lon="1.86535">
        <ele>154</ele>
        <time>2010-05-13T13:26:23Z</time>
      </trkpt>
      <trkpt lat="48.744" lon="1.86534">
        <ele>154</ele>
        <time>2010-05-13T13:26:24Z</time>
      </trkpt>
      <trkpt lat="48.74399" lon="1.86533">
        <ele>154</ele>
        <time>2010-05-13T13:26:25Z</time>
      </trkpt>
      <trkpt lat="48.74398" lon="1.86533">
        <ele>154</ele>
        <time>2010-05-13T13:26:26Z</time>
      </trkpt>
      <trkpt lat="48.74397" lon="1.86532">
        <ele>154</ele>
        <time>2010-05-13T13:26:27Z</time>
      </trkpt>
      <trkpt lat="48.74394" lon="1.8653">
        <ele>154</ele>
        <time>2010-05-13T13:26:29Z</time>
      </trkpt>
      <trkpt lat="48.74393" lon="1.86529">
        <ele>154</ele>
        <time>2010-05-13T13:26:30Z</time>
      </trkpt>
      <trkpt lat="48.74392" lon="1.86528">
        <ele>154</ele>
        <time>2010-05-13T13:26:31Z</time>
      </trkpt>
      <trkpt lat="48.74391" lon="1.86528">
        <ele>154</ele>
        <time>2010-05-13T13:26:32Z</time>
      </trkpt>
      <trkpt lat="48.74389" lon="1.86527">
        <ele>154</ele>
        <time>2010-05-13T13:26:33Z</time>
      </trkpt>
      <trkpt lat="48.74388" lon="1.86526">
        <ele>154</ele>
        <time>2010-05-13T13:26:34Z</time>
      </trkpt>
      <trkpt lat="48.74387" lon="1.86525">
        <ele>154</ele>
        <time>2010-05-13T13:26:35Z</time>
      </trkpt>
      <trkpt lat="48.74386" lon="1.86525">
        <ele>154</ele>
        <time>2010-05-13T13:26:36Z</time>
      </trkpt>
      <trkpt lat="48.74385" lon="1.86524">
        <ele>154</ele>
        <time>2010-05-13T13:26:37Z</time>
      </trkpt>
      <trkpt lat="48.74383" lon="1.86523">
        <ele>154</ele>
        <time>2010-05-13T13:26:38Z</time>
      </trkpt>
      <trkpt lat="48.74382" lon="1.86523">
        <ele>154</ele>
        <time>2010-05-13T13:26:39Z</time>
      </trkpt>
      <trkpt lat="48.74381" lon="1.86522">
        <ele>154</ele>
        <time>2010-05-13T13:26:40Z</time>
      </trkpt>
      <trkpt lat="48.7438" lon="1.86521">
        <ele>154</ele>
        <time>2010-05-13T13:26:41Z</time>
      </trkpt>
      <trkpt lat="48.74378" lon="1.86521">
        <ele>154</ele>
        <time>2010-05-13T13:26:42Z</time>
      </trkpt>
      <trkpt lat="48.74377" lon="1.8652">
        <ele>154</ele>
        <time>2010-05-13T13:26:43Z</time>
      </trkpt>
      <trkpt lat="48.74376" lon="1.86519">
        <ele>154</ele>
        <time>2010-05-13T13:26:44Z</time>
      </trkpt>
      <trkpt lat="48.74375" lon="1.86519">
        <ele>154</ele>
        <time>2010-05-13T13:26:45Z</time>
      </trkpt>
      <trkpt lat="48.74374" lon="1.86518">
        <ele>154</ele>
        <time>2010-05-13T13:26:46Z</time>
      </trkpt>
      <trkpt lat="48.74372" lon="1.86518">
        <ele>154</ele>
        <time>2010-05-13T13:26:47Z</time>
      </trkpt>
      <trkpt lat="48.74371" lon="1.86517">
        <ele>154</ele>
        <time>2010-05-13T13:26:48Z</time>
      </trkpt>
      <trkpt lat="48.7437" lon="1.86516">
        <ele>154</ele>
        <time>2010-05-13T13:26:49Z</time>
      </trkpt>
      <trkpt lat="48.74369" lon="1.86515">
        <ele>154</ele>
        <time>2010-05-13T13:26:50Z</time>
      </trkpt>
      <trkpt lat="48.74367" lon="1.86514">
        <ele>154</ele>
        <time>2010-05-13T13:26:52Z</time>
      </trkpt>
      <trkpt lat="48.74365" lon="1.86512">
        <ele>154</ele>
        <time>2010-05-13T13:26:54Z</time>
      </trkpt>
      <trkpt lat="48.74364" lon="1.86511">
        <ele>154</ele>
        <time>2010-05-13T13:26:55Z</time>
      </trkpt>
      <trkpt lat="48.74362" lon="1.86511">
        <ele>154</ele>
        <time>2010-05-13T13:26:56Z</time>
      </trkpt>
      <trkpt lat="48.74361" lon="1.8651">
        <ele>154</ele>
        <time>2010-05-13T13:26:57Z</time>
      </trkpt>
      <trkpt lat="48.7436" lon="1.86509">
        <ele>154</ele>
        <time>2010-05-13T13:26:58Z</time>
      </trkpt>
      <trkpt lat="48.74358" lon="1.86507">
        <ele>154</ele>
        <time>2010-05-13T13:27:00Z</time>
      </trkpt>
      <trkpt lat="48.74356" lon="1.86506">
        <ele>154</ele>
        <time>2010-05-13T13:27:01Z</time>
      </trkpt>
      <trkpt lat="48.74354" lon="1.86504">
        <ele>154</ele>
        <time>2010-05-13T13:27:03Z</time>
      </trkpt>
      <trkpt lat="48.74353" lon="1.86504">
        <ele>154</ele>
        <time>2010-05-13T13:27:04Z</time>
      </trkpt>
      <trkpt lat="48.74352" lon="1.86503">
        <ele>154</ele>
        <time>2010-05-13T13:27:05Z</time>
      </trkpt>
      <trkpt lat="48.7435" lon="1.86502">
        <ele>154</ele>
        <time>2010-05-13T13:27:07Z</time>
      </trkpt>
      <trkpt lat="48.74349" lon="1.86501">
        <ele>154</ele>
        <time>2010-05-13T13:27:08Z</time>
      </trkpt>
      <trkpt lat="48.74347" lon="1.865">
        <ele>154</ele>
        <time>2010-05-13T13:27:09Z</time>
      </trkpt>
      <trkpt lat="48.74346" lon="1.86499">
        <ele>154</ele>
        <time>2010-05-13T13:27:10Z</time>
      </trkpt>
      <trkpt lat="48.74344" lon="1.86498">
        <ele>154</ele>
        <time>2010-05-13T13:27:11Z</time>
      </trkpt>
      <trkpt lat="48.74341" lon="1.86496">
        <ele>154</ele>
        <time>2010-05-13T13:27:12Z</time>
      </trkpt>
      <trkpt lat="48.74339" lon="1.86495">
        <ele>154</ele>
        <time>2010-05-13T13:27:13Z</time>
      </trkpt>
      <trkpt lat="48.74336" lon="1.86493">
        <ele>154</ele>
        <time>2010-05-13T13:27:14Z</time>
      </trkpt>
      <trkpt lat="48.74333" lon="1.86491">
        <ele>154</ele>
        <time>2010-05-13T13:27:15Z</time>
      </trkpt>
      <trkpt lat="48.7433" lon="1.86489">
        <ele>154</ele>
        <time>2010-05-13T13:27:16Z</time>
      </trkpt>
      <trkpt lat="48.74327" lon="1.86487">
        <ele>154</ele>
        <time>2010-05-13T13:27:17Z</time>
      </trkpt>
      <trkpt lat="48.74324" lon="1.86485">
        <ele>154</ele>
        <time>2010-05-13T13:27:18Z</time>
      </trkpt>
      <trkpt lat="48.74321" lon="1.86483">
        <ele>154</ele>
        <time>2010-05-13T13:27:19Z</time>
      </trkpt>
      <trkpt lat="48.74318" lon="1.86481">
        <ele>154</ele>
        <time>2010-05-13T13:27:20Z</time>
      </trkpt>
      <trkpt lat="48.74316" lon="1.86479">
        <ele>154</ele>
        <time>2010-05-13T13:27:21Z</time>
      </trkpt>
      <trkpt lat="48.74313" lon="1.86476">
        <ele>154</ele>
        <time>2010-05-13T13:27:22Z</time>
      </trkpt>
      <trkpt lat="48.7431" lon="1.86475">
        <ele>154</ele>
        <time>2010-05-13T13:27:23Z</time>
      </trkpt>
      <trkpt lat="48.74308" lon="1.86472">
        <ele>154</ele>
        <time>2010-05-13T13:27:24Z</time>
      </trkpt>
      <trkpt lat="48.74306" lon="1.8647">
        <ele>154</ele>
        <time>2010-05-13T13:27:25Z</time>
      </trkpt>
      <trkpt lat="48.74305" lon="1.86467">
        <ele>154</ele>
        <time>2010-05-13T13:27:26Z</time>
      </trkpt>
      <trkpt lat="48.74304" lon="1.86466">
        <ele>154</ele>
        <time>2010-05-13T13:27:27Z</time>
      </trkpt>
      <trkpt lat="48.74302" lon="1.86465">
        <ele>154</ele>
        <time>2010-05-13T13:27:28Z</time>
      </trkpt>
      <trkpt lat="48.743" lon="1.86463">
        <ele>154</ele>
        <time>2010-05-13T13:27:30Z</time>
      </trkpt>
      <trkpt lat="48.74298" lon="1.86461">
        <ele>154</ele>
        <time>2010-05-13T13:27:32Z</time>
      </trkpt>
      <trkpt lat="48.74297" lon="1.8646">
        <ele>154</ele>
        <time>2010-05-13T13:27:33Z</time>
      </trkpt>
      <trkpt lat="48.74296" lon="1.86458">
        <ele>154</ele>
        <time>2010-05-13T13:27:34Z</time>
      </trkpt>
      <trkpt lat="48.74293" lon="1.86453">
        <ele>155</ele>
        <time>2010-05-13T13:27:35Z</time>
      </trkpt>
      <trkpt lat="48.74291" lon="1.86449">
        <ele>155</ele>
        <time>2010-05-13T13:27:36Z</time>
      </trkpt>
      <trkpt lat="48.7429" lon="1.86446">
        <ele>156</ele>
        <time>2010-05-13T13:27:37Z</time>
      </trkpt>
      <trkpt lat="48.74288" lon="1.86443">
        <ele>156</ele>
        <time>2010-05-13T13:27:38Z</time>
      </trkpt>
      <trkpt lat="48.74287" lon="1.86441">
        <ele>156</ele>
        <time>2010-05-13T13:27:39Z</time>
      </trkpt>
      <trkpt lat="48.74286" lon="1.8644">
        <ele>157</ele>
        <time>2010-05-13T13:27:40Z</time>
      </trkpt>
      <trkpt lat="48.74284" lon="1.86439">
        <ele>157</ele>
        <time>2010-05-13T13:27:41Z</time>
      </trkpt>
      <trkpt lat="48.74283" lon="1.86438">
        <ele>157</ele>
        <time>2010-05-13T13:27:42Z</time>
      </trkpt>
      <trkpt lat="48.74281" lon="1.86436">
        <ele>158</ele>
        <time>2010-05-13T13:27:43Z</time>
      </trkpt>
      <trkpt lat="48.7428" lon="1.86435">
        <ele>158</ele>
        <time>2010-05-13T13:27:44Z</time>
      </trkpt>
      <trkpt lat="48.74279" lon="1.86434">
        <ele>158</ele>
        <time>2010-05-13T13:27:45Z</time>
      </trkpt>
      <trkpt lat="48.74278" lon="1.86433">
        <ele>158</ele>
        <time>2010-05-13T13:27:46Z</time>
      </trkpt>
      <trkpt lat="48.74277" lon="1.86432">
        <ele>159</ele>
        <time>2010-05-13T13:27:47Z</time>
      </trkpt>
      <trkpt lat="48.74274" lon="1.8643">
        <ele>159</ele>
        <time>2010-05-13T13:27:49Z</time>
      </trkpt>
      <trkpt lat="48.74273" lon="1.86429">
        <ele>159</ele>
        <time>2010-05-13T13:27:50Z</time>
      </trkpt>
      <trkpt lat="48.74272" lon="1.86428">
        <ele>159</ele>
        <time>2010-05-13T13:27:51Z</time>
      </trkpt>
      <trkpt lat="48.7427" lon="1.86427">
        <ele>160</ele>
        <time>2010-05-13T13:27:52Z</time>
      </trkpt>
      <trkpt lat="48.74268" lon="1.86425">
        <ele>160</ele>
        <time>2010-05-13T13:27:54Z</time>
      </trkpt>
      <trkpt lat="48.74266" lon="1.86423">
        <ele>161</ele>
        <time>2010-05-13T13:27:56Z</time>
      </trkpt>
      <trkpt lat="48.74265" lon="1.86423">
        <ele>161</ele>
        <time>2010-05-13T13:27:57Z</time>
      </trkpt>
      <trkpt lat="48.74263" lon="1.86422">
        <ele>161</ele>
        <time>2010-05-13T13:27:58Z</time>
      </trkpt>
      <trkpt lat="48.74262" lon="1.86421">
        <ele>162</ele>
        <time>2010-05-13T13:28:00Z</time>
      </trkpt>
      <trkpt lat="48.7426" lon="1.86419">
        <ele>163</ele>
        <time>2010-05-13T13:28:02Z</time>
      </trkpt>
      <trkpt lat="48.74258" lon="1.86417">
        <ele>163</ele>
        <time>2010-05-13T13:28:03Z</time>
      </trkpt>
      <trkpt lat="48.74257" lon="1.86416">
        <ele>163</ele>
        <time>2010-05-13T13:28:04Z</time>
      </trkpt>
      <trkpt lat="48.74256" lon="1.86415">
        <ele>163</ele>
        <time>2010-05-13T13:28:05Z</time>
      </trkpt>
      <trkpt lat="48.74255" lon="1.86413">
        <ele>163</ele>
        <time>2010-05-13T13:28:06Z</time>
      </trkpt>
      <trkpt lat="48.74253" lon="1.86411">
        <ele>163</ele>
        <time>2010-05-13T13:28:08Z</time>
      </trkpt>
      <trkpt lat="48.74251" lon="1.86409">
        <ele>163</ele>
        <time>2010-05-13T13:28:10Z</time>
      </trkpt>
      <trkpt lat="48.7425" lon="1.86408">
        <ele>163</ele>
        <time>2010-05-13T13:28:12Z</time>
      </trkpt>
      <trkpt lat="48.74248" lon="1.86406">
        <ele>163</ele>
        <time>2010-05-13T13:28:14Z</time>
      </trkpt>
      <trkpt lat="48.74247" lon="1.86406">
        <ele>163</ele>
        <time>2010-05-13T13:28:15Z</time>
      </trkpt>
      <trkpt lat="48.74245" lon="1.86405">
        <ele>163</ele>
        <time>2010-05-13T13:28:17Z</time>
      </trkpt>
      <trkpt lat="48.74244" lon="1.86405">
        <ele>163</ele>
        <time>2010-05-13T13:28:19Z</time>
      </trkpt>
      <trkpt lat="48.74242" lon="1.86404">
        <ele>163</ele>
        <time>2010-05-13T13:28:21Z</time>
      </trkpt>
      <trkpt lat="48.7424" lon="1.86403">
        <ele>163</ele>
        <time>2010-05-13T13:28:23Z</time>
      </trkpt>
      <trkpt lat="48.74238" lon="1.86402">
        <ele>164</ele>
        <time>2010-05-13T13:28:25Z</time>
      </trkpt>
      <trkpt lat="48.74237" lon="1.86402">
        <ele>165</ele>
        <time>2010-05-13T13:28:27Z</time>
      </trkpt>
      <trkpt lat="48.74236" lon="1.86401">
        <ele>165</ele>
        <time>2010-05-13T13:28:28Z</time>
      </trkpt>
      <trkpt lat="48.74234" lon="1.86401">
        <ele>165</ele>
        <time>2010-05-13T13:28:29Z</time>
      </trkpt>
      <trkpt lat="48.74232" lon="1.86399">
        <ele>165</ele>
        <time>2010-05-13T13:28:31Z</time>
      </trkpt>
      <trkpt lat="48.74231" lon="1.86399">
        <ele>165</ele>
        <time>2010-05-13T13:28:32Z</time>
      </trkpt>
      <trkpt lat="48.74228" lon="1.86396">
        <ele>165</ele>
        <time>2010-05-13T13:28:33Z</time>
      </trkpt>
      <trkpt lat="48.74226" lon="1.86395">
        <ele>166</ele>
        <time>2010-05-13T13:28:34Z</time>
      </trkpt>
      <trkpt lat="48.74225" lon="1.86394">
        <ele>167</ele>
        <time>2010-05-13T13:28:35Z</time>
      </trkpt>
      <trkpt lat="48.74223" lon="1.86394">
        <ele>168</ele>
        <time>2010-05-13T13:28:37Z</time>
      </trkpt>
      <trkpt lat="48.74221" lon="1.86392">
        <ele>169</ele>
        <time>2010-05-13T13:28:39Z</time>
      </trkpt>
      <trkpt lat="48.74219" lon="1.86391">
        <ele>169</ele>
        <time>2010-05-13T13:28:41Z</time>
      </trkpt>
      <trkpt lat="48.74218" lon="1.86391">
        <ele>169</ele>
        <time>2010-05-13T13:28:42Z</time>
      </trkpt>
      <trkpt lat="48.74216" lon="1.86389">
        <ele>170</ele>
        <time>2010-05-13T13:28:44Z</time>
      </trkpt>
      <trkpt lat="48.74215" lon="1.86389">
        <ele>171</ele>
        <time>2010-05-13T13:28:46Z</time>
      </trkpt>
      <trkpt lat="48.74213" lon="1.86387">
        <ele>171</ele>
        <time>2010-05-13T13:28:48Z</time>
      </trkpt>
      <trkpt lat="48.74212" lon="1.86386">
        <ele>171</ele>
        <time>2010-05-13T13:28:49Z</time>
      </trkpt>
      <trkpt lat="48.74211" lon="1.86385">
        <ele>171</ele>
        <time>2010-05-13T13:28:50Z</time>
      </trkpt>
      <trkpt lat="48.74209" lon="1.86385">
        <ele>171</ele>
        <time>2010-05-13T13:28:51Z</time>
      </trkpt>
      <trkpt lat="48.74208" lon="1.86384">
        <ele>171</ele>
        <time>2010-05-13T13:28:52Z</time>
      </trkpt>
      <trkpt lat="48.74207" lon="1.86383">
        <ele>171</ele>
        <time>2010-05-13T13:28:53Z</time>
      </trkpt>
      <trkpt lat="48.74206" lon="1.86383">
        <ele>171</ele>
        <time>2010-05-13T13:28:54Z</time>
      </trkpt>
      <trkpt lat="48.74204" lon="1.86381">
        <ele>171</ele>
        <time>2010-05-13T13:28:56Z</time>
      </trkpt>
      <trkpt lat="48.74202" lon="1.8638">
        <ele>171</ele>
        <time>2010-05-13T13:28:58Z</time>
      </trkpt>
      <trkpt lat="48.742" lon="1.86378">
        <ele>171</ele>
        <time>2010-05-13T13:29:00Z</time>
      </trkpt>
      <trkpt lat="48.74199" lon="1.86377">
        <ele>171</ele>
        <time>2010-05-13T13:29:01Z</time>
      </trkpt>
      <trkpt lat="48.74197" lon="1.86376">
        <ele>171</ele>
        <time>2010-05-13T13:29:02Z</time>
      </trkpt>
      <trkpt lat="48.74196" lon="1.86375">
        <ele>171</ele>
        <time>2010-05-13T13:29:03Z</time>
      </trkpt>
      <trkpt lat="48.74194" lon="1.86374">
        <ele>171</ele>
        <time>2010-05-13T13:29:05Z</time>
      </trkpt>
      <trkpt lat="48.74193" lon="1.86373">
        <ele>171</ele>
        <time>2010-05-13T13:29:07Z</time>
      </trkpt>
      <trkpt lat="48.74192" lon="1.86372">
        <ele>171</ele>
        <time>2010-05-13T13:29:08Z</time>
      </trkpt>
      <trkpt lat="48.74189" lon="1.86369">
        <ele>171</ele>
        <time>2010-05-13T13:29:10Z</time>
      </trkpt>
      <trkpt lat="48.74188" lon="1.86369">
        <ele>171</ele>
        <time>2010-05-13T13:29:11Z</time>
      </trkpt>
      <trkpt lat="48.74186" lon="1.86366">
        <ele>171</ele>
        <time>2010-05-13T13:29:13Z</time>
      </trkpt>
      <trkpt lat="48.74184" lon="1.86365">
        <ele>171</ele>
        <time>2010-05-13T13:29:14Z</time>
      </trkpt>
      <trkpt lat="48.74182" lon="1.86362">
        <ele>171</ele>
        <time>2010-05-13T13:29:17Z</time>
      </trkpt>
      <trkpt lat="48.74181" lon="1.86359">
        <ele>171</ele>
        <time>2010-05-13T13:29:18Z</time>
      </trkpt>
      <trkpt lat="48.74179" lon="1.86358">
        <ele>171</ele>
        <time>2010-05-13T13:29:19Z</time>
      </trkpt>
      <trkpt lat="48.74177" lon="1.86356">
        <ele>170</ele>
        <time>2010-05-13T13:29:20Z</time>
      </trkpt>
      <trkpt lat="48.74175" lon="1.86353">
        <ele>170</ele>
        <time>2010-05-13T13:29:21Z</time>
      </trkpt>
      <trkpt lat="48.74173" lon="1.8635">
        <ele>170</ele>
        <time>2010-05-13T13:29:22Z</time>
      </trkpt>
      <trkpt lat="48.74172" lon="1.86347">
        <ele>170</ele>
        <time>2010-05-13T13:29:23Z</time>
      </trkpt>
      <trkpt lat="48.74171" lon="1.86345">
        <ele>170</ele>
        <time>2010-05-13T13:29:24Z</time>
      </trkpt>
      <trkpt lat="48.74168" lon="1.86341">
        <ele>170</ele>
        <time>2010-05-13T13:29:26Z</time>
      </trkpt>
      <trkpt lat="48.74167" lon="1.86341">
        <ele>170</ele>
        <time>2010-05-13T13:29:27Z</time>
      </trkpt>
      <trkpt lat="48.74165" lon="1.8634">
        <ele>170</ele>
        <time>2010-05-13T13:29:30Z</time>
      </trkpt>
      <trkpt lat="48.74162" lon="1.86336">
        <ele>170</ele>
        <time>2010-05-13T13:29:31Z</time>
      </trkpt>
      <trkpt lat="48.74158" lon="1.86336">
        <ele>170</ele>
        <time>2010-05-13T13:29:32Z</time>
      </trkpt>
      <trkpt lat="48.74155" lon="1.86335">
        <ele>169</ele>
        <time>2010-05-13T13:29:33Z</time>
      </trkpt>
      <trkpt lat="48.74151" lon="1.86334">
        <ele>168</ele>
        <time>2010-05-13T13:29:34Z</time>
      </trkpt>
      <trkpt lat="48.74148" lon="1.86333">
        <ele>167</ele>
        <time>2010-05-13T13:29:35Z</time>
      </trkpt>
      <trkpt lat="48.74146" lon="1.86332">
        <ele>167</ele>
        <time>2010-05-13T13:29:36Z</time>
      </trkpt>
      <trkpt lat="48.74144" lon="1.86329">
        <ele>166</ele>
        <time>2010-05-13T13:29:37Z</time>
      </trkpt>
      <trkpt lat="48.74143" lon="1.86327">
        <ele>166</ele>
        <time>2010-05-13T13:29:38Z</time>
      </trkpt>
      <trkpt lat="48.74141" lon="1.86324">
        <ele>166</ele>
        <time>2010-05-13T13:29:39Z</time>
      </trkpt>
      <trkpt lat="48.7414" lon="1.86324">
        <ele>166</ele>
        <time>2010-05-13T13:29:40Z</time>
      </trkpt>
      <trkpt lat="48.74138" lon="1.86321">
        <ele>166</ele>
        <time>2010-05-13T13:29:42Z</time>
      </trkpt>
      <trkpt lat="48.74136" lon="1.8632">
        <ele>166</ele>
        <time>2010-05-13T13:29:43Z</time>
      </trkpt>
      <trkpt lat="48.74134" lon="1.86319">
        <ele>166</ele>
        <time>2010-05-13T13:29:45Z</time>
      </trkpt>
      <trkpt lat="48.74132" lon="1.86317">
        <ele>166</ele>
        <time>2010-05-13T13:29:46Z</time>
      </trkpt>
      <trkpt lat="48.74131" lon="1.86317">
        <ele>166</ele>
        <time>2010-05-13T13:29:47Z</time>
      </trkpt>
      <trkpt lat="48.74129" lon="1.86316">
        <ele>166</ele>
        <time>2010-05-13T13:29:48Z</time>
      </trkpt>
      <trkpt lat="48.74127" lon="1.86315">
        <ele>166</ele>
        <time>2010-05-13T13:29:49Z</time>
      </trkpt>
      <trkpt lat="48.74126" lon="1.86314">
        <ele>166</ele>
        <time>2010-05-13T13:29:50Z</time>
      </trkpt>
      <trkpt lat="48.74125" lon="1.86313">
        <ele>166</ele>
        <time>2010-05-13T13:29:51Z</time>
      </trkpt>
      <trkpt lat="48.74122" lon="1.8631">
        <ele>165</ele>
        <time>2010-05-13T13:29:54Z</time>
      </trkpt>
      <trkpt lat="48.7412" lon="1.86306">
        <ele>165</ele>
        <time>2010-05-13T13:29:55Z</time>
      </trkpt>
      <trkpt lat="48.74117" lon="1.86305">
        <ele>165</ele>
        <time>2010-05-13T13:29:56Z</time>
      </trkpt>
      <trkpt lat="48.74115" lon="1.86303">
        <ele>165</ele>
        <time>2010-05-13T13:29:57Z</time>
      </trkpt>
      <trkpt lat="48.74114" lon="1.86303">
        <ele>165</ele>
        <time>2010-05-13T13:29:59Z</time>
      </trkpt>
      <trkpt lat="48.74112" lon="1.86301">
        <ele>165</ele>
        <time>2010-05-13T13:30:00Z</time>
      </trkpt>
      <trkpt lat="48.74111" lon="1.863">
        <ele>165</ele>
        <time>2010-05-13T13:30:01Z</time>
      </trkpt>
      <trkpt lat="48.74109" lon="1.863">
        <ele>165</ele>
        <time>2010-05-13T13:30:04Z</time>
      </trkpt>
      <trkpt lat="48.74108" lon="1.86298">
        <ele>165</ele>
        <time>2010-05-13T13:30:06Z</time>
      </trkpt>
      <trkpt lat="48.74106" lon="1.86297">
        <ele>165</ele>
        <time>2010-05-13T13:30:08Z</time>
      </trkpt>
      <trkpt lat="48.74106" lon="1.86296">
        <ele>165</ele>
        <time>2010-05-13T13:30:10Z</time>
      </trkpt>
      <trkpt lat="48.74103" lon="1.86294">
        <ele>165</ele>
        <time>2010-05-13T13:30:12Z</time>
      </trkpt>
      <trkpt lat="48.74102" lon="1.86294">
        <ele>165</ele>
        <time>2010-05-13T13:30:13Z</time>
      </trkpt>
      <trkpt lat="48.741" lon="1.86293">
        <ele>165</ele>
        <time>2010-05-13T13:30:15Z</time>
      </trkpt>
      <trkpt lat="48.74098" lon="1.86292">
        <ele>165</ele>
        <time>2010-05-13T13:30:17Z</time>
      </trkpt>
      <trkpt lat="48.74096" lon="1.86292">
        <ele>165</ele>
        <time>2010-05-13T13:30:18Z</time>
      </trkpt>
      <trkpt lat="48.74095" lon="1.86291">
        <ele>165</ele>
        <time>2010-05-13T13:30:19Z</time>
      </trkpt>
      <trkpt lat="48.74093" lon="1.8629">
        <ele>165</ele>
        <time>2010-05-13T13:30:20Z</time>
      </trkpt>
      <trkpt lat="48.74091" lon="1.86287">
        <ele>166</ele>
        <time>2010-05-13T13:30:23Z</time>
      </trkpt>
      <trkpt lat="48.74088" lon="1.86285">
        <ele>167</ele>
        <time>2010-05-13T13:30:24Z</time>
      </trkpt>
      <trkpt lat="48.74085" lon="1.86283">
        <ele>167</ele>
        <time>2010-05-13T13:30:25Z</time>
      </trkpt>
      <trkpt lat="48.74083" lon="1.86282">
        <ele>167</ele>
        <time>2010-05-13T13:30:26Z</time>
      </trkpt>
      <trkpt lat="48.74082" lon="1.8628">
        <ele>167</ele>
        <time>2010-05-13T13:30:27Z</time>
      </trkpt>
      <trkpt lat="48.7408" lon="1.86278">
        <ele>167</ele>
        <time>2010-05-13T13:30:28Z</time>
      </trkpt>
      <trkpt lat="48.74079" lon="1.86275">
        <ele>167</ele>
        <time>2010-05-13T13:30:29Z</time>
      </trkpt>
      <trkpt lat="48.74077" lon="1.86274">
        <ele>167</ele>
        <time>2010-05-13T13:30:31Z</time>
      </trkpt>
      <trkpt lat="48.74072" lon="1.8627">
        <ele>167</ele>
        <time>2010-05-13T13:30:39Z</time>
      </trkpt>
      <trkpt lat="48.7407" lon="1.86268">
        <ele>167</ele>
        <time>2010-05-13T13:30:41Z</time>
      </trkpt>
      <trkpt lat="48.74067" lon="1.86265">
        <ele>167</ele>
        <time>2010-05-13T13:30:42Z</time>
      </trkpt>
      <trkpt lat="48.74066" lon="1.86264">
        <ele>167</ele>
        <time>2010-05-13T13:30:43Z</time>
      </trkpt>
      <trkpt lat="48.74065" lon="1.86264">
        <ele>167</ele>
        <time>2010-05-13T13:30:44Z</time>
      </trkpt>
      <trkpt lat="48.74062" lon="1.86261">
        <ele>167</ele>
        <time>2010-05-13T13:30:46Z</time>
      </trkpt>
      <trkpt lat="48.7406" lon="1.86261">
        <ele>167</ele>
        <time>2010-05-13T13:30:49Z</time>
      </trkpt>
      <trkpt lat="48.74057" lon="1.86261">
        <ele>167</ele>
        <time>2010-05-13T13:30:50Z</time>
      </trkpt>
      <trkpt lat="48.74056" lon="1.86256">
        <ele>167</ele>
        <time>2010-05-13T13:30:51Z</time>
      </trkpt>
      <trkpt lat="48.74056" lon="1.86254">
        <ele>167</ele>
        <time>2010-05-13T13:30:52Z</time>
      </trkpt>
      <trkpt lat="48.74055" lon="1.86251">
        <ele>167</ele>
        <time>2010-05-13T13:30:53Z</time>
      </trkpt>
      <trkpt lat="48.74054" lon="1.86249">
        <ele>167</ele>
        <time>2010-05-13T13:30:54Z</time>
      </trkpt>
      <trkpt lat="48.74053" lon="1.86246">
        <ele>167</ele>
        <time>2010-05-13T13:30:55Z</time>
      </trkpt>
      <trkpt lat="48.74052" lon="1.86243">
        <ele>167</ele>
        <time>2010-05-13T13:30:56Z</time>
      </trkpt>
      <trkpt lat="48.74051" lon="1.86242">
        <ele>167</ele>
        <time>2010-05-13T13:30:57Z</time>
      </trkpt>
      <trkpt lat="48.7405" lon="1.86242">
        <ele>167</ele>
        <time>2010-05-13T13:30:58Z</time>
      </trkpt>
      <trkpt lat="48.74048" lon="1.86244">
        <ele>168</ele>
        <time>2010-05-13T13:31:04Z</time>
      </trkpt>
      <trkpt lat="48.74045" lon="1.86244">
        <ele>168</ele>
        <time>2010-05-13T13:31:05Z</time>
      </trkpt>
      <trkpt lat="48.74042" lon="1.86243">
        <ele>168</ele>
        <time>2010-05-13T13:31:06Z</time>
      </trkpt>
      <trkpt lat="48.74041" lon="1.86244">
        <ele>168</ele>
        <time>2010-05-13T13:31:08Z</time>
      </trkpt>
      <trkpt lat="48.74039" lon="1.86243">
        <ele>168</ele>
        <time>2010-05-13T13:31:10Z</time>
      </trkpt>
      <trkpt lat="48.74038" lon="1.86241">
        <ele>168</ele>
        <time>2010-05-13T13:31:12Z</time>
      </trkpt>
      <trkpt lat="48.74036" lon="1.86241">
        <ele>169</ele>
        <time>2010-05-13T13:31:13Z</time>
      </trkpt>
      <trkpt lat="48.74035" lon="1.86237">
        <ele>169</ele>
        <time>2010-05-13T13:31:14Z</time>
      </trkpt>
      <trkpt lat="48.74033" lon="1.86237">
        <ele>169</ele>
        <time>2010-05-13T13:31:15Z</time>
      </trkpt>
      <trkpt lat="48.74025" lon="1.86225">
        <ele>170</ele>
        <time>2010-05-13T13:31:24Z</time>
      </trkpt>
      <trkpt lat="48.74023" lon="1.86225">
        <ele>170</ele>
        <time>2010-05-13T13:31:25Z</time>
      </trkpt>
      <trkpt lat="48.74018" lon="1.86226">
        <ele>170</ele>
        <time>2010-05-13T13:31:26Z</time>
      </trkpt>
      <trkpt lat="48.74017" lon="1.86226">
        <ele>170</ele>
        <time>2010-05-13T13:31:27Z</time>
      </trkpt>
      <trkpt lat="48.74015" lon="1.86226">
        <ele>170</ele>
        <time>2010-05-13T13:31:28Z</time>
      </trkpt>
      <trkpt lat="48.74011" lon="1.86227">
        <ele>170</ele>
        <time>2010-05-13T13:31:29Z</time>
      </trkpt>
      <trkpt lat="48.74009" lon="1.86228">
        <ele>170</ele>
        <time>2010-05-13T13:31:30Z</time>
      </trkpt>
      <trkpt lat="48.74006" lon="1.86228">
        <ele>170</ele>
        <time>2010-05-13T13:31:31Z</time>
      </trkpt>
      <trkpt lat="48.74003" lon="1.86229">
        <ele>170</ele>
        <time>2010-05-13T13:31:32Z</time>
      </trkpt>
      <trkpt lat="48.74001" lon="1.86229">
        <ele>170</ele>
        <time>2010-05-13T13:31:33Z</time>
      </trkpt>
      <trkpt lat="48.73998" lon="1.86229">
        <ele>170</ele>
        <time>2010-05-13T13:31:34Z</time>
      </trkpt>
      <trkpt lat="48.73995" lon="1.86229">
        <ele>170</ele>
        <time>2010-05-13T13:31:35Z</time>
      </trkpt>
      <trkpt lat="48.73991" lon="1.86227">
        <ele>170</ele>
        <time>2010-05-13T13:31:38Z</time>
      </trkpt>
      <trkpt lat="48.73988" lon="1.86224">
        <ele>170</ele>
        <time>2010-05-13T13:31:39Z</time>
      </trkpt>
      <trkpt lat="48.73985" lon="1.86217">
        <ele>170</ele>
        <time>2010-05-13T13:31:43Z</time>
      </trkpt>
      <trkpt lat="48.73983" lon="1.86215">
        <ele>170</ele>
        <time>2010-05-13T13:31:44Z</time>
      </trkpt>
      <trkpt lat="48.73982" lon="1.8621">
        <ele>170</ele>
        <time>2010-05-13T13:31:45Z</time>
      </trkpt>
      <trkpt lat="48.73977" lon="1.86208">
        <ele>170</ele>
        <time>2010-05-13T13:31:46Z</time>
      </trkpt>
      <trkpt lat="48.73973" lon="1.86207">
        <ele>170</ele>
        <time>2010-05-13T13:31:47Z</time>
      </trkpt>
      <trkpt lat="48.7397" lon="1.86204">
        <ele>170</ele>
        <time>2010-05-13T13:31:48Z</time>
      </trkpt>
      <trkpt lat="48.73963" lon="1.86203">
        <ele>170</ele>
        <time>2010-05-13T13:31:54Z</time>
      </trkpt>
      <trkpt lat="48.73961" lon="1.86202">
        <ele>170</ele>
        <time>2010-05-13T13:31:56Z</time>
      </trkpt>
      <trkpt lat="48.73959" lon="1.86202">
        <ele>170</ele>
        <time>2010-05-13T13:31:58Z</time>
      </trkpt>
      <trkpt lat="48.73958" lon="1.86199">
        <ele>170</ele>
        <time>2010-05-13T13:31:59Z</time>
      </trkpt>
      <trkpt lat="48.73953" lon="1.86195">
        <ele>170</ele>
        <time>2010-05-13T13:32:04Z</time>
      </trkpt>
      <trkpt lat="48.7395" lon="1.86193">
        <ele>170</ele>
        <time>2010-05-13T13:32:05Z</time>
      </trkpt>
      <trkpt lat="48.73948" lon="1.86192">
        <ele>170</ele>
        <time>2010-05-13T13:32:06Z</time>
      </trkpt>
      <trkpt lat="48.73946" lon="1.86191">
        <ele>170</ele>
        <time>2010-05-13T13:32:07Z</time>
      </trkpt>
      <trkpt lat="48.73944" lon="1.86191">
        <ele>170</ele>
        <time>2010-05-13T13:32:08Z</time>
      </trkpt>
      <trkpt lat="48.73941" lon="1.86192">
        <ele>170</ele>
        <time>2010-05-13T13:32:09Z</time>
      </trkpt>
      <trkpt lat="48.7394" lon="1.8619">
        <ele>170</ele>
        <time>2010-05-13T13:32:10Z</time>
      </trkpt>
      <trkpt lat="48.73938" lon="1.86188">
        <ele>170</ele>
        <time>2010-05-13T13:32:11Z</time>
      </trkpt>
      <trkpt lat="48.73937" lon="1.86186">
        <ele>170</ele>
        <time>2010-05-13T13:32:12Z</time>
      </trkpt>
      <trkpt lat="48.73935" lon="1.86185">
        <ele>170</ele>
        <time>2010-05-13T13:32:13Z</time>
      </trkpt>
      <trkpt lat="48.73933" lon="1.86182">
        <ele>170</ele>
        <time>2010-05-13T13:32:14Z</time>
      </trkpt>
      <trkpt lat="48.73931" lon="1.8618">
        <ele>170</ele>
        <time>2010-05-13T13:32:17Z</time>
      </trkpt>
      <trkpt lat="48.73927" lon="1.86178">
        <ele>170</ele>
        <time>2010-05-13T13:32:21Z</time>
      </trkpt>
      <trkpt lat="48.73924" lon="1.86177">
        <ele>170</ele>
        <time>2010-05-13T13:32:22Z</time>
      </trkpt>
      <trkpt lat="48.73922" lon="1.86175">
        <ele>170</ele>
        <time>2010-05-13T13:32:23Z</time>
      </trkpt>
      <trkpt lat="48.73921" lon="1.86174">
        <ele>170</ele>
        <time>2010-05-13T13:32:24Z</time>
      </trkpt>
      <trkpt lat="48.73918" lon="1.86176">
        <ele>169</ele>
        <time>2010-05-13T13:32:29Z</time>
      </trkpt>
      <trkpt lat="48.73916" lon="1.86173">
        <ele>166</ele>
        <time>2010-05-13T13:32:32Z</time>
      </trkpt>
      <trkpt lat="48.73913" lon="1.86173">
        <ele>165</ele>
        <time>2010-05-13T13:32:36Z</time>
      </trkpt>
      <trkpt lat="48.73907" lon="1.86171">
        <ele>164</ele>
        <time>2010-05-13T13:32:41Z</time>
      </trkpt>
      <trkpt lat="48.73904" lon="1.86164">
        <ele>163</ele>
        <time>2010-05-13T13:32:45Z</time>
      </trkpt>
      <trkpt lat="48.73902" lon="1.86161">
        <ele>162</ele>
        <time>2010-05-13T13:32:46Z</time>
      </trkpt>
      <trkpt lat="48.73898" lon="1.8616">
        <ele>161</ele>
        <time>2010-05-13T13:32:47Z</time>
      </trkpt>
      <trkpt lat="48.73895" lon="1.86159">
        <ele>161</ele>
        <time>2010-05-13T13:32:48Z</time>
      </trkpt>
      <trkpt lat="48.73892" lon="1.86156">
        <ele>161</ele>
        <time>2010-05-13T13:32:49Z</time>
      </trkpt>
      <trkpt lat="48.73889" lon="1.86154">
        <ele>161</ele>
        <time>2010-05-13T13:32:50Z</time>
      </trkpt>
      <trkpt lat="48.73886" lon="1.86149">
        <ele>162</ele>
        <time>2010-05-13T13:32:51Z</time>
      </trkpt>
      <trkpt lat="48.73886" lon="1.86146">
        <ele>163</ele>
        <time>2010-05-13T13:32:52Z</time>
      </trkpt>
      <trkpt lat="48.73885" lon="1.86144">
        <ele>164</ele>
        <time>2010-05-13T13:32:53Z</time>
      </trkpt>
      <trkpt lat="48.73882" lon="1.86141">
        <ele>165</ele>
        <time>2010-05-13T13:32:54Z</time>
      </trkpt>
      <trkpt lat="48.73879" lon="1.86135">
        <ele>166</ele>
        <time>2010-05-13T13:32:55Z</time>
      </trkpt>
      <trkpt lat="48.73876" lon="1.86135">
        <ele>167</ele>
        <time>2010-05-13T13:32:56Z</time>
      </trkpt>
      <trkpt lat="48.73873" lon="1.86136">
        <ele>168</ele>
        <time>2010-05-13T13:32:57Z</time>
      </trkpt>
      <trkpt lat="48.73871" lon="1.86135">
        <ele>169</ele>
        <time>2010-05-13T13:32:58Z</time>
      </trkpt>
      <trkpt lat="48.73869" lon="1.86134">
        <ele>170</ele>
        <time>2010-05-13T13:32:59Z</time>
      </trkpt>
      <trkpt lat="48.73867" lon="1.86133">
        <ele>170</ele>
        <time>2010-05-13T13:33:00Z</time>
      </trkpt>
      <trkpt lat="48.73855" lon="1.86138">
        <ele>170</ele>
        <time>2010-05-13T13:33:06Z</time>
      </trkpt>
      <trkpt lat="48.73847" lon="1.86139">
        <ele>170</ele>
        <time>2010-05-13T13:33:07Z</time>
      </trkpt>
      <trkpt lat="48.73838" lon="1.86144">
        <ele>170</ele>
        <time>2010-05-13T13:33:11Z</time>
      </trkpt>
      <trkpt lat="48.73834" lon="1.86146">
        <ele>170</ele>
        <time>2010-05-13T13:33:12Z</time>
      </trkpt>
      <trkpt lat="48.73828" lon="1.86148">
        <ele>170</ele>
        <time>2010-05-13T13:33:15Z</time>
      </trkpt>
      <trkpt lat="48.73825" lon="1.8615">
        <ele>170</ele>
        <time>2010-05-13T13:33:16Z</time>
      </trkpt>
      <trkpt lat="48.73824" lon="1.86151">
        <ele>170</ele>
        <time>2010-05-13T13:33:17Z</time>
      </trkpt>
      <trkpt lat="48.73822" lon="1.86153">
        <ele>170</ele>
        <time>2010-05-13T13:33:18Z</time>
      </trkpt>
      <trkpt lat="48.73821" lon="1.86154">
        <ele>170</ele>
        <time>2010-05-13T13:33:19Z</time>
      </trkpt>
      <trkpt lat="48.7382" lon="1.86154">
        <ele>170</ele>
        <time>2010-05-13T13:33:20Z</time>
      </trkpt>
      <trkpt lat="48.73818" lon="1.86155">
        <ele>170</ele>
        <time>2010-05-13T13:33:23Z</time>
      </trkpt>
      <trkpt lat="48.73816" lon="1.86156">
        <ele>170</ele>
        <time>2010-05-13T13:33:27Z</time>
      </trkpt>
      <trkpt lat="48.73813" lon="1.86157">
        <ele>170</ele>
        <time>2010-05-13T13:33:28Z</time>
      </trkpt>
      <trkpt lat="48.73812" lon="1.86158">
        <ele>170</ele>
        <time>2010-05-13T13:33:30Z</time>
      </trkpt>
      <trkpt lat="48.73812" lon="1.8616">
        <ele>170</ele>
        <time>2010-05-13T13:33:33Z</time>
      </trkpt>
      <trkpt lat="48.7381" lon="1.86158">
        <ele>172</ele>
        <time>2010-05-13T13:33:35Z</time>
      </trkpt>
      <trkpt lat="48.73808" lon="1.86157">
        <ele>174</ele>
        <time>2010-05-13T13:33:37Z</time>
      </trkpt>
      <trkpt lat="48.73806" lon="1.86155">
        <ele>175</ele>
        <time>2010-05-13T13:33:38Z</time>
      </trkpt>
      <trkpt lat="48.73804" lon="1.86155">
        <ele>176</ele>
        <time>2010-05-13T13:33:39Z</time>
      </trkpt>
      <trkpt lat="48.73801" lon="1.86158">
        <ele>177</ele>
        <time>2010-05-13T13:33:40Z</time>
      </trkpt>
      <trkpt lat="48.73799" lon="1.86159">
        <ele>178</ele>
        <time>2010-05-13T13:33:41Z</time>
      </trkpt>
      <trkpt lat="48.73797" lon="1.86161">
        <ele>178</ele>
        <time>2010-05-13T13:33:42Z</time>
      </trkpt>
      <trkpt lat="48.73796" lon="1.86162">
        <ele>178</ele>
        <time>2010-05-13T13:33:43Z</time>
      </trkpt>
      <trkpt lat="48.73794" lon="1.86162">
        <ele>178</ele>
        <time>2010-05-13T13:33:44Z</time>
      </trkpt>
      <trkpt lat="48.73792" lon="1.86163">
        <ele>178</ele>
        <time>2010-05-13T13:33:45Z</time>
      </trkpt>
      <trkpt lat="48.73789" lon="1.86163">
        <ele>178</ele>
        <time>2010-05-13T13:33:46Z</time>
      </trkpt>
      <trkpt lat="48.73787" lon="1.86165">
        <ele>178</ele>
        <time>2010-05-13T13:33:50Z</time>
      </trkpt>
      <trkpt lat="48.73783" lon="1.86164">
        <ele>178</ele>
        <time>2010-05-13T13:33:51Z</time>
      </trkpt>
      <trkpt lat="48.7378" lon="1.86167">
        <ele>177</ele>
        <time>2010-05-13T13:33:52Z</time>
      </trkpt>
      <trkpt lat="48.73776" lon="1.86168">
        <ele>175</ele>
        <time>2010-05-13T13:33:54Z</time>
      </trkpt>
      <trkpt lat="48.73772" lon="1.8617">
        <ele>175</ele>
        <time>2010-05-13T13:33:55Z</time>
      </trkpt>
      <trkpt lat="48.7377" lon="1.86171">
        <ele>175</ele>
        <time>2010-05-13T13:33:56Z</time>
      </trkpt>
      <trkpt lat="48.73769" lon="1.86172">
        <ele>175</ele>
        <time>2010-05-13T13:33:57Z</time>
      </trkpt>
      <trkpt lat="48.73767" lon="1.86172">
        <ele>175</ele>
        <time>2010-05-13T13:33:58Z</time>
      </trkpt>
      <trkpt lat="48.73765" lon="1.86172">
        <ele>175</ele>
        <time>2010-05-13T13:33:59Z</time>
      </trkpt>
      <trkpt lat="48.73763" lon="1.86173">
        <ele>175</ele>
        <time>2010-05-13T13:34:00Z</time>
      </trkpt>
      <trkpt lat="48.73761" lon="1.86173">
        <ele>175</ele>
        <time>2010-05-13T13:34:01Z</time>
      </trkpt>
      <trkpt lat="48.73753" lon="1.86171">
        <ele>175</ele>
        <time>2010-05-13T13:34:07Z</time>
      </trkpt>
      <trkpt lat="48.73748" lon="1.86172">
        <ele>175</ele>
        <time>2010-05-13T13:34:08Z</time>
      </trkpt>
      <trkpt lat="48.73746" lon="1.86175">
        <ele>174</ele>
        <time>2010-05-13T13:34:11Z</time>
      </trkpt>
      <trkpt lat="48.73743" lon="1.86177">
        <ele>174</ele>
        <time>2010-05-13T13:34:12Z</time>
      </trkpt>
      <trkpt lat="48.73741" lon="1.86175">
        <ele>173</ele>
        <time>2010-05-13T13:34:15Z</time>
      </trkpt>
      <trkpt lat="48.7374" lon="1.86179">
        <ele>172</ele>
        <time>2010-05-13T13:34:16Z</time>
      </trkpt>
      <trkpt lat="48.73736" lon="1.86183">
        <ele>171</ele>
        <time>2010-05-13T13:34:19Z</time>
      </trkpt>
      <trkpt lat="48.73734" lon="1.86183">
        <ele>171</ele>
        <time>2010-05-13T13:34:22Z</time>
      </trkpt>
      <trkpt lat="48.73732" lon="1.86181">
        <ele>171</ele>
        <time>2010-05-13T13:34:23Z</time>
      </trkpt>
      <trkpt lat="48.73731" lon="1.86181">
        <ele>171</ele>
        <time>2010-05-13T13:34:24Z</time>
      </trkpt>
      <trkpt lat="48.73729" lon="1.8618">
        <ele>172</ele>
        <time>2010-05-13T13:34:25Z</time>
      </trkpt>
      <trkpt lat="48.73728" lon="1.86181">
        <ele>174</ele>
        <time>2010-05-13T13:34:27Z</time>
      </trkpt>
      <trkpt lat="48.73726" lon="1.8618">
        <ele>175</ele>
        <time>2010-05-13T13:34:29Z</time>
      </trkpt>
      <trkpt lat="48.73723" lon="1.8618">
        <ele>176</ele>
        <time>2010-05-13T13:34:31Z</time>
      </trkpt>
      <trkpt lat="48.73721" lon="1.86181">
        <ele>178</ele>
        <time>2010-05-13T13:34:33Z</time>
      </trkpt>
      <trkpt lat="48.73719" lon="1.86184">
        <ele>178</ele>
        <time>2010-05-13T13:34:35Z</time>
      </trkpt>
      <trkpt lat="48.73717" lon="1.86186">
        <ele>178</ele>
        <time>2010-05-13T13:34:36Z</time>
      </trkpt>
      <trkpt lat="48.73716" lon="1.86188">
        <ele>178</ele>
        <time>2010-05-13T13:34:37Z</time>
      </trkpt>
      <trkpt lat="48.73714" lon="1.86191">
        <ele>178</ele>
        <time>2010-05-13T13:34:39Z</time>
      </trkpt>
      <trkpt lat="48.73714" lon="1.86193">
        <ele>177</ele>
        <time>2010-05-13T13:34:40Z</time>
      </trkpt>
      <trkpt lat="48.73713" lon="1.86195">
        <ele>176</ele>
        <time>2010-05-13T13:34:41Z</time>
      </trkpt>
      <trkpt lat="48.73711" lon="1.86196">
        <ele>174</ele>
        <time>2010-05-13T13:34:43Z</time>
      </trkpt>
      <trkpt lat="48.73704" lon="1.86199">
        <ele>173</ele>
        <time>2010-05-13T13:34:49Z</time>
      </trkpt>
      <trkpt lat="48.73703" lon="1.862">
        <ele>173</ele>
        <time>2010-05-13T13:34:50Z</time>
      </trkpt>
      <trkpt lat="48.73701" lon="1.86201">
        <ele>172</ele>
        <time>2010-05-13T13:34:51Z</time>
      </trkpt>
      <trkpt lat="48.737" lon="1.86203">
        <ele>171</ele>
        <time>2010-05-13T13:34:52Z</time>
      </trkpt>
      <trkpt lat="48.73699" lon="1.86203">
        <ele>171</ele>
        <time>2010-05-13T13:34:53Z</time>
      </trkpt>
      <trkpt lat="48.73692" lon="1.86205">
        <ele>169</ele>
        <time>2010-05-13T13:34:59Z</time>
      </trkpt>
      <trkpt lat="48.73689" lon="1.86205">
        <ele>168</ele>
        <time>2010-05-13T13:35:00Z</time>
      </trkpt>
      <trkpt lat="48.73688" lon="1.86206">
        <ele>168</ele>
        <time>2010-05-13T13:35:02Z</time>
      </trkpt>
      <trkpt lat="48.73686" lon="1.86206">
        <ele>167</ele>
        <time>2010-05-13T13:35:04Z</time>
      </trkpt>
      <trkpt lat="48.73683" lon="1.86205">
        <ele>167</ele>
        <time>2010-05-13T13:35:06Z</time>
      </trkpt>
      <trkpt lat="48.73682" lon="1.86204">
        <ele>167</ele>
        <time>2010-05-13T13:35:08Z</time>
      </trkpt>
      <trkpt lat="48.7368" lon="1.86204">
        <ele>167</ele>
        <time>2010-05-13T13:35:09Z</time>
      </trkpt>
      <trkpt lat="48.73678" lon="1.86205">
        <ele>167</ele>
        <time>2010-05-13T13:35:10Z</time>
      </trkpt>
      <trkpt lat="48.73676" lon="1.86207">
        <ele>167</ele>
        <time>2010-05-13T13:35:11Z</time>
      </trkpt>
      <trkpt lat="48.73673" lon="1.86208">
        <ele>167</ele>
        <time>2010-05-13T13:35:12Z</time>
      </trkpt>
      <trkpt lat="48.73661" lon="1.86217">
        <ele>166</ele>
        <time>2010-05-13T13:35:19Z</time>
      </trkpt>
      <trkpt lat="48.7366" lon="1.8622">
        <ele>166</ele>
        <time>2010-05-13T13:35:21Z</time>
      </trkpt>
      <trkpt lat="48.73658" lon="1.86222">
        <ele>166</ele>
        <time>2010-05-13T13:35:22Z</time>
      </trkpt>
      <trkpt lat="48.73659" lon="1.86225">
        <ele>166</ele>
        <time>2010-05-13T13:35:23Z</time>
      </trkpt>
      <trkpt lat="48.73652" lon="1.86229">
        <ele>166</ele>
        <time>2010-05-13T13:35:29Z</time>
      </trkpt>
      <trkpt lat="48.73652" lon="1.86227">
        <ele>166</ele>
        <time>2010-05-13T13:35:31Z</time>
      </trkpt>
      <trkpt lat="48.73652" lon="1.86224">
        <ele>168</ele>
        <time>2010-05-13T13:35:39Z</time>
      </trkpt>
      <trkpt lat="48.7365" lon="1.86223">
        <ele>169</ele>
        <time>2010-05-13T13:35:41Z</time>
      </trkpt>
      <trkpt lat="48.73649" lon="1.86222">
        <ele>171</ele>
        <time>2010-05-13T13:35:43Z</time>
      </trkpt>
      <trkpt lat="48.73647" lon="1.86222">
        <ele>173</ele>
        <time>2010-05-13T13:35:45Z</time>
      </trkpt>
      <trkpt lat="48.73642" lon="1.86218">
        <ele>178</ele>
        <time>2010-05-13T13:35:54Z</time>
      </trkpt>
      <trkpt lat="48.73641" lon="1.8622">
        <ele>182</ele>
        <time>2010-05-13T13:35:58Z</time>
      </trkpt>
      <trkpt lat="48.73641" lon="1.86222">
        <ele>182</ele>
        <time>2010-05-13T13:35:59Z</time>
      </trkpt>
      <trkpt lat="48.7364" lon="1.86224">
        <ele>182</ele>
        <time>2010-05-13T13:36:02Z</time>
      </trkpt>
      <trkpt lat="48.73636" lon="1.86227">
        <ele>182</ele>
        <time>2010-05-13T13:36:05Z</time>
      </trkpt>
      <trkpt lat="48.73634" lon="1.86229">
        <ele>182</ele>
        <time>2010-05-13T13:36:07Z</time>
      </trkpt>
      <trkpt lat="48.73634" lon="1.86227">
        <ele>182</ele>
        <time>2010-05-13T13:36:08Z</time>
      </trkpt>
      <trkpt lat="48.73632" lon="1.86229">
        <ele>182</ele>
        <time>2010-05-13T13:36:19Z</time>
      </trkpt>
      <trkpt lat="48.73629" lon="1.86233">
        <ele>182</ele>
        <time>2010-05-13T13:36:20Z</time>
      </trkpt>
      <trkpt lat="48.73627" lon="1.86232">
        <ele>182</ele>
        <time>2010-05-13T13:36:21Z</time>
      </trkpt>
      <trkpt lat="48.73625" lon="1.86233">
        <ele>182</ele>
        <time>2010-05-13T13:36:22Z</time>
      </trkpt>
      <trkpt lat="48.73624" lon="1.86235">
        <ele>182</ele>
        <time>2010-05-13T13:36:23Z</time>
      </trkpt>
      <trkpt lat="48.73623" lon="1.86235">
        <ele>182</ele>
        <time>2010-05-13T13:36:24Z</time>
      </trkpt>
      <trkpt lat="48.73621" lon="1.86235">
        <ele>181</ele>
        <time>2010-05-13T13:36:26Z</time>
      </trkpt>
      <trkpt lat="48.73622" lon="1.86231">
        <ele>180</ele>
        <time>2010-05-13T13:36:39Z</time>
      </trkpt>
      <trkpt lat="48.73621" lon="1.86231">
        <ele>180</ele>
        <time>2010-05-13T13:36:41Z</time>
      </trkpt>
      <trkpt lat="48.73619" lon="1.86228">
        <ele>180</ele>
        <time>2010-05-13T13:36:44Z</time>
      </trkpt>
      <trkpt lat="48.73618" lon="1.86227">
        <ele>180</ele>
        <time>2010-05-13T13:36:46Z</time>
      </trkpt>
      <trkpt lat="48.7362" lon="1.86227">
        <ele>180</ele>
        <time>2010-05-13T13:36:49Z</time>
      </trkpt>
      <trkpt lat="48.73622" lon="1.86227">
        <ele>180</ele>
        <time>2010-05-13T13:36:51Z</time>
      </trkpt>
      <trkpt lat="48.73623" lon="1.86229">
        <ele>180</ele>
        <time>2010-05-13T13:36:54Z</time>
      </trkpt>
      <trkpt lat="48.73622" lon="1.86229">
        <ele>180</ele>
        <time>2010-05-13T13:36:56Z</time>
      </trkpt>
      <trkpt lat="48.7362" lon="1.86229">
        <ele>181</ele>
        <time>2010-05-13T13:36:59Z</time>
      </trkpt>
      <trkpt lat="48.7362" lon="1.86226">
        <ele>181</ele>
        <time>2010-05-13T13:37:01Z</time>
      </trkpt>
      <trkpt lat="48.73619" lon="1.86224">
        <ele>181</ele>
        <time>2010-05-13T13:37:03Z</time>
      </trkpt>
      <trkpt lat="48.7362" lon="1.86226">
        <ele>180</ele>
        <time>2010-05-13T13:37:08Z</time>
      </trkpt>
      <trkpt lat="48.73619" lon="1.86227">
        <ele>180</ele>
        <time>2010-05-13T13:37:11Z</time>
      </trkpt>
      <trkpt lat="48.73618" lon="1.8622">
        <ele>176</ele>
        <time>2010-05-13T13:37:19Z</time>
      </trkpt>
      <trkpt lat="48.73617" lon="1.86218">
        <ele>175</ele>
        <time>2010-05-13T13:37:21Z</time>
      </trkpt>
      <trkpt lat="48.73617" lon="1.86215">
        <ele>174</ele>
        <time>2010-05-13T13:37:23Z</time>
      </trkpt>
      <trkpt lat="48.73617" lon="1.86213">
        <ele>174</ele>
        <time>2010-05-13T13:37:25Z</time>
      </trkpt>
      <trkpt lat="48.73616" lon="1.86211">
        <ele>174</ele>
        <time>2010-05-13T13:37:27Z</time>
      </trkpt>
      <trkpt lat="48.73615" lon="1.86208">
        <ele>174</ele>
        <time>2010-05-13T13:37:28Z</time>
      </trkpt>
      <trkpt lat="48.73614" lon="1.86205">
        <ele>174</ele>
        <time>2010-05-13T13:37:29Z</time>
      </trkpt>
      <trkpt lat="48.73614" lon="1.86202">
        <ele>174</ele>
        <time>2010-05-13T13:37:30Z</time>
      </trkpt>
      <trkpt lat="48.73613" lon="1.862">
        <ele>174</ele>
        <time>2010-05-13T13:37:31Z</time>
      </trkpt>
      <trkpt lat="48.73613" lon="1.86198">
        <ele>174</ele>
        <time>2010-05-13T13:37:33Z</time>
      </trkpt>
      <trkpt lat="48.73613" lon="1.86195">
        <ele>174</ele>
        <time>2010-05-13T13:37:35Z</time>
      </trkpt>
      <trkpt lat="48.73611" lon="1.86192">
        <ele>174</ele>
        <time>2010-05-13T13:37:37Z</time>
      </trkpt>
      <trkpt lat="48.73611" lon="1.86189">
        <ele>174</ele>
        <time>2010-05-13T13:37:38Z</time>
      </trkpt>
      <trkpt lat="48.73611" lon="1.86187">
        <ele>174</ele>
        <time>2010-05-13T13:37:39Z</time>
      </trkpt>
      <trkpt lat="48.7361" lon="1.86185">
        <ele>174</ele>
        <time>2010-05-13T13:37:40Z</time>
      </trkpt>
      <trkpt lat="48.7361" lon="1.86183">
        <ele>174</ele>
        <time>2010-05-13T13:37:41Z</time>
      </trkpt>
      <trkpt lat="48.7361" lon="1.86182">
        <ele>174</ele>
        <time>2010-05-13T13:37:42Z</time>
      </trkpt>
      <trkpt lat="48.73609" lon="1.86179">
        <ele>174</ele>
        <time>2010-05-13T13:37:44Z</time>
      </trkpt>
      <trkpt lat="48.73608" lon="1.86176">
        <ele>174</ele>
        <time>2010-05-13T13:37:46Z</time>
      </trkpt>
      <trkpt lat="48.73607" lon="1.86172">
        <ele>174</ele>
        <time>2010-05-13T13:37:48Z</time>
      </trkpt>
      <trkpt lat="48.73606" lon="1.86169">
        <ele>174</ele>
        <time>2010-05-13T13:37:49Z</time>
      </trkpt>
      <trkpt lat="48.73605" lon="1.86167">
        <ele>174</ele>
        <time>2010-05-13T13:37:50Z</time>
      </trkpt>
      <trkpt lat="48.73604" lon="1.86164">
        <ele>174</ele>
        <time>2010-05-13T13:37:52Z</time>
      </trkpt>
      <trkpt lat="48.73604" lon="1.86161">
        <ele>174</ele>
        <time>2010-05-13T13:37:54Z</time>
      </trkpt>
      <trkpt lat="48.73604" lon="1.86158">
        <ele>174</ele>
        <time>2010-05-13T13:37:56Z</time>
      </trkpt>
      <trkpt lat="48.73604" lon="1.86156">
        <ele>174</ele>
        <time>2010-05-13T13:37:58Z</time>
      </trkpt>
      <trkpt lat="48.73604" lon="1.86153">
        <ele>174</ele>
        <time>2010-05-13T13:38:00Z</time>
      </trkpt>
      <trkpt lat="48.73604" lon="1.8615">
        <ele>174</ele>
        <time>2010-05-13T13:38:02Z</time>
      </trkpt>
      <trkpt lat="48.73604" lon="1.86147">
        <ele>174</ele>
        <time>2010-05-13T13:38:04Z</time>
      </trkpt>
      <trkpt lat="48.73604" lon="1.86145">
        <ele>174</ele>
        <time>2010-05-13T13:38:06Z</time>
      </trkpt>
      <trkpt lat="48.73603" lon="1.86142">
        <ele>174</ele>
        <time>2010-05-13T13:38:08Z</time>
      </trkpt>
      <trkpt lat="48.73603" lon="1.86138">
        <ele>174</ele>
        <time>2010-05-13T13:38:10Z</time>
      </trkpt>
      <trkpt lat="48.73603" lon="1.86137">
        <ele>173</ele>
        <time>2010-05-13T13:38:11Z</time>
      </trkpt>
      <trkpt lat="48.73602" lon="1.86131">
        <ele>173</ele>
        <time>2010-05-13T13:38:13Z</time>
      </trkpt>
      <trkpt lat="48.73602" lon="1.86129">
        <ele>173</ele>
        <time>2010-05-13T13:38:14Z</time>
      </trkpt>
      <trkpt lat="48.73602" lon="1.86125">
        <ele>173</ele>
        <time>2010-05-13T13:38:15Z</time>
      </trkpt>
      <trkpt lat="48.73601" lon="1.86122">
        <ele>173</ele>
        <time>2010-05-13T13:38:16Z</time>
      </trkpt>
      <trkpt lat="48.73601" lon="1.86119">
        <ele>173</ele>
        <time>2010-05-13T13:38:18Z</time>
      </trkpt>
      <trkpt lat="48.736" lon="1.86118">
        <ele>173</ele>
        <time>2010-05-13T13:38:19Z</time>
      </trkpt>
      <trkpt lat="48.73599" lon="1.86116">
        <ele>172</ele>
        <time>2010-05-13T13:38:20Z</time>
      </trkpt>
      <trkpt lat="48.73598" lon="1.86113">
        <ele>172</ele>
        <time>2010-05-13T13:38:22Z</time>
      </trkpt>
      <trkpt lat="48.73598" lon="1.86112">
        <ele>171</ele>
        <time>2010-05-13T13:38:24Z</time>
      </trkpt>
      <trkpt lat="48.73597" lon="1.8611">
        <ele>170</ele>
        <time>2010-05-13T13:38:26Z</time>
      </trkpt>
      <trkpt lat="48.73597" lon="1.86107">
        <ele>170</ele>
        <time>2010-05-13T13:38:28Z</time>
      </trkpt>
      <trkpt lat="48.73596" lon="1.86104">
        <ele>169</ele>
        <time>2010-05-13T13:38:30Z</time>
      </trkpt>
      <trkpt lat="48.73595" lon="1.86101">
        <ele>169</ele>
        <time>2010-05-13T13:38:32Z</time>
      </trkpt>
      <trkpt lat="48.73595" lon="1.86099">
        <ele>169</ele>
        <time>2010-05-13T13:38:36Z</time>
      </trkpt>
      <trkpt lat="48.73595" lon="1.86096">
        <ele>169</ele>
        <time>2010-05-13T13:38:42Z</time>
      </trkpt>
      <trkpt lat="48.73594" lon="1.86094">
        <ele>168</ele>
        <time>2010-05-13T13:38:46Z</time>
      </trkpt>
      <trkpt lat="48.73594" lon="1.86092">
        <ele>168</ele>
        <time>2010-05-13T13:38:48Z</time>
      </trkpt>
      <trkpt lat="48.73594" lon="1.86089">
        <ele>167</ele>
        <time>2010-05-13T13:38:50Z</time>
      </trkpt>
      <trkpt lat="48.73593" lon="1.86087">
        <ele>167</ele>
        <time>2010-05-13T13:38:52Z</time>
      </trkpt>
      <trkpt lat="48.73593" lon="1.86085">
        <ele>166</ele>
        <time>2010-05-13T13:38:54Z</time>
      </trkpt>
      <trkpt lat="48.73593" lon="1.86083">
        <ele>166</ele>
        <time>2010-05-13T13:38:56Z</time>
      </trkpt>
      <trkpt lat="48.73592" lon="1.86081">
        <ele>165</ele>
        <time>2010-05-13T13:38:58Z</time>
      </trkpt>
      <trkpt lat="48.73592" lon="1.86079">
        <ele>165</ele>
        <time>2010-05-13T13:39:00Z</time>
      </trkpt>
      <trkpt lat="48.73592" lon="1.86077">
        <ele>164</ele>
        <time>2010-05-13T13:39:02Z</time>
      </trkpt>
      <trkpt lat="48.73591" lon="1.86074">
        <ele>163</ele>
        <time>2010-05-13T13:39:04Z</time>
      </trkpt>
      <trkpt lat="48.7359" lon="1.86071">
        <ele>162</ele>
        <time>2010-05-13T13:39:06Z</time>
      </trkpt>
      <trkpt lat="48.73589" lon="1.86069">
        <ele>161</ele>
        <time>2010-05-13T13:39:08Z</time>
      </trkpt>
      <trkpt lat="48.73589" lon="1.86067">
        <ele>161</ele>
        <time>2010-05-13T13:39:12Z</time>
      </trkpt>
      <trkpt lat="48.73589" lon="1.86065">
        <ele>160</ele>
        <time>2010-05-13T13:39:15Z</time>
      </trkpt>
      <trkpt lat="48.73588" lon="1.86063">
        <ele>159</ele>
        <time>2010-05-13T13:39:18Z</time>
      </trkpt>
      <trkpt lat="48.73588" lon="1.8606">
        <ele>159</ele>
        <time>2010-05-13T13:39:20Z</time>
      </trkpt>
      <trkpt lat="48.73587" lon="1.86058">
        <ele>158</ele>
        <time>2010-05-13T13:39:22Z</time>
      </trkpt>
      <trkpt lat="48.73586" lon="1.86056">
        <ele>157</ele>
        <time>2010-05-13T13:39:24Z</time>
      </trkpt>
      <trkpt lat="48.73586" lon="1.86054">
        <ele>156</ele>
        <time>2010-05-13T13:39:26Z</time>
      </trkpt>
      <trkpt lat="48.73585" lon="1.86051">
        <ele>155</ele>
        <time>2010-05-13T13:39:28Z</time>
      </trkpt>
      <trkpt lat="48.73585" lon="1.8605">
        <ele>155</ele>
        <time>2010-05-13T13:39:29Z</time>
      </trkpt>
      <trkpt lat="48.73584" lon="1.86047">
        <ele>154</ele>
        <time>2010-05-13T13:39:31Z</time>
      </trkpt>
      <trkpt lat="48.73584" lon="1.86045">
        <ele>154</ele>
        <time>2010-05-13T13:39:32Z</time>
      </trkpt>
      <trkpt lat="48.73584" lon="1.86043">
        <ele>154</ele>
        <time>2010-05-13T13:39:33Z</time>
      </trkpt>
      <trkpt lat="48.73583" lon="1.86041">
        <ele>153</ele>
        <time>2010-05-13T13:39:34Z</time>
      </trkpt>
      <trkpt lat="48.73583" lon="1.86039">
        <ele>153</ele>
        <time>2010-05-13T13:39:35Z</time>
      </trkpt>
      <trkpt lat="48.73583" lon="1.86037">
        <ele>153</ele>
        <time>2010-05-13T13:39:36Z</time>
      </trkpt>
      <trkpt lat="48.73583" lon="1.86035">
        <ele>152</ele>
        <time>2010-05-13T13:39:37Z</time>
      </trkpt>
      <trkpt lat="48.73583" lon="1.86033">
        <ele>152</ele>
        <time>2010-05-13T13:39:38Z</time>
      </trkpt>
      <trkpt lat="48.73583" lon="1.86031">
        <ele>152</ele>
        <time>2010-05-13T13:39:39Z</time>
      </trkpt>
      <trkpt lat="48.73583" lon="1.86027">
        <ele>152</ele>
        <time>2010-05-13T13:39:41Z</time>
      </trkpt>
      <trkpt lat="48.73583" lon="1.86024">
        <ele>152</ele>
        <time>2010-05-13T13:39:42Z</time>
      </trkpt>
      <trkpt lat="48.73583" lon="1.86022">
        <ele>152</ele>
        <time>2010-05-13T13:39:43Z</time>
      </trkpt>
      <trkpt lat="48.73582" lon="1.86019">
        <ele>152</ele>
        <time>2010-05-13T13:39:44Z</time>
      </trkpt>
      <trkpt lat="48.73581" lon="1.86015">
        <ele>152</ele>
        <time>2010-05-13T13:39:45Z</time>
      </trkpt>
      <trkpt lat="48.73581" lon="1.86013">
        <ele>152</ele>
        <time>2010-05-13T13:39:46Z</time>
      </trkpt>
      <trkpt lat="48.73581" lon="1.86011">
        <ele>152</ele>
        <time>2010-05-13T13:39:47Z</time>
      </trkpt>
      <trkpt lat="48.73582" lon="1.86006">
        <ele>151</ele>
        <time>2010-05-13T13:39:49Z</time>
      </trkpt>
      <trkpt lat="48.73582" lon="1.86003">
        <ele>151</ele>
        <time>2010-05-13T13:39:50Z</time>
      </trkpt>
      <trkpt lat="48.73582" lon="1.86001">
        <ele>150</ele>
        <time>2010-05-13T13:39:52Z</time>
      </trkpt>
      <trkpt lat="48.73583" lon="1.85999">
        <ele>150</ele>
        <time>2010-05-13T13:39:54Z</time>
      </trkpt>
      <trkpt lat="48.73582" lon="1.85995">
        <ele>150</ele>
        <time>2010-05-13T13:39:57Z</time>
      </trkpt>
      <trkpt lat="48.73582" lon="1.85994">
        <ele>150</ele>
        <time>2010-05-13T13:39:58Z</time>
      </trkpt>
      <trkpt lat="48.7358" lon="1.85992">
        <ele>150</ele>
        <time>2010-05-13T13:40:00Z</time>
      </trkpt>
      <trkpt lat="48.7358" lon="1.85987">
        <ele>150</ele>
        <time>2010-05-13T13:40:02Z</time>
      </trkpt>
      <trkpt lat="48.73579" lon="1.85985">
        <ele>150</ele>
        <time>2010-05-13T13:40:03Z</time>
      </trkpt>
      <trkpt lat="48.73579" lon="1.85982">
        <ele>150</ele>
        <time>2010-05-13T13:40:05Z</time>
      </trkpt>
      <trkpt lat="48.73579" lon="1.8598">
        <ele>150</ele>
        <time>2010-05-13T13:40:06Z</time>
      </trkpt>
      <trkpt lat="48.73578" lon="1.85977">
        <ele>150</ele>
        <time>2010-05-13T13:40:08Z</time>
      </trkpt>
      <trkpt lat="48.73577" lon="1.85974">
        <ele>151</ele>
        <time>2010-05-13T13:40:10Z</time>
      </trkpt>
      <trkpt lat="48.73577" lon="1.85971">
        <ele>151</ele>
        <time>2010-05-13T13:40:11Z</time>
      </trkpt>
      <trkpt lat="48.73576" lon="1.85967">
        <ele>151</ele>
        <time>2010-05-13T13:40:12Z</time>
      </trkpt>
      <trkpt lat="48.73575" lon="1.85964">
        <ele>151</ele>
        <time>2010-05-13T13:40:13Z</time>
      </trkpt>
      <trkpt lat="48.73575" lon="1.8596">
        <ele>151</ele>
        <time>2010-05-13T13:40:14Z</time>
      </trkpt>
      <trkpt lat="48.73575" lon="1.85959">
        <ele>151</ele>
        <time>2010-05-13T13:40:15Z</time>
      </trkpt>
      <trkpt lat="48.73574" lon="1.85957">
        <ele>151</ele>
        <time>2010-05-13T13:40:16Z</time>
      </trkpt>
      <trkpt lat="48.73574" lon="1.85955">
        <ele>151</ele>
        <time>2010-05-13T13:40:17Z</time>
      </trkpt>
      <trkpt lat="48.73573" lon="1.85951">
        <ele>151</ele>
        <time>2010-05-13T13:40:19Z</time>
      </trkpt>
      <trkpt lat="48.73573" lon="1.85949">
        <ele>151</ele>
        <time>2010-05-13T13:40:20Z</time>
      </trkpt>
      <trkpt lat="48.73573" lon="1.85947">
        <ele>151</ele>
        <time>2010-05-13T13:40:21Z</time>
      </trkpt>
      <trkpt lat="48.73572" lon="1.85945">
        <ele>151</ele>
        <time>2010-05-13T13:40:23Z</time>
      </trkpt>
      <trkpt lat="48.73571" lon="1.85941">
        <ele>151</ele>
        <time>2010-05-13T13:40:24Z</time>
      </trkpt>
      <trkpt lat="48.73572" lon="1.85939">
        <ele>151</ele>
        <time>2010-05-13T13:40:25Z</time>
      </trkpt>
      <trkpt lat="48.7357" lon="1.85933">
        <ele>151</ele>
        <time>2010-05-13T13:40:26Z</time>
      </trkpt>
      <trkpt lat="48.7357" lon="1.85931">
        <ele>151</ele>
        <time>2010-05-13T13:40:27Z</time>
      </trkpt>
      <trkpt lat="48.7357" lon="1.85929">
        <ele>151</ele>
        <time>2010-05-13T13:40:28Z</time>
      </trkpt>
      <trkpt lat="48.7357" lon="1.85926">
        <ele>151</ele>
        <time>2010-05-13T13:40:29Z</time>
      </trkpt>
      <trkpt lat="48.73569" lon="1.85924">
        <ele>151</ele>
        <time>2010-05-13T13:40:30Z</time>
      </trkpt>
      <trkpt lat="48.73568" lon="1.85921">
        <ele>151</ele>
        <time>2010-05-13T13:40:32Z</time>
      </trkpt>
      <trkpt lat="48.73567" lon="1.8592">
        <ele>151</ele>
        <time>2010-05-13T13:40:33Z</time>
      </trkpt>
      <trkpt lat="48.73567" lon="1.85918">
        <ele>151</ele>
        <time>2010-05-13T13:40:34Z</time>
      </trkpt>
      <trkpt lat="48.73567" lon="1.85916">
        <ele>151</ele>
        <time>2010-05-13T13:40:35Z</time>
      </trkpt>
      <trkpt lat="48.73567" lon="1.85913">
        <ele>151</ele>
        <time>2010-05-13T13:40:37Z</time>
      </trkpt>
      <trkpt lat="48.73567" lon="1.8591">
        <ele>151</ele>
        <time>2010-05-13T13:40:39Z</time>
      </trkpt>
      <trkpt lat="48.73566" lon="1.85906">
        <ele>151</ele>
        <time>2010-05-13T13:40:40Z</time>
      </trkpt>
      <trkpt lat="48.73565" lon="1.85904">
        <ele>152</ele>
        <time>2010-05-13T13:40:41Z</time>
      </trkpt>
      <trkpt lat="48.73565" lon="1.85902">
        <ele>153</ele>
        <time>2010-05-13T13:40:42Z</time>
      </trkpt>
      <trkpt lat="48.73564" lon="1.859">
        <ele>154</ele>
        <time>2010-05-13T13:40:44Z</time>
      </trkpt>
      <trkpt lat="48.73563" lon="1.85897">
        <ele>154</ele>
        <time>2010-05-13T13:40:45Z</time>
      </trkpt>
      <trkpt lat="48.73562" lon="1.85895">
        <ele>154</ele>
        <time>2010-05-13T13:40:46Z</time>
      </trkpt>
      <trkpt lat="48.73562" lon="1.85893">
        <ele>155</ele>
        <time>2010-05-13T13:40:47Z</time>
      </trkpt>
      <trkpt lat="48.73561" lon="1.85892">
        <ele>155</ele>
        <time>2010-05-13T13:40:48Z</time>
      </trkpt>
      <trkpt lat="48.7356" lon="1.85889">
        <ele>157</ele>
        <time>2010-05-13T13:40:50Z</time>
      </trkpt>
      <trkpt lat="48.73559" lon="1.85886">
        <ele>157</ele>
        <time>2010-05-13T13:40:51Z</time>
      </trkpt>
      <trkpt lat="48.73559" lon="1.85885">
        <ele>158</ele>
        <time>2010-05-13T13:40:52Z</time>
      </trkpt>
      <trkpt lat="48.73559" lon="1.85883">
        <ele>158</ele>
        <time>2010-05-13T13:40:54Z</time>
      </trkpt>
      <trkpt lat="48.73558" lon="1.8588">
        <ele>158</ele>
        <time>2010-05-13T13:40:56Z</time>
      </trkpt>
      <trkpt lat="48.73557" lon="1.85878">
        <ele>158</ele>
        <time>2010-05-13T13:40:58Z</time>
      </trkpt>
      <trkpt lat="48.73557" lon="1.85876">
        <ele>158</ele>
        <time>2010-05-13T13:41:00Z</time>
      </trkpt>
      <trkpt lat="48.73557" lon="1.85872">
        <ele>159</ele>
        <time>2010-05-13T13:41:02Z</time>
      </trkpt>
      <trkpt lat="48.73558" lon="1.8587">
        <ele>159</ele>
        <time>2010-05-13T13:41:03Z</time>
      </trkpt>
      <trkpt lat="48.73557" lon="1.85867">
        <ele>161</ele>
        <time>2010-05-13T13:41:05Z</time>
      </trkpt>
      <trkpt lat="48.73557" lon="1.85865">
        <ele>161</ele>
        <time>2010-05-13T13:41:06Z</time>
      </trkpt>
      <trkpt lat="48.73556" lon="1.85863">
        <ele>161</ele>
        <time>2010-05-13T13:41:08Z</time>
      </trkpt>
      <trkpt lat="48.73555" lon="1.85859">
        <ele>161</ele>
        <time>2010-05-13T13:41:10Z</time>
      </trkpt>
      <trkpt lat="48.73554" lon="1.85855">
        <ele>161</ele>
        <time>2010-05-13T13:41:11Z</time>
      </trkpt>
      <trkpt lat="48.73554" lon="1.85853">
        <ele>161</ele>
        <time>2010-05-13T13:41:12Z</time>
      </trkpt>
      <trkpt lat="48.73554" lon="1.85851">
        <ele>161</ele>
        <time>2010-05-13T13:41:14Z</time>
      </trkpt>
      <trkpt lat="48.73553" lon="1.85849">
        <ele>161</ele>
        <time>2010-05-13T13:41:15Z</time>
      </trkpt>
      <trkpt lat="48.73553" lon="1.85847">
        <ele>161</ele>
        <time>2010-05-13T13:41:16Z</time>
      </trkpt>
      <trkpt lat="48.73553" lon="1.85845">
        <ele>161</ele>
        <time>2010-05-13T13:41:17Z</time>
      </trkpt>
      <trkpt lat="48.73552" lon="1.85843">
        <ele>161</ele>
        <time>2010-05-13T13:41:18Z</time>
      </trkpt>
      <trkpt lat="48.73552" lon="1.85842">
        <ele>161</ele>
        <time>2010-05-13T13:41:19Z</time>
      </trkpt>
      <trkpt lat="48.73551" lon="1.85839">
        <ele>161</ele>
        <time>2010-05-13T13:41:21Z</time>
      </trkpt>
      <trkpt lat="48.7355" lon="1.85836">
        <ele>161</ele>
        <time>2010-05-13T13:41:23Z</time>
      </trkpt>
      <trkpt lat="48.73549" lon="1.85833">
        <ele>161</ele>
        <time>2010-05-13T13:41:25Z</time>
      </trkpt>
      <trkpt lat="48.73549" lon="1.8583">
        <ele>161</ele>
        <time>2010-05-13T13:41:27Z</time>
      </trkpt>
      <trkpt lat="48.73548" lon="1.85828">
        <ele>161</ele>
        <time>2010-05-13T13:41:28Z</time>
      </trkpt>
      <trkpt lat="48.73548" lon="1.85826">
        <ele>161</ele>
        <time>2010-05-13T13:41:29Z</time>
      </trkpt>
      <trkpt lat="48.73548" lon="1.85825">
        <ele>161</ele>
        <time>2010-05-13T13:41:30Z</time>
      </trkpt>
      <trkpt lat="48.73547" lon="1.85821">
        <ele>161</ele>
        <time>2010-05-13T13:41:32Z</time>
      </trkpt>
      <trkpt lat="48.73545" lon="1.85818">
        <ele>161</ele>
        <time>2010-05-13T13:41:34Z</time>
      </trkpt>
      <trkpt lat="48.73545" lon="1.85817">
        <ele>161</ele>
        <time>2010-05-13T13:41:35Z</time>
      </trkpt>
      <trkpt lat="48.73544" lon="1.85815">
        <ele>161</ele>
        <time>2010-05-13T13:41:36Z</time>
      </trkpt>
      <trkpt lat="48.73544" lon="1.85812">
        <ele>161</ele>
        <time>2010-05-13T13:41:38Z</time>
      </trkpt>
      <trkpt lat="48.73544" lon="1.8581">
        <ele>161</ele>
        <time>2010-05-13T13:41:39Z</time>
      </trkpt>
      <trkpt lat="48.73545" lon="1.85808">
        <ele>161</ele>
        <time>2010-05-13T13:41:40Z</time>
      </trkpt>
      <trkpt lat="48.73544" lon="1.85805">
        <ele>161</ele>
        <time>2010-05-13T13:41:42Z</time>
      </trkpt>
      <trkpt lat="48.73544" lon="1.85803">
        <ele>161</ele>
        <time>2010-05-13T13:41:43Z</time>
      </trkpt>
      <trkpt lat="48.73545" lon="1.85801">
        <ele>161</ele>
        <time>2010-05-13T13:41:44Z</time>
      </trkpt>
      <trkpt lat="48.73544" lon="1.85799">
        <ele>161</ele>
        <time>2010-05-13T13:41:45Z</time>
      </trkpt>
      <trkpt lat="48.73544" lon="1.85797">
        <ele>161</ele>
        <time>2010-05-13T13:41:46Z</time>
      </trkpt>
      <trkpt lat="48.73544" lon="1.85796">
        <ele>161</ele>
        <time>2010-05-13T13:41:47Z</time>
      </trkpt>
      <trkpt lat="48.73544" lon="1.85794">
        <ele>161</ele>
        <time>2010-05-13T13:41:48Z</time>
      </trkpt>
      <trkpt lat="48.73543" lon="1.85792">
        <ele>161</ele>
        <time>2010-05-13T13:41:49Z</time>
      </trkpt>
      <trkpt lat="48.73543" lon="1.8579">
        <ele>161</ele>
        <time>2010-05-13T13:41:50Z</time>
      </trkpt>
      <trkpt lat="48.73543" lon="1.85783">
        <ele>161</ele>
        <time>2010-05-13T13:41:55Z</time>
      </trkpt>
      <trkpt lat="48.73544" lon="1.85779">
        <ele>161</ele>
        <time>2010-05-13T13:41:56Z</time>
      </trkpt>
      <trkpt lat="48.73543" lon="1.85775">
        <ele>161</ele>
        <time>2010-05-13T13:41:57Z</time>
      </trkpt>
      <trkpt lat="48.73543" lon="1.85771">
        <ele>161</ele>
        <time>2010-05-13T13:41:59Z</time>
      </trkpt>
      <trkpt lat="48.73542" lon="1.85767">
        <ele>161</ele>
        <time>2010-05-13T13:42:00Z</time>
      </trkpt>
      <trkpt lat="48.73541" lon="1.85764">
        <ele>161</ele>
        <time>2010-05-13T13:42:01Z</time>
      </trkpt>
      <trkpt lat="48.7354" lon="1.8576">
        <ele>161</ele>
        <time>2010-05-13T13:42:02Z</time>
      </trkpt>
      <trkpt lat="48.7354" lon="1.85758">
        <ele>161</ele>
        <time>2010-05-13T13:42:03Z</time>
      </trkpt>
      <trkpt lat="48.73539" lon="1.85755">
        <ele>161</ele>
        <time>2010-05-13T13:42:04Z</time>
      </trkpt>
      <trkpt lat="48.73537" lon="1.85752">
        <ele>161</ele>
        <time>2010-05-13T13:42:05Z</time>
      </trkpt>
      <trkpt lat="48.73537" lon="1.8575">
        <ele>161</ele>
        <time>2010-05-13T13:42:06Z</time>
      </trkpt>
      <trkpt lat="48.73536" lon="1.85747">
        <ele>161</ele>
        <time>2010-05-13T13:42:07Z</time>
      </trkpt>
      <trkpt lat="48.73536" lon="1.85745">
        <ele>161</ele>
        <time>2010-05-13T13:42:08Z</time>
      </trkpt>
      <trkpt lat="48.73536" lon="1.85743">
        <ele>161</ele>
        <time>2010-05-13T13:42:09Z</time>
      </trkpt>
      <trkpt lat="48.73536" lon="1.85741">
        <ele>161</ele>
        <time>2010-05-13T13:42:10Z</time>
      </trkpt>
      <trkpt lat="48.73536" lon="1.85738">
        <ele>161</ele>
        <time>2010-05-13T13:42:11Z</time>
      </trkpt>
      <trkpt lat="48.73535" lon="1.85736">
        <ele>161</ele>
        <time>2010-05-13T13:42:12Z</time>
      </trkpt>
      <trkpt lat="48.73535" lon="1.85734">
        <ele>161</ele>
        <time>2010-05-13T13:42:13Z</time>
      </trkpt>
      <trkpt lat="48.73535" lon="1.85731">
        <ele>161</ele>
        <time>2010-05-13T13:42:14Z</time>
      </trkpt>
      <trkpt lat="48.73535" lon="1.85729">
        <ele>161</ele>
        <time>2010-05-13T13:42:15Z</time>
      </trkpt>
      <trkpt lat="48.73534" lon="1.85727">
        <ele>161</ele>
        <time>2010-05-13T13:42:16Z</time>
      </trkpt>
      <trkpt lat="48.73534" lon="1.85724">
        <ele>161</ele>
        <time>2010-05-13T13:42:17Z</time>
      </trkpt>
      <trkpt lat="48.73533" lon="1.8572">
        <ele>161</ele>
        <time>2010-05-13T13:42:19Z</time>
      </trkpt>
      <trkpt lat="48.73532" lon="1.85717">
        <ele>161</ele>
        <time>2010-05-13T13:42:21Z</time>
      </trkpt>
      <trkpt lat="48.73534" lon="1.85716">
        <ele>161</ele>
        <time>2010-05-13T13:42:22Z</time>
      </trkpt>
      <trkpt lat="48.73536" lon="1.85714">
        <ele>161</ele>
        <time>2010-05-13T13:42:24Z</time>
      </trkpt>
      <trkpt lat="48.73536" lon="1.85712">
        <ele>161</ele>
        <time>2010-05-13T13:42:25Z</time>
      </trkpt>
      <trkpt lat="48.73535" lon="1.8571">
        <ele>161</ele>
        <time>2010-05-13T13:42:27Z</time>
      </trkpt>
      <trkpt lat="48.73534" lon="1.85707">
        <ele>161</ele>
        <time>2010-05-13T13:42:29Z</time>
      </trkpt>
      <trkpt lat="48.73532" lon="1.85704">
        <ele>161</ele>
        <time>2010-05-13T13:42:31Z</time>
      </trkpt>
      <trkpt lat="48.73532" lon="1.85703">
        <ele>161</ele>
        <time>2010-05-13T13:42:32Z</time>
      </trkpt>
      <trkpt lat="48.73532" lon="1.85701">
        <ele>161</ele>
        <time>2010-05-13T13:42:33Z</time>
      </trkpt>
      <trkpt lat="48.73532" lon="1.85698">
        <ele>161</ele>
        <time>2010-05-13T13:42:34Z</time>
      </trkpt>
      <trkpt lat="48.73531" lon="1.85697">
        <ele>161</ele>
        <time>2010-05-13T13:42:35Z</time>
      </trkpt>
      <trkpt lat="48.7353" lon="1.85696">
        <ele>161</ele>
        <time>2010-05-13T13:42:36Z</time>
      </trkpt>
      <trkpt lat="48.7353" lon="1.85694">
        <ele>161</ele>
        <time>2010-05-13T13:42:39Z</time>
      </trkpt>
      <trkpt lat="48.73526" lon="1.85683">
        <ele>161</ele>
        <time>2010-05-13T13:42:44Z</time>
      </trkpt>
      <trkpt lat="48.73526" lon="1.85677">
        <ele>161</ele>
        <time>2010-05-13T13:42:45Z</time>
      </trkpt>
      <trkpt lat="48.73526" lon="1.85674">
        <ele>161</ele>
        <time>2010-05-13T13:42:46Z</time>
      </trkpt>
      <trkpt lat="48.73526" lon="1.85671">
        <ele>161</ele>
        <time>2010-05-13T13:42:47Z</time>
      </trkpt>
      <trkpt lat="48.73525" lon="1.8567">
        <ele>161</ele>
        <time>2010-05-13T13:42:48Z</time>
      </trkpt>
      <trkpt lat="48.73525" lon="1.85668">
        <ele>161</ele>
        <time>2010-05-13T13:42:49Z</time>
      </trkpt>
      <trkpt lat="48.73525" lon="1.85665">
        <ele>161</ele>
        <time>2010-05-13T13:42:51Z</time>
      </trkpt>
      <trkpt lat="48.73524" lon="1.85662">
        <ele>161</ele>
        <time>2010-05-13T13:42:52Z</time>
      </trkpt>
      <trkpt lat="48.73524" lon="1.8566">
        <ele>161</ele>
        <time>2010-05-13T13:42:53Z</time>
      </trkpt>
      <trkpt lat="48.73524" lon="1.85658">
        <ele>161</ele>
        <time>2010-05-13T13:42:54Z</time>
      </trkpt>
      <trkpt lat="48.73523" lon="1.85655">
        <ele>161</ele>
        <time>2010-05-13T13:42:55Z</time>
      </trkpt>
      <trkpt lat="48.73522" lon="1.85653">
        <ele>161</ele>
        <time>2010-05-13T13:42:56Z</time>
      </trkpt>
      <trkpt lat="48.73521" lon="1.85651">
        <ele>161</ele>
        <time>2010-05-13T13:42:57Z</time>
      </trkpt>
      <trkpt lat="48.7352" lon="1.85649">
        <ele>161</ele>
        <time>2010-05-13T13:42:58Z</time>
      </trkpt>
      <trkpt lat="48.7352" lon="1.85647">
        <ele>161</ele>
        <time>2010-05-13T13:42:59Z</time>
      </trkpt>
      <trkpt lat="48.7352" lon="1.85645">
        <ele>161</ele>
        <time>2010-05-13T13:43:00Z</time>
      </trkpt>
      <trkpt lat="48.73519" lon="1.85642">
        <ele>161</ele>
        <time>2010-05-13T13:43:02Z</time>
      </trkpt>
      <trkpt lat="48.73519" lon="1.85639">
        <ele>161</ele>
        <time>2010-05-13T13:43:04Z</time>
      </trkpt>
      <trkpt lat="48.73518" lon="1.85638">
        <ele>161</ele>
        <time>2010-05-13T13:43:05Z</time>
      </trkpt>
      <trkpt lat="48.73517" lon="1.85634">
        <ele>161</ele>
        <time>2010-05-13T13:43:07Z</time>
      </trkpt>
      <trkpt lat="48.73516" lon="1.85632">
        <ele>161</ele>
        <time>2010-05-13T13:43:08Z</time>
      </trkpt>
      <trkpt lat="48.73516" lon="1.8563">
        <ele>161</ele>
        <time>2010-05-13T13:43:09Z</time>
      </trkpt>
      <trkpt lat="48.73515" lon="1.85628">
        <ele>161</ele>
        <time>2010-05-13T13:43:10Z</time>
      </trkpt>
      <trkpt lat="48.73515" lon="1.85626">
        <ele>161</ele>
        <time>2010-05-13T13:43:11Z</time>
      </trkpt>
      <trkpt lat="48.73514" lon="1.85625">
        <ele>161</ele>
        <time>2010-05-13T13:43:12Z</time>
      </trkpt>
      <trkpt lat="48.73514" lon="1.85623">
        <ele>161</ele>
        <time>2010-05-13T13:43:13Z</time>
      </trkpt>
      <trkpt lat="48.73513" lon="1.8562">
        <ele>161</ele>
        <time>2010-05-13T13:43:15Z</time>
      </trkpt>
      <trkpt lat="48.73513" lon="1.85618">
        <ele>161</ele>
        <time>2010-05-13T13:43:16Z</time>
      </trkpt>
      <trkpt lat="48.73513" lon="1.85616">
        <ele>161</ele>
        <time>2010-05-13T13:43:17Z</time>
      </trkpt>
      <trkpt lat="48.73512" lon="1.85615">
        <ele>161</ele>
        <time>2010-05-13T13:43:18Z</time>
      </trkpt>
      <trkpt lat="48.73512" lon="1.85613">
        <ele>161</ele>
        <time>2010-05-13T13:43:19Z</time>
      </trkpt>
      <trkpt lat="48.73511" lon="1.85611">
        <ele>161</ele>
        <time>2010-05-13T13:43:20Z</time>
      </trkpt>
      <trkpt lat="48.73511" lon="1.85609">
        <ele>161</ele>
        <time>2010-05-13T13:43:21Z</time>
      </trkpt>
      <trkpt lat="48.7351" lon="1.85607">
        <ele>161</ele>
        <time>2010-05-13T13:43:22Z</time>
      </trkpt>
      <trkpt lat="48.7351" lon="1.85605">
        <ele>161</ele>
        <time>2010-05-13T13:43:23Z</time>
      </trkpt>
      <trkpt lat="48.73509" lon="1.85603">
        <ele>161</ele>
        <time>2010-05-13T13:43:24Z</time>
      </trkpt>
      <trkpt lat="48.73508" lon="1.85601">
        <ele>161</ele>
        <time>2010-05-13T13:43:25Z</time>
      </trkpt>
      <trkpt lat="48.73508" lon="1.85599">
        <ele>161</ele>
        <time>2010-05-13T13:43:26Z</time>
      </trkpt>
      <trkpt lat="48.73507" lon="1.85596">
        <ele>161</ele>
        <time>2010-05-13T13:43:28Z</time>
      </trkpt>
      <trkpt lat="48.73505" lon="1.85594">
        <ele>161</ele>
        <time>2010-05-13T13:43:29Z</time>
      </trkpt>
      <trkpt lat="48.73504" lon="1.85593">
        <ele>161</ele>
        <time>2010-05-13T13:43:30Z</time>
      </trkpt>
      <trkpt lat="48.73503" lon="1.85591">
        <ele>161</ele>
        <time>2010-05-13T13:43:31Z</time>
      </trkpt>
      <trkpt lat="48.73501" lon="1.85589">
        <ele>160</ele>
        <time>2010-05-13T13:43:33Z</time>
      </trkpt>
      <trkpt lat="48.735" lon="1.85587">
        <ele>160</ele>
        <time>2010-05-13T13:43:34Z</time>
      </trkpt>
      <trkpt lat="48.73498" lon="1.85585">
        <ele>160</ele>
        <time>2010-05-13T13:43:36Z</time>
      </trkpt>
      <trkpt lat="48.73496" lon="1.85583">
        <ele>160</ele>
        <time>2010-05-13T13:43:38Z</time>
      </trkpt>
      <trkpt lat="48.73494" lon="1.85581">
        <ele>160</ele>
        <time>2010-05-13T13:43:40Z</time>
      </trkpt>
      <trkpt lat="48.73492" lon="1.85579">
        <ele>160</ele>
        <time>2010-05-13T13:43:42Z</time>
      </trkpt>
      <trkpt lat="48.73491" lon="1.85577">
        <ele>160</ele>
        <time>2010-05-13T13:43:43Z</time>
      </trkpt>
      <trkpt lat="48.7349" lon="1.85575">
        <ele>160</ele>
        <time>2010-05-13T13:43:44Z</time>
      </trkpt>
      <trkpt lat="48.73487" lon="1.85573">
        <ele>160</ele>
        <time>2010-05-13T13:43:46Z</time>
      </trkpt>
      <trkpt lat="48.73487" lon="1.85572">
        <ele>160</ele>
        <time>2010-05-13T13:43:47Z</time>
      </trkpt>
      <trkpt lat="48.73485" lon="1.85569">
        <ele>160</ele>
        <time>2010-05-13T13:43:49Z</time>
      </trkpt>
      <trkpt lat="48.73483" lon="1.85568">
        <ele>160</ele>
        <time>2010-05-13T13:43:51Z</time>
      </trkpt>
      <trkpt lat="48.73481" lon="1.85566">
        <ele>160</ele>
        <time>2010-05-13T13:43:53Z</time>
      </trkpt>
      <trkpt lat="48.73479" lon="1.85564">
        <ele>160</ele>
        <time>2010-05-13T13:43:55Z</time>
      </trkpt>
      <trkpt lat="48.73477" lon="1.85563">
        <ele>160</ele>
        <time>2010-05-13T13:43:57Z</time>
      </trkpt>
      <trkpt lat="48.73475" lon="1.85563">
        <ele>160</ele>
        <time>2010-05-13T13:43:59Z</time>
      </trkpt>
      <trkpt lat="48.73474" lon="1.85562">
        <ele>160</ele>
        <time>2010-05-13T13:44:00Z</time>
      </trkpt>
      <trkpt lat="48.73473" lon="1.85561">
        <ele>160</ele>
        <time>2010-05-13T13:44:01Z</time>
      </trkpt>
      <trkpt lat="48.73472" lon="1.8556">
        <ele>160</ele>
        <time>2010-05-13T13:44:02Z</time>
      </trkpt>
      <trkpt lat="48.7347" lon="1.85559">
        <ele>160</ele>
        <time>2010-05-13T13:44:03Z</time>
      </trkpt>
      <trkpt lat="48.73469" lon="1.85557">
        <ele>160</ele>
        <time>2010-05-13T13:44:05Z</time>
      </trkpt>
      <trkpt lat="48.73468" lon="1.85555">
        <ele>159</ele>
        <time>2010-05-13T13:44:07Z</time>
      </trkpt>
      <trkpt lat="48.73467" lon="1.85553">
        <ele>158</ele>
        <time>2010-05-13T13:44:09Z</time>
      </trkpt>
      <trkpt lat="48.73465" lon="1.85551">
        <ele>157</ele>
        <time>2010-05-13T13:44:11Z</time>
      </trkpt>
      <trkpt lat="48.73464" lon="1.8555">
        <ele>157</ele>
        <time>2010-05-13T13:44:12Z</time>
      </trkpt>
      <trkpt lat="48.73463" lon="1.85546">
        <ele>157</ele>
        <time>2010-05-13T13:44:14Z</time>
      </trkpt>
      <trkpt lat="48.73461" lon="1.85543">
        <ele>157</ele>
        <time>2010-05-13T13:44:16Z</time>
      </trkpt>
      <trkpt lat="48.73459" lon="1.85542">
        <ele>157</ele>
        <time>2010-05-13T13:44:17Z</time>
      </trkpt>
      <trkpt lat="48.73458" lon="1.85541">
        <ele>157</ele>
        <time>2010-05-13T13:44:18Z</time>
      </trkpt>
      <trkpt lat="48.73457" lon="1.85539">
        <ele>157</ele>
        <time>2010-05-13T13:44:19Z</time>
      </trkpt>
      <trkpt lat="48.73457" lon="1.85537">
        <ele>157</ele>
        <time>2010-05-13T13:44:20Z</time>
      </trkpt>
      <trkpt lat="48.73455" lon="1.85534">
        <ele>157</ele>
        <time>2010-05-13T13:44:22Z</time>
      </trkpt>
      <trkpt lat="48.73454" lon="1.85532">
        <ele>157</ele>
        <time>2010-05-13T13:44:23Z</time>
      </trkpt>
      <trkpt lat="48.73453" lon="1.8553">
        <ele>157</ele>
        <time>2010-05-13T13:44:24Z</time>
      </trkpt>
      <trkpt lat="48.73451" lon="1.85529">
        <ele>157</ele>
        <time>2010-05-13T13:44:25Z</time>
      </trkpt>
      <trkpt lat="48.7345" lon="1.85528">
        <ele>157</ele>
        <time>2010-05-13T13:44:26Z</time>
      </trkpt>
      <trkpt lat="48.73449" lon="1.85526">
        <ele>157</ele>
        <time>2010-05-13T13:44:27Z</time>
      </trkpt>
      <trkpt lat="48.73447" lon="1.85524">
        <ele>157</ele>
        <time>2010-05-13T13:44:28Z</time>
      </trkpt>
      <trkpt lat="48.73447" lon="1.85521">
        <ele>157</ele>
        <time>2010-05-13T13:44:29Z</time>
      </trkpt>
      <trkpt lat="48.73446" lon="1.8552">
        <ele>157</ele>
        <time>2010-05-13T13:44:30Z</time>
      </trkpt>
      <trkpt lat="48.73444" lon="1.85518">
        <ele>157</ele>
        <time>2010-05-13T13:44:31Z</time>
      </trkpt>
      <trkpt lat="48.73443" lon="1.85517">
        <ele>157</ele>
        <time>2010-05-13T13:44:32Z</time>
      </trkpt>
      <trkpt lat="48.73441" lon="1.85515">
        <ele>157</ele>
        <time>2010-05-13T13:44:34Z</time>
      </trkpt>
      <trkpt lat="48.73439" lon="1.85512">
        <ele>157</ele>
        <time>2010-05-13T13:44:36Z</time>
      </trkpt>
      <trkpt lat="48.73438" lon="1.85511">
        <ele>157</ele>
        <time>2010-05-13T13:44:37Z</time>
      </trkpt>
      <trkpt lat="48.73436" lon="1.85509">
        <ele>157</ele>
        <time>2010-05-13T13:44:39Z</time>
      </trkpt>
      <trkpt lat="48.73434" lon="1.85506">
        <ele>157</ele>
        <time>2010-05-13T13:44:41Z</time>
      </trkpt>
      <trkpt lat="48.73432" lon="1.85505">
        <ele>157</ele>
        <time>2010-05-13T13:44:42Z</time>
      </trkpt>
      <trkpt lat="48.7343" lon="1.85503">
        <ele>157</ele>
        <time>2010-05-13T13:44:43Z</time>
      </trkpt>
      <trkpt lat="48.73429" lon="1.85501">
        <ele>157</ele>
        <time>2010-05-13T13:44:45Z</time>
      </trkpt>
      <trkpt lat="48.73429" lon="1.85499">
        <ele>157</ele>
        <time>2010-05-13T13:44:47Z</time>
      </trkpt>
      <trkpt lat="48.73427" lon="1.85498">
        <ele>157</ele>
        <time>2010-05-13T13:44:48Z</time>
      </trkpt>
      <trkpt lat="48.73426" lon="1.85496">
        <ele>157</ele>
        <time>2010-05-13T13:44:49Z</time>
      </trkpt>
      <trkpt lat="48.73425" lon="1.85495">
        <ele>157</ele>
        <time>2010-05-13T13:44:50Z</time>
      </trkpt>
      <trkpt lat="48.73423" lon="1.85493">
        <ele>157</ele>
        <time>2010-05-13T13:44:51Z</time>
      </trkpt>
      <trkpt lat="48.73422" lon="1.85491">
        <ele>157</ele>
        <time>2010-05-13T13:44:52Z</time>
      </trkpt>
      <trkpt lat="48.73421" lon="1.85488">
        <ele>157</ele>
        <time>2010-05-13T13:44:54Z</time>
      </trkpt>
      <trkpt lat="48.7342" lon="1.85486">
        <ele>157</ele>
        <time>2010-05-13T13:44:55Z</time>
      </trkpt>
      <trkpt lat="48.73419" lon="1.85484">
        <ele>157</ele>
        <time>2010-05-13T13:44:57Z</time>
      </trkpt>
      <trkpt lat="48.73416" lon="1.85481">
        <ele>157</ele>
        <time>2010-05-13T13:44:59Z</time>
      </trkpt>
      <trkpt lat="48.73415" lon="1.8548">
        <ele>157</ele>
        <time>2010-05-13T13:45:00Z</time>
      </trkpt>
      <trkpt lat="48.73414" lon="1.85479">
        <ele>158</ele>
        <time>2010-05-13T13:45:01Z</time>
      </trkpt>
      <trkpt lat="48.73412" lon="1.85476">
        <ele>158</ele>
        <time>2010-05-13T13:45:03Z</time>
      </trkpt>
      <trkpt lat="48.7341" lon="1.85473">
        <ele>158</ele>
        <time>2010-05-13T13:45:05Z</time>
      </trkpt>
      <trkpt lat="48.73407" lon="1.8547">
        <ele>158</ele>
        <time>2010-05-13T13:45:07Z</time>
      </trkpt>
      <trkpt lat="48.73406" lon="1.85468">
        <ele>158</ele>
        <time>2010-05-13T13:45:08Z</time>
      </trkpt>
      <trkpt lat="48.73405" lon="1.85466">
        <ele>158</ele>
        <time>2010-05-13T13:45:10Z</time>
      </trkpt>
      <trkpt lat="48.73403" lon="1.85463">
        <ele>158</ele>
        <time>2010-05-13T13:45:12Z</time>
      </trkpt>
      <trkpt lat="48.73401" lon="1.85461">
        <ele>158</ele>
        <time>2010-05-13T13:45:14Z</time>
      </trkpt>
      <trkpt lat="48.734" lon="1.85459">
        <ele>158</ele>
        <time>2010-05-13T13:45:15Z</time>
      </trkpt>
      <trkpt lat="48.73398" lon="1.85457">
        <ele>158</ele>
        <time>2010-05-13T13:45:17Z</time>
      </trkpt>
      <trkpt lat="48.73396" lon="1.85456">
        <ele>158</ele>
        <time>2010-05-13T13:45:18Z</time>
      </trkpt>
      <trkpt lat="48.73395" lon="1.85454">
        <ele>158</ele>
        <time>2010-05-13T13:45:19Z</time>
      </trkpt>
      <trkpt lat="48.73393" lon="1.85452">
        <ele>158</ele>
        <time>2010-05-13T13:45:21Z</time>
      </trkpt>
      <trkpt lat="48.73392" lon="1.85451">
        <ele>158</ele>
        <time>2010-05-13T13:45:22Z</time>
      </trkpt>
      <trkpt lat="48.7339" lon="1.85448">
        <ele>158</ele>
        <time>2010-05-13T13:45:24Z</time>
      </trkpt>
      <trkpt lat="48.73389" lon="1.85446">
        <ele>158</ele>
        <time>2010-05-13T13:45:25Z</time>
      </trkpt>
      <trkpt lat="48.73388" lon="1.85444">
        <ele>158</ele>
        <time>2010-05-13T13:45:26Z</time>
      </trkpt>
      <trkpt lat="48.73386" lon="1.85442">
        <ele>158</ele>
        <time>2010-05-13T13:45:27Z</time>
      </trkpt>
      <trkpt lat="48.73385" lon="1.85441">
        <ele>158</ele>
        <time>2010-05-13T13:45:28Z</time>
      </trkpt>
      <trkpt lat="48.73384" lon="1.8544">
        <ele>158</ele>
        <time>2010-05-13T13:45:29Z</time>
      </trkpt>
      <trkpt lat="48.73382" lon="1.85439">
        <ele>158</ele>
        <time>2010-05-13T13:45:30Z</time>
      </trkpt>
      <trkpt lat="48.73381" lon="1.85438">
        <ele>158</ele>
        <time>2010-05-13T13:45:31Z</time>
      </trkpt>
      <trkpt lat="48.7338" lon="1.85436">
        <ele>158</ele>
        <time>2010-05-13T13:45:33Z</time>
      </trkpt>
      <trkpt lat="48.73378" lon="1.85435">
        <ele>158</ele>
        <time>2010-05-13T13:45:35Z</time>
      </trkpt>
      <trkpt lat="48.73377" lon="1.85433">
        <ele>158</ele>
        <time>2010-05-13T13:45:37Z</time>
      </trkpt>
      <trkpt lat="48.73376" lon="1.85431">
        <ele>158</ele>
        <time>2010-05-13T13:45:38Z</time>
      </trkpt>
      <trkpt lat="48.73374" lon="1.8543">
        <ele>158</ele>
        <time>2010-05-13T13:45:39Z</time>
      </trkpt>
      <trkpt lat="48.73372" lon="1.85428">
        <ele>158</ele>
        <time>2010-05-13T13:45:40Z</time>
      </trkpt>
      <trkpt lat="48.73371" lon="1.85426">
        <ele>158</ele>
        <time>2010-05-13T13:45:42Z</time>
      </trkpt>
      <trkpt lat="48.73371" lon="1.85425">
        <ele>158</ele>
        <time>2010-05-13T13:45:43Z</time>
      </trkpt>
      <trkpt lat="48.7337" lon="1.85422">
        <ele>158</ele>
        <time>2010-05-13T13:45:45Z</time>
      </trkpt>
      <trkpt lat="48.73369" lon="1.85421">
        <ele>158</ele>
        <time>2010-05-13T13:45:46Z</time>
      </trkpt>
      <trkpt lat="48.73368" lon="1.85419">
        <ele>158</ele>
        <time>2010-05-13T13:45:47Z</time>
      </trkpt>
      <trkpt lat="48.73367" lon="1.85417">
        <ele>158</ele>
        <time>2010-05-13T13:45:48Z</time>
      </trkpt>
      <trkpt lat="48.73365" lon="1.85415">
        <ele>158</ele>
        <time>2010-05-13T13:45:50Z</time>
      </trkpt>
      <trkpt lat="48.73364" lon="1.85414">
        <ele>158</ele>
        <time>2010-05-13T13:45:51Z</time>
      </trkpt>
      <trkpt lat="48.73363" lon="1.85413">
        <ele>158</ele>
        <time>2010-05-13T13:45:52Z</time>
      </trkpt>
      <trkpt lat="48.73361" lon="1.8541">
        <ele>158</ele>
        <time>2010-05-13T13:45:54Z</time>
      </trkpt>
      <trkpt lat="48.73359" lon="1.85408">
        <ele>158</ele>
        <time>2010-05-13T13:45:56Z</time>
      </trkpt>
      <trkpt lat="48.73357" lon="1.85406">
        <ele>158</ele>
        <time>2010-05-13T13:45:58Z</time>
      </trkpt>
      <trkpt lat="48.73356" lon="1.85405">
        <ele>157</ele>
        <time>2010-05-13T13:45:59Z</time>
      </trkpt>
      <trkpt lat="48.73355" lon="1.85404">
        <ele>157</ele>
        <time>2010-05-13T13:46:00Z</time>
      </trkpt>
      <trkpt lat="48.73353" lon="1.85401">
        <ele>156</ele>
        <time>2010-05-13T13:46:02Z</time>
      </trkpt>
      <trkpt lat="48.73351" lon="1.85399">
        <ele>156</ele>
        <time>2010-05-13T13:46:05Z</time>
      </trkpt>
      <trkpt lat="48.73349" lon="1.85398">
        <ele>156</ele>
        <time>2010-05-13T13:46:07Z</time>
      </trkpt>
      <trkpt lat="48.73348" lon="1.85396">
        <ele>156</ele>
        <time>2010-05-13T13:46:09Z</time>
      </trkpt>
      <trkpt lat="48.73347" lon="1.85394">
        <ele>156</ele>
        <time>2010-05-13T13:46:10Z</time>
      </trkpt>
      <trkpt lat="48.73346" lon="1.85392">
        <ele>156</ele>
        <time>2010-05-13T13:46:11Z</time>
      </trkpt>
      <trkpt lat="48.73344" lon="1.85389">
        <ele>156</ele>
        <time>2010-05-13T13:46:13Z</time>
      </trkpt>
      <trkpt lat="48.73342" lon="1.85387">
        <ele>155</ele>
        <time>2010-05-13T13:46:15Z</time>
      </trkpt>
      <trkpt lat="48.73341" lon="1.85384">
        <ele>155</ele>
        <time>2010-05-13T13:46:17Z</time>
      </trkpt>
      <trkpt lat="48.7334" lon="1.85382">
        <ele>155</ele>
        <time>2010-05-13T13:46:19Z</time>
      </trkpt>
      <trkpt lat="48.73339" lon="1.85381">
        <ele>154</ele>
        <time>2010-05-13T13:46:20Z</time>
      </trkpt>
      <trkpt lat="48.73337" lon="1.85379">
        <ele>154</ele>
        <time>2010-05-13T13:46:22Z</time>
      </trkpt>
      <trkpt lat="48.73336" lon="1.85378">
        <ele>154</ele>
        <time>2010-05-13T13:46:24Z</time>
      </trkpt>
      <trkpt lat="48.73334" lon="1.85376">
        <ele>154</ele>
        <time>2010-05-13T13:46:25Z</time>
      </trkpt>
      <trkpt lat="48.73333" lon="1.85374">
        <ele>153</ele>
        <time>2010-05-13T13:46:26Z</time>
      </trkpt>
      <trkpt lat="48.73332" lon="1.85373">
        <ele>153</ele>
        <time>2010-05-13T13:46:27Z</time>
      </trkpt>
      <trkpt lat="48.7333" lon="1.85371">
        <ele>153</ele>
        <time>2010-05-13T13:46:28Z</time>
      </trkpt>
      <trkpt lat="48.73328" lon="1.85369">
        <ele>152</ele>
        <time>2010-05-13T13:46:30Z</time>
      </trkpt>
      <trkpt lat="48.73325" lon="1.85367">
        <ele>151</ele>
        <time>2010-05-13T13:46:32Z</time>
      </trkpt>
      <trkpt lat="48.73324" lon="1.85366">
        <ele>151</ele>
        <time>2010-05-13T13:46:33Z</time>
      </trkpt>
      <trkpt lat="48.73323" lon="1.85363">
        <ele>150</ele>
        <time>2010-05-13T13:46:35Z</time>
      </trkpt>
      <trkpt lat="48.73321" lon="1.85362">
        <ele>150</ele>
        <time>2010-05-13T13:46:36Z</time>
      </trkpt>
      <trkpt lat="48.7332" lon="1.8536">
        <ele>150</ele>
        <time>2010-05-13T13:46:37Z</time>
      </trkpt>
      <trkpt lat="48.73318" lon="1.85359">
        <ele>150</ele>
        <time>2010-05-13T13:46:38Z</time>
      </trkpt>
      <trkpt lat="48.73317" lon="1.85357">
        <ele>150</ele>
        <time>2010-05-13T13:46:39Z</time>
      </trkpt>
      <trkpt lat="48.73316" lon="1.85356">
        <ele>150</ele>
        <time>2010-05-13T13:46:40Z</time>
      </trkpt>
      <trkpt lat="48.73316" lon="1.85354">
        <ele>150</ele>
        <time>2010-05-13T13:46:41Z</time>
      </trkpt>
      <trkpt lat="48.73315" lon="1.85353">
        <ele>150</ele>
        <time>2010-05-13T13:46:42Z</time>
      </trkpt>
      <trkpt lat="48.73313" lon="1.8535">
        <ele>150</ele>
        <time>2010-05-13T13:46:44Z</time>
      </trkpt>
      <trkpt lat="48.73311" lon="1.85347">
        <ele>150</ele>
        <time>2010-05-13T13:46:46Z</time>
      </trkpt>
      <trkpt lat="48.73309" lon="1.85344">
        <ele>150</ele>
        <time>2010-05-13T13:46:47Z</time>
      </trkpt>
      <trkpt lat="48.73308" lon="1.85342">
        <ele>150</ele>
        <time>2010-05-13T13:46:48Z</time>
      </trkpt>
      <trkpt lat="48.73307" lon="1.85341">
        <ele>150</ele>
        <time>2010-05-13T13:46:49Z</time>
      </trkpt>
      <trkpt lat="48.73305" lon="1.85339">
        <ele>150</ele>
        <time>2010-05-13T13:46:50Z</time>
      </trkpt>
      <trkpt lat="48.73304" lon="1.85337">
        <ele>150</ele>
        <time>2010-05-13T13:46:51Z</time>
      </trkpt>
      <trkpt lat="48.73302" lon="1.85335">
        <ele>150</ele>
        <time>2010-05-13T13:46:53Z</time>
      </trkpt>
      <trkpt lat="48.733" lon="1.85334">
        <ele>150</ele>
        <time>2010-05-13T13:46:54Z</time>
      </trkpt>
      <trkpt lat="48.73299" lon="1.85332">
        <ele>149</ele>
        <time>2010-05-13T13:46:55Z</time>
      </trkpt>
      <trkpt lat="48.73297" lon="1.85331">
        <ele>149</ele>
        <time>2010-05-13T13:46:57Z</time>
      </trkpt>
      <trkpt lat="48.73296" lon="1.85329">
        <ele>149</ele>
        <time>2010-05-13T13:46:58Z</time>
      </trkpt>
      <trkpt lat="48.73294" lon="1.85327">
        <ele>148</ele>
        <time>2010-05-13T13:47:00Z</time>
      </trkpt>
      <trkpt lat="48.73293" lon="1.85325">
        <ele>147</ele>
        <time>2010-05-13T13:47:02Z</time>
      </trkpt>
      <trkpt lat="48.7329" lon="1.85321">
        <ele>147</ele>
        <time>2010-05-13T13:47:04Z</time>
      </trkpt>
      <trkpt lat="48.73289" lon="1.8532">
        <ele>146</ele>
        <time>2010-05-13T13:47:05Z</time>
      </trkpt>
      <trkpt lat="48.73288" lon="1.85318">
        <ele>146</ele>
        <time>2010-05-13T13:47:06Z</time>
      </trkpt>
      <trkpt lat="48.73286" lon="1.85315">
        <ele>146</ele>
        <time>2010-05-13T13:47:07Z</time>
      </trkpt>
      <trkpt lat="48.73284" lon="1.85313">
        <ele>145</ele>
        <time>2010-05-13T13:47:08Z</time>
      </trkpt>
      <trkpt lat="48.73283" lon="1.8531">
        <ele>145</ele>
        <time>2010-05-13T13:47:09Z</time>
      </trkpt>
      <trkpt lat="48.73282" lon="1.85308">
        <ele>145</ele>
        <time>2010-05-13T13:47:10Z</time>
      </trkpt>
      <trkpt lat="48.7328" lon="1.85305">
        <ele>144</ele>
        <time>2010-05-13T13:47:12Z</time>
      </trkpt>
      <trkpt lat="48.73278" lon="1.85303">
        <ele>144</ele>
        <time>2010-05-13T13:47:13Z</time>
      </trkpt>
      <trkpt lat="48.73277" lon="1.85301">
        <ele>144</ele>
        <time>2010-05-13T13:47:15Z</time>
      </trkpt>
      <trkpt lat="48.73275" lon="1.85298">
        <ele>143</ele>
        <time>2010-05-13T13:47:17Z</time>
      </trkpt>
      <trkpt lat="48.73273" lon="1.85296">
        <ele>142</ele>
        <time>2010-05-13T13:47:19Z</time>
      </trkpt>
      <trkpt lat="48.73271" lon="1.85294">
        <ele>141</ele>
        <time>2010-05-13T13:47:21Z</time>
      </trkpt>
      <trkpt lat="48.7327" lon="1.85293">
        <ele>141</ele>
        <time>2010-05-13T13:47:22Z</time>
      </trkpt>
      <trkpt lat="48.73268" lon="1.85291">
        <ele>141</ele>
        <time>2010-05-13T13:47:24Z</time>
      </trkpt>
      <trkpt lat="48.73266" lon="1.85288">
        <ele>141</ele>
        <time>2010-05-13T13:47:26Z</time>
      </trkpt>
      <trkpt lat="48.73264" lon="1.85285">
        <ele>141</ele>
        <time>2010-05-13T13:47:28Z</time>
      </trkpt>
      <trkpt lat="48.73262" lon="1.85283">
        <ele>141</ele>
        <time>2010-05-13T13:47:29Z</time>
      </trkpt>
      <trkpt lat="48.7326" lon="1.85281">
        <ele>141</ele>
        <time>2010-05-13T13:47:30Z</time>
      </trkpt>
      <trkpt lat="48.73258" lon="1.85278">
        <ele>141</ele>
        <time>2010-05-13T13:47:31Z</time>
      </trkpt>
      <trkpt lat="48.73256" lon="1.85274">
        <ele>141</ele>
        <time>2010-05-13T13:47:32Z</time>
      </trkpt>
      <trkpt lat="48.73253" lon="1.85271">
        <ele>141</ele>
        <time>2010-05-13T13:47:33Z</time>
      </trkpt>
      <trkpt lat="48.7325" lon="1.85268">
        <ele>141</ele>
        <time>2010-05-13T13:47:34Z</time>
      </trkpt>
      <trkpt lat="48.73248" lon="1.85265">
        <ele>141</ele>
        <time>2010-05-13T13:47:35Z</time>
      </trkpt>
      <trkpt lat="48.73246" lon="1.85261">
        <ele>141</ele>
        <time>2010-05-13T13:47:36Z</time>
      </trkpt>
      <trkpt lat="48.73243" lon="1.85258">
        <ele>141</ele>
        <time>2010-05-13T13:47:37Z</time>
      </trkpt>
      <trkpt lat="48.73241" lon="1.85254">
        <ele>141</ele>
        <time>2010-05-13T13:47:38Z</time>
      </trkpt>
      <trkpt lat="48.73238" lon="1.85251">
        <ele>141</ele>
        <time>2010-05-13T13:47:39Z</time>
      </trkpt>
      <trkpt lat="48.73234" lon="1.85248">
        <ele>141</ele>
        <time>2010-05-13T13:47:40Z</time>
      </trkpt>
      <trkpt lat="48.73231" lon="1.85244">
        <ele>141</ele>
        <time>2010-05-13T13:47:41Z</time>
      </trkpt>
      <trkpt lat="48.73227" lon="1.8524">
        <ele>141</ele>
        <time>2010-05-13T13:47:42Z</time>
      </trkpt>
      <trkpt lat="48.73224" lon="1.85237">
        <ele>141</ele>
        <time>2010-05-13T13:47:43Z</time>
      </trkpt>
      <trkpt lat="48.73219" lon="1.85233">
        <ele>140</ele>
        <time>2010-05-13T13:47:44Z</time>
      </trkpt>
      <trkpt lat="48.73215" lon="1.85229">
        <ele>139</ele>
        <time>2010-05-13T13:47:45Z</time>
      </trkpt>
      <trkpt lat="48.73211" lon="1.85226">
        <ele>139</ele>
        <time>2010-05-13T13:47:46Z</time>
      </trkpt>
      <trkpt lat="48.73209" lon="1.85223">
        <ele>138</ele>
        <time>2010-05-13T13:47:47Z</time>
      </trkpt>
      <trkpt lat="48.73205" lon="1.85218">
        <ele>138</ele>
        <time>2010-05-13T13:47:48Z</time>
      </trkpt>
      <trkpt lat="48.73201" lon="1.85214">
        <ele>137</ele>
        <time>2010-05-13T13:47:49Z</time>
      </trkpt>
      <trkpt lat="48.73197" lon="1.8521">
        <ele>137</ele>
        <time>2010-05-13T13:47:50Z</time>
      </trkpt>
      <trkpt lat="48.73194" lon="1.85207">
        <ele>136</ele>
        <time>2010-05-13T13:47:51Z</time>
      </trkpt>
      <trkpt lat="48.7319" lon="1.85203">
        <ele>136</ele>
        <time>2010-05-13T13:47:52Z</time>
      </trkpt>
      <trkpt lat="48.73189" lon="1.85199">
        <ele>135</ele>
        <time>2010-05-13T13:47:53Z</time>
      </trkpt>
      <trkpt lat="48.73186" lon="1.85196">
        <ele>135</ele>
        <time>2010-05-13T13:47:54Z</time>
      </trkpt>
      <trkpt lat="48.73184" lon="1.85192">
        <ele>134</ele>
        <time>2010-05-13T13:47:55Z</time>
      </trkpt>
      <trkpt lat="48.7318" lon="1.85188">
        <ele>134</ele>
        <time>2010-05-13T13:47:56Z</time>
      </trkpt>
      <trkpt lat="48.73177" lon="1.85184">
        <ele>133</ele>
        <time>2010-05-13T13:47:57Z</time>
      </trkpt>
      <trkpt lat="48.73174" lon="1.85182">
        <ele>133</ele>
        <time>2010-05-13T13:47:58Z</time>
      </trkpt>
      <trkpt lat="48.73171" lon="1.85179">
        <ele>133</ele>
        <time>2010-05-13T13:47:59Z</time>
      </trkpt>
      <trkpt lat="48.73168" lon="1.85175">
        <ele>133</ele>
        <time>2010-05-13T13:48:00Z</time>
      </trkpt>
      <trkpt lat="48.73166" lon="1.85172">
        <ele>133</ele>
        <time>2010-05-13T13:48:01Z</time>
      </trkpt>
      <trkpt lat="48.73162" lon="1.85169">
        <ele>133</ele>
        <time>2010-05-13T13:48:02Z</time>
      </trkpt>
      <trkpt lat="48.73159" lon="1.85165">
        <ele>132</ele>
        <time>2010-05-13T13:48:03Z</time>
      </trkpt>
      <trkpt lat="48.73156" lon="1.85161">
        <ele>132</ele>
        <time>2010-05-13T13:48:04Z</time>
      </trkpt>
      <trkpt lat="48.73153" lon="1.85157">
        <ele>131</ele>
        <time>2010-05-13T13:48:05Z</time>
      </trkpt>
      <trkpt lat="48.73149" lon="1.85154">
        <ele>131</ele>
        <time>2010-05-13T13:48:06Z</time>
      </trkpt>
      <trkpt lat="48.73146" lon="1.85151">
        <ele>131</ele>
        <time>2010-05-13T13:48:07Z</time>
      </trkpt>
      <trkpt lat="48.73144" lon="1.85148">
        <ele>130</ele>
        <time>2010-05-13T13:48:08Z</time>
      </trkpt>
      <trkpt lat="48.73141" lon="1.85145">
        <ele>130</ele>
        <time>2010-05-13T13:48:09Z</time>
      </trkpt>
      <trkpt lat="48.73139" lon="1.85143">
        <ele>129</ele>
        <time>2010-05-13T13:48:10Z</time>
      </trkpt>
      <trkpt lat="48.73136" lon="1.8514">
        <ele>128</ele>
        <time>2010-05-13T13:48:11Z</time>
      </trkpt>
      <trkpt lat="48.73133" lon="1.85138">
        <ele>128</ele>
        <time>2010-05-13T13:48:12Z</time>
      </trkpt>
      <trkpt lat="48.73131" lon="1.85135">
        <ele>127</ele>
        <time>2010-05-13T13:48:13Z</time>
      </trkpt>
      <trkpt lat="48.73129" lon="1.85133">
        <ele>127</ele>
        <time>2010-05-13T13:48:14Z</time>
      </trkpt>
      <trkpt lat="48.73127" lon="1.8513">
        <ele>127</ele>
        <time>2010-05-13T13:48:15Z</time>
      </trkpt>
      <trkpt lat="48.73124" lon="1.85126">
        <ele>127</ele>
        <time>2010-05-13T13:48:16Z</time>
      </trkpt>
      <trkpt lat="48.73122" lon="1.85123">
        <ele>127</ele>
        <time>2010-05-13T13:48:17Z</time>
      </trkpt>
      <trkpt lat="48.73119" lon="1.8512">
        <ele>127</ele>
        <time>2010-05-13T13:48:18Z</time>
      </trkpt>
      <trkpt lat="48.73118" lon="1.85116">
        <ele>127</ele>
        <time>2010-05-13T13:48:19Z</time>
      </trkpt>
      <trkpt lat="48.73116" lon="1.85112">
        <ele>127</ele>
        <time>2010-05-13T13:48:20Z</time>
      </trkpt>
      <trkpt lat="48.73114" lon="1.85108">
        <ele>127</ele>
        <time>2010-05-13T13:48:21Z</time>
      </trkpt>
      <trkpt lat="48.73112" lon="1.85102">
        <ele>128</ele>
        <time>2010-05-13T13:48:22Z</time>
      </trkpt>
      <trkpt lat="48.73109" lon="1.85098">
        <ele>129</ele>
        <time>2010-05-13T13:48:23Z</time>
      </trkpt>
      <trkpt lat="48.73107" lon="1.85093">
        <ele>130</ele>
        <time>2010-05-13T13:48:24Z</time>
      </trkpt>
      <trkpt lat="48.73104" lon="1.85088">
        <ele>131</ele>
        <time>2010-05-13T13:48:25Z</time>
      </trkpt>
      <trkpt lat="48.73102" lon="1.85082">
        <ele>132</ele>
        <time>2010-05-13T13:48:26Z</time>
      </trkpt>
      <trkpt lat="48.73099" lon="1.85078">
        <ele>133</ele>
        <time>2010-05-13T13:48:27Z</time>
      </trkpt>
      <trkpt lat="48.73095" lon="1.85073">
        <ele>134</ele>
        <time>2010-05-13T13:48:28Z</time>
      </trkpt>
      <trkpt lat="48.73092" lon="1.85069">
        <ele>135</ele>
        <time>2010-05-13T13:48:29Z</time>
      </trkpt>
      <trkpt lat="48.73089" lon="1.85065">
        <ele>136</ele>
        <time>2010-05-13T13:48:30Z</time>
      </trkpt>
      <trkpt lat="48.73086" lon="1.85061">
        <ele>137</ele>
        <time>2010-05-13T13:48:31Z</time>
      </trkpt>
      <trkpt lat="48.73084" lon="1.85058">
        <ele>138</ele>
        <time>2010-05-13T13:48:32Z</time>
      </trkpt>
      <trkpt lat="48.73081" lon="1.85054">
        <ele>139</ele>
        <time>2010-05-13T13:48:33Z</time>
      </trkpt>
      <trkpt lat="48.73079" lon="1.85051">
        <ele>140</ele>
        <time>2010-05-13T13:48:34Z</time>
      </trkpt>
      <trkpt lat="48.73075" lon="1.85047">
        <ele>141</ele>
        <time>2010-05-13T13:48:35Z</time>
      </trkpt>
      <trkpt lat="48.73072" lon="1.85043">
        <ele>142</ele>
        <time>2010-05-13T13:48:36Z</time>
      </trkpt>
      <trkpt lat="48.73068" lon="1.85037">
        <ele>143</ele>
        <time>2010-05-13T13:48:37Z</time>
      </trkpt>
      <trkpt lat="48.73065" lon="1.85032">
        <ele>144</ele>
        <time>2010-05-13T13:48:38Z</time>
      </trkpt>
      <trkpt lat="48.73061" lon="1.85027">
        <ele>145</ele>
        <time>2010-05-13T13:48:39Z</time>
      </trkpt>
      <trkpt lat="48.73057" lon="1.85021">
        <ele>146</ele>
        <time>2010-05-13T13:48:40Z</time>
      </trkpt>
      <trkpt lat="48.73053" lon="1.85015">
        <ele>147</ele>
        <time>2010-05-13T13:48:41Z</time>
      </trkpt>
      <trkpt lat="48.73049" lon="1.8501">
        <ele>147</ele>
        <time>2010-05-13T13:48:42Z</time>
      </trkpt>
      <trkpt lat="48.73045" lon="1.85005">
        <ele>148</ele>
        <time>2010-05-13T13:48:43Z</time>
      </trkpt>
      <trkpt lat="48.73041" lon="1.85">
        <ele>149</ele>
        <time>2010-05-13T13:48:44Z</time>
      </trkpt>
      <trkpt lat="48.73037" lon="1.84994">
        <ele>149</ele>
        <time>2010-05-13T13:48:45Z</time>
      </trkpt>
      <trkpt lat="48.73033" lon="1.84988">
        <ele>150</ele>
        <time>2010-05-13T13:48:46Z</time>
      </trkpt>
      <trkpt lat="48.73029" lon="1.84982">
        <ele>150</ele>
        <time>2010-05-13T13:48:47Z</time>
      </trkpt>
      <trkpt lat="48.73024" lon="1.84976">
        <ele>151</ele>
        <time>2010-05-13T13:48:48Z</time>
      </trkpt>
      <trkpt lat="48.73019" lon="1.84969">
        <ele>151</ele>
        <time>2010-05-13T13:48:49Z</time>
      </trkpt>
      <trkpt lat="48.73015" lon="1.84964">
        <ele>151</ele>
        <time>2010-05-13T13:48:50Z</time>
      </trkpt>
      <trkpt lat="48.73012" lon="1.84958">
        <ele>152</ele>
        <time>2010-05-13T13:48:51Z</time>
      </trkpt>
      <trkpt lat="48.73008" lon="1.84952">
        <ele>152</ele>
        <time>2010-05-13T13:48:52Z</time>
      </trkpt>
      <trkpt lat="48.73004" lon="1.84946">
        <ele>152</ele>
        <time>2010-05-13T13:48:53Z</time>
      </trkpt>
      <trkpt lat="48.72998" lon="1.84939">
        <ele>152</ele>
        <time>2010-05-13T13:48:54Z</time>
      </trkpt>
      <trkpt lat="48.72993" lon="1.84931">
        <ele>153</ele>
        <time>2010-05-13T13:48:55Z</time>
      </trkpt>
      <trkpt lat="48.72988" lon="1.84926">
        <ele>153</ele>
        <time>2010-05-13T13:48:56Z</time>
      </trkpt>
      <trkpt lat="48.72983" lon="1.84919">
        <ele>154</ele>
        <time>2010-05-13T13:48:57Z</time>
      </trkpt>
      <trkpt lat="48.72978" lon="1.84913">
        <ele>155</ele>
        <time>2010-05-13T13:48:58Z</time>
      </trkpt>
      <trkpt lat="48.72973" lon="1.84907">
        <ele>155</ele>
        <time>2010-05-13T13:48:59Z</time>
      </trkpt>
      <trkpt lat="48.72968" lon="1.849">
        <ele>156</ele>
        <time>2010-05-13T13:49:00Z</time>
      </trkpt>
      <trkpt lat="48.72963" lon="1.84893">
        <ele>156</ele>
        <time>2010-05-13T13:49:01Z</time>
      </trkpt>
      <trkpt lat="48.72958" lon="1.84881">
        <ele>157</ele>
        <time>2010-05-13T13:49:02Z</time>
      </trkpt>
      <trkpt lat="48.72953" lon="1.84873">
        <ele>157</ele>
        <time>2010-05-13T13:49:03Z</time>
      </trkpt>
      <trkpt lat="48.72948" lon="1.84866">
        <ele>158</ele>
        <time>2010-05-13T13:49:04Z</time>
      </trkpt>
      <trkpt lat="48.72943" lon="1.8486">
        <ele>159</ele>
        <time>2010-05-13T13:49:05Z</time>
      </trkpt>
      <trkpt lat="48.72937" lon="1.84853">
        <ele>160</ele>
        <time>2010-05-13T13:49:06Z</time>
      </trkpt>
      <trkpt lat="48.72933" lon="1.84847">
        <ele>161</ele>
        <time>2010-05-13T13:49:07Z</time>
      </trkpt>
      <trkpt lat="48.72928" lon="1.84841">
        <ele>161</ele>
        <time>2010-05-13T13:49:08Z</time>
      </trkpt>
      <trkpt lat="48.72923" lon="1.84833">
        <ele>162</ele>
        <time>2010-05-13T13:49:09Z</time>
      </trkpt>
      <trkpt lat="48.7292" lon="1.84829">
        <ele>162</ele>
        <time>2010-05-13T13:49:10Z</time>
      </trkpt>
      <trkpt lat="48.72916" lon="1.84824">
        <ele>163</ele>
        <time>2010-05-13T13:49:11Z</time>
      </trkpt>
      <trkpt lat="48.72913" lon="1.8482">
        <ele>163</ele>
        <time>2010-05-13T13:49:12Z</time>
      </trkpt>
      <trkpt lat="48.72909" lon="1.84813">
        <ele>164</ele>
        <time>2010-05-13T13:49:13Z</time>
      </trkpt>
      <trkpt lat="48.72907" lon="1.8481">
        <ele>164</ele>
        <time>2010-05-13T13:49:14Z</time>
      </trkpt>
      <trkpt lat="48.72903" lon="1.84804">
        <ele>165</ele>
        <time>2010-05-13T13:49:15Z</time>
      </trkpt>
      <trkpt lat="48.729" lon="1.84799">
        <ele>166</ele>
        <time>2010-05-13T13:49:16Z</time>
      </trkpt>
      <trkpt lat="48.72896" lon="1.84793">
        <ele>166</ele>
        <time>2010-05-13T13:49:17Z</time>
      </trkpt>
      <trkpt lat="48.72891" lon="1.84787">
        <ele>166</ele>
        <time>2010-05-13T13:49:18Z</time>
      </trkpt>
      <trkpt lat="48.72885" lon="1.84779">
        <ele>166</ele>
        <time>2010-05-13T13:49:19Z</time>
      </trkpt>
      <trkpt lat="48.72879" lon="1.8477">
        <ele>166</ele>
        <time>2010-05-13T13:49:20Z</time>
      </trkpt>
      <trkpt lat="48.72874" lon="1.84762">
        <ele>166</ele>
        <time>2010-05-13T13:49:21Z</time>
      </trkpt>
      <trkpt lat="48.72868" lon="1.84755">
        <ele>166</ele>
        <time>2010-05-13T13:49:22Z</time>
      </trkpt>
      <trkpt lat="48.72863" lon="1.84748">
        <ele>167</ele>
        <time>2010-05-13T13:49:23Z</time>
      </trkpt>
      <trkpt lat="48.72858" lon="1.84742">
        <ele>167</ele>
        <time>2010-05-13T13:49:24Z</time>
      </trkpt>
      <trkpt lat="48.72853" lon="1.84736">
        <ele>168</ele>
        <time>2010-05-13T13:49:25Z</time>
      </trkpt>
      <trkpt lat="48.72847" lon="1.8473">
        <ele>168</ele>
        <time>2010-05-13T13:49:26Z</time>
      </trkpt>
      <trkpt lat="48.72842" lon="1.84724">
        <ele>168</ele>
        <time>2010-05-13T13:49:27Z</time>
      </trkpt>
      <trkpt lat="48.72837" lon="1.84717">
        <ele>169</ele>
        <time>2010-05-13T13:49:28Z</time>
      </trkpt>
      <trkpt lat="48.72833" lon="1.84713">
        <ele>169</ele>
        <time>2010-05-13T13:49:29Z</time>
      </trkpt>
      <trkpt lat="48.72829" lon="1.84709">
        <ele>169</ele>
        <time>2010-05-13T13:49:30Z</time>
      </trkpt>
      <trkpt lat="48.72825" lon="1.84705">
        <ele>169</ele>
        <time>2010-05-13T13:49:31Z</time>
      </trkpt>
      <trkpt lat="48.72822" lon="1.84701">
        <ele>169</ele>
        <time>2010-05-13T13:49:32Z</time>
      </trkpt>
      <trkpt lat="48.72818" lon="1.84695">
        <ele>169</ele>
        <time>2010-05-13T13:49:33Z</time>
      </trkpt>
      <trkpt lat="48.72814" lon="1.84691">
        <ele>169</ele>
        <time>2010-05-13T13:49:34Z</time>
      </trkpt>
      <trkpt lat="48.7281" lon="1.84687">
        <ele>169</ele>
        <time>2010-05-13T13:49:35Z</time>
      </trkpt>
      <trkpt lat="48.72807" lon="1.84683">
        <ele>169</ele>
        <time>2010-05-13T13:49:36Z</time>
      </trkpt>
      <trkpt lat="48.72805" lon="1.84679">
        <ele>169</ele>
        <time>2010-05-13T13:49:37Z</time>
      </trkpt>
      <trkpt lat="48.72801" lon="1.84675">
        <ele>169</ele>
        <time>2010-05-13T13:49:38Z</time>
      </trkpt>
      <trkpt lat="48.72798" lon="1.8467">
        <ele>169</ele>
        <time>2010-05-13T13:49:39Z</time>
      </trkpt>
      <trkpt lat="48.72794" lon="1.84665">
        <ele>169</ele>
        <time>2010-05-13T13:49:40Z</time>
      </trkpt>
      <trkpt lat="48.7279" lon="1.8466">
        <ele>169</ele>
        <time>2010-05-13T13:49:41Z</time>
      </trkpt>
      <trkpt lat="48.72785" lon="1.84655">
        <ele>169</ele>
        <time>2010-05-13T13:49:42Z</time>
      </trkpt>
      <trkpt lat="48.72781" lon="1.84649">
        <ele>169</ele>
        <time>2010-05-13T13:49:43Z</time>
      </trkpt>
      <trkpt lat="48.72777" lon="1.84644">
        <ele>169</ele>
        <time>2010-05-13T13:49:44Z</time>
      </trkpt>
      <trkpt lat="48.72772" lon="1.84639">
        <ele>169</ele>
        <time>2010-05-13T13:49:45Z</time>
      </trkpt>
      <trkpt lat="48.72767" lon="1.84634">
        <ele>169</ele>
        <time>2010-05-13T13:49:46Z</time>
      </trkpt>
      <trkpt lat="48.72762" lon="1.84626">
        <ele>169</ele>
        <time>2010-05-13T13:49:47Z</time>
      </trkpt>
      <trkpt lat="48.72756" lon="1.84621">
        <ele>169</ele>
        <time>2010-05-13T13:49:48Z</time>
      </trkpt>
      <trkpt lat="48.7275" lon="1.84618">
        <ele>169</ele>
        <time>2010-05-13T13:49:49Z</time>
      </trkpt>
      <trkpt lat="48.72745" lon="1.84614">
        <ele>169</ele>
        <time>2010-05-13T13:49:50Z</time>
      </trkpt>
      <trkpt lat="48.7274" lon="1.8461">
        <ele>169</ele>
        <time>2010-05-13T13:49:51Z</time>
      </trkpt>
      <trkpt lat="48.72735" lon="1.84606">
        <ele>169</ele>
        <time>2010-05-13T13:49:52Z</time>
      </trkpt>
      <trkpt lat="48.7273" lon="1.84601">
        <ele>169</ele>
        <time>2010-05-13T13:49:53Z</time>
      </trkpt>
      <trkpt lat="48.72725" lon="1.84597">
        <ele>169</ele>
        <time>2010-05-13T13:49:54Z</time>
      </trkpt>
      <trkpt lat="48.7272" lon="1.84592">
        <ele>168</ele>
        <time>2010-05-13T13:49:55Z</time>
      </trkpt>
      <trkpt lat="48.72715" lon="1.84588">
        <ele>167</ele>
        <time>2010-05-13T13:49:56Z</time>
      </trkpt>
      <trkpt lat="48.7271" lon="1.84583">
        <ele>166</ele>
        <time>2010-05-13T13:49:57Z</time>
      </trkpt>
      <trkpt lat="48.72705" lon="1.84579">
        <ele>165</ele>
        <time>2010-05-13T13:49:58Z</time>
      </trkpt>
      <trkpt lat="48.72701" lon="1.84573">
        <ele>164</ele>
        <time>2010-05-13T13:49:59Z</time>
      </trkpt>
      <trkpt lat="48.72696" lon="1.84568">
        <ele>163</ele>
        <time>2010-05-13T13:50:00Z</time>
      </trkpt>
      <trkpt lat="48.72692" lon="1.84562">
        <ele>162</ele>
        <time>2010-05-13T13:50:01Z</time>
      </trkpt>
      <trkpt lat="48.72688" lon="1.84556">
        <ele>161</ele>
        <time>2010-05-13T13:50:02Z</time>
      </trkpt>
      <trkpt lat="48.72684" lon="1.8455">
        <ele>160</ele>
        <time>2010-05-13T13:50:03Z</time>
      </trkpt>
      <trkpt lat="48.7268" lon="1.84545">
        <ele>160</ele>
        <time>2010-05-13T13:50:04Z</time>
      </trkpt>
      <trkpt lat="48.72676" lon="1.8454">
        <ele>160</ele>
        <time>2010-05-13T13:50:05Z</time>
      </trkpt>
      <trkpt lat="48.72672" lon="1.84536">
        <ele>159</ele>
        <time>2010-05-13T13:50:06Z</time>
      </trkpt>
      <trkpt lat="48.72668" lon="1.84531">
        <ele>158</ele>
        <time>2010-05-13T13:50:07Z</time>
      </trkpt>
      <trkpt lat="48.72663" lon="1.84526">
        <ele>158</ele>
        <time>2010-05-13T13:50:08Z</time>
      </trkpt>
      <trkpt lat="48.7266" lon="1.84521">
        <ele>158</ele>
        <time>2010-05-13T13:50:09Z</time>
      </trkpt>
      <trkpt lat="48.72655" lon="1.84515">
        <ele>157</ele>
        <time>2010-05-13T13:50:10Z</time>
      </trkpt>
      <trkpt lat="48.72651" lon="1.84509">
        <ele>157</ele>
        <time>2010-05-13T13:50:11Z</time>
      </trkpt>
      <trkpt lat="48.72646" lon="1.84502">
        <ele>157</ele>
        <time>2010-05-13T13:50:12Z</time>
      </trkpt>
      <trkpt lat="48.72641" lon="1.84496">
        <ele>157</ele>
        <time>2010-05-13T13:50:13Z</time>
      </trkpt>
      <trkpt lat="48.72636" lon="1.8449">
        <ele>157</ele>
        <time>2010-05-13T13:50:14Z</time>
      </trkpt>
      <trkpt lat="48.72631" lon="1.84485">
        <ele>157</ele>
        <time>2010-05-13T13:50:15Z</time>
      </trkpt>
      <trkpt lat="48.72627" lon="1.84479">
        <ele>157</ele>
        <time>2010-05-13T13:50:16Z</time>
      </trkpt>
      <trkpt lat="48.72621" lon="1.84475">
        <ele>157</ele>
        <time>2010-05-13T13:50:17Z</time>
      </trkpt>
      <trkpt lat="48.72617" lon="1.84469">
        <ele>157</ele>
        <time>2010-05-13T13:50:18Z</time>
      </trkpt>
      <trkpt lat="48.72612" lon="1.84465">
        <ele>157</ele>
        <time>2010-05-13T13:50:19Z</time>
      </trkpt>
      <trkpt lat="48.72608" lon="1.84461">
        <ele>157</ele>
        <time>2010-05-13T13:50:20Z</time>
      </trkpt>
      <trkpt lat="48.72603" lon="1.84456">
        <ele>157</ele>
        <time>2010-05-13T13:50:21Z</time>
      </trkpt>
      <trkpt lat="48.72597" lon="1.84451">
        <ele>156</ele>
        <time>2010-05-13T13:50:22Z</time>
      </trkpt>
      <trkpt lat="48.72591" lon="1.84445">
        <ele>155</ele>
        <time>2010-05-13T13:50:23Z</time>
      </trkpt>
      <trkpt lat="48.72586" lon="1.8444">
        <ele>154</ele>
        <time>2010-05-13T13:50:24Z</time>
      </trkpt>
      <trkpt lat="48.72581" lon="1.84435">
        <ele>153</ele>
        <time>2010-05-13T13:50:25Z</time>
      </trkpt>
      <trkpt lat="48.72576" lon="1.8443">
        <ele>152</ele>
        <time>2010-05-13T13:50:26Z</time>
      </trkpt>
      <trkpt lat="48.72571" lon="1.84425">
        <ele>151</ele>
        <time>2010-05-13T13:50:27Z</time>
      </trkpt>
      <trkpt lat="48.72565" lon="1.84421">
        <ele>150</ele>
        <time>2010-05-13T13:50:28Z</time>
      </trkpt>
      <trkpt lat="48.7256" lon="1.84416">
        <ele>149</ele>
        <time>2010-05-13T13:50:29Z</time>
      </trkpt>
      <trkpt lat="48.72555" lon="1.84411">
        <ele>148</ele>
        <time>2010-05-13T13:50:30Z</time>
      </trkpt>
      <trkpt lat="48.72549" lon="1.84407">
        <ele>147</ele>
        <time>2010-05-13T13:50:31Z</time>
      </trkpt>
      <trkpt lat="48.72544" lon="1.84402">
        <ele>146</ele>
        <time>2010-05-13T13:50:32Z</time>
      </trkpt>
      <trkpt lat="48.72539" lon="1.84397">
        <ele>145</ele>
        <time>2010-05-13T13:50:33Z</time>
      </trkpt>
      <trkpt lat="48.72534" lon="1.84392">
        <ele>144</ele>
        <time>2010-05-13T13:50:34Z</time>
      </trkpt>
      <trkpt lat="48.72529" lon="1.84388">
        <ele>143</ele>
        <time>2010-05-13T13:50:35Z</time>
      </trkpt>
      <trkpt lat="48.72526" lon="1.84382">
        <ele>142</ele>
        <time>2010-05-13T13:50:36Z</time>
      </trkpt>
      <trkpt lat="48.72524" lon="1.84377">
        <ele>141</ele>
        <time>2010-05-13T13:50:37Z</time>
      </trkpt>
      <trkpt lat="48.72523" lon="1.84373">
        <ele>140</ele>
        <time>2010-05-13T13:50:38Z</time>
      </trkpt>
      <trkpt lat="48.72522" lon="1.8437">
        <ele>140</ele>
        <time>2010-05-13T13:50:39Z</time>
      </trkpt>
      <trkpt lat="48.7252" lon="1.84366">
        <ele>140</ele>
        <time>2010-05-13T13:50:40Z</time>
      </trkpt>
      <trkpt lat="48.72518" lon="1.84362">
        <ele>140</ele>
        <time>2010-05-13T13:50:41Z</time>
      </trkpt>
      <trkpt lat="48.72515" lon="1.84358">
        <ele>140</ele>
        <time>2010-05-13T13:50:42Z</time>
      </trkpt>
      <trkpt lat="48.72513" lon="1.84353">
        <ele>140</ele>
        <time>2010-05-13T13:50:43Z</time>
      </trkpt>
      <trkpt lat="48.7251" lon="1.84347">
        <ele>140</ele>
        <time>2010-05-13T13:50:44Z</time>
      </trkpt>
      <trkpt lat="48.72507" lon="1.8434">
        <ele>140</ele>
        <time>2010-05-13T13:50:45Z</time>
      </trkpt>
      <trkpt lat="48.72504" lon="1.84334">
        <ele>140</ele>
        <time>2010-05-13T13:50:46Z</time>
      </trkpt>
      <trkpt lat="48.72501" lon="1.84329">
        <ele>140</ele>
        <time>2010-05-13T13:50:47Z</time>
      </trkpt>
      <trkpt lat="48.72498" lon="1.84324">
        <ele>140</ele>
        <time>2010-05-13T13:50:48Z</time>
      </trkpt>
      <trkpt lat="48.72494" lon="1.84319">
        <ele>140</ele>
        <time>2010-05-13T13:50:49Z</time>
      </trkpt>
      <trkpt lat="48.7249" lon="1.84312">
        <ele>140</ele>
        <time>2010-05-13T13:50:50Z</time>
      </trkpt>
      <trkpt lat="48.72486" lon="1.84305">
        <ele>141</ele>
        <time>2010-05-13T13:50:51Z</time>
      </trkpt>
      <trkpt lat="48.72482" lon="1.84299">
        <ele>141</ele>
        <time>2010-05-13T13:50:52Z</time>
      </trkpt>
      <trkpt lat="48.72477" lon="1.84291">
        <ele>142</ele>
        <time>2010-05-13T13:50:53Z</time>
      </trkpt>
      <trkpt lat="48.72473" lon="1.84285">
        <ele>143</ele>
        <time>2010-05-13T13:50:54Z</time>
      </trkpt>
      <trkpt lat="48.72469" lon="1.84278">
        <ele>144</ele>
        <time>2010-05-13T13:50:55Z</time>
      </trkpt>
      <trkpt lat="48.72464" lon="1.8427">
        <ele>145</ele>
        <time>2010-05-13T13:50:56Z</time>
      </trkpt>
      <trkpt lat="48.72459" lon="1.84263">
        <ele>146</ele>
        <time>2010-05-13T13:50:57Z</time>
      </trkpt>
      <trkpt lat="48.72454" lon="1.84256">
        <ele>147</ele>
        <time>2010-05-13T13:50:58Z</time>
      </trkpt>
      <trkpt lat="48.72449" lon="1.84249">
        <ele>148</ele>
        <time>2010-05-13T13:50:59Z</time>
      </trkpt>
      <trkpt lat="48.72445" lon="1.84243">
        <ele>149</ele>
        <time>2010-05-13T13:51:00Z</time>
      </trkpt>
      <trkpt lat="48.72441" lon="1.84236">
        <ele>150</ele>
        <time>2010-05-13T13:51:01Z</time>
      </trkpt>
      <trkpt lat="48.72436" lon="1.8423">
        <ele>151</ele>
        <time>2010-05-13T13:51:02Z</time>
      </trkpt>
      <trkpt lat="48.72431" lon="1.84224">
        <ele>152</ele>
        <time>2010-05-13T13:51:03Z</time>
      </trkpt>
      <trkpt lat="48.72426" lon="1.84217">
        <ele>153</ele>
        <time>2010-05-13T13:51:04Z</time>
      </trkpt>
      <trkpt lat="48.7242" lon="1.84209">
        <ele>154</ele>
        <time>2010-05-13T13:51:05Z</time>
      </trkpt>
      <trkpt lat="48.72414" lon="1.84201">
        <ele>155</ele>
        <time>2010-05-13T13:51:06Z</time>
      </trkpt>
      <trkpt lat="48.72409" lon="1.84194">
        <ele>156</ele>
        <time>2010-05-13T13:51:07Z</time>
      </trkpt>
      <trkpt lat="48.72403" lon="1.84187">
        <ele>157</ele>
        <time>2010-05-13T13:51:08Z</time>
      </trkpt>
      <trkpt lat="48.72399" lon="1.8418">
        <ele>158</ele>
        <time>2010-05-13T13:51:09Z</time>
      </trkpt>
      <trkpt lat="48.72394" lon="1.84169">
        <ele>159</ele>
        <time>2010-05-13T13:51:10Z</time>
      </trkpt>
      <trkpt lat="48.72389" lon="1.84162">
        <ele>160</ele>
        <time>2010-05-13T13:51:11Z</time>
      </trkpt>
      <trkpt lat="48.72384" lon="1.84156">
        <ele>161</ele>
        <time>2010-05-13T13:51:12Z</time>
      </trkpt>
      <trkpt lat="48.72378" lon="1.84149">
        <ele>162</ele>
        <time>2010-05-13T13:51:13Z</time>
      </trkpt>
      <trkpt lat="48.72373" lon="1.84144">
        <ele>163</ele>
        <time>2010-05-13T13:51:14Z</time>
      </trkpt>
      <trkpt lat="48.72367" lon="1.84138">
        <ele>164</ele>
        <time>2010-05-13T13:51:15Z</time>
      </trkpt>
      <trkpt lat="48.72363" lon="1.84133">
        <ele>164</ele>
        <time>2010-05-13T13:51:16Z</time>
      </trkpt>
      <trkpt lat="48.72358" lon="1.84128">
        <ele>164</ele>
        <time>2010-05-13T13:51:17Z</time>
      </trkpt>
      <trkpt lat="48.72355" lon="1.84122">
        <ele>164</ele>
        <time>2010-05-13T13:51:18Z</time>
      </trkpt>
      <trkpt lat="48.72351" lon="1.84117">
        <ele>164</ele>
        <time>2010-05-13T13:51:19Z</time>
      </trkpt>
      <trkpt lat="48.72348" lon="1.84113">
        <ele>164</ele>
        <time>2010-05-13T13:51:20Z</time>
      </trkpt>
      <trkpt lat="48.72345" lon="1.84109">
        <ele>164</ele>
        <time>2010-05-13T13:51:21Z</time>
      </trkpt>
      <trkpt lat="48.72342" lon="1.84105">
        <ele>164</ele>
        <time>2010-05-13T13:51:22Z</time>
      </trkpt>
      <trkpt lat="48.7234" lon="1.84102">
        <ele>164</ele>
        <time>2010-05-13T13:51:23Z</time>
      </trkpt>
      <trkpt lat="48.72337" lon="1.84098">
        <ele>164</ele>
        <time>2010-05-13T13:51:24Z</time>
      </trkpt>
      <trkpt lat="48.72334" lon="1.84093">
        <ele>164</ele>
        <time>2010-05-13T13:51:25Z</time>
      </trkpt>
      <trkpt lat="48.72332" lon="1.84089">
        <ele>164</ele>
        <time>2010-05-13T13:51:26Z</time>
      </trkpt>
      <trkpt lat="48.7233" lon="1.84086">
        <ele>164</ele>
        <time>2010-05-13T13:51:27Z</time>
      </trkpt>
      <trkpt lat="48.72327" lon="1.84083">
        <ele>164</ele>
        <time>2010-05-13T13:51:28Z</time>
      </trkpt>
      <trkpt lat="48.72324" lon="1.8408">
        <ele>164</ele>
        <time>2010-05-13T13:51:29Z</time>
      </trkpt>
      <trkpt lat="48.72321" lon="1.84077">
        <ele>163</ele>
        <time>2010-05-13T13:51:30Z</time>
      </trkpt>
      <trkpt lat="48.72316" lon="1.84072">
        <ele>162</ele>
        <time>2010-05-13T13:51:31Z</time>
      </trkpt>
      <trkpt lat="48.72313" lon="1.84068">
        <ele>161</ele>
        <time>2010-05-13T13:51:32Z</time>
      </trkpt>
      <trkpt lat="48.72309" lon="1.84065">
        <ele>160</ele>
        <time>2010-05-13T13:51:33Z</time>
      </trkpt>
      <trkpt lat="48.72306" lon="1.84062">
        <ele>159</ele>
        <time>2010-05-13T13:51:34Z</time>
      </trkpt>
      <trkpt lat="48.72303" lon="1.84058">
        <ele>158</ele>
        <time>2010-05-13T13:51:35Z</time>
      </trkpt>
      <trkpt lat="48.723" lon="1.84054">
        <ele>157</ele>
        <time>2010-05-13T13:51:36Z</time>
      </trkpt>
      <trkpt lat="48.72296" lon="1.8405">
        <ele>156</ele>
        <time>2010-05-13T13:51:37Z</time>
      </trkpt>
      <trkpt lat="48.72292" lon="1.84046">
        <ele>156</ele>
        <time>2010-05-13T13:51:38Z</time>
      </trkpt>
      <trkpt lat="48.72289" lon="1.84043">
        <ele>155</ele>
        <time>2010-05-13T13:51:39Z</time>
      </trkpt>
      <trkpt lat="48.72286" lon="1.8404">
        <ele>154</ele>
        <time>2010-05-13T13:51:40Z</time>
      </trkpt>
      <trkpt lat="48.72283" lon="1.84039">
        <ele>153</ele>
        <time>2010-05-13T13:51:41Z</time>
      </trkpt>
      <trkpt lat="48.72281" lon="1.84037">
        <ele>153</ele>
        <time>2010-05-13T13:51:42Z</time>
      </trkpt>
      <trkpt lat="48.7228" lon="1.84034">
        <ele>152</ele>
        <time>2010-05-13T13:51:43Z</time>
      </trkpt>
      <trkpt lat="48.72279" lon="1.84032">
        <ele>152</ele>
        <time>2010-05-13T13:51:44Z</time>
      </trkpt>
      <trkpt lat="48.72278" lon="1.84029">
        <ele>151</ele>
        <time>2010-05-13T13:51:45Z</time>
      </trkpt>
      <trkpt lat="48.72276" lon="1.84027">
        <ele>151</ele>
        <time>2010-05-13T13:51:46Z</time>
      </trkpt>
      <trkpt lat="48.72274" lon="1.84024">
        <ele>151</ele>
        <time>2010-05-13T13:51:47Z</time>
      </trkpt>
      <trkpt lat="48.72272" lon="1.84022">
        <ele>151</ele>
        <time>2010-05-13T13:51:48Z</time>
      </trkpt>
      <trkpt lat="48.7227" lon="1.8402">
        <ele>151</ele>
        <time>2010-05-13T13:51:49Z</time>
      </trkpt>
      <trkpt lat="48.72268" lon="1.84019">
        <ele>151</ele>
        <time>2010-05-13T13:51:50Z</time>
      </trkpt>
      <trkpt lat="48.72267" lon="1.84018">
        <ele>151</ele>
        <time>2010-05-13T13:51:51Z</time>
      </trkpt>
      <trkpt lat="48.72266" lon="1.84015">
        <ele>151</ele>
        <time>2010-05-13T13:51:53Z</time>
      </trkpt>
      <trkpt lat="48.72265" lon="1.84012">
        <ele>151</ele>
        <time>2010-05-13T13:51:54Z</time>
      </trkpt>
      <trkpt lat="48.72265" lon="1.8401">
        <ele>151</ele>
        <time>2010-05-13T13:51:55Z</time>
      </trkpt>
      <trkpt lat="48.72265" lon="1.84008">
        <ele>151</ele>
        <time>2010-05-13T13:51:56Z</time>
      </trkpt>
      <trkpt lat="48.72265" lon="1.84005">
        <ele>151</ele>
        <time>2010-05-13T13:51:58Z</time>
      </trkpt>
      <trkpt lat="48.72265" lon="1.84003">
        <ele>152</ele>
        <time>2010-05-13T13:52:00Z</time>
      </trkpt>
      <trkpt lat="48.72265" lon="1.84001">
        <ele>152</ele>
        <time>2010-05-13T13:52:01Z</time>
      </trkpt>
      <trkpt lat="48.72265" lon="1.83999">
        <ele>153</ele>
        <time>2010-05-13T13:52:02Z</time>
      </trkpt>
      <trkpt lat="48.72265" lon="1.83997">
        <ele>153</ele>
        <time>2010-05-13T13:52:03Z</time>
      </trkpt>
      <trkpt lat="48.72264" lon="1.83994">
        <ele>153</ele>
        <time>2010-05-13T13:52:04Z</time>
      </trkpt>
      <trkpt lat="48.72263" lon="1.83991">
        <ele>154</ele>
        <time>2010-05-13T13:52:05Z</time>
      </trkpt>
      <trkpt lat="48.72262" lon="1.83988">
        <ele>154</ele>
        <time>2010-05-13T13:52:06Z</time>
      </trkpt>
      <trkpt lat="48.7226" lon="1.83987">
        <ele>155</ele>
        <time>2010-05-13T13:52:07Z</time>
      </trkpt>
      <trkpt lat="48.7226" lon="1.83984">
        <ele>155</ele>
        <time>2010-05-13T13:52:08Z</time>
      </trkpt>
      <trkpt lat="48.72259" lon="1.83982">
        <ele>156</ele>
        <time>2010-05-13T13:52:09Z</time>
      </trkpt>
      <trkpt lat="48.72258" lon="1.8398">
        <ele>157</ele>
        <time>2010-05-13T13:52:10Z</time>
      </trkpt>
      <trkpt lat="48.72257" lon="1.83978">
        <ele>158</ele>
        <time>2010-05-13T13:52:11Z</time>
      </trkpt>
      <trkpt lat="48.72255" lon="1.83976">
        <ele>160</ele>
        <time>2010-05-13T13:52:13Z</time>
      </trkpt>
      <trkpt lat="48.72252" lon="1.83973">
        <ele>162</ele>
        <time>2010-05-13T13:52:15Z</time>
      </trkpt>
      <trkpt lat="48.72251" lon="1.83973">
        <ele>163</ele>
        <time>2010-05-13T13:52:16Z</time>
      </trkpt>
      <trkpt lat="48.7225" lon="1.83972">
        <ele>164</ele>
        <time>2010-05-13T13:52:17Z</time>
      </trkpt>
      <trkpt lat="48.72248" lon="1.83971">
        <ele>168</ele>
        <time>2010-05-13T13:52:21Z</time>
      </trkpt>
      <trkpt lat="48.72247" lon="1.83971">
        <ele>170</ele>
        <time>2010-05-13T13:52:24Z</time>
      </trkpt>
      <trkpt lat="48.72245" lon="1.83968">
        <ele>170</ele>
        <time>2010-05-13T13:52:26Z</time>
      </trkpt>
      <trkpt lat="48.72244" lon="1.83967">
        <ele>171</ele>
        <time>2010-05-13T13:52:27Z</time>
      </trkpt>
      <trkpt lat="48.72242" lon="1.83964">
        <ele>171</ele>
        <time>2010-05-13T13:52:29Z</time>
      </trkpt>
      <trkpt lat="48.7224" lon="1.83962">
        <ele>171</ele>
        <time>2010-05-13T13:52:31Z</time>
      </trkpt>
      <trkpt lat="48.72239" lon="1.8396">
        <ele>172</ele>
        <time>2010-05-13T13:52:33Z</time>
      </trkpt>
      <trkpt lat="48.72239" lon="1.83959">
        <ele>172</ele>
        <time>2010-05-13T13:52:34Z</time>
      </trkpt>
      <trkpt lat="48.72237" lon="1.83957">
        <ele>172</ele>
        <time>2010-05-13T13:52:35Z</time>
      </trkpt>
      <trkpt lat="48.72235" lon="1.83956">
        <ele>173</ele>
        <time>2010-05-13T13:52:36Z</time>
      </trkpt>
      <trkpt lat="48.72233" lon="1.83954">
        <ele>173</ele>
        <time>2010-05-13T13:52:37Z</time>
      </trkpt>
      <trkpt lat="48.72232" lon="1.83952">
        <ele>173</ele>
        <time>2010-05-13T13:52:38Z</time>
      </trkpt>
      <trkpt lat="48.7223" lon="1.8395">
        <ele>173</ele>
        <time>2010-05-13T13:52:39Z</time>
      </trkpt>
      <trkpt lat="48.72228" lon="1.83948">
        <ele>173</ele>
        <time>2010-05-13T13:52:41Z</time>
      </trkpt>
      <trkpt lat="48.72227" lon="1.83947">
        <ele>173</ele>
        <time>2010-05-13T13:52:42Z</time>
      </trkpt>
      <trkpt lat="48.72225" lon="1.83946">
        <ele>173</ele>
        <time>2010-05-13T13:52:44Z</time>
      </trkpt>
      <trkpt lat="48.72223" lon="1.83944">
        <ele>173</ele>
        <time>2010-05-13T13:52:47Z</time>
      </trkpt>
      <trkpt lat="48.72222" lon="1.83943">
        <ele>173</ele>
        <time>2010-05-13T13:52:49Z</time>
      </trkpt>
      <trkpt lat="48.7222" lon="1.83941">
        <ele>173</ele>
        <time>2010-05-13T13:52:51Z</time>
      </trkpt>
      <trkpt lat="48.72219" lon="1.83939">
        <ele>173</ele>
        <time>2010-05-13T13:52:53Z</time>
      </trkpt>
      <trkpt lat="48.72218" lon="1.83938">
        <ele>173</ele>
        <time>2010-05-13T13:52:54Z</time>
      </trkpt>
      <trkpt lat="48.72216" lon="1.83935">
        <ele>173</ele>
        <time>2010-05-13T13:52:56Z</time>
      </trkpt>
      <trkpt lat="48.72214" lon="1.83933">
        <ele>173</ele>
        <time>2010-05-13T13:52:58Z</time>
      </trkpt>
      <trkpt lat="48.72213" lon="1.83931">
        <ele>173</ele>
        <time>2010-05-13T13:52:59Z</time>
      </trkpt>
      <trkpt lat="48.72212" lon="1.83929">
        <ele>173</ele>
        <time>2010-05-13T13:53:00Z</time>
      </trkpt>
      <trkpt lat="48.72211" lon="1.83927">
        <ele>173</ele>
        <time>2010-05-13T13:53:02Z</time>
      </trkpt>
      <trkpt lat="48.72209" lon="1.83926">
        <ele>173</ele>
        <time>2010-05-13T13:53:03Z</time>
      </trkpt>
      <trkpt lat="48.72207" lon="1.83924">
        <ele>173</ele>
        <time>2010-05-13T13:53:05Z</time>
      </trkpt>
      <trkpt lat="48.72205" lon="1.83921">
        <ele>173</ele>
        <time>2010-05-13T13:53:07Z</time>
      </trkpt>
      <trkpt lat="48.72204" lon="1.83919">
        <ele>173</ele>
        <time>2010-05-13T13:53:09Z</time>
      </trkpt>
      <trkpt lat="48.72203" lon="1.83917">
        <ele>173</ele>
        <time>2010-05-13T13:53:11Z</time>
      </trkpt>
      <trkpt lat="48.72205" lon="1.83916">
        <ele>173</ele>
        <time>2010-05-13T13:53:13Z</time>
      </trkpt>
      <trkpt lat="48.72206" lon="1.83917">
        <ele>173</ele>
        <time>2010-05-13T13:53:18Z</time>
      </trkpt>
      <trkpt lat="48.72205" lon="1.83914">
        <ele>173</ele>
        <time>2010-05-13T13:53:21Z</time>
      </trkpt>
      <trkpt lat="48.72203" lon="1.83913">
        <ele>175</ele>
        <time>2010-05-13T13:53:25Z</time>
      </trkpt>
      <trkpt lat="48.72203" lon="1.8391">
        <ele>175</ele>
        <time>2010-05-13T13:53:29Z</time>
      </trkpt>
      <trkpt lat="48.72202" lon="1.83908">
        <ele>177</ele>
        <time>2010-05-13T13:53:32Z</time>
      </trkpt>
      <trkpt lat="48.72201" lon="1.83906">
        <ele>178</ele>
        <time>2010-05-13T13:53:33Z</time>
      </trkpt>
      <trkpt lat="48.722" lon="1.83903">
        <ele>179</ele>
        <time>2010-05-13T13:53:36Z</time>
      </trkpt>
      <trkpt lat="48.72199" lon="1.83902">
        <ele>181</ele>
        <time>2010-05-13T13:53:40Z</time>
      </trkpt>
      <trkpt lat="48.72198" lon="1.83903">
        <ele>181</ele>
        <time>2010-05-13T13:53:44Z</time>
      </trkpt>
      <trkpt lat="48.72196" lon="1.83901">
        <ele>181</ele>
        <time>2010-05-13T13:53:47Z</time>
      </trkpt>
      <trkpt lat="48.72195" lon="1.83901">
        <ele>181</ele>
        <time>2010-05-13T13:53:49Z</time>
      </trkpt>
      <trkpt lat="48.72193" lon="1.839">
        <ele>181</ele>
        <time>2010-05-13T13:53:51Z</time>
      </trkpt>
      <trkpt lat="48.72191" lon="1.83898">
        <ele>181</ele>
        <time>2010-05-13T13:53:52Z</time>
      </trkpt>
      <trkpt lat="48.7219" lon="1.83896">
        <ele>181</ele>
        <time>2010-05-13T13:53:53Z</time>
      </trkpt>
      <trkpt lat="48.72188" lon="1.83895">
        <ele>181</ele>
        <time>2010-05-13T13:53:54Z</time>
      </trkpt>
      <trkpt lat="48.72187" lon="1.83893">
        <ele>181</ele>
        <time>2010-05-13T13:53:55Z</time>
      </trkpt>
      <trkpt lat="48.72186" lon="1.83892">
        <ele>181</ele>
        <time>2010-05-13T13:53:56Z</time>
      </trkpt>
      <trkpt lat="48.72184" lon="1.83889">
        <ele>181</ele>
        <time>2010-05-13T13:53:57Z</time>
      </trkpt>
      <trkpt lat="48.72183" lon="1.83887">
        <ele>181</ele>
        <time>2010-05-13T13:53:58Z</time>
      </trkpt>
      <trkpt lat="48.72181" lon="1.83884">
        <ele>181</ele>
        <time>2010-05-13T13:54:01Z</time>
      </trkpt>
      <trkpt lat="48.72179" lon="1.83882">
        <ele>181</ele>
        <time>2010-05-13T13:54:02Z</time>
      </trkpt>
      <trkpt lat="48.72178" lon="1.8388">
        <ele>181</ele>
        <time>2010-05-13T13:54:03Z</time>
      </trkpt>
      <trkpt lat="48.72177" lon="1.83876">
        <ele>181</ele>
        <time>2010-05-13T13:54:06Z</time>
      </trkpt>
      <trkpt lat="48.72176" lon="1.83875">
        <ele>181</ele>
        <time>2010-05-13T13:54:07Z</time>
      </trkpt>
      <trkpt lat="48.72174" lon="1.83873">
        <ele>181</ele>
        <time>2010-05-13T13:54:09Z</time>
      </trkpt>
      <trkpt lat="48.72173" lon="1.83871">
        <ele>181</ele>
        <time>2010-05-13T13:54:10Z</time>
      </trkpt>
      <trkpt lat="48.72172" lon="1.83868">
        <ele>181</ele>
        <time>2010-05-13T13:54:12Z</time>
      </trkpt>
      <trkpt lat="48.72171" lon="1.83866">
        <ele>181</ele>
        <time>2010-05-13T13:54:13Z</time>
      </trkpt>
      <trkpt lat="48.72169" lon="1.83866">
        <ele>181</ele>
        <time>2010-05-13T13:54:15Z</time>
      </trkpt>
      <trkpt lat="48.72167" lon="1.83863">
        <ele>181</ele>
        <time>2010-05-13T13:54:17Z</time>
      </trkpt>
      <trkpt lat="48.72165" lon="1.83859">
        <ele>181</ele>
        <time>2010-05-13T13:54:19Z</time>
      </trkpt>
      <trkpt lat="48.72163" lon="1.83857">
        <ele>181</ele>
        <time>2010-05-13T13:54:20Z</time>
      </trkpt>
      <trkpt lat="48.72163" lon="1.83855">
        <ele>181</ele>
        <time>2010-05-13T13:54:21Z</time>
      </trkpt>
      <trkpt lat="48.72161" lon="1.83854">
        <ele>181</ele>
        <time>2010-05-13T13:54:23Z</time>
      </trkpt>
      <trkpt lat="48.7216" lon="1.83852">
        <ele>181</ele>
        <time>2010-05-13T13:54:24Z</time>
      </trkpt>
      <trkpt lat="48.72158" lon="1.8385">
        <ele>181</ele>
        <time>2010-05-13T13:54:26Z</time>
      </trkpt>
      <trkpt lat="48.72156" lon="1.83848">
        <ele>181</ele>
        <time>2010-05-13T13:54:27Z</time>
      </trkpt>
      <trkpt lat="48.72154" lon="1.83847">
        <ele>180</ele>
        <time>2010-05-13T13:54:29Z</time>
      </trkpt>
      <trkpt lat="48.72153" lon="1.83845">
        <ele>179</ele>
        <time>2010-05-13T13:54:31Z</time>
      </trkpt>
      <trkpt lat="48.72152" lon="1.83842">
        <ele>179</ele>
        <time>2010-05-13T13:54:32Z</time>
      </trkpt>
      <trkpt lat="48.72151" lon="1.8384">
        <ele>178</ele>
        <time>2010-05-13T13:54:34Z</time>
      </trkpt>
      <trkpt lat="48.7215" lon="1.83838">
        <ele>178</ele>
        <time>2010-05-13T13:54:35Z</time>
      </trkpt>
      <trkpt lat="48.72148" lon="1.83836">
        <ele>178</ele>
        <time>2010-05-13T13:54:37Z</time>
      </trkpt>
      <trkpt lat="48.72146" lon="1.83834">
        <ele>178</ele>
        <time>2010-05-13T13:54:39Z</time>
      </trkpt>
      <trkpt lat="48.72144" lon="1.83833">
        <ele>177</ele>
        <time>2010-05-13T13:54:41Z</time>
      </trkpt>
      <trkpt lat="48.72142" lon="1.83831">
        <ele>176</ele>
        <time>2010-05-13T13:54:43Z</time>
      </trkpt>
      <trkpt lat="48.7214" lon="1.83829">
        <ele>175</ele>
        <time>2010-05-13T13:54:45Z</time>
      </trkpt>
      <trkpt lat="48.72139" lon="1.83827">
        <ele>174</ele>
        <time>2010-05-13T13:54:47Z</time>
      </trkpt>
      <trkpt lat="48.72138" lon="1.83827">
        <ele>174</ele>
        <time>2010-05-13T13:54:48Z</time>
      </trkpt>
      <trkpt lat="48.72136" lon="1.83825">
        <ele>174</ele>
        <time>2010-05-13T13:54:50Z</time>
      </trkpt>
      <trkpt lat="48.72134" lon="1.83823">
        <ele>173</ele>
        <time>2010-05-13T13:54:52Z</time>
      </trkpt>
      <trkpt lat="48.72132" lon="1.83822">
        <ele>172</ele>
        <time>2010-05-13T13:54:55Z</time>
      </trkpt>
      <trkpt lat="48.72131" lon="1.83821">
        <ele>171</ele>
        <time>2010-05-13T13:54:56Z</time>
      </trkpt>
      <trkpt lat="48.72129" lon="1.83819">
        <ele>170</ele>
        <time>2010-05-13T13:54:58Z</time>
      </trkpt>
      <trkpt lat="48.72128" lon="1.83818">
        <ele>170</ele>
        <time>2010-05-13T13:54:59Z</time>
      </trkpt>
      <trkpt lat="48.72126" lon="1.83817">
        <ele>170</ele>
        <time>2010-05-13T13:55:00Z</time>
      </trkpt>
      <trkpt lat="48.72125" lon="1.83815">
        <ele>169</ele>
        <time>2010-05-13T13:55:02Z</time>
      </trkpt>
      <trkpt lat="48.72123" lon="1.83815">
        <ele>169</ele>
        <time>2010-05-13T13:55:03Z</time>
      </trkpt>
      <trkpt lat="48.72121" lon="1.83813">
        <ele>168</ele>
        <time>2010-05-13T13:55:04Z</time>
      </trkpt>
      <trkpt lat="48.72119" lon="1.83811">
        <ele>168</ele>
        <time>2010-05-13T13:55:05Z</time>
      </trkpt>
      <trkpt lat="48.72116" lon="1.83808">
        <ele>168</ele>
        <time>2010-05-13T13:55:06Z</time>
      </trkpt>
      <trkpt lat="48.72113" lon="1.83805">
        <ele>168</ele>
        <time>2010-05-13T13:55:07Z</time>
      </trkpt>
      <trkpt lat="48.7211" lon="1.83803">
        <ele>168</ele>
        <time>2010-05-13T13:55:08Z</time>
      </trkpt>
      <trkpt lat="48.72108" lon="1.838">
        <ele>168</ele>
        <time>2010-05-13T13:55:09Z</time>
      </trkpt>
      <trkpt lat="48.72105" lon="1.83795">
        <ele>168</ele>
        <time>2010-05-13T13:55:10Z</time>
      </trkpt>
      <trkpt lat="48.72105" lon="1.83792">
        <ele>168</ele>
        <time>2010-05-13T13:55:11Z</time>
      </trkpt>
      <trkpt lat="48.72105" lon="1.83789">
        <ele>168</ele>
        <time>2010-05-13T13:55:12Z</time>
      </trkpt>
      <trkpt lat="48.72106" lon="1.83785">
        <ele>168</ele>
        <time>2010-05-13T13:55:13Z</time>
      </trkpt>
      <trkpt lat="48.72107" lon="1.83781">
        <ele>168</ele>
        <time>2010-05-13T13:55:14Z</time>
      </trkpt>
      <trkpt lat="48.72107" lon="1.83778">
        <ele>168</ele>
        <time>2010-05-13T13:55:15Z</time>
      </trkpt>
      <trkpt lat="48.72108" lon="1.83774">
        <ele>168</ele>
        <time>2010-05-13T13:55:16Z</time>
      </trkpt>
      <trkpt lat="48.72109" lon="1.8377">
        <ele>168</ele>
        <time>2010-05-13T13:55:17Z</time>
      </trkpt>
      <trkpt lat="48.72109" lon="1.83767">
        <ele>168</ele>
        <time>2010-05-13T13:55:18Z</time>
      </trkpt>
      <trkpt lat="48.72109" lon="1.83764">
        <ele>168</ele>
        <time>2010-05-13T13:55:19Z</time>
      </trkpt>
      <trkpt lat="48.7211" lon="1.83763">
        <ele>168</ele>
        <time>2010-05-13T13:55:20Z</time>
      </trkpt>
      <trkpt lat="48.72111" lon="1.83761">
        <ele>168</ele>
        <time>2010-05-13T13:55:21Z</time>
      </trkpt>
      <trkpt lat="48.72112" lon="1.83758">
        <ele>168</ele>
        <time>2010-05-13T13:55:22Z</time>
      </trkpt>
      <trkpt lat="48.72112" lon="1.83756">
        <ele>168</ele>
        <time>2010-05-13T13:55:23Z</time>
      </trkpt>
      <trkpt lat="48.72113" lon="1.83754">
        <ele>168</ele>
        <time>2010-05-13T13:55:24Z</time>
      </trkpt>
      <trkpt lat="48.72113" lon="1.83751">
        <ele>168</ele>
        <time>2010-05-13T13:55:25Z</time>
      </trkpt>
      <trkpt lat="48.72114" lon="1.83749">
        <ele>168</ele>
        <time>2010-05-13T13:55:26Z</time>
      </trkpt>
      <trkpt lat="48.72114" lon="1.83747">
        <ele>168</ele>
        <time>2010-05-13T13:55:27Z</time>
      </trkpt>
      <trkpt lat="48.72116" lon="1.83744">
        <ele>168</ele>
        <time>2010-05-13T13:55:29Z</time>
      </trkpt>
      <trkpt lat="48.72117" lon="1.83741">
        <ele>168</ele>
        <time>2010-05-13T13:55:31Z</time>
      </trkpt>
      <trkpt lat="48.72118" lon="1.83739">
        <ele>168</ele>
        <time>2010-05-13T13:55:32Z</time>
      </trkpt>
      <trkpt lat="48.72118" lon="1.83737">
        <ele>168</ele>
        <time>2010-05-13T13:55:33Z</time>
      </trkpt>
      <trkpt lat="48.72118" lon="1.83735">
        <ele>168</ele>
        <time>2010-05-13T13:55:34Z</time>
      </trkpt>
      <trkpt lat="48.72119" lon="1.83733">
        <ele>168</ele>
        <time>2010-05-13T13:55:35Z</time>
      </trkpt>
      <trkpt lat="48.7212" lon="1.8373">
        <ele>168</ele>
        <time>2010-05-13T13:55:37Z</time>
      </trkpt>
      <trkpt lat="48.72121" lon="1.83729">
        <ele>168</ele>
        <time>2010-05-13T13:55:38Z</time>
      </trkpt>
      <trkpt lat="48.72122" lon="1.83726">
        <ele>168</ele>
        <time>2010-05-13T13:55:39Z</time>
      </trkpt>
      <trkpt lat="48.72123" lon="1.83724">
        <ele>168</ele>
        <time>2010-05-13T13:55:40Z</time>
      </trkpt>
      <trkpt lat="48.72124" lon="1.8372">
        <ele>168</ele>
        <time>2010-05-13T13:55:41Z</time>
      </trkpt>
      <trkpt lat="48.72125" lon="1.83716">
        <ele>168</ele>
        <time>2010-05-13T13:55:42Z</time>
      </trkpt>
      <trkpt lat="48.72127" lon="1.83712">
        <ele>168</ele>
        <time>2010-05-13T13:55:43Z</time>
      </trkpt>
      <trkpt lat="48.72128" lon="1.83708">
        <ele>168</ele>
        <time>2010-05-13T13:55:44Z</time>
      </trkpt>
      <trkpt lat="48.72129" lon="1.83705">
        <ele>168</ele>
        <time>2010-05-13T13:55:45Z</time>
      </trkpt>
      <trkpt lat="48.7213" lon="1.83702">
        <ele>168</ele>
        <time>2010-05-13T13:55:46Z</time>
      </trkpt>
      <trkpt lat="48.72131" lon="1.83699">
        <ele>168</ele>
        <time>2010-05-13T13:55:47Z</time>
      </trkpt>
      <trkpt lat="48.72132" lon="1.83697">
        <ele>168</ele>
        <time>2010-05-13T13:55:48Z</time>
      </trkpt>
      <trkpt lat="48.72133" lon="1.83695">
        <ele>168</ele>
        <time>2010-05-13T13:55:49Z</time>
      </trkpt>
      <trkpt lat="48.72134" lon="1.83692">
        <ele>168</ele>
        <time>2010-05-13T13:55:50Z</time>
      </trkpt>
      <trkpt lat="48.72135" lon="1.83688">
        <ele>168</ele>
        <time>2010-05-13T13:55:51Z</time>
      </trkpt>
      <trkpt lat="48.72136" lon="1.83683">
        <ele>168</ele>
        <time>2010-05-13T13:55:52Z</time>
      </trkpt>
      <trkpt lat="48.72137" lon="1.83679">
        <ele>168</ele>
        <time>2010-05-13T13:55:53Z</time>
      </trkpt>
      <trkpt lat="48.72138" lon="1.83675">
        <ele>168</ele>
        <time>2010-05-13T13:55:54Z</time>
      </trkpt>
      <trkpt lat="48.72139" lon="1.83671">
        <ele>168</ele>
        <time>2010-05-13T13:55:55Z</time>
      </trkpt>
      <trkpt lat="48.72141" lon="1.83667">
        <ele>168</ele>
        <time>2010-05-13T13:55:56Z</time>
      </trkpt>
      <trkpt lat="48.72142" lon="1.83663">
        <ele>168</ele>
        <time>2010-05-13T13:55:57Z</time>
      </trkpt>
      <trkpt lat="48.72144" lon="1.8366">
        <ele>168</ele>
        <time>2010-05-13T13:55:58Z</time>
      </trkpt>
      <trkpt lat="48.72145" lon="1.83657">
        <ele>168</ele>
        <time>2010-05-13T13:55:59Z</time>
      </trkpt>
      <trkpt lat="48.72146" lon="1.83654">
        <ele>168</ele>
        <time>2010-05-13T13:56:00Z</time>
      </trkpt>
      <trkpt lat="48.72147" lon="1.83651">
        <ele>168</ele>
        <time>2010-05-13T13:56:01Z</time>
      </trkpt>
      <trkpt lat="48.72149" lon="1.83648">
        <ele>168</ele>
        <time>2010-05-13T13:56:02Z</time>
      </trkpt>
      <trkpt lat="48.7215" lon="1.83646">
        <ele>168</ele>
        <time>2010-05-13T13:56:03Z</time>
      </trkpt>
      <trkpt lat="48.72151" lon="1.83644">
        <ele>168</ele>
        <time>2010-05-13T13:56:04Z</time>
      </trkpt>
      <trkpt lat="48.72152" lon="1.83642">
        <ele>168</ele>
        <time>2010-05-13T13:56:05Z</time>
      </trkpt>
      <trkpt lat="48.72153" lon="1.8364">
        <ele>168</ele>
        <time>2010-05-13T13:56:06Z</time>
      </trkpt>
      <trkpt lat="48.72154" lon="1.83638">
        <ele>168</ele>
        <time>2010-05-13T13:56:07Z</time>
      </trkpt>
      <trkpt lat="48.72154" lon="1.83635">
        <ele>168</ele>
        <time>2010-05-13T13:56:08Z</time>
      </trkpt>
      <trkpt lat="48.72155" lon="1.83634">
        <ele>168</ele>
        <time>2010-05-13T13:56:09Z</time>
      </trkpt>
      <trkpt lat="48.72156" lon="1.83631">
        <ele>168</ele>
        <time>2010-05-13T13:56:10Z</time>
      </trkpt>
      <trkpt lat="48.72157" lon="1.83629">
        <ele>168</ele>
        <time>2010-05-13T13:56:11Z</time>
      </trkpt>
      <trkpt lat="48.72158" lon="1.83627">
        <ele>168</ele>
        <time>2010-05-13T13:56:12Z</time>
      </trkpt>
      <trkpt lat="48.72158" lon="1.83625">
        <ele>168</ele>
        <time>2010-05-13T13:56:13Z</time>
      </trkpt>
      <trkpt lat="48.72159" lon="1.83623">
        <ele>169</ele>
        <time>2010-05-13T13:56:14Z</time>
      </trkpt>
      <trkpt lat="48.7216" lon="1.83621">
        <ele>170</ele>
        <time>2010-05-13T13:56:15Z</time>
      </trkpt>
      <trkpt lat="48.72161" lon="1.83619">
        <ele>171</ele>
        <time>2010-05-13T13:56:16Z</time>
      </trkpt>
      <trkpt lat="48.72161" lon="1.83616">
        <ele>172</ele>
        <time>2010-05-13T13:56:18Z</time>
      </trkpt>
      <trkpt lat="48.72162" lon="1.83615">
        <ele>172</ele>
        <time>2010-05-13T13:56:19Z</time>
      </trkpt>
      <trkpt lat="48.72163" lon="1.83613">
        <ele>172</ele>
        <time>2010-05-13T13:56:20Z</time>
      </trkpt>
      <trkpt lat="48.72164" lon="1.83611">
        <ele>172</ele>
        <time>2010-05-13T13:56:21Z</time>
      </trkpt>
      <trkpt lat="48.72166" lon="1.83608">
        <ele>172</ele>
        <time>2010-05-13T13:56:23Z</time>
      </trkpt>
      <trkpt lat="48.72166" lon="1.83606">
        <ele>172</ele>
        <time>2010-05-13T13:56:24Z</time>
      </trkpt>
      <trkpt lat="48.72166" lon="1.83604">
        <ele>172</ele>
        <time>2010-05-13T13:56:25Z</time>
      </trkpt>
      <trkpt lat="48.72167" lon="1.83602">
        <ele>172</ele>
        <time>2010-05-13T13:56:26Z</time>
      </trkpt>
      <trkpt lat="48.72167" lon="1.83601">
        <ele>172</ele>
        <time>2010-05-13T13:56:27Z</time>
      </trkpt>
      <trkpt lat="48.72168" lon="1.83599">
        <ele>172</ele>
        <time>2010-05-13T13:56:28Z</time>
      </trkpt>
      <trkpt lat="48.72169" lon="1.83595">
        <ele>172</ele>
        <time>2010-05-13T13:56:30Z</time>
      </trkpt>
      <trkpt lat="48.7217" lon="1.83593">
        <ele>172</ele>
        <time>2010-05-13T13:56:31Z</time>
      </trkpt>
      <trkpt lat="48.72172" lon="1.8359">
        <ele>172</ele>
        <time>2010-05-13T13:56:33Z</time>
      </trkpt>
      <trkpt lat="48.72173" lon="1.83588">
        <ele>172</ele>
        <time>2010-05-13T13:56:34Z</time>
      </trkpt>
      <trkpt lat="48.72173" lon="1.83586">
        <ele>172</ele>
        <time>2010-05-13T13:56:35Z</time>
      </trkpt>
      <trkpt lat="48.72174" lon="1.83584">
        <ele>172</ele>
        <time>2010-05-13T13:56:36Z</time>
      </trkpt>
      <trkpt lat="48.72175" lon="1.83582">
        <ele>172</ele>
        <time>2010-05-13T13:56:37Z</time>
      </trkpt>
      <trkpt lat="48.72176" lon="1.8358">
        <ele>171</ele>
        <time>2010-05-13T13:56:38Z</time>
      </trkpt>
      <trkpt lat="48.72176" lon="1.83578">
        <ele>171</ele>
        <time>2010-05-13T13:56:39Z</time>
      </trkpt>
      <trkpt lat="48.72177" lon="1.83576">
        <ele>170</ele>
        <time>2010-05-13T13:56:40Z</time>
      </trkpt>
      <trkpt lat="48.72179" lon="1.83573">
        <ele>170</ele>
        <time>2010-05-13T13:56:42Z</time>
      </trkpt>
      <trkpt lat="48.7218" lon="1.83571">
        <ele>170</ele>
        <time>2010-05-13T13:56:43Z</time>
      </trkpt>
      <trkpt lat="48.72182" lon="1.83569">
        <ele>170</ele>
        <time>2010-05-13T13:56:45Z</time>
      </trkpt>
      <trkpt lat="48.72182" lon="1.83566">
        <ele>170</ele>
        <time>2010-05-13T13:56:47Z</time>
      </trkpt>
      <trkpt lat="48.72183" lon="1.83564">
        <ele>170</ele>
        <time>2010-05-13T13:56:48Z</time>
      </trkpt>
      <trkpt lat="48.72184" lon="1.83561">
        <ele>170</ele>
        <time>2010-05-13T13:56:49Z</time>
      </trkpt>
      <trkpt lat="48.72185" lon="1.83559">
        <ele>170</ele>
        <time>2010-05-13T13:56:50Z</time>
      </trkpt>
      <trkpt lat="48.72186" lon="1.83556">
        <ele>170</ele>
        <time>2010-05-13T13:56:51Z</time>
      </trkpt>
      <trkpt lat="48.72187" lon="1.83553">
        <ele>170</ele>
        <time>2010-05-13T13:56:52Z</time>
      </trkpt>
      <trkpt lat="48.72187" lon="1.8355">
        <ele>169</ele>
        <time>2010-05-13T13:56:53Z</time>
      </trkpt>
      <trkpt lat="48.72188" lon="1.83546">
        <ele>169</ele>
        <time>2010-05-13T13:56:54Z</time>
      </trkpt>
      <trkpt lat="48.72189" lon="1.83543">
        <ele>168</ele>
        <time>2010-05-13T13:56:55Z</time>
      </trkpt>
      <trkpt lat="48.72191" lon="1.83539">
        <ele>168</ele>
        <time>2010-05-13T13:56:56Z</time>
      </trkpt>
      <trkpt lat="48.72192" lon="1.83536">
        <ele>168</ele>
        <time>2010-05-13T13:56:57Z</time>
      </trkpt>
      <trkpt lat="48.72193" lon="1.83532">
        <ele>167</ele>
        <time>2010-05-13T13:56:58Z</time>
      </trkpt>
      <trkpt lat="48.72195" lon="1.83529">
        <ele>167</ele>
        <time>2010-05-13T13:56:59Z</time>
      </trkpt>
      <trkpt lat="48.72196" lon="1.83526">
        <ele>167</ele>
        <time>2010-05-13T13:57:00Z</time>
      </trkpt>
      <trkpt lat="48.72197" lon="1.83524">
        <ele>166</ele>
        <time>2010-05-13T13:57:01Z</time>
      </trkpt>
      <trkpt lat="48.72198" lon="1.83522">
        <ele>166</ele>
        <time>2010-05-13T13:57:02Z</time>
      </trkpt>
      <trkpt lat="48.72198" lon="1.8352">
        <ele>165</ele>
        <time>2010-05-13T13:57:03Z</time>
      </trkpt>
      <trkpt lat="48.722" lon="1.83517">
        <ele>164</ele>
        <time>2010-05-13T13:57:05Z</time>
      </trkpt>
      <trkpt lat="48.72202" lon="1.83514">
        <ele>163</ele>
        <time>2010-05-13T13:57:07Z</time>
      </trkpt>
      <trkpt lat="48.72204" lon="1.83511">
        <ele>161</ele>
        <time>2010-05-13T13:57:09Z</time>
      </trkpt>
      <trkpt lat="48.72205" lon="1.83509">
        <ele>161</ele>
        <time>2010-05-13T13:57:10Z</time>
      </trkpt>
      <trkpt lat="48.72206" lon="1.83507">
        <ele>161</ele>
        <time>2010-05-13T13:57:11Z</time>
      </trkpt>
      <trkpt lat="48.72207" lon="1.83505">
        <ele>160</ele>
        <time>2010-05-13T13:57:12Z</time>
      </trkpt>
      <trkpt lat="48.72208" lon="1.83502">
        <ele>160</ele>
        <time>2010-05-13T13:57:13Z</time>
      </trkpt>
      <trkpt lat="48.72209" lon="1.83498">
        <ele>160</ele>
        <time>2010-05-13T13:57:14Z</time>
      </trkpt>
      <trkpt lat="48.7221" lon="1.83495">
        <ele>160</ele>
        <time>2010-05-13T13:57:15Z</time>
      </trkpt>
      <trkpt lat="48.72211" lon="1.83492">
        <ele>160</ele>
        <time>2010-05-13T13:57:16Z</time>
      </trkpt>
      <trkpt lat="48.72211" lon="1.83489">
        <ele>160</ele>
        <time>2010-05-13T13:57:17Z</time>
      </trkpt>
      <trkpt lat="48.72212" lon="1.83486">
        <ele>160</ele>
        <time>2010-05-13T13:57:18Z</time>
      </trkpt>
      <trkpt lat="48.72213" lon="1.83483">
        <ele>160</ele>
        <time>2010-05-13T13:57:19Z</time>
      </trkpt>
      <trkpt lat="48.72214" lon="1.83481">
        <ele>160</ele>
        <time>2010-05-13T13:57:20Z</time>
      </trkpt>
      <trkpt lat="48.72215" lon="1.83479">
        <ele>160</ele>
        <time>2010-05-13T13:57:21Z</time>
      </trkpt>
      <trkpt lat="48.72216" lon="1.83476">
        <ele>160</ele>
        <time>2010-05-13T13:57:22Z</time>
      </trkpt>
      <trkpt lat="48.72216" lon="1.83474">
        <ele>160</ele>
        <time>2010-05-13T13:57:23Z</time>
      </trkpt>
      <trkpt lat="48.72217" lon="1.83471">
        <ele>160</ele>
        <time>2010-05-13T13:57:24Z</time>
      </trkpt>
      <trkpt lat="48.72218" lon="1.83469">
        <ele>160</ele>
        <time>2010-05-13T13:57:25Z</time>
      </trkpt>
      <trkpt lat="48.72219" lon="1.83466">
        <ele>160</ele>
        <time>2010-05-13T13:57:26Z</time>
      </trkpt>
      <trkpt lat="48.7222" lon="1.83464">
        <ele>161</ele>
        <time>2010-05-13T13:57:27Z</time>
      </trkpt>
      <trkpt lat="48.72221" lon="1.83462">
        <ele>161</ele>
        <time>2010-05-13T13:57:28Z</time>
      </trkpt>
      <trkpt lat="48.72222" lon="1.8346">
        <ele>161</ele>
        <time>2010-05-13T13:57:29Z</time>
      </trkpt>
      <trkpt lat="48.72223" lon="1.83457">
        <ele>161</ele>
        <time>2010-05-13T13:57:30Z</time>
      </trkpt>
      <trkpt lat="48.72224" lon="1.83455">
        <ele>162</ele>
        <time>2010-05-13T13:57:31Z</time>
      </trkpt>
      <trkpt lat="48.72225" lon="1.83453">
        <ele>162</ele>
        <time>2010-05-13T13:57:32Z</time>
      </trkpt>
      <trkpt lat="48.72225" lon="1.83451">
        <ele>162</ele>
        <time>2010-05-13T13:57:33Z</time>
      </trkpt>
      <trkpt lat="48.72226" lon="1.83449">
        <ele>162</ele>
        <time>2010-05-13T13:57:34Z</time>
      </trkpt>
      <trkpt lat="48.72227" lon="1.83446">
        <ele>162</ele>
        <time>2010-05-13T13:57:35Z</time>
      </trkpt>
      <trkpt lat="48.72228" lon="1.83444">
        <ele>163</ele>
        <time>2010-05-13T13:57:36Z</time>
      </trkpt>
      <trkpt lat="48.72229" lon="1.83441">
        <ele>163</ele>
        <time>2010-05-13T13:57:37Z</time>
      </trkpt>
      <trkpt lat="48.72231" lon="1.83437">
        <ele>163</ele>
        <time>2010-05-13T13:57:38Z</time>
      </trkpt>
      <trkpt lat="48.72233" lon="1.83434">
        <ele>163</ele>
        <time>2010-05-13T13:57:39Z</time>
      </trkpt>
      <trkpt lat="48.72234" lon="1.8343">
        <ele>163</ele>
        <time>2010-05-13T13:57:40Z</time>
      </trkpt>
      <trkpt lat="48.72236" lon="1.83426">
        <ele>164</ele>
        <time>2010-05-13T13:57:41Z</time>
      </trkpt>
      <trkpt lat="48.72238" lon="1.83422">
        <ele>164</ele>
        <time>2010-05-13T13:57:42Z</time>
      </trkpt>
      <trkpt lat="48.7224" lon="1.83419">
        <ele>165</ele>
        <time>2010-05-13T13:57:43Z</time>
      </trkpt>
      <trkpt lat="48.72241" lon="1.83416">
        <ele>165</ele>
        <time>2010-05-13T13:57:44Z</time>
      </trkpt>
      <trkpt lat="48.72242" lon="1.83413">
        <ele>165</ele>
        <time>2010-05-13T13:57:45Z</time>
      </trkpt>
      <trkpt lat="48.72243" lon="1.8341">
        <ele>166</ele>
        <time>2010-05-13T13:57:46Z</time>
      </trkpt>
      <trkpt lat="48.72244" lon="1.83408">
        <ele>166</ele>
        <time>2010-05-13T13:57:47Z</time>
      </trkpt>
      <trkpt lat="48.72245" lon="1.83407">
        <ele>166</ele>
        <time>2010-05-13T13:57:48Z</time>
      </trkpt>
      <trkpt lat="48.72246" lon="1.83404">
        <ele>166</ele>
        <time>2010-05-13T13:57:49Z</time>
      </trkpt>
      <trkpt lat="48.72247" lon="1.83402">
        <ele>166</ele>
        <time>2010-05-13T13:57:50Z</time>
      </trkpt>
      <trkpt lat="48.72248" lon="1.834">
        <ele>166</ele>
        <time>2010-05-13T13:57:51Z</time>
      </trkpt>
      <trkpt lat="48.72249" lon="1.83398">
        <ele>166</ele>
        <time>2010-05-13T13:57:52Z</time>
      </trkpt>
      <trkpt lat="48.7225" lon="1.83396">
        <ele>166</ele>
        <time>2010-05-13T13:57:53Z</time>
      </trkpt>
      <trkpt lat="48.72251" lon="1.83394">
        <ele>167</ele>
        <time>2010-05-13T13:57:54Z</time>
      </trkpt>
      <trkpt lat="48.72252" lon="1.83392">
        <ele>167</ele>
        <time>2010-05-13T13:57:55Z</time>
      </trkpt>
      <trkpt lat="48.72253" lon="1.8339">
        <ele>167</ele>
        <time>2010-05-13T13:57:56Z</time>
      </trkpt>
      <trkpt lat="48.72254" lon="1.83388">
        <ele>167</ele>
        <time>2010-05-13T13:57:57Z</time>
      </trkpt>
      <trkpt lat="48.72255" lon="1.83387">
        <ele>167</ele>
        <time>2010-05-13T13:57:58Z</time>
      </trkpt>
      <trkpt lat="48.72256" lon="1.83385">
        <ele>167</ele>
        <time>2010-05-13T13:57:59Z</time>
      </trkpt>
      <trkpt lat="48.72257" lon="1.83383">
        <ele>167</ele>
        <time>2010-05-13T13:58:00Z</time>
      </trkpt>
      <trkpt lat="48.72258" lon="1.83381">
        <ele>167</ele>
        <time>2010-05-13T13:58:01Z</time>
      </trkpt>
      <trkpt lat="48.72258" lon="1.83379">
        <ele>167</ele>
        <time>2010-05-13T13:58:02Z</time>
      </trkpt>
      <trkpt lat="48.7226" lon="1.83376">
        <ele>167</ele>
        <time>2010-05-13T13:58:04Z</time>
      </trkpt>
      <trkpt lat="48.72261" lon="1.83375">
        <ele>167</ele>
        <time>2010-05-13T13:58:05Z</time>
      </trkpt>
      <trkpt lat="48.72262" lon="1.83373">
        <ele>167</ele>
        <time>2010-05-13T13:58:06Z</time>
      </trkpt>
      <trkpt lat="48.72263" lon="1.83371">
        <ele>167</ele>
        <time>2010-05-13T13:58:07Z</time>
      </trkpt>
      <trkpt lat="48.72263" lon="1.83369">
        <ele>167</ele>
        <time>2010-05-13T13:58:08Z</time>
      </trkpt>
      <trkpt lat="48.72264" lon="1.83367">
        <ele>167</ele>
        <time>2010-05-13T13:58:09Z</time>
      </trkpt>
      <trkpt lat="48.72265" lon="1.83366">
        <ele>167</ele>
        <time>2010-05-13T13:58:10Z</time>
      </trkpt>
      <trkpt lat="48.72266" lon="1.83364">
        <ele>167</ele>
        <time>2010-05-13T13:58:11Z</time>
      </trkpt>
      <trkpt lat="48.72267" lon="1.83362">
        <ele>167</ele>
        <time>2010-05-13T13:58:12Z</time>
      </trkpt>
      <trkpt lat="48.72267" lon="1.8336">
        <ele>167</ele>
        <time>2010-05-13T13:58:13Z</time>
      </trkpt>
      <trkpt lat="48.72268" lon="1.83358">
        <ele>167</ele>
        <time>2010-05-13T13:58:14Z</time>
      </trkpt>
      <trkpt lat="48.72268" lon="1.83356">
        <ele>167</ele>
        <time>2010-05-13T13:58:15Z</time>
      </trkpt>
      <trkpt lat="48.72269" lon="1.83354">
        <ele>167</ele>
        <time>2010-05-13T13:58:16Z</time>
      </trkpt>
      <trkpt lat="48.7227" lon="1.83353">
        <ele>167</ele>
        <time>2010-05-13T13:58:17Z</time>
      </trkpt>
      <trkpt lat="48.7227" lon="1.83351">
        <ele>167</ele>
        <time>2010-05-13T13:58:18Z</time>
      </trkpt>
      <trkpt lat="48.72271" lon="1.83349">
        <ele>168</ele>
        <time>2010-05-13T13:58:19Z</time>
      </trkpt>
      <trkpt lat="48.72272" lon="1.83347">
        <ele>168</ele>
        <time>2010-05-13T13:58:20Z</time>
      </trkpt>
      <trkpt lat="48.72273" lon="1.83345">
        <ele>168</ele>
        <time>2010-05-13T13:58:21Z</time>
      </trkpt>
      <trkpt lat="48.72274" lon="1.83343">
        <ele>168</ele>
        <time>2010-05-13T13:58:22Z</time>
      </trkpt>
      <trkpt lat="48.72274" lon="1.83342">
        <ele>168</ele>
        <time>2010-05-13T13:58:23Z</time>
      </trkpt>
      <trkpt lat="48.72275" lon="1.8334">
        <ele>168</ele>
        <time>2010-05-13T13:58:24Z</time>
      </trkpt>
      <trkpt lat="48.72276" lon="1.83338">
        <ele>168</ele>
        <time>2010-05-13T13:58:25Z</time>
      </trkpt>
      <trkpt lat="48.72277" lon="1.83336">
        <ele>168</ele>
        <time>2010-05-13T13:58:26Z</time>
      </trkpt>
      <trkpt lat="48.72277" lon="1.83334">
        <ele>168</ele>
        <time>2010-05-13T13:58:27Z</time>
      </trkpt>
      <trkpt lat="48.72278" lon="1.83332">
        <ele>168</ele>
        <time>2010-05-13T13:58:28Z</time>
      </trkpt>
      <trkpt lat="48.72279" lon="1.83331">
        <ele>169</ele>
        <time>2010-05-13T13:58:29Z</time>
      </trkpt>
      <trkpt lat="48.72279" lon="1.83329">
        <ele>169</ele>
        <time>2010-05-13T13:58:30Z</time>
      </trkpt>
      <trkpt lat="48.7228" lon="1.83327">
        <ele>169</ele>
        <time>2010-05-13T13:58:31Z</time>
      </trkpt>
      <trkpt lat="48.72281" lon="1.83325">
        <ele>169</ele>
        <time>2010-05-13T13:58:32Z</time>
      </trkpt>
      <trkpt lat="48.72281" lon="1.83324">
        <ele>169</ele>
        <time>2010-05-13T13:58:33Z</time>
      </trkpt>
      <trkpt lat="48.72282" lon="1.83322">
        <ele>169</ele>
        <time>2010-05-13T13:58:34Z</time>
      </trkpt>
      <trkpt lat="48.72282" lon="1.8332">
        <ele>169</ele>
        <time>2010-05-13T13:58:35Z</time>
      </trkpt>
      <trkpt lat="48.72283" lon="1.83318">
        <ele>169</ele>
        <time>2010-05-13T13:58:36Z</time>
      </trkpt>
      <trkpt lat="48.72284" lon="1.83316">
        <ele>169</ele>
        <time>2010-05-13T13:58:37Z</time>
      </trkpt>
      <trkpt lat="48.72284" lon="1.83315">
        <ele>169</ele>
        <time>2010-05-13T13:58:38Z</time>
      </trkpt>
      <trkpt lat="48.72285" lon="1.83313">
        <ele>169</ele>
        <time>2010-05-13T13:58:39Z</time>
      </trkpt>
      <trkpt lat="48.72286" lon="1.8331">
        <ele>169</ele>
        <time>2010-05-13T13:58:41Z</time>
      </trkpt>
      <trkpt lat="48.72287" lon="1.83308">
        <ele>169</ele>
        <time>2010-05-13T13:58:42Z</time>
      </trkpt>
      <trkpt lat="48.72288" lon="1.83305">
        <ele>169</ele>
        <time>2010-05-13T13:58:44Z</time>
      </trkpt>
      <trkpt lat="48.7229" lon="1.83303">
        <ele>169</ele>
        <time>2010-05-13T13:58:46Z</time>
      </trkpt>
      <trkpt lat="48.72291" lon="1.83301">
        <ele>169</ele>
        <time>2010-05-13T13:58:48Z</time>
      </trkpt>
      <trkpt lat="48.72293" lon="1.83298">
        <ele>169</ele>
        <time>2010-05-13T13:58:50Z</time>
      </trkpt>
      <trkpt lat="48.72294" lon="1.83296">
        <ele>169</ele>
        <time>2010-05-13T13:58:52Z</time>
      </trkpt>
      <trkpt lat="48.72295" lon="1.83293">
        <ele>169</ele>
        <time>2010-05-13T13:58:54Z</time>
      </trkpt>
      <trkpt lat="48.72295" lon="1.8329">
        <ele>169</ele>
        <time>2010-05-13T13:58:56Z</time>
      </trkpt>
      <trkpt lat="48.72296" lon="1.83288">
        <ele>169</ele>
        <time>2010-05-13T13:58:57Z</time>
      </trkpt>
      <trkpt lat="48.72296" lon="1.83286">
        <ele>169</ele>
        <time>2010-05-13T13:58:58Z</time>
      </trkpt>
      <trkpt lat="48.72297" lon="1.83285">
        <ele>169</ele>
        <time>2010-05-13T13:58:59Z</time>
      </trkpt>
      <trkpt lat="48.72298" lon="1.83282">
        <ele>169</ele>
        <time>2010-05-13T13:59:01Z</time>
      </trkpt>
      <trkpt lat="48.72299" lon="1.83279">
        <ele>169</ele>
        <time>2010-05-13T13:59:03Z</time>
      </trkpt>
      <trkpt lat="48.72301" lon="1.83276">
        <ele>169</ele>
        <time>2010-05-13T13:59:05Z</time>
      </trkpt>
      <trkpt lat="48.72302" lon="1.83274">
        <ele>169</ele>
        <time>2010-05-13T13:59:06Z</time>
      </trkpt>
      <trkpt lat="48.72302" lon="1.83272">
        <ele>169</ele>
        <time>2010-05-13T13:59:07Z</time>
      </trkpt>
      <trkpt lat="48.72303" lon="1.8327">
        <ele>169</ele>
        <time>2010-05-13T13:59:08Z</time>
      </trkpt>
      <trkpt lat="48.72303" lon="1.83269">
        <ele>169</ele>
        <time>2010-05-13T13:59:09Z</time>
      </trkpt>
      <trkpt lat="48.72304" lon="1.83267">
        <ele>169</ele>
        <time>2010-05-13T13:59:10Z</time>
      </trkpt>
      <trkpt lat="48.72306" lon="1.83264">
        <ele>169</ele>
        <time>2010-05-13T13:59:12Z</time>
      </trkpt>
      <trkpt lat="48.72306" lon="1.83262">
        <ele>169</ele>
        <time>2010-05-13T13:59:13Z</time>
      </trkpt>
      <trkpt lat="48.72308" lon="1.83259">
        <ele>169</ele>
        <time>2010-05-13T13:59:15Z</time>
      </trkpt>
      <trkpt lat="48.72308" lon="1.83257">
        <ele>169</ele>
        <time>2010-05-13T13:59:16Z</time>
      </trkpt>
      <trkpt lat="48.72309" lon="1.83255">
        <ele>169</ele>
        <time>2010-05-13T13:59:17Z</time>
      </trkpt>
      <trkpt lat="48.7231" lon="1.83252">
        <ele>169</ele>
        <time>2010-05-13T13:59:18Z</time>
      </trkpt>
      <trkpt lat="48.7231" lon="1.8325">
        <ele>169</ele>
        <time>2010-05-13T13:59:19Z</time>
      </trkpt>
      <trkpt lat="48.72311" lon="1.83248">
        <ele>169</ele>
        <time>2010-05-13T13:59:20Z</time>
      </trkpt>
      <trkpt lat="48.72312" lon="1.83246">
        <ele>169</ele>
        <time>2010-05-13T13:59:21Z</time>
      </trkpt>
      <trkpt lat="48.72312" lon="1.83244">
        <ele>170</ele>
        <time>2010-05-13T13:59:22Z</time>
      </trkpt>
      <trkpt lat="48.72313" lon="1.83242">
        <ele>170</ele>
        <time>2010-05-13T13:59:23Z</time>
      </trkpt>
      <trkpt lat="48.72314" lon="1.83241">
        <ele>170</ele>
        <time>2010-05-13T13:59:24Z</time>
      </trkpt>
      <trkpt lat="48.72315" lon="1.83239">
        <ele>170</ele>
        <time>2010-05-13T13:59:25Z</time>
      </trkpt>
      <trkpt lat="48.72316" lon="1.83237">
        <ele>170</ele>
        <time>2010-05-13T13:59:26Z</time>
      </trkpt>
      <trkpt lat="48.72316" lon="1.83235">
        <ele>170</ele>
        <time>2010-05-13T13:59:27Z</time>
      </trkpt>
      <trkpt lat="48.72317" lon="1.83233">
        <ele>170</ele>
        <time>2010-05-13T13:59:28Z</time>
      </trkpt>
      <trkpt lat="48.72317" lon="1.83232">
        <ele>170</ele>
        <time>2010-05-13T13:59:29Z</time>
      </trkpt>
      <trkpt lat="48.72318" lon="1.8323">
        <ele>170</ele>
        <time>2010-05-13T13:59:30Z</time>
      </trkpt>
      <trkpt lat="48.72319" lon="1.83228">
        <ele>170</ele>
        <time>2010-05-13T13:59:31Z</time>
      </trkpt>
      <trkpt lat="48.7232" lon="1.83226">
        <ele>170</ele>
        <time>2010-05-13T13:59:32Z</time>
      </trkpt>
      <trkpt lat="48.72321" lon="1.83223">
        <ele>170</ele>
        <time>2010-05-13T13:59:33Z</time>
      </trkpt>
      <trkpt lat="48.72322" lon="1.8322">
        <ele>170</ele>
        <time>2010-05-13T13:59:34Z</time>
      </trkpt>
      <trkpt lat="48.72323" lon="1.83216">
        <ele>170</ele>
        <time>2010-05-13T13:59:35Z</time>
      </trkpt>
      <trkpt lat="48.72324" lon="1.83213">
        <ele>170</ele>
        <time>2010-05-13T13:59:36Z</time>
      </trkpt>
      <trkpt lat="48.72325" lon="1.83209">
        <ele>170</ele>
        <time>2010-05-13T13:59:37Z</time>
      </trkpt>
      <trkpt lat="48.72327" lon="1.83205">
        <ele>170</ele>
        <time>2010-05-13T13:59:38Z</time>
      </trkpt>
      <trkpt lat="48.72328" lon="1.83201">
        <ele>170</ele>
        <time>2010-05-13T13:59:39Z</time>
      </trkpt>
      <trkpt lat="48.72329" lon="1.83197">
        <ele>170</ele>
        <time>2010-05-13T13:59:40Z</time>
      </trkpt>
      <trkpt lat="48.72331" lon="1.83194">
        <ele>170</ele>
        <time>2010-05-13T13:59:41Z</time>
      </trkpt>
      <trkpt lat="48.72332" lon="1.8319">
        <ele>170</ele>
        <time>2010-05-13T13:59:42Z</time>
      </trkpt>
      <trkpt lat="48.72333" lon="1.83188">
        <ele>170</ele>
        <time>2010-05-13T13:59:43Z</time>
      </trkpt>
      <trkpt lat="48.72334" lon="1.83185">
        <ele>170</ele>
        <time>2010-05-13T13:59:44Z</time>
      </trkpt>
      <trkpt lat="48.72335" lon="1.83182">
        <ele>170</ele>
        <time>2010-05-13T13:59:45Z</time>
      </trkpt>
      <trkpt lat="48.72336" lon="1.8318">
        <ele>170</ele>
        <time>2010-05-13T13:59:46Z</time>
      </trkpt>
      <trkpt lat="48.72337" lon="1.83178">
        <ele>170</ele>
        <time>2010-05-13T13:59:47Z</time>
      </trkpt>
      <trkpt lat="48.72337" lon="1.83176">
        <ele>170</ele>
        <time>2010-05-13T13:59:48Z</time>
      </trkpt>
      <trkpt lat="48.72338" lon="1.83175">
        <ele>170</ele>
        <time>2010-05-13T13:59:49Z</time>
      </trkpt>
      <trkpt lat="48.72339" lon="1.83173">
        <ele>170</ele>
        <time>2010-05-13T13:59:50Z</time>
      </trkpt>
      <trkpt lat="48.7234" lon="1.83171">
        <ele>170</ele>
        <time>2010-05-13T13:59:51Z</time>
      </trkpt>
      <trkpt lat="48.72341" lon="1.83167">
        <ele>170</ele>
        <time>2010-05-13T13:59:52Z</time>
      </trkpt>
      <trkpt lat="48.72342" lon="1.83163">
        <ele>170</ele>
        <time>2010-05-13T13:59:53Z</time>
      </trkpt>
      <trkpt lat="48.72344" lon="1.83158">
        <ele>170</ele>
        <time>2010-05-13T13:59:54Z</time>
      </trkpt>
      <trkpt lat="48.72346" lon="1.83153">
        <ele>170</ele>
        <time>2010-05-13T13:59:55Z</time>
      </trkpt>
      <trkpt lat="48.72347" lon="1.83148">
        <ele>170</ele>
        <time>2010-05-13T13:59:56Z</time>
      </trkpt>
      <trkpt lat="48.72349" lon="1.83143">
        <ele>170</ele>
        <time>2010-05-13T13:59:57Z</time>
      </trkpt>
      <trkpt lat="48.72351" lon="1.83138">
        <ele>170</ele>
        <time>2010-05-13T13:59:58Z</time>
      </trkpt>
      <trkpt lat="48.72353" lon="1.83133">
        <ele>170</ele>
        <time>2010-05-13T13:59:59Z</time>
      </trkpt>
      <trkpt lat="48.72356" lon="1.83128">
        <ele>170</ele>
        <time>2010-05-13T14:00:00Z</time>
      </trkpt>
      <trkpt lat="48.72358" lon="1.83122">
        <ele>170</ele>
        <time>2010-05-13T14:00:01Z</time>
      </trkpt>
      <trkpt lat="48.7236" lon="1.83117">
        <ele>170</ele>
        <time>2010-05-13T14:00:02Z</time>
      </trkpt>
      <trkpt lat="48.72363" lon="1.8311">
        <ele>170</ele>
        <time>2010-05-13T14:00:03Z</time>
      </trkpt>
      <trkpt lat="48.72365" lon="1.83104">
        <ele>170</ele>
        <time>2010-05-13T14:00:04Z</time>
      </trkpt>
      <trkpt lat="48.72367" lon="1.83098">
        <ele>170</ele>
        <time>2010-05-13T14:00:05Z</time>
      </trkpt>
      <trkpt lat="48.72369" lon="1.83092">
        <ele>170</ele>
        <time>2010-05-13T14:00:06Z</time>
      </trkpt>
      <trkpt lat="48.72372" lon="1.83085">
        <ele>170</ele>
        <time>2010-05-13T14:00:07Z</time>
      </trkpt>
      <trkpt lat="48.72374" lon="1.83079">
        <ele>170</ele>
        <time>2010-05-13T14:00:08Z</time>
      </trkpt>
      <trkpt lat="48.72376" lon="1.83074">
        <ele>170</ele>
        <time>2010-05-13T14:00:09Z</time>
      </trkpt>
      <trkpt lat="48.72378" lon="1.83068">
        <ele>170</ele>
        <time>2010-05-13T14:00:10Z</time>
      </trkpt>
      <trkpt lat="48.7238" lon="1.83063">
        <ele>170</ele>
        <time>2010-05-13T14:00:11Z</time>
      </trkpt>
      <trkpt lat="48.72382" lon="1.83057">
        <ele>170</ele>
        <time>2010-05-13T14:00:12Z</time>
      </trkpt>
      <trkpt lat="48.72384" lon="1.83051">
        <ele>170</ele>
        <time>2010-05-13T14:00:13Z</time>
      </trkpt>
      <trkpt lat="48.72386" lon="1.83046">
        <ele>170</ele>
        <time>2010-05-13T14:00:14Z</time>
      </trkpt>
      <trkpt lat="48.72388" lon="1.83041">
        <ele>170</ele>
        <time>2010-05-13T14:00:15Z</time>
      </trkpt>
      <trkpt lat="48.7239" lon="1.83036">
        <ele>170</ele>
        <time>2010-05-13T14:00:16Z</time>
      </trkpt>
      <trkpt lat="48.72392" lon="1.83031">
        <ele>170</ele>
        <time>2010-05-13T14:00:17Z</time>
      </trkpt>
      <trkpt lat="48.72393" lon="1.83026">
        <ele>170</ele>
        <time>2010-05-13T14:00:18Z</time>
      </trkpt>
      <trkpt lat="48.72395" lon="1.83021">
        <ele>170</ele>
        <time>2010-05-13T14:00:19Z</time>
      </trkpt>
      <trkpt lat="48.72397" lon="1.83017">
        <ele>170</ele>
        <time>2010-05-13T14:00:20Z</time>
      </trkpt>
      <trkpt lat="48.72399" lon="1.83012">
        <ele>170</ele>
        <time>2010-05-13T14:00:21Z</time>
      </trkpt>
      <trkpt lat="48.72401" lon="1.83007">
        <ele>170</ele>
        <time>2010-05-13T14:00:22Z</time>
      </trkpt>
      <trkpt lat="48.72402" lon="1.83002">
        <ele>170</ele>
        <time>2010-05-13T14:00:23Z</time>
      </trkpt>
      <trkpt lat="48.72404" lon="1.82998">
        <ele>170</ele>
        <time>2010-05-13T14:00:24Z</time>
      </trkpt>
      <trkpt lat="48.72405" lon="1.82993">
        <ele>170</ele>
        <time>2010-05-13T14:00:25Z</time>
      </trkpt>
      <trkpt lat="48.72407" lon="1.82988">
        <ele>170</ele>
        <time>2010-05-13T14:00:26Z</time>
      </trkpt>
      <trkpt lat="48.72409" lon="1.82983">
        <ele>170</ele>
        <time>2010-05-13T14:00:27Z</time>
      </trkpt>
      <trkpt lat="48.72411" lon="1.82977">
        <ele>170</ele>
        <time>2010-05-13T14:00:28Z</time>
      </trkpt>
      <trkpt lat="48.72413" lon="1.82972">
        <ele>170</ele>
        <time>2010-05-13T14:00:29Z</time>
      </trkpt>
      <trkpt lat="48.72415" lon="1.82967">
        <ele>170</ele>
        <time>2010-05-13T14:00:30Z</time>
      </trkpt>
      <trkpt lat="48.72418" lon="1.82961">
        <ele>170</ele>
        <time>2010-05-13T14:00:31Z</time>
      </trkpt>
      <trkpt lat="48.7242" lon="1.82956">
        <ele>170</ele>
        <time>2010-05-13T14:00:32Z</time>
      </trkpt>
      <trkpt lat="48.72422" lon="1.82951">
        <ele>170</ele>
        <time>2010-05-13T14:00:33Z</time>
      </trkpt>
      <trkpt lat="48.72424" lon="1.82946">
        <ele>170</ele>
        <time>2010-05-13T14:00:34Z</time>
      </trkpt>
      <trkpt lat="48.72426" lon="1.8294">
        <ele>170</ele>
        <time>2010-05-13T14:00:35Z</time>
      </trkpt>
      <trkpt lat="48.72428" lon="1.82935">
        <ele>170</ele>
        <time>2010-05-13T14:00:36Z</time>
      </trkpt>
      <trkpt lat="48.7243" lon="1.8293">
        <ele>170</ele>
        <time>2010-05-13T14:00:37Z</time>
      </trkpt>
      <trkpt lat="48.72432" lon="1.82925">
        <ele>170</ele>
        <time>2010-05-13T14:00:38Z</time>
      </trkpt>
      <trkpt lat="48.72434" lon="1.8292">
        <ele>170</ele>
        <time>2010-05-13T14:00:39Z</time>
      </trkpt>
      <trkpt lat="48.72436" lon="1.82915">
        <ele>170</ele>
        <time>2010-05-13T14:00:40Z</time>
      </trkpt>
      <trkpt lat="48.72438" lon="1.8291">
        <ele>170</ele>
        <time>2010-05-13T14:00:41Z</time>
      </trkpt>
      <trkpt lat="48.7244" lon="1.82906">
        <ele>170</ele>
        <time>2010-05-13T14:00:42Z</time>
      </trkpt>
      <trkpt lat="48.72442" lon="1.829">
        <ele>170</ele>
        <time>2010-05-13T14:00:43Z</time>
      </trkpt>
      <trkpt lat="48.72444" lon="1.82895">
        <ele>170</ele>
        <time>2010-05-13T14:00:44Z</time>
      </trkpt>
      <trkpt lat="48.72446" lon="1.8289">
        <ele>170</ele>
        <time>2010-05-13T14:00:45Z</time>
      </trkpt>
      <trkpt lat="48.72448" lon="1.82885">
        <ele>170</ele>
        <time>2010-05-13T14:00:46Z</time>
      </trkpt>
      <trkpt lat="48.72451" lon="1.8288">
        <ele>170</ele>
        <time>2010-05-13T14:00:47Z</time>
      </trkpt>
      <trkpt lat="48.72453" lon="1.82876">
        <ele>170</ele>
        <time>2010-05-13T14:00:48Z</time>
      </trkpt>
      <trkpt lat="48.72455" lon="1.82871">
        <ele>170</ele>
        <time>2010-05-13T14:00:49Z</time>
      </trkpt>
      <trkpt lat="48.72457" lon="1.82866">
        <ele>170</ele>
        <time>2010-05-13T14:00:50Z</time>
      </trkpt>
      <trkpt lat="48.72458" lon="1.82862">
        <ele>170</ele>
        <time>2010-05-13T14:00:51Z</time>
      </trkpt>
      <trkpt lat="48.7246" lon="1.82856">
        <ele>170</ele>
        <time>2010-05-13T14:00:52Z</time>
      </trkpt>
      <trkpt lat="48.72462" lon="1.82851">
        <ele>170</ele>
        <time>2010-05-13T14:00:53Z</time>
      </trkpt>
      <trkpt lat="48.72465" lon="1.82846">
        <ele>170</ele>
        <time>2010-05-13T14:00:54Z</time>
      </trkpt>
      <trkpt lat="48.72467" lon="1.82841">
        <ele>170</ele>
        <time>2010-05-13T14:00:55Z</time>
      </trkpt>
      <trkpt lat="48.72469" lon="1.82836">
        <ele>170</ele>
        <time>2010-05-13T14:00:56Z</time>
      </trkpt>
      <trkpt lat="48.72471" lon="1.82831">
        <ele>170</ele>
        <time>2010-05-13T14:00:57Z</time>
      </trkpt>
      <trkpt lat="48.72473" lon="1.82826">
        <ele>170</ele>
        <time>2010-05-13T14:00:58Z</time>
      </trkpt>
      <trkpt lat="48.72475" lon="1.82821">
        <ele>170</ele>
        <time>2010-05-13T14:00:59Z</time>
      </trkpt>
      <trkpt lat="48.72477" lon="1.82815">
        <ele>170</ele>
        <time>2010-05-13T14:01:00Z</time>
      </trkpt>
      <trkpt lat="48.72479" lon="1.8281">
        <ele>170</ele>
        <time>2010-05-13T14:01:01Z</time>
      </trkpt>
      <trkpt lat="48.72481" lon="1.82805">
        <ele>170</ele>
        <time>2010-05-13T14:01:02Z</time>
      </trkpt>
      <trkpt lat="48.72483" lon="1.82799">
        <ele>170</ele>
        <time>2010-05-13T14:01:03Z</time>
      </trkpt>
      <trkpt lat="48.72485" lon="1.82794">
        <ele>170</ele>
        <time>2010-05-13T14:01:04Z</time>
      </trkpt>
      <trkpt lat="48.72487" lon="1.82789">
        <ele>170</ele>
        <time>2010-05-13T14:01:05Z</time>
      </trkpt>
      <trkpt lat="48.72489" lon="1.82784">
        <ele>170</ele>
        <time>2010-05-13T14:01:06Z</time>
      </trkpt>
      <trkpt lat="48.72491" lon="1.82779">
        <ele>170</ele>
        <time>2010-05-13T14:01:07Z</time>
      </trkpt>
      <trkpt lat="48.72493" lon="1.82774">
        <ele>170</ele>
        <time>2010-05-13T14:01:08Z</time>
      </trkpt>
      <trkpt lat="48.72495" lon="1.82769">
        <ele>170</ele>
        <time>2010-05-13T14:01:09Z</time>
      </trkpt>
      <trkpt lat="48.72497" lon="1.82764">
        <ele>170</ele>
        <time>2010-05-13T14:01:10Z</time>
      </trkpt>
      <trkpt lat="48.72499" lon="1.82759">
        <ele>170</ele>
        <time>2010-05-13T14:01:11Z</time>
      </trkpt>
      <trkpt lat="48.72501" lon="1.82753">
        <ele>170</ele>
        <time>2010-05-13T14:01:12Z</time>
      </trkpt>
      <trkpt lat="48.72504" lon="1.82748">
        <ele>170</ele>
        <time>2010-05-13T14:01:13Z</time>
      </trkpt>
      <trkpt lat="48.72506" lon="1.82743">
        <ele>170</ele>
        <time>2010-05-13T14:01:14Z</time>
      </trkpt>
      <trkpt lat="48.72508" lon="1.82738">
        <ele>170</ele>
        <time>2010-05-13T14:01:15Z</time>
      </trkpt>
      <trkpt lat="48.72509" lon="1.82733">
        <ele>170</ele>
        <time>2010-05-13T14:01:16Z</time>
      </trkpt>
      <trkpt lat="48.72511" lon="1.82728">
        <ele>170</ele>
        <time>2010-05-13T14:01:17Z</time>
      </trkpt>
      <trkpt lat="48.72513" lon="1.82723">
        <ele>170</ele>
        <time>2010-05-13T14:01:18Z</time>
      </trkpt>
      <trkpt lat="48.72515" lon="1.82717">
        <ele>170</ele>
        <time>2010-05-13T14:01:19Z</time>
      </trkpt>
      <trkpt lat="48.72517" lon="1.82711">
        <ele>170</ele>
        <time>2010-05-13T14:01:20Z</time>
      </trkpt>
      <trkpt lat="48.72519" lon="1.82705">
        <ele>170</ele>
        <time>2010-05-13T14:01:21Z</time>
      </trkpt>
      <trkpt lat="48.72521" lon="1.82699">
        <ele>170</ele>
        <time>2010-05-13T14:01:22Z</time>
      </trkpt>
      <trkpt lat="48.72523" lon="1.82693">
        <ele>170</ele>
        <time>2010-05-13T14:01:23Z</time>
      </trkpt>
      <trkpt lat="48.72525" lon="1.82688">
        <ele>170</ele>
        <time>2010-05-13T14:01:24Z</time>
      </trkpt>
      <trkpt lat="48.72527" lon="1.82682">
        <ele>170</ele>
        <time>2010-05-13T14:01:25Z</time>
      </trkpt>
      <trkpt lat="48.72529" lon="1.82676">
        <ele>170</ele>
        <time>2010-05-13T14:01:26Z</time>
      </trkpt>
      <trkpt lat="48.72531" lon="1.8267">
        <ele>170</ele>
        <time>2010-05-13T14:01:27Z</time>
      </trkpt>
      <trkpt lat="48.72533" lon="1.82664">
        <ele>170</ele>
        <time>2010-05-13T14:01:28Z</time>
      </trkpt>
      <trkpt lat="48.72535" lon="1.82659">
        <ele>170</ele>
        <time>2010-05-13T14:01:29Z</time>
      </trkpt>
      <trkpt lat="48.72538" lon="1.82653">
        <ele>170</ele>
        <time>2010-05-13T14:01:30Z</time>
      </trkpt>
      <trkpt lat="48.7254" lon="1.82648">
        <ele>170</ele>
        <time>2010-05-13T14:01:31Z</time>
      </trkpt>
      <trkpt lat="48.72542" lon="1.82643">
        <ele>170</ele>
        <time>2010-05-13T14:01:32Z</time>
      </trkpt>
      <trkpt lat="48.72544" lon="1.82637">
        <ele>170</ele>
        <time>2010-05-13T14:01:33Z</time>
      </trkpt>
      <trkpt lat="48.72546" lon="1.82632">
        <ele>170</ele>
        <time>2010-05-13T14:01:34Z</time>
      </trkpt>
      <trkpt lat="48.72548" lon="1.82627">
        <ele>170</ele>
        <time>2010-05-13T14:01:35Z</time>
      </trkpt>
      <trkpt lat="48.7255" lon="1.82621">
        <ele>170</ele>
        <time>2010-05-13T14:01:36Z</time>
      </trkpt>
      <trkpt lat="48.72552" lon="1.82615">
        <ele>170</ele>
        <time>2010-05-13T14:01:37Z</time>
      </trkpt>
      <trkpt lat="48.72554" lon="1.82609">
        <ele>170</ele>
        <time>2010-05-13T14:01:38Z</time>
      </trkpt>
      <trkpt lat="48.72557" lon="1.82604">
        <ele>170</ele>
        <time>2010-05-13T14:01:39Z</time>
      </trkpt>
      <trkpt lat="48.72559" lon="1.82598">
        <ele>170</ele>
        <time>2010-05-13T14:01:40Z</time>
      </trkpt>
      <trkpt lat="48.72561" lon="1.82592">
        <ele>170</ele>
        <time>2010-05-13T14:01:41Z</time>
      </trkpt>
      <trkpt lat="48.72563" lon="1.82587">
        <ele>170</ele>
        <time>2010-05-13T14:01:42Z</time>
      </trkpt>
      <trkpt lat="48.72565" lon="1.82581">
        <ele>170</ele>
        <time>2010-05-13T14:01:43Z</time>
      </trkpt>
      <trkpt lat="48.72568" lon="1.82576">
        <ele>170</ele>
        <time>2010-05-13T14:01:44Z</time>
      </trkpt>
      <trkpt lat="48.7257" lon="1.8257">
        <ele>170</ele>
        <time>2010-05-13T14:01:45Z</time>
      </trkpt>
      <trkpt lat="48.72572" lon="1.82564">
        <ele>170</ele>
        <time>2010-05-13T14:01:46Z</time>
      </trkpt>
      <trkpt lat="48.72574" lon="1.82558">
        <ele>170</ele>
        <time>2010-05-13T14:01:47Z</time>
      </trkpt>
      <trkpt lat="48.72577" lon="1.82553">
        <ele>170</ele>
        <time>2010-05-13T14:01:48Z</time>
      </trkpt>
      <trkpt lat="48.72579" lon="1.82547">
        <ele>170</ele>
        <time>2010-05-13T14:01:49Z</time>
      </trkpt>
      <trkpt lat="48.72581" lon="1.82542">
        <ele>170</ele>
        <time>2010-05-13T14:01:50Z</time>
      </trkpt>
      <trkpt lat="48.72583" lon="1.82536">
        <ele>170</ele>
        <time>2010-05-13T14:01:51Z</time>
      </trkpt>
      <trkpt lat="48.72586" lon="1.8253">
        <ele>170</ele>
        <time>2010-05-13T14:01:52Z</time>
      </trkpt>
      <trkpt lat="48.72588" lon="1.82524">
        <ele>170</ele>
        <time>2010-05-13T14:01:53Z</time>
      </trkpt>
      <trkpt lat="48.7259" lon="1.82518">
        <ele>170</ele>
        <time>2010-05-13T14:01:54Z</time>
      </trkpt>
      <trkpt lat="48.72593" lon="1.82512">
        <ele>170</ele>
        <time>2010-05-13T14:01:55Z</time>
      </trkpt>
      <trkpt lat="48.72595" lon="1.82507">
        <ele>170</ele>
        <time>2010-05-13T14:01:56Z</time>
      </trkpt>
      <trkpt lat="48.72597" lon="1.82501">
        <ele>170</ele>
        <time>2010-05-13T14:01:57Z</time>
      </trkpt>
      <trkpt lat="48.726" lon="1.82496">
        <ele>170</ele>
        <time>2010-05-13T14:01:58Z</time>
      </trkpt>
      <trkpt lat="48.72602" lon="1.8249">
        <ele>170</ele>
        <time>2010-05-13T14:01:59Z</time>
      </trkpt>
      <trkpt lat="48.72604" lon="1.82484">
        <ele>170</ele>
        <time>2010-05-13T14:02:00Z</time>
      </trkpt>
      <trkpt lat="48.72607" lon="1.82479">
        <ele>170</ele>
        <time>2010-05-13T14:02:01Z</time>
      </trkpt>
      <trkpt lat="48.72609" lon="1.82473">
        <ele>170</ele>
        <time>2010-05-13T14:02:02Z</time>
      </trkpt>
      <trkpt lat="48.72612" lon="1.82468">
        <ele>170</ele>
        <time>2010-05-13T14:02:03Z</time>
      </trkpt>
      <trkpt lat="48.72615" lon="1.82463">
        <ele>170</ele>
        <time>2010-05-13T14:02:04Z</time>
      </trkpt>
      <trkpt lat="48.72617" lon="1.82457">
        <ele>170</ele>
        <time>2010-05-13T14:02:05Z</time>
      </trkpt>
      <trkpt lat="48.7262" lon="1.82452">
        <ele>170</ele>
        <time>2010-05-13T14:02:06Z</time>
      </trkpt>
      <trkpt lat="48.72623" lon="1.82447">
        <ele>170</ele>
        <time>2010-05-13T14:02:07Z</time>
      </trkpt>
      <trkpt lat="48.72626" lon="1.82442">
        <ele>170</ele>
        <time>2010-05-13T14:02:08Z</time>
      </trkpt>
      <trkpt lat="48.72629" lon="1.82437">
        <ele>170</ele>
        <time>2010-05-13T14:02:09Z</time>
      </trkpt>
      <trkpt lat="48.72632" lon="1.82433">
        <ele>170</ele>
        <time>2010-05-13T14:02:10Z</time>
      </trkpt>
      <trkpt lat="48.72635" lon="1.82429">
        <ele>170</ele>
        <time>2010-05-13T14:02:11Z</time>
      </trkpt>
      <trkpt lat="48.72638" lon="1.82425">
        <ele>170</ele>
        <time>2010-05-13T14:02:12Z</time>
      </trkpt>
      <trkpt lat="48.72641" lon="1.8242">
        <ele>170</ele>
        <time>2010-05-13T14:02:13Z</time>
      </trkpt>
      <trkpt lat="48.72644" lon="1.82416">
        <ele>170</ele>
        <time>2010-05-13T14:02:14Z</time>
      </trkpt>
      <trkpt lat="48.72647" lon="1.82412">
        <ele>170</ele>
        <time>2010-05-13T14:02:15Z</time>
      </trkpt>
      <trkpt lat="48.7265" lon="1.82408">
        <ele>170</ele>
        <time>2010-05-13T14:02:16Z</time>
      </trkpt>
      <trkpt lat="48.72653" lon="1.82404">
        <ele>170</ele>
        <time>2010-05-13T14:02:17Z</time>
      </trkpt>
      <trkpt lat="48.72656" lon="1.82401">
        <ele>170</ele>
        <time>2010-05-13T14:02:18Z</time>
      </trkpt>
      <trkpt lat="48.72658" lon="1.82397">
        <ele>170</ele>
        <time>2010-05-13T14:02:19Z</time>
      </trkpt>
      <trkpt lat="48.72662" lon="1.82393">
        <ele>170</ele>
        <time>2010-05-13T14:02:20Z</time>
      </trkpt>
      <trkpt lat="48.72665" lon="1.82388">
        <ele>170</ele>
        <time>2010-05-13T14:02:21Z</time>
      </trkpt>
      <trkpt lat="48.72668" lon="1.82384">
        <ele>170</ele>
        <time>2010-05-13T14:02:22Z</time>
      </trkpt>
      <trkpt lat="48.72671" lon="1.8238">
        <ele>170</ele>
        <time>2010-05-13T14:02:23Z</time>
      </trkpt>
      <trkpt lat="48.72674" lon="1.82376">
        <ele>170</ele>
        <time>2010-05-13T14:02:24Z</time>
      </trkpt>
      <trkpt lat="48.72677" lon="1.82372">
        <ele>170</ele>
        <time>2010-05-13T14:02:25Z</time>
      </trkpt>
      <trkpt lat="48.7268" lon="1.82368">
        <ele>170</ele>
        <time>2010-05-13T14:02:26Z</time>
      </trkpt>
      <trkpt lat="48.72683" lon="1.82364">
        <ele>170</ele>
        <time>2010-05-13T14:02:27Z</time>
      </trkpt>
      <trkpt lat="48.72685" lon="1.8236">
        <ele>170</ele>
        <time>2010-05-13T14:02:28Z</time>
      </trkpt>
      <trkpt lat="48.72688" lon="1.82356">
        <ele>170</ele>
        <time>2010-05-13T14:02:29Z</time>
      </trkpt>
      <trkpt lat="48.72691" lon="1.82352">
        <ele>170</ele>
        <time>2010-05-13T14:02:30Z</time>
      </trkpt>
      <trkpt lat="48.72694" lon="1.82348">
        <ele>170</ele>
        <time>2010-05-13T14:02:31Z</time>
      </trkpt>
      <trkpt lat="48.72697" lon="1.82344">
        <ele>170</ele>
        <time>2010-05-13T14:02:32Z</time>
      </trkpt>
      <trkpt lat="48.72699" lon="1.82341">
        <ele>170</ele>
        <time>2010-05-13T14:02:33Z</time>
      </trkpt>
      <trkpt lat="48.72701" lon="1.82337">
        <ele>170</ele>
        <time>2010-05-13T14:02:34Z</time>
      </trkpt>
      <trkpt lat="48.72703" lon="1.82334">
        <ele>170</ele>
        <time>2010-05-13T14:02:35Z</time>
      </trkpt>
      <trkpt lat="48.72705" lon="1.82332">
        <ele>170</ele>
        <time>2010-05-13T14:02:36Z</time>
      </trkpt>
      <trkpt lat="48.72707" lon="1.8233">
        <ele>170</ele>
        <time>2010-05-13T14:02:37Z</time>
      </trkpt>
      <trkpt lat="48.72708" lon="1.82328">
        <ele>170</ele>
        <time>2010-05-13T14:02:38Z</time>
      </trkpt>
      <trkpt lat="48.7271" lon="1.82327">
        <ele>169</ele>
        <time>2010-05-13T14:02:39Z</time>
      </trkpt>
      <trkpt lat="48.72711" lon="1.82325">
        <ele>169</ele>
        <time>2010-05-13T14:02:40Z</time>
      </trkpt>
      <trkpt lat="48.72713" lon="1.82323">
        <ele>169</ele>
        <time>2010-05-13T14:02:41Z</time>
      </trkpt>
      <trkpt lat="48.72714" lon="1.82321">
        <ele>169</ele>
        <time>2010-05-13T14:02:42Z</time>
      </trkpt>
      <trkpt lat="48.72715" lon="1.82319">
        <ele>169</ele>
        <time>2010-05-13T14:02:43Z</time>
      </trkpt>
      <trkpt lat="48.72716" lon="1.82318">
        <ele>169</ele>
        <time>2010-05-13T14:02:44Z</time>
      </trkpt>
      <trkpt lat="48.72718" lon="1.82315">
        <ele>169</ele>
        <time>2010-05-13T14:02:47Z</time>
      </trkpt>
      <trkpt lat="48.72719" lon="1.82314">
        <ele>169</ele>
        <time>2010-05-13T14:02:58Z</time>
      </trkpt>
      <trkpt lat="48.7272" lon="1.82311">
        <ele>170</ele>
        <time>2010-05-13T14:03:01Z</time>
      </trkpt>
      <trkpt lat="48.72722" lon="1.82309">
        <ele>170</ele>
        <time>2010-05-13T14:03:03Z</time>
      </trkpt>
      <trkpt lat="48.72723" lon="1.82307">
        <ele>170</ele>
        <time>2010-05-13T14:03:04Z</time>
      </trkpt>
      <trkpt lat="48.72724" lon="1.82304">
        <ele>170</ele>
        <time>2010-05-13T14:03:05Z</time>
      </trkpt>
      <trkpt lat="48.72725" lon="1.82302">
        <ele>170</ele>
        <time>2010-05-13T14:03:06Z</time>
      </trkpt>
      <trkpt lat="48.72726" lon="1.82298">
        <ele>170</ele>
        <time>2010-05-13T14:03:08Z</time>
      </trkpt>
      <trkpt lat="48.72726" lon="1.82297">
        <ele>170</ele>
        <time>2010-05-13T14:03:09Z</time>
      </trkpt>
      <trkpt lat="48.72726" lon="1.82294">
        <ele>170</ele>
        <time>2010-05-13T14:03:11Z</time>
      </trkpt>
      <trkpt lat="48.72726" lon="1.82292">
        <ele>171</ele>
        <time>2010-05-13T14:03:12Z</time>
      </trkpt>
      <trkpt lat="48.72727" lon="1.8229">
        <ele>171</ele>
        <time>2010-05-13T14:03:13Z</time>
      </trkpt>
      <trkpt lat="48.72727" lon="1.82288">
        <ele>171</ele>
        <time>2010-05-13T14:03:14Z</time>
      </trkpt>
      <trkpt lat="48.72728" lon="1.82286">
        <ele>171</ele>
        <time>2010-05-13T14:03:15Z</time>
      </trkpt>
      <trkpt lat="48.72728" lon="1.82284">
        <ele>172</ele>
        <time>2010-05-13T14:03:16Z</time>
      </trkpt>
      <trkpt lat="48.72728" lon="1.82282">
        <ele>172</ele>
        <time>2010-05-13T14:03:17Z</time>
      </trkpt>
      <trkpt lat="48.72729" lon="1.8228">
        <ele>172</ele>
        <time>2010-05-13T14:03:18Z</time>
      </trkpt>
      <trkpt lat="48.7273" lon="1.82279">
        <ele>173</ele>
        <time>2010-05-13T14:03:19Z</time>
      </trkpt>
      <trkpt lat="48.72731" lon="1.82276">
        <ele>174</ele>
        <time>2010-05-13T14:03:21Z</time>
      </trkpt>
      <trkpt lat="48.72732" lon="1.82274">
        <ele>175</ele>
        <time>2010-05-13T14:03:22Z</time>
      </trkpt>
      <trkpt lat="48.72733" lon="1.8227">
        <ele>175</ele>
        <time>2010-05-13T14:03:24Z</time>
      </trkpt>
      <trkpt lat="48.72733" lon="1.82268">
        <ele>175</ele>
        <time>2010-05-13T14:03:25Z</time>
      </trkpt>
      <trkpt lat="48.72735" lon="1.82265">
        <ele>175</ele>
        <time>2010-05-13T14:03:27Z</time>
      </trkpt>
      <trkpt lat="48.72735" lon="1.82262">
        <ele>175</ele>
        <time>2010-05-13T14:03:28Z</time>
      </trkpt>
      <trkpt lat="48.72734" lon="1.8226">
        <ele>175</ele>
        <time>2010-05-13T14:03:29Z</time>
      </trkpt>
      <trkpt lat="48.72733" lon="1.82257">
        <ele>175</ele>
        <time>2010-05-13T14:03:30Z</time>
      </trkpt>
      <trkpt lat="48.72733" lon="1.82255">
        <ele>175</ele>
        <time>2010-05-13T14:03:31Z</time>
      </trkpt>
      <trkpt lat="48.72734" lon="1.82253">
        <ele>175</ele>
        <time>2010-05-13T14:03:32Z</time>
      </trkpt>
      <trkpt lat="48.72734" lon="1.82251">
        <ele>175</ele>
        <time>2010-05-13T14:03:33Z</time>
      </trkpt>
      <trkpt lat="48.72733" lon="1.82249">
        <ele>175</ele>
        <time>2010-05-13T14:03:34Z</time>
      </trkpt>
      <trkpt lat="48.72734" lon="1.82247">
        <ele>175</ele>
        <time>2010-05-13T14:03:35Z</time>
      </trkpt>
      <trkpt lat="48.72734" lon="1.82244">
        <ele>174</ele>
        <time>2010-05-13T14:03:37Z</time>
      </trkpt>
      <trkpt lat="48.72735" lon="1.82242">
        <ele>174</ele>
        <time>2010-05-13T14:03:38Z</time>
      </trkpt>
      <trkpt lat="48.72735" lon="1.82239">
        <ele>174</ele>
        <time>2010-05-13T14:03:39Z</time>
      </trkpt>
      <trkpt lat="48.72735" lon="1.82237">
        <ele>174</ele>
        <time>2010-05-13T14:03:40Z</time>
      </trkpt>
      <trkpt lat="48.72736" lon="1.82234">
        <ele>174</ele>
        <time>2010-05-13T14:03:42Z</time>
      </trkpt>
      <trkpt lat="48.72737" lon="1.82232">
        <ele>174</ele>
        <time>2010-05-13T14:03:43Z</time>
      </trkpt>
      <trkpt lat="48.72737" lon="1.8223">
        <ele>174</ele>
        <time>2010-05-13T14:03:44Z</time>
      </trkpt>
      <trkpt lat="48.72736" lon="1.82227">
        <ele>173</ele>
        <time>2010-05-13T14:03:45Z</time>
      </trkpt>
      <trkpt lat="48.72736" lon="1.82225">
        <ele>173</ele>
        <time>2010-05-13T14:03:46Z</time>
      </trkpt>
      <trkpt lat="48.72736" lon="1.82222">
        <ele>172</ele>
        <time>2010-05-13T14:03:47Z</time>
      </trkpt>
      <trkpt lat="48.72737" lon="1.8222">
        <ele>172</ele>
        <time>2010-05-13T14:03:48Z</time>
      </trkpt>
      <trkpt lat="48.72737" lon="1.82218">
        <ele>171</ele>
        <time>2010-05-13T14:03:49Z</time>
      </trkpt>
      <trkpt lat="48.72737" lon="1.82216">
        <ele>171</ele>
        <time>2010-05-13T14:03:50Z</time>
      </trkpt>
      <trkpt lat="48.72737" lon="1.82214">
        <ele>170</ele>
        <time>2010-05-13T14:03:51Z</time>
      </trkpt>
      <trkpt lat="48.72737" lon="1.82211">
        <ele>170</ele>
        <time>2010-05-13T14:03:52Z</time>
      </trkpt>
      <trkpt lat="48.72738" lon="1.82209">
        <ele>170</ele>
        <time>2010-05-13T14:03:53Z</time>
      </trkpt>
      <trkpt lat="48.72739" lon="1.82206">
        <ele>170</ele>
        <time>2010-05-13T14:03:55Z</time>
      </trkpt>
      <trkpt lat="48.72739" lon="1.82204">
        <ele>169</ele>
        <time>2010-05-13T14:03:56Z</time>
      </trkpt>
      <trkpt lat="48.72739" lon="1.82202">
        <ele>169</ele>
        <time>2010-05-13T14:03:57Z</time>
      </trkpt>
      <trkpt lat="48.72739" lon="1.82201">
        <ele>169</ele>
        <time>2010-05-13T14:03:58Z</time>
      </trkpt>
      <trkpt lat="48.7274" lon="1.82197">
        <ele>168</ele>
        <time>2010-05-13T14:04:00Z</time>
      </trkpt>
      <trkpt lat="48.72741" lon="1.82195">
        <ele>168</ele>
        <time>2010-05-13T14:04:01Z</time>
      </trkpt>
      <trkpt lat="48.72742" lon="1.82193">
        <ele>168</ele>
        <time>2010-05-13T14:04:02Z</time>
      </trkpt>
      <trkpt lat="48.72742" lon="1.8219">
        <ele>167</ele>
        <time>2010-05-13T14:04:04Z</time>
      </trkpt>
      <trkpt lat="48.72743" lon="1.82187">
        <ele>167</ele>
        <time>2010-05-13T14:04:05Z</time>
      </trkpt>
      <trkpt lat="48.72744" lon="1.82185">
        <ele>166</ele>
        <time>2010-05-13T14:04:07Z</time>
      </trkpt>
      <trkpt lat="48.72745" lon="1.82183">
        <ele>166</ele>
        <time>2010-05-13T14:04:09Z</time>
      </trkpt>
      <trkpt lat="48.72745" lon="1.82181">
        <ele>166</ele>
        <time>2010-05-13T14:04:10Z</time>
      </trkpt>
      <trkpt lat="48.72745" lon="1.82179">
        <ele>166</ele>
        <time>2010-05-13T14:04:11Z</time>
      </trkpt>
      <trkpt lat="48.72746" lon="1.82177">
        <ele>166</ele>
        <time>2010-05-13T14:04:12Z</time>
      </trkpt>
      <trkpt lat="48.72747" lon="1.82174">
        <ele>166</ele>
        <time>2010-05-13T14:04:14Z</time>
      </trkpt>
      <trkpt lat="48.72747" lon="1.82172">
        <ele>166</ele>
        <time>2010-05-13T14:04:15Z</time>
      </trkpt>
      <trkpt lat="48.72747" lon="1.8217">
        <ele>166</ele>
        <time>2010-05-13T14:04:16Z</time>
      </trkpt>
      <trkpt lat="48.72747" lon="1.82168">
        <ele>166</ele>
        <time>2010-05-13T14:04:17Z</time>
      </trkpt>
      <trkpt lat="48.72748" lon="1.82165">
        <ele>166</ele>
        <time>2010-05-13T14:04:19Z</time>
      </trkpt>
      <trkpt lat="48.72749" lon="1.82162">
        <ele>165</ele>
        <time>2010-05-13T14:04:21Z</time>
      </trkpt>
      <trkpt lat="48.72749" lon="1.8216">
        <ele>164</ele>
        <time>2010-05-13T14:04:22Z</time>
      </trkpt>
      <trkpt lat="48.72749" lon="1.82158">
        <ele>163</ele>
        <time>2010-05-13T14:04:23Z</time>
      </trkpt>
      <trkpt lat="48.7275" lon="1.82156">
        <ele>163</ele>
        <time>2010-05-13T14:04:24Z</time>
      </trkpt>
      <trkpt lat="48.72751" lon="1.82152">
        <ele>162</ele>
        <time>2010-05-13T14:04:26Z</time>
      </trkpt>
      <trkpt lat="48.72751" lon="1.8215">
        <ele>161</ele>
        <time>2010-05-13T14:04:27Z</time>
      </trkpt>
      <trkpt lat="48.72751" lon="1.82148">
        <ele>160</ele>
        <time>2010-05-13T14:04:28Z</time>
      </trkpt>
      <trkpt lat="48.72752" lon="1.82146">
        <ele>159</ele>
        <time>2010-05-13T14:04:29Z</time>
      </trkpt>
      <trkpt lat="48.72752" lon="1.82144">
        <ele>159</ele>
        <time>2010-05-13T14:04:30Z</time>
      </trkpt>
      <trkpt lat="48.72753" lon="1.82143">
        <ele>158</ele>
        <time>2010-05-13T14:04:31Z</time>
      </trkpt>
      <trkpt lat="48.72754" lon="1.8214">
        <ele>158</ele>
        <time>2010-05-13T14:04:32Z</time>
      </trkpt>
      <trkpt lat="48.72755" lon="1.82138">
        <ele>158</ele>
        <time>2010-05-13T14:04:33Z</time>
      </trkpt>
      <trkpt lat="48.72755" lon="1.82136">
        <ele>158</ele>
        <time>2010-05-13T14:04:34Z</time>
      </trkpt>
      <trkpt lat="48.72757" lon="1.82135">
        <ele>158</ele>
        <time>2010-05-13T14:04:35Z</time>
      </trkpt>
      <trkpt lat="48.72758" lon="1.82133">
        <ele>158</ele>
        <time>2010-05-13T14:04:37Z</time>
      </trkpt>
      <trkpt lat="48.72761" lon="1.8213">
        <ele>158</ele>
        <time>2010-05-13T14:04:39Z</time>
      </trkpt>
      <trkpt lat="48.72761" lon="1.82127">
        <ele>158</ele>
        <time>2010-05-13T14:04:40Z</time>
      </trkpt>
      <trkpt lat="48.72761" lon="1.82124">
        <ele>158</ele>
        <time>2010-05-13T14:04:41Z</time>
      </trkpt>
      <trkpt lat="48.72762" lon="1.82122">
        <ele>158</ele>
        <time>2010-05-13T14:04:42Z</time>
      </trkpt>
      <trkpt lat="48.72764" lon="1.82119">
        <ele>158</ele>
        <time>2010-05-13T14:04:44Z</time>
      </trkpt>
      <trkpt lat="48.72764" lon="1.82116">
        <ele>158</ele>
        <time>2010-05-13T14:04:45Z</time>
      </trkpt>
      <trkpt lat="48.72765" lon="1.82114">
        <ele>158</ele>
        <time>2010-05-13T14:04:46Z</time>
      </trkpt>
      <trkpt lat="48.72766" lon="1.82111">
        <ele>158</ele>
        <time>2010-05-13T14:04:48Z</time>
      </trkpt>
      <trkpt lat="48.72768" lon="1.82108">
        <ele>158</ele>
        <time>2010-05-13T14:04:50Z</time>
      </trkpt>
      <trkpt lat="48.72769" lon="1.82107">
        <ele>158</ele>
        <time>2010-05-13T14:04:51Z</time>
      </trkpt>
      <trkpt lat="48.7277" lon="1.82104">
        <ele>158</ele>
        <time>2010-05-13T14:04:53Z</time>
      </trkpt>
      <trkpt lat="48.72771" lon="1.82102">
        <ele>158</ele>
        <time>2010-05-13T14:04:54Z</time>
      </trkpt>
      <trkpt lat="48.72771" lon="1.821">
        <ele>158</ele>
        <time>2010-05-13T14:04:55Z</time>
      </trkpt>
      <trkpt lat="48.72771" lon="1.82097">
        <ele>157</ele>
        <time>2010-05-13T14:04:56Z</time>
      </trkpt>
      <trkpt lat="48.72771" lon="1.82095">
        <ele>157</ele>
        <time>2010-05-13T14:04:58Z</time>
      </trkpt>
      <trkpt lat="48.72772" lon="1.8209">
        <ele>157</ele>
        <time>2010-05-13T14:05:00Z</time>
      </trkpt>
      <trkpt lat="48.72773" lon="1.82088">
        <ele>157</ele>
        <time>2010-05-13T14:05:01Z</time>
      </trkpt>
      <trkpt lat="48.72774" lon="1.82084">
        <ele>157</ele>
        <time>2010-05-13T14:05:02Z</time>
      </trkpt>
      <trkpt lat="48.72775" lon="1.82082">
        <ele>157</ele>
        <time>2010-05-13T14:05:03Z</time>
      </trkpt>
      <trkpt lat="48.72775" lon="1.82079">
        <ele>157</ele>
        <time>2010-05-13T14:05:04Z</time>
      </trkpt>
      <trkpt lat="48.72776" lon="1.82076">
        <ele>157</ele>
        <time>2010-05-13T14:05:05Z</time>
      </trkpt>
      <trkpt lat="48.72776" lon="1.82073">
        <ele>157</ele>
        <time>2010-05-13T14:05:06Z</time>
      </trkpt>
      <trkpt lat="48.72777" lon="1.8207">
        <ele>157</ele>
        <time>2010-05-13T14:05:07Z</time>
      </trkpt>
      <trkpt lat="48.72777" lon="1.82067">
        <ele>157</ele>
        <time>2010-05-13T14:05:08Z</time>
      </trkpt>
      <trkpt lat="48.72777" lon="1.82065">
        <ele>157</ele>
        <time>2010-05-13T14:05:09Z</time>
      </trkpt>
      <trkpt lat="48.72777" lon="1.82063">
        <ele>157</ele>
        <time>2010-05-13T14:05:10Z</time>
      </trkpt>
      <trkpt lat="48.72778" lon="1.82061">
        <ele>157</ele>
        <time>2010-05-13T14:05:11Z</time>
      </trkpt>
      <trkpt lat="48.72779" lon="1.82059">
        <ele>157</ele>
        <time>2010-05-13T14:05:13Z</time>
      </trkpt>
      <trkpt lat="48.72781" lon="1.82056">
        <ele>157</ele>
        <time>2010-05-13T14:05:15Z</time>
      </trkpt>
      <trkpt lat="48.72782" lon="1.82055">
        <ele>157</ele>
        <time>2010-05-13T14:05:16Z</time>
      </trkpt>
      <trkpt lat="48.72783" lon="1.82053">
        <ele>157</ele>
        <time>2010-05-13T14:05:17Z</time>
      </trkpt>
      <trkpt lat="48.72784" lon="1.82052">
        <ele>157</ele>
        <time>2010-05-13T14:05:18Z</time>
      </trkpt>
      <trkpt lat="48.72785" lon="1.8205">
        <ele>157</ele>
        <time>2010-05-13T14:05:20Z</time>
      </trkpt>
      <trkpt lat="48.72786" lon="1.82046">
        <ele>157</ele>
        <time>2010-05-13T14:05:21Z</time>
      </trkpt>
      <trkpt lat="48.72788" lon="1.82044">
        <ele>157</ele>
        <time>2010-05-13T14:05:24Z</time>
      </trkpt>
      <trkpt lat="48.72789" lon="1.82043">
        <ele>157</ele>
        <time>2010-05-13T14:05:25Z</time>
      </trkpt>
      <trkpt lat="48.72791" lon="1.82042">
        <ele>157</ele>
        <time>2010-05-13T14:05:26Z</time>
      </trkpt>
      <trkpt lat="48.72792" lon="1.82041">
        <ele>157</ele>
        <time>2010-05-13T14:05:27Z</time>
      </trkpt>
      <trkpt lat="48.72793" lon="1.82039">
        <ele>156</ele>
        <time>2010-05-13T14:05:29Z</time>
      </trkpt>
      <trkpt lat="48.72795" lon="1.82038">
        <ele>156</ele>
        <time>2010-05-13T14:05:31Z</time>
      </trkpt>
      <trkpt lat="48.72796" lon="1.82036">
        <ele>156</ele>
        <time>2010-05-13T14:05:33Z</time>
      </trkpt>
      <trkpt lat="48.72796" lon="1.82033">
        <ele>156</ele>
        <time>2010-05-13T14:05:35Z</time>
      </trkpt>
      <trkpt lat="48.72796" lon="1.82031">
        <ele>156</ele>
        <time>2010-05-13T14:05:36Z</time>
      </trkpt>
      <trkpt lat="48.72796" lon="1.82027">
        <ele>156</ele>
        <time>2010-05-13T14:05:38Z</time>
      </trkpt>
      <trkpt lat="48.72797" lon="1.82024">
        <ele>156</ele>
        <time>2010-05-13T14:05:40Z</time>
      </trkpt>
      <trkpt lat="48.72798" lon="1.82021">
        <ele>156</ele>
        <time>2010-05-13T14:05:42Z</time>
      </trkpt>
      <trkpt lat="48.72799" lon="1.82019">
        <ele>156</ele>
        <time>2010-05-13T14:05:43Z</time>
      </trkpt>
      <trkpt lat="48.728" lon="1.82016">
        <ele>156</ele>
        <time>2010-05-13T14:05:45Z</time>
      </trkpt>
      <trkpt lat="48.72801" lon="1.82014">
        <ele>155</ele>
        <time>2010-05-13T14:05:46Z</time>
      </trkpt>
      <trkpt lat="48.72802" lon="1.82012">
        <ele>154</ele>
        <time>2010-05-13T14:05:47Z</time>
      </trkpt>
      <trkpt lat="48.72802" lon="1.8201">
        <ele>153</ele>
        <time>2010-05-13T14:05:48Z</time>
      </trkpt>
      <trkpt lat="48.72803" lon="1.82008">
        <ele>152</ele>
        <time>2010-05-13T14:05:49Z</time>
      </trkpt>
      <trkpt lat="48.72804" lon="1.82006">
        <ele>151</ele>
        <time>2010-05-13T14:05:50Z</time>
      </trkpt>
      <trkpt lat="48.72805" lon="1.82005">
        <ele>150</ele>
        <time>2010-05-13T14:05:51Z</time>
      </trkpt>
      <trkpt lat="48.72805" lon="1.82001">
        <ele>150</ele>
        <time>2010-05-13T14:05:52Z</time>
      </trkpt>
      <trkpt lat="48.72805" lon="1.82">
        <ele>150</ele>
        <time>2010-05-13T14:05:53Z</time>
      </trkpt>
      <trkpt lat="48.72806" lon="1.81998">
        <ele>150</ele>
        <time>2010-05-13T14:05:54Z</time>
      </trkpt>
      <trkpt lat="48.72807" lon="1.81996">
        <ele>150</ele>
        <time>2010-05-13T14:05:55Z</time>
      </trkpt>
      <trkpt lat="48.72807" lon="1.81994">
        <ele>150</ele>
        <time>2010-05-13T14:05:56Z</time>
      </trkpt>
      <trkpt lat="48.72808" lon="1.81992">
        <ele>150</ele>
        <time>2010-05-13T14:05:57Z</time>
      </trkpt>
      <trkpt lat="48.72808" lon="1.8199">
        <ele>150</ele>
        <time>2010-05-13T14:05:58Z</time>
      </trkpt>
      <trkpt lat="48.72809" lon="1.81987">
        <ele>150</ele>
        <time>2010-05-13T14:05:59Z</time>
      </trkpt>
      <trkpt lat="48.7281" lon="1.81984">
        <ele>149</ele>
        <time>2010-05-13T14:06:00Z</time>
      </trkpt>
      <trkpt lat="48.72812" lon="1.81981">
        <ele>148</ele>
        <time>2010-05-13T14:06:01Z</time>
      </trkpt>
      <trkpt lat="48.72813" lon="1.81978">
        <ele>147</ele>
        <time>2010-05-13T14:06:02Z</time>
      </trkpt>
      <trkpt lat="48.72814" lon="1.81976">
        <ele>146</ele>
        <time>2010-05-13T14:06:03Z</time>
      </trkpt>
      <trkpt lat="48.72816" lon="1.81972">
        <ele>145</ele>
        <time>2010-05-13T14:06:04Z</time>
      </trkpt>
      <trkpt lat="48.72816" lon="1.81969">
        <ele>144</ele>
        <time>2010-05-13T14:06:05Z</time>
      </trkpt>
      <trkpt lat="48.72818" lon="1.81966">
        <ele>143</ele>
        <time>2010-05-13T14:06:06Z</time>
      </trkpt>
      <trkpt lat="48.72819" lon="1.81964">
        <ele>142</ele>
        <time>2010-05-13T14:06:07Z</time>
      </trkpt>
      <trkpt lat="48.7282" lon="1.81961">
        <ele>141</ele>
        <time>2010-05-13T14:06:07Z</time>
      </trkpt>
      <trkpt lat="48.72821" lon="1.81957">
        <ele>140</ele>
        <time>2010-05-13T14:06:09Z</time>
      </trkpt>
      <trkpt lat="48.72822" lon="1.81954">
        <ele>139</ele>
        <time>2010-05-13T14:06:10Z</time>
      </trkpt>
      <trkpt lat="48.72823" lon="1.8195">
        <ele>139</ele>
        <time>2010-05-13T14:06:11Z</time>
      </trkpt>
      <trkpt lat="48.72824" lon="1.81947">
        <ele>138</ele>
        <time>2010-05-13T14:06:12Z</time>
      </trkpt>
      <trkpt lat="48.72826" lon="1.81944">
        <ele>137</ele>
        <time>2010-05-13T14:06:13Z</time>
      </trkpt>
      <trkpt lat="48.72826" lon="1.81941">
        <ele>137</ele>
        <time>2010-05-13T14:06:14Z</time>
      </trkpt>
      <trkpt lat="48.72828" lon="1.81937">
        <ele>136</ele>
        <time>2010-05-13T14:06:15Z</time>
      </trkpt>
      <trkpt lat="48.72829" lon="1.81933">
        <ele>135</ele>
        <time>2010-05-13T14:06:16Z</time>
      </trkpt>
      <trkpt lat="48.7283" lon="1.81929">
        <ele>134</ele>
        <time>2010-05-13T14:06:17Z</time>
      </trkpt>
      <trkpt lat="48.72831" lon="1.81927">
        <ele>133</ele>
        <time>2010-05-13T14:06:18Z</time>
      </trkpt>
      <trkpt lat="48.72831" lon="1.81925">
        <ele>132</ele>
        <time>2010-05-13T14:06:19Z</time>
      </trkpt>
      <trkpt lat="48.72833" lon="1.81922">
        <ele>131</ele>
        <time>2010-05-13T14:06:20Z</time>
      </trkpt>
      <trkpt lat="48.72834" lon="1.8192">
        <ele>130</ele>
        <time>2010-05-13T14:06:21Z</time>
      </trkpt>
      <trkpt lat="48.72834" lon="1.81915">
        <ele>130</ele>
        <time>2010-05-13T14:06:22Z</time>
      </trkpt>
      <trkpt lat="48.72834" lon="1.81913">
        <ele>130</ele>
        <time>2010-05-13T14:06:23Z</time>
      </trkpt>
      <trkpt lat="48.72835" lon="1.8191">
        <ele>130</ele>
        <time>2010-05-13T14:06:24Z</time>
      </trkpt>
      <trkpt lat="48.72835" lon="1.81908">
        <ele>130</ele>
        <time>2010-05-13T14:06:25Z</time>
      </trkpt>
      <trkpt lat="48.72837" lon="1.81906">
        <ele>130</ele>
        <time>2010-05-13T14:06:26Z</time>
      </trkpt>
      <trkpt lat="48.72837" lon="1.81904">
        <ele>130</ele>
        <time>2010-05-13T14:06:27Z</time>
      </trkpt>
      <trkpt lat="48.72838" lon="1.81902">
        <ele>130</ele>
        <time>2010-05-13T14:06:28Z</time>
      </trkpt>
      <trkpt lat="48.72838" lon="1.819">
        <ele>130</ele>
        <time>2010-05-13T14:06:29Z</time>
      </trkpt>
      <trkpt lat="48.72839" lon="1.81898">
        <ele>130</ele>
        <time>2010-05-13T14:06:30Z</time>
      </trkpt>
      <trkpt lat="48.72839" lon="1.81896">
        <ele>130</ele>
        <time>2010-05-13T14:06:31Z</time>
      </trkpt>
      <trkpt lat="48.72841" lon="1.81893">
        <ele>130</ele>
        <time>2010-05-13T14:06:33Z</time>
      </trkpt>
      <trkpt lat="48.72841" lon="1.81891">
        <ele>130</ele>
        <time>2010-05-13T14:06:34Z</time>
      </trkpt>
      <trkpt lat="48.72841" lon="1.81889">
        <ele>130</ele>
        <time>2010-05-13T14:06:35Z</time>
      </trkpt>
      <trkpt lat="48.72842" lon="1.81887">
        <ele>130</ele>
        <time>2010-05-13T14:06:36Z</time>
      </trkpt>
      <trkpt lat="48.72843" lon="1.81885">
        <ele>130</ele>
        <time>2010-05-13T14:06:37Z</time>
      </trkpt>
      <trkpt lat="48.72844" lon="1.81883">
        <ele>130</ele>
        <time>2010-05-13T14:06:38Z</time>
      </trkpt>
      <trkpt lat="48.72844" lon="1.81881">
        <ele>130</ele>
        <time>2010-05-13T14:06:39Z</time>
      </trkpt>
      <trkpt lat="48.72845" lon="1.81879">
        <ele>130</ele>
        <time>2010-05-13T14:06:40Z</time>
      </trkpt>
      <trkpt lat="48.72845" lon="1.81877">
        <ele>130</ele>
        <time>2010-05-13T14:06:41Z</time>
      </trkpt>
      <trkpt lat="48.72845" lon="1.81874">
        <ele>130</ele>
        <time>2010-05-13T14:06:43Z</time>
      </trkpt>
      <trkpt lat="48.72846" lon="1.81871">
        <ele>130</ele>
        <time>2010-05-13T14:06:44Z</time>
      </trkpt>
      <trkpt lat="48.72846" lon="1.81869">
        <ele>130</ele>
        <time>2010-05-13T14:06:45Z</time>
      </trkpt>
      <trkpt lat="48.72847" lon="1.81866">
        <ele>130</ele>
        <time>2010-05-13T14:06:47Z</time>
      </trkpt>
      <trkpt lat="48.72847" lon="1.81864">
        <ele>130</ele>
        <time>2010-05-13T14:06:48Z</time>
      </trkpt>
      <trkpt lat="48.72848" lon="1.81861">
        <ele>130</ele>
        <time>2010-05-13T14:06:49Z</time>
      </trkpt>
      <trkpt lat="48.72848" lon="1.81859">
        <ele>130</ele>
        <time>2010-05-13T14:06:50Z</time>
      </trkpt>
      <trkpt lat="48.72849" lon="1.81857">
        <ele>130</ele>
        <time>2010-05-13T14:06:51Z</time>
      </trkpt>
      <trkpt lat="48.72849" lon="1.81855">
        <ele>130</ele>
        <time>2010-05-13T14:06:52Z</time>
      </trkpt>
      <trkpt lat="48.72853" lon="1.81851">
        <ele>130</ele>
        <time>2010-05-13T14:06:56Z</time>
      </trkpt>
      <trkpt lat="48.72854" lon="1.81849">
        <ele>130</ele>
        <time>2010-05-13T14:06:57Z</time>
      </trkpt>
      <trkpt lat="48.72855" lon="1.81848">
        <ele>130</ele>
        <time>2010-05-13T14:06:58Z</time>
      </trkpt>
      <trkpt lat="48.72857" lon="1.81847">
        <ele>130</ele>
        <time>2010-05-13T14:06:59Z</time>
      </trkpt>
      <trkpt lat="48.72857" lon="1.81845">
        <ele>129</ele>
        <time>2010-05-13T14:07:00Z</time>
      </trkpt>
      <trkpt lat="48.72857" lon="1.81843">
        <ele>129</ele>
        <time>2010-05-13T14:07:01Z</time>
      </trkpt>
      <trkpt lat="48.72858" lon="1.81841">
        <ele>129</ele>
        <time>2010-05-13T14:07:02Z</time>
      </trkpt>
      <trkpt lat="48.72859" lon="1.81836">
        <ele>128</ele>
        <time>2010-05-13T14:07:03Z</time>
      </trkpt>
      <trkpt lat="48.7286" lon="1.81833">
        <ele>128</ele>
        <time>2010-05-13T14:07:04Z</time>
      </trkpt>
      <trkpt lat="48.7286" lon="1.81828">
        <ele>128</ele>
        <time>2010-05-13T14:07:05Z</time>
      </trkpt>
      <trkpt lat="48.72861" lon="1.81825">
        <ele>128</ele>
        <time>2010-05-13T14:07:06Z</time>
      </trkpt>
      <trkpt lat="48.72862" lon="1.81821">
        <ele>128</ele>
        <time>2010-05-13T14:07:07Z</time>
      </trkpt>
      <trkpt lat="48.72862" lon="1.81817">
        <ele>128</ele>
        <time>2010-05-13T14:07:08Z</time>
      </trkpt>
      <trkpt lat="48.72861" lon="1.81813">
        <ele>128</ele>
        <time>2010-05-13T14:07:09Z</time>
      </trkpt>
      <trkpt lat="48.72861" lon="1.8181">
        <ele>128</ele>
        <time>2010-05-13T14:07:10Z</time>
      </trkpt>
      <trkpt lat="48.72862" lon="1.81807">
        <ele>128</ele>
        <time>2010-05-13T14:07:11Z</time>
      </trkpt>
      <trkpt lat="48.72862" lon="1.81804">
        <ele>128</ele>
        <time>2010-05-13T14:07:12Z</time>
      </trkpt>
      <trkpt lat="48.72862" lon="1.81802">
        <ele>128</ele>
        <time>2010-05-13T14:07:13Z</time>
      </trkpt>
      <trkpt lat="48.72863" lon="1.818">
        <ele>128</ele>
        <time>2010-05-13T14:07:14Z</time>
      </trkpt>
      <trkpt lat="48.72864" lon="1.81798">
        <ele>128</ele>
        <time>2010-05-13T14:07:15Z</time>
      </trkpt>
      <trkpt lat="48.72865" lon="1.81795">
        <ele>128</ele>
        <time>2010-05-13T14:07:16Z</time>
      </trkpt>
      <trkpt lat="48.72866" lon="1.81793">
        <ele>128</ele>
        <time>2010-05-13T14:07:17Z</time>
      </trkpt>
      <trkpt lat="48.72867" lon="1.81791">
        <ele>128</ele>
        <time>2010-05-13T14:07:18Z</time>
      </trkpt>
      <trkpt lat="48.72867" lon="1.81788">
        <ele>128</ele>
        <time>2010-05-13T14:07:19Z</time>
      </trkpt>
      <trkpt lat="48.72869" lon="1.81785">
        <ele>128</ele>
        <time>2010-05-13T14:07:20Z</time>
      </trkpt>
      <trkpt lat="48.7287" lon="1.81782">
        <ele>128</ele>
        <time>2010-05-13T14:07:21Z</time>
      </trkpt>
      <trkpt lat="48.7287" lon="1.81779">
        <ele>128</ele>
        <time>2010-05-13T14:07:22Z</time>
      </trkpt>
      <trkpt lat="48.72871" lon="1.81775">
        <ele>128</ele>
        <time>2010-05-13T14:07:23Z</time>
      </trkpt>
      <trkpt lat="48.72872" lon="1.81772">
        <ele>128</ele>
        <time>2010-05-13T14:07:24Z</time>
      </trkpt>
      <trkpt lat="48.72873" lon="1.81769">
        <ele>128</ele>
        <time>2010-05-13T14:07:25Z</time>
      </trkpt>
      <trkpt lat="48.72874" lon="1.81766">
        <ele>128</ele>
        <time>2010-05-13T14:07:26Z</time>
      </trkpt>
      <trkpt lat="48.72874" lon="1.81764">
        <ele>128</ele>
        <time>2010-05-13T14:07:27Z</time>
      </trkpt>
      <trkpt lat="48.72875" lon="1.81762">
        <ele>128</ele>
        <time>2010-05-13T14:07:28Z</time>
      </trkpt>
      <trkpt lat="48.72876" lon="1.8176">
        <ele>128</ele>
        <time>2010-05-13T14:07:29Z</time>
      </trkpt>
      <trkpt lat="48.72876" lon="1.81758">
        <ele>128</ele>
        <time>2010-05-13T14:07:30Z</time>
      </trkpt>
      <trkpt lat="48.72877" lon="1.81756">
        <ele>128</ele>
        <time>2010-05-13T14:07:31Z</time>
      </trkpt>
      <trkpt lat="48.72878" lon="1.81754">
        <ele>128</ele>
        <time>2010-05-13T14:07:32Z</time>
      </trkpt>
      <trkpt lat="48.72879" lon="1.81752">
        <ele>128</ele>
        <time>2010-05-13T14:07:33Z</time>
      </trkpt>
      <trkpt lat="48.7288" lon="1.81749">
        <ele>128</ele>
        <time>2010-05-13T14:07:35Z</time>
      </trkpt>
      <trkpt lat="48.7288" lon="1.81747">
        <ele>128</ele>
        <time>2010-05-13T14:07:36Z</time>
      </trkpt>
      <trkpt lat="48.72881" lon="1.81745">
        <ele>128</ele>
        <time>2010-05-13T14:07:37Z</time>
      </trkpt>
      <trkpt lat="48.72882" lon="1.81743">
        <ele>128</ele>
        <time>2010-05-13T14:07:38Z</time>
      </trkpt>
      <trkpt lat="48.72883" lon="1.81741">
        <ele>128</ele>
        <time>2010-05-13T14:07:39Z</time>
      </trkpt>
      <trkpt lat="48.72883" lon="1.81737">
        <ele>128</ele>
        <time>2010-05-13T14:07:41Z</time>
      </trkpt>
      <trkpt lat="48.72884" lon="1.81735">
        <ele>128</ele>
        <time>2010-05-13T14:07:42Z</time>
      </trkpt>
      <trkpt lat="48.72885" lon="1.81733">
        <ele>128</ele>
        <time>2010-05-13T14:07:43Z</time>
      </trkpt>
      <trkpt lat="48.72886" lon="1.81731">
        <ele>128</ele>
        <time>2010-05-13T14:07:44Z</time>
      </trkpt>
      <trkpt lat="48.72886" lon="1.8173">
        <ele>128</ele>
        <time>2010-05-13T14:07:45Z</time>
      </trkpt>
      <trkpt lat="48.72887" lon="1.81728">
        <ele>128</ele>
        <time>2010-05-13T14:07:46Z</time>
      </trkpt>
      <trkpt lat="48.72888" lon="1.81725">
        <ele>128</ele>
        <time>2010-05-13T14:07:47Z</time>
      </trkpt>
      <trkpt lat="48.72889" lon="1.81723">
        <ele>128</ele>
        <time>2010-05-13T14:07:48Z</time>
      </trkpt>
      <trkpt lat="48.7289" lon="1.81722">
        <ele>128</ele>
        <time>2010-05-13T14:07:49Z</time>
      </trkpt>
      <trkpt lat="48.72891" lon="1.8172">
        <ele>128</ele>
        <time>2010-05-13T14:07:50Z</time>
      </trkpt>
      <trkpt lat="48.72892" lon="1.81719">
        <ele>128</ele>
        <time>2010-05-13T14:07:51Z</time>
      </trkpt>
      <trkpt lat="48.72893" lon="1.81715">
        <ele>128</ele>
        <time>2010-05-13T14:07:52Z</time>
      </trkpt>
      <trkpt lat="48.72894" lon="1.81713">
        <ele>128</ele>
        <time>2010-05-13T14:07:53Z</time>
      </trkpt>
      <trkpt lat="48.72897" lon="1.81712">
        <ele>130</ele>
        <time>2010-05-13T14:07:55Z</time>
      </trkpt>
      <trkpt lat="48.72899" lon="1.81713">
        <ele>131</ele>
        <time>2010-05-13T14:07:55Z</time>
      </trkpt>
      <trkpt lat="48.72902" lon="1.81715">
        <ele>132</ele>
        <time>2010-05-13T14:07:57Z</time>
      </trkpt>
      <trkpt lat="48.72904" lon="1.81715">
        <ele>133</ele>
        <time>2010-05-13T14:07:58Z</time>
      </trkpt>
      <trkpt lat="48.72907" lon="1.81715">
        <ele>134</ele>
        <time>2010-05-13T14:07:59Z</time>
      </trkpt>
      <trkpt lat="48.72908" lon="1.81714">
        <ele>135</ele>
        <time>2010-05-13T14:07:59Z</time>
      </trkpt>
      <trkpt lat="48.7291" lon="1.81713">
        <ele>137</ele>
        <time>2010-05-13T14:08:02Z</time>
      </trkpt>
      <trkpt lat="48.72912" lon="1.81712">
        <ele>138</ele>
        <time>2010-05-13T14:08:02Z</time>
      </trkpt>
      <trkpt lat="48.72914" lon="1.81712">
        <ele>139</ele>
        <time>2010-05-13T14:08:04Z</time>
      </trkpt>
      <trkpt lat="48.72916" lon="1.81712">
        <ele>140</ele>
        <time>2010-05-13T14:08:04Z</time>
      </trkpt>
      <trkpt lat="48.72918" lon="1.81712">
        <ele>142</ele>
        <time>2010-05-13T14:08:05Z</time>
      </trkpt>
      <trkpt lat="48.72919" lon="1.81713">
        <ele>144</ele>
        <time>2010-05-13T14:08:07Z</time>
      </trkpt>
      <trkpt lat="48.72921" lon="1.81714">
        <ele>146</ele>
        <time>2010-05-13T14:08:08Z</time>
      </trkpt>
      <trkpt lat="48.72924" lon="1.81715">
        <ele>147</ele>
        <time>2010-05-13T14:08:09Z</time>
      </trkpt>
      <trkpt lat="48.72926" lon="1.81717">
        <ele>149</ele>
        <time>2010-05-13T14:08:10Z</time>
      </trkpt>
      <trkpt lat="48.72927" lon="1.8172">
        <ele>150</ele>
        <time>2010-05-13T14:08:11Z</time>
      </trkpt>
      <trkpt lat="48.72929" lon="1.81722">
        <ele>151</ele>
        <time>2010-05-13T14:08:12Z</time>
      </trkpt>
      <trkpt lat="48.72932" lon="1.81724">
        <ele>153</ele>
        <time>2010-05-13T14:08:13Z</time>
      </trkpt>
      <trkpt lat="48.72933" lon="1.81726">
        <ele>154</ele>
        <time>2010-05-13T14:08:14Z</time>
      </trkpt>
      <trkpt lat="48.72936" lon="1.81728">
        <ele>156</ele>
        <time>2010-05-13T14:08:14Z</time>
      </trkpt>
      <trkpt lat="48.72937" lon="1.8173">
        <ele>157</ele>
        <time>2010-05-13T14:08:15Z</time>
      </trkpt>
      <trkpt lat="48.72939" lon="1.81732">
        <ele>159</ele>
        <time>2010-05-13T14:08:17Z</time>
      </trkpt>
      <trkpt lat="48.72941" lon="1.81733">
        <ele>160</ele>
        <time>2010-05-13T14:08:17Z</time>
      </trkpt>
      <trkpt lat="48.72943" lon="1.81735">
        <ele>161</ele>
        <time>2010-05-13T14:08:19Z</time>
      </trkpt>
      <trkpt lat="48.72944" lon="1.81737">
        <ele>162</ele>
        <time>2010-05-13T14:08:20Z</time>
      </trkpt>
      <trkpt lat="48.72949" lon="1.81739">
        <ele>164</ele>
        <time>2010-05-13T14:08:21Z</time>
      </trkpt>
      <trkpt lat="48.7295" lon="1.81741">
        <ele>165</ele>
        <time>2010-05-13T14:08:23Z</time>
      </trkpt>
      <trkpt lat="48.72952" lon="1.81742">
        <ele>167</ele>
        <time>2010-05-13T14:08:25Z</time>
      </trkpt>
      <trkpt lat="48.72953" lon="1.81743">
        <ele>168</ele>
        <time>2010-05-13T14:08:26Z</time>
      </trkpt>
      <trkpt lat="48.72955" lon="1.81744">
        <ele>169</ele>
        <time>2010-05-13T14:08:27Z</time>
      </trkpt>
      <trkpt lat="48.72956" lon="1.81746">
        <ele>170</ele>
        <time>2010-05-13T14:08:28Z</time>
      </trkpt>
      <trkpt lat="48.72959" lon="1.81748">
        <ele>172</ele>
        <time>2010-05-13T14:08:30Z</time>
      </trkpt>
      <trkpt lat="48.72961" lon="1.81751">
        <ele>172</ele>
        <time>2010-05-13T14:08:32Z</time>
      </trkpt>
      <trkpt lat="48.72962" lon="1.81752">
        <ele>172</ele>
        <time>2010-05-13T14:08:33Z</time>
      </trkpt>
      <trkpt lat="48.72964" lon="1.81755">
        <ele>172</ele>
        <time>2010-05-13T14:08:35Z</time>
      </trkpt>
      <trkpt lat="48.72966" lon="1.81758">
        <ele>172</ele>
        <time>2010-05-13T14:08:37Z</time>
      </trkpt>
      <trkpt lat="48.72967" lon="1.81759">
        <ele>172</ele>
        <time>2010-05-13T14:08:38Z</time>
      </trkpt>
      <trkpt lat="48.7297" lon="1.8176">
        <ele>173</ele>
        <time>2010-05-13T14:08:39Z</time>
      </trkpt>
      <trkpt lat="48.72971" lon="1.81762">
        <ele>173</ele>
        <time>2010-05-13T14:08:40Z</time>
      </trkpt>
      <trkpt lat="48.72972" lon="1.81763">
        <ele>174</ele>
        <time>2010-05-13T14:08:41Z</time>
      </trkpt>
      <trkpt lat="48.72974" lon="1.81765">
        <ele>175</ele>
        <time>2010-05-13T14:08:42Z</time>
      </trkpt>
      <trkpt lat="48.72975" lon="1.81768">
        <ele>176</ele>
        <time>2010-05-13T14:08:43Z</time>
      </trkpt>
      <trkpt lat="48.72977" lon="1.81771">
        <ele>176</ele>
        <time>2010-05-13T14:08:44Z</time>
      </trkpt>
      <trkpt lat="48.72978" lon="1.81773">
        <ele>177</ele>
        <time>2010-05-13T14:08:44Z</time>
      </trkpt>
      <trkpt lat="48.7298" lon="1.81776">
        <ele>177</ele>
        <time>2010-05-13T14:08:46Z</time>
      </trkpt>
      <trkpt lat="48.72982" lon="1.81779">
        <ele>177</ele>
        <time>2010-05-13T14:08:47Z</time>
      </trkpt>
      <trkpt lat="48.72984" lon="1.81782">
        <ele>177</ele>
        <time>2010-05-13T14:08:48Z</time>
      </trkpt>
      <trkpt lat="48.72986" lon="1.81785">
        <ele>177</ele>
        <time>2010-05-13T14:08:49Z</time>
      </trkpt>
      <trkpt lat="48.72988" lon="1.81787">
        <ele>178</ele>
        <time>2010-05-13T14:08:50Z</time>
      </trkpt>
      <trkpt lat="48.72989" lon="1.81788">
        <ele>179</ele>
        <time>2010-05-13T14:08:51Z</time>
      </trkpt>
      <trkpt lat="48.72991" lon="1.8179">
        <ele>180</ele>
        <time>2010-05-13T14:08:52Z</time>
      </trkpt>
      <trkpt lat="48.72993" lon="1.81793">
        <ele>181</ele>
        <time>2010-05-13T14:08:53Z</time>
      </trkpt>
      <trkpt lat="48.72995" lon="1.81794">
        <ele>181</ele>
        <time>2010-05-13T14:08:54Z</time>
      </trkpt>
      <trkpt lat="48.72996" lon="1.81795">
        <ele>182</ele>
        <time>2010-05-13T14:08:55Z</time>
      </trkpt>
      <trkpt lat="48.72998" lon="1.81796">
        <ele>182</ele>
        <time>2010-05-13T14:08:56Z</time>
      </trkpt>
      <trkpt lat="48.73" lon="1.81797">
        <ele>183</ele>
        <time>2010-05-13T14:08:57Z</time>
      </trkpt>
      <trkpt lat="48.73002" lon="1.81798">
        <ele>183</ele>
        <time>2010-05-13T14:08:58Z</time>
      </trkpt>
      <trkpt lat="48.73004" lon="1.818">
        <ele>183</ele>
        <time>2010-05-13T14:08:59Z</time>
      </trkpt>
      <trkpt lat="48.73006" lon="1.81802">
        <ele>183</ele>
        <time>2010-05-13T14:09:00Z</time>
      </trkpt>
      <trkpt lat="48.73007" lon="1.81803">
        <ele>183</ele>
        <time>2010-05-13T14:09:01Z</time>
      </trkpt>
      <trkpt lat="48.73008" lon="1.81804">
        <ele>184</ele>
        <time>2010-05-13T14:09:03Z</time>
      </trkpt>
      <trkpt lat="48.7301" lon="1.81806">
        <ele>184</ele>
        <time>2010-05-13T14:09:04Z</time>
      </trkpt>
      <trkpt lat="48.73011" lon="1.81809">
        <ele>185</ele>
        <time>2010-05-13T14:09:06Z</time>
      </trkpt>
      <trkpt lat="48.73012" lon="1.81811">
        <ele>185</ele>
        <time>2010-05-13T14:09:08Z</time>
      </trkpt>
      <trkpt lat="48.73012" lon="1.81812">
        <ele>185</ele>
        <time>2010-05-13T14:09:10Z</time>
      </trkpt>
      <trkpt lat="48.73015" lon="1.81815">
        <ele>185</ele>
        <time>2010-05-13T14:09:12Z</time>
      </trkpt>
      <trkpt lat="48.73016" lon="1.81817">
        <ele>185</ele>
        <time>2010-05-13T14:09:14Z</time>
      </trkpt>
      <trkpt lat="48.73018" lon="1.8182">
        <ele>185</ele>
        <time>2010-05-13T14:09:16Z</time>
      </trkpt>
      <trkpt lat="48.73019" lon="1.81822">
        <ele>185</ele>
        <time>2010-05-13T14:09:17Z</time>
      </trkpt>
      <trkpt lat="48.7302" lon="1.81823">
        <ele>185</ele>
        <time>2010-05-13T14:09:18Z</time>
      </trkpt>
      <trkpt lat="48.73021" lon="1.81825">
        <ele>185</ele>
        <time>2010-05-13T14:09:19Z</time>
      </trkpt>
      <trkpt lat="48.73023" lon="1.81827">
        <ele>185</ele>
        <time>2010-05-13T14:09:20Z</time>
      </trkpt>
      <trkpt lat="48.73026" lon="1.8183">
        <ele>185</ele>
        <time>2010-05-13T14:09:21Z</time>
      </trkpt>
      <trkpt lat="48.73028" lon="1.81832">
        <ele>185</ele>
        <time>2010-05-13T14:09:22Z</time>
      </trkpt>
      <trkpt lat="48.7303" lon="1.81835">
        <ele>185</ele>
        <time>2010-05-13T14:09:23Z</time>
      </trkpt>
      <trkpt lat="48.73032" lon="1.81838">
        <ele>185</ele>
        <time>2010-05-13T14:09:24Z</time>
      </trkpt>
      <trkpt lat="48.73033" lon="1.81841">
        <ele>185</ele>
        <time>2010-05-13T14:09:25Z</time>
      </trkpt>
      <trkpt lat="48.73036" lon="1.81844">
        <ele>185</ele>
        <time>2010-05-13T14:09:26Z</time>
      </trkpt>
      <trkpt lat="48.73039" lon="1.81846">
        <ele>185</ele>
        <time>2010-05-13T14:09:26Z</time>
      </trkpt>
      <trkpt lat="48.73041" lon="1.81847">
        <ele>185</ele>
        <time>2010-05-13T14:09:27Z</time>
      </trkpt>
      <trkpt lat="48.73042" lon="1.8185">
        <ele>185</ele>
        <time>2010-05-13T14:09:29Z</time>
      </trkpt>
      <trkpt lat="48.73043" lon="1.81851">
        <ele>185</ele>
        <time>2010-05-13T14:09:30Z</time>
      </trkpt>
      <trkpt lat="48.73045" lon="1.81852">
        <ele>185</ele>
        <time>2010-05-13T14:09:30Z</time>
      </trkpt>
      <trkpt lat="48.73045" lon="1.81854">
        <ele>185</ele>
        <time>2010-05-13T14:09:32Z</time>
      </trkpt>
      <trkpt lat="48.73047" lon="1.81855">
        <ele>185</ele>
        <time>2010-05-13T14:09:32Z</time>
      </trkpt>
      <trkpt lat="48.73048" lon="1.81858">
        <ele>185</ele>
        <time>2010-05-13T14:09:35Z</time>
      </trkpt>
      <trkpt lat="48.7305" lon="1.81861">
        <ele>185</ele>
        <time>2010-05-13T14:09:37Z</time>
      </trkpt>
      <trkpt lat="48.73052" lon="1.81863">
        <ele>184</ele>
        <time>2010-05-13T14:09:38Z</time>
      </trkpt>
      <trkpt lat="48.73053" lon="1.81865">
        <ele>184</ele>
        <time>2010-05-13T14:09:39Z</time>
      </trkpt>
      <trkpt lat="48.73054" lon="1.81866">
        <ele>184</ele>
        <time>2010-05-13T14:09:39Z</time>
      </trkpt>
      <trkpt lat="48.73056" lon="1.81868">
        <ele>184</ele>
        <time>2010-05-13T14:09:42Z</time>
      </trkpt>
      <trkpt lat="48.73058" lon="1.8187">
        <ele>184</ele>
        <time>2010-05-13T14:09:43Z</time>
      </trkpt>
      <trkpt lat="48.7306" lon="1.81873">
        <ele>184</ele>
        <time>2010-05-13T14:09:45Z</time>
      </trkpt>
      <trkpt lat="48.73062" lon="1.81876">
        <ele>184</ele>
        <time>2010-05-13T14:09:46Z</time>
      </trkpt>
      <trkpt lat="48.73064" lon="1.81877">
        <ele>184</ele>
        <time>2010-05-13T14:09:47Z</time>
      </trkpt>
      <trkpt lat="48.73065" lon="1.81878">
        <ele>183</ele>
        <time>2010-05-13T14:09:48Z</time>
      </trkpt>
      <trkpt lat="48.73065" lon="1.8188">
        <ele>183</ele>
        <time>2010-05-13T14:09:49Z</time>
      </trkpt>
      <trkpt lat="48.73067" lon="1.81883">
        <ele>182</ele>
        <time>2010-05-13T14:09:51Z</time>
      </trkpt>
      <trkpt lat="48.73068" lon="1.81885">
        <ele>182</ele>
        <time>2010-05-13T14:09:51Z</time>
      </trkpt>
      <trkpt lat="48.7307" lon="1.81887">
        <ele>182</ele>
        <time>2010-05-13T14:09:53Z</time>
      </trkpt>
      <trkpt lat="48.73072" lon="1.81889">
        <ele>182</ele>
        <time>2010-05-13T14:09:54Z</time>
      </trkpt>
      <trkpt lat="48.73073" lon="1.8189">
        <ele>182</ele>
        <time>2010-05-13T14:09:54Z</time>
      </trkpt>
      <trkpt lat="48.73074" lon="1.81891">
        <ele>182</ele>
        <time>2010-05-13T14:09:56Z</time>
      </trkpt>
      <trkpt lat="48.73076" lon="1.81893">
        <ele>182</ele>
        <time>2010-05-13T14:09:57Z</time>
      </trkpt>
      <trkpt lat="48.73078" lon="1.81896">
        <ele>182</ele>
        <time>2010-05-13T14:09:58Z</time>
      </trkpt>
      <trkpt lat="48.73079" lon="1.81897">
        <ele>182</ele>
        <time>2010-05-13T14:09:59Z</time>
      </trkpt>
      <trkpt lat="48.73081" lon="1.819">
        <ele>182</ele>
        <time>2010-05-13T14:10:01Z</time>
      </trkpt>
      <trkpt lat="48.73082" lon="1.81903">
        <ele>182</ele>
        <time>2010-05-13T14:10:03Z</time>
      </trkpt>
      <trkpt lat="48.73083" lon="1.81905">
        <ele>182</ele>
        <time>2010-05-13T14:10:04Z</time>
      </trkpt>
      <trkpt lat="48.73086" lon="1.81907">
        <ele>182</ele>
        <time>2010-05-13T14:10:06Z</time>
      </trkpt>
      <trkpt lat="48.73087" lon="1.81909">
        <ele>182</ele>
        <time>2010-05-13T14:10:07Z</time>
      </trkpt>
      <trkpt lat="48.7309" lon="1.81913">
        <ele>182</ele>
        <time>2010-05-13T14:10:09Z</time>
      </trkpt>
      <trkpt lat="48.73091" lon="1.81916">
        <ele>182</ele>
        <time>2010-05-13T14:10:10Z</time>
      </trkpt>
      <trkpt lat="48.73092" lon="1.81918">
        <ele>182</ele>
        <time>2010-05-13T14:10:11Z</time>
      </trkpt>
      <trkpt lat="48.73093" lon="1.81921">
        <ele>182</ele>
        <time>2010-05-13T14:10:12Z</time>
      </trkpt>
      <trkpt lat="48.73094" lon="1.81923">
        <ele>182</ele>
        <time>2010-05-13T14:10:13Z</time>
      </trkpt>
      <trkpt lat="48.73096" lon="1.81925">
        <ele>182</ele>
        <time>2010-05-13T14:10:15Z</time>
      </trkpt>
      <trkpt lat="48.73097" lon="1.81927">
        <ele>182</ele>
        <time>2010-05-13T14:10:16Z</time>
      </trkpt>
      <trkpt lat="48.73098" lon="1.81929">
        <ele>181</ele>
        <time>2010-05-13T14:10:17Z</time>
      </trkpt>
      <trkpt lat="48.73098" lon="1.81931">
        <ele>180</ele>
        <time>2010-05-13T14:10:18Z</time>
      </trkpt>
      <trkpt lat="48.73098" lon="1.81935">
        <ele>179</ele>
        <time>2010-05-13T14:10:20Z</time>
      </trkpt>
      <trkpt lat="48.73097" lon="1.81938">
        <ele>178</ele>
        <time>2010-05-13T14:10:22Z</time>
      </trkpt>
      <trkpt lat="48.73096" lon="1.8194">
        <ele>178</ele>
        <time>2010-05-13T14:10:24Z</time>
      </trkpt>
      <trkpt lat="48.73097" lon="1.81941">
        <ele>178</ele>
        <time>2010-05-13T14:10:26Z</time>
      </trkpt>
      <trkpt lat="48.73099" lon="1.81942">
        <ele>178</ele>
        <time>2010-05-13T14:10:27Z</time>
      </trkpt>
      <trkpt lat="48.73101" lon="1.81942">
        <ele>178</ele>
        <time>2010-05-13T14:10:29Z</time>
      </trkpt>
      <trkpt lat="48.73103" lon="1.8194">
        <ele>178</ele>
        <time>2010-05-13T14:10:31Z</time>
      </trkpt>
      <trkpt lat="48.73104" lon="1.81937">
        <ele>178</ele>
        <time>2010-05-13T14:10:33Z</time>
      </trkpt>
      <trkpt lat="48.73106" lon="1.81935">
        <ele>178</ele>
        <time>2010-05-13T14:10:35Z</time>
      </trkpt>
      <trkpt lat="48.73107" lon="1.81933">
        <ele>178</ele>
        <time>2010-05-13T14:10:36Z</time>
      </trkpt>
      <trkpt lat="48.73106" lon="1.81931">
        <ele>178</ele>
        <time>2010-05-13T14:10:37Z</time>
      </trkpt>
      <trkpt lat="48.73105" lon="1.81929">
        <ele>178</ele>
        <time>2010-05-13T14:10:38Z</time>
      </trkpt>
      <trkpt lat="48.73106" lon="1.81927">
        <ele>178</ele>
        <time>2010-05-13T14:10:40Z</time>
      </trkpt>
      <trkpt lat="48.73106" lon="1.81924">
        <ele>178</ele>
        <time>2010-05-13T14:10:42Z</time>
      </trkpt>
      <trkpt lat="48.73107" lon="1.81921">
        <ele>177</ele>
        <time>2010-05-13T14:10:44Z</time>
      </trkpt>
      <trkpt lat="48.73107" lon="1.81919">
        <ele>176</ele>
        <time>2010-05-13T14:10:45Z</time>
      </trkpt>
      <trkpt lat="48.73107" lon="1.81917">
        <ele>175</ele>
        <time>2010-05-13T14:10:45Z</time>
      </trkpt>
      <trkpt lat="48.73107" lon="1.81915">
        <ele>174</ele>
        <time>2010-05-13T14:10:47Z</time>
      </trkpt>
      <trkpt lat="48.73108" lon="1.81912">
        <ele>172</ele>
        <time>2010-05-13T14:10:49Z</time>
      </trkpt>
      <trkpt lat="48.73109" lon="1.8191">
        <ele>170</ele>
        <time>2010-05-13T14:10:51Z</time>
      </trkpt>
      <trkpt lat="48.7311" lon="1.81906">
        <ele>168</ele>
        <time>2010-05-13T14:10:53Z</time>
      </trkpt>
      <trkpt lat="48.73111" lon="1.81904">
        <ele>168</ele>
        <time>2010-05-13T14:10:54Z</time>
      </trkpt>
      <trkpt lat="48.73112" lon="1.81902">
        <ele>167</ele>
        <time>2010-05-13T14:10:55Z</time>
      </trkpt>
      <trkpt lat="48.73112" lon="1.819">
        <ele>166</ele>
        <time>2010-05-13T14:10:56Z</time>
      </trkpt>
      <trkpt lat="48.73112" lon="1.81898">
        <ele>165</ele>
        <time>2010-05-13T14:10:57Z</time>
      </trkpt>
      <trkpt lat="48.73113" lon="1.81896">
        <ele>164</ele>
        <time>2010-05-13T14:10:58Z</time>
      </trkpt>
      <trkpt lat="48.73113" lon="1.81894">
        <ele>164</ele>
        <time>2010-05-13T14:10:59Z</time>
      </trkpt>
      <trkpt lat="48.73115" lon="1.81893">
        <ele>164</ele>
        <time>2010-05-13T14:11:00Z</time>
      </trkpt>
      <trkpt lat="48.73115" lon="1.81891">
        <ele>163</ele>
        <time>2010-05-13T14:11:01Z</time>
      </trkpt>
      <trkpt lat="48.73116" lon="1.81889">
        <ele>163</ele>
        <time>2010-05-13T14:11:02Z</time>
      </trkpt>
      <trkpt lat="48.73117" lon="1.81887">
        <ele>163</ele>
        <time>2010-05-13T14:11:03Z</time>
      </trkpt>
      <trkpt lat="48.73118" lon="1.81886">
        <ele>162</ele>
        <time>2010-05-13T14:11:04Z</time>
      </trkpt>
      <trkpt lat="48.73119" lon="1.81884">
        <ele>162</ele>
        <time>2010-05-13T14:11:05Z</time>
      </trkpt>
      <trkpt lat="48.7312" lon="1.81882">
        <ele>162</ele>
        <time>2010-05-13T14:11:06Z</time>
      </trkpt>
      <trkpt lat="48.73122" lon="1.8188">
        <ele>162</ele>
        <time>2010-05-13T14:11:07Z</time>
      </trkpt>
      <trkpt lat="48.73122" lon="1.81878">
        <ele>162</ele>
        <time>2010-05-13T14:11:08Z</time>
      </trkpt>
      <trkpt lat="48.73123" lon="1.81876">
        <ele>162</ele>
        <time>2010-05-13T14:11:09Z</time>
      </trkpt>
      <trkpt lat="48.73124" lon="1.81874">
        <ele>162</ele>
        <time>2010-05-13T14:11:10Z</time>
      </trkpt>
      <trkpt lat="48.73125" lon="1.81872">
        <ele>162</ele>
        <time>2010-05-13T14:11:11Z</time>
      </trkpt>
      <trkpt lat="48.73125" lon="1.8187">
        <ele>162</ele>
        <time>2010-05-13T14:11:12Z</time>
      </trkpt>
      <trkpt lat="48.73126" lon="1.81867">
        <ele>162</ele>
        <time>2010-05-13T14:11:14Z</time>
      </trkpt>
      <trkpt lat="48.73128" lon="1.81865">
        <ele>162</ele>
        <time>2010-05-13T14:11:16Z</time>
      </trkpt>
      <trkpt lat="48.73129" lon="1.81864">
        <ele>162</ele>
        <time>2010-05-13T14:11:17Z</time>
      </trkpt>
      <trkpt lat="48.7313" lon="1.8186">
        <ele>162</ele>
        <time>2010-05-13T14:11:19Z</time>
      </trkpt>
      <trkpt lat="48.73132" lon="1.81859">
        <ele>162</ele>
        <time>2010-05-13T14:11:21Z</time>
      </trkpt>
      <trkpt lat="48.73133" lon="1.81856">
        <ele>162</ele>
        <time>2010-05-13T14:11:23Z</time>
      </trkpt>
      <trkpt lat="48.73135" lon="1.81854">
        <ele>162</ele>
        <time>2010-05-13T14:11:24Z</time>
      </trkpt>
      <trkpt lat="48.73136" lon="1.81852">
        <ele>162</ele>
        <time>2010-05-13T14:11:25Z</time>
      </trkpt>
      <trkpt lat="48.73137" lon="1.8185">
        <ele>162</ele>
        <time>2010-05-13T14:11:26Z</time>
      </trkpt>
      <trkpt lat="48.73138" lon="1.81848">
        <ele>162</ele>
        <time>2010-05-13T14:11:27Z</time>
      </trkpt>
      <trkpt lat="48.7314" lon="1.81845">
        <ele>162</ele>
        <time>2010-05-13T14:11:28Z</time>
      </trkpt>
      <trkpt lat="48.73141" lon="1.81842">
        <ele>162</ele>
        <time>2010-05-13T14:11:29Z</time>
      </trkpt>
      <trkpt lat="48.73142" lon="1.8184">
        <ele>161</ele>
        <time>2010-05-13T14:11:30Z</time>
      </trkpt>
      <trkpt lat="48.73143" lon="1.81838">
        <ele>160</ele>
        <time>2010-05-13T14:11:31Z</time>
      </trkpt>
      <trkpt lat="48.73143" lon="1.81834">
        <ele>159</ele>
        <time>2010-05-13T14:11:32Z</time>
      </trkpt>
      <trkpt lat="48.73144" lon="1.81833">
        <ele>159</ele>
        <time>2010-05-13T14:11:33Z</time>
      </trkpt>
      <trkpt lat="48.73145" lon="1.81828">
        <ele>159</ele>
        <time>2010-05-13T14:11:34Z</time>
      </trkpt>
      <trkpt lat="48.73146" lon="1.81825">
        <ele>159</ele>
        <time>2010-05-13T14:11:35Z</time>
      </trkpt>
      <trkpt lat="48.73147" lon="1.81822">
        <ele>158</ele>
        <time>2010-05-13T14:11:36Z</time>
      </trkpt>
      <trkpt lat="48.73148" lon="1.8182">
        <ele>158</ele>
        <time>2010-05-13T14:11:37Z</time>
      </trkpt>
      <trkpt lat="48.73149" lon="1.81819">
        <ele>158</ele>
        <time>2010-05-13T14:11:38Z</time>
      </trkpt>
      <trkpt lat="48.73151" lon="1.81817">
        <ele>157</ele>
        <time>2010-05-13T14:11:39Z</time>
      </trkpt>
      <trkpt lat="48.73152" lon="1.81815">
        <ele>157</ele>
        <time>2010-05-13T14:11:40Z</time>
      </trkpt>
      <trkpt lat="48.73154" lon="1.81813">
        <ele>156</ele>
        <time>2010-05-13T14:11:41Z</time>
      </trkpt>
      <trkpt lat="48.73155" lon="1.81811">
        <ele>156</ele>
        <time>2010-05-13T14:11:42Z</time>
      </trkpt>
      <trkpt lat="48.73156" lon="1.81809">
        <ele>155</ele>
        <time>2010-05-13T14:11:43Z</time>
      </trkpt>
      <trkpt lat="48.73157" lon="1.81807">
        <ele>155</ele>
        <time>2010-05-13T14:11:44Z</time>
      </trkpt>
      <trkpt lat="48.73159" lon="1.81804">
        <ele>154</ele>
        <time>2010-05-13T14:11:46Z</time>
      </trkpt>
      <trkpt lat="48.7316" lon="1.81799">
        <ele>153</ele>
        <time>2010-05-13T14:11:48Z</time>
      </trkpt>
      <trkpt lat="48.73161" lon="1.81795">
        <ele>152</ele>
        <time>2010-05-13T14:11:50Z</time>
      </trkpt>
      <trkpt lat="48.73161" lon="1.81793">
        <ele>152</ele>
        <time>2010-05-13T14:11:51Z</time>
      </trkpt>
      <trkpt lat="48.73163" lon="1.81789">
        <ele>152</ele>
        <time>2010-05-13T14:11:53Z</time>
      </trkpt>
      <trkpt lat="48.73165" lon="1.81787">
        <ele>152</ele>
        <time>2010-05-13T14:11:54Z</time>
      </trkpt>
      <trkpt lat="48.73166" lon="1.81783">
        <ele>152</ele>
        <time>2010-05-13T14:11:55Z</time>
      </trkpt>
      <trkpt lat="48.73167" lon="1.81779">
        <ele>152</ele>
        <time>2010-05-13T14:11:56Z</time>
      </trkpt>
      <trkpt lat="48.73168" lon="1.81775">
        <ele>152</ele>
        <time>2010-05-13T14:11:57Z</time>
      </trkpt>
      <trkpt lat="48.7317" lon="1.81772">
        <ele>152</ele>
        <time>2010-05-13T14:11:57Z</time>
      </trkpt>
      <trkpt lat="48.73171" lon="1.81769">
        <ele>152</ele>
        <time>2010-05-13T14:11:59Z</time>
      </trkpt>
      <trkpt lat="48.73172" lon="1.81766">
        <ele>152</ele>
        <time>2010-05-13T14:12:00Z</time>
      </trkpt>
      <trkpt lat="48.73172" lon="1.81764">
        <ele>152</ele>
        <time>2010-05-13T14:12:01Z</time>
      </trkpt>
      <trkpt lat="48.73173" lon="1.81763">
        <ele>152</ele>
        <time>2010-05-13T14:12:02Z</time>
      </trkpt>
      <trkpt lat="48.73175" lon="1.8176">
        <ele>152</ele>
        <time>2010-05-13T14:12:04Z</time>
      </trkpt>
      <trkpt lat="48.73176" lon="1.81758">
        <ele>152</ele>
        <time>2010-05-13T14:12:05Z</time>
      </trkpt>
      <trkpt lat="48.73176" lon="1.81756">
        <ele>152</ele>
        <time>2010-05-13T14:12:06Z</time>
      </trkpt>
      <trkpt lat="48.73177" lon="1.81754">
        <ele>152</ele>
        <time>2010-05-13T14:12:07Z</time>
      </trkpt>
      <trkpt lat="48.73179" lon="1.81751">
        <ele>152</ele>
        <time>2010-05-13T14:12:09Z</time>
      </trkpt>
      <trkpt lat="48.7318" lon="1.81749">
        <ele>152</ele>
        <time>2010-05-13T14:12:10Z</time>
      </trkpt>
      <trkpt lat="48.73181" lon="1.81748">
        <ele>152</ele>
        <time>2010-05-13T14:12:10Z</time>
      </trkpt>
      <trkpt lat="48.73181" lon="1.81745">
        <ele>152</ele>
        <time>2010-05-13T14:12:12Z</time>
      </trkpt>
      <trkpt lat="48.73183" lon="1.81741">
        <ele>152</ele>
        <time>2010-05-13T14:12:14Z</time>
      </trkpt>
      <trkpt lat="48.73184" lon="1.81737">
        <ele>152</ele>
        <time>2010-05-13T14:12:15Z</time>
      </trkpt>
      <trkpt lat="48.73185" lon="1.81734">
        <ele>152</ele>
        <time>2010-05-13T14:12:16Z</time>
      </trkpt>
      <trkpt lat="48.73187" lon="1.8173">
        <ele>152</ele>
        <time>2010-05-13T14:12:17Z</time>
      </trkpt>
      <trkpt lat="48.73188" lon="1.81726">
        <ele>152</ele>
        <time>2010-05-13T14:12:17Z</time>
      </trkpt>
      <trkpt lat="48.73189" lon="1.81723">
        <ele>152</ele>
        <time>2010-05-13T14:12:19Z</time>
      </trkpt>
      <trkpt lat="48.7319" lon="1.81719">
        <ele>152</ele>
        <time>2010-05-13T14:12:20Z</time>
      </trkpt>
      <trkpt lat="48.73191" lon="1.81716">
        <ele>152</ele>
        <time>2010-05-13T14:12:21Z</time>
      </trkpt>
      <trkpt lat="48.73192" lon="1.81714">
        <ele>153</ele>
        <time>2010-05-13T14:12:22Z</time>
      </trkpt>
      <trkpt lat="48.73193" lon="1.81712">
        <ele>153</ele>
        <time>2010-05-13T14:12:23Z</time>
      </trkpt>
      <trkpt lat="48.73195" lon="1.8171">
        <ele>153</ele>
        <time>2010-05-13T14:12:24Z</time>
      </trkpt>
      <trkpt lat="48.73196" lon="1.81707">
        <ele>153</ele>
        <time>2010-05-13T14:12:25Z</time>
      </trkpt>
      <trkpt lat="48.73197" lon="1.81705">
        <ele>154</ele>
        <time>2010-05-13T14:12:26Z</time>
      </trkpt>
      <trkpt lat="48.73198" lon="1.81703">
        <ele>154</ele>
        <time>2010-05-13T14:12:27Z</time>
      </trkpt>
      <trkpt lat="48.73199" lon="1.81701">
        <ele>154</ele>
        <time>2010-05-13T14:12:28Z</time>
      </trkpt>
      <trkpt lat="48.732" lon="1.81699">
        <ele>154</ele>
        <time>2010-05-13T14:12:29Z</time>
      </trkpt>
      <trkpt lat="48.732" lon="1.81697">
        <ele>154</ele>
        <time>2010-05-13T14:12:30Z</time>
      </trkpt>
      <trkpt lat="48.73201" lon="1.81695">
        <ele>154</ele>
        <time>2010-05-13T14:12:31Z</time>
      </trkpt>
      <trkpt lat="48.73203" lon="1.81694">
        <ele>155</ele>
        <time>2010-05-13T14:12:32Z</time>
      </trkpt>
      <trkpt lat="48.73205" lon="1.81691">
        <ele>155</ele>
        <time>2010-05-13T14:12:34Z</time>
      </trkpt>
      <trkpt lat="48.73207" lon="1.81687">
        <ele>155</ele>
        <time>2010-05-13T14:12:36Z</time>
      </trkpt>
      <trkpt lat="48.73208" lon="1.81685">
        <ele>155</ele>
        <time>2010-05-13T14:12:37Z</time>
      </trkpt>
      <trkpt lat="48.73209" lon="1.81683">
        <ele>155</ele>
        <time>2010-05-13T14:12:38Z</time>
      </trkpt>
      <trkpt lat="48.7321" lon="1.81681">
        <ele>156</ele>
        <time>2010-05-13T14:12:39Z</time>
      </trkpt>
      <trkpt lat="48.7321" lon="1.8168">
        <ele>156</ele>
        <time>2010-05-13T14:12:40Z</time>
      </trkpt>
      <trkpt lat="48.73211" lon="1.81678">
        <ele>156</ele>
        <time>2010-05-13T14:12:41Z</time>
      </trkpt>
      <trkpt lat="48.73213" lon="1.81674">
        <ele>156</ele>
        <time>2010-05-13T14:12:43Z</time>
      </trkpt>
      <trkpt lat="48.73215" lon="1.81673">
        <ele>156</ele>
        <time>2010-05-13T14:12:44Z</time>
      </trkpt>
      <trkpt lat="48.73216" lon="1.81671">
        <ele>157</ele>
        <time>2010-05-13T14:12:45Z</time>
      </trkpt>
      <trkpt lat="48.73217" lon="1.81668">
        <ele>158</ele>
        <time>2010-05-13T14:12:47Z</time>
      </trkpt>
      <trkpt lat="48.73218" lon="1.81666">
        <ele>158</ele>
        <time>2010-05-13T14:12:48Z</time>
      </trkpt>
      <trkpt lat="48.7322" lon="1.81663">
        <ele>159</ele>
        <time>2010-05-13T14:12:49Z</time>
      </trkpt>
      <trkpt lat="48.73221" lon="1.81661">
        <ele>159</ele>
        <time>2010-05-13T14:12:51Z</time>
      </trkpt>
      <trkpt lat="48.73221" lon="1.81659">
        <ele>159</ele>
        <time>2010-05-13T14:12:51Z</time>
      </trkpt>
      <trkpt lat="48.73224" lon="1.81657">
        <ele>159</ele>
        <time>2010-05-13T14:12:53Z</time>
      </trkpt>
      <trkpt lat="48.73226" lon="1.81653">
        <ele>160</ele>
        <time>2010-05-13T14:12:54Z</time>
      </trkpt>
      <trkpt lat="48.73228" lon="1.8165">
        <ele>160</ele>
        <time>2010-05-13T14:12:56Z</time>
      </trkpt>
      <trkpt lat="48.73229" lon="1.81647">
        <ele>160</ele>
        <time>2010-05-13T14:12:56Z</time>
      </trkpt>
      <trkpt lat="48.73231" lon="1.81644">
        <ele>160</ele>
        <time>2010-05-13T14:12:57Z</time>
      </trkpt>
      <trkpt lat="48.73233" lon="1.81641">
        <ele>160</ele>
        <time>2010-05-13T14:12:59Z</time>
      </trkpt>
      <trkpt lat="48.73234" lon="1.81639">
        <ele>160</ele>
        <time>2010-05-13T14:13:00Z</time>
      </trkpt>
      <trkpt lat="48.73235" lon="1.81636">
        <ele>160</ele>
        <time>2010-05-13T14:13:01Z</time>
      </trkpt>
      <trkpt lat="48.73235" lon="1.81633">
        <ele>160</ele>
        <time>2010-05-13T14:13:02Z</time>
      </trkpt>
      <trkpt lat="48.73237" lon="1.8163">
        <ele>160</ele>
        <time>2010-05-13T14:13:02Z</time>
      </trkpt>
      <trkpt lat="48.73237" lon="1.81628">
        <ele>160</ele>
        <time>2010-05-13T14:13:04Z</time>
      </trkpt>
      <trkpt lat="48.73239" lon="1.81624">
        <ele>160</ele>
        <time>2010-05-13T14:13:04Z</time>
      </trkpt>
      <trkpt lat="48.7324" lon="1.81622">
        <ele>160</ele>
        <time>2010-05-13T14:13:05Z</time>
      </trkpt>
      <trkpt lat="48.73241" lon="1.8162">
        <ele>160</ele>
        <time>2010-05-13T14:13:06Z</time>
      </trkpt>
      <trkpt lat="48.73242" lon="1.81618">
        <ele>160</ele>
        <time>2010-05-13T14:13:07Z</time>
      </trkpt>
      <trkpt lat="48.73243" lon="1.81616">
        <ele>160</ele>
        <time>2010-05-13T14:13:09Z</time>
      </trkpt>
      <trkpt lat="48.73246" lon="1.81614">
        <ele>160</ele>
        <time>2010-05-13T14:13:11Z</time>
      </trkpt>
      <trkpt lat="48.73247" lon="1.81611">
        <ele>160</ele>
        <time>2010-05-13T14:13:11Z</time>
      </trkpt>
      <trkpt lat="48.73248" lon="1.8161">
        <ele>160</ele>
        <time>2010-05-13T14:13:13Z</time>
      </trkpt>
      <trkpt lat="48.73249" lon="1.81608">
        <ele>160</ele>
        <time>2010-05-13T14:13:14Z</time>
      </trkpt>
      <trkpt lat="48.7325" lon="1.81606">
        <ele>160</ele>
        <time>2010-05-13T14:13:14Z</time>
      </trkpt>
      <trkpt lat="48.73251" lon="1.81604">
        <ele>160</ele>
        <time>2010-05-13T14:13:16Z</time>
      </trkpt>
      <trkpt lat="48.73251" lon="1.81601">
        <ele>160</ele>
        <time>2010-05-13T14:13:16Z</time>
      </trkpt>
      <trkpt lat="48.73251" lon="1.81599">
        <ele>160</ele>
        <time>2010-05-13T14:13:18Z</time>
      </trkpt>
      <trkpt lat="48.73253" lon="1.81597">
        <ele>160</ele>
        <time>2010-05-13T14:13:19Z</time>
      </trkpt>
      <trkpt lat="48.73253" lon="1.81595">
        <ele>160</ele>
        <time>2010-05-13T14:13:19Z</time>
      </trkpt>
      <trkpt lat="48.73255" lon="1.81592">
        <ele>160</ele>
        <time>2010-05-13T14:13:20Z</time>
      </trkpt>
      <trkpt lat="48.73256" lon="1.81589">
        <ele>160</ele>
        <time>2010-05-13T14:13:21Z</time>
      </trkpt>
      <trkpt lat="48.73258" lon="1.81586">
        <ele>160</ele>
        <time>2010-05-13T14:13:22Z</time>
      </trkpt>
      <trkpt lat="48.73261" lon="1.81581">
        <ele>161</ele>
        <time>2010-05-13T14:13:24Z</time>
      </trkpt>
      <trkpt lat="48.73263" lon="1.81578">
        <ele>162</ele>
        <time>2010-05-13T14:13:24Z</time>
      </trkpt>
      <trkpt lat="48.73264" lon="1.81575">
        <ele>162</ele>
        <time>2010-05-13T14:13:26Z</time>
      </trkpt>
      <trkpt lat="48.73265" lon="1.81572">
        <ele>163</ele>
        <time>2010-05-13T14:13:27Z</time>
      </trkpt>
      <trkpt lat="48.73266" lon="1.81569">
        <ele>164</ele>
        <time>2010-05-13T14:13:28Z</time>
      </trkpt>
      <trkpt lat="48.73269" lon="1.81566">
        <ele>164</ele>
        <time>2010-05-13T14:13:29Z</time>
      </trkpt>
      <trkpt lat="48.73271" lon="1.81563">
        <ele>165</ele>
        <time>2010-05-13T14:13:29Z</time>
      </trkpt>
      <trkpt lat="48.73271" lon="1.81561">
        <ele>166</ele>
        <time>2010-05-13T14:13:31Z</time>
      </trkpt>
      <trkpt lat="48.73272" lon="1.81559">
        <ele>167</ele>
        <time>2010-05-13T14:13:32Z</time>
      </trkpt>
      <trkpt lat="48.73274" lon="1.81557">
        <ele>168</ele>
        <time>2010-05-13T14:13:32Z</time>
      </trkpt>
      <trkpt lat="48.73274" lon="1.81555">
        <ele>169</ele>
        <time>2010-05-13T14:13:34Z</time>
      </trkpt>
      <trkpt lat="48.73274" lon="1.81553">
        <ele>169</ele>
        <time>2010-05-13T14:13:35Z</time>
      </trkpt>
      <trkpt lat="48.73275" lon="1.81551">
        <ele>170</ele>
        <time>2010-05-13T14:13:36Z</time>
      </trkpt>
      <trkpt lat="48.73277" lon="1.81549">
        <ele>171</ele>
        <time>2010-05-13T14:13:37Z</time>
      </trkpt>
      <trkpt lat="48.73279" lon="1.81547">
        <ele>171</ele>
        <time>2010-05-13T14:13:40Z</time>
      </trkpt>
      <trkpt lat="48.7328" lon="1.81544">
        <ele>171</ele>
        <time>2010-05-13T14:13:42Z</time>
      </trkpt>
      <trkpt lat="48.73282" lon="1.81541">
        <ele>171</ele>
        <time>2010-05-13T14:13:44Z</time>
      </trkpt>
      <trkpt lat="48.73283" lon="1.81538">
        <ele>171</ele>
        <time>2010-05-13T14:13:44Z</time>
      </trkpt>
      <trkpt lat="48.73285" lon="1.81535">
        <ele>171</ele>
        <time>2010-05-13T14:13:46Z</time>
      </trkpt>
      <trkpt lat="48.73285" lon="1.81531">
        <ele>171</ele>
        <time>2010-05-13T14:13:47Z</time>
      </trkpt>
      <trkpt lat="48.73287" lon="1.81528">
        <ele>171</ele>
        <time>2010-05-13T14:13:47Z</time>
      </trkpt>
      <trkpt lat="48.73288" lon="1.81524">
        <ele>171</ele>
        <time>2010-05-13T14:13:49Z</time>
      </trkpt>
      <trkpt lat="48.73289" lon="1.81522">
        <ele>171</ele>
        <time>2010-05-13T14:13:50Z</time>
      </trkpt>
      <trkpt lat="48.7329" lon="1.81519">
        <ele>171</ele>
        <time>2010-05-13T14:13:51Z</time>
      </trkpt>
      <trkpt lat="48.73292" lon="1.81516">
        <ele>171</ele>
        <time>2010-05-13T14:13:51Z</time>
      </trkpt>
      <trkpt lat="48.73292" lon="1.81514">
        <ele>171</ele>
        <time>2010-05-13T14:13:53Z</time>
      </trkpt>
      <trkpt lat="48.73293" lon="1.81512">
        <ele>171</ele>
        <time>2010-05-13T14:13:54Z</time>
      </trkpt>
      <trkpt lat="48.73294" lon="1.81509">
        <ele>171</ele>
        <time>2010-05-13T14:13:55Z</time>
      </trkpt>
      <trkpt lat="48.73295" lon="1.81507">
        <ele>171</ele>
        <time>2010-05-13T14:13:57Z</time>
      </trkpt>
      <trkpt lat="48.73296" lon="1.81505">
        <ele>171</ele>
        <time>2010-05-13T14:13:58Z</time>
      </trkpt>
      <trkpt lat="48.73296" lon="1.81503">
        <ele>171</ele>
        <time>2010-05-13T14:13:59Z</time>
      </trkpt>
      <trkpt lat="48.73297" lon="1.815">
        <ele>171</ele>
        <time>2010-05-13T14:14:01Z</time>
      </trkpt>
      <trkpt lat="48.73299" lon="1.81497">
        <ele>171</ele>
        <time>2010-05-13T14:14:03Z</time>
      </trkpt>
      <trkpt lat="48.733" lon="1.81495">
        <ele>171</ele>
        <time>2010-05-13T14:14:04Z</time>
      </trkpt>
      <trkpt lat="48.73302" lon="1.81492">
        <ele>171</ele>
        <time>2010-05-13T14:14:04Z</time>
      </trkpt>
      <trkpt lat="48.73303" lon="1.8149">
        <ele>171</ele>
        <time>2010-05-13T14:14:05Z</time>
      </trkpt>
      <trkpt lat="48.73304" lon="1.81487">
        <ele>171</ele>
        <time>2010-05-13T14:14:07Z</time>
      </trkpt>
      <trkpt lat="48.73305" lon="1.81484">
        <ele>171</ele>
        <time>2010-05-13T14:14:08Z</time>
      </trkpt>
      <trkpt lat="48.73305" lon="1.81481">
        <ele>171</ele>
        <time>2010-05-13T14:14:09Z</time>
      </trkpt>
      <trkpt lat="48.73306" lon="1.8148">
        <ele>171</ele>
        <time>2010-05-13T14:14:10Z</time>
      </trkpt>
      <trkpt lat="48.73308" lon="1.81477">
        <ele>171</ele>
        <time>2010-05-13T14:14:11Z</time>
      </trkpt>
      <trkpt lat="48.73309" lon="1.81475">
        <ele>171</ele>
        <time>2010-05-13T14:14:12Z</time>
      </trkpt>
      <trkpt lat="48.73309" lon="1.81473">
        <ele>171</ele>
        <time>2010-05-13T14:14:14Z</time>
      </trkpt>
      <trkpt lat="48.73311" lon="1.8147">
        <ele>171</ele>
        <time>2010-05-13T14:14:15Z</time>
      </trkpt>
      <trkpt lat="48.73312" lon="1.81467">
        <ele>171</ele>
        <time>2010-05-13T14:14:16Z</time>
      </trkpt>
      <trkpt lat="48.73314" lon="1.81464">
        <ele>171</ele>
        <time>2010-05-13T14:14:17Z</time>
      </trkpt>
      <trkpt lat="48.73315" lon="1.8146">
        <ele>171</ele>
        <time>2010-05-13T14:14:19Z</time>
      </trkpt>
      <trkpt lat="48.73317" lon="1.81457">
        <ele>171</ele>
        <time>2010-05-13T14:14:19Z</time>
      </trkpt>
      <trkpt lat="48.73318" lon="1.81454">
        <ele>171</ele>
        <time>2010-05-13T14:14:20Z</time>
      </trkpt>
      <trkpt lat="48.73319" lon="1.81451">
        <ele>171</ele>
        <time>2010-05-13T14:14:22Z</time>
      </trkpt>
      <trkpt lat="48.73321" lon="1.81449">
        <ele>171</ele>
        <time>2010-05-13T14:14:22Z</time>
      </trkpt>
      <trkpt lat="48.73322" lon="1.81446">
        <ele>171</ele>
        <time>2010-05-13T14:14:24Z</time>
      </trkpt>
      <trkpt lat="48.73324" lon="1.81442">
        <ele>171</ele>
        <time>2010-05-13T14:14:25Z</time>
      </trkpt>
      <trkpt lat="48.73326" lon="1.81438">
        <ele>171</ele>
        <time>2010-05-13T14:14:25Z</time>
      </trkpt>
      <trkpt lat="48.73328" lon="1.81433">
        <ele>171</ele>
        <time>2010-05-13T14:14:26Z</time>
      </trkpt>
      <trkpt lat="48.73329" lon="1.81429">
        <ele>171</ele>
        <time>2010-05-13T14:14:27Z</time>
      </trkpt>
      <trkpt lat="48.73331" lon="1.81425">
        <ele>171</ele>
        <time>2010-05-13T14:14:29Z</time>
      </trkpt>
      <trkpt lat="48.73332" lon="1.81421">
        <ele>171</ele>
        <time>2010-05-13T14:14:29Z</time>
      </trkpt>
      <trkpt lat="48.73334" lon="1.81416">
        <ele>171</ele>
        <time>2010-05-13T14:14:30Z</time>
      </trkpt>
      <trkpt lat="48.73336" lon="1.81412">
        <ele>171</ele>
        <time>2010-05-13T14:14:31Z</time>
      </trkpt>
      <trkpt lat="48.73338" lon="1.81408">
        <ele>171</ele>
        <time>2010-05-13T14:14:32Z</time>
      </trkpt>
      <trkpt lat="48.73339" lon="1.81404">
        <ele>171</ele>
        <time>2010-05-13T14:14:34Z</time>
      </trkpt>
      <trkpt lat="48.73341" lon="1.81399">
        <ele>171</ele>
        <time>2010-05-13T14:14:34Z</time>
      </trkpt>
      <trkpt lat="48.73343" lon="1.81394">
        <ele>171</ele>
        <time>2010-05-13T14:14:35Z</time>
      </trkpt>
      <trkpt lat="48.73345" lon="1.81389">
        <ele>171</ele>
        <time>2010-05-13T14:14:37Z</time>
      </trkpt>
      <trkpt lat="48.73347" lon="1.81385">
        <ele>171</ele>
        <time>2010-05-13T14:14:37Z</time>
      </trkpt>
      <trkpt lat="48.73349" lon="1.8138">
        <ele>171</ele>
        <time>2010-05-13T14:14:39Z</time>
      </trkpt>
      <trkpt lat="48.73351" lon="1.81376">
        <ele>171</ele>
        <time>2010-05-13T14:14:39Z</time>
      </trkpt>
      <trkpt lat="48.73353" lon="1.81373">
        <ele>171</ele>
        <time>2010-05-13T14:14:40Z</time>
      </trkpt>
      <trkpt lat="48.73355" lon="1.81368">
        <ele>171</ele>
        <time>2010-05-13T14:14:41Z</time>
      </trkpt>
      <trkpt lat="48.73357" lon="1.81365">
        <ele>171</ele>
        <time>2010-05-13T14:14:42Z</time>
      </trkpt>
      <trkpt lat="48.73359" lon="1.8136">
        <ele>171</ele>
        <time>2010-05-13T14:14:44Z</time>
      </trkpt>
      <trkpt lat="48.73362" lon="1.81356">
        <ele>171</ele>
        <time>2010-05-13T14:14:44Z</time>
      </trkpt>
      <trkpt lat="48.73364" lon="1.8135">
        <ele>171</ele>
        <time>2010-05-13T14:14:45Z</time>
      </trkpt>
      <trkpt lat="48.73367" lon="1.81343">
        <ele>171</ele>
        <time>2010-05-13T14:14:46Z</time>
      </trkpt>
      <trkpt lat="48.7337" lon="1.81336">
        <ele>171</ele>
        <time>2010-05-13T14:14:47Z</time>
      </trkpt>
      <trkpt lat="48.73373" lon="1.8133">
        <ele>171</ele>
        <time>2010-05-13T14:14:49Z</time>
      </trkpt>
      <trkpt lat="48.73376" lon="1.81323">
        <ele>171</ele>
        <time>2010-05-13T14:14:49Z</time>
      </trkpt>
      <trkpt lat="48.73379" lon="1.81316">
        <ele>171</ele>
        <time>2010-05-13T14:14:50Z</time>
      </trkpt>
      <trkpt lat="48.73382" lon="1.81309">
        <ele>171</ele>
        <time>2010-05-13T14:14:51Z</time>
      </trkpt>
      <trkpt lat="48.73385" lon="1.81302">
        <ele>171</ele>
        <time>2010-05-13T14:14:53Z</time>
      </trkpt>
      <trkpt lat="48.73387" lon="1.81295">
        <ele>171</ele>
        <time>2010-05-13T14:14:54Z</time>
      </trkpt>
      <trkpt lat="48.73391" lon="1.81288">
        <ele>171</ele>
        <time>2010-05-13T14:14:54Z</time>
      </trkpt>
      <trkpt lat="48.73394" lon="1.81282">
        <ele>171</ele>
        <time>2010-05-13T14:14:55Z</time>
      </trkpt>
      <trkpt lat="48.73396" lon="1.81276">
        <ele>171</ele>
        <time>2010-05-13T14:14:57Z</time>
      </trkpt>
      <trkpt lat="48.73399" lon="1.8127">
        <ele>171</ele>
        <time>2010-05-13T14:14:57Z</time>
      </trkpt>
      <trkpt lat="48.73402" lon="1.81264">
        <ele>171</ele>
        <time>2010-05-13T14:14:59Z</time>
      </trkpt>
      <trkpt lat="48.73404" lon="1.81258">
        <ele>171</ele>
        <time>2010-05-13T14:14:59Z</time>
      </trkpt>
      <trkpt lat="48.73407" lon="1.81252">
        <ele>171</ele>
        <time>2010-05-13T14:15:01Z</time>
      </trkpt>
      <trkpt lat="48.73409" lon="1.81247">
        <ele>171</ele>
        <time>2010-05-13T14:15:01Z</time>
      </trkpt>
      <trkpt lat="48.73411" lon="1.81241">
        <ele>171</ele>
        <time>2010-05-13T14:15:02Z</time>
      </trkpt>
      <trkpt lat="48.73414" lon="1.81235">
        <ele>171</ele>
        <time>2010-05-13T14:15:04Z</time>
      </trkpt>
      <trkpt lat="48.73417" lon="1.8123">
        <ele>171</ele>
        <time>2010-05-13T14:15:04Z</time>
      </trkpt>
      <trkpt lat="48.7342" lon="1.81224">
        <ele>171</ele>
        <time>2010-05-13T14:15:05Z</time>
      </trkpt>
      <trkpt lat="48.73422" lon="1.81218">
        <ele>171</ele>
        <time>2010-05-13T14:15:06Z</time>
      </trkpt>
      <trkpt lat="48.73424" lon="1.81213">
        <ele>171</ele>
        <time>2010-05-13T14:15:08Z</time>
      </trkpt>
      <trkpt lat="48.73426" lon="1.81207">
        <ele>171</ele>
        <time>2010-05-13T14:15:09Z</time>
      </trkpt>
      <trkpt lat="48.73428" lon="1.81202">
        <ele>171</ele>
        <time>2010-05-13T14:15:09Z</time>
      </trkpt>
      <trkpt lat="48.7343" lon="1.81196">
        <ele>171</ele>
        <time>2010-05-13T14:15:10Z</time>
      </trkpt>
      <trkpt lat="48.73433" lon="1.81191">
        <ele>171</ele>
        <time>2010-05-13T14:15:12Z</time>
      </trkpt>
      <trkpt lat="48.73435" lon="1.81186">
        <ele>171</ele>
        <time>2010-05-13T14:15:12Z</time>
      </trkpt>
      <trkpt lat="48.73437" lon="1.81181">
        <ele>171</ele>
        <time>2010-05-13T14:15:14Z</time>
      </trkpt>
      <trkpt lat="48.73439" lon="1.81175">
        <ele>171</ele>
        <time>2010-05-13T14:15:14Z</time>
      </trkpt>
      <trkpt lat="48.73442" lon="1.8117">
        <ele>171</ele>
        <time>2010-05-13T14:15:15Z</time>
      </trkpt>
      <trkpt lat="48.73445" lon="1.81164">
        <ele>171</ele>
        <time>2010-05-13T14:15:16Z</time>
      </trkpt>
      <trkpt lat="48.73447" lon="1.81158">
        <ele>171</ele>
        <time>2010-05-13T14:15:17Z</time>
      </trkpt>
      <trkpt lat="48.7345" lon="1.81153">
        <ele>171</ele>
        <time>2010-05-13T14:15:19Z</time>
      </trkpt>
      <trkpt lat="48.73453" lon="1.81147">
        <ele>171</ele>
        <time>2010-05-13T14:15:19Z</time>
      </trkpt>
      <trkpt lat="48.73455" lon="1.81142">
        <ele>171</ele>
        <time>2010-05-13T14:15:20Z</time>
      </trkpt>
      <trkpt lat="48.73457" lon="1.81137">
        <ele>171</ele>
        <time>2010-05-13T14:15:21Z</time>
      </trkpt>
      <trkpt lat="48.7346" lon="1.81131">
        <ele>171</ele>
        <time>2010-05-13T14:15:22Z</time>
      </trkpt>
      <trkpt lat="48.73463" lon="1.81125">
        <ele>171</ele>
        <time>2010-05-13T14:15:24Z</time>
      </trkpt>
      <trkpt lat="48.73466" lon="1.81118">
        <ele>171</ele>
        <time>2010-05-13T14:15:24Z</time>
      </trkpt>
      <trkpt lat="48.73469" lon="1.81112">
        <ele>171</ele>
        <time>2010-05-13T14:15:25Z</time>
      </trkpt>
      <trkpt lat="48.73471" lon="1.81107">
        <ele>171</ele>
        <time>2010-05-13T14:15:26Z</time>
      </trkpt>
      <trkpt lat="48.73473" lon="1.81102">
        <ele>171</ele>
        <time>2010-05-13T14:15:27Z</time>
      </trkpt>
      <trkpt lat="48.73476" lon="1.81097">
        <ele>172</ele>
        <time>2010-05-13T14:15:29Z</time>
      </trkpt>
      <trkpt lat="48.73478" lon="1.81092">
        <ele>172</ele>
        <time>2010-05-13T14:15:29Z</time>
      </trkpt>
      <trkpt lat="48.7348" lon="1.81086">
        <ele>172</ele>
        <time>2010-05-13T14:15:31Z</time>
      </trkpt>
      <trkpt lat="48.73483" lon="1.81081">
        <ele>173</ele>
        <time>2010-05-13T14:15:31Z</time>
      </trkpt>
      <trkpt lat="48.73485" lon="1.81075">
        <ele>173</ele>
        <time>2010-05-13T14:15:32Z</time>
      </trkpt>
      <trkpt lat="48.73487" lon="1.81071">
        <ele>174</ele>
        <time>2010-05-13T14:15:34Z</time>
      </trkpt>
      <trkpt lat="48.73488" lon="1.81066">
        <ele>174</ele>
        <time>2010-05-13T14:15:34Z</time>
      </trkpt>
      <trkpt lat="48.73489" lon="1.81061">
        <ele>174</ele>
        <time>2010-05-13T14:15:35Z</time>
      </trkpt>
      <trkpt lat="48.73492" lon="1.81056">
        <ele>174</ele>
        <time>2010-05-13T14:15:37Z</time>
      </trkpt>
      <trkpt lat="48.73495" lon="1.81051">
        <ele>174</ele>
        <time>2010-05-13T14:15:37Z</time>
      </trkpt>
      <trkpt lat="48.73497" lon="1.81046">
        <ele>174</ele>
        <time>2010-05-13T14:15:39Z</time>
      </trkpt>
      <trkpt lat="48.73501" lon="1.81042">
        <ele>174</ele>
        <time>2010-05-13T14:15:39Z</time>
      </trkpt>
      <trkpt lat="48.73503" lon="1.81037">
        <ele>174</ele>
        <time>2010-05-13T14:15:40Z</time>
      </trkpt>
      <trkpt lat="48.73505" lon="1.81032">
        <ele>174</ele>
        <time>2010-05-13T14:15:41Z</time>
      </trkpt>
      <trkpt lat="48.73507" lon="1.81026">
        <ele>174</ele>
        <time>2010-05-13T14:15:42Z</time>
      </trkpt>
      <trkpt lat="48.73509" lon="1.81021">
        <ele>174</ele>
        <time>2010-05-13T14:15:44Z</time>
      </trkpt>
      <trkpt lat="48.7351" lon="1.81016">
        <ele>174</ele>
        <time>2010-05-13T14:15:44Z</time>
      </trkpt>
      <trkpt lat="48.73511" lon="1.81011">
        <ele>174</ele>
        <time>2010-05-13T14:15:46Z</time>
      </trkpt>
      <trkpt lat="48.73513" lon="1.81006">
        <ele>174</ele>
        <time>2010-05-13T14:15:47Z</time>
      </trkpt>
      <trkpt lat="48.73514" lon="1.81001">
        <ele>174</ele>
        <time>2010-05-13T14:15:47Z</time>
      </trkpt>
      <trkpt lat="48.73515" lon="1.80996">
        <ele>174</ele>
        <time>2010-05-13T14:15:49Z</time>
      </trkpt>
      <trkpt lat="48.73516" lon="1.80991">
        <ele>174</ele>
        <time>2010-05-13T14:15:50Z</time>
      </trkpt>
      <trkpt lat="48.73519" lon="1.80986">
        <ele>174</ele>
        <time>2010-05-13T14:15:51Z</time>
      </trkpt>
      <trkpt lat="48.7352" lon="1.8098">
        <ele>174</ele>
        <time>2010-05-13T14:15:52Z</time>
      </trkpt>
      <trkpt lat="48.73522" lon="1.80975">
        <ele>173</ele>
        <time>2010-05-13T14:15:53Z</time>
      </trkpt>
      <trkpt lat="48.73523" lon="1.80969">
        <ele>173</ele>
        <time>2010-05-13T14:15:54Z</time>
      </trkpt>
      <trkpt lat="48.73526" lon="1.80964">
        <ele>172</ele>
        <time>2010-05-13T14:15:55Z</time>
      </trkpt>
      <trkpt lat="48.73528" lon="1.80959">
        <ele>171</ele>
        <time>2010-05-13T14:15:56Z</time>
      </trkpt>
      <trkpt lat="48.73529" lon="1.80954">
        <ele>170</ele>
        <time>2010-05-13T14:15:56Z</time>
      </trkpt>
      <trkpt lat="48.7353" lon="1.80948">
        <ele>169</ele>
        <time>2010-05-13T14:15:57Z</time>
      </trkpt>
      <trkpt lat="48.73532" lon="1.80943">
        <ele>168</ele>
        <time>2010-05-13T14:15:59Z</time>
      </trkpt>
      <trkpt lat="48.73533" lon="1.80938">
        <ele>168</ele>
        <time>2010-05-13T14:15:59Z</time>
      </trkpt>
      <trkpt lat="48.73535" lon="1.80932">
        <ele>167</ele>
        <time>2010-05-13T14:16:01Z</time>
      </trkpt>
      <trkpt lat="48.73538" lon="1.80927">
        <ele>166</ele>
        <time>2010-05-13T14:16:01Z</time>
      </trkpt>
      <trkpt lat="48.7354" lon="1.80922">
        <ele>165</ele>
        <time>2010-05-13T14:16:02Z</time>
      </trkpt>
      <trkpt lat="48.73542" lon="1.80917">
        <ele>164</ele>
        <time>2010-05-13T14:16:04Z</time>
      </trkpt>
      <trkpt lat="48.73544" lon="1.80912">
        <ele>164</ele>
        <time>2010-05-13T14:16:04Z</time>
      </trkpt>
      <trkpt lat="48.73547" lon="1.80907">
        <ele>163</ele>
        <time>2010-05-13T14:16:05Z</time>
      </trkpt>
      <trkpt lat="48.7355" lon="1.80903">
        <ele>162</ele>
        <time>2010-05-13T14:16:06Z</time>
      </trkpt>
      <trkpt lat="48.73553" lon="1.80899">
        <ele>162</ele>
        <time>2010-05-13T14:16:07Z</time>
      </trkpt>
      <trkpt lat="48.73556" lon="1.80895">
        <ele>162</ele>
        <time>2010-05-13T14:16:09Z</time>
      </trkpt>
      <trkpt lat="48.73559" lon="1.8089">
        <ele>162</ele>
        <time>2010-05-13T14:16:09Z</time>
      </trkpt>
      <trkpt lat="48.73561" lon="1.80884">
        <ele>162</ele>
        <time>2010-05-13T14:16:10Z</time>
      </trkpt>
      <trkpt lat="48.73563" lon="1.80879">
        <ele>162</ele>
        <time>2010-05-13T14:16:11Z</time>
      </trkpt>
      <trkpt lat="48.73564" lon="1.80873">
        <ele>162</ele>
        <time>2010-05-13T14:16:12Z</time>
      </trkpt>
      <trkpt lat="48.73566" lon="1.80868">
        <ele>162</ele>
        <time>2010-05-13T14:16:14Z</time>
      </trkpt>
      <trkpt lat="48.73567" lon="1.80863">
        <ele>162</ele>
        <time>2010-05-13T14:16:14Z</time>
      </trkpt>
      <trkpt lat="48.7357" lon="1.80858">
        <ele>162</ele>
        <time>2010-05-13T14:16:15Z</time>
      </trkpt>
      <trkpt lat="48.73572" lon="1.80853">
        <ele>162</ele>
        <time>2010-05-13T14:16:16Z</time>
      </trkpt>
      <trkpt lat="48.73575" lon="1.80849">
        <ele>163</ele>
        <time>2010-05-13T14:16:17Z</time>
      </trkpt>
      <trkpt lat="48.73578" lon="1.80846">
        <ele>164</ele>
        <time>2010-05-13T14:16:19Z</time>
      </trkpt>
      <trkpt lat="48.7358" lon="1.80843">
        <ele>165</ele>
        <time>2010-05-13T14:16:19Z</time>
      </trkpt>
      <trkpt lat="48.73584" lon="1.8084">
        <ele>166</ele>
        <time>2010-05-13T14:16:20Z</time>
      </trkpt>
      <trkpt lat="48.73588" lon="1.80836">
        <ele>167</ele>
        <time>2010-05-13T14:16:21Z</time>
      </trkpt>
      <trkpt lat="48.73592" lon="1.80832">
        <ele>168</ele>
        <time>2010-05-13T14:16:22Z</time>
      </trkpt>
      <trkpt lat="48.73596" lon="1.80828">
        <ele>169</ele>
        <time>2010-05-13T14:16:24Z</time>
      </trkpt>
      <trkpt lat="48.73601" lon="1.80823">
        <ele>170</ele>
        <time>2010-05-13T14:16:25Z</time>
      </trkpt>
      <trkpt lat="48.73605" lon="1.80819">
        <ele>171</ele>
        <time>2010-05-13T14:16:25Z</time>
      </trkpt>
      <trkpt lat="48.73609" lon="1.80816">
        <ele>172</ele>
        <time>2010-05-13T14:16:26Z</time>
      </trkpt>
      <trkpt lat="48.73612" lon="1.80811">
        <ele>172</ele>
        <time>2010-05-13T14:16:27Z</time>
      </trkpt>
      <trkpt lat="48.73615" lon="1.80806">
        <ele>173</ele>
        <time>2010-05-13T14:16:29Z</time>
      </trkpt>
      <trkpt lat="48.73618" lon="1.808">
        <ele>174</ele>
        <time>2010-05-13T14:16:29Z</time>
      </trkpt>
      <trkpt lat="48.7362" lon="1.80796">
        <ele>174</ele>
        <time>2010-05-13T14:16:30Z</time>
      </trkpt>
      <trkpt lat="48.73622" lon="1.80792">
        <ele>175</ele>
        <time>2010-05-13T14:16:31Z</time>
      </trkpt>
      <trkpt lat="48.73626" lon="1.80786">
        <ele>176</ele>
        <time>2010-05-13T14:16:32Z</time>
      </trkpt>
      <trkpt lat="48.73627" lon="1.80781">
        <ele>177</ele>
        <time>2010-05-13T14:16:34Z</time>
      </trkpt>
      <trkpt lat="48.73632" lon="1.80776">
        <ele>178</ele>
        <time>2010-05-13T14:16:34Z</time>
      </trkpt>
      <trkpt lat="48.73635" lon="1.80773">
        <ele>179</ele>
        <time>2010-05-13T14:16:35Z</time>
      </trkpt>
      <trkpt lat="48.73638" lon="1.80769">
        <ele>180</ele>
        <time>2010-05-13T14:16:36Z</time>
      </trkpt>
      <trkpt lat="48.73639" lon="1.80765">
        <ele>181</ele>
        <time>2010-05-13T14:16:37Z</time>
      </trkpt>
      <trkpt lat="48.7364" lon="1.80761">
        <ele>182</ele>
        <time>2010-05-13T14:16:39Z</time>
      </trkpt>
      <trkpt lat="48.73642" lon="1.80757">
        <ele>183</ele>
        <time>2010-05-13T14:16:39Z</time>
      </trkpt>
      <trkpt lat="48.73647" lon="1.80752">
        <ele>184</ele>
        <time>2010-05-13T14:16:40Z</time>
      </trkpt>
      <trkpt lat="48.7365" lon="1.80748">
        <ele>185</ele>
        <time>2010-05-13T14:16:41Z</time>
      </trkpt>
      <trkpt lat="48.73656" lon="1.80742">
        <ele>186</ele>
        <time>2010-05-13T14:16:42Z</time>
      </trkpt>
      <trkpt lat="48.73658" lon="1.80737">
        <ele>187</ele>
        <time>2010-05-13T14:16:44Z</time>
      </trkpt>
      <trkpt lat="48.73662" lon="1.80732">
        <ele>188</ele>
        <time>2010-05-13T14:16:44Z</time>
      </trkpt>
      <trkpt lat="48.73664" lon="1.80728">
        <ele>189</ele>
        <time>2010-05-13T14:16:45Z</time>
      </trkpt>
      <trkpt lat="48.73665" lon="1.80723">
        <ele>190</ele>
        <time>2010-05-13T14:16:46Z</time>
      </trkpt>
      <trkpt lat="48.73666" lon="1.80717">
        <ele>191</ele>
        <time>2010-05-13T14:16:48Z</time>
      </trkpt>
      <trkpt lat="48.73668" lon="1.80713">
        <ele>192</ele>
        <time>2010-05-13T14:16:49Z</time>
      </trkpt>
      <trkpt lat="48.73671" lon="1.80707">
        <ele>192</ele>
        <time>2010-05-13T14:16:49Z</time>
      </trkpt>
      <trkpt lat="48.73674" lon="1.80702">
        <ele>192</ele>
        <time>2010-05-13T14:16:50Z</time>
      </trkpt>
      <trkpt lat="48.73677" lon="1.80697">
        <ele>192</ele>
        <time>2010-05-13T14:16:51Z</time>
      </trkpt>
      <trkpt lat="48.73679" lon="1.80692">
        <ele>192</ele>
        <time>2010-05-13T14:16:52Z</time>
      </trkpt>
      <trkpt lat="48.73682" lon="1.80689">
        <ele>192</ele>
        <time>2010-05-13T14:16:54Z</time>
      </trkpt>
      <trkpt lat="48.73684" lon="1.80684">
        <ele>192</ele>
        <time>2010-05-13T14:16:54Z</time>
      </trkpt>
      <trkpt lat="48.73688" lon="1.80679">
        <ele>192</ele>
        <time>2010-05-13T14:16:55Z</time>
      </trkpt>
      <trkpt lat="48.73691" lon="1.80674">
        <ele>192</ele>
        <time>2010-05-13T14:16:56Z</time>
      </trkpt>
      <trkpt lat="48.73695" lon="1.80669">
        <ele>192</ele>
        <time>2010-05-13T14:16:57Z</time>
      </trkpt>
      <trkpt lat="48.73697" lon="1.80665">
        <ele>192</ele>
        <time>2010-05-13T14:16:59Z</time>
      </trkpt>
      <trkpt lat="48.737" lon="1.80662">
        <ele>192</ele>
        <time>2010-05-13T14:16:59Z</time>
      </trkpt>
      <trkpt lat="48.73702" lon="1.80657">
        <ele>192</ele>
        <time>2010-05-13T14:17:00Z</time>
      </trkpt>
      <trkpt lat="48.73703" lon="1.80653">
        <ele>192</ele>
        <time>2010-05-13T14:17:01Z</time>
      </trkpt>
      <trkpt lat="48.73705" lon="1.80649">
        <ele>192</ele>
        <time>2010-05-13T14:17:02Z</time>
      </trkpt>
      <trkpt lat="48.73707" lon="1.80645">
        <ele>192</ele>
        <time>2010-05-13T14:17:04Z</time>
      </trkpt>
      <trkpt lat="48.73709" lon="1.80642">
        <ele>192</ele>
        <time>2010-05-13T14:17:04Z</time>
      </trkpt>
      <trkpt lat="48.73712" lon="1.80638">
        <ele>192</ele>
        <time>2010-05-13T14:17:05Z</time>
      </trkpt>
      <trkpt lat="48.73714" lon="1.80633">
        <ele>192</ele>
        <time>2010-05-13T14:17:06Z</time>
      </trkpt>
      <trkpt lat="48.73719" lon="1.80627">
        <ele>192</ele>
        <time>2010-05-13T14:17:07Z</time>
      </trkpt>
      <trkpt lat="48.73722" lon="1.80621">
        <ele>192</ele>
        <time>2010-05-13T14:17:09Z</time>
      </trkpt>
      <trkpt lat="48.73725" lon="1.80615">
        <ele>192</ele>
        <time>2010-05-13T14:17:09Z</time>
      </trkpt>
      <trkpt lat="48.73728" lon="1.8061">
        <ele>191</ele>
        <time>2010-05-13T14:17:10Z</time>
      </trkpt>
      <trkpt lat="48.73731" lon="1.80604">
        <ele>191</ele>
        <time>2010-05-13T14:17:11Z</time>
      </trkpt>
      <trkpt lat="48.73735" lon="1.80599">
        <ele>190</ele>
        <time>2010-05-13T14:17:12Z</time>
      </trkpt>
      <trkpt lat="48.73739" lon="1.80594">
        <ele>190</ele>
        <time>2010-05-13T14:17:14Z</time>
      </trkpt>
      <trkpt lat="48.73744" lon="1.80587">
        <ele>190</ele>
        <time>2010-05-13T14:17:14Z</time>
      </trkpt>
      <trkpt lat="48.73748" lon="1.80582">
        <ele>190</ele>
        <time>2010-05-13T14:17:15Z</time>
      </trkpt>
      <trkpt lat="48.73752" lon="1.80577">
        <ele>190</ele>
        <time>2010-05-13T14:17:16Z</time>
      </trkpt>
      <trkpt lat="48.73754" lon="1.80571">
        <ele>190</ele>
        <time>2010-05-13T14:17:17Z</time>
      </trkpt>
      <trkpt lat="48.73759" lon="1.80566">
        <ele>190</ele>
        <time>2010-05-13T14:17:19Z</time>
      </trkpt>
      <trkpt lat="48.73764" lon="1.80561">
        <ele>190</ele>
        <time>2010-05-13T14:17:19Z</time>
      </trkpt>
      <trkpt lat="48.73768" lon="1.80556">
        <ele>190</ele>
        <time>2010-05-13T14:17:20Z</time>
      </trkpt>
      <trkpt lat="48.73772" lon="1.80552">
        <ele>190</ele>
        <time>2010-05-13T14:17:21Z</time>
      </trkpt>
      <trkpt lat="48.73775" lon="1.80547">
        <ele>190</ele>
        <time>2010-05-13T14:17:22Z</time>
      </trkpt>
      <trkpt lat="48.73775" lon="1.80541">
        <ele>190</ele>
        <time>2010-05-13T14:17:24Z</time>
      </trkpt>
      <trkpt lat="48.73777" lon="1.80535">
        <ele>190</ele>
        <time>2010-05-13T14:17:24Z</time>
      </trkpt>
      <trkpt lat="48.73779" lon="1.80529">
        <ele>189</ele>
        <time>2010-05-13T14:17:25Z</time>
      </trkpt>
      <trkpt lat="48.73782" lon="1.80524">
        <ele>188</ele>
        <time>2010-05-13T14:17:26Z</time>
      </trkpt>
      <trkpt lat="48.73785" lon="1.80519">
        <ele>188</ele>
        <time>2010-05-13T14:17:27Z</time>
      </trkpt>
      <trkpt lat="48.73787" lon="1.80513">
        <ele>187</ele>
        <time>2010-05-13T14:17:29Z</time>
      </trkpt>
      <trkpt lat="48.7379" lon="1.80509">
        <ele>186</ele>
        <time>2010-05-13T14:17:29Z</time>
      </trkpt>
      <trkpt lat="48.73792" lon="1.80504">
        <ele>185</ele>
        <time>2010-05-13T14:17:30Z</time>
      </trkpt>
      <trkpt lat="48.73794" lon="1.80501">
        <ele>184</ele>
        <time>2010-05-13T14:17:31Z</time>
      </trkpt>
      <trkpt lat="48.73796" lon="1.80496">
        <ele>183</ele>
        <time>2010-05-13T14:17:32Z</time>
      </trkpt>
      <trkpt lat="48.73798" lon="1.80491">
        <ele>182</ele>
        <time>2010-05-13T14:17:34Z</time>
      </trkpt>
      <trkpt lat="48.738" lon="1.80486">
        <ele>181</ele>
        <time>2010-05-13T14:17:34Z</time>
      </trkpt>
      <trkpt lat="48.73802" lon="1.80481">
        <ele>180</ele>
        <time>2010-05-13T14:17:35Z</time>
      </trkpt>
      <trkpt lat="48.73804" lon="1.80476">
        <ele>179</ele>
        <time>2010-05-13T14:17:36Z</time>
      </trkpt>
      <trkpt lat="48.73806" lon="1.8047">
        <ele>178</ele>
        <time>2010-05-13T14:17:37Z</time>
      </trkpt>
      <trkpt lat="48.73809" lon="1.80464">
        <ele>177</ele>
        <time>2010-05-13T14:17:39Z</time>
      </trkpt>
      <trkpt lat="48.73811" lon="1.80459">
        <ele>176</ele>
        <time>2010-05-13T14:17:39Z</time>
      </trkpt>
      <trkpt lat="48.73813" lon="1.80453">
        <ele>175</ele>
        <time>2010-05-13T14:17:40Z</time>
      </trkpt>
      <trkpt lat="48.73815" lon="1.80447">
        <ele>174</ele>
        <time>2010-05-13T14:17:41Z</time>
      </trkpt>
      <trkpt lat="48.73817" lon="1.80442">
        <ele>173</ele>
        <time>2010-05-13T14:17:42Z</time>
      </trkpt>
      <trkpt lat="48.7382" lon="1.80437">
        <ele>172</ele>
        <time>2010-05-13T14:17:44Z</time>
      </trkpt>
      <trkpt lat="48.73823" lon="1.80432">
        <ele>171</ele>
        <time>2010-05-13T14:17:44Z</time>
      </trkpt>
      <trkpt lat="48.73827" lon="1.80426">
        <ele>170</ele>
        <time>2010-05-13T14:17:45Z</time>
      </trkpt>
      <trkpt lat="48.7383" lon="1.8042">
        <ele>169</ele>
        <time>2010-05-13T14:17:46Z</time>
      </trkpt>
      <trkpt lat="48.73834" lon="1.80414">
        <ele>168</ele>
        <time>2010-05-13T14:17:47Z</time>
      </trkpt>
      <trkpt lat="48.73838" lon="1.80408">
        <ele>167</ele>
        <time>2010-05-13T14:17:49Z</time>
      </trkpt>
      <trkpt lat="48.73842" lon="1.80401">
        <ele>166</ele>
        <time>2010-05-13T14:17:49Z</time>
      </trkpt>
      <trkpt lat="48.73847" lon="1.80395">
        <ele>166</ele>
        <time>2010-05-13T14:17:50Z</time>
      </trkpt>
      <trkpt lat="48.73852" lon="1.80389">
        <ele>166</ele>
        <time>2010-05-13T14:17:51Z</time>
      </trkpt>
      <trkpt lat="48.73855" lon="1.80384">
        <ele>166</ele>
        <time>2010-05-13T14:17:52Z</time>
      </trkpt>
      <trkpt lat="48.73859" lon="1.8038">
        <ele>166</ele>
        <time>2010-05-13T14:17:54Z</time>
      </trkpt>
      <trkpt lat="48.73862" lon="1.80375">
        <ele>166</ele>
        <time>2010-05-13T14:17:54Z</time>
      </trkpt>
      <trkpt lat="48.73865" lon="1.8037">
        <ele>166</ele>
        <time>2010-05-13T14:17:55Z</time>
      </trkpt>
      <trkpt lat="48.73868" lon="1.80365">
        <ele>166</ele>
        <time>2010-05-13T14:17:56Z</time>
      </trkpt>
      <trkpt lat="48.7387" lon="1.8036">
        <ele>166</ele>
        <time>2010-05-13T14:17:57Z</time>
      </trkpt>
      <trkpt lat="48.73872" lon="1.80355">
        <ele>166</ele>
        <time>2010-05-13T14:17:59Z</time>
      </trkpt>
      <trkpt lat="48.73874" lon="1.8035">
        <ele>166</ele>
        <time>2010-05-13T14:17:59Z</time>
      </trkpt>
      <trkpt lat="48.73877" lon="1.80346">
        <ele>166</ele>
        <time>2010-05-13T14:18:00Z</time>
      </trkpt>
      <trkpt lat="48.73879" lon="1.80341">
        <ele>166</ele>
        <time>2010-05-13T14:18:01Z</time>
      </trkpt>
      <trkpt lat="48.73882" lon="1.80337">
        <ele>166</ele>
        <time>2010-05-13T14:18:02Z</time>
      </trkpt>
      <trkpt lat="48.73885" lon="1.80333">
        <ele>166</ele>
        <time>2010-05-13T14:18:04Z</time>
      </trkpt>
      <trkpt lat="48.73888" lon="1.80328">
        <ele>166</ele>
        <time>2010-05-13T14:18:04Z</time>
      </trkpt>
      <trkpt lat="48.73889" lon="1.80324">
        <ele>166</ele>
        <time>2010-05-13T14:18:05Z</time>
      </trkpt>
      <trkpt lat="48.73892" lon="1.8032">
        <ele>166</ele>
        <time>2010-05-13T14:18:06Z</time>
      </trkpt>
      <trkpt lat="48.73895" lon="1.80316">
        <ele>166</ele>
        <time>2010-05-13T14:18:07Z</time>
      </trkpt>
      <trkpt lat="48.73898" lon="1.80311">
        <ele>166</ele>
        <time>2010-05-13T14:18:09Z</time>
      </trkpt>
      <trkpt lat="48.739" lon="1.80307">
        <ele>167</ele>
        <time>2010-05-13T14:18:09Z</time>
      </trkpt>
      <trkpt lat="48.73903" lon="1.80302">
        <ele>168</ele>
        <time>2010-05-13T14:18:10Z</time>
      </trkpt>
      <trkpt lat="48.73906" lon="1.80296">
        <ele>168</ele>
        <time>2010-05-13T14:18:11Z</time>
      </trkpt>
      <trkpt lat="48.73908" lon="1.80292">
        <ele>168</ele>
        <time>2010-05-13T14:18:12Z</time>
      </trkpt>
      <trkpt lat="48.73909" lon="1.80287">
        <ele>168</ele>
        <time>2010-05-13T14:18:14Z</time>
      </trkpt>
      <trkpt lat="48.73911" lon="1.80282">
        <ele>168</ele>
        <time>2010-05-13T14:18:14Z</time>
      </trkpt>
      <trkpt lat="48.73914" lon="1.80278">
        <ele>168</ele>
        <time>2010-05-13T14:18:15Z</time>
      </trkpt>
      <trkpt lat="48.73916" lon="1.80273">
        <ele>168</ele>
        <time>2010-05-13T14:18:16Z</time>
      </trkpt>
      <trkpt lat="48.73919" lon="1.80268">
        <ele>168</ele>
        <time>2010-05-13T14:18:17Z</time>
      </trkpt>
      <trkpt lat="48.73921" lon="1.80263">
        <ele>168</ele>
        <time>2010-05-13T14:18:19Z</time>
      </trkpt>
      <trkpt lat="48.73924" lon="1.80258">
        <ele>169</ele>
        <time>2010-05-13T14:18:19Z</time>
      </trkpt>
      <trkpt lat="48.73927" lon="1.80252">
        <ele>169</ele>
        <time>2010-05-13T14:18:20Z</time>
      </trkpt>
      <trkpt lat="48.73929" lon="1.80247">
        <ele>169</ele>
        <time>2010-05-13T14:18:21Z</time>
      </trkpt>
      <trkpt lat="48.73933" lon="1.80241">
        <ele>169</ele>
        <time>2010-05-13T14:18:22Z</time>
      </trkpt>
      <trkpt lat="48.73937" lon="1.80236">
        <ele>169</ele>
        <time>2010-05-13T14:18:24Z</time>
      </trkpt>
      <trkpt lat="48.73941" lon="1.8023">
        <ele>169</ele>
        <time>2010-05-13T14:18:25Z</time>
      </trkpt>
      <trkpt lat="48.73944" lon="1.80225">
        <ele>169</ele>
        <time>2010-05-13T14:18:25Z</time>
      </trkpt>
      <trkpt lat="48.73947" lon="1.8022">
        <ele>169</ele>
        <time>2010-05-13T14:18:27Z</time>
      </trkpt>
      <trkpt lat="48.7395" lon="1.80214">
        <ele>169</ele>
        <time>2010-05-13T14:18:28Z</time>
      </trkpt>
      <trkpt lat="48.73954" lon="1.80209">
        <ele>170</ele>
        <time>2010-05-13T14:18:29Z</time>
      </trkpt>
      <trkpt lat="48.73958" lon="1.80203">
        <ele>170</ele>
        <time>2010-05-13T14:18:29Z</time>
      </trkpt>
      <trkpt lat="48.73961" lon="1.80197">
        <ele>170</ele>
        <time>2010-05-13T14:18:30Z</time>
      </trkpt>
      <trkpt lat="48.73963" lon="1.80192">
        <ele>170</ele>
        <time>2010-05-13T14:18:32Z</time>
      </trkpt>
      <trkpt lat="48.73965" lon="1.80188">
        <ele>170</ele>
        <time>2010-05-13T14:18:32Z</time>
      </trkpt>
      <trkpt lat="48.73969" lon="1.80183">
        <ele>170</ele>
        <time>2010-05-13T14:18:34Z</time>
      </trkpt>
      <trkpt lat="48.73971" lon="1.80178">
        <ele>170</ele>
        <time>2010-05-13T14:18:35Z</time>
      </trkpt>
      <trkpt lat="48.73975" lon="1.80174">
        <ele>170</ele>
        <time>2010-05-13T14:18:36Z</time>
      </trkpt>
      <trkpt lat="48.73977" lon="1.8017">
        <ele>170</ele>
        <time>2010-05-13T14:18:36Z</time>
      </trkpt>
      <trkpt lat="48.73979" lon="1.80165">
        <ele>170</ele>
        <time>2010-05-13T14:18:37Z</time>
      </trkpt>
      <trkpt lat="48.73982" lon="1.8016">
        <ele>170</ele>
        <time>2010-05-13T14:18:39Z</time>
      </trkpt>
      <trkpt lat="48.73984" lon="1.80156">
        <ele>170</ele>
        <time>2010-05-13T14:18:39Z</time>
      </trkpt>
      <trkpt lat="48.73986" lon="1.80151">
        <ele>170</ele>
        <time>2010-05-13T14:18:40Z</time>
      </trkpt>
      <trkpt lat="48.73988" lon="1.80146">
        <ele>169</ele>
        <time>2010-05-13T14:18:41Z</time>
      </trkpt>
      <trkpt lat="48.7399" lon="1.80141">
        <ele>169</ele>
        <time>2010-05-13T14:18:42Z</time>
      </trkpt>
      <trkpt lat="48.73993" lon="1.80135">
        <ele>168</ele>
        <time>2010-05-13T14:18:44Z</time>
      </trkpt>
      <trkpt lat="48.73995" lon="1.80131">
        <ele>168</ele>
        <time>2010-05-13T14:18:45Z</time>
      </trkpt>
      <trkpt lat="48.73997" lon="1.80127">
        <ele>168</ele>
        <time>2010-05-13T14:18:45Z</time>
      </trkpt>
      <trkpt lat="48.73999" lon="1.80124">
        <ele>168</ele>
        <time>2010-05-13T14:18:46Z</time>
      </trkpt>
      <trkpt lat="48.74" lon="1.8012">
        <ele>168</ele>
        <time>2010-05-13T14:18:48Z</time>
      </trkpt>
      <trkpt lat="48.74001" lon="1.80116">
        <ele>167</ele>
        <time>2010-05-13T14:18:49Z</time>
      </trkpt>
      <trkpt lat="48.74003" lon="1.80112">
        <ele>166</ele>
        <time>2010-05-13T14:18:49Z</time>
      </trkpt>
      <trkpt lat="48.74005" lon="1.80109">
        <ele>166</ele>
        <time>2010-05-13T14:18:50Z</time>
      </trkpt>
      <trkpt lat="48.74007" lon="1.80106">
        <ele>165</ele>
        <time>2010-05-13T14:18:52Z</time>
      </trkpt>
      <trkpt lat="48.74009" lon="1.80103">
        <ele>164</ele>
        <time>2010-05-13T14:18:53Z</time>
      </trkpt>
      <trkpt lat="48.74011" lon="1.801">
        <ele>163</ele>
        <time>2010-05-13T14:18:54Z</time>
      </trkpt>
      <trkpt lat="48.74012" lon="1.80099">
        <ele>162</ele>
        <time>2010-05-13T14:18:54Z</time>
      </trkpt>
      <trkpt lat="48.74014" lon="1.80097">
        <ele>161</ele>
        <time>2010-05-13T14:18:55Z</time>
      </trkpt>
      <trkpt lat="48.74015" lon="1.80095">
        <ele>160</ele>
        <time>2010-05-13T14:18:57Z</time>
      </trkpt>
      <trkpt lat="48.74016" lon="1.80093">
        <ele>160</ele>
        <time>2010-05-13T14:18:57Z</time>
      </trkpt>
      <trkpt lat="48.74017" lon="1.80091">
        <ele>159</ele>
        <time>2010-05-13T14:18:59Z</time>
      </trkpt>
      <trkpt lat="48.74018" lon="1.80088">
        <ele>159</ele>
        <time>2010-05-13T14:18:59Z</time>
      </trkpt>
      <trkpt lat="48.74018" lon="1.80086">
        <ele>159</ele>
        <time>2010-05-13T14:19:01Z</time>
      </trkpt>
      <trkpt lat="48.74018" lon="1.80084">
        <ele>159</ele>
        <time>2010-05-13T14:19:01Z</time>
      </trkpt>
      <trkpt lat="48.7402" lon="1.80082">
        <ele>159</ele>
        <time>2010-05-13T14:19:04Z</time>
      </trkpt>
      <trkpt lat="48.74021" lon="1.8008">
        <ele>159</ele>
        <time>2010-05-13T14:19:05Z</time>
      </trkpt>
      <trkpt lat="48.74023" lon="1.80079">
        <ele>159</ele>
        <time>2010-05-13T14:19:06Z</time>
      </trkpt>
      <trkpt lat="48.74024" lon="1.80078">
        <ele>160</ele>
        <time>2010-05-13T14:19:09Z</time>
      </trkpt>
      <trkpt lat="48.74026" lon="1.80075">
        <ele>162</ele>
        <time>2010-05-13T14:19:10Z</time>
      </trkpt>
      <trkpt lat="48.74029" lon="1.80072">
        <ele>163</ele>
        <time>2010-05-13T14:19:12Z</time>
      </trkpt>
      <trkpt lat="48.74032" lon="1.80069">
        <ele>164</ele>
        <time>2010-05-13T14:19:13Z</time>
      </trkpt>
      <trkpt lat="48.74036" lon="1.80066">
        <ele>165</ele>
        <time>2010-05-13T14:19:14Z</time>
      </trkpt>
      <trkpt lat="48.7404" lon="1.80062">
        <ele>166</ele>
        <time>2010-05-13T14:19:14Z</time>
      </trkpt>
      <trkpt lat="48.74041" lon="1.80061">
        <ele>167</ele>
        <time>2010-05-13T14:19:15Z</time>
      </trkpt>
      <trkpt lat="48.74044" lon="1.80059">
        <ele>168</ele>
        <time>2010-05-13T14:19:16Z</time>
      </trkpt>
      <trkpt lat="48.74046" lon="1.80057">
        <ele>168</ele>
        <time>2010-05-13T14:19:17Z</time>
      </trkpt>
      <trkpt lat="48.74046" lon="1.80055">
        <ele>168</ele>
        <time>2010-05-13T14:19:19Z</time>
      </trkpt>
      <trkpt lat="48.74046" lon="1.80052">
        <ele>168</ele>
        <time>2010-05-13T14:19:19Z</time>
      </trkpt>
      <trkpt lat="48.74046" lon="1.8005">
        <ele>168</ele>
        <time>2010-05-13T14:19:21Z</time>
      </trkpt>
      <trkpt lat="48.74047" lon="1.80048">
        <ele>168</ele>
        <time>2010-05-13T14:19:22Z</time>
      </trkpt>
      <trkpt lat="48.74047" lon="1.80046">
        <ele>168</ele>
        <time>2010-05-13T14:19:22Z</time>
      </trkpt>
      <trkpt lat="48.74047" lon="1.80043">
        <ele>168</ele>
        <time>2010-05-13T14:19:24Z</time>
      </trkpt>
      <trkpt lat="48.74047" lon="1.80041">
        <ele>168</ele>
        <time>2010-05-13T14:19:24Z</time>
      </trkpt>
      <trkpt lat="48.74049" lon="1.80039">
        <ele>168</ele>
        <time>2010-05-13T14:19:26Z</time>
      </trkpt>
      <trkpt lat="48.74051" lon="1.80037">
        <ele>168</ele>
        <time>2010-05-13T14:19:29Z</time>
      </trkpt>
      <trkpt lat="48.74052" lon="1.80034">
        <ele>168</ele>
        <time>2010-05-13T14:19:31Z</time>
      </trkpt>
      <trkpt lat="48.74054" lon="1.80032">
        <ele>168</ele>
        <time>2010-05-13T14:19:31Z</time>
      </trkpt>
      <trkpt lat="48.74056" lon="1.80029">
        <ele>168</ele>
        <time>2010-05-13T14:19:34Z</time>
      </trkpt>
      <trkpt lat="48.74057" lon="1.80029">
        <ele>168</ele>
        <time>2010-05-13T14:19:35Z</time>
      </trkpt>
      <trkpt lat="48.74058" lon="1.80027">
        <ele>168</ele>
        <time>2010-05-13T14:19:35Z</time>
      </trkpt>
      <trkpt lat="48.74059" lon="1.80025">
        <ele>168</ele>
        <time>2010-05-13T14:19:37Z</time>
      </trkpt>
      <trkpt lat="48.74059" lon="1.80023">
        <ele>168</ele>
        <time>2010-05-13T14:19:38Z</time>
      </trkpt>
      <trkpt lat="48.74059" lon="1.8002">
        <ele>168</ele>
        <time>2010-05-13T14:19:39Z</time>
      </trkpt>
      <trkpt lat="48.74059" lon="1.80017">
        <ele>168</ele>
        <time>2010-05-13T14:19:39Z</time>
      </trkpt>
      <trkpt lat="48.7406" lon="1.80015">
        <ele>168</ele>
        <time>2010-05-13T14:19:40Z</time>
      </trkpt>
      <trkpt lat="48.7406" lon="1.80013">
        <ele>168</ele>
        <time>2010-05-13T14:19:41Z</time>
      </trkpt>
      <trkpt lat="48.74061" lon="1.80011">
        <ele>168</ele>
        <time>2010-05-13T14:19:43Z</time>
      </trkpt>
      <trkpt lat="48.74062" lon="1.80009">
        <ele>168</ele>
        <time>2010-05-13T14:19:44Z</time>
      </trkpt>
      <trkpt lat="48.74063" lon="1.80007">
        <ele>167</ele>
        <time>2010-05-13T14:19:44Z</time>
      </trkpt>
      <trkpt lat="48.74065" lon="1.80006">
        <ele>167</ele>
        <time>2010-05-13T14:19:45Z</time>
      </trkpt>
      <trkpt lat="48.74067" lon="1.80004">
        <ele>167</ele>
        <time>2010-05-13T14:19:46Z</time>
      </trkpt>
      <trkpt lat="48.74068" lon="1.80003">
        <ele>167</ele>
        <time>2010-05-13T14:19:47Z</time>
      </trkpt>
      <trkpt lat="48.7407" lon="1.80002">
        <ele>167</ele>
        <time>2010-05-13T14:19:49Z</time>
      </trkpt>
      <trkpt lat="48.74071" lon="1.8">
        <ele>167</ele>
        <time>2010-05-13T14:19:49Z</time>
      </trkpt>
      <trkpt lat="48.74073" lon="1.79997">
        <ele>167</ele>
        <time>2010-05-13T14:19:50Z</time>
      </trkpt>
      <trkpt lat="48.74074" lon="1.79994">
        <ele>167</ele>
        <time>2010-05-13T14:19:51Z</time>
      </trkpt>
      <trkpt lat="48.74074" lon="1.79992">
        <ele>167</ele>
        <time>2010-05-13T14:19:52Z</time>
      </trkpt>
      <trkpt lat="48.74075" lon="1.79991">
        <ele>167</ele>
        <time>2010-05-13T14:19:54Z</time>
      </trkpt>
      <trkpt lat="48.74076" lon="1.79989">
        <ele>167</ele>
        <time>2010-05-13T14:19:54Z</time>
      </trkpt>
      <trkpt lat="48.74077" lon="1.79987">
        <ele>167</ele>
        <time>2010-05-13T14:19:55Z</time>
      </trkpt>
      <trkpt lat="48.74079" lon="1.79984">
        <ele>167</ele>
        <time>2010-05-13T14:19:56Z</time>
      </trkpt>
      <trkpt lat="48.7408" lon="1.79983">
        <ele>167</ele>
        <time>2010-05-13T14:19:57Z</time>
      </trkpt>
      <trkpt lat="48.74082" lon="1.79981">
        <ele>167</ele>
        <time>2010-05-13T14:19:59Z</time>
      </trkpt>
      <trkpt lat="48.74083" lon="1.79979">
        <ele>167</ele>
        <time>2010-05-13T14:19:59Z</time>
      </trkpt>
      <trkpt lat="48.74084" lon="1.79977">
        <ele>167</ele>
        <time>2010-05-13T14:20:00Z</time>
      </trkpt>
      <trkpt lat="48.74086" lon="1.79976">
        <ele>167</ele>
        <time>2010-05-13T14:20:01Z</time>
      </trkpt>
      <trkpt lat="48.74087" lon="1.79974">
        <ele>167</ele>
        <time>2010-05-13T14:20:02Z</time>
      </trkpt>
      <trkpt lat="48.74089" lon="1.79971">
        <ele>167</ele>
        <time>2010-05-13T14:20:05Z</time>
      </trkpt>
      <trkpt lat="48.74089" lon="1.79969">
        <ele>167</ele>
        <time>2010-05-13T14:20:05Z</time>
      </trkpt>
      <trkpt lat="48.7409" lon="1.79966">
        <ele>167</ele>
        <time>2010-05-13T14:20:07Z</time>
      </trkpt>
      <trkpt lat="48.7409" lon="1.79963">
        <ele>167</ele>
        <time>2010-05-13T14:20:10Z</time>
      </trkpt>
      <trkpt lat="48.74091" lon="1.79961">
        <ele>167</ele>
        <time>2010-05-13T14:20:10Z</time>
      </trkpt>
      <trkpt lat="48.74093" lon="1.7996">
        <ele>167</ele>
        <time>2010-05-13T14:20:11Z</time>
      </trkpt>
      <trkpt lat="48.74094" lon="1.79958">
        <ele>167</ele>
        <time>2010-05-13T14:20:12Z</time>
      </trkpt>
      <trkpt lat="48.74096" lon="1.79955">
        <ele>167</ele>
        <time>2010-05-13T14:20:15Z</time>
      </trkpt>
      <trkpt lat="48.74097" lon="1.79953">
        <ele>167</ele>
        <time>2010-05-13T14:20:15Z</time>
      </trkpt>
      <trkpt lat="48.74097" lon="1.79951">
        <ele>167</ele>
        <time>2010-05-13T14:20:16Z</time>
      </trkpt>
      <trkpt lat="48.74098" lon="1.79949">
        <ele>167</ele>
        <time>2010-05-13T14:20:17Z</time>
      </trkpt>
      <trkpt lat="48.741" lon="1.79947">
        <ele>167</ele>
        <time>2010-05-13T14:20:19Z</time>
      </trkpt>
      <trkpt lat="48.74101" lon="1.79945">
        <ele>167</ele>
        <time>2010-05-13T14:20:20Z</time>
      </trkpt>
      <trkpt lat="48.74102" lon="1.79943">
        <ele>167</ele>
        <time>2010-05-13T14:20:20Z</time>
      </trkpt>
      <trkpt lat="48.74103" lon="1.7994">
        <ele>167</ele>
        <time>2010-05-13T14:20:21Z</time>
      </trkpt>
      <trkpt lat="48.74104" lon="1.79938">
        <ele>167</ele>
        <time>2010-05-13T14:20:22Z</time>
      </trkpt>
      <trkpt lat="48.74106" lon="1.79937">
        <ele>167</ele>
        <time>2010-05-13T14:20:24Z</time>
      </trkpt>
      <trkpt lat="48.74107" lon="1.79935">
        <ele>167</ele>
        <time>2010-05-13T14:20:25Z</time>
      </trkpt>
      <trkpt lat="48.74109" lon="1.79933">
        <ele>167</ele>
        <time>2010-05-13T14:20:25Z</time>
      </trkpt>
      <trkpt lat="48.74111" lon="1.79932">
        <ele>167</ele>
        <time>2010-05-13T14:20:26Z</time>
      </trkpt>
      <trkpt lat="48.74112" lon="1.79929">
        <ele>167</ele>
        <time>2010-05-13T14:20:27Z</time>
      </trkpt>
      <trkpt lat="48.74114" lon="1.79927">
        <ele>167</ele>
        <time>2010-05-13T14:20:29Z</time>
      </trkpt>
      <trkpt lat="48.74116" lon="1.79925">
        <ele>168</ele>
        <time>2010-05-13T14:20:29Z</time>
      </trkpt>
      <trkpt lat="48.74119" lon="1.79923">
        <ele>169</ele>
        <time>2010-05-13T14:20:31Z</time>
      </trkpt>
      <trkpt lat="48.7412" lon="1.79922">
        <ele>169</ele>
        <time>2010-05-13T14:20:32Z</time>
      </trkpt>
      <trkpt lat="48.74123" lon="1.79921">
        <ele>170</ele>
        <time>2010-05-13T14:20:34Z</time>
      </trkpt>
      <trkpt lat="48.74125" lon="1.79919">
        <ele>171</ele>
        <time>2010-05-13T14:20:34Z</time>
      </trkpt>
      <trkpt lat="48.74127" lon="1.79916">
        <ele>171</ele>
        <time>2010-05-13T14:20:35Z</time>
      </trkpt>
      <trkpt lat="48.74129" lon="1.79915">
        <ele>172</ele>
        <time>2010-05-13T14:20:36Z</time>
      </trkpt>
      <trkpt lat="48.7413" lon="1.79912">
        <ele>173</ele>
        <time>2010-05-13T14:20:37Z</time>
      </trkpt>
      <trkpt lat="48.74131" lon="1.79911">
        <ele>173</ele>
        <time>2010-05-13T14:20:39Z</time>
      </trkpt>
      <trkpt lat="48.74133" lon="1.79907">
        <ele>174</ele>
        <time>2010-05-13T14:20:41Z</time>
      </trkpt>
      <trkpt lat="48.74133" lon="1.79905">
        <ele>174</ele>
        <time>2010-05-13T14:20:41Z</time>
      </trkpt>
      <trkpt lat="48.74135" lon="1.79904">
        <ele>174</ele>
        <time>2010-05-13T14:20:42Z</time>
      </trkpt>
      <trkpt lat="48.74136" lon="1.79901">
        <ele>175</ele>
        <time>2010-05-13T14:20:44Z</time>
      </trkpt>
      <trkpt lat="48.74139" lon="1.79898">
        <ele>175</ele>
        <time>2010-05-13T14:20:44Z</time>
      </trkpt>
      <trkpt lat="48.7414" lon="1.79895">
        <ele>175</ele>
        <time>2010-05-13T14:20:46Z</time>
      </trkpt>
      <trkpt lat="48.74142" lon="1.79891">
        <ele>175</ele>
        <time>2010-05-13T14:20:46Z</time>
      </trkpt>
      <trkpt lat="48.74145" lon="1.79885">
        <ele>176</ele>
        <time>2010-05-13T14:20:47Z</time>
      </trkpt>
      <trkpt lat="48.74146" lon="1.79881">
        <ele>177</ele>
        <time>2010-05-13T14:20:49Z</time>
      </trkpt>
      <trkpt lat="48.74148" lon="1.79877">
        <ele>177</ele>
        <time>2010-05-13T14:20:49Z</time>
      </trkpt>
      <trkpt lat="48.74151" lon="1.79872">
        <ele>177</ele>
        <time>2010-05-13T14:20:50Z</time>
      </trkpt>
      <trkpt lat="48.74153" lon="1.79867">
        <ele>178</ele>
        <time>2010-05-13T14:20:51Z</time>
      </trkpt>
      <trkpt lat="48.74155" lon="1.79862">
        <ele>178</ele>
        <time>2010-05-13T14:20:52Z</time>
      </trkpt>
      <trkpt lat="48.74156" lon="1.79858">
        <ele>178</ele>
        <time>2010-05-13T14:20:54Z</time>
      </trkpt>
      <trkpt lat="48.74159" lon="1.79853">
        <ele>178</ele>
        <time>2010-05-13T14:20:54Z</time>
      </trkpt>
      <trkpt lat="48.74161" lon="1.79847">
        <ele>178</ele>
        <time>2010-05-13T14:20:56Z</time>
      </trkpt>
      <trkpt lat="48.74164" lon="1.7984">
        <ele>179</ele>
        <time>2010-05-13T14:20:56Z</time>
      </trkpt>
      <trkpt lat="48.74168" lon="1.79835">
        <ele>180</ele>
        <time>2010-05-13T14:20:57Z</time>
      </trkpt>
      <trkpt lat="48.74172" lon="1.79829">
        <ele>180</ele>
        <time>2010-05-13T14:20:59Z</time>
      </trkpt>
      <trkpt lat="48.74175" lon="1.79823">
        <ele>180</ele>
        <time>2010-05-13T14:20:59Z</time>
      </trkpt>
      <trkpt lat="48.74179" lon="1.79815">
        <ele>180</ele>
        <time>2010-05-13T14:21:00Z</time>
      </trkpt>
      <trkpt lat="48.74181" lon="1.79809">
        <ele>180</ele>
        <time>2010-05-13T14:21:01Z</time>
      </trkpt>
      <trkpt lat="48.74185" lon="1.79803">
        <ele>180</ele>
        <time>2010-05-13T14:21:02Z</time>
      </trkpt>
      <trkpt lat="48.74189" lon="1.79798">
        <ele>180</ele>
        <time>2010-05-13T14:21:04Z</time>
      </trkpt>
      <trkpt lat="48.74192" lon="1.79793">
        <ele>181</ele>
        <time>2010-05-13T14:21:04Z</time>
      </trkpt>
      <trkpt lat="48.74194" lon="1.7979">
        <ele>181</ele>
        <time>2010-05-13T14:21:06Z</time>
      </trkpt>
      <trkpt lat="48.74197" lon="1.79786">
        <ele>181</ele>
        <time>2010-05-13T14:21:06Z</time>
      </trkpt>
      <trkpt lat="48.742" lon="1.79782">
        <ele>182</ele>
        <time>2010-05-13T14:21:07Z</time>
      </trkpt>
      <trkpt lat="48.74203" lon="1.79779">
        <ele>182</ele>
        <time>2010-05-13T14:21:09Z</time>
      </trkpt>
      <trkpt lat="48.74205" lon="1.79774">
        <ele>182</ele>
        <time>2010-05-13T14:21:09Z</time>
      </trkpt>
      <trkpt lat="48.74207" lon="1.79769">
        <ele>182</ele>
        <time>2010-05-13T14:21:10Z</time>
      </trkpt>
      <trkpt lat="48.74209" lon="1.79764">
        <ele>182</ele>
        <time>2010-05-13T14:21:11Z</time>
      </trkpt>
      <trkpt lat="48.74211" lon="1.79759">
        <ele>182</ele>
        <time>2010-05-13T14:21:12Z</time>
      </trkpt>
      <trkpt lat="48.74213" lon="1.79755">
        <ele>182</ele>
        <time>2010-05-13T14:21:14Z</time>
      </trkpt>
      <trkpt lat="48.74214" lon="1.79751">
        <ele>182</ele>
        <time>2010-05-13T14:21:14Z</time>
      </trkpt>
      <trkpt lat="48.74216" lon="1.79746">
        <ele>182</ele>
        <time>2010-05-13T14:21:15Z</time>
      </trkpt>
      <trkpt lat="48.74219" lon="1.79742">
        <ele>182</ele>
        <time>2010-05-13T14:21:16Z</time>
      </trkpt>
      <trkpt lat="48.74222" lon="1.79739">
        <ele>182</ele>
        <time>2010-05-13T14:21:17Z</time>
      </trkpt>
      <trkpt lat="48.74225" lon="1.79734">
        <ele>182</ele>
        <time>2010-05-13T14:21:19Z</time>
      </trkpt>
      <trkpt lat="48.74226" lon="1.79729">
        <ele>182</ele>
        <time>2010-05-13T14:21:19Z</time>
      </trkpt>
      <trkpt lat="48.74229" lon="1.79724">
        <ele>182</ele>
        <time>2010-05-13T14:21:20Z</time>
      </trkpt>
      <trkpt lat="48.74232" lon="1.7972">
        <ele>182</ele>
        <time>2010-05-13T14:21:21Z</time>
      </trkpt>
      <trkpt lat="48.74235" lon="1.79715">
        <ele>182</ele>
        <time>2010-05-13T14:21:22Z</time>
      </trkpt>
      <trkpt lat="48.74237" lon="1.79711">
        <ele>182</ele>
        <time>2010-05-13T14:21:24Z</time>
      </trkpt>
      <trkpt lat="48.74239" lon="1.79706">
        <ele>182</ele>
        <time>2010-05-13T14:21:24Z</time>
      </trkpt>
      <trkpt lat="48.74241" lon="1.79701">
        <ele>182</ele>
        <time>2010-05-13T14:21:26Z</time>
      </trkpt>
      <trkpt lat="48.74243" lon="1.79696">
        <ele>182</ele>
        <time>2010-05-13T14:21:26Z</time>
      </trkpt>
      <trkpt lat="48.74246" lon="1.79691">
        <ele>182</ele>
        <time>2010-05-13T14:21:27Z</time>
      </trkpt>
      <trkpt lat="48.74249" lon="1.79686">
        <ele>181</ele>
        <time>2010-05-13T14:21:29Z</time>
      </trkpt>
      <trkpt lat="48.74253" lon="1.79682">
        <ele>180</ele>
        <time>2010-05-13T14:21:29Z</time>
      </trkpt>
      <trkpt lat="48.74255" lon="1.79677">
        <ele>179</ele>
        <time>2010-05-13T14:21:31Z</time>
      </trkpt>
      <trkpt lat="48.74257" lon="1.79673">
        <ele>179</ele>
        <time>2010-05-13T14:21:31Z</time>
      </trkpt>
      <trkpt lat="48.74259" lon="1.79669">
        <ele>178</ele>
        <time>2010-05-13T14:21:32Z</time>
      </trkpt>
      <trkpt lat="48.74262" lon="1.79665">
        <ele>178</ele>
        <time>2010-05-13T14:21:34Z</time>
      </trkpt>
      <trkpt lat="48.74263" lon="1.7966">
        <ele>177</ele>
        <time>2010-05-13T14:21:34Z</time>
      </trkpt>
      <trkpt lat="48.74266" lon="1.79655">
        <ele>177</ele>
        <time>2010-05-13T14:21:36Z</time>
      </trkpt>
      <trkpt lat="48.74268" lon="1.79651">
        <ele>177</ele>
        <time>2010-05-13T14:21:36Z</time>
      </trkpt>
      <trkpt lat="48.74271" lon="1.79647">
        <ele>177</ele>
        <time>2010-05-13T14:21:37Z</time>
      </trkpt>
      <trkpt lat="48.74272" lon="1.79643">
        <ele>177</ele>
        <time>2010-05-13T14:21:39Z</time>
      </trkpt>
      <trkpt lat="48.74274" lon="1.79639">
        <ele>177</ele>
        <time>2010-05-13T14:21:39Z</time>
      </trkpt>
      <trkpt lat="48.74276" lon="1.79634">
        <ele>177</ele>
        <time>2010-05-13T14:21:40Z</time>
      </trkpt>
      <trkpt lat="48.74279" lon="1.7963">
        <ele>177</ele>
        <time>2010-05-13T14:21:41Z</time>
      </trkpt>
      <trkpt lat="48.74282" lon="1.79624">
        <ele>177</ele>
        <time>2010-05-13T14:21:42Z</time>
      </trkpt>
      <trkpt lat="48.74285" lon="1.79619">
        <ele>177</ele>
        <time>2010-05-13T14:21:44Z</time>
      </trkpt>
      <trkpt lat="48.74287" lon="1.79613">
        <ele>177</ele>
        <time>2010-05-13T14:21:44Z</time>
      </trkpt>
      <trkpt lat="48.74289" lon="1.79609">
        <ele>177</ele>
        <time>2010-05-13T14:21:45Z</time>
      </trkpt>
      <trkpt lat="48.74292" lon="1.79603">
        <ele>177</ele>
        <time>2010-05-13T14:21:46Z</time>
      </trkpt>
      <trkpt lat="48.74295" lon="1.79598">
        <ele>177</ele>
        <time>2010-05-13T14:21:47Z</time>
      </trkpt>
      <trkpt lat="48.74297" lon="1.79593">
        <ele>177</ele>
        <time>2010-05-13T14:21:49Z</time>
      </trkpt>
      <trkpt lat="48.743" lon="1.79588">
        <ele>177</ele>
        <time>2010-05-13T14:21:49Z</time>
      </trkpt>
      <trkpt lat="48.74303" lon="1.79583">
        <ele>178</ele>
        <time>2010-05-13T14:21:50Z</time>
      </trkpt>
      <trkpt lat="48.74306" lon="1.79577">
        <ele>179</ele>
        <time>2010-05-13T14:21:51Z</time>
      </trkpt>
      <trkpt lat="48.74309" lon="1.79571">
        <ele>180</ele>
        <time>2010-05-13T14:21:52Z</time>
      </trkpt>
      <trkpt lat="48.7431" lon="1.79564">
        <ele>181</ele>
        <time>2010-05-13T14:21:54Z</time>
      </trkpt>
      <trkpt lat="48.74312" lon="1.79559">
        <ele>182</ele>
        <time>2010-05-13T14:21:54Z</time>
      </trkpt>
      <trkpt lat="48.74314" lon="1.79554">
        <ele>183</ele>
        <time>2010-05-13T14:21:56Z</time>
      </trkpt>
      <trkpt lat="48.74316" lon="1.7955">
        <ele>184</ele>
        <time>2010-05-13T14:21:56Z</time>
      </trkpt>
      <trkpt lat="48.74318" lon="1.79547">
        <ele>185</ele>
        <time>2010-05-13T14:21:57Z</time>
      </trkpt>
      <trkpt lat="48.7432" lon="1.79543">
        <ele>186</ele>
        <time>2010-05-13T14:21:59Z</time>
      </trkpt>
      <trkpt lat="48.74322" lon="1.7954">
        <ele>186</ele>
        <time>2010-05-13T14:21:59Z</time>
      </trkpt>
      <trkpt lat="48.74324" lon="1.79536">
        <ele>186</ele>
        <time>2010-05-13T14:22:01Z</time>
      </trkpt>
      <trkpt lat="48.74327" lon="1.79531">
        <ele>186</ele>
        <time>2010-05-13T14:22:01Z</time>
      </trkpt>
      <trkpt lat="48.74331" lon="1.79527">
        <ele>186</ele>
        <time>2010-05-13T14:22:02Z</time>
      </trkpt>
      <trkpt lat="48.74334" lon="1.79522">
        <ele>186</ele>
        <time>2010-05-13T14:22:04Z</time>
      </trkpt>
      <trkpt lat="48.74338" lon="1.79517">
        <ele>186</ele>
        <time>2010-05-13T14:22:04Z</time>
      </trkpt>
      <trkpt lat="48.7434" lon="1.79513">
        <ele>186</ele>
        <time>2010-05-13T14:22:06Z</time>
      </trkpt>
      <trkpt lat="48.74342" lon="1.79509">
        <ele>186</ele>
        <time>2010-05-13T14:22:07Z</time>
      </trkpt>
      <trkpt lat="48.74343" lon="1.79505">
        <ele>186</ele>
        <time>2010-05-13T14:22:07Z</time>
      </trkpt>
      <trkpt lat="48.74345" lon="1.79501">
        <ele>186</ele>
        <time>2010-05-13T14:22:09Z</time>
      </trkpt>
      <trkpt lat="48.74347" lon="1.79497">
        <ele>186</ele>
        <time>2010-05-13T14:22:09Z</time>
      </trkpt>
      <trkpt lat="48.74349" lon="1.79493">
        <ele>186</ele>
        <time>2010-05-13T14:22:11Z</time>
      </trkpt>
      <trkpt lat="48.74351" lon="1.79489">
        <ele>186</ele>
        <time>2010-05-13T14:22:11Z</time>
      </trkpt>
      <trkpt lat="48.74352" lon="1.79485">
        <ele>186</ele>
        <time>2010-05-13T14:22:12Z</time>
      </trkpt>
      <trkpt lat="48.74354" lon="1.79482">
        <ele>186</ele>
        <time>2010-05-13T14:22:14Z</time>
      </trkpt>
      <trkpt lat="48.74356" lon="1.79478">
        <ele>185</ele>
        <time>2010-05-13T14:22:14Z</time>
      </trkpt>
      <trkpt lat="48.74357" lon="1.79473">
        <ele>185</ele>
        <time>2010-05-13T14:22:16Z</time>
      </trkpt>
      <trkpt lat="48.74358" lon="1.79469">
        <ele>184</ele>
        <time>2010-05-13T14:22:16Z</time>
      </trkpt>
      <trkpt lat="48.7436" lon="1.79463">
        <ele>183</ele>
        <time>2010-05-13T14:22:17Z</time>
      </trkpt>
      <trkpt lat="48.74362" lon="1.79458">
        <ele>182</ele>
        <time>2010-05-13T14:22:19Z</time>
      </trkpt>
      <trkpt lat="48.74365" lon="1.79452">
        <ele>181</ele>
        <time>2010-05-13T14:22:19Z</time>
      </trkpt>
      <trkpt lat="48.74369" lon="1.79446">
        <ele>180</ele>
        <time>2010-05-13T14:22:21Z</time>
      </trkpt>
      <trkpt lat="48.74372" lon="1.79441">
        <ele>180</ele>
        <time>2010-05-13T14:22:21Z</time>
      </trkpt>
      <trkpt lat="48.74375" lon="1.79436">
        <ele>180</ele>
        <time>2010-05-13T14:22:22Z</time>
      </trkpt>
      <trkpt lat="48.74377" lon="1.79432">
        <ele>180</ele>
        <time>2010-05-13T14:22:24Z</time>
      </trkpt>
      <trkpt lat="48.74383" lon="1.79427">
        <ele>180</ele>
        <time>2010-05-13T14:22:24Z</time>
      </trkpt>
      <trkpt lat="48.74384" lon="1.79422">
        <ele>180</ele>
        <time>2010-05-13T14:22:26Z</time>
      </trkpt>
      <trkpt lat="48.74386" lon="1.79419">
        <ele>180</ele>
        <time>2010-05-13T14:22:26Z</time>
      </trkpt>
      <trkpt lat="48.74387" lon="1.79416">
        <ele>180</ele>
        <time>2010-05-13T14:22:27Z</time>
      </trkpt>
      <trkpt lat="48.74389" lon="1.79412">
        <ele>180</ele>
        <time>2010-05-13T14:22:29Z</time>
      </trkpt>
      <trkpt lat="48.74391" lon="1.79408">
        <ele>180</ele>
        <time>2010-05-13T14:22:29Z</time>
      </trkpt>
      <trkpt lat="48.74392" lon="1.79402">
        <ele>180</ele>
        <time>2010-05-13T14:22:31Z</time>
      </trkpt>
      <trkpt lat="48.74392" lon="1.79395">
        <ele>180</ele>
        <time>2010-05-13T14:22:31Z</time>
      </trkpt>
      <trkpt lat="48.74395" lon="1.79391">
        <ele>180</ele>
        <time>2010-05-13T14:22:32Z</time>
      </trkpt>
      <trkpt lat="48.74396" lon="1.79386">
        <ele>180</ele>
        <time>2010-05-13T14:22:34Z</time>
      </trkpt>
      <trkpt lat="48.74398" lon="1.79382">
        <ele>180</ele>
        <time>2010-05-13T14:22:34Z</time>
      </trkpt>
      <trkpt lat="48.74399" lon="1.79376">
        <ele>180</ele>
        <time>2010-05-13T14:22:35Z</time>
      </trkpt>
      <trkpt lat="48.74401" lon="1.7937">
        <ele>180</ele>
        <time>2010-05-13T14:22:36Z</time>
      </trkpt>
      <trkpt lat="48.74405" lon="1.79366">
        <ele>180</ele>
        <time>2010-05-13T14:22:37Z</time>
      </trkpt>
      <trkpt lat="48.74407" lon="1.79362">
        <ele>180</ele>
        <time>2010-05-13T14:22:39Z</time>
      </trkpt>
      <trkpt lat="48.74408" lon="1.79358">
        <ele>180</ele>
        <time>2010-05-13T14:22:39Z</time>
      </trkpt>
      <trkpt lat="48.7441" lon="1.79354">
        <ele>180</ele>
        <time>2010-05-13T14:22:40Z</time>
      </trkpt>
      <trkpt lat="48.74412" lon="1.79348">
        <ele>180</ele>
        <time>2010-05-13T14:22:41Z</time>
      </trkpt>
      <trkpt lat="48.74413" lon="1.79343">
        <ele>180</ele>
        <time>2010-05-13T14:22:42Z</time>
      </trkpt>
      <trkpt lat="48.74415" lon="1.79338">
        <ele>180</ele>
        <time>2010-05-13T14:22:44Z</time>
      </trkpt>
      <trkpt lat="48.74417" lon="1.79333">
        <ele>180</ele>
        <time>2010-05-13T14:22:44Z</time>
      </trkpt>
      <trkpt lat="48.7442" lon="1.79327">
        <ele>180</ele>
        <time>2010-05-13T14:22:45Z</time>
      </trkpt>
      <trkpt lat="48.74424" lon="1.79322">
        <ele>180</ele>
        <time>2010-05-13T14:22:46Z</time>
      </trkpt>
      <trkpt lat="48.74427" lon="1.79317">
        <ele>180</ele>
        <time>2010-05-13T14:22:47Z</time>
      </trkpt>
      <trkpt lat="48.74429" lon="1.79313">
        <ele>180</ele>
        <time>2010-05-13T14:22:49Z</time>
      </trkpt>
      <trkpt lat="48.74432" lon="1.79308">
        <ele>180</ele>
        <time>2010-05-13T14:22:49Z</time>
      </trkpt>
      <trkpt lat="48.74435" lon="1.79304">
        <ele>180</ele>
        <time>2010-05-13T14:22:50Z</time>
      </trkpt>
      <trkpt lat="48.74438" lon="1.79299">
        <ele>180</ele>
        <time>2010-05-13T14:22:51Z</time>
      </trkpt>
      <trkpt lat="48.74441" lon="1.79295">
        <ele>180</ele>
        <time>2010-05-13T14:22:52Z</time>
      </trkpt>
      <trkpt lat="48.74444" lon="1.79292">
        <ele>180</ele>
        <time>2010-05-13T14:22:54Z</time>
      </trkpt>
      <trkpt lat="48.74446" lon="1.79288">
        <ele>180</ele>
        <time>2010-05-13T14:22:54Z</time>
      </trkpt>
      <trkpt lat="48.74448" lon="1.79285">
        <ele>180</ele>
        <time>2010-05-13T14:22:56Z</time>
      </trkpt>
      <trkpt lat="48.74451" lon="1.7928">
        <ele>180</ele>
        <time>2010-05-13T14:22:56Z</time>
      </trkpt>
      <trkpt lat="48.74454" lon="1.79276">
        <ele>180</ele>
        <time>2010-05-13T14:22:57Z</time>
      </trkpt>
      <trkpt lat="48.74457" lon="1.79272">
        <ele>180</ele>
        <time>2010-05-13T14:22:59Z</time>
      </trkpt>
      <trkpt lat="48.74459" lon="1.79267">
        <ele>180</ele>
        <time>2010-05-13T14:22:59Z</time>
      </trkpt>
      <trkpt lat="48.74461" lon="1.79263">
        <ele>180</ele>
        <time>2010-05-13T14:23:01Z</time>
      </trkpt>
      <trkpt lat="48.74464" lon="1.7926">
        <ele>180</ele>
        <time>2010-05-13T14:23:01Z</time>
      </trkpt>
      <trkpt lat="48.74466" lon="1.79256">
        <ele>180</ele>
        <time>2010-05-13T14:23:02Z</time>
      </trkpt>
      <trkpt lat="48.74467" lon="1.79252">
        <ele>180</ele>
        <time>2010-05-13T14:23:04Z</time>
      </trkpt>
      <trkpt lat="48.74469" lon="1.79248">
        <ele>180</ele>
        <time>2010-05-13T14:23:04Z</time>
      </trkpt>
      <trkpt lat="48.74472" lon="1.79244">
        <ele>180</ele>
        <time>2010-05-13T14:23:05Z</time>
      </trkpt>
      <trkpt lat="48.74474" lon="1.79239">
        <ele>180</ele>
        <time>2010-05-13T14:23:06Z</time>
      </trkpt>
      <trkpt lat="48.74477" lon="1.79234">
        <ele>180</ele>
        <time>2010-05-13T14:23:07Z</time>
      </trkpt>
      <trkpt lat="48.7448" lon="1.79229">
        <ele>180</ele>
        <time>2010-05-13T14:23:09Z</time>
      </trkpt>
      <trkpt lat="48.74482" lon="1.79224">
        <ele>180</ele>
        <time>2010-05-13T14:23:09Z</time>
      </trkpt>
      <trkpt lat="48.74484" lon="1.79219">
        <ele>179</ele>
        <time>2010-05-13T14:23:10Z</time>
      </trkpt>
      <trkpt lat="48.74487" lon="1.79214">
        <ele>179</ele>
        <time>2010-05-13T14:23:11Z</time>
      </trkpt>
      <trkpt lat="48.7449" lon="1.79209">
        <ele>179</ele>
        <time>2010-05-13T14:23:12Z</time>
      </trkpt>
      <trkpt lat="48.74493" lon="1.79204">
        <ele>179</ele>
        <time>2010-05-13T14:23:14Z</time>
      </trkpt>
      <trkpt lat="48.74495" lon="1.79199">
        <ele>178</ele>
        <time>2010-05-13T14:23:14Z</time>
      </trkpt>
      <trkpt lat="48.74497" lon="1.79193">
        <ele>178</ele>
        <time>2010-05-13T14:23:15Z</time>
      </trkpt>
      <trkpt lat="48.745" lon="1.79188">
        <ele>177</ele>
        <time>2010-05-13T14:23:16Z</time>
      </trkpt>
      <trkpt lat="48.74504" lon="1.79182">
        <ele>177</ele>
        <time>2010-05-13T14:23:17Z</time>
      </trkpt>
      <trkpt lat="48.74507" lon="1.79176">
        <ele>176</ele>
        <time>2010-05-13T14:23:19Z</time>
      </trkpt>
      <trkpt lat="48.74511" lon="1.7917">
        <ele>175</ele>
        <time>2010-05-13T14:23:19Z</time>
      </trkpt>
      <trkpt lat="48.74515" lon="1.79164">
        <ele>174</ele>
        <time>2010-05-13T14:23:20Z</time>
      </trkpt>
      <trkpt lat="48.74517" lon="1.79158">
        <ele>174</ele>
        <time>2010-05-13T14:23:21Z</time>
      </trkpt>
      <trkpt lat="48.7452" lon="1.79152">
        <ele>174</ele>
        <time>2010-05-13T14:23:22Z</time>
      </trkpt>
      <trkpt lat="48.74523" lon="1.79147">
        <ele>173</ele>
        <time>2010-05-13T14:23:24Z</time>
      </trkpt>
      <trkpt lat="48.74524" lon="1.79143">
        <ele>173</ele>
        <time>2010-05-13T14:23:24Z</time>
      </trkpt>
      <trkpt lat="48.74527" lon="1.79138">
        <ele>173</ele>
        <time>2010-05-13T14:23:25Z</time>
      </trkpt>
      <trkpt lat="48.74529" lon="1.79134">
        <ele>173</ele>
        <time>2010-05-13T14:23:26Z</time>
      </trkpt>
      <trkpt lat="48.74531" lon="1.7913">
        <ele>172</ele>
        <time>2010-05-13T14:23:27Z</time>
      </trkpt>
      <trkpt lat="48.74534" lon="1.79125">
        <ele>172</ele>
        <time>2010-05-13T14:23:29Z</time>
      </trkpt>
      <trkpt lat="48.74537" lon="1.79121">
        <ele>172</ele>
        <time>2010-05-13T14:23:29Z</time>
      </trkpt>
      <trkpt lat="48.74539" lon="1.79116">
        <ele>172</ele>
        <time>2010-05-13T14:23:31Z</time>
      </trkpt>
      <trkpt lat="48.74542" lon="1.79112">
        <ele>172</ele>
        <time>2010-05-13T14:23:31Z</time>
      </trkpt>
      <trkpt lat="48.74545" lon="1.79107">
        <ele>172</ele>
        <time>2010-05-13T14:23:32Z</time>
      </trkpt>
      <trkpt lat="48.74547" lon="1.79101">
        <ele>172</ele>
        <time>2010-05-13T14:23:34Z</time>
      </trkpt>
      <trkpt lat="48.74553" lon="1.79096">
        <ele>172</ele>
        <time>2010-05-13T14:23:34Z</time>
      </trkpt>
      <trkpt lat="48.74557" lon="1.79091">
        <ele>172</ele>
        <time>2010-05-13T14:23:36Z</time>
      </trkpt>
      <trkpt lat="48.74559" lon="1.79086">
        <ele>172</ele>
        <time>2010-05-13T14:23:36Z</time>
      </trkpt>
      <trkpt lat="48.74561" lon="1.79082">
        <ele>172</ele>
        <time>2010-05-13T14:23:37Z</time>
      </trkpt>
      <trkpt lat="48.74562" lon="1.79077">
        <ele>172</ele>
        <time>2010-05-13T14:23:39Z</time>
      </trkpt>
      <trkpt lat="48.74565" lon="1.79072">
        <ele>172</ele>
        <time>2010-05-13T14:23:39Z</time>
      </trkpt>
      <trkpt lat="48.74568" lon="1.79066">
        <ele>172</ele>
        <time>2010-05-13T14:23:40Z</time>
      </trkpt>
      <trkpt lat="48.74571" lon="1.7906">
        <ele>172</ele>
        <time>2010-05-13T14:23:41Z</time>
      </trkpt>
      <trkpt lat="48.74576" lon="1.79054">
        <ele>172</ele>
        <time>2010-05-13T14:23:42Z</time>
      </trkpt>
      <trkpt lat="48.74579" lon="1.79049">
        <ele>172</ele>
        <time>2010-05-13T14:23:44Z</time>
      </trkpt>
      <trkpt lat="48.74582" lon="1.79043">
        <ele>172</ele>
        <time>2010-05-13T14:23:44Z</time>
      </trkpt>
      <trkpt lat="48.74585" lon="1.79038">
        <ele>172</ele>
        <time>2010-05-13T14:23:45Z</time>
      </trkpt>
      <trkpt lat="48.74589" lon="1.79033">
        <ele>172</ele>
        <time>2010-05-13T14:23:46Z</time>
      </trkpt>
      <trkpt lat="48.74592" lon="1.79028">
        <ele>172</ele>
        <time>2010-05-13T14:23:47Z</time>
      </trkpt>
      <trkpt lat="48.74596" lon="1.79022">
        <ele>172</ele>
        <time>2010-05-13T14:23:49Z</time>
      </trkpt>
      <trkpt lat="48.74601" lon="1.79017">
        <ele>172</ele>
        <time>2010-05-13T14:23:49Z</time>
      </trkpt>
      <trkpt lat="48.74605" lon="1.79012">
        <ele>173</ele>
        <time>2010-05-13T14:23:50Z</time>
      </trkpt>
      <trkpt lat="48.74609" lon="1.79007">
        <ele>173</ele>
        <time>2010-05-13T14:23:51Z</time>
      </trkpt>
      <trkpt lat="48.74611" lon="1.79002">
        <ele>174</ele>
        <time>2010-05-13T14:23:52Z</time>
      </trkpt>
      <trkpt lat="48.74616" lon="1.78996">
        <ele>175</ele>
        <time>2010-05-13T14:23:54Z</time>
      </trkpt>
      <trkpt lat="48.74619" lon="1.7899">
        <ele>175</ele>
        <time>2010-05-13T14:23:54Z</time>
      </trkpt>
      <trkpt lat="48.74621" lon="1.78983">
        <ele>175</ele>
        <time>2010-05-13T14:23:56Z</time>
      </trkpt>
      <trkpt lat="48.74624" lon="1.78976">
        <ele>176</ele>
        <time>2010-05-13T14:23:56Z</time>
      </trkpt>
      <trkpt lat="48.74627" lon="1.7897">
        <ele>176</ele>
        <time>2010-05-13T14:23:57Z</time>
      </trkpt>
      <trkpt lat="48.74628" lon="1.78966">
        <ele>176</ele>
        <time>2010-05-13T14:23:59Z</time>
      </trkpt>
      <trkpt lat="48.74631" lon="1.78961">
        <ele>176</ele>
        <time>2010-05-13T14:23:59Z</time>
      </trkpt>
      <trkpt lat="48.74633" lon="1.78957">
        <ele>176</ele>
        <time>2010-05-13T14:24:00Z</time>
      </trkpt>
      <trkpt lat="48.74636" lon="1.78953">
        <ele>176</ele>
        <time>2010-05-13T14:24:01Z</time>
      </trkpt>
      <trkpt lat="48.74638" lon="1.78948">
        <ele>176</ele>
        <time>2010-05-13T14:24:02Z</time>
      </trkpt>
      <trkpt lat="48.7464" lon="1.78943">
        <ele>176</ele>
        <time>2010-05-13T14:24:04Z</time>
      </trkpt>
      <trkpt lat="48.74643" lon="1.78938">
        <ele>176</ele>
        <time>2010-05-13T14:24:04Z</time>
      </trkpt>
      <trkpt lat="48.74646" lon="1.78933">
        <ele>176</ele>
        <time>2010-05-13T14:24:06Z</time>
      </trkpt>
      <trkpt lat="48.74649" lon="1.78929">
        <ele>176</ele>
        <time>2010-05-13T14:24:06Z</time>
      </trkpt>
      <trkpt lat="48.74651" lon="1.78924">
        <ele>176</ele>
        <time>2010-05-13T14:24:07Z</time>
      </trkpt>
      <trkpt lat="48.74654" lon="1.78919">
        <ele>176</ele>
        <time>2010-05-13T14:24:09Z</time>
      </trkpt>
      <trkpt lat="48.74656" lon="1.78915">
        <ele>176</ele>
        <time>2010-05-13T14:24:09Z</time>
      </trkpt>
      <trkpt lat="48.74657" lon="1.78911">
        <ele>176</ele>
        <time>2010-05-13T14:24:11Z</time>
      </trkpt>
      <trkpt lat="48.74659" lon="1.78907">
        <ele>176</ele>
        <time>2010-05-13T14:24:11Z</time>
      </trkpt>
      <trkpt lat="48.7466" lon="1.78903">
        <ele>176</ele>
        <time>2010-05-13T14:24:12Z</time>
      </trkpt>
      <trkpt lat="48.74662" lon="1.789">
        <ele>176</ele>
        <time>2010-05-13T14:24:14Z</time>
      </trkpt>
      <trkpt lat="48.74664" lon="1.78896">
        <ele>176</ele>
        <time>2010-05-13T14:24:14Z</time>
      </trkpt>
      <trkpt lat="48.74665" lon="1.78893">
        <ele>176</ele>
        <time>2010-05-13T14:24:16Z</time>
      </trkpt>
      <trkpt lat="48.74667" lon="1.78889">
        <ele>176</ele>
        <time>2010-05-13T14:24:16Z</time>
      </trkpt>
      <trkpt lat="48.7467" lon="1.78885">
        <ele>176</ele>
        <time>2010-05-13T14:24:17Z</time>
      </trkpt>
      <trkpt lat="48.74673" lon="1.7888">
        <ele>176</ele>
        <time>2010-05-13T14:24:19Z</time>
      </trkpt>
      <trkpt lat="48.74676" lon="1.78874">
        <ele>177</ele>
        <time>2010-05-13T14:24:19Z</time>
      </trkpt>
      <trkpt lat="48.74678" lon="1.78869">
        <ele>178</ele>
        <time>2010-05-13T14:24:21Z</time>
      </trkpt>
      <trkpt lat="48.74679" lon="1.78864">
        <ele>178</ele>
        <time>2010-05-13T14:24:21Z</time>
      </trkpt>
      <trkpt lat="48.7468" lon="1.78859">
        <ele>179</ele>
        <time>2010-05-13T14:24:22Z</time>
      </trkpt>
      <trkpt lat="48.7468" lon="1.78855">
        <ele>179</ele>
        <time>2010-05-13T14:24:24Z</time>
      </trkpt>
      <trkpt lat="48.74681" lon="1.7885">
        <ele>179</ele>
        <time>2010-05-13T14:24:24Z</time>
      </trkpt>
      <trkpt lat="48.74682" lon="1.78848">
        <ele>179</ele>
        <time>2010-05-13T14:24:25Z</time>
      </trkpt>
      <trkpt lat="48.74683" lon="1.78845">
        <ele>180</ele>
        <time>2010-05-13T14:24:26Z</time>
      </trkpt>
      <trkpt lat="48.74681" lon="1.78841">
        <ele>181</ele>
        <time>2010-05-13T14:24:27Z</time>
      </trkpt>
      <trkpt lat="48.74682" lon="1.78839">
        <ele>181</ele>
        <time>2010-05-13T14:24:29Z</time>
      </trkpt>
      <trkpt lat="48.74681" lon="1.78837">
        <ele>182</ele>
        <time>2010-05-13T14:24:29Z</time>
      </trkpt>
      <trkpt lat="48.74681" lon="1.78835">
        <ele>182</ele>
        <time>2010-05-13T14:24:31Z</time>
      </trkpt>
      <trkpt lat="48.74682" lon="1.78833">
        <ele>183</ele>
        <time>2010-05-13T14:24:31Z</time>
      </trkpt>
      <trkpt lat="48.74681" lon="1.78829">
        <ele>183</ele>
        <time>2010-05-13T14:24:34Z</time>
      </trkpt>
      <trkpt lat="48.74683" lon="1.78826">
        <ele>184</ele>
        <time>2010-05-13T14:24:36Z</time>
      </trkpt>
      <trkpt lat="48.74684" lon="1.78825">
        <ele>184</ele>
        <time>2010-05-13T14:24:36Z</time>
      </trkpt>
      <trkpt lat="48.74685" lon="1.78823">
        <ele>184</ele>
        <time>2010-05-13T14:24:37Z</time>
      </trkpt>
      <trkpt lat="48.74685" lon="1.7882">
        <ele>185</ele>
        <time>2010-05-13T14:24:39Z</time>
      </trkpt>
      <trkpt lat="48.74687" lon="1.78818">
        <ele>185</ele>
        <time>2010-05-13T14:24:39Z</time>
      </trkpt>
      <trkpt lat="48.74688" lon="1.78816">
        <ele>185</ele>
        <time>2010-05-13T14:24:41Z</time>
      </trkpt>
      <trkpt lat="48.74688" lon="1.78813">
        <ele>185</ele>
        <time>2010-05-13T14:24:42Z</time>
      </trkpt>
      <trkpt lat="48.74687" lon="1.7881">
        <ele>185</ele>
        <time>2010-05-13T14:24:44Z</time>
      </trkpt>
      <trkpt lat="48.74686" lon="1.78808">
        <ele>185</ele>
        <time>2010-05-13T14:24:44Z</time>
      </trkpt>
      <trkpt lat="48.74686" lon="1.78806">
        <ele>185</ele>
        <time>2010-05-13T14:24:46Z</time>
      </trkpt>
      <trkpt lat="48.74685" lon="1.78803">
        <ele>185</ele>
        <time>2010-05-13T14:24:46Z</time>
      </trkpt>
      <trkpt lat="48.74686" lon="1.78801">
        <ele>184</ele>
        <time>2010-05-13T14:24:47Z</time>
      </trkpt>
      <trkpt lat="48.74685" lon="1.78799">
        <ele>183</ele>
        <time>2010-05-13T14:24:49Z</time>
      </trkpt>
      <trkpt lat="48.74684" lon="1.78796">
        <ele>182</ele>
        <time>2010-05-13T14:24:49Z</time>
      </trkpt>
      <trkpt lat="48.74684" lon="1.78794">
        <ele>181</ele>
        <time>2010-05-13T14:24:51Z</time>
      </trkpt>
      <trkpt lat="48.74686" lon="1.78792">
        <ele>180</ele>
        <time>2010-05-13T14:24:51Z</time>
      </trkpt>
      <trkpt lat="48.74686" lon="1.7879">
        <ele>180</ele>
        <time>2010-05-13T14:24:52Z</time>
      </trkpt>
      <trkpt lat="48.74689" lon="1.78787">
        <ele>180</ele>
        <time>2010-05-13T14:24:54Z</time>
      </trkpt>
      <trkpt lat="48.74687" lon="1.78784">
        <ele>180</ele>
        <time>2010-05-13T14:24:54Z</time>
      </trkpt>
      <trkpt lat="48.74688" lon="1.78781">
        <ele>180</ele>
        <time>2010-05-13T14:24:56Z</time>
      </trkpt>
      <trkpt lat="48.7469" lon="1.78779">
        <ele>180</ele>
        <time>2010-05-13T14:24:56Z</time>
      </trkpt>
      <trkpt lat="48.74688" lon="1.78776">
        <ele>180</ele>
        <time>2010-05-13T14:24:57Z</time>
      </trkpt>
      <trkpt lat="48.74688" lon="1.78773">
        <ele>180</ele>
        <time>2010-05-13T14:24:59Z</time>
      </trkpt>
      <trkpt lat="48.74688" lon="1.78771">
        <ele>180</ele>
        <time>2010-05-13T14:25:01Z</time>
      </trkpt>
      <trkpt lat="48.74689" lon="1.78768">
        <ele>180</ele>
        <time>2010-05-13T14:25:02Z</time>
      </trkpt>
      <trkpt lat="48.7469" lon="1.78767">
        <ele>180</ele>
        <time>2010-05-13T14:25:04Z</time>
      </trkpt>
      <trkpt lat="48.7469" lon="1.78765">
        <ele>180</ele>
        <time>2010-05-13T14:25:04Z</time>
      </trkpt>
      <trkpt lat="48.74691" lon="1.78762">
        <ele>180</ele>
        <time>2010-05-13T14:25:05Z</time>
      </trkpt>
      <trkpt lat="48.7469" lon="1.78759">
        <ele>180</ele>
        <time>2010-05-13T14:25:06Z</time>
      </trkpt>
      <trkpt lat="48.7469" lon="1.78755">
        <ele>180</ele>
        <time>2010-05-13T14:25:07Z</time>
      </trkpt>
      <trkpt lat="48.74689" lon="1.78752">
        <ele>180</ele>
        <time>2010-05-13T14:25:09Z</time>
      </trkpt>
      <trkpt lat="48.74691" lon="1.78747">
        <ele>180</ele>
        <time>2010-05-13T14:25:09Z</time>
      </trkpt>
      <trkpt lat="48.7469" lon="1.78743">
        <ele>180</ele>
        <time>2010-05-13T14:25:11Z</time>
      </trkpt>
      <trkpt lat="48.7469" lon="1.7874">
        <ele>180</ele>
        <time>2010-05-13T14:25:11Z</time>
      </trkpt>
      <trkpt lat="48.7469" lon="1.78737">
        <ele>180</ele>
        <time>2010-05-13T14:25:12Z</time>
      </trkpt>
      <trkpt lat="48.7469" lon="1.78733">
        <ele>180</ele>
        <time>2010-05-13T14:25:14Z</time>
      </trkpt>
      <trkpt lat="48.74691" lon="1.7873">
        <ele>180</ele>
        <time>2010-05-13T14:25:14Z</time>
      </trkpt>
      <trkpt lat="48.7469" lon="1.78728">
        <ele>180</ele>
        <time>2010-05-13T14:25:16Z</time>
      </trkpt>
      <trkpt lat="48.7469" lon="1.78725">
        <ele>180</ele>
        <time>2010-05-13T14:25:16Z</time>
      </trkpt>
      <trkpt lat="48.7469" lon="1.78722">
        <ele>180</ele>
        <time>2010-05-13T14:25:17Z</time>
      </trkpt>
      <trkpt lat="48.74691" lon="1.78719">
        <ele>180</ele>
        <time>2010-05-13T14:25:19Z</time>
      </trkpt>
      <trkpt lat="48.74694" lon="1.78717">
        <ele>180</ele>
        <time>2010-05-13T14:25:20Z</time>
      </trkpt>
      <trkpt lat="48.74696" lon="1.78715">
        <ele>180</ele>
        <time>2010-05-13T14:25:21Z</time>
      </trkpt>
      <trkpt lat="48.74698" lon="1.78713">
        <ele>181</ele>
        <time>2010-05-13T14:25:22Z</time>
      </trkpt>
      <trkpt lat="48.74701" lon="1.78711">
        <ele>182</ele>
        <time>2010-05-13T14:25:24Z</time>
      </trkpt>
      <trkpt lat="48.747" lon="1.78708">
        <ele>183</ele>
        <time>2010-05-13T14:25:24Z</time>
      </trkpt>
      <trkpt lat="48.74697" lon="1.78706">
        <ele>184</ele>
        <time>2010-05-13T14:25:25Z</time>
      </trkpt>
      <trkpt lat="48.74695" lon="1.78704">
        <ele>185</ele>
        <time>2010-05-13T14:25:26Z</time>
      </trkpt>
      <trkpt lat="48.74693" lon="1.78702">
        <ele>186</ele>
        <time>2010-05-13T14:25:27Z</time>
      </trkpt>
      <trkpt lat="48.74693" lon="1.787">
        <ele>186</ele>
        <time>2010-05-13T14:25:29Z</time>
      </trkpt>
      <trkpt lat="48.74693" lon="1.78698">
        <ele>186</ele>
        <time>2010-05-13T14:25:29Z</time>
      </trkpt>
      <trkpt lat="48.74692" lon="1.78695">
        <ele>186</ele>
        <time>2010-05-13T14:25:30Z</time>
      </trkpt>
      <trkpt lat="48.7469" lon="1.78693">
        <ele>186</ele>
        <time>2010-05-13T14:25:32Z</time>
      </trkpt>
      <trkpt lat="48.74691" lon="1.7869">
        <ele>186</ele>
        <time>2010-05-13T14:25:34Z</time>
      </trkpt>
      <trkpt lat="48.7469" lon="1.78689">
        <ele>186</ele>
        <time>2010-05-13T14:25:35Z</time>
      </trkpt>
      <trkpt lat="48.74688" lon="1.78687">
        <ele>186</ele>
        <time>2010-05-13T14:25:36Z</time>
      </trkpt>
      <trkpt lat="48.74689" lon="1.78685">
        <ele>186</ele>
        <time>2010-05-13T14:25:37Z</time>
      </trkpt>
      <trkpt lat="48.74686" lon="1.78683">
        <ele>186</ele>
        <time>2010-05-13T14:25:39Z</time>
      </trkpt>
      <trkpt lat="48.74686" lon="1.78681">
        <ele>186</ele>
        <time>2010-05-13T14:25:39Z</time>
      </trkpt>
      <trkpt lat="48.74685" lon="1.78678">
        <ele>186</ele>
        <time>2010-05-13T14:25:40Z</time>
      </trkpt>
      <trkpt lat="48.74685" lon="1.78676">
        <ele>186</ele>
        <time>2010-05-13T14:25:41Z</time>
      </trkpt>
      <trkpt lat="48.74683" lon="1.78673">
        <ele>186</ele>
        <time>2010-05-13T14:25:42Z</time>
      </trkpt>
      <trkpt lat="48.74684" lon="1.78671">
        <ele>186</ele>
        <time>2010-05-13T14:25:44Z</time>
      </trkpt>
      <trkpt lat="48.74684" lon="1.78669">
        <ele>186</ele>
        <time>2010-05-13T14:25:44Z</time>
      </trkpt>
      <trkpt lat="48.74684" lon="1.78667">
        <ele>186</ele>
        <time>2010-05-13T14:25:46Z</time>
      </trkpt>
      <trkpt lat="48.74686" lon="1.78663">
        <ele>186</ele>
        <time>2010-05-13T14:25:46Z</time>
      </trkpt>
      <trkpt lat="48.74688" lon="1.78661">
        <ele>186</ele>
        <time>2010-05-13T14:25:47Z</time>
      </trkpt>
      <trkpt lat="48.74687" lon="1.78658">
        <ele>186</ele>
        <time>2010-05-13T14:25:49Z</time>
      </trkpt>
      <trkpt lat="48.74686" lon="1.78656">
        <ele>187</ele>
        <time>2010-05-13T14:25:51Z</time>
      </trkpt>
      <trkpt lat="48.74685" lon="1.78653">
        <ele>188</ele>
        <time>2010-05-13T14:25:51Z</time>
      </trkpt>
      <trkpt lat="48.74684" lon="1.78651">
        <ele>188</ele>
        <time>2010-05-13T14:25:52Z</time>
      </trkpt>
      <trkpt lat="48.74685" lon="1.7865">
        <ele>188</ele>
        <time>2010-05-13T14:25:54Z</time>
      </trkpt>
      <trkpt lat="48.74684" lon="1.78646">
        <ele>188</ele>
        <time>2010-05-13T14:25:57Z</time>
      </trkpt>
      <trkpt lat="48.74684" lon="1.78644">
        <ele>188</ele>
        <time>2010-05-13T14:25:57Z</time>
      </trkpt>
      <trkpt lat="48.7468" lon="1.7864">
        <ele>188</ele>
        <time>2010-05-13T14:25:59Z</time>
      </trkpt>
      <trkpt lat="48.7468" lon="1.78638">
        <ele>188</ele>
        <time>2010-05-13T14:25:59Z</time>
      </trkpt>
      <trkpt lat="48.74678" lon="1.78635">
        <ele>188</ele>
        <time>2010-05-13T14:26:00Z</time>
      </trkpt>
      <trkpt lat="48.74675" lon="1.78632">
        <ele>188</ele>
        <time>2010-05-13T14:26:01Z</time>
      </trkpt>
      <trkpt lat="48.74676" lon="1.78629">
        <ele>188</ele>
        <time>2010-05-13T14:26:02Z</time>
      </trkpt>
      <trkpt lat="48.74675" lon="1.78627">
        <ele>188</ele>
        <time>2010-05-13T14:26:04Z</time>
      </trkpt>
      <trkpt lat="48.74675" lon="1.78625">
        <ele>188</ele>
        <time>2010-05-13T14:26:04Z</time>
      </trkpt>
      <trkpt lat="48.74674" lon="1.78623">
        <ele>188</ele>
        <time>2010-05-13T14:26:05Z</time>
      </trkpt>
      <trkpt lat="48.74675" lon="1.78621">
        <ele>188</ele>
        <time>2010-05-13T14:26:06Z</time>
      </trkpt>
      <trkpt lat="48.74673" lon="1.78618">
        <ele>188</ele>
        <time>2010-05-13T14:26:07Z</time>
      </trkpt>
      <trkpt lat="48.74671" lon="1.78616">
        <ele>188</ele>
        <time>2010-05-13T14:26:09Z</time>
      </trkpt>
      <trkpt lat="48.74673" lon="1.78614">
        <ele>188</ele>
        <time>2010-05-13T14:26:09Z</time>
      </trkpt>
      <trkpt lat="48.74671" lon="1.78612">
        <ele>188</ele>
        <time>2010-05-13T14:26:10Z</time>
      </trkpt>
      <trkpt lat="48.74669" lon="1.78607">
        <ele>188</ele>
        <time>2010-05-13T14:26:13Z</time>
      </trkpt>
      <trkpt lat="48.74667" lon="1.78604">
        <ele>188</ele>
        <time>2010-05-13T14:26:14Z</time>
      </trkpt>
      <trkpt lat="48.74665" lon="1.78601">
        <ele>188</ele>
        <time>2010-05-13T14:26:14Z</time>
      </trkpt>
      <trkpt lat="48.74664" lon="1.78597">
        <ele>188</ele>
        <time>2010-05-13T14:26:15Z</time>
      </trkpt>
      <trkpt lat="48.74663" lon="1.78595">
        <ele>187</ele>
        <time>2010-05-13T14:26:16Z</time>
      </trkpt>
      <trkpt lat="48.74662" lon="1.78593">
        <ele>186</ele>
        <time>2010-05-13T14:26:18Z</time>
      </trkpt>
      <trkpt lat="48.74662" lon="1.78591">
        <ele>186</ele>
        <time>2010-05-13T14:26:19Z</time>
      </trkpt>
      <trkpt lat="48.7466" lon="1.78588">
        <ele>185</ele>
        <time>2010-05-13T14:26:19Z</time>
      </trkpt>
      <trkpt lat="48.74659" lon="1.78585">
        <ele>184</ele>
        <time>2010-05-13T14:26:20Z</time>
      </trkpt>
      <trkpt lat="48.74658" lon="1.78583">
        <ele>184</ele>
        <time>2010-05-13T14:26:21Z</time>
      </trkpt>
      <trkpt lat="48.74656" lon="1.78581">
        <ele>183</ele>
        <time>2010-05-13T14:26:22Z</time>
      </trkpt>
      <trkpt lat="48.74655" lon="1.78578">
        <ele>183</ele>
        <time>2010-05-13T14:26:24Z</time>
      </trkpt>
      <trkpt lat="48.74654" lon="1.78575">
        <ele>183</ele>
        <time>2010-05-13T14:26:26Z</time>
      </trkpt>
      <trkpt lat="48.74652" lon="1.78571">
        <ele>183</ele>
        <time>2010-05-13T14:26:29Z</time>
      </trkpt>
      <trkpt lat="48.7465" lon="1.78569">
        <ele>183</ele>
        <time>2010-05-13T14:26:29Z</time>
      </trkpt>
      <trkpt lat="48.74648" lon="1.78566">
        <ele>183</ele>
        <time>2010-05-13T14:26:30Z</time>
      </trkpt>
      <trkpt lat="48.7465" lon="1.78564">
        <ele>183</ele>
        <time>2010-05-13T14:26:31Z</time>
      </trkpt>
      <trkpt lat="48.74649" lon="1.78562">
        <ele>183</ele>
        <time>2010-05-13T14:26:32Z</time>
      </trkpt>
      <trkpt lat="48.74649" lon="1.7856">
        <ele>183</ele>
        <time>2010-05-13T14:26:34Z</time>
      </trkpt>
      <trkpt lat="48.74649" lon="1.78558">
        <ele>183</ele>
        <time>2010-05-13T14:26:34Z</time>
      </trkpt>
      <trkpt lat="48.74648" lon="1.78555">
        <ele>183</ele>
        <time>2010-05-13T14:26:35Z</time>
      </trkpt>
      <trkpt lat="48.74648" lon="1.78552">
        <ele>183</ele>
        <time>2010-05-13T14:26:36Z</time>
      </trkpt>
      <trkpt lat="48.74648" lon="1.7855">
        <ele>183</ele>
        <time>2010-05-13T14:26:37Z</time>
      </trkpt>
      <trkpt lat="48.74647" lon="1.78547">
        <ele>184</ele>
        <time>2010-05-13T14:26:39Z</time>
      </trkpt>
      <trkpt lat="48.74646" lon="1.78545">
        <ele>184</ele>
        <time>2010-05-13T14:26:40Z</time>
      </trkpt>
      <trkpt lat="48.74645" lon="1.78543">
        <ele>184</ele>
        <time>2010-05-13T14:26:41Z</time>
      </trkpt>
      <trkpt lat="48.74644" lon="1.7854">
        <ele>185</ele>
        <time>2010-05-13T14:26:44Z</time>
      </trkpt>
      <trkpt lat="48.74643" lon="1.78538">
        <ele>185</ele>
        <time>2010-05-13T14:26:45Z</time>
      </trkpt>
      <trkpt lat="48.74642" lon="1.78536">
        <ele>185</ele>
        <time>2010-05-13T14:26:45Z</time>
      </trkpt>
      <trkpt lat="48.74642" lon="1.78533">
        <ele>185</ele>
        <time>2010-05-13T14:26:47Z</time>
      </trkpt>
      <trkpt lat="48.74645" lon="1.78531">
        <ele>185</ele>
        <time>2010-05-13T14:26:49Z</time>
      </trkpt>
      <trkpt lat="48.74644" lon="1.78529">
        <ele>185</ele>
        <time>2010-05-13T14:26:49Z</time>
      </trkpt>
      <trkpt lat="48.74643" lon="1.78527">
        <ele>185</ele>
        <time>2010-05-13T14:26:50Z</time>
      </trkpt>
      <trkpt lat="48.74642" lon="1.78524">
        <ele>186</ele>
        <time>2010-05-13T14:26:51Z</time>
      </trkpt>
      <trkpt lat="48.74642" lon="1.78521">
        <ele>186</ele>
        <time>2010-05-13T14:26:54Z</time>
      </trkpt>
      <trkpt lat="48.74642" lon="1.78518">
        <ele>186</ele>
        <time>2010-05-13T14:26:54Z</time>
      </trkpt>
      <trkpt lat="48.74641" lon="1.78516">
        <ele>187</ele>
        <time>2010-05-13T14:26:55Z</time>
      </trkpt>
      <trkpt lat="48.74639" lon="1.78514">
        <ele>187</ele>
        <time>2010-05-13T14:26:56Z</time>
      </trkpt>
      <trkpt lat="48.74636" lon="1.78511">
        <ele>187</ele>
        <time>2010-05-13T14:26:57Z</time>
      </trkpt>
      <trkpt lat="48.74633" lon="1.78508">
        <ele>187</ele>
        <time>2010-05-13T14:26:59Z</time>
      </trkpt>
      <trkpt lat="48.74631" lon="1.78506">
        <ele>187</ele>
        <time>2010-05-13T14:26:59Z</time>
      </trkpt>
      <trkpt lat="48.7463" lon="1.78503">
        <ele>187</ele>
        <time>2010-05-13T14:27:00Z</time>
      </trkpt>
      <trkpt lat="48.7463" lon="1.78501">
        <ele>186</ele>
        <time>2010-05-13T14:27:01Z</time>
      </trkpt>
      <trkpt lat="48.74632" lon="1.78498">
        <ele>185</ele>
        <time>2010-05-13T14:27:02Z</time>
      </trkpt>
      <trkpt lat="48.74631" lon="1.78495">
        <ele>185</ele>
        <time>2010-05-13T14:27:04Z</time>
      </trkpt>
      <trkpt lat="48.74628" lon="1.78491">
        <ele>184</ele>
        <time>2010-05-13T14:27:04Z</time>
      </trkpt>
      <trkpt lat="48.74626" lon="1.78488">
        <ele>183</ele>
        <time>2010-05-13T14:27:05Z</time>
      </trkpt>
      <trkpt lat="48.74624" lon="1.78484">
        <ele>183</ele>
        <time>2010-05-13T14:27:06Z</time>
      </trkpt>
      <trkpt lat="48.74622" lon="1.78481">
        <ele>182</ele>
        <time>2010-05-13T14:27:07Z</time>
      </trkpt>
      <trkpt lat="48.74619" lon="1.78477">
        <ele>181</ele>
        <time>2010-05-13T14:27:09Z</time>
      </trkpt>
      <trkpt lat="48.74616" lon="1.78473">
        <ele>180</ele>
        <time>2010-05-13T14:27:09Z</time>
      </trkpt>
      <trkpt lat="48.74615" lon="1.7847">
        <ele>178</ele>
        <time>2010-05-13T14:27:11Z</time>
      </trkpt>
      <trkpt lat="48.74614" lon="1.78466">
        <ele>177</ele>
        <time>2010-05-13T14:27:12Z</time>
      </trkpt>
      <trkpt lat="48.74612" lon="1.78463">
        <ele>176</ele>
        <time>2010-05-13T14:27:14Z</time>
      </trkpt>
      <trkpt lat="48.7461" lon="1.78461">
        <ele>176</ele>
        <time>2010-05-13T14:27:14Z</time>
      </trkpt>
      <trkpt lat="48.74611" lon="1.78459">
        <ele>176</ele>
        <time>2010-05-13T14:27:16Z</time>
      </trkpt>
      <trkpt lat="48.74612" lon="1.78458">
        <ele>176</ele>
        <time>2010-05-13T14:27:17Z</time>
      </trkpt>
      <trkpt lat="48.7461" lon="1.78456">
        <ele>176</ele>
        <time>2010-05-13T14:27:19Z</time>
      </trkpt>
      <trkpt lat="48.74608" lon="1.78454">
        <ele>176</ele>
        <time>2010-05-13T14:27:19Z</time>
      </trkpt>
      <trkpt lat="48.74606" lon="1.78452">
        <ele>176</ele>
        <time>2010-05-13T14:27:20Z</time>
      </trkpt>
      <trkpt lat="48.74607" lon="1.78451">
        <ele>176</ele>
        <time>2010-05-13T14:27:21Z</time>
      </trkpt>
      <trkpt lat="48.74608" lon="1.78449">
        <ele>176</ele>
        <time>2010-05-13T14:27:22Z</time>
      </trkpt>
      <trkpt lat="48.7461" lon="1.78447">
        <ele>176</ele>
        <time>2010-05-13T14:27:24Z</time>
      </trkpt>
      <trkpt lat="48.74611" lon="1.78445">
        <ele>176</ele>
        <time>2010-05-13T14:27:25Z</time>
      </trkpt>
      <trkpt lat="48.74608" lon="1.78442">
        <ele>176</ele>
        <time>2010-05-13T14:27:25Z</time>
      </trkpt>
      <trkpt lat="48.74605" lon="1.78439">
        <ele>176</ele>
        <time>2010-05-13T14:27:26Z</time>
      </trkpt>
      <trkpt lat="48.74604" lon="1.78437">
        <ele>176</ele>
        <time>2010-05-13T14:27:27Z</time>
      </trkpt>
      <trkpt lat="48.74604" lon="1.78435">
        <ele>176</ele>
        <time>2010-05-13T14:27:29Z</time>
      </trkpt>
      <trkpt lat="48.74605" lon="1.78432">
        <ele>176</ele>
        <time>2010-05-13T14:27:29Z</time>
      </trkpt>
      <trkpt lat="48.74606" lon="1.7843">
        <ele>176</ele>
        <time>2010-05-13T14:27:30Z</time>
      </trkpt>
      <trkpt lat="48.74606" lon="1.78428">
        <ele>177</ele>
        <time>2010-05-13T14:27:32Z</time>
      </trkpt>
      <trkpt lat="48.74609" lon="1.78428">
        <ele>178</ele>
        <time>2010-05-13T14:27:34Z</time>
      </trkpt>
      <trkpt lat="48.74609" lon="1.78425">
        <ele>180</ele>
        <time>2010-05-13T14:27:35Z</time>
      </trkpt>
      <trkpt lat="48.7461" lon="1.78424">
        <ele>182</ele>
        <time>2010-05-13T14:27:37Z</time>
      </trkpt>
      <trkpt lat="48.74611" lon="1.78421">
        <ele>184</ele>
        <time>2010-05-13T14:27:39Z</time>
      </trkpt>
      <trkpt lat="48.74611" lon="1.78419">
        <ele>186</ele>
        <time>2010-05-13T14:27:41Z</time>
      </trkpt>
      <trkpt lat="48.74612" lon="1.78417">
        <ele>187</ele>
        <time>2010-05-13T14:27:44Z</time>
      </trkpt>
      <trkpt lat="48.74613" lon="1.78415">
        <ele>187</ele>
        <time>2010-05-13T14:27:44Z</time>
      </trkpt>
      <trkpt lat="48.74613" lon="1.78413">
        <ele>188</ele>
        <time>2010-05-13T14:27:45Z</time>
      </trkpt>
      <trkpt lat="48.74613" lon="1.78411">
        <ele>188</ele>
        <time>2010-05-13T14:27:46Z</time>
      </trkpt>
      <trkpt lat="48.74615" lon="1.78408">
        <ele>188</ele>
        <time>2010-05-13T14:27:49Z</time>
      </trkpt>
      <trkpt lat="48.74616" lon="1.78406">
        <ele>189</ele>
        <time>2010-05-13T14:27:50Z</time>
      </trkpt>
      <trkpt lat="48.74614" lon="1.78403">
        <ele>190</ele>
        <time>2010-05-13T14:27:51Z</time>
      </trkpt>
      <trkpt lat="48.74613" lon="1.78401">
        <ele>191</ele>
        <time>2010-05-13T14:27:52Z</time>
      </trkpt>
      <trkpt lat="48.74613" lon="1.78398">
        <ele>191</ele>
        <time>2010-05-13T14:27:54Z</time>
      </trkpt>
      <trkpt lat="48.74608" lon="1.78393">
        <ele>191</ele>
        <time>2010-05-13T14:27:54Z</time>
      </trkpt>
      <trkpt lat="48.74608" lon="1.78391">
        <ele>191</ele>
        <time>2010-05-13T14:27:55Z</time>
      </trkpt>
      <trkpt lat="48.74609" lon="1.78388">
        <ele>191</ele>
        <time>2010-05-13T14:27:56Z</time>
      </trkpt>
      <trkpt lat="48.74609" lon="1.78385">
        <ele>191</ele>
        <time>2010-05-13T14:27:57Z</time>
      </trkpt>
      <trkpt lat="48.74607" lon="1.78383">
        <ele>191</ele>
        <time>2010-05-13T14:27:59Z</time>
      </trkpt>
      <trkpt lat="48.74607" lon="1.78381">
        <ele>191</ele>
        <time>2010-05-13T14:27:59Z</time>
      </trkpt>
      <trkpt lat="48.74606" lon="1.78379">
        <ele>191</ele>
        <time>2010-05-13T14:28:00Z</time>
      </trkpt>
      <trkpt lat="48.74607" lon="1.78377">
        <ele>191</ele>
        <time>2010-05-13T14:28:01Z</time>
      </trkpt>
      <trkpt lat="48.74605" lon="1.78375">
        <ele>191</ele>
        <time>2010-05-13T14:28:02Z</time>
      </trkpt>
      <trkpt lat="48.74606" lon="1.78372">
        <ele>191</ele>
        <time>2010-05-13T14:28:04Z</time>
      </trkpt>
      <trkpt lat="48.74605" lon="1.7837">
        <ele>191</ele>
        <time>2010-05-13T14:28:04Z</time>
      </trkpt>
      <trkpt lat="48.74606" lon="1.78368">
        <ele>191</ele>
        <time>2010-05-13T14:28:05Z</time>
      </trkpt>
      <trkpt lat="48.74604" lon="1.78365">
        <ele>191</ele>
        <time>2010-05-13T14:28:07Z</time>
      </trkpt>
      <trkpt lat="48.74604" lon="1.78363">
        <ele>191</ele>
        <time>2010-05-13T14:28:07Z</time>
      </trkpt>
      <trkpt lat="48.74605" lon="1.7836">
        <ele>191</ele>
        <time>2010-05-13T14:28:09Z</time>
      </trkpt>
      <trkpt lat="48.74603" lon="1.78357">
        <ele>191</ele>
        <time>2010-05-13T14:28:10Z</time>
      </trkpt>
      <trkpt lat="48.74602" lon="1.78354">
        <ele>191</ele>
        <time>2010-05-13T14:28:11Z</time>
      </trkpt>
      <trkpt lat="48.74596" lon="1.7835">
        <ele>191</ele>
        <time>2010-05-13T14:28:12Z</time>
      </trkpt>
      <trkpt lat="48.74593" lon="1.78347">
        <ele>191</ele>
        <time>2010-05-13T14:28:14Z</time>
      </trkpt>
      <trkpt lat="48.74588" lon="1.78343">
        <ele>191</ele>
        <time>2010-05-13T14:28:14Z</time>
      </trkpt>
      <trkpt lat="48.74586" lon="1.78341">
        <ele>191</ele>
        <time>2010-05-13T14:28:15Z</time>
      </trkpt>
      <trkpt lat="48.74583" lon="1.78337">
        <ele>191</ele>
        <time>2010-05-13T14:28:17Z</time>
      </trkpt>
      <trkpt lat="48.74583" lon="1.78336">
        <ele>190</ele>
        <time>2010-05-13T14:28:19Z</time>
      </trkpt>
      <trkpt lat="48.74581" lon="1.78333">
        <ele>190</ele>
        <time>2010-05-13T14:28:19Z</time>
      </trkpt>
      <trkpt lat="48.7458" lon="1.7833">
        <ele>189</ele>
        <time>2010-05-13T14:28:20Z</time>
      </trkpt>
      <trkpt lat="48.74579" lon="1.78328">
        <ele>188</ele>
        <time>2010-05-13T14:28:21Z</time>
      </trkpt>
      <trkpt lat="48.74579" lon="1.78326">
        <ele>187</ele>
        <time>2010-05-13T14:28:23Z</time>
      </trkpt>
      <trkpt lat="48.74578" lon="1.78323">
        <ele>185</ele>
        <time>2010-05-13T14:28:24Z</time>
      </trkpt>
      <trkpt lat="48.74579" lon="1.78321">
        <ele>184</ele>
        <time>2010-05-13T14:28:25Z</time>
      </trkpt>
      <trkpt lat="48.74579" lon="1.78318">
        <ele>184</ele>
        <time>2010-05-13T14:28:28Z</time>
      </trkpt>
      <trkpt lat="48.74578" lon="1.78316">
        <ele>184</ele>
        <time>2010-05-13T14:28:29Z</time>
      </trkpt>
      <trkpt lat="48.74578" lon="1.78314">
        <ele>183</ele>
        <time>2010-05-13T14:28:30Z</time>
      </trkpt>
      <trkpt lat="48.74577" lon="1.78312">
        <ele>181</ele>
        <time>2010-05-13T14:28:32Z</time>
      </trkpt>
      <trkpt lat="48.74576" lon="1.7831">
        <ele>180</ele>
        <time>2010-05-13T14:28:34Z</time>
      </trkpt>
      <trkpt lat="48.74575" lon="1.78307">
        <ele>180</ele>
        <time>2010-05-13T14:28:36Z</time>
      </trkpt>
      <trkpt lat="48.74574" lon="1.78305">
        <ele>180</ele>
        <time>2010-05-13T14:28:37Z</time>
      </trkpt>
      <trkpt lat="48.74572" lon="1.78302">
        <ele>180</ele>
        <time>2010-05-13T14:28:39Z</time>
      </trkpt>
      <trkpt lat="48.74572" lon="1.783">
        <ele>180</ele>
        <time>2010-05-13T14:28:39Z</time>
      </trkpt>
      <trkpt lat="48.74568" lon="1.78295">
        <ele>180</ele>
        <time>2010-05-13T14:28:40Z</time>
      </trkpt>
      <trkpt lat="48.74565" lon="1.7829">
        <ele>180</ele>
        <time>2010-05-13T14:28:41Z</time>
      </trkpt>
      <trkpt lat="48.74564" lon="1.78287">
        <ele>180</ele>
        <time>2010-05-13T14:28:43Z</time>
      </trkpt>
      <trkpt lat="48.74566" lon="1.78284">
        <ele>180</ele>
        <time>2010-05-13T14:28:44Z</time>
      </trkpt>
      <trkpt lat="48.74565" lon="1.78281">
        <ele>180</ele>
        <time>2010-05-13T14:28:44Z</time>
      </trkpt>
      <trkpt lat="48.74566" lon="1.7828">
        <ele>180</ele>
        <time>2010-05-13T14:28:45Z</time>
      </trkpt>
      <trkpt lat="48.74565" lon="1.78278">
        <ele>180</ele>
        <time>2010-05-13T14:28:46Z</time>
      </trkpt>
      <trkpt lat="48.74566" lon="1.78276">
        <ele>180</ele>
        <time>2010-05-13T14:28:47Z</time>
      </trkpt>
      <trkpt lat="48.74565" lon="1.78274">
        <ele>180</ele>
        <time>2010-05-13T14:28:49Z</time>
      </trkpt>
      <trkpt lat="48.74565" lon="1.78271">
        <ele>180</ele>
        <time>2010-05-13T14:28:49Z</time>
      </trkpt>
      <trkpt lat="48.74565" lon="1.78269">
        <ele>180</ele>
        <time>2010-05-13T14:28:50Z</time>
      </trkpt>
      <trkpt lat="48.74564" lon="1.78268">
        <ele>180</ele>
        <time>2010-05-13T14:28:51Z</time>
      </trkpt>
      <trkpt lat="48.74563" lon="1.78266">
        <ele>180</ele>
        <time>2010-05-13T14:28:52Z</time>
      </trkpt>
      <trkpt lat="48.74562" lon="1.78264">
        <ele>180</ele>
        <time>2010-05-13T14:28:54Z</time>
      </trkpt>
      <trkpt lat="48.74562" lon="1.78262">
        <ele>180</ele>
        <time>2010-05-13T14:28:54Z</time>
      </trkpt>
      <trkpt lat="48.74561" lon="1.7826">
        <ele>180</ele>
        <time>2010-05-13T14:28:55Z</time>
      </trkpt>
      <trkpt lat="48.74561" lon="1.78258">
        <ele>180</ele>
        <time>2010-05-13T14:28:56Z</time>
      </trkpt>
      <trkpt lat="48.74561" lon="1.78256">
        <ele>180</ele>
        <time>2010-05-13T14:28:57Z</time>
      </trkpt>
      <trkpt lat="48.7456" lon="1.78253">
        <ele>180</ele>
        <time>2010-05-13T14:28:59Z</time>
      </trkpt>
      <trkpt lat="48.7456" lon="1.78251">
        <ele>180</ele>
        <time>2010-05-13T14:28:59Z</time>
      </trkpt>
      <trkpt lat="48.7456" lon="1.78248">
        <ele>180</ele>
        <time>2010-05-13T14:29:00Z</time>
      </trkpt>
      <trkpt lat="48.74559" lon="1.78246">
        <ele>180</ele>
        <time>2010-05-13T14:29:01Z</time>
      </trkpt>
      <trkpt lat="48.74559" lon="1.78245">
        <ele>180</ele>
        <time>2010-05-13T14:29:03Z</time>
      </trkpt>
      <trkpt lat="48.74557" lon="1.78241">
        <ele>180</ele>
        <time>2010-05-13T14:29:04Z</time>
      </trkpt>
      <trkpt lat="48.74556" lon="1.78239">
        <ele>180</ele>
        <time>2010-05-13T14:29:05Z</time>
      </trkpt>
      <trkpt lat="48.74554" lon="1.78236">
        <ele>180</ele>
        <time>2010-05-13T14:29:07Z</time>
      </trkpt>
      <trkpt lat="48.74551" lon="1.78233">
        <ele>179</ele>
        <time>2010-05-13T14:29:09Z</time>
      </trkpt>
      <trkpt lat="48.7455" lon="1.7823">
        <ele>178</ele>
        <time>2010-05-13T14:29:11Z</time>
      </trkpt>
      <trkpt lat="48.74549" lon="1.78228">
        <ele>177</ele>
        <time>2010-05-13T14:29:12Z</time>
      </trkpt>
      <trkpt lat="48.74547" lon="1.78227">
        <ele>176</ele>
        <time>2010-05-13T14:29:14Z</time>
      </trkpt>
      <trkpt lat="48.74548" lon="1.78224">
        <ele>175</ele>
        <time>2010-05-13T14:29:15Z</time>
      </trkpt>
      <trkpt lat="48.74547" lon="1.7822">
        <ele>175</ele>
        <time>2010-05-13T14:29:17Z</time>
      </trkpt>
      <trkpt lat="48.74546" lon="1.78218">
        <ele>175</ele>
        <time>2010-05-13T14:29:19Z</time>
      </trkpt>
      <trkpt lat="48.74546" lon="1.78217">
        <ele>175</ele>
        <time>2010-05-13T14:29:19Z</time>
      </trkpt>
      <trkpt lat="48.74544" lon="1.78214">
        <ele>174</ele>
        <time>2010-05-13T14:29:21Z</time>
      </trkpt>
      <trkpt lat="48.74543" lon="1.78212">
        <ele>174</ele>
        <time>2010-05-13T14:29:22Z</time>
      </trkpt>
      <trkpt lat="48.74542" lon="1.7821">
        <ele>173</ele>
        <time>2010-05-13T14:29:24Z</time>
      </trkpt>
      <trkpt lat="48.74542" lon="1.78208">
        <ele>173</ele>
        <time>2010-05-13T14:29:24Z</time>
      </trkpt>
      <trkpt lat="48.7454" lon="1.78205">
        <ele>172</ele>
        <time>2010-05-13T14:29:26Z</time>
      </trkpt>
      <trkpt lat="48.7454" lon="1.78203">
        <ele>172</ele>
        <time>2010-05-13T14:29:28Z</time>
      </trkpt>
      <trkpt lat="48.74539" lon="1.78201">
        <ele>172</ele>
        <time>2010-05-13T14:29:29Z</time>
      </trkpt>
      <trkpt lat="48.74538" lon="1.78199">
        <ele>171</ele>
        <time>2010-05-13T14:29:29Z</time>
      </trkpt>
      <trkpt lat="48.74538" lon="1.78197">
        <ele>171</ele>
        <time>2010-05-13T14:29:30Z</time>
      </trkpt>
      <trkpt lat="48.74537" lon="1.78195">
        <ele>171</ele>
        <time>2010-05-13T14:29:31Z</time>
      </trkpt>
      <trkpt lat="48.74537" lon="1.78193">
        <ele>170</ele>
        <time>2010-05-13T14:29:32Z</time>
      </trkpt>
      <trkpt lat="48.74537" lon="1.78191">
        <ele>170</ele>
        <time>2010-05-13T14:29:34Z</time>
      </trkpt>
      <trkpt lat="48.74538" lon="1.78187">
        <ele>170</ele>
        <time>2010-05-13T14:29:34Z</time>
      </trkpt>
      <trkpt lat="48.74538" lon="1.78186">
        <ele>170</ele>
        <time>2010-05-13T14:29:35Z</time>
      </trkpt>
      <trkpt lat="48.74537" lon="1.78182">
        <ele>170</ele>
        <time>2010-05-13T14:29:37Z</time>
      </trkpt>
      <trkpt lat="48.74538" lon="1.78178">
        <ele>171</ele>
        <time>2010-05-13T14:29:39Z</time>
      </trkpt>
      <trkpt lat="48.74538" lon="1.78174">
        <ele>172</ele>
        <time>2010-05-13T14:29:39Z</time>
      </trkpt>
      <trkpt lat="48.74537" lon="1.78172">
        <ele>173</ele>
        <time>2010-05-13T14:29:40Z</time>
      </trkpt>
      <trkpt lat="48.74536" lon="1.7817">
        <ele>174</ele>
        <time>2010-05-13T14:29:41Z</time>
      </trkpt>
      <trkpt lat="48.74533" lon="1.78168">
        <ele>175</ele>
        <time>2010-05-13T14:29:43Z</time>
      </trkpt>
      <trkpt lat="48.74531" lon="1.78166">
        <ele>175</ele>
        <time>2010-05-13T14:29:44Z</time>
      </trkpt>
      <trkpt lat="48.74529" lon="1.78164">
        <ele>175</ele>
        <time>2010-05-13T14:29:44Z</time>
      </trkpt>
      <trkpt lat="48.74527" lon="1.78162">
        <ele>175</ele>
        <time>2010-05-13T14:29:45Z</time>
      </trkpt>
      <trkpt lat="48.74526" lon="1.7816">
        <ele>175</ele>
        <time>2010-05-13T14:29:46Z</time>
      </trkpt>
      <trkpt lat="48.74525" lon="1.78158">
        <ele>175</ele>
        <time>2010-05-13T14:29:47Z</time>
      </trkpt>
      <trkpt lat="48.74524" lon="1.78156">
        <ele>175</ele>
        <time>2010-05-13T14:29:49Z</time>
      </trkpt>
      <trkpt lat="48.74524" lon="1.78154">
        <ele>175</ele>
        <time>2010-05-13T14:29:49Z</time>
      </trkpt>
      <trkpt lat="48.74524" lon="1.78152">
        <ele>175</ele>
        <time>2010-05-13T14:29:50Z</time>
      </trkpt>
      <trkpt lat="48.74523" lon="1.7815">
        <ele>175</ele>
        <time>2010-05-13T14:29:51Z</time>
      </trkpt>
      <trkpt lat="48.74522" lon="1.78147">
        <ele>174</ele>
        <time>2010-05-13T14:29:54Z</time>
      </trkpt>
      <trkpt lat="48.74521" lon="1.78144">
        <ele>174</ele>
        <time>2010-05-13T14:29:55Z</time>
      </trkpt>
      <trkpt lat="48.74521" lon="1.78142">
        <ele>174</ele>
        <time>2010-05-13T14:29:56Z</time>
      </trkpt>
      <trkpt lat="48.7452" lon="1.7814">
        <ele>174</ele>
        <time>2010-05-13T14:29:57Z</time>
      </trkpt>
      <trkpt lat="48.7452" lon="1.78138">
        <ele>174</ele>
        <time>2010-05-13T14:29:59Z</time>
      </trkpt>
      <trkpt lat="48.74519" lon="1.78136">
        <ele>174</ele>
        <time>2010-05-13T14:29:59Z</time>
      </trkpt>
      <trkpt lat="48.74518" lon="1.78134">
        <ele>174</ele>
        <time>2010-05-13T14:30:00Z</time>
      </trkpt>
      <trkpt lat="48.74518" lon="1.7813">
        <ele>174</ele>
        <time>2010-05-13T14:30:01Z</time>
      </trkpt>
      <trkpt lat="48.74518" lon="1.78127">
        <ele>174</ele>
        <time>2010-05-13T14:30:02Z</time>
      </trkpt>
      <trkpt lat="48.74517" lon="1.78124">
        <ele>174</ele>
        <time>2010-05-13T14:30:04Z</time>
      </trkpt>
      <trkpt lat="48.74517" lon="1.78121">
        <ele>174</ele>
        <time>2010-05-13T14:30:04Z</time>
      </trkpt>
      <trkpt lat="48.74517" lon="1.78119">
        <ele>174</ele>
        <time>2010-05-13T14:30:05Z</time>
      </trkpt>
      <trkpt lat="48.74516" lon="1.78117">
        <ele>174</ele>
        <time>2010-05-13T14:30:06Z</time>
      </trkpt>
      <trkpt lat="48.74515" lon="1.78115">
        <ele>174</ele>
        <time>2010-05-13T14:30:07Z</time>
      </trkpt>
      <trkpt lat="48.74515" lon="1.78113">
        <ele>174</ele>
        <time>2010-05-13T14:30:09Z</time>
      </trkpt>
      <trkpt lat="48.74514" lon="1.7811">
        <ele>174</ele>
        <time>2010-05-13T14:30:09Z</time>
      </trkpt>
      <trkpt lat="48.74514" lon="1.78107">
        <ele>174</ele>
        <time>2010-05-13T14:30:11Z</time>
      </trkpt>
      <trkpt lat="48.74513" lon="1.78105">
        <ele>174</ele>
        <time>2010-05-13T14:30:12Z</time>
      </trkpt>
      <trkpt lat="48.74513" lon="1.78101">
        <ele>174</ele>
        <time>2010-05-13T14:30:14Z</time>
      </trkpt>
      <trkpt lat="48.74512" lon="1.78098">
        <ele>174</ele>
        <time>2010-05-13T14:30:14Z</time>
      </trkpt>
      <trkpt lat="48.74511" lon="1.78095">
        <ele>175</ele>
        <time>2010-05-13T14:30:15Z</time>
      </trkpt>
      <trkpt lat="48.74508" lon="1.78091">
        <ele>176</ele>
        <time>2010-05-13T14:30:16Z</time>
      </trkpt>
      <trkpt lat="48.74505" lon="1.78087">
        <ele>176</ele>
        <time>2010-05-13T14:30:17Z</time>
      </trkpt>
      <trkpt lat="48.74504" lon="1.78084">
        <ele>177</ele>
        <time>2010-05-13T14:30:19Z</time>
      </trkpt>
      <trkpt lat="48.74503" lon="1.7808">
        <ele>178</ele>
        <time>2010-05-13T14:30:19Z</time>
      </trkpt>
      <trkpt lat="48.74502" lon="1.78078">
        <ele>178</ele>
        <time>2010-05-13T14:30:20Z</time>
      </trkpt>
      <trkpt lat="48.74502" lon="1.78076">
        <ele>179</ele>
        <time>2010-05-13T14:30:21Z</time>
      </trkpt>
      <trkpt lat="48.74501" lon="1.78075">
        <ele>179</ele>
        <time>2010-05-13T14:30:22Z</time>
      </trkpt>
      <trkpt lat="48.745" lon="1.78073">
        <ele>180</ele>
        <time>2010-05-13T14:30:24Z</time>
      </trkpt>
      <trkpt lat="48.74499" lon="1.7807">
        <ele>180</ele>
        <time>2010-05-13T14:30:24Z</time>
      </trkpt>
      <trkpt lat="48.74498" lon="1.78068">
        <ele>180</ele>
        <time>2010-05-13T14:30:25Z</time>
      </trkpt>
      <trkpt lat="48.74498" lon="1.78067">
        <ele>180</ele>
        <time>2010-05-13T14:30:26Z</time>
      </trkpt>
      <trkpt lat="48.74497" lon="1.78065">
        <ele>180</ele>
        <time>2010-05-13T14:30:27Z</time>
      </trkpt>
      <trkpt lat="48.74496" lon="1.78062">
        <ele>180</ele>
        <time>2010-05-13T14:30:30Z</time>
      </trkpt>
      <trkpt lat="48.74496" lon="1.78061">
        <ele>180</ele>
        <time>2010-05-13T14:30:30Z</time>
      </trkpt>
      <trkpt lat="48.74496" lon="1.78059">
        <ele>180</ele>
        <time>2010-05-13T14:30:31Z</time>
      </trkpt>
      <trkpt lat="48.74496" lon="1.78057">
        <ele>181</ele>
        <time>2010-05-13T14:30:32Z</time>
      </trkpt>
      <trkpt lat="48.74496" lon="1.78055">
        <ele>181</ele>
        <time>2010-05-13T14:30:34Z</time>
      </trkpt>
      <trkpt lat="48.74496" lon="1.78053">
        <ele>181</ele>
        <time>2010-05-13T14:30:35Z</time>
      </trkpt>
      <trkpt lat="48.74495" lon="1.78051">
        <ele>181</ele>
        <time>2010-05-13T14:30:35Z</time>
      </trkpt>
      <trkpt lat="48.74495" lon="1.78049">
        <ele>182</ele>
        <time>2010-05-13T14:30:36Z</time>
      </trkpt>
      <trkpt lat="48.74495" lon="1.78047">
        <ele>182</ele>
        <time>2010-05-13T14:30:37Z</time>
      </trkpt>
      <trkpt lat="48.74495" lon="1.78045">
        <ele>182</ele>
        <time>2010-05-13T14:30:39Z</time>
      </trkpt>
      <trkpt lat="48.74494" lon="1.78043">
        <ele>182</ele>
        <time>2010-05-13T14:30:39Z</time>
      </trkpt>
      <trkpt lat="48.74494" lon="1.7804">
        <ele>182</ele>
        <time>2010-05-13T14:30:40Z</time>
      </trkpt>
      <trkpt lat="48.74493" lon="1.78038">
        <ele>182</ele>
        <time>2010-05-13T14:30:41Z</time>
      </trkpt>
      <trkpt lat="48.7449" lon="1.78034">
        <ele>182</ele>
        <time>2010-05-13T14:30:44Z</time>
      </trkpt>
      <trkpt lat="48.74489" lon="1.78032">
        <ele>182</ele>
        <time>2010-05-13T14:30:45Z</time>
      </trkpt>
      <trkpt lat="48.74487" lon="1.78029">
        <ele>182</ele>
        <time>2010-05-13T14:30:45Z</time>
      </trkpt>
      <trkpt lat="48.74486" lon="1.78026">
        <ele>182</ele>
        <time>2010-05-13T14:30:46Z</time>
      </trkpt>
      <trkpt lat="48.74484" lon="1.78023">
        <ele>182</ele>
        <time>2010-05-13T14:30:47Z</time>
      </trkpt>
      <trkpt lat="48.74483" lon="1.78021">
        <ele>182</ele>
        <time>2010-05-13T14:30:49Z</time>
      </trkpt>
      <trkpt lat="48.74482" lon="1.78018">
        <ele>182</ele>
        <time>2010-05-13T14:30:49Z</time>
      </trkpt>
      <trkpt lat="48.7448" lon="1.78015">
        <ele>182</ele>
        <time>2010-05-13T14:30:50Z</time>
      </trkpt>
      <trkpt lat="48.74479" lon="1.78013">
        <ele>182</ele>
        <time>2010-05-13T14:30:51Z</time>
      </trkpt>
      <trkpt lat="48.74478" lon="1.78011">
        <ele>182</ele>
        <time>2010-05-13T14:30:52Z</time>
      </trkpt>
      <trkpt lat="48.74478" lon="1.78009">
        <ele>182</ele>
        <time>2010-05-13T14:30:54Z</time>
      </trkpt>
      <trkpt lat="48.74477" lon="1.78007">
        <ele>182</ele>
        <time>2010-05-13T14:30:55Z</time>
      </trkpt>
      <trkpt lat="48.74477" lon="1.78005">
        <ele>182</ele>
        <time>2010-05-13T14:30:55Z</time>
      </trkpt>
      <trkpt lat="48.74476" lon="1.78004">
        <ele>182</ele>
        <time>2010-05-13T14:30:56Z</time>
      </trkpt>
      <trkpt lat="48.74476" lon="1.78002">
        <ele>182</ele>
        <time>2010-05-13T14:30:57Z</time>
      </trkpt>
      <trkpt lat="48.74475" lon="1.77999">
        <ele>182</ele>
        <time>2010-05-13T14:30:59Z</time>
      </trkpt>
      <trkpt lat="48.74475" lon="1.77996">
        <ele>181</ele>
        <time>2010-05-13T14:31:00Z</time>
      </trkpt>
      <trkpt lat="48.74474" lon="1.77994">
        <ele>181</ele>
        <time>2010-05-13T14:31:00Z</time>
      </trkpt>
      <trkpt lat="48.74473" lon="1.77991">
        <ele>181</ele>
        <time>2010-05-13T14:31:02Z</time>
      </trkpt>
      <trkpt lat="48.74473" lon="1.77989">
        <ele>181</ele>
        <time>2010-05-13T14:31:04Z</time>
      </trkpt>
      <trkpt lat="48.74472" lon="1.77987">
        <ele>181</ele>
        <time>2010-05-13T14:31:04Z</time>
      </trkpt>
      <trkpt lat="48.7447" lon="1.77983">
        <ele>181</ele>
        <time>2010-05-13T14:31:05Z</time>
      </trkpt>
      <trkpt lat="48.74469" lon="1.7798">
        <ele>181</ele>
        <time>2010-05-13T14:31:06Z</time>
      </trkpt>
      <trkpt lat="48.74467" lon="1.77977">
        <ele>181</ele>
        <time>2010-05-13T14:31:09Z</time>
      </trkpt>
      <trkpt lat="48.74466" lon="1.77975">
        <ele>181</ele>
        <time>2010-05-13T14:31:10Z</time>
      </trkpt>
      <trkpt lat="48.74465" lon="1.77973">
        <ele>181</ele>
        <time>2010-05-13T14:31:12Z</time>
      </trkpt>
      <trkpt lat="48.74463" lon="1.77968">
        <ele>181</ele>
        <time>2010-05-13T14:31:14Z</time>
      </trkpt>
      <trkpt lat="48.74463" lon="1.77967">
        <ele>181</ele>
        <time>2010-05-13T14:31:15Z</time>
      </trkpt>
      <trkpt lat="48.74463" lon="1.77964">
        <ele>181</ele>
        <time>2010-05-13T14:31:16Z</time>
      </trkpt>
      <trkpt lat="48.74463" lon="1.77962">
        <ele>181</ele>
        <time>2010-05-13T14:31:17Z</time>
      </trkpt>
      <trkpt lat="48.74463" lon="1.77959">
        <ele>181</ele>
        <time>2010-05-13T14:31:19Z</time>
      </trkpt>
      <trkpt lat="48.74461" lon="1.7796">
        <ele>181</ele>
        <time>2010-05-13T14:31:21Z</time>
      </trkpt>
      <trkpt lat="48.7446" lon="1.77959">
        <ele>181</ele>
        <time>2010-05-13T14:31:24Z</time>
      </trkpt>
      <trkpt lat="48.74459" lon="1.77957">
        <ele>181</ele>
        <time>2010-05-13T14:31:25Z</time>
      </trkpt>
      <trkpt lat="48.74459" lon="1.77955">
        <ele>181</ele>
        <time>2010-05-13T14:31:27Z</time>
      </trkpt>
      <trkpt lat="48.74458" lon="1.77953">
        <ele>181</ele>
        <time>2010-05-13T14:31:27Z</time>
      </trkpt>
      <trkpt lat="48.74458" lon="1.77951">
        <ele>181</ele>
        <time>2010-05-13T14:31:29Z</time>
      </trkpt>
      <trkpt lat="48.74458" lon="1.77948">
        <ele>181</ele>
        <time>2010-05-13T14:31:30Z</time>
      </trkpt>
      <trkpt lat="48.74457" lon="1.77946">
        <ele>181</ele>
        <time>2010-05-13T14:31:32Z</time>
      </trkpt>
      <trkpt lat="48.74457" lon="1.77942">
        <ele>181</ele>
        <time>2010-05-13T14:31:34Z</time>
      </trkpt>
      <trkpt lat="48.74457" lon="1.77941">
        <ele>181</ele>
        <time>2010-05-13T14:31:35Z</time>
      </trkpt>
      <trkpt lat="48.74456" lon="1.77938">
        <ele>181</ele>
        <time>2010-05-13T14:31:36Z</time>
      </trkpt>
      <trkpt lat="48.74456" lon="1.77936">
        <ele>181</ele>
        <time>2010-05-13T14:31:38Z</time>
      </trkpt>
      <trkpt lat="48.74456" lon="1.77935">
        <ele>181</ele>
        <time>2010-05-13T14:31:39Z</time>
      </trkpt>
      <trkpt lat="48.74455" lon="1.77932">
        <ele>181</ele>
        <time>2010-05-13T14:31:40Z</time>
      </trkpt>
      <trkpt lat="48.74455" lon="1.7793">
        <ele>181</ele>
        <time>2010-05-13T14:31:41Z</time>
      </trkpt>
      <trkpt lat="48.74455" lon="1.77928">
        <ele>181</ele>
        <time>2010-05-13T14:31:44Z</time>
      </trkpt>
      <trkpt lat="48.74455" lon="1.77926">
        <ele>181</ele>
        <time>2010-05-13T14:31:44Z</time>
      </trkpt>
      <trkpt lat="48.74455" lon="1.77924">
        <ele>181</ele>
        <time>2010-05-13T14:31:45Z</time>
      </trkpt>
      <trkpt lat="48.74454" lon="1.77921">
        <ele>181</ele>
        <time>2010-05-13T14:31:46Z</time>
      </trkpt>
      <trkpt lat="48.74453" lon="1.77919">
        <ele>181</ele>
        <time>2010-05-13T14:31:47Z</time>
      </trkpt>
      <trkpt lat="48.74453" lon="1.77917">
        <ele>181</ele>
        <time>2010-05-13T14:31:49Z</time>
      </trkpt>
      <trkpt lat="48.74452" lon="1.77913">
        <ele>181</ele>
        <time>2010-05-13T14:31:50Z</time>
      </trkpt>
      <trkpt lat="48.74452" lon="1.77911">
        <ele>181</ele>
        <time>2010-05-13T14:31:51Z</time>
      </trkpt>
      <trkpt lat="48.74451" lon="1.77909">
        <ele>181</ele>
        <time>2010-05-13T14:31:52Z</time>
      </trkpt>
      <trkpt lat="48.74451" lon="1.77908">
        <ele>181</ele>
        <time>2010-05-13T14:31:54Z</time>
      </trkpt>
      <trkpt lat="48.7445" lon="1.77904">
        <ele>181</ele>
        <time>2010-05-13T14:31:54Z</time>
      </trkpt>
      <trkpt lat="48.7445" lon="1.77901">
        <ele>181</ele>
        <time>2010-05-13T14:31:55Z</time>
      </trkpt>
      <trkpt lat="48.7445" lon="1.77899">
        <ele>181</ele>
        <time>2010-05-13T14:31:56Z</time>
      </trkpt>
      <trkpt lat="48.7445" lon="1.77896">
        <ele>181</ele>
        <time>2010-05-13T14:31:57Z</time>
      </trkpt>
      <trkpt lat="48.7445" lon="1.77894">
        <ele>181</ele>
        <time>2010-05-13T14:31:59Z</time>
      </trkpt>
      <trkpt lat="48.74449" lon="1.77891">
        <ele>181</ele>
        <time>2010-05-13T14:31:59Z</time>
      </trkpt>
      <trkpt lat="48.74449" lon="1.77889">
        <ele>181</ele>
        <time>2010-05-13T14:32:00Z</time>
      </trkpt>
      <trkpt lat="48.74448" lon="1.77888">
        <ele>181</ele>
        <time>2010-05-13T14:32:01Z</time>
      </trkpt>
      <trkpt lat="48.74448" lon="1.77885">
        <ele>181</ele>
        <time>2010-05-13T14:32:04Z</time>
      </trkpt>
      <trkpt lat="48.74447" lon="1.77882">
        <ele>181</ele>
        <time>2010-05-13T14:32:05Z</time>
      </trkpt>
      <trkpt lat="48.74446" lon="1.7788">
        <ele>181</ele>
        <time>2010-05-13T14:32:07Z</time>
      </trkpt>
      <trkpt lat="48.74444" lon="1.77878">
        <ele>181</ele>
        <time>2010-05-13T14:32:10Z</time>
      </trkpt>
      <trkpt lat="48.74443" lon="1.77876">
        <ele>181</ele>
        <time>2010-05-13T14:32:11Z</time>
      </trkpt>
      <trkpt lat="48.74443" lon="1.77874">
        <ele>181</ele>
        <time>2010-05-13T14:32:12Z</time>
      </trkpt>
      <trkpt lat="48.74443" lon="1.7787">
        <ele>181</ele>
        <time>2010-05-13T14:32:14Z</time>
      </trkpt>
      <trkpt lat="48.74441" lon="1.77868">
        <ele>181</ele>
        <time>2010-05-13T14:32:15Z</time>
      </trkpt>
      <trkpt lat="48.7444" lon="1.77865">
        <ele>181</ele>
        <time>2010-05-13T14:32:17Z</time>
      </trkpt>
      <trkpt lat="48.74439" lon="1.77863">
        <ele>181</ele>
        <time>2010-05-13T14:32:19Z</time>
      </trkpt>
      <trkpt lat="48.74438" lon="1.77861">
        <ele>181</ele>
        <time>2010-05-13T14:32:20Z</time>
      </trkpt>
      <trkpt lat="48.74438" lon="1.77858">
        <ele>180</ele>
        <time>2010-05-13T14:32:22Z</time>
      </trkpt>
      <trkpt lat="48.74437" lon="1.77855">
        <ele>180</ele>
        <time>2010-05-13T14:32:24Z</time>
      </trkpt>
      <trkpt lat="48.74434" lon="1.7785">
        <ele>180</ele>
        <time>2010-05-13T14:32:25Z</time>
      </trkpt>
      <trkpt lat="48.74434" lon="1.77846">
        <ele>180</ele>
        <time>2010-05-13T14:32:27Z</time>
      </trkpt>
      <trkpt lat="48.74433" lon="1.77845">
        <ele>180</ele>
        <time>2010-05-13T14:32:29Z</time>
      </trkpt>
      <trkpt lat="48.74432" lon="1.77842">
        <ele>180</ele>
        <time>2010-05-13T14:32:29Z</time>
      </trkpt>
      <trkpt lat="48.74432" lon="1.77841">
        <ele>180</ele>
        <time>2010-05-13T14:32:30Z</time>
      </trkpt>
      <trkpt lat="48.74431" lon="1.77839">
        <ele>180</ele>
        <time>2010-05-13T14:32:31Z</time>
      </trkpt>
      <trkpt lat="48.7443" lon="1.77837">
        <ele>180</ele>
        <time>2010-05-13T14:32:32Z</time>
      </trkpt>
      <trkpt lat="48.74429" lon="1.77836">
        <ele>180</ele>
        <time>2010-05-13T14:32:34Z</time>
      </trkpt>
      <trkpt lat="48.74428" lon="1.77833">
        <ele>180</ele>
        <time>2010-05-13T14:32:35Z</time>
      </trkpt>
      <trkpt lat="48.74428" lon="1.7783">
        <ele>179</ele>
        <time>2010-05-13T14:32:37Z</time>
      </trkpt>
      <trkpt lat="48.74427" lon="1.77826">
        <ele>179</ele>
        <time>2010-05-13T14:32:39Z</time>
      </trkpt>
      <trkpt lat="48.74427" lon="1.77824">
        <ele>179</ele>
        <time>2010-05-13T14:32:41Z</time>
      </trkpt>
      <trkpt lat="48.74426" lon="1.77822">
        <ele>178</ele>
        <time>2010-05-13T14:32:42Z</time>
      </trkpt>
      <trkpt lat="48.74426" lon="1.7782">
        <ele>178</ele>
        <time>2010-05-13T14:32:44Z</time>
      </trkpt>
      <trkpt lat="48.74425" lon="1.77818">
        <ele>176</ele>
        <time>2010-05-13T14:32:46Z</time>
      </trkpt>
      <trkpt lat="48.74424" lon="1.77816">
        <ele>176</ele>
        <time>2010-05-13T14:32:49Z</time>
      </trkpt>
      <trkpt lat="48.74423" lon="1.77815">
        <ele>175</ele>
        <time>2010-05-13T14:32:49Z</time>
      </trkpt>
      <trkpt lat="48.74421" lon="1.77812">
        <ele>174</ele>
        <time>2010-05-13T14:32:51Z</time>
      </trkpt>
      <trkpt lat="48.7442" lon="1.7781">
        <ele>173</ele>
        <time>2010-05-13T14:32:52Z</time>
      </trkpt>
      <trkpt lat="48.74418" lon="1.77808">
        <ele>171</ele>
        <time>2010-05-13T14:32:54Z</time>
      </trkpt>
      <trkpt lat="48.74417" lon="1.77807">
        <ele>170</ele>
        <time>2010-05-13T14:32:55Z</time>
      </trkpt>
      <trkpt lat="48.74416" lon="1.77805">
        <ele>168</ele>
        <time>2010-05-13T14:32:57Z</time>
      </trkpt>
      <trkpt lat="48.74415" lon="1.77802">
        <ele>166</ele>
        <time>2010-05-13T14:32:59Z</time>
      </trkpt>
      <trkpt lat="48.74415" lon="1.77799">
        <ele>164</ele>
        <time>2010-05-13T14:33:01Z</time>
      </trkpt>
      <trkpt lat="48.74415" lon="1.77797">
        <ele>163</ele>
        <time>2010-05-13T14:33:02Z</time>
      </trkpt>
      <trkpt lat="48.74414" lon="1.77795">
        <ele>162</ele>
        <time>2010-05-13T14:33:04Z</time>
      </trkpt>
      <trkpt lat="48.74413" lon="1.77793">
        <ele>160</ele>
        <time>2010-05-13T14:33:05Z</time>
      </trkpt>
      <trkpt lat="48.74411" lon="1.7779">
        <ele>157</ele>
        <time>2010-05-13T14:33:07Z</time>
      </trkpt>
      <trkpt lat="48.74409" lon="1.77788">
        <ele>156</ele>
        <time>2010-05-13T14:33:09Z</time>
      </trkpt>
      <trkpt lat="48.74407" lon="1.77787">
        <ele>155</ele>
        <time>2010-05-13T14:33:09Z</time>
      </trkpt>
      <trkpt lat="48.74406" lon="1.77785">
        <ele>153</ele>
        <time>2010-05-13T14:33:11Z</time>
      </trkpt>
      <trkpt lat="48.74404" lon="1.77784">
        <ele>151</ele>
        <time>2010-05-13T14:33:14Z</time>
      </trkpt>
      <trkpt lat="48.74402" lon="1.7778">
        <ele>149</ele>
        <time>2010-05-13T14:33:15Z</time>
      </trkpt>
      <trkpt lat="48.74402" lon="1.77778">
        <ele>149</ele>
        <time>2010-05-13T14:33:16Z</time>
      </trkpt>
      <trkpt lat="48.74402" lon="1.77774">
        <ele>147</ele>
        <time>2010-05-13T14:33:19Z</time>
      </trkpt>
      <trkpt lat="48.74402" lon="1.77772">
        <ele>146</ele>
        <time>2010-05-13T14:33:19Z</time>
      </trkpt>
      <trkpt lat="48.74403" lon="1.7777">
        <ele>144</ele>
        <time>2010-05-13T14:33:21Z</time>
      </trkpt>
      <trkpt lat="48.74403" lon="1.77767">
        <ele>142</ele>
        <time>2010-05-13T14:33:24Z</time>
      </trkpt>
      <trkpt lat="48.74403" lon="1.77764">
        <ele>140</ele>
        <time>2010-05-13T14:33:25Z</time>
      </trkpt>
      <trkpt lat="48.74403" lon="1.77762">
        <ele>139</ele>
        <time>2010-05-13T14:33:26Z</time>
      </trkpt>
      <trkpt lat="48.74403" lon="1.7776">
        <ele>138</ele>
        <time>2010-05-13T14:33:27Z</time>
      </trkpt>
      <trkpt lat="48.74403" lon="1.77755">
        <ele>136</ele>
        <time>2010-05-13T14:33:29Z</time>
      </trkpt>
      <trkpt lat="48.74402" lon="1.77752">
        <ele>132</ele>
        <time>2010-05-13T14:33:34Z</time>
      </trkpt>
      <trkpt lat="48.74402" lon="1.7775">
        <ele>131</ele>
        <time>2010-05-13T14:33:35Z</time>
      </trkpt>
      <trkpt lat="48.74401" lon="1.77748">
        <ele>131</ele>
        <time>2010-05-13T14:33:36Z</time>
      </trkpt>
      <trkpt lat="48.74401" lon="1.77746">
        <ele>129</ele>
        <time>2010-05-13T14:33:39Z</time>
      </trkpt>
      <trkpt lat="48.744" lon="1.77743">
        <ele>127</ele>
        <time>2010-05-13T14:33:40Z</time>
      </trkpt>
      <trkpt lat="48.74399" lon="1.7774">
        <ele>126</ele>
        <time>2010-05-13T14:33:42Z</time>
      </trkpt>
      <trkpt lat="48.74398" lon="1.77738">
        <ele>124</ele>
        <time>2010-05-13T14:33:44Z</time>
      </trkpt>
      <trkpt lat="48.74398" lon="1.77735">
        <ele>124</ele>
        <time>2010-05-13T14:33:46Z</time>
      </trkpt>
      <trkpt lat="48.74398" lon="1.77733">
        <ele>122</ele>
        <time>2010-05-13T14:33:49Z</time>
      </trkpt>
      <trkpt lat="48.74398" lon="1.77727">
        <ele>121</ele>
        <time>2010-05-13T14:33:50Z</time>
      </trkpt>
      <trkpt lat="48.74398" lon="1.77725">
        <ele>120</ele>
        <time>2010-05-13T14:33:52Z</time>
      </trkpt>
      <trkpt lat="48.74396" lon="1.77722">
        <ele>120</ele>
        <time>2010-05-13T14:33:54Z</time>
      </trkpt>
      <trkpt lat="48.74397" lon="1.77719">
        <ele>120</ele>
        <time>2010-05-13T14:33:55Z</time>
      </trkpt>
      <trkpt lat="48.74396" lon="1.77717">
        <ele>120</ele>
        <time>2010-05-13T14:33:56Z</time>
      </trkpt>
      <trkpt lat="48.74396" lon="1.77715">
        <ele>120</ele>
        <time>2010-05-13T14:33:57Z</time>
      </trkpt>
      <trkpt lat="48.74395" lon="1.77712">
        <ele>120</ele>
        <time>2010-05-13T14:33:59Z</time>
      </trkpt>
      <trkpt lat="48.74395" lon="1.77708">
        <ele>120</ele>
        <time>2010-05-13T14:33:59Z</time>
      </trkpt>
      <trkpt lat="48.74394" lon="1.77704">
        <ele>120</ele>
        <time>2010-05-13T14:34:00Z</time>
      </trkpt>
      <trkpt lat="48.74394" lon="1.77699">
        <ele>119</ele>
        <time>2010-05-13T14:34:01Z</time>
      </trkpt>
      <trkpt lat="48.74395" lon="1.77696">
        <ele>119</ele>
        <time>2010-05-13T14:34:02Z</time>
      </trkpt>
      <trkpt lat="48.74396" lon="1.77692">
        <ele>119</ele>
        <time>2010-05-13T14:34:04Z</time>
      </trkpt>
      <trkpt lat="48.74396" lon="1.77687">
        <ele>119</ele>
        <time>2010-05-13T14:34:04Z</time>
      </trkpt>
      <trkpt lat="48.74395" lon="1.77682">
        <ele>119</ele>
        <time>2010-05-13T14:34:05Z</time>
      </trkpt>
      <trkpt lat="48.74396" lon="1.77677">
        <ele>118</ele>
        <time>2010-05-13T14:34:06Z</time>
      </trkpt>
      <trkpt lat="48.74395" lon="1.77671">
        <ele>118</ele>
        <time>2010-05-13T14:34:07Z</time>
      </trkpt>
      <trkpt lat="48.74395" lon="1.77666">
        <ele>118</ele>
        <time>2010-05-13T14:34:09Z</time>
      </trkpt>
      <trkpt lat="48.74394" lon="1.77662">
        <ele>118</ele>
        <time>2010-05-13T14:34:09Z</time>
      </trkpt>
      <trkpt lat="48.74393" lon="1.77658">
        <ele>117</ele>
        <time>2010-05-13T14:34:10Z</time>
      </trkpt>
      <trkpt lat="48.74391" lon="1.77655">
        <ele>117</ele>
        <time>2010-05-13T14:34:11Z</time>
      </trkpt>
      <trkpt lat="48.74389" lon="1.77652">
        <ele>117</ele>
        <time>2010-05-13T14:34:12Z</time>
      </trkpt>
      <trkpt lat="48.74388" lon="1.7765">
        <ele>117</ele>
        <time>2010-05-13T14:34:14Z</time>
      </trkpt>
      <trkpt lat="48.74387" lon="1.77648">
        <ele>117</ele>
        <time>2010-05-13T14:34:14Z</time>
      </trkpt>
      <trkpt lat="48.74386" lon="1.77645">
        <ele>117</ele>
        <time>2010-05-13T14:34:15Z</time>
      </trkpt>
      <trkpt lat="48.74386" lon="1.77644">
        <ele>117</ele>
        <time>2010-05-13T14:34:16Z</time>
      </trkpt>
      <trkpt lat="48.74386" lon="1.77642">
        <ele>117</ele>
        <time>2010-05-13T14:34:17Z</time>
      </trkpt>
      <trkpt lat="48.74386" lon="1.7764">
        <ele>117</ele>
        <time>2010-05-13T14:34:19Z</time>
      </trkpt>
      <trkpt lat="48.74384" lon="1.77638">
        <ele>117</ele>
        <time>2010-05-13T14:34:19Z</time>
      </trkpt>
      <trkpt lat="48.74384" lon="1.77636">
        <ele>117</ele>
        <time>2010-05-13T14:34:20Z</time>
      </trkpt>
      <trkpt lat="48.74383" lon="1.77634">
        <ele>117</ele>
        <time>2010-05-13T14:34:21Z</time>
      </trkpt>
      <trkpt lat="48.74383" lon="1.77632">
        <ele>117</ele>
        <time>2010-05-13T14:34:22Z</time>
      </trkpt>
      <trkpt lat="48.74382" lon="1.7763">
        <ele>117</ele>
        <time>2010-05-13T14:34:24Z</time>
      </trkpt>
      <trkpt lat="48.74381" lon="1.77627">
        <ele>117</ele>
        <time>2010-05-13T14:34:24Z</time>
      </trkpt>
      <trkpt lat="48.74379" lon="1.77625">
        <ele>117</ele>
        <time>2010-05-13T14:34:25Z</time>
      </trkpt>
      <trkpt lat="48.74378" lon="1.77623">
        <ele>117</ele>
        <time>2010-05-13T14:34:26Z</time>
      </trkpt>
      <trkpt lat="48.74376" lon="1.77621">
        <ele>117</ele>
        <time>2010-05-13T14:34:27Z</time>
      </trkpt>
      <trkpt lat="48.74377" lon="1.77618">
        <ele>117</ele>
        <time>2010-05-13T14:34:29Z</time>
      </trkpt>
      <trkpt lat="48.74377" lon="1.77615">
        <ele>117</ele>
        <time>2010-05-13T14:34:34Z</time>
      </trkpt>
      <trkpt lat="48.74376" lon="1.77613">
        <ele>117</ele>
        <time>2010-05-13T14:34:34Z</time>
      </trkpt>
      <trkpt lat="48.74373" lon="1.77607">
        <ele>118</ele>
        <time>2010-05-13T14:34:37Z</time>
      </trkpt>
      <trkpt lat="48.74373" lon="1.77604">
        <ele>119</ele>
        <time>2010-05-13T14:34:39Z</time>
      </trkpt>
      <trkpt lat="48.7437" lon="1.77599">
        <ele>119</ele>
        <time>2010-05-13T14:34:39Z</time>
      </trkpt>
      <trkpt lat="48.74367" lon="1.77598">
        <ele>120</ele>
        <time>2010-05-13T14:34:40Z</time>
      </trkpt>
      <trkpt lat="48.74365" lon="1.77596">
        <ele>121</ele>
        <time>2010-05-13T14:34:41Z</time>
      </trkpt>
      <trkpt lat="48.74362" lon="1.77593">
        <ele>121</ele>
        <time>2010-05-13T14:34:42Z</time>
      </trkpt>
      <trkpt lat="48.74361" lon="1.77591">
        <ele>121</ele>
        <time>2010-05-13T14:34:44Z</time>
      </trkpt>
      <trkpt lat="48.74359" lon="1.77589">
        <ele>121</ele>
        <time>2010-05-13T14:34:44Z</time>
      </trkpt>
      <trkpt lat="48.74358" lon="1.77587">
        <ele>121</ele>
        <time>2010-05-13T14:34:45Z</time>
      </trkpt>
      <trkpt lat="48.74358" lon="1.77585">
        <ele>121</ele>
        <time>2010-05-13T14:34:46Z</time>
      </trkpt>
      <trkpt lat="48.74355" lon="1.77582">
        <ele>121</ele>
        <time>2010-05-13T14:34:47Z</time>
      </trkpt>
      <trkpt lat="48.74355" lon="1.7758">
        <ele>122</ele>
        <time>2010-05-13T14:34:49Z</time>
      </trkpt>
      <trkpt lat="48.74355" lon="1.77577">
        <ele>123</ele>
        <time>2010-05-13T14:34:49Z</time>
      </trkpt>
      <trkpt lat="48.74355" lon="1.77575">
        <ele>124</ele>
        <time>2010-05-13T14:34:50Z</time>
      </trkpt>
      <trkpt lat="48.74353" lon="1.77571">
        <ele>125</ele>
        <time>2010-05-13T14:34:51Z</time>
      </trkpt>
      <trkpt lat="48.74351" lon="1.77569">
        <ele>127</ele>
        <time>2010-05-13T14:34:54Z</time>
      </trkpt>
      <trkpt lat="48.74351" lon="1.77567">
        <ele>128</ele>
        <time>2010-05-13T14:34:54Z</time>
      </trkpt>
      <trkpt lat="48.7435" lon="1.77565">
        <ele>129</ele>
        <time>2010-05-13T14:34:55Z</time>
      </trkpt>
      <trkpt lat="48.74347" lon="1.77559">
        <ele>131</ele>
        <time>2010-05-13T14:34:57Z</time>
      </trkpt>
      <trkpt lat="48.74346" lon="1.77556">
        <ele>133</ele>
        <time>2010-05-13T14:34:59Z</time>
      </trkpt>
      <trkpt lat="48.74343" lon="1.7755">
        <ele>135</ele>
        <time>2010-05-13T14:35:01Z</time>
      </trkpt>
      <trkpt lat="48.74341" lon="1.77547">
        <ele>136</ele>
        <time>2010-05-13T14:35:02Z</time>
      </trkpt>
      <trkpt lat="48.74341" lon="1.77545">
        <ele>137</ele>
        <time>2010-05-13T14:35:04Z</time>
      </trkpt>
      <trkpt lat="48.74341" lon="1.77543">
        <ele>138</ele>
        <time>2010-05-13T14:35:04Z</time>
      </trkpt>
      <trkpt lat="48.74341" lon="1.7754">
        <ele>140</ele>
        <time>2010-05-13T14:35:06Z</time>
      </trkpt>
      <trkpt lat="48.74341" lon="1.77538">
        <ele>141</ele>
        <time>2010-05-13T14:35:07Z</time>
      </trkpt>
      <trkpt lat="48.7434" lon="1.77536">
        <ele>142</ele>
        <time>2010-05-13T14:35:09Z</time>
      </trkpt>
      <trkpt lat="48.74338" lon="1.77533">
        <ele>143</ele>
        <time>2010-05-13T14:35:09Z</time>
      </trkpt>
      <trkpt lat="48.74338" lon="1.77532">
        <ele>144</ele>
        <time>2010-05-13T14:35:10Z</time>
      </trkpt>
      <trkpt lat="48.74337" lon="1.77527">
        <ele>145</ele>
        <time>2010-05-13T14:35:14Z</time>
      </trkpt>
      <trkpt lat="48.74336" lon="1.77524">
        <ele>146</ele>
        <time>2010-05-13T14:35:14Z</time>
      </trkpt>
      <trkpt lat="48.74336" lon="1.7752">
        <ele>147</ele>
        <time>2010-05-13T14:35:15Z</time>
      </trkpt>
      <trkpt lat="48.74334" lon="1.77518">
        <ele>148</ele>
        <time>2010-05-13T14:35:16Z</time>
      </trkpt>
      <trkpt lat="48.74334" lon="1.77512">
        <ele>149</ele>
        <time>2010-05-13T14:35:19Z</time>
      </trkpt>
      <trkpt lat="48.74335" lon="1.77509">
        <ele>150</ele>
        <time>2010-05-13T14:35:20Z</time>
      </trkpt>
      <trkpt lat="48.74335" lon="1.77506">
        <ele>151</ele>
        <time>2010-05-13T14:35:21Z</time>
      </trkpt>
      <trkpt lat="48.74333" lon="1.77505">
        <ele>152</ele>
        <time>2010-05-13T14:35:22Z</time>
      </trkpt>
      <trkpt lat="48.74331" lon="1.77503">
        <ele>153</ele>
        <time>2010-05-13T14:35:24Z</time>
      </trkpt>
      <trkpt lat="48.74329" lon="1.77501">
        <ele>154</ele>
        <time>2010-05-13T14:35:24Z</time>
      </trkpt>
      <trkpt lat="48.74328" lon="1.77499">
        <ele>155</ele>
        <time>2010-05-13T14:35:25Z</time>
      </trkpt>
      <trkpt lat="48.74327" lon="1.77498">
        <ele>156</ele>
        <time>2010-05-13T14:35:26Z</time>
      </trkpt>
      <trkpt lat="48.74325" lon="1.77495">
        <ele>157</ele>
        <time>2010-05-13T14:35:27Z</time>
      </trkpt>
      <trkpt lat="48.74324" lon="1.77494">
        <ele>158</ele>
        <time>2010-05-13T14:35:29Z</time>
      </trkpt>
      <trkpt lat="48.74323" lon="1.77492">
        <ele>159</ele>
        <time>2010-05-13T14:35:29Z</time>
      </trkpt>
      <trkpt lat="48.74321" lon="1.77489">
        <ele>160</ele>
        <time>2010-05-13T14:35:30Z</time>
      </trkpt>
      <trkpt lat="48.7432" lon="1.77486">
        <ele>161</ele>
        <time>2010-05-13T14:35:31Z</time>
      </trkpt>
      <trkpt lat="48.74319" lon="1.77484">
        <ele>161</ele>
        <time>2010-05-13T14:35:32Z</time>
      </trkpt>
      <trkpt lat="48.74317" lon="1.77482">
        <ele>161</ele>
        <time>2010-05-13T14:35:34Z</time>
      </trkpt>
      <trkpt lat="48.74317" lon="1.7748">
        <ele>161</ele>
        <time>2010-05-13T14:35:34Z</time>
      </trkpt>
      <trkpt lat="48.74316" lon="1.77478">
        <ele>162</ele>
        <time>2010-05-13T14:35:36Z</time>
      </trkpt>
      <trkpt lat="48.74315" lon="1.77475">
        <ele>162</ele>
        <time>2010-05-13T14:35:37Z</time>
      </trkpt>
      <trkpt lat="48.74315" lon="1.77473">
        <ele>162</ele>
        <time>2010-05-13T14:35:39Z</time>
      </trkpt>
      <trkpt lat="48.74313" lon="1.7747">
        <ele>163</ele>
        <time>2010-05-13T14:35:40Z</time>
      </trkpt>
      <trkpt lat="48.74311" lon="1.77468">
        <ele>163</ele>
        <time>2010-05-13T14:35:41Z</time>
      </trkpt>
      <trkpt lat="48.7431" lon="1.77466">
        <ele>163</ele>
        <time>2010-05-13T14:35:42Z</time>
      </trkpt>
      <trkpt lat="48.74309" lon="1.77464">
        <ele>163</ele>
        <time>2010-05-13T14:35:44Z</time>
      </trkpt>
      <trkpt lat="48.74308" lon="1.77462">
        <ele>163</ele>
        <time>2010-05-13T14:35:44Z</time>
      </trkpt>
      <trkpt lat="48.74307" lon="1.7746">
        <ele>163</ele>
        <time>2010-05-13T14:35:45Z</time>
      </trkpt>
      <trkpt lat="48.74306" lon="1.77458">
        <ele>163</ele>
        <time>2010-05-13T14:35:46Z</time>
      </trkpt>
      <trkpt lat="48.74307" lon="1.77455">
        <ele>163</ele>
        <time>2010-05-13T14:35:47Z</time>
      </trkpt>
      <trkpt lat="48.74307" lon="1.77453">
        <ele>163</ele>
        <time>2010-05-13T14:35:49Z</time>
      </trkpt>
      <trkpt lat="48.74308" lon="1.77451">
        <ele>163</ele>
        <time>2010-05-13T14:35:49Z</time>
      </trkpt>
      <trkpt lat="48.74307" lon="1.77449">
        <ele>163</ele>
        <time>2010-05-13T14:35:51Z</time>
      </trkpt>
      <trkpt lat="48.74306" lon="1.77446">
        <ele>164</ele>
        <time>2010-05-13T14:35:54Z</time>
      </trkpt>
      <trkpt lat="48.74305" lon="1.77444">
        <ele>165</ele>
        <time>2010-05-13T14:35:55Z</time>
      </trkpt>
      <trkpt lat="48.74305" lon="1.77442">
        <ele>166</ele>
        <time>2010-05-13T14:35:56Z</time>
      </trkpt>
      <trkpt lat="48.74303" lon="1.7744">
        <ele>167</ele>
        <time>2010-05-13T14:35:59Z</time>
      </trkpt>
      <trkpt lat="48.74301" lon="1.77438">
        <ele>168</ele>
        <time>2010-05-13T14:35:59Z</time>
      </trkpt>
      <trkpt lat="48.74301" lon="1.77437">
        <ele>169</ele>
        <time>2010-05-13T14:36:00Z</time>
      </trkpt>
      <trkpt lat="48.743" lon="1.77434">
        <ele>173</ele>
        <time>2010-05-13T14:36:04Z</time>
      </trkpt>
      <trkpt lat="48.74299" lon="1.77432">
        <ele>174</ele>
        <time>2010-05-13T14:36:05Z</time>
      </trkpt>
      <trkpt lat="48.74298" lon="1.7743">
        <ele>175</ele>
        <time>2010-05-13T14:36:06Z</time>
      </trkpt>
      <trkpt lat="48.74298" lon="1.77428">
        <ele>179</ele>
        <time>2010-05-13T14:36:10Z</time>
      </trkpt>
      <trkpt lat="48.74298" lon="1.77426">
        <ele>183</ele>
        <time>2010-05-13T14:36:14Z</time>
      </trkpt>
      <trkpt lat="48.74297" lon="1.77424">
        <ele>185</ele>
        <time>2010-05-13T14:36:16Z</time>
      </trkpt>
      <trkpt lat="48.74296" lon="1.77426">
        <ele>187</ele>
        <time>2010-05-13T14:36:20Z</time>
      </trkpt>
      <trkpt lat="48.74298" lon="1.77427">
        <ele>187</ele>
        <time>2010-05-13T14:36:24Z</time>
      </trkpt>
      <trkpt lat="48.74296" lon="1.77424">
        <ele>187</ele>
        <time>2010-05-13T14:36:29Z</time>
      </trkpt>
      <trkpt lat="48.74295" lon="1.77422">
        <ele>187</ele>
        <time>2010-05-13T14:36:29Z</time>
      </trkpt>
      <trkpt lat="48.74295" lon="1.7742">
        <ele>187</ele>
        <time>2010-05-13T14:36:31Z</time>
      </trkpt>
      <trkpt lat="48.74293" lon="1.77417">
        <ele>187</ele>
        <time>2010-05-13T14:36:34Z</time>
      </trkpt>
      <trkpt lat="48.74292" lon="1.77413">
        <ele>187</ele>
        <time>2010-05-13T14:36:35Z</time>
      </trkpt>
      <trkpt lat="48.74291" lon="1.77411">
        <ele>187</ele>
        <time>2010-05-13T14:36:36Z</time>
      </trkpt>
      <trkpt lat="48.7429" lon="1.77409">
        <ele>187</ele>
        <time>2010-05-13T14:36:37Z</time>
      </trkpt>
      <trkpt lat="48.74291" lon="1.77406">
        <ele>187</ele>
        <time>2010-05-13T14:36:39Z</time>
      </trkpt>
      <trkpt lat="48.7429" lon="1.77404">
        <ele>186</ele>
        <time>2010-05-13T14:36:41Z</time>
      </trkpt>
      <trkpt lat="48.74289" lon="1.774">
        <ele>185</ele>
        <time>2010-05-13T14:36:44Z</time>
      </trkpt>
      <trkpt lat="48.74288" lon="1.77398">
        <ele>183</ele>
        <time>2010-05-13T14:36:45Z</time>
      </trkpt>
      <trkpt lat="48.74288" lon="1.77395">
        <ele>182</ele>
        <time>2010-05-13T14:36:47Z</time>
      </trkpt>
      <trkpt lat="48.74286" lon="1.77392">
        <ele>181</ele>
        <time>2010-05-13T14:36:49Z</time>
      </trkpt>
      <trkpt lat="48.74285" lon="1.7739">
        <ele>179</ele>
        <time>2010-05-13T14:36:51Z</time>
      </trkpt>
      <trkpt lat="48.74284" lon="1.77388">
        <ele>176</ele>
        <time>2010-05-13T14:36:54Z</time>
      </trkpt>
      <trkpt lat="48.74285" lon="1.77385">
        <ele>175</ele>
        <time>2010-05-13T14:36:56Z</time>
      </trkpt>
      <trkpt lat="48.74284" lon="1.77383">
        <ele>173</ele>
        <time>2010-05-13T14:36:59Z</time>
      </trkpt>
      <trkpt lat="48.74284" lon="1.77381">
        <ele>173</ele>
        <time>2010-05-13T14:37:01Z</time>
      </trkpt>
      <trkpt lat="48.74284" lon="1.77378">
        <ele>172</ele>
        <time>2010-05-13T14:37:04Z</time>
      </trkpt>
      <trkpt lat="48.74284" lon="1.77375">
        <ele>170</ele>
        <time>2010-05-13T14:37:05Z</time>
      </trkpt>
      <trkpt lat="48.74284" lon="1.77373">
        <ele>169</ele>
        <time>2010-05-13T14:37:07Z</time>
      </trkpt>
      <trkpt lat="48.74284" lon="1.77371">
        <ele>168</ele>
        <time>2010-05-13T14:37:09Z</time>
      </trkpt>
      <trkpt lat="48.74283" lon="1.77369">
        <ele>168</ele>
        <time>2010-05-13T14:37:11Z</time>
      </trkpt>
      <trkpt lat="48.74283" lon="1.77367">
        <ele>167</ele>
        <time>2010-05-13T14:37:14Z</time>
      </trkpt>
      <trkpt lat="48.74283" lon="1.77364">
        <ele>165</ele>
        <time>2010-05-13T14:37:15Z</time>
      </trkpt>
      <trkpt lat="48.74282" lon="1.77362">
        <ele>164</ele>
        <time>2010-05-13T14:37:17Z</time>
      </trkpt>
      <trkpt lat="48.74281" lon="1.77361">
        <ele>163</ele>
        <time>2010-05-13T14:37:19Z</time>
      </trkpt>
      <trkpt lat="48.74281" lon="1.77358">
        <ele>161</ele>
        <time>2010-05-13T14:37:20Z</time>
      </trkpt>
      <trkpt lat="48.74282" lon="1.77356">
        <ele>161</ele>
        <time>2010-05-13T14:37:21Z</time>
      </trkpt>
      <trkpt lat="48.74282" lon="1.77353">
        <ele>159</ele>
        <time>2010-05-13T14:37:24Z</time>
      </trkpt>
      <trkpt lat="48.74281" lon="1.77352">
        <ele>159</ele>
        <time>2010-05-13T14:37:24Z</time>
      </trkpt>
      <trkpt lat="48.74279" lon="1.7735">
        <ele>158</ele>
        <time>2010-05-13T14:37:25Z</time>
      </trkpt>
      <trkpt lat="48.74278" lon="1.77349">
        <ele>157</ele>
        <time>2010-05-13T14:37:27Z</time>
      </trkpt>
      <trkpt lat="48.74277" lon="1.77346">
        <ele>156</ele>
        <time>2010-05-13T14:37:29Z</time>
      </trkpt>
      <trkpt lat="48.74278" lon="1.77343">
        <ele>155</ele>
        <time>2010-05-13T14:37:30Z</time>
      </trkpt>
      <trkpt lat="48.74277" lon="1.77342">
        <ele>154</ele>
        <time>2010-05-13T14:37:31Z</time>
      </trkpt>
      <trkpt lat="48.74277" lon="1.7734">
        <ele>153</ele>
        <time>2010-05-13T14:37:32Z</time>
      </trkpt>
      <trkpt lat="48.74275" lon="1.77337">
        <ele>152</ele>
        <time>2010-05-13T14:37:34Z</time>
      </trkpt>
      <trkpt lat="48.74274" lon="1.77335">
        <ele>152</ele>
        <time>2010-05-13T14:37:35Z</time>
      </trkpt>
      <trkpt lat="48.74272" lon="1.77334">
        <ele>152</ele>
        <time>2010-05-13T14:37:36Z</time>
      </trkpt>
      <trkpt lat="48.7427" lon="1.77331">
        <ele>152</ele>
        <time>2010-05-13T14:37:39Z</time>
      </trkpt>
      <trkpt lat="48.74267" lon="1.77329">
        <ele>152</ele>
        <time>2010-05-13T14:37:39Z</time>
      </trkpt>
      <trkpt lat="48.74265" lon="1.77329">
        <ele>152</ele>
        <time>2010-05-13T14:37:40Z</time>
      </trkpt>
      <trkpt lat="48.74262" lon="1.77328">
        <ele>151</ele>
        <time>2010-05-13T14:37:41Z</time>
      </trkpt>
      <trkpt lat="48.74259" lon="1.77328">
        <ele>150</ele>
        <time>2010-05-13T14:37:42Z</time>
      </trkpt>
      <trkpt lat="48.74256" lon="1.77329">
        <ele>150</ele>
        <time>2010-05-13T14:37:44Z</time>
      </trkpt>
      <trkpt lat="48.74253" lon="1.7733">
        <ele>149</ele>
        <time>2010-05-13T14:37:44Z</time>
      </trkpt>
      <trkpt lat="48.74251" lon="1.77331">
        <ele>148</ele>
        <time>2010-05-13T14:37:45Z</time>
      </trkpt>
      <trkpt lat="48.74249" lon="1.77332">
        <ele>147</ele>
        <time>2010-05-13T14:37:46Z</time>
      </trkpt>
      <trkpt lat="48.74247" lon="1.77333">
        <ele>146</ele>
        <time>2010-05-13T14:37:47Z</time>
      </trkpt>
      <trkpt lat="48.74246" lon="1.77334">
        <ele>145</ele>
        <time>2010-05-13T14:37:49Z</time>
      </trkpt>
      <trkpt lat="48.74244" lon="1.77335">
        <ele>145</ele>
        <time>2010-05-13T14:37:49Z</time>
      </trkpt>
      <trkpt lat="48.74243" lon="1.77337">
        <ele>144</ele>
        <time>2010-05-13T14:37:50Z</time>
      </trkpt>
      <trkpt lat="48.74241" lon="1.77337">
        <ele>144</ele>
        <time>2010-05-13T14:37:51Z</time>
      </trkpt>
      <trkpt lat="48.74239" lon="1.77336">
        <ele>144</ele>
        <time>2010-05-13T14:37:52Z</time>
      </trkpt>
      <trkpt lat="48.74238" lon="1.77335">
        <ele>144</ele>
        <time>2010-05-13T14:37:54Z</time>
      </trkpt>
      <trkpt lat="48.74236" lon="1.77333">
        <ele>144</ele>
        <time>2010-05-13T14:37:54Z</time>
      </trkpt>
      <trkpt lat="48.74235" lon="1.77333">
        <ele>144</ele>
        <time>2010-05-13T14:37:55Z</time>
      </trkpt>
      <trkpt lat="48.74234" lon="1.77333">
        <ele>144</ele>
        <time>2010-05-13T14:37:56Z</time>
      </trkpt>
      <trkpt lat="48.74232" lon="1.77333">
        <ele>144</ele>
        <time>2010-05-13T14:37:59Z</time>
      </trkpt>
      <trkpt lat="48.7423" lon="1.77334">
        <ele>144</ele>
        <time>2010-05-13T14:37:59Z</time>
      </trkpt>
      <trkpt lat="48.74229" lon="1.77333">
        <ele>144</ele>
        <time>2010-05-13T14:38:00Z</time>
      </trkpt>
      <trkpt lat="48.74227" lon="1.77331">
        <ele>144</ele>
        <time>2010-05-13T14:38:01Z</time>
      </trkpt>
      <trkpt lat="48.74226" lon="1.77331">
        <ele>145</ele>
        <time>2010-05-13T14:38:02Z</time>
      </trkpt>
      <trkpt lat="48.74224" lon="1.77331">
        <ele>146</ele>
        <time>2010-05-13T14:38:04Z</time>
      </trkpt>
      <trkpt lat="48.74222" lon="1.77332">
        <ele>147</ele>
        <time>2010-05-13T14:38:05Z</time>
      </trkpt>
      <trkpt lat="48.74221" lon="1.77331">
        <ele>147</ele>
        <time>2010-05-13T14:38:06Z</time>
      </trkpt>
      <trkpt lat="48.74219" lon="1.77331">
        <ele>148</ele>
        <time>2010-05-13T14:38:07Z</time>
      </trkpt>
      <trkpt lat="48.74218" lon="1.77331">
        <ele>148</ele>
        <time>2010-05-13T14:38:09Z</time>
      </trkpt>
      <trkpt lat="48.74216" lon="1.7733">
        <ele>148</ele>
        <time>2010-05-13T14:38:10Z</time>
      </trkpt>
      <trkpt lat="48.74215" lon="1.7733">
        <ele>148</ele>
        <time>2010-05-13T14:38:11Z</time>
      </trkpt>
      <trkpt lat="48.74213" lon="1.7733">
        <ele>148</ele>
        <time>2010-05-13T14:38:12Z</time>
      </trkpt>
      <trkpt lat="48.74211" lon="1.7733">
        <ele>148</ele>
        <time>2010-05-13T14:38:14Z</time>
      </trkpt>
      <trkpt lat="48.7421" lon="1.7733">
        <ele>148</ele>
        <time>2010-05-13T14:38:14Z</time>
      </trkpt>
      <trkpt lat="48.74208" lon="1.7733">
        <ele>148</ele>
        <time>2010-05-13T14:38:15Z</time>
      </trkpt>
      <trkpt lat="48.74207" lon="1.7733">
        <ele>148</ele>
        <time>2010-05-13T14:38:16Z</time>
      </trkpt>
      <trkpt lat="48.74206" lon="1.77329">
        <ele>148</ele>
        <time>2010-05-13T14:38:17Z</time>
      </trkpt>
      <trkpt lat="48.74205" lon="1.77329">
        <ele>148</ele>
        <time>2010-05-13T14:38:19Z</time>
      </trkpt>
      <trkpt lat="48.74203" lon="1.77328">
        <ele>148</ele>
        <time>2010-05-13T14:38:20Z</time>
      </trkpt>
      <trkpt lat="48.74201" lon="1.77327">
        <ele>148</ele>
        <time>2010-05-13T14:38:22Z</time>
      </trkpt>
      <trkpt lat="48.742" lon="1.77327">
        <ele>148</ele>
        <time>2010-05-13T14:38:24Z</time>
      </trkpt>
      <trkpt lat="48.74199" lon="1.77325">
        <ele>148</ele>
        <time>2010-05-13T14:38:24Z</time>
      </trkpt>
      <trkpt lat="48.74197" lon="1.77324">
        <ele>147</ele>
        <time>2010-05-13T14:38:26Z</time>
      </trkpt>
      <trkpt lat="48.74195" lon="1.77323">
        <ele>146</ele>
        <time>2010-05-13T14:38:29Z</time>
      </trkpt>
      <trkpt lat="48.74193" lon="1.77324">
        <ele>144</ele>
        <time>2010-05-13T14:38:30Z</time>
      </trkpt>
      <trkpt lat="48.74192" lon="1.77324">
        <ele>144</ele>
        <time>2010-05-13T14:38:31Z</time>
      </trkpt>
      <trkpt lat="48.7419" lon="1.77325">
        <ele>143</ele>
        <time>2010-05-13T14:38:32Z</time>
      </trkpt>
      <trkpt lat="48.74189" lon="1.77325">
        <ele>142</ele>
        <time>2010-05-13T14:38:34Z</time>
      </trkpt>
      <trkpt lat="48.74187" lon="1.77326">
        <ele>140</ele>
        <time>2010-05-13T14:38:35Z</time>
      </trkpt>
      <trkpt lat="48.74185" lon="1.77326">
        <ele>140</ele>
        <time>2010-05-13T14:38:36Z</time>
      </trkpt>
      <trkpt lat="48.74184" lon="1.77325">
        <ele>139</ele>
        <time>2010-05-13T14:38:37Z</time>
      </trkpt>
      <trkpt lat="48.74182" lon="1.77325">
        <ele>139</ele>
        <time>2010-05-13T14:38:39Z</time>
      </trkpt>
      <trkpt lat="48.74181" lon="1.77325">
        <ele>139</ele>
        <time>2010-05-13T14:38:39Z</time>
      </trkpt>
      <trkpt lat="48.74179" lon="1.77326">
        <ele>139</ele>
        <time>2010-05-13T14:38:40Z</time>
      </trkpt>
      <trkpt lat="48.74178" lon="1.77326">
        <ele>139</ele>
        <time>2010-05-13T14:38:41Z</time>
      </trkpt>
      <trkpt lat="48.74176" lon="1.77327">
        <ele>139</ele>
        <time>2010-05-13T14:38:42Z</time>
      </trkpt>
      <trkpt lat="48.74174" lon="1.77327">
        <ele>139</ele>
        <time>2010-05-13T14:38:44Z</time>
      </trkpt>
      <trkpt lat="48.74172" lon="1.77329">
        <ele>139</ele>
        <time>2010-05-13T14:38:46Z</time>
      </trkpt>
      <trkpt lat="48.7417" lon="1.77331">
        <ele>139</ele>
        <time>2010-05-13T14:38:47Z</time>
      </trkpt>
      <trkpt lat="48.74167" lon="1.77327">
        <ele>140</ele>
        <time>2010-05-13T14:38:49Z</time>
      </trkpt>
      <trkpt lat="48.74163" lon="1.77323">
        <ele>141</ele>
        <time>2010-05-13T14:38:49Z</time>
      </trkpt>
      <trkpt lat="48.74161" lon="1.77322">
        <ele>142</ele>
        <time>2010-05-13T14:38:50Z</time>
      </trkpt>
      <trkpt lat="48.74158" lon="1.7732">
        <ele>143</ele>
        <time>2010-05-13T14:38:51Z</time>
      </trkpt>
      <trkpt lat="48.74156" lon="1.77319">
        <ele>144</ele>
        <time>2010-05-13T14:38:52Z</time>
      </trkpt>
      <trkpt lat="48.74154" lon="1.77319">
        <ele>146</ele>
        <time>2010-05-13T14:38:54Z</time>
      </trkpt>
      <trkpt lat="48.74153" lon="1.77321">
        <ele>148</ele>
        <time>2010-05-13T14:38:54Z</time>
      </trkpt>
      <trkpt lat="48.74152" lon="1.77322">
        <ele>150</ele>
        <time>2010-05-13T14:38:55Z</time>
      </trkpt>
      <trkpt lat="48.74151" lon="1.77324">
        <ele>152</ele>
        <time>2010-05-13T14:38:56Z</time>
      </trkpt>
      <trkpt lat="48.7415" lon="1.77326">
        <ele>153</ele>
        <time>2010-05-13T14:38:57Z</time>
      </trkpt>
      <trkpt lat="48.74148" lon="1.77327">
        <ele>155</ele>
        <time>2010-05-13T14:38:59Z</time>
      </trkpt>
      <trkpt lat="48.74146" lon="1.7733">
        <ele>157</ele>
        <time>2010-05-13T14:39:01Z</time>
      </trkpt>
      <trkpt lat="48.74144" lon="1.77331">
        <ele>158</ele>
        <time>2010-05-13T14:39:02Z</time>
      </trkpt>
      <trkpt lat="48.74142" lon="1.77333">
        <ele>160</ele>
        <time>2010-05-13T14:39:04Z</time>
      </trkpt>
      <trkpt lat="48.7414" lon="1.77333">
        <ele>161</ele>
        <time>2010-05-13T14:39:05Z</time>
      </trkpt>
      <trkpt lat="48.74137" lon="1.77332">
        <ele>162</ele>
        <time>2010-05-13T14:39:06Z</time>
      </trkpt>
      <trkpt lat="48.74135" lon="1.77333">
        <ele>162</ele>
        <time>2010-05-13T14:39:09Z</time>
      </trkpt>
      <trkpt lat="48.74133" lon="1.77336">
        <ele>162</ele>
        <time>2010-05-13T14:39:10Z</time>
      </trkpt>
      <trkpt lat="48.74131" lon="1.77337">
        <ele>162</ele>
        <time>2010-05-13T14:39:12Z</time>
      </trkpt>
      <trkpt lat="48.74129" lon="1.77338">
        <ele>162</ele>
        <time>2010-05-13T14:39:14Z</time>
      </trkpt>
      <trkpt lat="48.74128" lon="1.7734">
        <ele>162</ele>
        <time>2010-05-13T14:39:15Z</time>
      </trkpt>
      <trkpt lat="48.74127" lon="1.77342">
        <ele>162</ele>
        <time>2010-05-13T14:39:16Z</time>
      </trkpt>
      <trkpt lat="48.74126" lon="1.77345">
        <ele>162</ele>
        <time>2010-05-13T14:39:19Z</time>
      </trkpt>
      <trkpt lat="48.74124" lon="1.77347">
        <ele>162</ele>
        <time>2010-05-13T14:39:20Z</time>
      </trkpt>
      <trkpt lat="48.74123" lon="1.77348">
        <ele>162</ele>
        <time>2010-05-13T14:39:21Z</time>
      </trkpt>
      <trkpt lat="48.74122" lon="1.77351">
        <ele>162</ele>
        <time>2010-05-13T14:39:22Z</time>
      </trkpt>
      <trkpt lat="48.74121" lon="1.77354">
        <ele>161</ele>
        <time>2010-05-13T14:39:24Z</time>
      </trkpt>
      <trkpt lat="48.7412" lon="1.77358">
        <ele>161</ele>
        <time>2010-05-13T14:39:24Z</time>
      </trkpt>
      <trkpt lat="48.74118" lon="1.77363">
        <ele>161</ele>
        <time>2010-05-13T14:39:25Z</time>
      </trkpt>
      <trkpt lat="48.74117" lon="1.77368">
        <ele>160</ele>
        <time>2010-05-13T14:39:26Z</time>
      </trkpt>
      <trkpt lat="48.74116" lon="1.77372">
        <ele>160</ele>
        <time>2010-05-13T14:39:27Z</time>
      </trkpt>
      <trkpt lat="48.74115" lon="1.77376">
        <ele>160</ele>
        <time>2010-05-13T14:39:29Z</time>
      </trkpt>
      <trkpt lat="48.74113" lon="1.7738">
        <ele>160</ele>
        <time>2010-05-13T14:39:29Z</time>
      </trkpt>
      <trkpt lat="48.74112" lon="1.77385">
        <ele>160</ele>
        <time>2010-05-13T14:39:30Z</time>
      </trkpt>
      <trkpt lat="48.7411" lon="1.77389">
        <ele>160</ele>
        <time>2010-05-13T14:39:31Z</time>
      </trkpt>
      <trkpt lat="48.74109" lon="1.77393">
        <ele>160</ele>
        <time>2010-05-13T14:39:32Z</time>
      </trkpt>
      <trkpt lat="48.74108" lon="1.77398">
        <ele>160</ele>
        <time>2010-05-13T14:39:34Z</time>
      </trkpt>
      <trkpt lat="48.74107" lon="1.77401">
        <ele>160</ele>
        <time>2010-05-13T14:39:34Z</time>
      </trkpt>
      <trkpt lat="48.74106" lon="1.77406">
        <ele>160</ele>
        <time>2010-05-13T14:39:35Z</time>
      </trkpt>
      <trkpt lat="48.74104" lon="1.7741">
        <ele>160</ele>
        <time>2010-05-13T14:39:36Z</time>
      </trkpt>
      <trkpt lat="48.74104" lon="1.77414">
        <ele>160</ele>
        <time>2010-05-13T14:39:37Z</time>
      </trkpt>
      <trkpt lat="48.74103" lon="1.77417">
        <ele>160</ele>
        <time>2010-05-13T14:39:39Z</time>
      </trkpt>
      <trkpt lat="48.74102" lon="1.77419">
        <ele>160</ele>
        <time>2010-05-13T14:39:39Z</time>
      </trkpt>
      <trkpt lat="48.74102" lon="1.77421">
        <ele>160</ele>
        <time>2010-05-13T14:39:40Z</time>
      </trkpt>
      <trkpt lat="48.74101" lon="1.77424">
        <ele>160</ele>
        <time>2010-05-13T14:39:41Z</time>
      </trkpt>
      <trkpt lat="48.741" lon="1.77426">
        <ele>160</ele>
        <time>2010-05-13T14:39:42Z</time>
      </trkpt>
      <trkpt lat="48.74098" lon="1.77429">
        <ele>160</ele>
        <time>2010-05-13T14:39:44Z</time>
      </trkpt>
      <trkpt lat="48.74097" lon="1.77431">
        <ele>160</ele>
        <time>2010-05-13T14:39:45Z</time>
      </trkpt>
      <trkpt lat="48.74096" lon="1.77434">
        <ele>160</ele>
        <time>2010-05-13T14:39:47Z</time>
      </trkpt>
      <trkpt lat="48.74094" lon="1.77437">
        <ele>159</ele>
        <time>2010-05-13T14:39:49Z</time>
      </trkpt>
      <trkpt lat="48.74094" lon="1.77439">
        <ele>159</ele>
        <time>2010-05-13T14:39:50Z</time>
      </trkpt>
      <trkpt lat="48.74092" lon="1.77442">
        <ele>158</ele>
        <time>2010-05-13T14:39:52Z</time>
      </trkpt>
      <trkpt lat="48.74091" lon="1.77443">
        <ele>158</ele>
        <time>2010-05-13T14:39:54Z</time>
      </trkpt>
      <trkpt lat="48.7409" lon="1.77446">
        <ele>158</ele>
        <time>2010-05-13T14:39:54Z</time>
      </trkpt>
      <trkpt lat="48.74089" lon="1.77448">
        <ele>158</ele>
        <time>2010-05-13T14:39:55Z</time>
      </trkpt>
      <trkpt lat="48.74089" lon="1.77451">
        <ele>158</ele>
        <time>2010-05-13T14:39:56Z</time>
      </trkpt>
      <trkpt lat="48.74088" lon="1.77454">
        <ele>158</ele>
        <time>2010-05-13T14:39:57Z</time>
      </trkpt>
      <trkpt lat="48.74087" lon="1.77455">
        <ele>158</ele>
        <time>2010-05-13T14:39:59Z</time>
      </trkpt>
      <trkpt lat="48.74086" lon="1.77457">
        <ele>158</ele>
        <time>2010-05-13T14:40:01Z</time>
      </trkpt>
      <trkpt lat="48.74084" lon="1.77459">
        <ele>158</ele>
        <time>2010-05-13T14:40:02Z</time>
      </trkpt>
      <trkpt lat="48.74083" lon="1.77462">
        <ele>158</ele>
        <time>2010-05-13T14:40:04Z</time>
      </trkpt>
      <trkpt lat="48.74081" lon="1.77465">
        <ele>158</ele>
        <time>2010-05-13T14:40:06Z</time>
      </trkpt>
      <trkpt lat="48.74079" lon="1.77469">
        <ele>158</ele>
        <time>2010-05-13T14:40:09Z</time>
      </trkpt>
      <trkpt lat="48.74077" lon="1.77471">
        <ele>157</ele>
        <time>2010-05-13T14:40:10Z</time>
      </trkpt>
      <trkpt lat="48.74076" lon="1.77473">
        <ele>156</ele>
        <time>2010-05-13T14:40:12Z</time>
      </trkpt>
      <trkpt lat="48.74076" lon="1.77475">
        <ele>155</ele>
        <time>2010-05-13T14:40:14Z</time>
      </trkpt>
      <trkpt lat="48.74075" lon="1.77477">
        <ele>155</ele>
        <time>2010-05-13T14:40:15Z</time>
      </trkpt>
      <trkpt lat="48.74073" lon="1.7748">
        <ele>154</ele>
        <time>2010-05-13T14:40:17Z</time>
      </trkpt>
      <trkpt lat="48.74072" lon="1.77483">
        <ele>153</ele>
        <time>2010-05-13T14:40:19Z</time>
      </trkpt>
      <trkpt lat="48.7407" lon="1.77486">
        <ele>151</ele>
        <time>2010-05-13T14:40:21Z</time>
      </trkpt>
      <trkpt lat="48.74069" lon="1.77488">
        <ele>151</ele>
        <time>2010-05-13T14:40:22Z</time>
      </trkpt>
      <trkpt lat="48.74067" lon="1.77491">
        <ele>150</ele>
        <time>2010-05-13T14:40:24Z</time>
      </trkpt>
      <trkpt lat="48.74066" lon="1.77493">
        <ele>149</ele>
        <time>2010-05-13T14:40:26Z</time>
      </trkpt>
      <trkpt lat="48.74064" lon="1.77496">
        <ele>148</ele>
        <time>2010-05-13T14:40:29Z</time>
      </trkpt>
      <trkpt lat="48.74064" lon="1.77498">
        <ele>148</ele>
        <time>2010-05-13T14:40:29Z</time>
      </trkpt>
      <trkpt lat="48.74062" lon="1.77499">
        <ele>148</ele>
        <time>2010-05-13T14:40:30Z</time>
      </trkpt>
      <trkpt lat="48.74061" lon="1.77502">
        <ele>147</ele>
        <time>2010-05-13T14:40:32Z</time>
      </trkpt>
      <trkpt lat="48.7406" lon="1.77503">
        <ele>147</ele>
        <time>2010-05-13T14:40:34Z</time>
      </trkpt>
      <trkpt lat="48.74059" lon="1.77506">
        <ele>147</ele>
        <time>2010-05-13T14:40:34Z</time>
      </trkpt>
      <trkpt lat="48.74058" lon="1.77506">
        <ele>147</ele>
        <time>2010-05-13T14:40:35Z</time>
      </trkpt>
      <trkpt lat="48.74057" lon="1.77507">
        <ele>147</ele>
        <time>2010-05-13T14:40:36Z</time>
      </trkpt>
      <trkpt lat="48.74056" lon="1.77508">
        <ele>147</ele>
        <time>2010-05-13T14:40:37Z</time>
      </trkpt>
      <trkpt lat="48.74055" lon="1.7751">
        <ele>147</ele>
        <time>2010-05-13T14:40:39Z</time>
      </trkpt>
      <trkpt lat="48.74053" lon="1.77512">
        <ele>147</ele>
        <time>2010-05-13T14:40:39Z</time>
      </trkpt>
      <trkpt lat="48.74051" lon="1.77514">
        <ele>147</ele>
        <time>2010-05-13T14:40:40Z</time>
      </trkpt>
      <trkpt lat="48.7405" lon="1.77516">
        <ele>148</ele>
        <time>2010-05-13T14:40:41Z</time>
      </trkpt>
      <trkpt lat="48.74048" lon="1.77518">
        <ele>149</ele>
        <time>2010-05-13T14:40:42Z</time>
      </trkpt>
      <trkpt lat="48.74047" lon="1.77521">
        <ele>150</ele>
        <time>2010-05-13T14:40:44Z</time>
      </trkpt>
      <trkpt lat="48.74045" lon="1.77522">
        <ele>151</ele>
        <time>2010-05-13T14:40:44Z</time>
      </trkpt>
      <trkpt lat="48.74042" lon="1.77524">
        <ele>152</ele>
        <time>2010-05-13T14:40:45Z</time>
      </trkpt>
      <trkpt lat="48.74039" lon="1.77525">
        <ele>152</ele>
        <time>2010-05-13T14:40:46Z</time>
      </trkpt>
      <trkpt lat="48.74037" lon="1.77527">
        <ele>152</ele>
        <time>2010-05-13T14:40:47Z</time>
      </trkpt>
      <trkpt lat="48.74034" lon="1.77528">
        <ele>153</ele>
        <time>2010-05-13T14:40:49Z</time>
      </trkpt>
      <trkpt lat="48.74032" lon="1.7753">
        <ele>153</ele>
        <time>2010-05-13T14:40:49Z</time>
      </trkpt>
      <trkpt lat="48.74029" lon="1.77531">
        <ele>153</ele>
        <time>2010-05-13T14:40:50Z</time>
      </trkpt>
      <trkpt lat="48.74026" lon="1.77532">
        <ele>153</ele>
        <time>2010-05-13T14:40:51Z</time>
      </trkpt>
      <trkpt lat="48.74024" lon="1.77532">
        <ele>153</ele>
        <time>2010-05-13T14:40:52Z</time>
      </trkpt>
      <trkpt lat="48.74021" lon="1.77532">
        <ele>153</ele>
        <time>2010-05-13T14:40:54Z</time>
      </trkpt>
      <trkpt lat="48.7402" lon="1.77534">
        <ele>153</ele>
        <time>2010-05-13T14:40:54Z</time>
      </trkpt>
      <trkpt lat="48.74018" lon="1.77535">
        <ele>153</ele>
        <time>2010-05-13T14:40:56Z</time>
      </trkpt>
      <trkpt lat="48.74016" lon="1.77534">
        <ele>153</ele>
        <time>2010-05-13T14:40:59Z</time>
      </trkpt>
      <trkpt lat="48.74014" lon="1.77535">
        <ele>153</ele>
        <time>2010-05-13T14:41:00Z</time>
      </trkpt>
      <trkpt lat="48.74012" lon="1.77536">
        <ele>153</ele>
        <time>2010-05-13T14:41:01Z</time>
      </trkpt>
      <trkpt lat="48.7401" lon="1.77535">
        <ele>153</ele>
        <time>2010-05-13T14:41:02Z</time>
      </trkpt>
      <trkpt lat="48.74009" lon="1.77535">
        <ele>153</ele>
        <time>2010-05-13T14:41:04Z</time>
      </trkpt>
      <trkpt lat="48.74007" lon="1.77536">
        <ele>153</ele>
        <time>2010-05-13T14:41:04Z</time>
      </trkpt>
      <trkpt lat="48.74004" lon="1.77536">
        <ele>152</ele>
        <time>2010-05-13T14:41:05Z</time>
      </trkpt>
      <trkpt lat="48.74002" lon="1.77536">
        <ele>152</ele>
        <time>2010-05-13T14:41:06Z</time>
      </trkpt>
      <trkpt lat="48.74" lon="1.77536">
        <ele>152</ele>
        <time>2010-05-13T14:41:07Z</time>
      </trkpt>
      <trkpt lat="48.73997" lon="1.77535">
        <ele>152</ele>
        <time>2010-05-13T14:41:09Z</time>
      </trkpt>
      <trkpt lat="48.73994" lon="1.77534">
        <ele>152</ele>
        <time>2010-05-13T14:41:09Z</time>
      </trkpt>
      <trkpt lat="48.73992" lon="1.77533">
        <ele>152</ele>
        <time>2010-05-13T14:41:10Z</time>
      </trkpt>
      <trkpt lat="48.73989" lon="1.77533">
        <ele>152</ele>
        <time>2010-05-13T14:41:11Z</time>
      </trkpt>
      <trkpt lat="48.73986" lon="1.77533">
        <ele>152</ele>
        <time>2010-05-13T14:41:12Z</time>
      </trkpt>
      <trkpt lat="48.73985" lon="1.77534">
        <ele>152</ele>
        <time>2010-05-13T14:41:14Z</time>
      </trkpt>
      <trkpt lat="48.73983" lon="1.77533">
        <ele>152</ele>
        <time>2010-05-13T14:41:14Z</time>
      </trkpt>
      <trkpt lat="48.73981" lon="1.77534">
        <ele>152</ele>
        <time>2010-05-13T14:41:16Z</time>
      </trkpt>
      <trkpt lat="48.73978" lon="1.77533">
        <ele>152</ele>
        <time>2010-05-13T14:41:17Z</time>
      </trkpt>
      <trkpt lat="48.73977" lon="1.77533">
        <ele>152</ele>
        <time>2010-05-13T14:41:19Z</time>
      </trkpt>
      <trkpt lat="48.73974" lon="1.77531">
        <ele>153</ele>
        <time>2010-05-13T14:41:20Z</time>
      </trkpt>
      <trkpt lat="48.73973" lon="1.7753">
        <ele>153</ele>
        <time>2010-05-13T14:41:21Z</time>
      </trkpt>
      <trkpt lat="48.73971" lon="1.77529">
        <ele>153</ele>
        <time>2010-05-13T14:41:22Z</time>
      </trkpt>
      <trkpt lat="48.73969" lon="1.77528">
        <ele>153</ele>
        <time>2010-05-13T14:41:24Z</time>
      </trkpt>
      <trkpt lat="48.73968" lon="1.77527">
        <ele>153</ele>
        <time>2010-05-13T14:41:24Z</time>
      </trkpt>
      <trkpt lat="48.73967" lon="1.77526">
        <ele>153</ele>
        <time>2010-05-13T14:41:25Z</time>
      </trkpt>
      <trkpt lat="48.73964" lon="1.77525">
        <ele>153</ele>
        <time>2010-05-13T14:41:26Z</time>
      </trkpt>
      <trkpt lat="48.73962" lon="1.77524">
        <ele>153</ele>
        <time>2010-05-13T14:41:27Z</time>
      </trkpt>
      <trkpt lat="48.7396" lon="1.77523">
        <ele>153</ele>
        <time>2010-05-13T14:41:29Z</time>
      </trkpt>
      <trkpt lat="48.73959" lon="1.77522">
        <ele>153</ele>
        <time>2010-05-13T14:41:29Z</time>
      </trkpt>
      <trkpt lat="48.73959" lon="1.77519">
        <ele>153</ele>
        <time>2010-05-13T14:41:30Z</time>
      </trkpt>
      <trkpt lat="48.73957" lon="1.77517">
        <ele>153</ele>
        <time>2010-05-13T14:41:32Z</time>
      </trkpt>
      <trkpt lat="48.73946" lon="1.77514">
        <ele>153</ele>
        <time>2010-05-13T14:41:39Z</time>
      </trkpt>
      <trkpt lat="48.73945" lon="1.77514">
        <ele>153</ele>
        <time>2010-05-13T14:41:39Z</time>
      </trkpt>
      <trkpt lat="48.73943" lon="1.77515">
        <ele>153</ele>
        <time>2010-05-13T14:41:40Z</time>
      </trkpt>
      <trkpt lat="48.73942" lon="1.77515">
        <ele>153</ele>
        <time>2010-05-13T14:41:41Z</time>
      </trkpt>
      <trkpt lat="48.7394" lon="1.77515">
        <ele>153</ele>
        <time>2010-05-13T14:41:42Z</time>
      </trkpt>
      <trkpt lat="48.73939" lon="1.77515">
        <ele>153</ele>
        <time>2010-05-13T14:41:44Z</time>
      </trkpt>
      <trkpt lat="48.73937" lon="1.77514">
        <ele>153</ele>
        <time>2010-05-13T14:41:45Z</time>
      </trkpt>
      <trkpt lat="48.73936" lon="1.77515">
        <ele>153</ele>
        <time>2010-05-13T14:41:46Z</time>
      </trkpt>
      <trkpt lat="48.73934" lon="1.77515">
        <ele>153</ele>
        <time>2010-05-13T14:41:47Z</time>
      </trkpt>
      <trkpt lat="48.73933" lon="1.77516">
        <ele>153</ele>
        <time>2010-05-13T14:41:49Z</time>
      </trkpt>
      <trkpt lat="48.73931" lon="1.77516">
        <ele>153</ele>
        <time>2010-05-13T14:41:49Z</time>
      </trkpt>
      <trkpt lat="48.7393" lon="1.77517">
        <ele>153</ele>
        <time>2010-05-13T14:41:50Z</time>
      </trkpt>
      <trkpt lat="48.73928" lon="1.77517">
        <ele>153</ele>
        <time>2010-05-13T14:41:51Z</time>
      </trkpt>
      <trkpt lat="48.73927" lon="1.77517">
        <ele>153</ele>
        <time>2010-05-13T14:41:52Z</time>
      </trkpt>
      <trkpt lat="48.73925" lon="1.77517">
        <ele>153</ele>
        <time>2010-05-13T14:41:54Z</time>
      </trkpt>
      <trkpt lat="48.73923" lon="1.77517">
        <ele>152</ele>
        <time>2010-05-13T14:41:54Z</time>
      </trkpt>
      <trkpt lat="48.73921" lon="1.77517">
        <ele>151</ele>
        <time>2010-05-13T14:41:56Z</time>
      </trkpt>
      <trkpt lat="48.7392" lon="1.77518">
        <ele>151</ele>
        <time>2010-05-13T14:41:57Z</time>
      </trkpt>
      <trkpt lat="48.73919" lon="1.77518">
        <ele>150</ele>
        <time>2010-05-13T14:41:59Z</time>
      </trkpt>
      <trkpt lat="48.73918" lon="1.77518">
        <ele>150</ele>
        <time>2010-05-13T14:41:59Z</time>
      </trkpt>
      <trkpt lat="48.73916" lon="1.77518">
        <ele>150</ele>
        <time>2010-05-13T14:42:00Z</time>
      </trkpt>
      <trkpt lat="48.73915" lon="1.77517">
        <ele>149</ele>
        <time>2010-05-13T14:42:02Z</time>
      </trkpt>
      <trkpt lat="48.73913" lon="1.77517">
        <ele>149</ele>
        <time>2010-05-13T14:42:04Z</time>
      </trkpt>
      <trkpt lat="48.73912" lon="1.77516">
        <ele>148</ele>
        <time>2010-05-13T14:42:06Z</time>
      </trkpt>
      <trkpt lat="48.7391" lon="1.77516">
        <ele>147</ele>
        <time>2010-05-13T14:42:07Z</time>
      </trkpt>
      <trkpt lat="48.73909" lon="1.77514">
        <ele>146</ele>
        <time>2010-05-13T14:42:09Z</time>
      </trkpt>
      <trkpt lat="48.7391" lon="1.77512">
        <ele>145</ele>
        <time>2010-05-13T14:42:11Z</time>
      </trkpt>
      <trkpt lat="48.73908" lon="1.77511">
        <ele>143</ele>
        <time>2010-05-13T14:42:14Z</time>
      </trkpt>
      <trkpt lat="48.73905" lon="1.77509">
        <ele>143</ele>
        <time>2010-05-13T14:42:16Z</time>
      </trkpt>
      <trkpt lat="48.73905" lon="1.77507">
        <ele>143</ele>
        <time>2010-05-13T14:42:19Z</time>
      </trkpt>
      <trkpt lat="48.73904" lon="1.77505">
        <ele>143</ele>
        <time>2010-05-13T14:42:20Z</time>
      </trkpt>
      <trkpt lat="48.73904" lon="1.77503">
        <ele>143</ele>
        <time>2010-05-13T14:42:21Z</time>
      </trkpt>
      <trkpt lat="48.73904" lon="1.77501">
        <ele>143</ele>
        <time>2010-05-13T14:42:24Z</time>
      </trkpt>
      <trkpt lat="48.73904" lon="1.77497">
        <ele>143</ele>
        <time>2010-05-13T14:42:25Z</time>
      </trkpt>
      <trkpt lat="48.73903" lon="1.77495">
        <ele>141</ele>
        <time>2010-05-13T14:42:27Z</time>
      </trkpt>
      <trkpt lat="48.73902" lon="1.77492">
        <ele>139</ele>
        <time>2010-05-13T14:42:29Z</time>
      </trkpt>
      <trkpt lat="48.73901" lon="1.77491">
        <ele>138</ele>
        <time>2010-05-13T14:42:30Z</time>
      </trkpt>
      <trkpt lat="48.73899" lon="1.77489">
        <ele>136</ele>
        <time>2010-05-13T14:42:32Z</time>
      </trkpt>
      <trkpt lat="48.73897" lon="1.77486">
        <ele>135</ele>
        <time>2010-05-13T14:42:34Z</time>
      </trkpt>
      <trkpt lat="48.73895" lon="1.77484">
        <ele>134</ele>
        <time>2010-05-13T14:42:34Z</time>
      </trkpt>
      <trkpt lat="48.73893" lon="1.7748">
        <ele>133</ele>
        <time>2010-05-13T14:42:35Z</time>
      </trkpt>
      <trkpt lat="48.7389" lon="1.77478">
        <ele>133</ele>
        <time>2010-05-13T14:42:36Z</time>
      </trkpt>
      <trkpt lat="48.73888" lon="1.77475">
        <ele>133</ele>
        <time>2010-05-13T14:42:37Z</time>
      </trkpt>
      <trkpt lat="48.73885" lon="1.77472">
        <ele>132</ele>
        <time>2010-05-13T14:42:39Z</time>
      </trkpt>
      <trkpt lat="48.73884" lon="1.77469">
        <ele>132</ele>
        <time>2010-05-13T14:42:39Z</time>
      </trkpt>
      <trkpt lat="48.73881" lon="1.77466">
        <ele>132</ele>
        <time>2010-05-13T14:42:40Z</time>
      </trkpt>
      <trkpt lat="48.73879" lon="1.77464">
        <ele>132</ele>
        <time>2010-05-13T14:42:41Z</time>
      </trkpt>
      <trkpt lat="48.73877" lon="1.77463">
        <ele>132</ele>
        <time>2010-05-13T14:42:42Z</time>
      </trkpt>
      <trkpt lat="48.73874" lon="1.77462">
        <ele>132</ele>
        <time>2010-05-13T14:42:44Z</time>
      </trkpt>
      <trkpt lat="48.73872" lon="1.77461">
        <ele>132</ele>
        <time>2010-05-13T14:42:44Z</time>
      </trkpt>
      <trkpt lat="48.7387" lon="1.77459">
        <ele>132</ele>
        <time>2010-05-13T14:42:45Z</time>
      </trkpt>
      <trkpt lat="48.73869" lon="1.77456">
        <ele>132</ele>
        <time>2010-05-13T14:42:46Z</time>
      </trkpt>
      <trkpt lat="48.73868" lon="1.77453">
        <ele>132</ele>
        <time>2010-05-13T14:42:47Z</time>
      </trkpt>
      <trkpt lat="48.73867" lon="1.7745">
        <ele>132</ele>
        <time>2010-05-13T14:42:49Z</time>
      </trkpt>
      <trkpt lat="48.73864" lon="1.77446">
        <ele>132</ele>
        <time>2010-05-13T14:42:49Z</time>
      </trkpt>
      <trkpt lat="48.73861" lon="1.77441">
        <ele>133</ele>
        <time>2010-05-13T14:42:50Z</time>
      </trkpt>
      <trkpt lat="48.73859" lon="1.77435">
        <ele>134</ele>
        <time>2010-05-13T14:42:51Z</time>
      </trkpt>
      <trkpt lat="48.73856" lon="1.77428">
        <ele>135</ele>
        <time>2010-05-13T14:42:52Z</time>
      </trkpt>
      <trkpt lat="48.73854" lon="1.77422">
        <ele>136</ele>
        <time>2010-05-13T14:42:54Z</time>
      </trkpt>
      <trkpt lat="48.73852" lon="1.77415">
        <ele>137</ele>
        <time>2010-05-13T14:42:54Z</time>
      </trkpt>
      <trkpt lat="48.7385" lon="1.7741">
        <ele>138</ele>
        <time>2010-05-13T14:42:55Z</time>
      </trkpt>
      <trkpt lat="48.73849" lon="1.77407">
        <ele>139</ele>
        <time>2010-05-13T14:42:56Z</time>
      </trkpt>
      <trkpt lat="48.73847" lon="1.77405">
        <ele>140</ele>
        <time>2010-05-13T14:42:57Z</time>
      </trkpt>
      <trkpt lat="48.73846" lon="1.77403">
        <ele>141</ele>
        <time>2010-05-13T14:42:59Z</time>
      </trkpt>
      <trkpt lat="48.73845" lon="1.77402">
        <ele>143</ele>
        <time>2010-05-13T14:43:00Z</time>
      </trkpt>
      <trkpt lat="48.73843" lon="1.77401">
        <ele>145</ele>
        <time>2010-05-13T14:43:02Z</time>
      </trkpt>
      <trkpt lat="48.73842" lon="1.774">
        <ele>145</ele>
        <time>2010-05-13T14:43:04Z</time>
      </trkpt>
      <trkpt lat="48.7384" lon="1.77399">
        <ele>145</ele>
        <time>2010-05-13T14:43:04Z</time>
      </trkpt>
      <trkpt lat="48.73839" lon="1.77399">
        <ele>145</ele>
        <time>2010-05-13T14:43:05Z</time>
      </trkpt>
      <trkpt lat="48.73838" lon="1.77398">
        <ele>145</ele>
        <time>2010-05-13T14:43:06Z</time>
      </trkpt>
      <trkpt lat="48.73836" lon="1.77397">
        <ele>145</ele>
        <time>2010-05-13T14:43:07Z</time>
      </trkpt>
      <trkpt lat="48.73834" lon="1.77396">
        <ele>145</ele>
        <time>2010-05-13T14:43:09Z</time>
      </trkpt>
      <trkpt lat="48.73833" lon="1.77396">
        <ele>145</ele>
        <time>2010-05-13T14:43:09Z</time>
      </trkpt>
      <trkpt lat="48.73831" lon="1.77396">
        <ele>145</ele>
        <time>2010-05-13T14:43:10Z</time>
      </trkpt>
      <trkpt lat="48.7383" lon="1.77396">
        <ele>145</ele>
        <time>2010-05-13T14:43:11Z</time>
      </trkpt>
      <trkpt lat="48.73828" lon="1.77397">
        <ele>145</ele>
        <time>2010-05-13T14:43:12Z</time>
      </trkpt>
      <trkpt lat="48.73827" lon="1.77397">
        <ele>145</ele>
        <time>2010-05-13T14:43:14Z</time>
      </trkpt>
      <trkpt lat="48.73826" lon="1.77399">
        <ele>145</ele>
        <time>2010-05-13T14:43:14Z</time>
      </trkpt>
      <trkpt lat="48.73824" lon="1.77399">
        <ele>145</ele>
        <time>2010-05-13T14:43:16Z</time>
      </trkpt>
      <trkpt lat="48.73822" lon="1.77401">
        <ele>147</ele>
        <time>2010-05-13T14:43:19Z</time>
      </trkpt>
      <trkpt lat="48.7382" lon="1.77402">
        <ele>148</ele>
        <time>2010-05-13T14:43:19Z</time>
      </trkpt>
      <trkpt lat="48.73819" lon="1.77404">
        <ele>149</ele>
        <time>2010-05-13T14:43:20Z</time>
      </trkpt>
      <trkpt lat="48.73817" lon="1.77404">
        <ele>149</ele>
        <time>2010-05-13T14:43:21Z</time>
      </trkpt>
      <trkpt lat="48.73816" lon="1.77405">
        <ele>149</ele>
        <time>2010-05-13T14:43:22Z</time>
      </trkpt>
      <trkpt lat="48.73814" lon="1.77408">
        <ele>150</ele>
        <time>2010-05-13T14:43:24Z</time>
      </trkpt>
      <trkpt lat="48.73811" lon="1.7741">
        <ele>150</ele>
        <time>2010-05-13T14:43:26Z</time>
      </trkpt>
      <trkpt lat="48.73811" lon="1.77412">
        <ele>150</ele>
        <time>2010-05-13T14:43:27Z</time>
      </trkpt>
      <trkpt lat="48.73809" lon="1.77415">
        <ele>151</ele>
        <time>2010-05-13T14:43:29Z</time>
      </trkpt>
      <trkpt lat="48.73808" lon="1.77416">
        <ele>151</ele>
        <time>2010-05-13T14:43:30Z</time>
      </trkpt>
      <trkpt lat="48.73807" lon="1.77417">
        <ele>152</ele>
        <time>2010-05-13T14:43:31Z</time>
      </trkpt>
      <trkpt lat="48.73805" lon="1.77419">
        <ele>152</ele>
        <time>2010-05-13T14:43:32Z</time>
      </trkpt>
      <trkpt lat="48.73803" lon="1.77421">
        <ele>152</ele>
        <time>2010-05-13T14:43:34Z</time>
      </trkpt>
      <trkpt lat="48.73802" lon="1.77424">
        <ele>152</ele>
        <time>2010-05-13T14:43:34Z</time>
      </trkpt>
      <trkpt lat="48.73801" lon="1.77427">
        <ele>152</ele>
        <time>2010-05-13T14:43:35Z</time>
      </trkpt>
      <trkpt lat="48.738" lon="1.77429">
        <ele>152</ele>
        <time>2010-05-13T14:43:36Z</time>
      </trkpt>
      <trkpt lat="48.73799" lon="1.77433">
        <ele>152</ele>
        <time>2010-05-13T14:43:37Z</time>
      </trkpt>
      <trkpt lat="48.73798" lon="1.77436">
        <ele>152</ele>
        <time>2010-05-13T14:43:39Z</time>
      </trkpt>
      <trkpt lat="48.73798" lon="1.77438">
        <ele>152</ele>
        <time>2010-05-13T14:43:39Z</time>
      </trkpt>
      <trkpt lat="48.73798" lon="1.77441">
        <ele>152</ele>
        <time>2010-05-13T14:43:40Z</time>
      </trkpt>
      <trkpt lat="48.73797" lon="1.77443">
        <ele>152</ele>
        <time>2010-05-13T14:43:41Z</time>
      </trkpt>
      <trkpt lat="48.73797" lon="1.77445">
        <ele>152</ele>
        <time>2010-05-13T14:43:42Z</time>
      </trkpt>
      <trkpt lat="48.73797" lon="1.77447">
        <ele>152</ele>
        <time>2010-05-13T14:43:47Z</time>
      </trkpt>
      <trkpt lat="48.73797" lon="1.77449">
        <ele>152</ele>
        <time>2010-05-13T14:43:51Z</time>
      </trkpt>
      <trkpt lat="48.73797" lon="1.7745">
        <ele>152</ele>
        <time>2010-05-13T14:43:52Z</time>
      </trkpt>
      <trkpt lat="48.73798" lon="1.77453">
        <ele>152</ele>
        <time>2010-05-13T14:43:54Z</time>
      </trkpt>
      <trkpt lat="48.73798" lon="1.77454">
        <ele>152</ele>
        <time>2010-05-13T14:43:56Z</time>
      </trkpt>
      <trkpt lat="48.73798" lon="1.77456">
        <ele>152</ele>
        <time>2010-05-13T14:44:00Z</time>
      </trkpt>
      <trkpt lat="48.73799" lon="1.77459">
        <ele>152</ele>
        <time>2010-05-13T14:44:02Z</time>
      </trkpt>
      <trkpt lat="48.73799" lon="1.77461">
        <ele>152</ele>
        <time>2010-05-13T14:44:04Z</time>
      </trkpt>
      <trkpt lat="48.738" lon="1.77463">
        <ele>153</ele>
        <time>2010-05-13T14:44:04Z</time>
      </trkpt>
      <trkpt lat="48.73801" lon="1.77465">
        <ele>155</ele>
        <time>2010-05-13T14:44:06Z</time>
      </trkpt>
      <trkpt lat="48.73802" lon="1.77467">
        <ele>158</ele>
        <time>2010-05-13T14:44:09Z</time>
      </trkpt>
      <trkpt lat="48.73803" lon="1.77468">
        <ele>161</ele>
        <time>2010-05-13T14:44:12Z</time>
      </trkpt>
      <trkpt lat="48.73804" lon="1.77468">
        <ele>161</ele>
        <time>2010-05-13T14:44:15Z</time>
      </trkpt>
      <trkpt lat="48.73805" lon="1.77468">
        <ele>161</ele>
        <time>2010-05-13T14:44:20Z</time>
      </trkpt>
      <trkpt lat="48.73805" lon="1.7747">
        <ele>162</ele>
        <time>2010-05-13T14:44:29Z</time>
      </trkpt>
      <trkpt lat="48.73806" lon="1.77471">
        <ele>162</ele>
        <time>2010-05-13T14:44:31Z</time>
      </trkpt>
      <trkpt lat="48.73806" lon="1.77473">
        <ele>163</ele>
        <time>2010-05-13T14:44:34Z</time>
      </trkpt>
      <trkpt lat="48.73805" lon="1.77474">
        <ele>165</ele>
        <time>2010-05-13T14:44:44Z</time>
      </trkpt>
      <trkpt lat="48.73803" lon="1.77473">
        <ele>165</ele>
        <time>2010-05-13T14:44:46Z</time>
      </trkpt>
      <trkpt lat="48.73802" lon="1.77471">
        <ele>159</ele>
        <time>2010-05-13T14:44:52Z</time>
      </trkpt>
      <trkpt lat="48.73801" lon="1.77469">
        <ele>157</ele>
        <time>2010-05-13T14:44:56Z</time>
      </trkpt>
      <trkpt lat="48.73802" lon="1.77467">
        <ele>157</ele>
        <time>2010-05-13T14:44:59Z</time>
      </trkpt>
      <trkpt lat="48.73802" lon="1.77465">
        <ele>156</ele>
        <time>2010-05-13T14:45:04Z</time>
      </trkpt>
      <trkpt lat="48.73802" lon="1.77463">
        <ele>155</ele>
        <time>2010-05-13T14:45:09Z</time>
      </trkpt>
      <trkpt lat="48.73801" lon="1.77461">
        <ele>155</ele>
        <time>2010-05-13T14:45:20Z</time>
      </trkpt>
      <trkpt lat="48.73801" lon="1.77463">
        <ele>154</ele>
        <time>2010-05-13T14:45:26Z</time>
      </trkpt>
      <trkpt lat="48.73799" lon="1.77463">
        <ele>154</ele>
        <time>2010-05-13T14:45:31Z</time>
      </trkpt>
      <trkpt lat="48.73798" lon="1.77463">
        <ele>155</ele>
        <time>2010-05-13T14:45:35Z</time>
      </trkpt>
      <trkpt lat="48.73797" lon="1.77463">
        <ele>158</ele>
        <time>2010-05-13T14:45:40Z</time>
      </trkpt>
      <trkpt lat="48.73796" lon="1.77463">
        <ele>160</ele>
        <time>2010-05-13T14:45:45Z</time>
      </trkpt>
      <trkpt lat="48.73796" lon="1.77461">
        <ele>161</ele>
        <time>2010-05-13T14:45:50Z</time>
      </trkpt>
      <trkpt lat="48.73798" lon="1.77461">
        <ele>161</ele>
        <time>2010-05-13T14:45:52Z</time>
      </trkpt>
      <trkpt lat="48.73799" lon="1.7746">
        <ele>161</ele>
        <time>2010-05-13T14:45:55Z</time>
      </trkpt>
      <trkpt lat="48.738" lon="1.77458">
        <ele>161</ele>
        <time>2010-05-13T14:45:57Z</time>
      </trkpt>
      <trkpt lat="48.738" lon="1.7746">
        <ele>158</ele>
        <time>2010-05-13T14:46:10Z</time>
      </trkpt>
      <trkpt lat="48.73802" lon="1.77461">
        <ele>156</ele>
        <time>2010-05-13T14:46:19Z</time>
      </trkpt>
      <trkpt lat="48.73803" lon="1.77459">
        <ele>155</ele>
        <time>2010-05-13T14:46:21Z</time>
      </trkpt>
      <trkpt lat="48.73804" lon="1.77461">
        <ele>153</ele>
        <time>2010-05-13T14:46:34Z</time>
      </trkpt>
      <trkpt lat="48.73805" lon="1.77462">
        <ele>152</ele>
        <time>2010-05-13T14:46:39Z</time>
      </trkpt>
      <trkpt lat="48.73806" lon="1.7746">
        <ele>150</ele>
        <time>2010-05-13T14:46:45Z</time>
      </trkpt>
      <trkpt lat="48.73806" lon="1.77459">
        <ele>150</ele>
        <time>2010-05-13T14:46:57Z</time>
      </trkpt>
      <trkpt lat="48.73805" lon="1.77461">
        <ele>150</ele>
        <time>2010-05-13T14:47:04Z</time>
      </trkpt>
      <trkpt lat="48.73807" lon="1.7746">
        <ele>150</ele>
        <time>2010-05-13T14:47:20Z</time>
      </trkpt>
      <trkpt lat="48.73808" lon="1.77459">
        <ele>150</ele>
        <time>2010-05-13T14:47:26Z</time>
      </trkpt>
      <trkpt lat="48.73807" lon="1.77457">
        <ele>150</ele>
        <time>2010-05-13T14:47:39Z</time>
      </trkpt>
      <trkpt lat="48.73806" lon="1.77455">
        <ele>150</ele>
        <time>2010-05-13T14:47:41Z</time>
      </trkpt>
      <trkpt lat="48.73805" lon="1.77454">
        <ele>151</ele>
        <time>2010-05-13T14:47:51Z</time>
      </trkpt>
      <trkpt lat="48.73806" lon="1.77453">
        <ele>151</ele>
        <time>2010-05-13T14:47:56Z</time>
      </trkpt>
      <trkpt lat="48.73807" lon="1.77453">
        <ele>153</ele>
        <time>2010-05-13T14:48:02Z</time>
      </trkpt>
      <trkpt lat="48.73808" lon="1.77451">
        <ele>154</ele>
        <time>2010-05-13T14:48:06Z</time>
      </trkpt>
      <trkpt lat="48.73809" lon="1.77449">
        <ele>155</ele>
        <time>2010-05-13T14:48:10Z</time>
      </trkpt>
      <trkpt lat="48.7381" lon="1.77448">
        <ele>156</ele>
        <time>2010-05-13T14:48:14Z</time>
      </trkpt>
      <trkpt lat="48.73812" lon="1.77446">
        <ele>158</ele>
        <time>2010-05-13T14:48:17Z</time>
      </trkpt>
      <trkpt lat="48.73811" lon="1.77444">
        <ele>159</ele>
        <time>2010-05-13T14:48:21Z</time>
      </trkpt>
      <trkpt lat="48.73813" lon="1.77443">
        <ele>159</ele>
        <time>2010-05-13T14:48:24Z</time>
      </trkpt>
      <trkpt lat="48.73814" lon="1.77441">
        <ele>159</ele>
        <time>2010-05-13T14:48:27Z</time>
      </trkpt>
      <trkpt lat="48.73815" lon="1.77443">
        <ele>161</ele>
        <time>2010-05-13T14:48:31Z</time>
      </trkpt>
      <trkpt lat="48.73814" lon="1.77443">
        <ele>161</ele>
        <time>2010-05-13T14:48:32Z</time>
      </trkpt>
      <trkpt lat="48.73812" lon="1.77442">
        <ele>161</ele>
        <time>2010-05-13T14:48:34Z</time>
      </trkpt>
      <trkpt lat="48.73811" lon="1.77442">
        <ele>161</ele>
        <time>2010-05-13T14:48:39Z</time>
      </trkpt>
      <trkpt lat="48.73808" lon="1.77442">
        <ele>161</ele>
        <time>2010-05-13T14:48:40Z</time>
      </trkpt>
      <trkpt lat="48.73807" lon="1.77441">
        <ele>161</ele>
        <time>2010-05-13T14:48:42Z</time>
      </trkpt>
      <trkpt lat="48.73806" lon="1.7744">
        <ele>161</ele>
        <time>2010-05-13T14:48:44Z</time>
      </trkpt>
      <trkpt lat="48.73805" lon="1.77437">
        <ele>161</ele>
        <time>2010-05-13T14:48:46Z</time>
      </trkpt>
      <trkpt lat="48.73805" lon="1.77435">
        <ele>161</ele>
        <time>2010-05-13T14:48:49Z</time>
      </trkpt>
      <trkpt lat="48.73805" lon="1.77433">
        <ele>161</ele>
        <time>2010-05-13T14:48:50Z</time>
      </trkpt>
      <trkpt lat="48.73806" lon="1.77431">
        <ele>161</ele>
        <time>2010-05-13T14:48:52Z</time>
      </trkpt>
      <trkpt lat="48.73806" lon="1.77429">
        <ele>161</ele>
        <time>2010-05-13T14:48:54Z</time>
      </trkpt>
      <trkpt lat="48.73808" lon="1.77426">
        <ele>161</ele>
        <time>2010-05-13T14:48:56Z</time>
      </trkpt>
      <trkpt lat="48.73809" lon="1.77426">
        <ele>161</ele>
        <time>2010-05-13T14:48:57Z</time>
      </trkpt>
      <trkpt lat="48.7381" lon="1.77423">
        <ele>161</ele>
        <time>2010-05-13T14:49:02Z</time>
      </trkpt>
      <trkpt lat="48.7381" lon="1.77421">
        <ele>161</ele>
        <time>2010-05-13T14:49:04Z</time>
      </trkpt>
      <trkpt lat="48.73811" lon="1.77419">
        <ele>161</ele>
        <time>2010-05-13T14:49:06Z</time>
      </trkpt>
      <trkpt lat="48.73811" lon="1.77417">
        <ele>161</ele>
        <time>2010-05-13T14:49:09Z</time>
      </trkpt>
      <trkpt lat="48.73812" lon="1.77414">
        <ele>161</ele>
        <time>2010-05-13T14:49:12Z</time>
      </trkpt>
      <trkpt lat="48.73812" lon="1.77413">
        <ele>161</ele>
        <time>2010-05-13T14:49:14Z</time>
      </trkpt>
      <trkpt lat="48.73812" lon="1.77411">
        <ele>161</ele>
        <time>2010-05-13T14:49:14Z</time>
      </trkpt>
      <trkpt lat="48.73813" lon="1.77408">
        <ele>160</ele>
        <time>2010-05-13T14:49:16Z</time>
      </trkpt>
      <trkpt lat="48.73813" lon="1.77406">
        <ele>160</ele>
        <time>2010-05-13T14:49:17Z</time>
      </trkpt>
      <trkpt lat="48.73814" lon="1.77404">
        <ele>159</ele>
        <time>2010-05-13T14:49:19Z</time>
      </trkpt>
      <trkpt lat="48.73815" lon="1.77403">
        <ele>158</ele>
        <time>2010-05-13T14:49:20Z</time>
      </trkpt>
      <trkpt lat="48.73816" lon="1.774">
        <ele>157</ele>
        <time>2010-05-13T14:49:22Z</time>
      </trkpt>
      <trkpt lat="48.73817" lon="1.77396">
        <ele>157</ele>
        <time>2010-05-13T14:49:24Z</time>
      </trkpt>
      <trkpt lat="48.73818" lon="1.77393">
        <ele>156</ele>
        <time>2010-05-13T14:49:26Z</time>
      </trkpt>
      <trkpt lat="48.7382" lon="1.77392">
        <ele>156</ele>
        <time>2010-05-13T14:49:27Z</time>
      </trkpt>
      <trkpt lat="48.7382" lon="1.77388">
        <ele>154</ele>
        <time>2010-05-13T14:49:29Z</time>
      </trkpt>
      <trkpt lat="48.73819" lon="1.77385">
        <ele>154</ele>
        <time>2010-05-13T14:49:30Z</time>
      </trkpt>
      <trkpt lat="48.73819" lon="1.77383">
        <ele>154</ele>
        <time>2010-05-13T14:49:32Z</time>
      </trkpt>
      <trkpt lat="48.73818" lon="1.77381">
        <ele>154</ele>
        <time>2010-05-13T14:49:34Z</time>
      </trkpt>
      <trkpt lat="48.73817" lon="1.77379">
        <ele>154</ele>
        <time>2010-05-13T14:49:35Z</time>
      </trkpt>
      <trkpt lat="48.73817" lon="1.77377">
        <ele>154</ele>
        <time>2010-05-13T14:49:36Z</time>
      </trkpt>
      <trkpt lat="48.73814" lon="1.77376">
        <ele>154</ele>
        <time>2010-05-13T14:49:39Z</time>
      </trkpt>
      <trkpt lat="48.73812" lon="1.77375">
        <ele>154</ele>
        <time>2010-05-13T14:49:39Z</time>
      </trkpt>
      <trkpt lat="48.7381" lon="1.77376">
        <ele>154</ele>
        <time>2010-05-13T14:49:40Z</time>
      </trkpt>
      <trkpt lat="48.73807" lon="1.77375">
        <ele>154</ele>
        <time>2010-05-13T14:49:42Z</time>
      </trkpt>
      <trkpt lat="48.73805" lon="1.77374">
        <ele>154</ele>
        <time>2010-05-13T14:49:44Z</time>
      </trkpt>
      <trkpt lat="48.73804" lon="1.77372">
        <ele>154</ele>
        <time>2010-05-13T14:49:46Z</time>
      </trkpt>
      <trkpt lat="48.73801" lon="1.77373">
        <ele>154</ele>
        <time>2010-05-13T14:49:49Z</time>
      </trkpt>
      <trkpt lat="48.73799" lon="1.77374">
        <ele>154</ele>
        <time>2010-05-13T14:49:50Z</time>
      </trkpt>
      <trkpt lat="48.73797" lon="1.77374">
        <ele>154</ele>
        <time>2010-05-13T14:49:51Z</time>
      </trkpt>
      <trkpt lat="48.73796" lon="1.77375">
        <ele>154</ele>
        <time>2010-05-13T14:49:52Z</time>
      </trkpt>
      <trkpt lat="48.73794" lon="1.77376">
        <ele>154</ele>
        <time>2010-05-13T14:49:54Z</time>
      </trkpt>
      <trkpt lat="48.73793" lon="1.77376">
        <ele>154</ele>
        <time>2010-05-13T14:49:54Z</time>
      </trkpt>
      <trkpt lat="48.73792" lon="1.77378">
        <ele>154</ele>
        <time>2010-05-13T14:49:56Z</time>
      </trkpt>
      <trkpt lat="48.7379" lon="1.77379">
        <ele>154</ele>
        <time>2010-05-13T14:49:59Z</time>
      </trkpt>
      <trkpt lat="48.73788" lon="1.7738">
        <ele>154</ele>
        <time>2010-05-13T14:49:59Z</time>
      </trkpt>
      <trkpt lat="48.73786" lon="1.7738">
        <ele>154</ele>
        <time>2010-05-13T14:50:01Z</time>
      </trkpt>
      <trkpt lat="48.73785" lon="1.77381">
        <ele>154</ele>
        <time>2010-05-13T14:50:02Z</time>
      </trkpt>
      <trkpt lat="48.73783" lon="1.77381">
        <ele>154</ele>
        <time>2010-05-13T14:50:04Z</time>
      </trkpt>
      <trkpt lat="48.73782" lon="1.77382">
        <ele>154</ele>
        <time>2010-05-13T14:50:04Z</time>
      </trkpt>
      <trkpt lat="48.7378" lon="1.77384">
        <ele>154</ele>
        <time>2010-05-13T14:50:06Z</time>
      </trkpt>
      <trkpt lat="48.73779" lon="1.77383">
        <ele>154</ele>
        <time>2010-05-13T14:50:07Z</time>
      </trkpt>
      <trkpt lat="48.73777" lon="1.77383">
        <ele>155</ele>
        <time>2010-05-13T14:50:09Z</time>
      </trkpt>
      <trkpt lat="48.73776" lon="1.77384">
        <ele>156</ele>
        <time>2010-05-13T14:50:09Z</time>
      </trkpt>
      <trkpt lat="48.73774" lon="1.77386">
        <ele>157</ele>
        <time>2010-05-13T14:50:11Z</time>
      </trkpt>
      <trkpt lat="48.73772" lon="1.77386">
        <ele>158</ele>
        <time>2010-05-13T14:50:12Z</time>
      </trkpt>
      <trkpt lat="48.7377" lon="1.77387">
        <ele>159</ele>
        <time>2010-05-13T14:50:14Z</time>
      </trkpt>
      <trkpt lat="48.73769" lon="1.77387">
        <ele>159</ele>
        <time>2010-05-13T14:50:15Z</time>
      </trkpt>
      <trkpt lat="48.73767" lon="1.77387">
        <ele>159</ele>
        <time>2010-05-13T14:50:16Z</time>
      </trkpt>
      <trkpt lat="48.73765" lon="1.77388">
        <ele>159</ele>
        <time>2010-05-13T14:50:17Z</time>
      </trkpt>
      <trkpt lat="48.73764" lon="1.77388">
        <ele>159</ele>
        <time>2010-05-13T14:50:19Z</time>
      </trkpt>
      <trkpt lat="48.73762" lon="1.77389">
        <ele>159</ele>
        <time>2010-05-13T14:50:20Z</time>
      </trkpt>
      <trkpt lat="48.7376" lon="1.7739">
        <ele>159</ele>
        <time>2010-05-13T14:50:22Z</time>
      </trkpt>
      <trkpt lat="48.73753" lon="1.77393">
        <ele>159</ele>
        <time>2010-05-13T14:50:29Z</time>
      </trkpt>
      <trkpt lat="48.73751" lon="1.77394">
        <ele>159</ele>
        <time>2010-05-13T14:50:29Z</time>
      </trkpt>
      <trkpt lat="48.7375" lon="1.77394">
        <ele>159</ele>
        <time>2010-05-13T14:50:30Z</time>
      </trkpt>
      <trkpt lat="48.73748" lon="1.77395">
        <ele>159</ele>
        <time>2010-05-13T14:50:32Z</time>
      </trkpt>
      <trkpt lat="48.73747" lon="1.77397">
        <ele>159</ele>
        <time>2010-05-13T14:50:34Z</time>
      </trkpt>
      <trkpt lat="48.73745" lon="1.77398">
        <ele>159</ele>
        <time>2010-05-13T14:50:36Z</time>
      </trkpt>
      <trkpt lat="48.73744" lon="1.77398">
        <ele>159</ele>
        <time>2010-05-13T14:50:37Z</time>
      </trkpt>
      <trkpt lat="48.73742" lon="1.77398">
        <ele>159</ele>
        <time>2010-05-13T14:50:39Z</time>
      </trkpt>
      <trkpt lat="48.73741" lon="1.77399">
        <ele>160</ele>
        <time>2010-05-13T14:50:39Z</time>
      </trkpt>
      <trkpt lat="48.7374" lon="1.77399">
        <ele>160</ele>
        <time>2010-05-13T14:50:40Z</time>
      </trkpt>
      <trkpt lat="48.73738" lon="1.77399">
        <ele>160</ele>
        <time>2010-05-13T14:50:42Z</time>
      </trkpt>
      <trkpt lat="48.73736" lon="1.774">
        <ele>160</ele>
        <time>2010-05-13T14:50:44Z</time>
      </trkpt>
      <trkpt lat="48.73735" lon="1.77401">
        <ele>160</ele>
        <time>2010-05-13T14:50:44Z</time>
      </trkpt>
      <trkpt lat="48.73732" lon="1.77402">
        <ele>160</ele>
        <time>2010-05-13T14:50:45Z</time>
      </trkpt>
      <trkpt lat="48.7373" lon="1.77402">
        <ele>160</ele>
        <time>2010-05-13T14:50:46Z</time>
      </trkpt>
      <trkpt lat="48.73727" lon="1.77403">
        <ele>160</ele>
        <time>2010-05-13T14:50:47Z</time>
      </trkpt>
      <trkpt lat="48.73724" lon="1.77404">
        <ele>160</ele>
        <time>2010-05-13T14:50:49Z</time>
      </trkpt>
      <trkpt lat="48.73722" lon="1.77406">
        <ele>160</ele>
        <time>2010-05-13T14:50:49Z</time>
      </trkpt>
      <trkpt lat="48.7372" lon="1.77408">
        <ele>160</ele>
        <time>2010-05-13T14:50:50Z</time>
      </trkpt>
      <trkpt lat="48.73718" lon="1.7741">
        <ele>160</ele>
        <time>2010-05-13T14:50:51Z</time>
      </trkpt>
      <trkpt lat="48.73716" lon="1.77411">
        <ele>160</ele>
        <time>2010-05-13T14:50:52Z</time>
      </trkpt>
      <trkpt lat="48.73714" lon="1.77411">
        <ele>160</ele>
        <time>2010-05-13T14:50:54Z</time>
      </trkpt>
      <trkpt lat="48.73711" lon="1.77413">
        <ele>160</ele>
        <time>2010-05-13T14:50:54Z</time>
      </trkpt>
      <trkpt lat="48.73709" lon="1.77414">
        <ele>160</ele>
        <time>2010-05-13T14:50:55Z</time>
      </trkpt>
      <trkpt lat="48.73706" lon="1.77416">
        <ele>160</ele>
        <time>2010-05-13T14:50:56Z</time>
      </trkpt>
      <trkpt lat="48.73704" lon="1.77418">
        <ele>160</ele>
        <time>2010-05-13T14:50:57Z</time>
      </trkpt>
      <trkpt lat="48.73702" lon="1.7742">
        <ele>160</ele>
        <time>2010-05-13T14:50:59Z</time>
      </trkpt>
      <trkpt lat="48.737" lon="1.77422">
        <ele>160</ele>
        <time>2010-05-13T14:50:59Z</time>
      </trkpt>
      <trkpt lat="48.73697" lon="1.77423">
        <ele>160</ele>
        <time>2010-05-13T14:51:00Z</time>
      </trkpt>
      <trkpt lat="48.73695" lon="1.77424">
        <ele>160</ele>
        <time>2010-05-13T14:51:01Z</time>
      </trkpt>
      <trkpt lat="48.73694" lon="1.77425">
        <ele>160</ele>
        <time>2010-05-13T14:51:02Z</time>
      </trkpt>
      <trkpt lat="48.73692" lon="1.77426">
        <ele>160</ele>
        <time>2010-05-13T14:51:04Z</time>
      </trkpt>
      <trkpt lat="48.73691" lon="1.77427">
        <ele>160</ele>
        <time>2010-05-13T14:51:04Z</time>
      </trkpt>
      <trkpt lat="48.73689" lon="1.77428">
        <ele>160</ele>
        <time>2010-05-13T14:51:05Z</time>
      </trkpt>
      <trkpt lat="48.73688" lon="1.77428">
        <ele>160</ele>
        <time>2010-05-13T14:51:06Z</time>
      </trkpt>
      <trkpt lat="48.73686" lon="1.77427">
        <ele>160</ele>
        <time>2010-05-13T14:51:07Z</time>
      </trkpt>
      <trkpt lat="48.73685" lon="1.77426">
        <ele>160</ele>
        <time>2010-05-13T14:51:09Z</time>
      </trkpt>
      <trkpt lat="48.73683" lon="1.77427">
        <ele>160</ele>
        <time>2010-05-13T14:51:10Z</time>
      </trkpt>
      <trkpt lat="48.73682" lon="1.77427">
        <ele>160</ele>
        <time>2010-05-13T14:51:11Z</time>
      </trkpt>
      <trkpt lat="48.7368" lon="1.77428">
        <ele>160</ele>
        <time>2010-05-13T14:51:12Z</time>
      </trkpt>
      <trkpt lat="48.73679" lon="1.77428">
        <ele>160</ele>
        <time>2010-05-13T14:51:14Z</time>
      </trkpt>
      <trkpt lat="48.73678" lon="1.77428">
        <ele>160</ele>
        <time>2010-05-13T14:51:14Z</time>
      </trkpt>
      <trkpt lat="48.73676" lon="1.77429">
        <ele>160</ele>
        <time>2010-05-13T14:51:16Z</time>
      </trkpt>
      <trkpt lat="48.73674" lon="1.7743">
        <ele>160</ele>
        <time>2010-05-13T14:51:17Z</time>
      </trkpt>
      <trkpt lat="48.73673" lon="1.77431">
        <ele>160</ele>
        <time>2010-05-13T14:51:19Z</time>
      </trkpt>
      <trkpt lat="48.73672" lon="1.77432">
        <ele>160</ele>
        <time>2010-05-13T14:51:19Z</time>
      </trkpt>
      <trkpt lat="48.7367" lon="1.77433">
        <ele>160</ele>
        <time>2010-05-13T14:51:20Z</time>
      </trkpt>
      <trkpt lat="48.73669" lon="1.77434">
        <ele>160</ele>
        <time>2010-05-13T14:51:21Z</time>
      </trkpt>
      <trkpt lat="48.73668" lon="1.77435">
        <ele>160</ele>
        <time>2010-05-13T14:51:22Z</time>
      </trkpt>
      <trkpt lat="48.73667" lon="1.77436">
        <ele>160</ele>
        <time>2010-05-13T14:51:24Z</time>
      </trkpt>
      <trkpt lat="48.73666" lon="1.77436">
        <ele>160</ele>
        <time>2010-05-13T14:51:24Z</time>
      </trkpt>
      <trkpt lat="48.73664" lon="1.77437">
        <ele>160</ele>
        <time>2010-05-13T14:51:25Z</time>
      </trkpt>
      <trkpt lat="48.73662" lon="1.77434">
        <ele>160</ele>
        <time>2010-05-13T14:51:26Z</time>
      </trkpt>
      <trkpt lat="48.7366" lon="1.77434">
        <ele>160</ele>
        <time>2010-05-13T14:51:27Z</time>
      </trkpt>
      <trkpt lat="48.73659" lon="1.77434">
        <ele>160</ele>
        <time>2010-05-13T14:51:29Z</time>
      </trkpt>
      <trkpt lat="48.73657" lon="1.77435">
        <ele>162</ele>
        <time>2010-05-13T14:51:30Z</time>
      </trkpt>
      <trkpt lat="48.73656" lon="1.77435">
        <ele>163</ele>
        <time>2010-05-13T14:51:31Z</time>
      </trkpt>
      <trkpt lat="48.73654" lon="1.77436">
        <ele>163</ele>
        <time>2010-05-13T14:51:34Z</time>
      </trkpt>
      <trkpt lat="48.73653" lon="1.77437">
        <ele>163</ele>
        <time>2010-05-13T14:51:34Z</time>
      </trkpt>
      <trkpt lat="48.73652" lon="1.77438">
        <ele>163</ele>
        <time>2010-05-13T14:51:35Z</time>
      </trkpt>
      <trkpt lat="48.7365" lon="1.77439">
        <ele>163</ele>
        <time>2010-05-13T14:51:37Z</time>
      </trkpt>
      <trkpt lat="48.73649" lon="1.7744">
        <ele>163</ele>
        <time>2010-05-13T14:51:39Z</time>
      </trkpt>
      <trkpt lat="48.73647" lon="1.77441">
        <ele>163</ele>
        <time>2010-05-13T14:51:40Z</time>
      </trkpt>
      <trkpt lat="48.73645" lon="1.77443">
        <ele>163</ele>
        <time>2010-05-13T14:51:42Z</time>
      </trkpt>
      <trkpt lat="48.73644" lon="1.77444">
        <ele>163</ele>
        <time>2010-05-13T14:51:44Z</time>
      </trkpt>
      <trkpt lat="48.73642" lon="1.77445">
        <ele>163</ele>
        <time>2010-05-13T14:51:44Z</time>
      </trkpt>
      <trkpt lat="48.7364" lon="1.77447">
        <ele>163</ele>
        <time>2010-05-13T14:51:46Z</time>
      </trkpt>
      <trkpt lat="48.73638" lon="1.77449">
        <ele>163</ele>
        <time>2010-05-13T14:51:49Z</time>
      </trkpt>
      <trkpt lat="48.73636" lon="1.77452">
        <ele>163</ele>
        <time>2010-05-13T14:51:50Z</time>
      </trkpt>
      <trkpt lat="48.73635" lon="1.77453">
        <ele>163</ele>
        <time>2010-05-13T14:51:51Z</time>
      </trkpt>
      <trkpt lat="48.73633" lon="1.77454">
        <ele>163</ele>
        <time>2010-05-13T14:51:52Z</time>
      </trkpt>
      <trkpt lat="48.73632" lon="1.77455">
        <ele>163</ele>
        <time>2010-05-13T14:51:54Z</time>
      </trkpt>
      <trkpt lat="48.7363" lon="1.77457">
        <ele>163</ele>
        <time>2010-05-13T14:51:55Z</time>
      </trkpt>
      <trkpt lat="48.73628" lon="1.7746">
        <ele>163</ele>
        <time>2010-05-13T14:51:57Z</time>
      </trkpt>
      <trkpt lat="48.73626" lon="1.77462">
        <ele>163</ele>
        <time>2010-05-13T14:51:59Z</time>
      </trkpt>
      <trkpt lat="48.73624" lon="1.77464">
        <ele>163</ele>
        <time>2010-05-13T14:52:01Z</time>
      </trkpt>
      <trkpt lat="48.73623" lon="1.77465">
        <ele>163</ele>
        <time>2010-05-13T14:52:02Z</time>
      </trkpt>
      <trkpt lat="48.73621" lon="1.77466">
        <ele>162</ele>
        <time>2010-05-13T14:52:04Z</time>
      </trkpt>
      <trkpt lat="48.7362" lon="1.77466">
        <ele>161</ele>
        <time>2010-05-13T14:52:19Z</time>
      </trkpt>
      <trkpt lat="48.7362" lon="1.77463">
        <ele>161</ele>
        <time>2010-05-13T14:52:20Z</time>
      </trkpt>
      <trkpt lat="48.73621" lon="1.77461">
        <ele>161</ele>
        <time>2010-05-13T14:52:22Z</time>
      </trkpt>
      <trkpt lat="48.73623" lon="1.77459">
        <ele>162</ele>
        <time>2010-05-13T14:52:24Z</time>
      </trkpt>
      <trkpt lat="48.73625" lon="1.77458">
        <ele>162</ele>
        <time>2010-05-13T14:52:25Z</time>
      </trkpt>
      <trkpt lat="48.73626" lon="1.77457">
        <ele>162</ele>
        <time>2010-05-13T14:52:26Z</time>
      </trkpt>
      <trkpt lat="48.73627" lon="1.77456">
        <ele>162</ele>
        <time>2010-05-13T14:52:27Z</time>
      </trkpt>
      <trkpt lat="48.73629" lon="1.77456">
        <ele>162</ele>
        <time>2010-05-13T14:52:29Z</time>
      </trkpt>
      <trkpt lat="48.7363" lon="1.77455">
        <ele>162</ele>
        <time>2010-05-13T14:52:29Z</time>
      </trkpt>
      <trkpt lat="48.73631" lon="1.77455">
        <ele>162</ele>
        <time>2010-05-13T14:52:30Z</time>
      </trkpt>
      <trkpt lat="48.73633" lon="1.77453">
        <ele>162</ele>
        <time>2010-05-13T14:52:32Z</time>
      </trkpt>
      <trkpt lat="48.73634" lon="1.77452">
        <ele>162</ele>
        <time>2010-05-13T14:52:34Z</time>
      </trkpt>
      <trkpt lat="48.73637" lon="1.77451">
        <ele>162</ele>
        <time>2010-05-13T14:52:35Z</time>
      </trkpt>
      <trkpt lat="48.73638" lon="1.7745">
        <ele>162</ele>
        <time>2010-05-13T14:52:36Z</time>
      </trkpt>
      <trkpt lat="48.73639" lon="1.7745">
        <ele>162</ele>
        <time>2010-05-13T14:52:37Z</time>
      </trkpt>
      <trkpt lat="48.7364" lon="1.77449">
        <ele>162</ele>
        <time>2010-05-13T14:52:39Z</time>
      </trkpt>
      <trkpt lat="48.73642" lon="1.77448">
        <ele>162</ele>
        <time>2010-05-13T14:52:39Z</time>
      </trkpt>
      <trkpt lat="48.73643" lon="1.77446">
        <ele>163</ele>
        <time>2010-05-13T14:52:41Z</time>
      </trkpt>
      <trkpt lat="48.73645" lon="1.77443">
        <ele>163</ele>
        <time>2010-05-13T14:52:44Z</time>
      </trkpt>
      <trkpt lat="48.73646" lon="1.77441">
        <ele>163</ele>
        <time>2010-05-13T14:52:45Z</time>
      </trkpt>
      <trkpt lat="48.73647" lon="1.77438">
        <ele>163</ele>
        <time>2010-05-13T14:52:47Z</time>
      </trkpt>
      <trkpt lat="48.73648" lon="1.77435">
        <ele>163</ele>
        <time>2010-05-13T14:52:49Z</time>
      </trkpt>
      <trkpt lat="48.73648" lon="1.77433">
        <ele>163</ele>
        <time>2010-05-13T14:52:50Z</time>
      </trkpt>
      <trkpt lat="48.73649" lon="1.7743">
        <ele>163</ele>
        <time>2010-05-13T14:52:51Z</time>
      </trkpt>
      <trkpt lat="48.73651" lon="1.77427">
        <ele>163</ele>
        <time>2010-05-13T14:52:52Z</time>
      </trkpt>
      <trkpt lat="48.73652" lon="1.77423">
        <ele>163</ele>
        <time>2010-05-13T14:52:54Z</time>
      </trkpt>
      <trkpt lat="48.73653" lon="1.77419">
        <ele>163</ele>
        <time>2010-05-13T14:52:54Z</time>
      </trkpt>
      <trkpt lat="48.73654" lon="1.77416">
        <ele>163</ele>
        <time>2010-05-13T14:52:55Z</time>
      </trkpt>
      <trkpt lat="48.73655" lon="1.77411">
        <ele>163</ele>
        <time>2010-05-13T14:52:56Z</time>
      </trkpt>
      <trkpt lat="48.73657" lon="1.77408">
        <ele>163</ele>
        <time>2010-05-13T14:52:57Z</time>
      </trkpt>
      <trkpt lat="48.7366" lon="1.77404">
        <ele>163</ele>
        <time>2010-05-13T14:52:59Z</time>
      </trkpt>
      <trkpt lat="48.73662" lon="1.774">
        <ele>163</ele>
        <time>2010-05-13T14:52:59Z</time>
      </trkpt>
      <trkpt lat="48.73664" lon="1.77397">
        <ele>163</ele>
        <time>2010-05-13T14:53:00Z</time>
      </trkpt>
      <trkpt lat="48.73666" lon="1.77394">
        <ele>163</ele>
        <time>2010-05-13T14:53:01Z</time>
      </trkpt>
      <trkpt lat="48.73668" lon="1.77391">
        <ele>163</ele>
        <time>2010-05-13T14:53:02Z</time>
      </trkpt>
      <trkpt lat="48.73669" lon="1.77387">
        <ele>163</ele>
        <time>2010-05-13T14:53:04Z</time>
      </trkpt>
      <trkpt lat="48.7367" lon="1.77383">
        <ele>163</ele>
        <time>2010-05-13T14:53:04Z</time>
      </trkpt>
      <trkpt lat="48.73671" lon="1.7738">
        <ele>163</ele>
        <time>2010-05-13T14:53:05Z</time>
      </trkpt>
      <trkpt lat="48.73671" lon="1.77378">
        <ele>163</ele>
        <time>2010-05-13T14:53:06Z</time>
      </trkpt>
      <trkpt lat="48.73672" lon="1.77376">
        <ele>163</ele>
        <time>2010-05-13T14:53:07Z</time>
      </trkpt>
      <trkpt lat="48.73673" lon="1.77374">
        <ele>163</ele>
        <time>2010-05-13T14:53:09Z</time>
      </trkpt>
      <trkpt lat="48.73674" lon="1.77372">
        <ele>163</ele>
        <time>2010-05-13T14:53:09Z</time>
      </trkpt>
      <trkpt lat="48.73675" lon="1.77369">
        <ele>163</ele>
        <time>2010-05-13T14:53:10Z</time>
      </trkpt>
      <trkpt lat="48.73676" lon="1.77367">
        <ele>163</ele>
        <time>2010-05-13T14:53:11Z</time>
      </trkpt>
      <trkpt lat="48.73676" lon="1.77366">
        <ele>163</ele>
        <time>2010-05-13T14:53:12Z</time>
      </trkpt>
      <trkpt lat="48.73677" lon="1.77364">
        <ele>163</ele>
        <time>2010-05-13T14:53:14Z</time>
      </trkpt>
      <trkpt lat="48.73678" lon="1.77362">
        <ele>163</ele>
        <time>2010-05-13T14:53:14Z</time>
      </trkpt>
      <trkpt lat="48.73679" lon="1.77359">
        <ele>163</ele>
        <time>2010-05-13T14:53:15Z</time>
      </trkpt>
      <trkpt lat="48.73679" lon="1.77357">
        <ele>163</ele>
        <time>2010-05-13T14:53:16Z</time>
      </trkpt>
      <trkpt lat="48.7368" lon="1.77355">
        <ele>163</ele>
        <time>2010-05-13T14:53:17Z</time>
      </trkpt>
      <trkpt lat="48.73681" lon="1.77354">
        <ele>163</ele>
        <time>2010-05-13T14:53:19Z</time>
      </trkpt>
      <trkpt lat="48.73682" lon="1.77352">
        <ele>163</ele>
        <time>2010-05-13T14:53:19Z</time>
      </trkpt>
      <trkpt lat="48.73682" lon="1.7735">
        <ele>163</ele>
        <time>2010-05-13T14:53:20Z</time>
      </trkpt>
      <trkpt lat="48.73683" lon="1.77348">
        <ele>163</ele>
        <time>2010-05-13T14:53:21Z</time>
      </trkpt>
      <trkpt lat="48.73684" lon="1.77346">
        <ele>163</ele>
        <time>2010-05-13T14:53:22Z</time>
      </trkpt>
      <trkpt lat="48.73686" lon="1.77342">
        <ele>163</ele>
        <time>2010-05-13T14:53:24Z</time>
      </trkpt>
      <trkpt lat="48.73688" lon="1.77341">
        <ele>163</ele>
        <time>2010-05-13T14:53:25Z</time>
      </trkpt>
      <trkpt lat="48.73689" lon="1.77337">
        <ele>163</ele>
        <time>2010-05-13T14:53:27Z</time>
      </trkpt>
      <trkpt lat="48.7369" lon="1.77335">
        <ele>163</ele>
        <time>2010-05-13T14:53:29Z</time>
      </trkpt>
      <trkpt lat="48.73691" lon="1.77333">
        <ele>163</ele>
        <time>2010-05-13T14:53:29Z</time>
      </trkpt>
      <trkpt lat="48.73693" lon="1.77329">
        <ele>163</ele>
        <time>2010-05-13T14:53:30Z</time>
      </trkpt>
      <trkpt lat="48.73695" lon="1.77326">
        <ele>163</ele>
        <time>2010-05-13T14:53:31Z</time>
      </trkpt>
      <trkpt lat="48.73697" lon="1.77323">
        <ele>163</ele>
        <time>2010-05-13T14:53:32Z</time>
      </trkpt>
      <trkpt lat="48.73698" lon="1.7732">
        <ele>163</ele>
        <time>2010-05-13T14:53:34Z</time>
      </trkpt>
      <trkpt lat="48.73698" lon="1.77317">
        <ele>163</ele>
        <time>2010-05-13T14:53:34Z</time>
      </trkpt>
      <trkpt lat="48.73699" lon="1.77315">
        <ele>163</ele>
        <time>2010-05-13T14:53:35Z</time>
      </trkpt>
      <trkpt lat="48.73699" lon="1.77313">
        <ele>163</ele>
        <time>2010-05-13T14:53:36Z</time>
      </trkpt>
      <trkpt lat="48.737" lon="1.77311">
        <ele>163</ele>
        <time>2010-05-13T14:53:37Z</time>
      </trkpt>
      <trkpt lat="48.73701" lon="1.77309">
        <ele>163</ele>
        <time>2010-05-13T14:53:39Z</time>
      </trkpt>
      <trkpt lat="48.73702" lon="1.77308">
        <ele>163</ele>
        <time>2010-05-13T14:53:39Z</time>
      </trkpt>
      <trkpt lat="48.73704" lon="1.77305">
        <ele>163</ele>
        <time>2010-05-13T14:53:40Z</time>
      </trkpt>
      <trkpt lat="48.73705" lon="1.77303">
        <ele>163</ele>
        <time>2010-05-13T14:53:41Z</time>
      </trkpt>
      <trkpt lat="48.73706" lon="1.77301">
        <ele>163</ele>
        <time>2010-05-13T14:53:42Z</time>
      </trkpt>
      <trkpt lat="48.73707" lon="1.773">
        <ele>163</ele>
        <time>2010-05-13T14:53:44Z</time>
      </trkpt>
      <trkpt lat="48.73708" lon="1.77298">
        <ele>163</ele>
        <time>2010-05-13T14:53:44Z</time>
      </trkpt>
      <trkpt lat="48.73709" lon="1.77296">
        <ele>163</ele>
        <time>2010-05-13T14:53:45Z</time>
      </trkpt>
      <trkpt lat="48.7371" lon="1.77293">
        <ele>163</ele>
        <time>2010-05-13T14:53:47Z</time>
      </trkpt>
      <trkpt lat="48.73711" lon="1.77291">
        <ele>163</ele>
        <time>2010-05-13T14:53:49Z</time>
      </trkpt>
      <trkpt lat="48.73711" lon="1.77289">
        <ele>163</ele>
        <time>2010-05-13T14:53:49Z</time>
      </trkpt>
      <trkpt lat="48.73712" lon="1.77287">
        <ele>163</ele>
        <time>2010-05-13T14:53:50Z</time>
      </trkpt>
      <trkpt lat="48.73712" lon="1.77285">
        <ele>163</ele>
        <time>2010-05-13T14:53:51Z</time>
      </trkpt>
      <trkpt lat="48.73712" lon="1.77283">
        <ele>163</ele>
        <time>2010-05-13T14:53:52Z</time>
      </trkpt>
      <trkpt lat="48.73713" lon="1.77281">
        <ele>163</ele>
        <time>2010-05-13T14:53:54Z</time>
      </trkpt>
      <trkpt lat="48.73713" lon="1.77279">
        <ele>163</ele>
        <time>2010-05-13T14:53:54Z</time>
      </trkpt>
      <trkpt lat="48.73714" lon="1.77277">
        <ele>163</ele>
        <time>2010-05-13T14:53:55Z</time>
      </trkpt>
      <trkpt lat="48.73714" lon="1.77275">
        <ele>163</ele>
        <time>2010-05-13T14:53:56Z</time>
      </trkpt>
      <trkpt lat="48.73715" lon="1.77273">
        <ele>163</ele>
        <time>2010-05-13T14:53:57Z</time>
      </trkpt>
      <trkpt lat="48.73716" lon="1.77269">
        <ele>163</ele>
        <time>2010-05-13T14:53:59Z</time>
      </trkpt>
      <trkpt lat="48.73718" lon="1.77266">
        <ele>163</ele>
        <time>2010-05-13T14:53:59Z</time>
      </trkpt>
      <trkpt lat="48.73719" lon="1.77264">
        <ele>163</ele>
        <time>2010-05-13T14:54:00Z</time>
      </trkpt>
      <trkpt lat="48.73721" lon="1.77261">
        <ele>163</ele>
        <time>2010-05-13T14:54:01Z</time>
      </trkpt>
      <trkpt lat="48.73724" lon="1.77258">
        <ele>163</ele>
        <time>2010-05-13T14:54:02Z</time>
      </trkpt>
      <trkpt lat="48.73724" lon="1.77256">
        <ele>163</ele>
        <time>2010-05-13T14:54:04Z</time>
      </trkpt>
      <trkpt lat="48.73725" lon="1.77254">
        <ele>163</ele>
        <time>2010-05-13T14:54:04Z</time>
      </trkpt>
      <trkpt lat="48.73726" lon="1.77252">
        <ele>163</ele>
        <time>2010-05-13T14:54:05Z</time>
      </trkpt>
      <trkpt lat="48.73729" lon="1.77249">
        <ele>163</ele>
        <time>2010-05-13T14:54:06Z</time>
      </trkpt>
      <trkpt lat="48.7373" lon="1.77248">
        <ele>163</ele>
        <time>2010-05-13T14:54:07Z</time>
      </trkpt>
      <trkpt lat="48.73732" lon="1.77246">
        <ele>163</ele>
        <time>2010-05-13T14:54:09Z</time>
      </trkpt>
      <trkpt lat="48.73734" lon="1.77245">
        <ele>164</ele>
        <time>2010-05-13T14:54:09Z</time>
      </trkpt>
      <trkpt lat="48.73735" lon="1.77244">
        <ele>165</ele>
        <time>2010-05-13T14:54:10Z</time>
      </trkpt>
      <trkpt lat="48.73737" lon="1.77242">
        <ele>165</ele>
        <time>2010-05-13T14:54:11Z</time>
      </trkpt>
      <trkpt lat="48.73738" lon="1.77241">
        <ele>166</ele>
        <time>2010-05-13T14:54:12Z</time>
      </trkpt>
      <trkpt lat="48.73738" lon="1.77238">
        <ele>166</ele>
        <time>2010-05-13T14:54:14Z</time>
      </trkpt>
      <trkpt lat="48.73739" lon="1.77236">
        <ele>166</ele>
        <time>2010-05-13T14:54:14Z</time>
      </trkpt>
      <trkpt lat="48.73739" lon="1.77234">
        <ele>167</ele>
        <time>2010-05-13T14:54:15Z</time>
      </trkpt>
      <trkpt lat="48.7374" lon="1.77232">
        <ele>167</ele>
        <time>2010-05-13T14:54:16Z</time>
      </trkpt>
      <trkpt lat="48.7374" lon="1.77229">
        <ele>167</ele>
        <time>2010-05-13T14:54:17Z</time>
      </trkpt>
      <trkpt lat="48.73741" lon="1.77225">
        <ele>167</ele>
        <time>2010-05-13T14:54:19Z</time>
      </trkpt>
      <trkpt lat="48.73742" lon="1.7722">
        <ele>167</ele>
        <time>2010-05-13T14:54:19Z</time>
      </trkpt>
      <trkpt lat="48.73744" lon="1.77216">
        <ele>167</ele>
        <time>2010-05-13T14:54:20Z</time>
      </trkpt>
      <trkpt lat="48.73745" lon="1.77211">
        <ele>167</ele>
        <time>2010-05-13T14:54:21Z</time>
      </trkpt>
      <trkpt lat="48.73747" lon="1.77206">
        <ele>167</ele>
        <time>2010-05-13T14:54:22Z</time>
      </trkpt>
      <trkpt lat="48.73749" lon="1.77202">
        <ele>167</ele>
        <time>2010-05-13T14:54:24Z</time>
      </trkpt>
      <trkpt lat="48.7375" lon="1.77198">
        <ele>167</ele>
        <time>2010-05-13T14:54:24Z</time>
      </trkpt>
      <trkpt lat="48.73752" lon="1.77192">
        <ele>167</ele>
        <time>2010-05-13T14:54:25Z</time>
      </trkpt>
      <trkpt lat="48.73754" lon="1.77187">
        <ele>167</ele>
        <time>2010-05-13T14:54:26Z</time>
      </trkpt>
      <trkpt lat="48.73755" lon="1.77182">
        <ele>167</ele>
        <time>2010-05-13T14:54:27Z</time>
      </trkpt>
      <trkpt lat="48.73755" lon="1.77178">
        <ele>167</ele>
        <time>2010-05-13T14:54:29Z</time>
      </trkpt>
      <trkpt lat="48.73757" lon="1.77173">
        <ele>167</ele>
        <time>2010-05-13T14:54:29Z</time>
      </trkpt>
      <trkpt lat="48.73758" lon="1.77169">
        <ele>167</ele>
        <time>2010-05-13T14:54:30Z</time>
      </trkpt>
      <trkpt lat="48.73759" lon="1.77165">
        <ele>167</ele>
        <time>2010-05-13T14:54:31Z</time>
      </trkpt>
      <trkpt lat="48.73759" lon="1.77161">
        <ele>167</ele>
        <time>2010-05-13T14:54:32Z</time>
      </trkpt>
      <trkpt lat="48.7376" lon="1.77156">
        <ele>167</ele>
        <time>2010-05-13T14:54:34Z</time>
      </trkpt>
      <trkpt lat="48.73761" lon="1.77152">
        <ele>166</ele>
        <time>2010-05-13T14:54:34Z</time>
      </trkpt>
      <trkpt lat="48.73763" lon="1.77146">
        <ele>165</ele>
        <time>2010-05-13T14:54:35Z</time>
      </trkpt>
      <trkpt lat="48.73765" lon="1.7714">
        <ele>165</ele>
        <time>2010-05-13T14:54:36Z</time>
      </trkpt>
      <trkpt lat="48.73766" lon="1.77135">
        <ele>164</ele>
        <time>2010-05-13T14:54:37Z</time>
      </trkpt>
      <trkpt lat="48.73767" lon="1.77129">
        <ele>164</ele>
        <time>2010-05-13T14:54:39Z</time>
      </trkpt>
      <trkpt lat="48.73768" lon="1.77123">
        <ele>163</ele>
        <time>2010-05-13T14:54:39Z</time>
      </trkpt>
      <trkpt lat="48.7377" lon="1.77115">
        <ele>163</ele>
        <time>2010-05-13T14:54:40Z</time>
      </trkpt>
      <trkpt lat="48.73772" lon="1.77106">
        <ele>163</ele>
        <time>2010-05-13T14:54:41Z</time>
      </trkpt>
      <trkpt lat="48.73775" lon="1.77097">
        <ele>163</ele>
        <time>2010-05-13T14:54:42Z</time>
      </trkpt>
      <trkpt lat="48.73777" lon="1.77088">
        <ele>163</ele>
        <time>2010-05-13T14:54:44Z</time>
      </trkpt>
      <trkpt lat="48.7378" lon="1.77082">
        <ele>163</ele>
        <time>2010-05-13T14:54:44Z</time>
      </trkpt>
      <trkpt lat="48.73782" lon="1.77076">
        <ele>163</ele>
        <time>2010-05-13T14:54:45Z</time>
      </trkpt>
      <trkpt lat="48.73785" lon="1.77069">
        <ele>163</ele>
        <time>2010-05-13T14:54:46Z</time>
      </trkpt>
      <trkpt lat="48.73787" lon="1.77063">
        <ele>163</ele>
        <time>2010-05-13T14:54:47Z</time>
      </trkpt>
      <trkpt lat="48.73788" lon="1.77057">
        <ele>163</ele>
        <time>2010-05-13T14:54:49Z</time>
      </trkpt>
      <trkpt lat="48.73791" lon="1.77049">
        <ele>163</ele>
        <time>2010-05-13T14:54:49Z</time>
      </trkpt>
      <trkpt lat="48.73793" lon="1.77041">
        <ele>162</ele>
        <time>2010-05-13T14:54:50Z</time>
      </trkpt>
      <trkpt lat="48.73796" lon="1.77035">
        <ele>162</ele>
        <time>2010-05-13T14:54:51Z</time>
      </trkpt>
      <trkpt lat="48.73798" lon="1.77029">
        <ele>161</ele>
        <time>2010-05-13T14:54:52Z</time>
      </trkpt>
      <trkpt lat="48.738" lon="1.77024">
        <ele>161</ele>
        <time>2010-05-13T14:54:54Z</time>
      </trkpt>
      <trkpt lat="48.73803" lon="1.77018">
        <ele>161</ele>
        <time>2010-05-13T14:54:54Z</time>
      </trkpt>
      <trkpt lat="48.73805" lon="1.77012">
        <ele>161</ele>
        <time>2010-05-13T14:54:55Z</time>
      </trkpt>
      <trkpt lat="48.73809" lon="1.77006">
        <ele>161</ele>
        <time>2010-05-13T14:54:56Z</time>
      </trkpt>
      <trkpt lat="48.73813" lon="1.76999">
        <ele>161</ele>
        <time>2010-05-13T14:54:57Z</time>
      </trkpt>
      <trkpt lat="48.73816" lon="1.76993">
        <ele>161</ele>
        <time>2010-05-13T14:54:59Z</time>
      </trkpt>
      <trkpt lat="48.73819" lon="1.76986">
        <ele>161</ele>
        <time>2010-05-13T14:54:59Z</time>
      </trkpt>
      <trkpt lat="48.73822" lon="1.7698">
        <ele>161</ele>
        <time>2010-05-13T14:55:00Z</time>
      </trkpt>
      <trkpt lat="48.73825" lon="1.76973">
        <ele>161</ele>
        <time>2010-05-13T14:55:01Z</time>
      </trkpt>
      <trkpt lat="48.73826" lon="1.76966">
        <ele>161</ele>
        <time>2010-05-13T14:55:02Z</time>
      </trkpt>
      <trkpt lat="48.73827" lon="1.7696">
        <ele>161</ele>
        <time>2010-05-13T14:55:04Z</time>
      </trkpt>
      <trkpt lat="48.7383" lon="1.76953">
        <ele>160</ele>
        <time>2010-05-13T14:55:04Z</time>
      </trkpt>
      <trkpt lat="48.73832" lon="1.76946">
        <ele>160</ele>
        <time>2010-05-13T14:55:05Z</time>
      </trkpt>
      <trkpt lat="48.73833" lon="1.76939">
        <ele>159</ele>
        <time>2010-05-13T14:55:06Z</time>
      </trkpt>
      <trkpt lat="48.73834" lon="1.76932">
        <ele>159</ele>
        <time>2010-05-13T14:55:07Z</time>
      </trkpt>
      <trkpt lat="48.73835" lon="1.76924">
        <ele>158</ele>
        <time>2010-05-13T14:55:09Z</time>
      </trkpt>
      <trkpt lat="48.73839" lon="1.76916">
        <ele>158</ele>
        <time>2010-05-13T14:55:09Z</time>
      </trkpt>
      <trkpt lat="48.73842" lon="1.76909">
        <ele>157</ele>
        <time>2010-05-13T14:55:10Z</time>
      </trkpt>
      <trkpt lat="48.73845" lon="1.76899">
        <ele>157</ele>
        <time>2010-05-13T14:55:11Z</time>
      </trkpt>
      <trkpt lat="48.73849" lon="1.76889">
        <ele>157</ele>
        <time>2010-05-13T14:55:12Z</time>
      </trkpt>
      <trkpt lat="48.73853" lon="1.76878">
        <ele>157</ele>
        <time>2010-05-13T14:55:14Z</time>
      </trkpt>
      <trkpt lat="48.73857" lon="1.76867">
        <ele>157</ele>
        <time>2010-05-13T14:55:14Z</time>
      </trkpt>
      <trkpt lat="48.73861" lon="1.76856">
        <ele>157</ele>
        <time>2010-05-13T14:55:15Z</time>
      </trkpt>
      <trkpt lat="48.73865" lon="1.76845">
        <ele>157</ele>
        <time>2010-05-13T14:55:16Z</time>
      </trkpt>
      <trkpt lat="48.7387" lon="1.76836">
        <ele>157</ele>
        <time>2010-05-13T14:55:17Z</time>
      </trkpt>
      <trkpt lat="48.73874" lon="1.76826">
        <ele>157</ele>
        <time>2010-05-13T14:55:19Z</time>
      </trkpt>
      <trkpt lat="48.73877" lon="1.76818">
        <ele>157</ele>
        <time>2010-05-13T14:55:19Z</time>
      </trkpt>
      <trkpt lat="48.73881" lon="1.76809">
        <ele>157</ele>
        <time>2010-05-13T14:55:20Z</time>
      </trkpt>
      <trkpt lat="48.73885" lon="1.768">
        <ele>157</ele>
        <time>2010-05-13T14:55:21Z</time>
      </trkpt>
      <trkpt lat="48.73888" lon="1.76792">
        <ele>157</ele>
        <time>2010-05-13T14:55:22Z</time>
      </trkpt>
      <trkpt lat="48.73892" lon="1.76783">
        <ele>157</ele>
        <time>2010-05-13T14:55:24Z</time>
      </trkpt>
      <trkpt lat="48.73896" lon="1.76774">
        <ele>157</ele>
        <time>2010-05-13T14:55:24Z</time>
      </trkpt>
      <trkpt lat="48.739" lon="1.76765">
        <ele>157</ele>
        <time>2010-05-13T14:55:25Z</time>
      </trkpt>
      <trkpt lat="48.73904" lon="1.76757">
        <ele>157</ele>
        <time>2010-05-13T14:55:26Z</time>
      </trkpt>
      <trkpt lat="48.73908" lon="1.76748">
        <ele>157</ele>
        <time>2010-05-13T14:55:27Z</time>
      </trkpt>
      <trkpt lat="48.73911" lon="1.76739">
        <ele>157</ele>
        <time>2010-05-13T14:55:29Z</time>
      </trkpt>
      <trkpt lat="48.73915" lon="1.76729">
        <ele>157</ele>
        <time>2010-05-13T14:55:29Z</time>
      </trkpt>
      <trkpt lat="48.73919" lon="1.76718">
        <ele>157</ele>
        <time>2010-05-13T14:55:30Z</time>
      </trkpt>
      <trkpt lat="48.73923" lon="1.76708">
        <ele>157</ele>
        <time>2010-05-13T14:55:31Z</time>
      </trkpt>
      <trkpt lat="48.73926" lon="1.76697">
        <ele>157</ele>
        <time>2010-05-13T14:55:32Z</time>
      </trkpt>
      <trkpt lat="48.73928" lon="1.76687">
        <ele>157</ele>
        <time>2010-05-13T14:55:34Z</time>
      </trkpt>
      <trkpt lat="48.73931" lon="1.76676">
        <ele>157</ele>
        <time>2010-05-13T14:55:34Z</time>
      </trkpt>
      <trkpt lat="48.73934" lon="1.76666">
        <ele>157</ele>
        <time>2010-05-13T14:55:35Z</time>
      </trkpt>
      <trkpt lat="48.73939" lon="1.76656">
        <ele>157</ele>
        <time>2010-05-13T14:55:36Z</time>
      </trkpt>
      <trkpt lat="48.73942" lon="1.76646">
        <ele>157</ele>
        <time>2010-05-13T14:55:37Z</time>
      </trkpt>
      <trkpt lat="48.73947" lon="1.76636">
        <ele>157</ele>
        <time>2010-05-13T14:55:39Z</time>
      </trkpt>
      <trkpt lat="48.7395" lon="1.76625">
        <ele>157</ele>
        <time>2010-05-13T14:55:39Z</time>
      </trkpt>
      <trkpt lat="48.73954" lon="1.76615">
        <ele>157</ele>
        <time>2010-05-13T14:55:40Z</time>
      </trkpt>
      <trkpt lat="48.73957" lon="1.76605">
        <ele>157</ele>
        <time>2010-05-13T14:55:41Z</time>
      </trkpt>
      <trkpt lat="48.7396" lon="1.76594">
        <ele>157</ele>
        <time>2010-05-13T14:55:42Z</time>
      </trkpt>
      <trkpt lat="48.73964" lon="1.76583">
        <ele>157</ele>
        <time>2010-05-13T14:55:44Z</time>
      </trkpt>
      <trkpt lat="48.73967" lon="1.76573">
        <ele>157</ele>
        <time>2010-05-13T14:55:44Z</time>
      </trkpt>
      <trkpt lat="48.73971" lon="1.76564">
        <ele>157</ele>
        <time>2010-05-13T14:55:45Z</time>
      </trkpt>
      <trkpt lat="48.73973" lon="1.76555">
        <ele>157</ele>
        <time>2010-05-13T14:55:46Z</time>
      </trkpt>
      <trkpt lat="48.73977" lon="1.76547">
        <ele>157</ele>
        <time>2010-05-13T14:55:47Z</time>
      </trkpt>
      <trkpt lat="48.73979" lon="1.7654">
        <ele>157</ele>
        <time>2010-05-13T14:55:49Z</time>
      </trkpt>
      <trkpt lat="48.73982" lon="1.76532">
        <ele>157</ele>
        <time>2010-05-13T14:55:49Z</time>
      </trkpt>
      <trkpt lat="48.73985" lon="1.76523">
        <ele>157</ele>
        <time>2010-05-13T14:55:50Z</time>
      </trkpt>
      <trkpt lat="48.73987" lon="1.76516">
        <ele>157</ele>
        <time>2010-05-13T14:55:51Z</time>
      </trkpt>
      <trkpt lat="48.73988" lon="1.76508">
        <ele>157</ele>
        <time>2010-05-13T14:55:52Z</time>
      </trkpt>
      <trkpt lat="48.7399" lon="1.765">
        <ele>157</ele>
        <time>2010-05-13T14:55:54Z</time>
      </trkpt>
      <trkpt lat="48.73993" lon="1.76492">
        <ele>157</ele>
        <time>2010-05-13T14:55:54Z</time>
      </trkpt>
      <trkpt lat="48.73995" lon="1.76483">
        <ele>157</ele>
        <time>2010-05-13T14:55:55Z</time>
      </trkpt>
      <trkpt lat="48.74" lon="1.76473">
        <ele>157</ele>
        <time>2010-05-13T14:55:56Z</time>
      </trkpt>
      <trkpt lat="48.74002" lon="1.76465">
        <ele>157</ele>
        <time>2010-05-13T14:55:57Z</time>
      </trkpt>
      <trkpt lat="48.74004" lon="1.76457">
        <ele>157</ele>
        <time>2010-05-13T14:55:59Z</time>
      </trkpt>
      <trkpt lat="48.74006" lon="1.7645">
        <ele>157</ele>
        <time>2010-05-13T14:55:59Z</time>
      </trkpt>
      <trkpt lat="48.74009" lon="1.76442">
        <ele>157</ele>
        <time>2010-05-13T14:56:00Z</time>
      </trkpt>
      <trkpt lat="48.74011" lon="1.76433">
        <ele>157</ele>
        <time>2010-05-13T14:56:01Z</time>
      </trkpt>
      <trkpt lat="48.74013" lon="1.76424">
        <ele>157</ele>
        <time>2010-05-13T14:56:02Z</time>
      </trkpt>
      <trkpt lat="48.74014" lon="1.76415">
        <ele>157</ele>
        <time>2010-05-13T14:56:04Z</time>
      </trkpt>
      <trkpt lat="48.74015" lon="1.76408">
        <ele>157</ele>
        <time>2010-05-13T14:56:04Z</time>
      </trkpt>
      <trkpt lat="48.74016" lon="1.764">
        <ele>157</ele>
        <time>2010-05-13T14:56:05Z</time>
      </trkpt>
      <trkpt lat="48.74017" lon="1.76392">
        <ele>157</ele>
        <time>2010-05-13T14:56:06Z</time>
      </trkpt>
      <trkpt lat="48.74017" lon="1.76385">
        <ele>156</ele>
        <time>2010-05-13T14:56:07Z</time>
      </trkpt>
      <trkpt lat="48.74017" lon="1.7638">
        <ele>155</ele>
        <time>2010-05-13T14:56:09Z</time>
      </trkpt>
      <trkpt lat="48.74016" lon="1.76375">
        <ele>155</ele>
        <time>2010-05-13T14:56:09Z</time>
      </trkpt>
      <trkpt lat="48.74016" lon="1.76373">
        <ele>155</ele>
        <time>2010-05-13T14:56:10Z</time>
      </trkpt>
      <trkpt lat="48.74016" lon="1.76369">
        <ele>155</ele>
        <time>2010-05-13T14:56:11Z</time>
      </trkpt>
      <trkpt lat="48.74019" lon="1.76367">
        <ele>155</ele>
        <time>2010-05-13T14:56:12Z</time>
      </trkpt>
      <trkpt lat="48.74021" lon="1.76365">
        <ele>155</ele>
        <time>2010-05-13T14:56:14Z</time>
      </trkpt>
      <trkpt lat="48.74022" lon="1.76364">
        <ele>155</ele>
        <time>2010-05-13T14:56:15Z</time>
      </trkpt>
      <trkpt lat="48.74023" lon="1.76361">
        <ele>158</ele>
        <time>2010-05-13T14:56:19Z</time>
      </trkpt>
      <trkpt lat="48.74021" lon="1.76361">
        <ele>158</ele>
        <time>2010-05-13T14:56:21Z</time>
      </trkpt>
      <trkpt lat="48.74019" lon="1.76361">
        <ele>158</ele>
        <time>2010-05-13T14:56:24Z</time>
      </trkpt>
      <trkpt lat="48.74018" lon="1.76362">
        <ele>158</ele>
        <time>2010-05-13T14:56:25Z</time>
      </trkpt>
      <trkpt lat="48.74016" lon="1.76362">
        <ele>158</ele>
        <time>2010-05-13T14:56:27Z</time>
      </trkpt>
      <trkpt lat="48.74014" lon="1.76361">
        <ele>158</ele>
        <time>2010-05-13T14:56:29Z</time>
      </trkpt>
      <trkpt lat="48.74013" lon="1.76361">
        <ele>158</ele>
        <time>2010-05-13T14:56:30Z</time>
      </trkpt>
      <trkpt lat="48.74011" lon="1.7636">
        <ele>158</ele>
        <time>2010-05-13T14:56:31Z</time>
      </trkpt>
      <trkpt lat="48.7401" lon="1.7636">
        <ele>158</ele>
        <time>2010-05-13T14:56:32Z</time>
      </trkpt>
      <trkpt lat="48.74009" lon="1.7636">
        <ele>158</ele>
        <time>2010-05-13T14:56:34Z</time>
      </trkpt>
      <trkpt lat="48.74007" lon="1.7636">
        <ele>158</ele>
        <time>2010-05-13T14:56:36Z</time>
      </trkpt>
      <trkpt lat="48.74005" lon="1.7636">
        <ele>158</ele>
        <time>2010-05-13T14:56:39Z</time>
      </trkpt>
      <trkpt lat="48.74003" lon="1.76361">
        <ele>158</ele>
        <time>2010-05-13T14:56:40Z</time>
      </trkpt>
      <trkpt lat="48.74002" lon="1.76362">
        <ele>158</ele>
        <time>2010-05-13T14:56:41Z</time>
      </trkpt>
      <trkpt lat="48.74" lon="1.76362">
        <ele>158</ele>
        <time>2010-05-13T14:56:44Z</time>
      </trkpt>
      <trkpt lat="48.73998" lon="1.76362">
        <ele>158</ele>
        <time>2010-05-13T14:56:44Z</time>
      </trkpt>
      <trkpt lat="48.73996" lon="1.76363">
        <ele>158</ele>
        <time>2010-05-13T14:56:46Z</time>
      </trkpt>
      <trkpt lat="48.73994" lon="1.76364">
        <ele>158</ele>
        <time>2010-05-13T14:56:49Z</time>
      </trkpt>
      <trkpt lat="48.73992" lon="1.76366">
        <ele>158</ele>
        <time>2010-05-13T14:56:50Z</time>
      </trkpt>
      <trkpt lat="48.73991" lon="1.76366">
        <ele>158</ele>
        <time>2010-05-13T14:56:51Z</time>
      </trkpt>
      <trkpt lat="48.73989" lon="1.76367">
        <ele>158</ele>
        <time>2010-05-13T14:56:54Z</time>
      </trkpt>
      <trkpt lat="48.73987" lon="1.76367">
        <ele>158</ele>
        <time>2010-05-13T14:56:55Z</time>
      </trkpt>
      <trkpt lat="48.73986" lon="1.76366">
        <ele>158</ele>
        <time>2010-05-13T14:56:57Z</time>
      </trkpt>
      <trkpt lat="48.73984" lon="1.76366">
        <ele>158</ele>
        <time>2010-05-13T14:56:59Z</time>
      </trkpt>
      <trkpt lat="48.73983" lon="1.76366">
        <ele>158</ele>
        <time>2010-05-13T14:57:01Z</time>
      </trkpt>
      <trkpt lat="48.73982" lon="1.76367">
        <ele>160</ele>
        <time>2010-05-13T14:57:09Z</time>
      </trkpt>
      <trkpt lat="48.7398" lon="1.76366">
        <ele>160</ele>
        <time>2010-05-13T14:57:19Z</time>
      </trkpt>
      <trkpt lat="48.73978" lon="1.76364">
        <ele>160</ele>
        <time>2010-05-13T14:57:20Z</time>
      </trkpt>
      <trkpt lat="48.73977" lon="1.76364">
        <ele>160</ele>
        <time>2010-05-13T14:57:22Z</time>
      </trkpt>
      <trkpt lat="48.73976" lon="1.76364">
        <ele>160</ele>
        <time>2010-05-13T14:57:25Z</time>
      </trkpt>
      <trkpt lat="48.73976" lon="1.76361">
        <ele>160</ele>
        <time>2010-05-13T14:57:29Z</time>
      </trkpt>
      <trkpt lat="48.73976" lon="1.76358">
        <ele>162</ele>
        <time>2010-05-13T14:57:31Z</time>
      </trkpt>
      <trkpt lat="48.73975" lon="1.76356">
        <ele>164</ele>
        <time>2010-05-13T14:57:34Z</time>
      </trkpt>
      <trkpt lat="48.73974" lon="1.76355">
        <ele>165</ele>
        <time>2010-05-13T14:57:34Z</time>
      </trkpt>
      <trkpt lat="48.73974" lon="1.76353">
        <ele>166</ele>
        <time>2010-05-13T14:57:35Z</time>
      </trkpt>
      <trkpt lat="48.73974" lon="1.76351">
        <ele>167</ele>
        <time>2010-05-13T14:57:36Z</time>
      </trkpt>
      <trkpt lat="48.73974" lon="1.76349">
        <ele>168</ele>
        <time>2010-05-13T14:57:37Z</time>
      </trkpt>
      <trkpt lat="48.73973" lon="1.7635">
        <ele>171</ele>
        <time>2010-05-13T14:57:41Z</time>
      </trkpt>
      <trkpt lat="48.73971" lon="1.76351">
        <ele>171</ele>
        <time>2010-05-13T14:57:44Z</time>
      </trkpt>
      <trkpt lat="48.73971" lon="1.76354">
        <ele>171</ele>
        <time>2010-05-13T14:57:45Z</time>
      </trkpt>
      <trkpt lat="48.7397" lon="1.76357">
        <ele>171</ele>
        <time>2010-05-13T14:57:47Z</time>
      </trkpt>
      <trkpt lat="48.73969" lon="1.7636">
        <ele>171</ele>
        <time>2010-05-13T14:57:49Z</time>
      </trkpt>
      <trkpt lat="48.73968" lon="1.76362">
        <ele>171</ele>
        <time>2010-05-13T14:57:51Z</time>
      </trkpt>
      <trkpt lat="48.73967" lon="1.76363">
        <ele>171</ele>
        <time>2010-05-13T14:57:52Z</time>
      </trkpt>
      <trkpt lat="48.73966" lon="1.76363">
        <ele>171</ele>
        <time>2010-05-13T14:57:54Z</time>
      </trkpt>
      <trkpt lat="48.73964" lon="1.76363">
        <ele>171</ele>
        <time>2010-05-13T14:57:56Z</time>
      </trkpt>
      <trkpt lat="48.73963" lon="1.76364">
        <ele>171</ele>
        <time>2010-05-13T14:57:59Z</time>
      </trkpt>
      <trkpt lat="48.73962" lon="1.76362">
        <ele>171</ele>
        <time>2010-05-13T14:57:59Z</time>
      </trkpt>
      <trkpt lat="48.73961" lon="1.76363">
        <ele>171</ele>
        <time>2010-05-13T14:58:00Z</time>
      </trkpt>
      <trkpt lat="48.7396" lon="1.76363">
        <ele>171</ele>
        <time>2010-05-13T14:58:01Z</time>
      </trkpt>
      <trkpt lat="48.73958" lon="1.76363">
        <ele>171</ele>
        <time>2010-05-13T14:58:02Z</time>
      </trkpt>
      <trkpt lat="48.73957" lon="1.76364">
        <ele>171</ele>
        <time>2010-05-13T14:58:04Z</time>
      </trkpt>
      <trkpt lat="48.73955" lon="1.76364">
        <ele>171</ele>
        <time>2010-05-13T14:58:06Z</time>
      </trkpt>
      <trkpt lat="48.73953" lon="1.76363">
        <ele>171</ele>
        <time>2010-05-13T14:58:09Z</time>
      </trkpt>
      <trkpt lat="48.73951" lon="1.76364">
        <ele>171</ele>
        <time>2010-05-13T14:58:10Z</time>
      </trkpt>
      <trkpt lat="48.73949" lon="1.76365">
        <ele>171</ele>
        <time>2010-05-13T14:58:12Z</time>
      </trkpt>
      <trkpt lat="48.73947" lon="1.76366">
        <ele>171</ele>
        <time>2010-05-13T14:58:14Z</time>
      </trkpt>
      <trkpt lat="48.73945" lon="1.76367">
        <ele>171</ele>
        <time>2010-05-13T14:58:16Z</time>
      </trkpt>
      <trkpt lat="48.73943" lon="1.76367">
        <ele>171</ele>
        <time>2010-05-13T14:58:19Z</time>
      </trkpt>
      <trkpt lat="48.73942" lon="1.76367">
        <ele>171</ele>
        <time>2010-05-13T14:58:19Z</time>
      </trkpt>
      <trkpt lat="48.7394" lon="1.76368">
        <ele>171</ele>
        <time>2010-05-13T14:58:20Z</time>
      </trkpt>
      <trkpt lat="48.73938" lon="1.76368">
        <ele>171</ele>
        <time>2010-05-13T14:58:21Z</time>
      </trkpt>
      <trkpt lat="48.73935" lon="1.76368">
        <ele>171</ele>
        <time>2010-05-13T14:58:22Z</time>
      </trkpt>
      <trkpt lat="48.73932" lon="1.76369">
        <ele>171</ele>
        <time>2010-05-13T14:58:24Z</time>
      </trkpt>
      <trkpt lat="48.7393" lon="1.76369">
        <ele>171</ele>
        <time>2010-05-13T14:58:24Z</time>
      </trkpt>
      <trkpt lat="48.73928" lon="1.7637">
        <ele>171</ele>
        <time>2010-05-13T14:58:25Z</time>
      </trkpt>
      <trkpt lat="48.73926" lon="1.76371">
        <ele>171</ele>
        <time>2010-05-13T14:58:26Z</time>
      </trkpt>
      <trkpt lat="48.73924" lon="1.76372">
        <ele>171</ele>
        <time>2010-05-13T14:58:27Z</time>
      </trkpt>
      <trkpt lat="48.73923" lon="1.76373">
        <ele>171</ele>
        <time>2010-05-13T14:58:29Z</time>
      </trkpt>
      <trkpt lat="48.73921" lon="1.76375">
        <ele>171</ele>
        <time>2010-05-13T14:58:29Z</time>
      </trkpt>
      <trkpt lat="48.73919" lon="1.76376">
        <ele>171</ele>
        <time>2010-05-13T14:58:30Z</time>
      </trkpt>
      <trkpt lat="48.73917" lon="1.76377">
        <ele>171</ele>
        <time>2010-05-13T14:58:31Z</time>
      </trkpt>
      <trkpt lat="48.73915" lon="1.76378">
        <ele>171</ele>
        <time>2010-05-13T14:58:32Z</time>
      </trkpt>
      <trkpt lat="48.73913" lon="1.76379">
        <ele>170</ele>
        <time>2010-05-13T14:58:34Z</time>
      </trkpt>
      <trkpt lat="48.73911" lon="1.7638">
        <ele>170</ele>
        <time>2010-05-13T14:58:34Z</time>
      </trkpt>
      <trkpt lat="48.73909" lon="1.76381">
        <ele>169</ele>
        <time>2010-05-13T14:58:35Z</time>
      </trkpt>
      <trkpt lat="48.73906" lon="1.76382">
        <ele>168</ele>
        <time>2010-05-13T14:58:36Z</time>
      </trkpt>
      <trkpt lat="48.73904" lon="1.76383">
        <ele>168</ele>
        <time>2010-05-13T14:58:37Z</time>
      </trkpt>
      <trkpt lat="48.73901" lon="1.76384">
        <ele>167</ele>
        <time>2010-05-13T14:58:39Z</time>
      </trkpt>
      <trkpt lat="48.73899" lon="1.76385">
        <ele>167</ele>
        <time>2010-05-13T14:58:39Z</time>
      </trkpt>
      <trkpt lat="48.73896" lon="1.76386">
        <ele>166</ele>
        <time>2010-05-13T14:58:40Z</time>
      </trkpt>
      <trkpt lat="48.73893" lon="1.76387">
        <ele>166</ele>
        <time>2010-05-13T14:58:41Z</time>
      </trkpt>
      <trkpt lat="48.73891" lon="1.76388">
        <ele>165</ele>
        <time>2010-05-13T14:58:42Z</time>
      </trkpt>
      <trkpt lat="48.73888" lon="1.76388">
        <ele>164</ele>
        <time>2010-05-13T14:58:44Z</time>
      </trkpt>
      <trkpt lat="48.73885" lon="1.76388">
        <ele>164</ele>
        <time>2010-05-13T14:58:44Z</time>
      </trkpt>
      <trkpt lat="48.73882" lon="1.76389">
        <ele>164</ele>
        <time>2010-05-13T14:58:45Z</time>
      </trkpt>
      <trkpt lat="48.73879" lon="1.7639">
        <ele>163</ele>
        <time>2010-05-13T14:58:46Z</time>
      </trkpt>
      <trkpt lat="48.73876" lon="1.76392">
        <ele>162</ele>
        <time>2010-05-13T14:58:47Z</time>
      </trkpt>
      <trkpt lat="48.73872" lon="1.76391">
        <ele>162</ele>
        <time>2010-05-13T14:58:49Z</time>
      </trkpt>
      <trkpt lat="48.73869" lon="1.76393">
        <ele>161</ele>
        <time>2010-05-13T14:58:49Z</time>
      </trkpt>
      <trkpt lat="48.73866" lon="1.76394">
        <ele>161</ele>
        <time>2010-05-13T14:58:50Z</time>
      </trkpt>
      <trkpt lat="48.73863" lon="1.76396">
        <ele>160</ele>
        <time>2010-05-13T14:58:51Z</time>
      </trkpt>
      <trkpt lat="48.7386" lon="1.76397">
        <ele>160</ele>
        <time>2010-05-13T14:58:52Z</time>
      </trkpt>
      <trkpt lat="48.73857" lon="1.76399">
        <ele>159</ele>
        <time>2010-05-13T14:58:54Z</time>
      </trkpt>
      <trkpt lat="48.73855" lon="1.764">
        <ele>159</ele>
        <time>2010-05-13T14:58:54Z</time>
      </trkpt>
      <trkpt lat="48.73852" lon="1.76401">
        <ele>159</ele>
        <time>2010-05-13T14:58:55Z</time>
      </trkpt>
      <trkpt lat="48.7385" lon="1.76401">
        <ele>159</ele>
        <time>2010-05-13T14:58:56Z</time>
      </trkpt>
      <trkpt lat="48.73848" lon="1.76402">
        <ele>159</ele>
        <time>2010-05-13T14:58:57Z</time>
      </trkpt>
      <trkpt lat="48.73844" lon="1.76402">
        <ele>159</ele>
        <time>2010-05-13T14:58:59Z</time>
      </trkpt>
      <trkpt lat="48.73842" lon="1.76401">
        <ele>159</ele>
        <time>2010-05-13T14:58:59Z</time>
      </trkpt>
      <trkpt lat="48.73839" lon="1.76401">
        <ele>159</ele>
        <time>2010-05-13T14:59:00Z</time>
      </trkpt>
      <trkpt lat="48.73837" lon="1.764">
        <ele>159</ele>
        <time>2010-05-13T14:59:01Z</time>
      </trkpt>
      <trkpt lat="48.73835" lon="1.764">
        <ele>159</ele>
        <time>2010-05-13T14:59:02Z</time>
      </trkpt>
      <trkpt lat="48.73833" lon="1.76399">
        <ele>159</ele>
        <time>2010-05-13T14:59:04Z</time>
      </trkpt>
      <trkpt lat="48.73831" lon="1.76398">
        <ele>159</ele>
        <time>2010-05-13T14:59:04Z</time>
      </trkpt>
      <trkpt lat="48.73829" lon="1.76395">
        <ele>158</ele>
        <time>2010-05-13T14:59:05Z</time>
      </trkpt>
      <trkpt lat="48.73827" lon="1.76392">
        <ele>158</ele>
        <time>2010-05-13T14:59:06Z</time>
      </trkpt>
      <trkpt lat="48.73824" lon="1.7639">
        <ele>158</ele>
        <time>2010-05-13T14:59:07Z</time>
      </trkpt>
      <trkpt lat="48.73823" lon="1.76387">
        <ele>158</ele>
        <time>2010-05-13T14:59:09Z</time>
      </trkpt>
      <trkpt lat="48.73821" lon="1.76384">
        <ele>158</ele>
        <time>2010-05-13T14:59:09Z</time>
      </trkpt>
      <trkpt lat="48.7382" lon="1.7638">
        <ele>158</ele>
        <time>2010-05-13T14:59:10Z</time>
      </trkpt>
      <trkpt lat="48.73819" lon="1.76376">
        <ele>158</ele>
        <time>2010-05-13T14:59:11Z</time>
      </trkpt>
      <trkpt lat="48.73818" lon="1.76372">
        <ele>158</ele>
        <time>2010-05-13T14:59:12Z</time>
      </trkpt>
      <trkpt lat="48.73819" lon="1.76368">
        <ele>158</ele>
        <time>2010-05-13T14:59:14Z</time>
      </trkpt>
      <trkpt lat="48.7382" lon="1.76363">
        <ele>158</ele>
        <time>2010-05-13T14:59:14Z</time>
      </trkpt>
      <trkpt lat="48.7382" lon="1.76357">
        <ele>158</ele>
        <time>2010-05-13T14:59:15Z</time>
      </trkpt>
      <trkpt lat="48.7382" lon="1.76347">
        <ele>158</ele>
        <time>2010-05-13T14:59:16Z</time>
      </trkpt>
      <trkpt lat="48.7382" lon="1.76337">
        <ele>158</ele>
        <time>2010-05-13T14:59:17Z</time>
      </trkpt>
      <trkpt lat="48.7382" lon="1.76329">
        <ele>158</ele>
        <time>2010-05-13T14:59:19Z</time>
      </trkpt>
      <trkpt lat="48.73821" lon="1.7632">
        <ele>158</ele>
        <time>2010-05-13T14:59:19Z</time>
      </trkpt>
      <trkpt lat="48.73823" lon="1.76309">
        <ele>159</ele>
        <time>2010-05-13T14:59:20Z</time>
      </trkpt>
      <trkpt lat="48.73824" lon="1.76298">
        <ele>160</ele>
        <time>2010-05-13T14:59:21Z</time>
      </trkpt>
      <trkpt lat="48.73826" lon="1.76287">
        <ele>161</ele>
        <time>2010-05-13T14:59:22Z</time>
      </trkpt>
      <trkpt lat="48.73827" lon="1.76277">
        <ele>162</ele>
        <time>2010-05-13T14:59:24Z</time>
      </trkpt>
      <trkpt lat="48.73829" lon="1.76266">
        <ele>163</ele>
        <time>2010-05-13T14:59:24Z</time>
      </trkpt>
      <trkpt lat="48.73831" lon="1.76255">
        <ele>164</ele>
        <time>2010-05-13T14:59:25Z</time>
      </trkpt>
      <trkpt lat="48.73833" lon="1.76245">
        <ele>165</ele>
        <time>2010-05-13T14:59:26Z</time>
      </trkpt>
      <trkpt lat="48.73835" lon="1.76234">
        <ele>166</ele>
        <time>2010-05-13T14:59:27Z</time>
      </trkpt>
      <trkpt lat="48.73837" lon="1.76224">
        <ele>167</ele>
        <time>2010-05-13T14:59:29Z</time>
      </trkpt>
      <trkpt lat="48.73838" lon="1.76213">
        <ele>168</ele>
        <time>2010-05-13T14:59:29Z</time>
      </trkpt>
      <trkpt lat="48.7384" lon="1.76203">
        <ele>168</ele>
        <time>2010-05-13T14:59:30Z</time>
      </trkpt>
      <trkpt lat="48.73842" lon="1.76193">
        <ele>168</ele>
        <time>2010-05-13T14:59:31Z</time>
      </trkpt>
      <trkpt lat="48.73844" lon="1.76183">
        <ele>168</ele>
        <time>2010-05-13T14:59:32Z</time>
      </trkpt>
      <trkpt lat="48.73847" lon="1.76173">
        <ele>169</ele>
        <time>2010-05-13T14:59:34Z</time>
      </trkpt>
      <trkpt lat="48.73849" lon="1.76163">
        <ele>169</ele>
        <time>2010-05-13T14:59:34Z</time>
      </trkpt>
      <trkpt lat="48.73851" lon="1.76153">
        <ele>169</ele>
        <time>2010-05-13T14:59:35Z</time>
      </trkpt>
      <trkpt lat="48.73852" lon="1.76142">
        <ele>169</ele>
        <time>2010-05-13T14:59:36Z</time>
      </trkpt>
      <trkpt lat="48.73854" lon="1.76132">
        <ele>170</ele>
        <time>2010-05-13T14:59:37Z</time>
      </trkpt>
      <trkpt lat="48.73856" lon="1.76121">
        <ele>170</ele>
        <time>2010-05-13T14:59:39Z</time>
      </trkpt>
      <trkpt lat="48.73858" lon="1.7611">
        <ele>170</ele>
        <time>2010-05-13T14:59:39Z</time>
      </trkpt>
      <trkpt lat="48.7386" lon="1.761">
        <ele>170</ele>
        <time>2010-05-13T14:59:40Z</time>
      </trkpt>
      <trkpt lat="48.73862" lon="1.76089">
        <ele>170</ele>
        <time>2010-05-13T14:59:41Z</time>
      </trkpt>
      <trkpt lat="48.73865" lon="1.76078">
        <ele>170</ele>
        <time>2010-05-13T14:59:42Z</time>
      </trkpt>
      <trkpt lat="48.73867" lon="1.76067">
        <ele>170</ele>
        <time>2010-05-13T14:59:44Z</time>
      </trkpt>
      <trkpt lat="48.73869" lon="1.76056">
        <ele>170</ele>
        <time>2010-05-13T14:59:44Z</time>
      </trkpt>
      <trkpt lat="48.73872" lon="1.76046">
        <ele>171</ele>
        <time>2010-05-13T14:59:45Z</time>
      </trkpt>
      <trkpt lat="48.73874" lon="1.76036">
        <ele>171</ele>
        <time>2010-05-13T14:59:46Z</time>
      </trkpt>
      <trkpt lat="48.73875" lon="1.76026">
        <ele>171</ele>
        <time>2010-05-13T14:59:47Z</time>
      </trkpt>
      <trkpt lat="48.73875" lon="1.76017">
        <ele>171</ele>
        <time>2010-05-13T14:59:49Z</time>
      </trkpt>
      <trkpt lat="48.73876" lon="1.76009">
        <ele>172</ele>
        <time>2010-05-13T14:59:49Z</time>
      </trkpt>
      <trkpt lat="48.73878" lon="1.76">
        <ele>172</ele>
        <time>2010-05-13T14:59:50Z</time>
      </trkpt>
      <trkpt lat="48.7388" lon="1.7599">
        <ele>172</ele>
        <time>2010-05-13T14:59:51Z</time>
      </trkpt>
      <trkpt lat="48.73881" lon="1.7598">
        <ele>172</ele>
        <time>2010-05-13T14:59:52Z</time>
      </trkpt>
      <trkpt lat="48.73886" lon="1.75969">
        <ele>172</ele>
        <time>2010-05-13T14:59:54Z</time>
      </trkpt>
      <trkpt lat="48.7389" lon="1.75957">
        <ele>172</ele>
        <time>2010-05-13T14:59:54Z</time>
      </trkpt>
      <trkpt lat="48.73893" lon="1.75945">
        <ele>172</ele>
        <time>2010-05-13T14:59:55Z</time>
      </trkpt>
      <trkpt lat="48.73895" lon="1.75934">
        <ele>172</ele>
        <time>2010-05-13T14:59:56Z</time>
      </trkpt>
      <trkpt lat="48.73897" lon="1.75922">
        <ele>172</ele>
        <time>2010-05-13T14:59:57Z</time>
      </trkpt>
      <trkpt lat="48.73901" lon="1.7591">
        <ele>173</ele>
        <time>2010-05-13T14:59:59Z</time>
      </trkpt>
      <trkpt lat="48.73903" lon="1.75896">
        <ele>173</ele>
        <time>2010-05-13T14:59:59Z</time>
      </trkpt>
      <trkpt lat="48.73906" lon="1.75883">
        <ele>174</ele>
        <time>2010-05-13T15:00:00Z</time>
      </trkpt>
      <trkpt lat="48.73908" lon="1.75869">
        <ele>174</ele>
        <time>2010-05-13T15:00:01Z</time>
      </trkpt>
      <trkpt lat="48.73911" lon="1.75855">
        <ele>175</ele>
        <time>2010-05-13T15:00:02Z</time>
      </trkpt>
      <trkpt lat="48.73913" lon="1.75843">
        <ele>175</ele>
        <time>2010-05-13T15:00:04Z</time>
      </trkpt>
      <trkpt lat="48.73914" lon="1.75831">
        <ele>175</ele>
        <time>2010-05-13T15:00:04Z</time>
      </trkpt>
      <trkpt lat="48.73916" lon="1.7582">
        <ele>175</ele>
        <time>2010-05-13T15:00:05Z</time>
      </trkpt>
      <trkpt lat="48.73917" lon="1.75809">
        <ele>175</ele>
        <time>2010-05-13T15:00:06Z</time>
      </trkpt>
      <trkpt lat="48.73919" lon="1.75797">
        <ele>175</ele>
        <time>2010-05-13T15:00:07Z</time>
      </trkpt>
      <trkpt lat="48.7392" lon="1.75786">
        <ele>175</ele>
        <time>2010-05-13T15:00:09Z</time>
      </trkpt>
      <trkpt lat="48.73922" lon="1.75776">
        <ele>175</ele>
        <time>2010-05-13T15:00:09Z</time>
      </trkpt>
      <trkpt lat="48.73924" lon="1.75765">
        <ele>175</ele>
        <time>2010-05-13T15:00:10Z</time>
      </trkpt>
      <trkpt lat="48.73926" lon="1.75755">
        <ele>175</ele>
        <time>2010-05-13T15:00:11Z</time>
      </trkpt>
      <trkpt lat="48.73929" lon="1.75745">
        <ele>175</ele>
        <time>2010-05-13T15:00:12Z</time>
      </trkpt>
      <trkpt lat="48.73932" lon="1.75735">
        <ele>175</ele>
        <time>2010-05-13T15:00:14Z</time>
      </trkpt>
      <trkpt lat="48.73934" lon="1.75725">
        <ele>175</ele>
        <time>2010-05-13T15:00:14Z</time>
      </trkpt>
      <trkpt lat="48.73937" lon="1.75716">
        <ele>175</ele>
        <time>2010-05-13T15:00:15Z</time>
      </trkpt>
      <trkpt lat="48.73939" lon="1.75707">
        <ele>175</ele>
        <time>2010-05-13T15:00:16Z</time>
      </trkpt>
      <trkpt lat="48.73941" lon="1.75699">
        <ele>175</ele>
        <time>2010-05-13T15:00:17Z</time>
      </trkpt>
      <trkpt lat="48.73943" lon="1.7569">
        <ele>175</ele>
        <time>2010-05-13T15:00:19Z</time>
      </trkpt>
      <trkpt lat="48.73945" lon="1.75683">
        <ele>175</ele>
        <time>2010-05-13T15:00:19Z</time>
      </trkpt>
      <trkpt lat="48.73947" lon="1.75675">
        <ele>175</ele>
        <time>2010-05-13T15:00:20Z</time>
      </trkpt>
      <trkpt lat="48.73948" lon="1.75667">
        <ele>175</ele>
        <time>2010-05-13T15:00:21Z</time>
      </trkpt>
      <trkpt lat="48.73949" lon="1.7566">
        <ele>175</ele>
        <time>2010-05-13T15:00:22Z</time>
      </trkpt>
      <trkpt lat="48.73949" lon="1.75654">
        <ele>175</ele>
        <time>2010-05-13T15:00:24Z</time>
      </trkpt>
      <trkpt lat="48.73948" lon="1.75647">
        <ele>175</ele>
        <time>2010-05-13T15:00:24Z</time>
      </trkpt>
      <trkpt lat="48.73946" lon="1.75642">
        <ele>175</ele>
        <time>2010-05-13T15:00:25Z</time>
      </trkpt>
      <trkpt lat="48.73943" lon="1.75636">
        <ele>175</ele>
        <time>2010-05-13T15:00:26Z</time>
      </trkpt>
      <trkpt lat="48.7394" lon="1.75632">
        <ele>175</ele>
        <time>2010-05-13T15:00:27Z</time>
      </trkpt>
      <trkpt lat="48.73935" lon="1.75629">
        <ele>175</ele>
        <time>2010-05-13T15:00:29Z</time>
      </trkpt>
      <trkpt lat="48.7393" lon="1.75627">
        <ele>175</ele>
        <time>2010-05-13T15:00:29Z</time>
      </trkpt>
      <trkpt lat="48.73924" lon="1.75626">
        <ele>174</ele>
        <time>2010-05-13T15:00:30Z</time>
      </trkpt>
      <trkpt lat="48.73919" lon="1.75625">
        <ele>174</ele>
        <time>2010-05-13T15:00:31Z</time>
      </trkpt>
      <trkpt lat="48.73914" lon="1.75624">
        <ele>173</ele>
        <time>2010-05-13T15:00:32Z</time>
      </trkpt>
      <trkpt lat="48.73909" lon="1.75622">
        <ele>173</ele>
        <time>2010-05-13T15:00:34Z</time>
      </trkpt>
      <trkpt lat="48.73905" lon="1.75621">
        <ele>172</ele>
        <time>2010-05-13T15:00:34Z</time>
      </trkpt>
      <trkpt lat="48.73901" lon="1.75621">
        <ele>171</ele>
        <time>2010-05-13T15:00:35Z</time>
      </trkpt>
      <trkpt lat="48.73897" lon="1.7562">
        <ele>170</ele>
        <time>2010-05-13T15:00:36Z</time>
      </trkpt>
      <trkpt lat="48.73894" lon="1.75619">
        <ele>170</ele>
        <time>2010-05-13T15:00:37Z</time>
      </trkpt>
      <trkpt lat="48.73891" lon="1.75618">
        <ele>169</ele>
        <time>2010-05-13T15:00:39Z</time>
      </trkpt>
      <trkpt lat="48.73889" lon="1.75618">
        <ele>169</ele>
        <time>2010-05-13T15:00:39Z</time>
      </trkpt>
      <trkpt lat="48.73887" lon="1.75617">
        <ele>168</ele>
        <time>2010-05-13T15:00:40Z</time>
      </trkpt>
      <trkpt lat="48.73885" lon="1.75617">
        <ele>168</ele>
        <time>2010-05-13T15:00:41Z</time>
      </trkpt>
      <trkpt lat="48.73884" lon="1.75618">
        <ele>168</ele>
        <time>2010-05-13T15:00:42Z</time>
      </trkpt>
      <trkpt lat="48.73882" lon="1.75617">
        <ele>167</ele>
        <time>2010-05-13T15:00:44Z</time>
      </trkpt>
      <trkpt lat="48.7388" lon="1.75617">
        <ele>167</ele>
        <time>2010-05-13T15:00:44Z</time>
      </trkpt>
      <trkpt lat="48.73878" lon="1.75617">
        <ele>167</ele>
        <time>2010-05-13T15:00:45Z</time>
      </trkpt>
      <trkpt lat="48.73877" lon="1.75617">
        <ele>166</ele>
        <time>2010-05-13T15:00:46Z</time>
      </trkpt>
      <trkpt lat="48.73875" lon="1.75616">
        <ele>166</ele>
        <time>2010-05-13T15:00:47Z</time>
      </trkpt>
      <trkpt lat="48.73874" lon="1.75616">
        <ele>166</ele>
        <time>2010-05-13T15:00:49Z</time>
      </trkpt>
      <trkpt lat="48.73872" lon="1.75615">
        <ele>166</ele>
        <time>2010-05-13T15:00:49Z</time>
      </trkpt>
      <trkpt lat="48.73871" lon="1.75614">
        <ele>166</ele>
        <time>2010-05-13T15:00:50Z</time>
      </trkpt>
      <trkpt lat="48.73869" lon="1.75613">
        <ele>166</ele>
        <time>2010-05-13T15:00:51Z</time>
      </trkpt>
      <trkpt lat="48.73868" lon="1.75613">
        <ele>166</ele>
        <time>2010-05-13T15:00:52Z</time>
      </trkpt>
      <trkpt lat="48.73867" lon="1.75613">
        <ele>166</ele>
        <time>2010-05-13T15:00:54Z</time>
      </trkpt>
      <trkpt lat="48.73866" lon="1.75612">
        <ele>166</ele>
        <time>2010-05-13T15:00:54Z</time>
      </trkpt>
      <trkpt lat="48.73865" lon="1.75611">
        <ele>166</ele>
        <time>2010-05-13T15:00:55Z</time>
      </trkpt>
      <trkpt lat="48.73863" lon="1.7561">
        <ele>166</ele>
        <time>2010-05-13T15:00:56Z</time>
      </trkpt>
      <trkpt lat="48.73862" lon="1.75609">
        <ele>166</ele>
        <time>2010-05-13T15:00:57Z</time>
      </trkpt>
      <trkpt lat="48.7386" lon="1.75608">
        <ele>166</ele>
        <time>2010-05-13T15:00:59Z</time>
      </trkpt>
      <trkpt lat="48.73859" lon="1.75607">
        <ele>165</ele>
        <time>2010-05-13T15:00:59Z</time>
      </trkpt>
      <trkpt lat="48.73858" lon="1.75606">
        <ele>165</ele>
        <time>2010-05-13T15:01:00Z</time>
      </trkpt>
      <trkpt lat="48.73856" lon="1.75606">
        <ele>165</ele>
        <time>2010-05-13T15:01:01Z</time>
      </trkpt>
      <trkpt lat="48.73855" lon="1.75606">
        <ele>165</ele>
        <time>2010-05-13T15:01:02Z</time>
      </trkpt>
      <trkpt lat="48.73853" lon="1.75605">
        <ele>165</ele>
        <time>2010-05-13T15:01:04Z</time>
      </trkpt>
      <trkpt lat="48.73852" lon="1.75605">
        <ele>165</ele>
        <time>2010-05-13T15:01:04Z</time>
      </trkpt>
      <trkpt lat="48.7385" lon="1.75605">
        <ele>165</ele>
        <time>2010-05-13T15:01:05Z</time>
      </trkpt>
      <trkpt lat="48.73849" lon="1.75605">
        <ele>165</ele>
        <time>2010-05-13T15:01:06Z</time>
      </trkpt>
      <trkpt lat="48.73847" lon="1.75604">
        <ele>165</ele>
        <time>2010-05-13T15:01:07Z</time>
      </trkpt>
      <trkpt lat="48.73846" lon="1.75604">
        <ele>165</ele>
        <time>2010-05-13T15:01:09Z</time>
      </trkpt>
      <trkpt lat="48.73845" lon="1.75603">
        <ele>165</ele>
        <time>2010-05-13T15:01:09Z</time>
      </trkpt>
      <trkpt lat="48.73843" lon="1.75602">
        <ele>165</ele>
        <time>2010-05-13T15:01:10Z</time>
      </trkpt>
      <trkpt lat="48.73842" lon="1.75602">
        <ele>165</ele>
        <time>2010-05-13T15:01:11Z</time>
      </trkpt>
      <trkpt lat="48.73841" lon="1.75602">
        <ele>165</ele>
        <time>2010-05-13T15:01:12Z</time>
      </trkpt>
      <trkpt lat="48.7384" lon="1.75602">
        <ele>165</ele>
        <time>2010-05-13T15:01:14Z</time>
      </trkpt>
      <trkpt lat="48.73838" lon="1.75602">
        <ele>165</ele>
        <time>2010-05-13T15:01:14Z</time>
      </trkpt>
      <trkpt lat="48.73837" lon="1.75601">
        <ele>165</ele>
        <time>2010-05-13T15:01:15Z</time>
      </trkpt>
      <trkpt lat="48.73835" lon="1.756">
        <ele>165</ele>
        <time>2010-05-13T15:01:17Z</time>
      </trkpt>
      <trkpt lat="48.73834" lon="1.75599">
        <ele>165</ele>
        <time>2010-05-13T15:01:22Z</time>
      </trkpt>
      <trkpt lat="48.73832" lon="1.75598">
        <ele>165</ele>
        <time>2010-05-13T15:01:24Z</time>
      </trkpt>
      <trkpt lat="48.73831" lon="1.75598">
        <ele>165</ele>
        <time>2010-05-13T15:01:25Z</time>
      </trkpt>
      <trkpt lat="48.73829" lon="1.75598">
        <ele>165</ele>
        <time>2010-05-13T15:01:26Z</time>
      </trkpt>
      <trkpt lat="48.73827" lon="1.75597">
        <ele>165</ele>
        <time>2010-05-13T15:01:29Z</time>
      </trkpt>
      <trkpt lat="48.73826" lon="1.75597">
        <ele>165</ele>
        <time>2010-05-13T15:01:29Z</time>
      </trkpt>
      <trkpt lat="48.73824" lon="1.75597">
        <ele>165</ele>
        <time>2010-05-13T15:01:30Z</time>
      </trkpt>
      <trkpt lat="48.73823" lon="1.75596">
        <ele>165</ele>
        <time>2010-05-13T15:01:31Z</time>
      </trkpt>
      <trkpt lat="48.73822" lon="1.75596">
        <ele>165</ele>
        <time>2010-05-13T15:01:32Z</time>
      </trkpt>
      <trkpt lat="48.7382" lon="1.75596">
        <ele>165</ele>
        <time>2010-05-13T15:01:34Z</time>
      </trkpt>
      <trkpt lat="48.73819" lon="1.75595">
        <ele>165</ele>
        <time>2010-05-13T15:01:34Z</time>
      </trkpt>
      <trkpt lat="48.73818" lon="1.75595">
        <ele>165</ele>
        <time>2010-05-13T15:01:35Z</time>
      </trkpt>
      <trkpt lat="48.73816" lon="1.75594">
        <ele>165</ele>
        <time>2010-05-13T15:01:36Z</time>
      </trkpt>
      <trkpt lat="48.73815" lon="1.75593">
        <ele>165</ele>
        <time>2010-05-13T15:01:37Z</time>
      </trkpt>
      <trkpt lat="48.73813" lon="1.75593">
        <ele>165</ele>
        <time>2010-05-13T15:01:39Z</time>
      </trkpt>
      <trkpt lat="48.73812" lon="1.75592">
        <ele>165</ele>
        <time>2010-05-13T15:01:39Z</time>
      </trkpt>
      <trkpt lat="48.73811" lon="1.75592">
        <ele>165</ele>
        <time>2010-05-13T15:01:40Z</time>
      </trkpt>
      <trkpt lat="48.7381" lon="1.75592">
        <ele>165</ele>
        <time>2010-05-13T15:01:41Z</time>
      </trkpt>
      <trkpt lat="48.73808" lon="1.75591">
        <ele>165</ele>
        <time>2010-05-13T15:01:42Z</time>
      </trkpt>
      <trkpt lat="48.73807" lon="1.75591">
        <ele>165</ele>
        <time>2010-05-13T15:01:44Z</time>
      </trkpt>
      <trkpt lat="48.73806" lon="1.75591">
        <ele>165</ele>
        <time>2010-05-13T15:01:44Z</time>
      </trkpt>
      <trkpt lat="48.73805" lon="1.75591">
        <ele>165</ele>
        <time>2010-05-13T15:01:45Z</time>
      </trkpt>
      <trkpt lat="48.73803" lon="1.75591">
        <ele>165</ele>
        <time>2010-05-13T15:01:47Z</time>
      </trkpt>
      <trkpt lat="48.73801" lon="1.7559">
        <ele>164</ele>
        <time>2010-05-13T15:01:49Z</time>
      </trkpt>
      <trkpt lat="48.73799" lon="1.75589">
        <ele>164</ele>
        <time>2010-05-13T15:01:50Z</time>
      </trkpt>
      <trkpt lat="48.73798" lon="1.75588">
        <ele>164</ele>
        <time>2010-05-13T15:01:51Z</time>
      </trkpt>
      <trkpt lat="48.73797" lon="1.75586">
        <ele>164</ele>
        <time>2010-05-13T15:01:52Z</time>
      </trkpt>
      <trkpt lat="48.73796" lon="1.75586">
        <ele>164</ele>
        <time>2010-05-13T15:01:54Z</time>
      </trkpt>
      <trkpt lat="48.73794" lon="1.75585">
        <ele>164</ele>
        <time>2010-05-13T15:01:54Z</time>
      </trkpt>
      <trkpt lat="48.73793" lon="1.75586">
        <ele>163</ele>
        <time>2010-05-13T15:01:55Z</time>
      </trkpt>
      <trkpt lat="48.73791" lon="1.75586">
        <ele>163</ele>
        <time>2010-05-13T15:01:57Z</time>
      </trkpt>
      <trkpt lat="48.7379" lon="1.75586">
        <ele>163</ele>
        <time>2010-05-13T15:01:59Z</time>
      </trkpt>
      <trkpt lat="48.73788" lon="1.75585">
        <ele>163</ele>
        <time>2010-05-13T15:01:59Z</time>
      </trkpt>
      <trkpt lat="48.73787" lon="1.75585">
        <ele>163</ele>
        <time>2010-05-13T15:02:00Z</time>
      </trkpt>
      <trkpt lat="48.73786" lon="1.75586">
        <ele>163</ele>
        <time>2010-05-13T15:02:01Z</time>
      </trkpt>
      <trkpt lat="48.73784" lon="1.75586">
        <ele>163</ele>
        <time>2010-05-13T15:02:02Z</time>
      </trkpt>
      <trkpt lat="48.73782" lon="1.75586">
        <ele>163</ele>
        <time>2010-05-13T15:02:04Z</time>
      </trkpt>
      <trkpt lat="48.73781" lon="1.75586">
        <ele>163</ele>
        <time>2010-05-13T15:02:05Z</time>
      </trkpt>
      <trkpt lat="48.7378" lon="1.75586">
        <ele>162</ele>
        <time>2010-05-13T15:02:06Z</time>
      </trkpt>
      <trkpt lat="48.73779" lon="1.75585">
        <ele>162</ele>
        <time>2010-05-13T15:02:07Z</time>
      </trkpt>
      <trkpt lat="48.73777" lon="1.75585">
        <ele>162</ele>
        <time>2010-05-13T15:02:09Z</time>
      </trkpt>
      <trkpt lat="48.73776" lon="1.75585">
        <ele>162</ele>
        <time>2010-05-13T15:02:09Z</time>
      </trkpt>
      <trkpt lat="48.73774" lon="1.75585">
        <ele>162</ele>
        <time>2010-05-13T15:02:10Z</time>
      </trkpt>
      <trkpt lat="48.73772" lon="1.75585">
        <ele>161</ele>
        <time>2010-05-13T15:02:12Z</time>
      </trkpt>
      <trkpt lat="48.7377" lon="1.75584">
        <ele>161</ele>
        <time>2010-05-13T15:02:14Z</time>
      </trkpt>
      <trkpt lat="48.73769" lon="1.75584">
        <ele>161</ele>
        <time>2010-05-13T15:02:15Z</time>
      </trkpt>
      <trkpt lat="48.73767" lon="1.75584">
        <ele>161</ele>
        <time>2010-05-13T15:02:16Z</time>
      </trkpt>
      <trkpt lat="48.73766" lon="1.75583">
        <ele>161</ele>
        <time>2010-05-13T15:02:17Z</time>
      </trkpt>
      <trkpt lat="48.73764" lon="1.75583">
        <ele>161</ele>
        <time>2010-05-13T15:02:19Z</time>
      </trkpt>
      <trkpt lat="48.73763" lon="1.75582">
        <ele>161</ele>
        <time>2010-05-13T15:02:19Z</time>
      </trkpt>
      <trkpt lat="48.73762" lon="1.75582">
        <ele>160</ele>
        <time>2010-05-13T15:02:20Z</time>
      </trkpt>
      <trkpt lat="48.7376" lon="1.75582">
        <ele>160</ele>
        <time>2010-05-13T15:02:21Z</time>
      </trkpt>
      <trkpt lat="48.73759" lon="1.75581">
        <ele>160</ele>
        <time>2010-05-13T15:02:22Z</time>
      </trkpt>
      <trkpt lat="48.73757" lon="1.7558">
        <ele>160</ele>
        <time>2010-05-13T15:02:24Z</time>
      </trkpt>
      <trkpt lat="48.73756" lon="1.7558">
        <ele>160</ele>
        <time>2010-05-13T15:02:25Z</time>
      </trkpt>
      <trkpt lat="48.73754" lon="1.75579">
        <ele>160</ele>
        <time>2010-05-13T15:02:27Z</time>
      </trkpt>
      <trkpt lat="48.73751" lon="1.75578">
        <ele>159</ele>
        <time>2010-05-13T15:02:29Z</time>
      </trkpt>
      <trkpt lat="48.73749" lon="1.75577">
        <ele>159</ele>
        <time>2010-05-13T15:02:31Z</time>
      </trkpt>
      <trkpt lat="48.73747" lon="1.75577">
        <ele>158</ele>
        <time>2010-05-13T15:02:32Z</time>
      </trkpt>
      <trkpt lat="48.73746" lon="1.75576">
        <ele>158</ele>
        <time>2010-05-13T15:02:34Z</time>
      </trkpt>
      <trkpt lat="48.73743" lon="1.75575">
        <ele>158</ele>
        <time>2010-05-13T15:02:35Z</time>
      </trkpt>
      <trkpt lat="48.73742" lon="1.75575">
        <ele>158</ele>
        <time>2010-05-13T15:02:36Z</time>
      </trkpt>
      <trkpt lat="48.7374" lon="1.75574">
        <ele>158</ele>
        <time>2010-05-13T15:02:37Z</time>
      </trkpt>
      <trkpt lat="48.73739" lon="1.75574">
        <ele>158</ele>
        <time>2010-05-13T15:02:39Z</time>
      </trkpt>
      <trkpt lat="48.73738" lon="1.75573">
        <ele>158</ele>
        <time>2010-05-13T15:02:39Z</time>
      </trkpt>
      <trkpt lat="48.73736" lon="1.75572">
        <ele>158</ele>
        <time>2010-05-13T15:02:40Z</time>
      </trkpt>
      <trkpt lat="48.73735" lon="1.75572">
        <ele>158</ele>
        <time>2010-05-13T15:02:41Z</time>
      </trkpt>
      <trkpt lat="48.73734" lon="1.75571">
        <ele>158</ele>
        <time>2010-05-13T15:02:42Z</time>
      </trkpt>
      <trkpt lat="48.73732" lon="1.75571">
        <ele>158</ele>
        <time>2010-05-13T15:02:44Z</time>
      </trkpt>
      <trkpt lat="48.73731" lon="1.7557">
        <ele>158</ele>
        <time>2010-05-13T15:02:44Z</time>
      </trkpt>
      <trkpt lat="48.7373" lon="1.75568">
        <ele>158</ele>
        <time>2010-05-13T15:02:47Z</time>
      </trkpt>
      <trkpt lat="48.73729" lon="1.75566">
        <ele>158</ele>
        <time>2010-05-13T15:02:49Z</time>
      </trkpt>
      <trkpt lat="48.73728" lon="1.75563">
        <ele>158</ele>
        <time>2010-05-13T15:02:51Z</time>
      </trkpt>
      <trkpt lat="48.73727" lon="1.7556">
        <ele>158</ele>
        <time>2010-05-13T15:02:52Z</time>
      </trkpt>
      <trkpt lat="48.73727" lon="1.75557">
        <ele>159</ele>
        <time>2010-05-13T15:02:54Z</time>
      </trkpt>
      <trkpt lat="48.73726" lon="1.75555">
        <ele>161</ele>
        <time>2010-05-13T15:02:55Z</time>
      </trkpt>
      <trkpt lat="48.73725" lon="1.75553">
        <ele>163</ele>
        <time>2010-05-13T15:02:57Z</time>
      </trkpt>
      <trkpt lat="48.73724" lon="1.75551">
        <ele>165</ele>
        <time>2010-05-13T15:02:59Z</time>
      </trkpt>
      <trkpt lat="48.73723" lon="1.75549">
        <ele>165</ele>
        <time>2010-05-13T15:03:01Z</time>
      </trkpt>
      <trkpt lat="48.73721" lon="1.75547">
        <ele>165</ele>
        <time>2010-05-13T15:03:04Z</time>
      </trkpt>
      <trkpt lat="48.73721" lon="1.75545">
        <ele>166</ele>
        <time>2010-05-13T15:03:09Z</time>
      </trkpt>
      <trkpt lat="48.7372" lon="1.75543">
        <ele>166</ele>
        <time>2010-05-13T15:03:11Z</time>
      </trkpt>
      <trkpt lat="48.73719" lon="1.75542">
        <ele>167</ele>
        <time>2010-05-13T15:03:16Z</time>
      </trkpt>
      <trkpt lat="48.73718" lon="1.75542">
        <ele>167</ele>
        <time>2010-05-13T15:03:20Z</time>
      </trkpt>
      <trkpt lat="48.7372" lon="1.75541">
        <ele>167</ele>
        <time>2010-05-13T15:03:31Z</time>
      </trkpt>
      <trkpt lat="48.73718" lon="1.75541">
        <ele>167</ele>
        <time>2010-05-13T15:03:34Z</time>
      </trkpt>
      <trkpt lat="48.73717" lon="1.75539">
        <ele>168</ele>
        <time>2010-05-13T15:03:39Z</time>
      </trkpt>
      <trkpt lat="48.73717" lon="1.75537">
        <ele>170</ele>
        <time>2010-05-13T15:03:41Z</time>
      </trkpt>
      <trkpt lat="48.73717" lon="1.75536">
        <ele>175</ele>
        <time>2010-05-13T15:03:46Z</time>
      </trkpt>
      <trkpt lat="48.73716" lon="1.75535">
        <ele>176</ele>
        <time>2010-05-13T15:03:57Z</time>
      </trkpt>
      <trkpt lat="48.73716" lon="1.75537">
        <ele>176</ele>
        <time>2010-05-13T15:04:04Z</time>
      </trkpt>
      <trkpt lat="48.73718" lon="1.75538">
        <ele>172</ele>
        <time>2010-05-13T15:04:10Z</time>
      </trkpt>
      <trkpt lat="48.7372" lon="1.75538">
        <ele>172</ele>
        <time>2010-05-13T15:04:12Z</time>
      </trkpt>
      <trkpt lat="48.7372" lon="1.75536">
        <ele>171</ele>
        <time>2010-05-13T15:04:17Z</time>
      </trkpt>
      <trkpt lat="48.73719" lon="1.75533">
        <ele>171</ele>
        <time>2010-05-13T15:04:19Z</time>
      </trkpt>
      <trkpt lat="48.73718" lon="1.75535">
        <ele>171</ele>
        <time>2010-05-13T15:04:22Z</time>
      </trkpt>
      <trkpt lat="48.73717" lon="1.75536">
        <ele>171</ele>
        <time>2010-05-13T15:04:32Z</time>
      </trkpt>
      <trkpt lat="48.73715" lon="1.75536">
        <ele>171</ele>
        <time>2010-05-13T15:04:34Z</time>
      </trkpt>
      <trkpt lat="48.73713" lon="1.75536">
        <ele>171</ele>
        <time>2010-05-13T15:04:36Z</time>
      </trkpt>
      <trkpt lat="48.73711" lon="1.75538">
        <ele>171</ele>
        <time>2010-05-13T15:04:39Z</time>
      </trkpt>
      <trkpt lat="48.73709" lon="1.7554">
        <ele>171</ele>
        <time>2010-05-13T15:04:40Z</time>
      </trkpt>
      <trkpt lat="48.73707" lon="1.75542">
        <ele>171</ele>
        <time>2010-05-13T15:04:42Z</time>
      </trkpt>
      <trkpt lat="48.73706" lon="1.75544">
        <ele>171</ele>
        <time>2010-05-13T15:04:44Z</time>
      </trkpt>
      <trkpt lat="48.73705" lon="1.75545">
        <ele>171</ele>
        <time>2010-05-13T15:04:46Z</time>
      </trkpt>
      <trkpt lat="48.73703" lon="1.75547">
        <ele>171</ele>
        <time>2010-05-13T15:04:49Z</time>
      </trkpt>
      <trkpt lat="48.73701" lon="1.75548">
        <ele>171</ele>
        <time>2010-05-13T15:04:50Z</time>
      </trkpt>
      <trkpt lat="48.73701" lon="1.75546">
        <ele>171</ele>
        <time>2010-05-13T15:04:51Z</time>
      </trkpt>
      <trkpt lat="48.737" lon="1.75544">
        <ele>171</ele>
        <time>2010-05-13T15:04:54Z</time>
      </trkpt>
      <trkpt lat="48.73699" lon="1.75543">
        <ele>171</ele>
        <time>2010-05-13T15:04:55Z</time>
      </trkpt>
      <trkpt lat="48.73697" lon="1.75543">
        <ele>171</ele>
        <time>2010-05-13T15:04:57Z</time>
      </trkpt>
      <trkpt lat="48.73695" lon="1.75543">
        <ele>171</ele>
        <time>2010-05-13T15:04:59Z</time>
      </trkpt>
      <trkpt lat="48.73693" lon="1.75543">
        <ele>171</ele>
        <time>2010-05-13T15:05:00Z</time>
      </trkpt>
      <trkpt lat="48.73692" lon="1.75544">
        <ele>171</ele>
        <time>2010-05-13T15:05:02Z</time>
      </trkpt>
      <trkpt lat="48.7369" lon="1.75545">
        <ele>171</ele>
        <time>2010-05-13T15:05:04Z</time>
      </trkpt>
      <trkpt lat="48.73689" lon="1.75545">
        <ele>171</ele>
        <time>2010-05-13T15:05:06Z</time>
      </trkpt>
      <trkpt lat="48.73687" lon="1.75545">
        <ele>171</ele>
        <time>2010-05-13T15:05:07Z</time>
      </trkpt>
      <trkpt lat="48.73686" lon="1.75546">
        <ele>171</ele>
        <time>2010-05-13T15:05:09Z</time>
      </trkpt>
      <trkpt lat="48.73684" lon="1.75546">
        <ele>170</ele>
        <time>2010-05-13T15:05:11Z</time>
      </trkpt>
      <trkpt lat="48.73683" lon="1.75545">
        <ele>168</ele>
        <time>2010-05-13T15:05:14Z</time>
      </trkpt>
      <trkpt lat="48.73682" lon="1.75546">
        <ele>168</ele>
        <time>2010-05-13T15:05:15Z</time>
      </trkpt>
      <trkpt lat="48.7368" lon="1.75546">
        <ele>167</ele>
        <time>2010-05-13T15:05:17Z</time>
      </trkpt>
      <trkpt lat="48.73679" lon="1.75546">
        <ele>166</ele>
        <time>2010-05-13T15:05:19Z</time>
      </trkpt>
      <trkpt lat="48.73677" lon="1.75546">
        <ele>166</ele>
        <time>2010-05-13T15:05:20Z</time>
      </trkpt>
      <trkpt lat="48.73676" lon="1.75544">
        <ele>166</ele>
        <time>2010-05-13T15:05:21Z</time>
      </trkpt>
      <trkpt lat="48.73675" lon="1.75543">
        <ele>166</ele>
        <time>2010-05-13T15:05:22Z</time>
      </trkpt>
      <trkpt lat="48.73674" lon="1.75543">
        <ele>166</ele>
        <time>2010-05-13T15:05:24Z</time>
      </trkpt>
      <trkpt lat="48.73672" lon="1.75542">
        <ele>166</ele>
        <time>2010-05-13T15:05:24Z</time>
      </trkpt>
      <trkpt lat="48.73671" lon="1.75543">
        <ele>166</ele>
        <time>2010-05-13T15:05:25Z</time>
      </trkpt>
      <trkpt lat="48.7367" lon="1.75542">
        <ele>166</ele>
        <time>2010-05-13T15:05:26Z</time>
      </trkpt>
      <trkpt lat="48.73668" lon="1.75541">
        <ele>166</ele>
        <time>2010-05-13T15:05:29Z</time>
      </trkpt>
      <trkpt lat="48.73666" lon="1.7554">
        <ele>166</ele>
        <time>2010-05-13T15:05:30Z</time>
      </trkpt>
      <trkpt lat="48.73664" lon="1.7554">
        <ele>166</ele>
        <time>2010-05-13T15:05:31Z</time>
      </trkpt>
      <trkpt lat="48.73663" lon="1.7554">
        <ele>166</ele>
        <time>2010-05-13T15:05:32Z</time>
      </trkpt>
      <trkpt lat="48.73661" lon="1.7554">
        <ele>166</ele>
        <time>2010-05-13T15:05:34Z</time>
      </trkpt>
      <trkpt lat="48.7366" lon="1.75542">
        <ele>166</ele>
        <time>2010-05-13T15:05:34Z</time>
      </trkpt>
      <trkpt lat="48.73658" lon="1.75543">
        <ele>166</ele>
        <time>2010-05-13T15:05:35Z</time>
      </trkpt>
      <trkpt lat="48.73657" lon="1.75543">
        <ele>166</ele>
        <time>2010-05-13T15:05:36Z</time>
      </trkpt>
      <trkpt lat="48.73656" lon="1.75543">
        <ele>166</ele>
        <time>2010-05-13T15:05:37Z</time>
      </trkpt>
      <trkpt lat="48.73654" lon="1.75543">
        <ele>166</ele>
        <time>2010-05-13T15:05:39Z</time>
      </trkpt>
      <trkpt lat="48.73652" lon="1.75543">
        <ele>166</ele>
        <time>2010-05-13T15:05:39Z</time>
      </trkpt>
      <trkpt lat="48.73651" lon="1.75544">
        <ele>165</ele>
        <time>2010-05-13T15:05:40Z</time>
      </trkpt>
      <trkpt lat="48.73649" lon="1.75545">
        <ele>164</ele>
        <time>2010-05-13T15:05:42Z</time>
      </trkpt>
      <trkpt lat="48.73647" lon="1.75546">
        <ele>163</ele>
        <time>2010-05-13T15:05:44Z</time>
      </trkpt>
      <trkpt lat="48.73646" lon="1.75547">
        <ele>163</ele>
        <time>2010-05-13T15:05:45Z</time>
      </trkpt>
      <trkpt lat="48.73644" lon="1.75547">
        <ele>162</ele>
        <time>2010-05-13T15:05:46Z</time>
      </trkpt>
      <trkpt lat="48.73642" lon="1.75548">
        <ele>162</ele>
        <time>2010-05-13T15:05:47Z</time>
      </trkpt>
      <trkpt lat="48.73641" lon="1.75549">
        <ele>162</ele>
        <time>2010-05-13T15:05:49Z</time>
      </trkpt>
      <trkpt lat="48.7364" lon="1.75549">
        <ele>162</ele>
        <time>2010-05-13T15:05:49Z</time>
      </trkpt>
      <trkpt lat="48.73638" lon="1.75549">
        <ele>162</ele>
        <time>2010-05-13T15:05:50Z</time>
      </trkpt>
      <trkpt lat="48.73637" lon="1.7555">
        <ele>162</ele>
        <time>2010-05-13T15:05:51Z</time>
      </trkpt>
      <trkpt lat="48.73636" lon="1.7555">
        <ele>162</ele>
        <time>2010-05-13T15:05:52Z</time>
      </trkpt>
      <trkpt lat="48.73634" lon="1.7555">
        <ele>162</ele>
        <time>2010-05-13T15:05:54Z</time>
      </trkpt>
      <trkpt lat="48.73633" lon="1.75551">
        <ele>162</ele>
        <time>2010-05-13T15:05:54Z</time>
      </trkpt>
      <trkpt lat="48.73632" lon="1.75551">
        <ele>162</ele>
        <time>2010-05-13T15:05:55Z</time>
      </trkpt>
      <trkpt lat="48.7363" lon="1.75552">
        <ele>162</ele>
        <time>2010-05-13T15:05:57Z</time>
      </trkpt>
      <trkpt lat="48.73629" lon="1.75553">
        <ele>162</ele>
        <time>2010-05-13T15:05:59Z</time>
      </trkpt>
      <trkpt lat="48.73627" lon="1.75553">
        <ele>162</ele>
        <time>2010-05-13T15:05:59Z</time>
      </trkpt>
      <trkpt lat="48.73625" lon="1.75553">
        <ele>162</ele>
        <time>2010-05-13T15:06:00Z</time>
      </trkpt>
      <trkpt lat="48.73623" lon="1.75553">
        <ele>162</ele>
        <time>2010-05-13T15:06:01Z</time>
      </trkpt>
      <trkpt lat="48.73621" lon="1.75553">
        <ele>162</ele>
        <time>2010-05-13T15:06:02Z</time>
      </trkpt>
      <trkpt lat="48.7362" lon="1.75553">
        <ele>162</ele>
        <time>2010-05-13T15:06:04Z</time>
      </trkpt>
      <trkpt lat="48.73618" lon="1.75553">
        <ele>162</ele>
        <time>2010-05-13T15:06:04Z</time>
      </trkpt>
      <trkpt lat="48.73616" lon="1.75553">
        <ele>162</ele>
        <time>2010-05-13T15:06:05Z</time>
      </trkpt>
      <trkpt lat="48.73615" lon="1.75553">
        <ele>162</ele>
        <time>2010-05-13T15:06:06Z</time>
      </trkpt>
      <trkpt lat="48.73614" lon="1.75554">
        <ele>162</ele>
        <time>2010-05-13T15:06:07Z</time>
      </trkpt>
      <trkpt lat="48.73612" lon="1.75554">
        <ele>162</ele>
        <time>2010-05-13T15:06:09Z</time>
      </trkpt>
      <trkpt lat="48.73611" lon="1.75554">
        <ele>162</ele>
        <time>2010-05-13T15:06:09Z</time>
      </trkpt>
      <trkpt lat="48.73609" lon="1.75556">
        <ele>162</ele>
        <time>2010-05-13T15:06:11Z</time>
      </trkpt>
      <trkpt lat="48.73608" lon="1.75556">
        <ele>162</ele>
        <time>2010-05-13T15:06:12Z</time>
      </trkpt>
      <trkpt lat="48.73607" lon="1.75556">
        <ele>162</ele>
        <time>2010-05-13T15:06:14Z</time>
      </trkpt>
      <trkpt lat="48.73605" lon="1.75556">
        <ele>162</ele>
        <time>2010-05-13T15:06:14Z</time>
      </trkpt>
      <trkpt lat="48.73603" lon="1.75558">
        <ele>162</ele>
        <time>2010-05-13T15:06:15Z</time>
      </trkpt>
      <trkpt lat="48.73602" lon="1.7556">
        <ele>162</ele>
        <time>2010-05-13T15:06:16Z</time>
      </trkpt>
      <trkpt lat="48.736" lon="1.75559">
        <ele>162</ele>
        <time>2010-05-13T15:06:17Z</time>
      </trkpt>
      <trkpt lat="48.73599" lon="1.75556">
        <ele>162</ele>
        <time>2010-05-13T15:06:19Z</time>
      </trkpt>
      <trkpt lat="48.73597" lon="1.75555">
        <ele>162</ele>
        <time>2010-05-13T15:06:19Z</time>
      </trkpt>
      <trkpt lat="48.73596" lon="1.75554">
        <ele>162</ele>
        <time>2010-05-13T15:06:20Z</time>
      </trkpt>
      <trkpt lat="48.73594" lon="1.75555">
        <ele>162</ele>
        <time>2010-05-13T15:06:21Z</time>
      </trkpt>
      <trkpt lat="48.73593" lon="1.75555">
        <ele>163</ele>
        <time>2010-05-13T15:06:22Z</time>
      </trkpt>
      <trkpt lat="48.73592" lon="1.75555">
        <ele>165</ele>
        <time>2010-05-13T15:06:24Z</time>
      </trkpt>
      <trkpt lat="48.7359" lon="1.75555">
        <ele>165</ele>
        <time>2010-05-13T15:06:25Z</time>
      </trkpt>
      <trkpt lat="48.73588" lon="1.75557">
        <ele>166</ele>
        <time>2010-05-13T15:06:27Z</time>
      </trkpt>
      <trkpt lat="48.73586" lon="1.75558">
        <ele>166</ele>
        <time>2010-05-13T15:06:29Z</time>
      </trkpt>
      <trkpt lat="48.73584" lon="1.75558">
        <ele>167</ele>
        <time>2010-05-13T15:06:30Z</time>
      </trkpt>
      <trkpt lat="48.73583" lon="1.7556">
        <ele>167</ele>
        <time>2010-05-13T15:06:32Z</time>
      </trkpt>
      <trkpt lat="48.73581" lon="1.75561">
        <ele>167</ele>
        <time>2010-05-13T15:06:34Z</time>
      </trkpt>
      <trkpt lat="48.73579" lon="1.75561">
        <ele>167</ele>
        <time>2010-05-13T15:06:36Z</time>
      </trkpt>
      <trkpt lat="48.73578" lon="1.75562">
        <ele>167</ele>
        <time>2010-05-13T15:06:37Z</time>
      </trkpt>
      <trkpt lat="48.73577" lon="1.75563">
        <ele>168</ele>
        <time>2010-05-13T15:06:39Z</time>
      </trkpt>
      <trkpt lat="48.73575" lon="1.75564">
        <ele>168</ele>
        <time>2010-05-13T15:06:39Z</time>
      </trkpt>
      <trkpt lat="48.73573" lon="1.75566">
        <ele>169</ele>
        <time>2010-05-13T15:06:41Z</time>
      </trkpt>
      <trkpt lat="48.73572" lon="1.75567">
        <ele>169</ele>
        <time>2010-05-13T15:06:42Z</time>
      </trkpt>
      <trkpt lat="48.7357" lon="1.75567">
        <ele>170</ele>
        <time>2010-05-13T15:06:44Z</time>
      </trkpt>
      <trkpt lat="48.73568" lon="1.75568">
        <ele>170</ele>
        <time>2010-05-13T15:06:44Z</time>
      </trkpt>
      <trkpt lat="48.73567" lon="1.75568">
        <ele>170</ele>
        <time>2010-05-13T15:06:45Z</time>
      </trkpt>
      <trkpt lat="48.73566" lon="1.75569">
        <ele>170</ele>
        <time>2010-05-13T15:06:46Z</time>
      </trkpt>
      <trkpt lat="48.73564" lon="1.7557">
        <ele>170</ele>
        <time>2010-05-13T15:06:47Z</time>
      </trkpt>
      <trkpt lat="48.73563" lon="1.75571">
        <ele>170</ele>
        <time>2010-05-13T15:06:49Z</time>
      </trkpt>
      <trkpt lat="48.73561" lon="1.75571">
        <ele>170</ele>
        <time>2010-05-13T15:06:49Z</time>
      </trkpt>
      <trkpt lat="48.73559" lon="1.75572">
        <ele>170</ele>
        <time>2010-05-13T15:06:51Z</time>
      </trkpt>
      <trkpt lat="48.73556" lon="1.75572">
        <ele>170</ele>
        <time>2010-05-13T15:06:54Z</time>
      </trkpt>
      <trkpt lat="48.73554" lon="1.75572">
        <ele>170</ele>
        <time>2010-05-13T15:06:54Z</time>
      </trkpt>
      <trkpt lat="48.73552" lon="1.75573">
        <ele>170</ele>
        <time>2010-05-13T15:06:55Z</time>
      </trkpt>
      <trkpt lat="48.7355" lon="1.75573">
        <ele>170</ele>
        <time>2010-05-13T15:06:56Z</time>
      </trkpt>
      <trkpt lat="48.73549" lon="1.75574">
        <ele>170</ele>
        <time>2010-05-13T15:06:57Z</time>
      </trkpt>
      <trkpt lat="48.73547" lon="1.75576">
        <ele>170</ele>
        <time>2010-05-13T15:06:59Z</time>
      </trkpt>
      <trkpt lat="48.73545" lon="1.75577">
        <ele>170</ele>
        <time>2010-05-13T15:07:01Z</time>
      </trkpt>
      <trkpt lat="48.73541" lon="1.75578">
        <ele>172</ele>
        <time>2010-05-13T15:07:05Z</time>
      </trkpt>
      <trkpt lat="48.7354" lon="1.75579">
        <ele>173</ele>
        <time>2010-05-13T15:07:06Z</time>
      </trkpt>
      <trkpt lat="48.73537" lon="1.75581">
        <ele>174</ele>
        <time>2010-05-13T15:07:07Z</time>
      </trkpt>
      <trkpt lat="48.73536" lon="1.75581">
        <ele>175</ele>
        <time>2010-05-13T15:07:09Z</time>
      </trkpt>
      <trkpt lat="48.73534" lon="1.75582">
        <ele>175</ele>
        <time>2010-05-13T15:07:09Z</time>
      </trkpt>
      <trkpt lat="48.73532" lon="1.75582">
        <ele>175</ele>
        <time>2010-05-13T15:07:11Z</time>
      </trkpt>
      <trkpt lat="48.73531" lon="1.75583">
        <ele>175</ele>
        <time>2010-05-13T15:07:12Z</time>
      </trkpt>
      <trkpt lat="48.73529" lon="1.75583">
        <ele>175</ele>
        <time>2010-05-13T15:07:14Z</time>
      </trkpt>
      <trkpt lat="48.73528" lon="1.75584">
        <ele>175</ele>
        <time>2010-05-13T15:07:14Z</time>
      </trkpt>
      <trkpt lat="48.73526" lon="1.75585">
        <ele>175</ele>
        <time>2010-05-13T15:07:15Z</time>
      </trkpt>
      <trkpt lat="48.73525" lon="1.75586">
        <ele>175</ele>
        <time>2010-05-13T15:07:16Z</time>
      </trkpt>
      <trkpt lat="48.73524" lon="1.75586">
        <ele>176</ele>
        <time>2010-05-13T15:07:17Z</time>
      </trkpt>
      <trkpt lat="48.73522" lon="1.75587">
        <ele>176</ele>
        <time>2010-05-13T15:07:19Z</time>
      </trkpt>
      <trkpt lat="48.73521" lon="1.75588">
        <ele>177</ele>
        <time>2010-05-13T15:07:19Z</time>
      </trkpt>
      <trkpt lat="48.73519" lon="1.7559">
        <ele>177</ele>
        <time>2010-05-13T15:07:20Z</time>
      </trkpt>
      <trkpt lat="48.73518" lon="1.75591">
        <ele>178</ele>
        <time>2010-05-13T15:07:21Z</time>
      </trkpt>
      <trkpt lat="48.73517" lon="1.75592">
        <ele>178</ele>
        <time>2010-05-13T15:07:22Z</time>
      </trkpt>
      <trkpt lat="48.73515" lon="1.75592">
        <ele>179</ele>
        <time>2010-05-13T15:07:24Z</time>
      </trkpt>
      <trkpt lat="48.73514" lon="1.75592">
        <ele>179</ele>
        <time>2010-05-13T15:07:24Z</time>
      </trkpt>
      <trkpt lat="48.73513" lon="1.75593">
        <ele>179</ele>
        <time>2010-05-13T15:07:25Z</time>
      </trkpt>
      <trkpt lat="48.73511" lon="1.75594">
        <ele>179</ele>
        <time>2010-05-13T15:07:26Z</time>
      </trkpt>
      <trkpt lat="48.73509" lon="1.75595">
        <ele>179</ele>
        <time>2010-05-13T15:07:27Z</time>
      </trkpt>
      <trkpt lat="48.73507" lon="1.75596">
        <ele>179</ele>
        <time>2010-05-13T15:07:29Z</time>
      </trkpt>
      <trkpt lat="48.73506" lon="1.75597">
        <ele>179</ele>
        <time>2010-05-13T15:07:29Z</time>
      </trkpt>
      <trkpt lat="48.73504" lon="1.75598">
        <ele>179</ele>
        <time>2010-05-13T15:07:30Z</time>
      </trkpt>
      <trkpt lat="48.73502" lon="1.75601">
        <ele>179</ele>
        <time>2010-05-13T15:07:32Z</time>
      </trkpt>
      <trkpt lat="48.735" lon="1.75603">
        <ele>179</ele>
        <time>2010-05-13T15:07:34Z</time>
      </trkpt>
      <trkpt lat="48.73499" lon="1.75604">
        <ele>179</ele>
        <time>2010-05-13T15:07:35Z</time>
      </trkpt>
      <trkpt lat="48.73498" lon="1.75605">
        <ele>179</ele>
        <time>2010-05-13T15:07:36Z</time>
      </trkpt>
      <trkpt lat="48.73497" lon="1.75606">
        <ele>180</ele>
        <time>2010-05-13T15:07:37Z</time>
      </trkpt>
      <trkpt lat="48.73495" lon="1.75608">
        <ele>180</ele>
        <time>2010-05-13T15:07:39Z</time>
      </trkpt>
      <trkpt lat="48.73493" lon="1.75609">
        <ele>181</ele>
        <time>2010-05-13T15:07:40Z</time>
      </trkpt>
      <trkpt lat="48.73491" lon="1.75611">
        <ele>181</ele>
        <time>2010-05-13T15:07:42Z</time>
      </trkpt>
      <trkpt lat="48.73491" lon="1.75613">
        <ele>181</ele>
        <time>2010-05-13T15:07:44Z</time>
      </trkpt>
      <trkpt lat="48.73491" lon="1.75616">
        <ele>181</ele>
        <time>2010-05-13T15:07:44Z</time>
      </trkpt>
      <trkpt lat="48.73491" lon="1.75618">
        <ele>181</ele>
        <time>2010-05-13T15:07:45Z</time>
      </trkpt>
      <trkpt lat="48.73489" lon="1.75621">
        <ele>181</ele>
        <time>2010-05-13T15:07:47Z</time>
      </trkpt>
      <trkpt lat="48.73488" lon="1.75622">
        <ele>181</ele>
        <time>2010-05-13T15:07:49Z</time>
      </trkpt>
      <trkpt lat="48.73487" lon="1.75623">
        <ele>181</ele>
        <time>2010-05-13T15:07:49Z</time>
      </trkpt>
      <trkpt lat="48.73485" lon="1.75625">
        <ele>181</ele>
        <time>2010-05-13T15:07:51Z</time>
      </trkpt>
      <trkpt lat="48.73484" lon="1.75625">
        <ele>181</ele>
        <time>2010-05-13T15:07:52Z</time>
      </trkpt>
      <trkpt lat="48.73482" lon="1.75626">
        <ele>181</ele>
        <time>2010-05-13T15:07:54Z</time>
      </trkpt>
      <trkpt lat="48.7348" lon="1.75627">
        <ele>181</ele>
        <time>2010-05-13T15:07:54Z</time>
      </trkpt>
      <trkpt lat="48.73479" lon="1.7563">
        <ele>181</ele>
        <time>2010-05-13T15:07:56Z</time>
      </trkpt>
      <trkpt lat="48.73477" lon="1.75632">
        <ele>181</ele>
        <time>2010-05-13T15:07:59Z</time>
      </trkpt>
      <trkpt lat="48.73476" lon="1.75633">
        <ele>181</ele>
        <time>2010-05-13T15:07:59Z</time>
      </trkpt>
      <trkpt lat="48.73473" lon="1.75634">
        <ele>181</ele>
        <time>2010-05-13T15:08:00Z</time>
      </trkpt>
      <trkpt lat="48.73472" lon="1.75635">
        <ele>181</ele>
        <time>2010-05-13T15:08:01Z</time>
      </trkpt>
      <trkpt lat="48.7347" lon="1.75637">
        <ele>181</ele>
        <time>2010-05-13T15:08:04Z</time>
      </trkpt>
      <trkpt lat="48.73468" lon="1.75638">
        <ele>181</ele>
        <time>2010-05-13T15:08:04Z</time>
      </trkpt>
      <trkpt lat="48.73466" lon="1.75641">
        <ele>181</ele>
        <time>2010-05-13T15:08:06Z</time>
      </trkpt>
      <trkpt lat="48.73464" lon="1.75643">
        <ele>181</ele>
        <time>2010-05-13T15:08:09Z</time>
      </trkpt>
      <trkpt lat="48.73462" lon="1.75643">
        <ele>181</ele>
        <time>2010-05-13T15:08:09Z</time>
      </trkpt>
      <trkpt lat="48.73461" lon="1.75644">
        <ele>181</ele>
        <time>2010-05-13T15:08:10Z</time>
      </trkpt>
      <trkpt lat="48.73459" lon="1.75645">
        <ele>181</ele>
        <time>2010-05-13T15:08:11Z</time>
      </trkpt>
      <trkpt lat="48.73457" lon="1.75647">
        <ele>181</ele>
        <time>2010-05-13T15:08:14Z</time>
      </trkpt>
      <trkpt lat="48.73456" lon="1.75648">
        <ele>181</ele>
        <time>2010-05-13T15:08:14Z</time>
      </trkpt>
      <trkpt lat="48.73454" lon="1.75649">
        <ele>181</ele>
        <time>2010-05-13T15:08:15Z</time>
      </trkpt>
      <trkpt lat="48.73453" lon="1.7565">
        <ele>181</ele>
        <time>2010-05-13T15:08:16Z</time>
      </trkpt>
      <trkpt lat="48.73453" lon="1.75652">
        <ele>181</ele>
        <time>2010-05-13T15:08:17Z</time>
      </trkpt>
      <trkpt lat="48.7345" lon="1.75652">
        <ele>181</ele>
        <time>2010-05-13T15:08:19Z</time>
      </trkpt>
      <trkpt lat="48.73449" lon="1.75653">
        <ele>181</ele>
        <time>2010-05-13T15:08:20Z</time>
      </trkpt>
      <trkpt lat="48.73447" lon="1.75652">
        <ele>181</ele>
        <time>2010-05-13T15:08:21Z</time>
      </trkpt>
      <trkpt lat="48.73446" lon="1.75652">
        <ele>181</ele>
        <time>2010-05-13T15:08:22Z</time>
      </trkpt>
      <trkpt lat="48.73444" lon="1.75654">
        <ele>181</ele>
        <time>2010-05-13T15:08:24Z</time>
      </trkpt>
      <trkpt lat="48.73443" lon="1.75656">
        <ele>181</ele>
        <time>2010-05-13T15:08:25Z</time>
      </trkpt>
      <trkpt lat="48.73441" lon="1.75657">
        <ele>181</ele>
        <time>2010-05-13T15:08:26Z</time>
      </trkpt>
      <trkpt lat="48.7344" lon="1.75659">
        <ele>180</ele>
        <time>2010-05-13T15:08:29Z</time>
      </trkpt>
      <trkpt lat="48.73439" lon="1.75662">
        <ele>180</ele>
        <time>2010-05-13T15:08:31Z</time>
      </trkpt>
      <trkpt lat="48.73438" lon="1.75663">
        <ele>180</ele>
        <time>2010-05-13T15:08:34Z</time>
      </trkpt>
      <trkpt lat="48.73435" lon="1.75664">
        <ele>180</ele>
        <time>2010-05-13T15:08:35Z</time>
      </trkpt>
      <trkpt lat="48.73433" lon="1.75665">
        <ele>179</ele>
        <time>2010-05-13T15:08:36Z</time>
      </trkpt>
      <trkpt lat="48.73431" lon="1.75666">
        <ele>179</ele>
        <time>2010-05-13T15:08:37Z</time>
      </trkpt>
      <trkpt lat="48.73429" lon="1.75666">
        <ele>179</ele>
        <time>2010-05-13T15:08:39Z</time>
      </trkpt>
      <trkpt lat="48.73428" lon="1.75667">
        <ele>178</ele>
        <time>2010-05-13T15:08:39Z</time>
      </trkpt>
      <trkpt lat="48.73426" lon="1.75668">
        <ele>178</ele>
        <time>2010-05-13T15:08:40Z</time>
      </trkpt>
      <trkpt lat="48.73425" lon="1.75669">
        <ele>177</ele>
        <time>2010-05-13T15:08:41Z</time>
      </trkpt>
      <trkpt lat="48.73423" lon="1.75671">
        <ele>177</ele>
        <time>2010-05-13T15:08:42Z</time>
      </trkpt>
      <trkpt lat="48.73421" lon="1.7567">
        <ele>177</ele>
        <time>2010-05-13T15:08:44Z</time>
      </trkpt>
      <trkpt lat="48.7342" lon="1.75672">
        <ele>177</ele>
        <time>2010-05-13T15:08:45Z</time>
      </trkpt>
      <trkpt lat="48.73418" lon="1.75675">
        <ele>177</ele>
        <time>2010-05-13T15:08:47Z</time>
      </trkpt>
      <trkpt lat="48.73416" lon="1.75678">
        <ele>177</ele>
        <time>2010-05-13T15:08:49Z</time>
      </trkpt>
      <trkpt lat="48.73416" lon="1.75679">
        <ele>177</ele>
        <time>2010-05-13T15:08:51Z</time>
      </trkpt>
      <trkpt lat="48.73413" lon="1.75681">
        <ele>177</ele>
        <time>2010-05-13T15:08:54Z</time>
      </trkpt>
      <trkpt lat="48.73411" lon="1.75681">
        <ele>178</ele>
        <time>2010-05-13T15:08:55Z</time>
      </trkpt>
      <trkpt lat="48.7341" lon="1.75681">
        <ele>178</ele>
        <time>2010-05-13T15:08:56Z</time>
      </trkpt>
      <trkpt lat="48.73409" lon="1.7568">
        <ele>178</ele>
        <time>2010-05-13T15:08:57Z</time>
      </trkpt>
      <trkpt lat="48.73407" lon="1.7568">
        <ele>178</ele>
        <time>2010-05-13T15:08:59Z</time>
      </trkpt>
      <trkpt lat="48.73405" lon="1.7568">
        <ele>178</ele>
        <time>2010-05-13T15:08:59Z</time>
      </trkpt>
      <trkpt lat="48.73404" lon="1.75681">
        <ele>178</ele>
        <time>2010-05-13T15:09:00Z</time>
      </trkpt>
      <trkpt lat="48.73402" lon="1.75682">
        <ele>178</ele>
        <time>2010-05-13T15:09:01Z</time>
      </trkpt>
      <trkpt lat="48.734" lon="1.75684">
        <ele>178</ele>
        <time>2010-05-13T15:09:02Z</time>
      </trkpt>
      <trkpt lat="48.73399" lon="1.75685">
        <ele>178</ele>
        <time>2010-05-13T15:09:04Z</time>
      </trkpt>
      <trkpt lat="48.73397" lon="1.75685">
        <ele>178</ele>
        <time>2010-05-13T15:09:04Z</time>
      </trkpt>
      <trkpt lat="48.73396" lon="1.75685">
        <ele>178</ele>
        <time>2010-05-13T15:09:05Z</time>
      </trkpt>
      <trkpt lat="48.73394" lon="1.75686">
        <ele>178</ele>
        <time>2010-05-13T15:09:06Z</time>
      </trkpt>
      <trkpt lat="48.73393" lon="1.75687">
        <ele>178</ele>
        <time>2010-05-13T15:09:07Z</time>
      </trkpt>
      <trkpt lat="48.73392" lon="1.75687">
        <ele>177</ele>
        <time>2010-05-13T15:09:09Z</time>
      </trkpt>
      <trkpt lat="48.7339" lon="1.75688">
        <ele>177</ele>
        <time>2010-05-13T15:09:09Z</time>
      </trkpt>
      <trkpt lat="48.73388" lon="1.75689">
        <ele>176</ele>
        <time>2010-05-13T15:09:10Z</time>
      </trkpt>
      <trkpt lat="48.73386" lon="1.7569">
        <ele>176</ele>
        <time>2010-05-13T15:09:11Z</time>
      </trkpt>
      <trkpt lat="48.73385" lon="1.75692">
        <ele>176</ele>
        <time>2010-05-13T15:09:12Z</time>
      </trkpt>
      <trkpt lat="48.73383" lon="1.75693">
        <ele>176</ele>
        <time>2010-05-13T15:09:14Z</time>
      </trkpt>
      <trkpt lat="48.73382" lon="1.75694">
        <ele>176</ele>
        <time>2010-05-13T15:09:14Z</time>
      </trkpt>
      <trkpt lat="48.73381" lon="1.75696">
        <ele>176</ele>
        <time>2010-05-13T15:09:15Z</time>
      </trkpt>
      <trkpt lat="48.73379" lon="1.75697">
        <ele>176</ele>
        <time>2010-05-13T15:09:16Z</time>
      </trkpt>
      <trkpt lat="48.73378" lon="1.75698">
        <ele>176</ele>
        <time>2010-05-13T15:09:17Z</time>
      </trkpt>
      <trkpt lat="48.73377" lon="1.75699">
        <ele>176</ele>
        <time>2010-05-13T15:09:19Z</time>
      </trkpt>
      <trkpt lat="48.73375" lon="1.757">
        <ele>176</ele>
        <time>2010-05-13T15:09:19Z</time>
      </trkpt>
      <trkpt lat="48.73374" lon="1.75701">
        <ele>176</ele>
        <time>2010-05-13T15:09:20Z</time>
      </trkpt>
      <trkpt lat="48.73373" lon="1.75702">
        <ele>176</ele>
        <time>2010-05-13T15:09:21Z</time>
      </trkpt>
      <trkpt lat="48.73371" lon="1.75703">
        <ele>176</ele>
        <time>2010-05-13T15:09:22Z</time>
      </trkpt>
      <trkpt lat="48.7337" lon="1.75704">
        <ele>176</ele>
        <time>2010-05-13T15:09:24Z</time>
      </trkpt>
      <trkpt lat="48.73369" lon="1.75705">
        <ele>176</ele>
        <time>2010-05-13T15:09:24Z</time>
      </trkpt>
      <trkpt lat="48.73367" lon="1.75706">
        <ele>176</ele>
        <time>2010-05-13T15:09:25Z</time>
      </trkpt>
      <trkpt lat="48.73366" lon="1.75707">
        <ele>176</ele>
        <time>2010-05-13T15:09:26Z</time>
      </trkpt>
      <trkpt lat="48.73365" lon="1.75708">
        <ele>176</ele>
        <time>2010-05-13T15:09:27Z</time>
      </trkpt>
      <trkpt lat="48.73364" lon="1.75708">
        <ele>176</ele>
        <time>2010-05-13T15:09:29Z</time>
      </trkpt>
      <trkpt lat="48.73362" lon="1.75709">
        <ele>176</ele>
        <time>2010-05-13T15:09:29Z</time>
      </trkpt>
      <trkpt lat="48.73361" lon="1.7571">
        <ele>176</ele>
        <time>2010-05-13T15:09:30Z</time>
      </trkpt>
      <trkpt lat="48.7336" lon="1.75711">
        <ele>176</ele>
        <time>2010-05-13T15:09:31Z</time>
      </trkpt>
      <trkpt lat="48.73359" lon="1.75713">
        <ele>176</ele>
        <time>2010-05-13T15:09:32Z</time>
      </trkpt>
      <trkpt lat="48.73358" lon="1.75714">
        <ele>176</ele>
        <time>2010-05-13T15:09:34Z</time>
      </trkpt>
      <trkpt lat="48.73356" lon="1.75715">
        <ele>176</ele>
        <time>2010-05-13T15:09:34Z</time>
      </trkpt>
      <trkpt lat="48.73355" lon="1.75716">
        <ele>176</ele>
        <time>2010-05-13T15:09:35Z</time>
      </trkpt>
      <trkpt lat="48.73354" lon="1.75717">
        <ele>175</ele>
        <time>2010-05-13T15:09:36Z</time>
      </trkpt>
      <trkpt lat="48.73353" lon="1.75718">
        <ele>175</ele>
        <time>2010-05-13T15:09:37Z</time>
      </trkpt>
      <trkpt lat="48.73351" lon="1.7572">
        <ele>175</ele>
        <time>2010-05-13T15:09:39Z</time>
      </trkpt>
      <trkpt lat="48.7335" lon="1.75721">
        <ele>175</ele>
        <time>2010-05-13T15:09:39Z</time>
      </trkpt>
      <trkpt lat="48.73348" lon="1.75723">
        <ele>174</ele>
        <time>2010-05-13T15:09:41Z</time>
      </trkpt>
      <trkpt lat="48.73347" lon="1.75724">
        <ele>174</ele>
        <time>2010-05-13T15:09:42Z</time>
      </trkpt>
      <trkpt lat="48.73345" lon="1.75725">
        <ele>174</ele>
        <time>2010-05-13T15:09:44Z</time>
      </trkpt>
      <trkpt lat="48.73344" lon="1.75726">
        <ele>174</ele>
        <time>2010-05-13T15:09:44Z</time>
      </trkpt>
      <trkpt lat="48.73343" lon="1.75727">
        <ele>174</ele>
        <time>2010-05-13T15:09:45Z</time>
      </trkpt>
      <trkpt lat="48.73341" lon="1.75727">
        <ele>174</ele>
        <time>2010-05-13T15:09:46Z</time>
      </trkpt>
      <trkpt lat="48.7334" lon="1.75728">
        <ele>174</ele>
        <time>2010-05-13T15:09:47Z</time>
      </trkpt>
      <trkpt lat="48.73339" lon="1.75729">
        <ele>174</ele>
        <time>2010-05-13T15:09:49Z</time>
      </trkpt>
      <trkpt lat="48.73337" lon="1.7573">
        <ele>174</ele>
        <time>2010-05-13T15:09:49Z</time>
      </trkpt>
      <trkpt lat="48.73336" lon="1.75731">
        <ele>174</ele>
        <time>2010-05-13T15:09:50Z</time>
      </trkpt>
      <trkpt lat="48.73335" lon="1.75732">
        <ele>174</ele>
        <time>2010-05-13T15:09:51Z</time>
      </trkpt>
      <trkpt lat="48.73333" lon="1.75733">
        <ele>174</ele>
        <time>2010-05-13T15:09:52Z</time>
      </trkpt>
      <trkpt lat="48.73332" lon="1.75734">
        <ele>174</ele>
        <time>2010-05-13T15:09:54Z</time>
      </trkpt>
      <trkpt lat="48.73331" lon="1.75735">
        <ele>174</ele>
        <time>2010-05-13T15:09:54Z</time>
      </trkpt>
      <trkpt lat="48.7333" lon="1.75736">
        <ele>174</ele>
        <time>2010-05-13T15:09:55Z</time>
      </trkpt>
      <trkpt lat="48.73328" lon="1.75737">
        <ele>174</ele>
        <time>2010-05-13T15:09:56Z</time>
      </trkpt>
      <trkpt lat="48.73327" lon="1.75738">
        <ele>174</ele>
        <time>2010-05-13T15:09:57Z</time>
      </trkpt>
      <trkpt lat="48.73326" lon="1.75738">
        <ele>174</ele>
        <time>2010-05-13T15:09:59Z</time>
      </trkpt>
      <trkpt lat="48.73325" lon="1.75739">
        <ele>174</ele>
        <time>2010-05-13T15:09:59Z</time>
      </trkpt>
      <trkpt lat="48.73322" lon="1.75741">
        <ele>174</ele>
        <time>2010-05-13T15:10:01Z</time>
      </trkpt>
      <trkpt lat="48.7332" lon="1.75742">
        <ele>174</ele>
        <time>2010-05-13T15:10:04Z</time>
      </trkpt>
      <trkpt lat="48.73319" lon="1.75743">
        <ele>174</ele>
        <time>2010-05-13T15:10:04Z</time>
      </trkpt>
      <trkpt lat="48.73318" lon="1.75745">
        <ele>174</ele>
        <time>2010-05-13T15:10:05Z</time>
      </trkpt>
      <trkpt lat="48.73317" lon="1.75746">
        <ele>174</ele>
        <time>2010-05-13T15:10:06Z</time>
      </trkpt>
      <trkpt lat="48.73315" lon="1.75747">
        <ele>174</ele>
        <time>2010-05-13T15:10:07Z</time>
      </trkpt>
      <trkpt lat="48.73314" lon="1.75747">
        <ele>174</ele>
        <time>2010-05-13T15:10:09Z</time>
      </trkpt>
      <trkpt lat="48.73313" lon="1.75748">
        <ele>174</ele>
        <time>2010-05-13T15:10:09Z</time>
      </trkpt>
      <trkpt lat="48.73312" lon="1.75748">
        <ele>174</ele>
        <time>2010-05-13T15:10:10Z</time>
      </trkpt>
      <trkpt lat="48.7331" lon="1.75749">
        <ele>174</ele>
        <time>2010-05-13T15:10:11Z</time>
      </trkpt>
      <trkpt lat="48.73309" lon="1.7575">
        <ele>174</ele>
        <time>2010-05-13T15:10:12Z</time>
      </trkpt>
      <trkpt lat="48.73308" lon="1.75751">
        <ele>174</ele>
        <time>2010-05-13T15:10:14Z</time>
      </trkpt>
      <trkpt lat="48.73306" lon="1.75752">
        <ele>174</ele>
        <time>2010-05-13T15:10:14Z</time>
      </trkpt>
      <trkpt lat="48.73305" lon="1.75753">
        <ele>174</ele>
        <time>2010-05-13T15:10:15Z</time>
      </trkpt>
      <trkpt lat="48.73304" lon="1.75754">
        <ele>174</ele>
        <time>2010-05-13T15:10:16Z</time>
      </trkpt>
      <trkpt lat="48.73302" lon="1.75755">
        <ele>174</ele>
        <time>2010-05-13T15:10:17Z</time>
      </trkpt>
      <trkpt lat="48.73301" lon="1.75756">
        <ele>174</ele>
        <time>2010-05-13T15:10:19Z</time>
      </trkpt>
      <trkpt lat="48.733" lon="1.75757">
        <ele>174</ele>
        <time>2010-05-13T15:10:19Z</time>
      </trkpt>
      <trkpt lat="48.73299" lon="1.75757">
        <ele>174</ele>
        <time>2010-05-13T15:10:20Z</time>
      </trkpt>
      <trkpt lat="48.73297" lon="1.75758">
        <ele>174</ele>
        <time>2010-05-13T15:10:21Z</time>
      </trkpt>
      <trkpt lat="48.73296" lon="1.75759">
        <ele>174</ele>
        <time>2010-05-13T15:10:22Z</time>
      </trkpt>
      <trkpt lat="48.73295" lon="1.7576">
        <ele>174</ele>
        <time>2010-05-13T15:10:24Z</time>
      </trkpt>
      <trkpt lat="48.73294" lon="1.75761">
        <ele>174</ele>
        <time>2010-05-13T15:10:24Z</time>
      </trkpt>
      <trkpt lat="48.73292" lon="1.75762">
        <ele>174</ele>
        <time>2010-05-13T15:10:25Z</time>
      </trkpt>
      <trkpt lat="48.73291" lon="1.75763">
        <ele>174</ele>
        <time>2010-05-13T15:10:26Z</time>
      </trkpt>
      <trkpt lat="48.7329" lon="1.75764">
        <ele>174</ele>
        <time>2010-05-13T15:10:27Z</time>
      </trkpt>
      <trkpt lat="48.73289" lon="1.75765">
        <ele>174</ele>
        <time>2010-05-13T15:10:29Z</time>
      </trkpt>
      <trkpt lat="48.73287" lon="1.75766">
        <ele>174</ele>
        <time>2010-05-13T15:10:29Z</time>
      </trkpt>
      <trkpt lat="48.73286" lon="1.75767">
        <ele>174</ele>
        <time>2010-05-13T15:10:30Z</time>
      </trkpt>
      <trkpt lat="48.73285" lon="1.75768">
        <ele>174</ele>
        <time>2010-05-13T15:10:31Z</time>
      </trkpt>
      <trkpt lat="48.73284" lon="1.7577">
        <ele>174</ele>
        <time>2010-05-13T15:10:32Z</time>
      </trkpt>
      <trkpt lat="48.73283" lon="1.7577">
        <ele>174</ele>
        <time>2010-05-13T15:10:34Z</time>
      </trkpt>
      <trkpt lat="48.73281" lon="1.75771">
        <ele>174</ele>
        <time>2010-05-13T15:10:34Z</time>
      </trkpt>
      <trkpt lat="48.7328" lon="1.75772">
        <ele>174</ele>
        <time>2010-05-13T15:10:35Z</time>
      </trkpt>
      <trkpt lat="48.73278" lon="1.75773">
        <ele>174</ele>
        <time>2010-05-13T15:10:36Z</time>
      </trkpt>
      <trkpt lat="48.73277" lon="1.75774">
        <ele>174</ele>
        <time>2010-05-13T15:10:37Z</time>
      </trkpt>
      <trkpt lat="48.73276" lon="1.75775">
        <ele>174</ele>
        <time>2010-05-13T15:10:39Z</time>
      </trkpt>
      <trkpt lat="48.73275" lon="1.75777">
        <ele>174</ele>
        <time>2010-05-13T15:10:39Z</time>
      </trkpt>
      <trkpt lat="48.73274" lon="1.75778">
        <ele>174</ele>
        <time>2010-05-13T15:10:40Z</time>
      </trkpt>
      <trkpt lat="48.73272" lon="1.75781">
        <ele>174</ele>
        <time>2010-05-13T15:10:42Z</time>
      </trkpt>
      <trkpt lat="48.7327" lon="1.7578">
        <ele>174</ele>
        <time>2010-05-13T15:10:44Z</time>
      </trkpt>
      <trkpt lat="48.73269" lon="1.75781">
        <ele>174</ele>
        <time>2010-05-13T15:10:44Z</time>
      </trkpt>
      <trkpt lat="48.73267" lon="1.75782">
        <ele>174</ele>
        <time>2010-05-13T15:10:45Z</time>
      </trkpt>
      <trkpt lat="48.73265" lon="1.75784">
        <ele>174</ele>
        <time>2010-05-13T15:10:47Z</time>
      </trkpt>
      <trkpt lat="48.73263" lon="1.75786">
        <ele>174</ele>
        <time>2010-05-13T15:10:49Z</time>
      </trkpt>
      <trkpt lat="48.73261" lon="1.75785">
        <ele>174</ele>
        <time>2010-05-13T15:10:50Z</time>
      </trkpt>
      <trkpt lat="48.7326" lon="1.75786">
        <ele>174</ele>
        <time>2010-05-13T15:10:51Z</time>
      </trkpt>
      <trkpt lat="48.73258" lon="1.75786">
        <ele>174</ele>
        <time>2010-05-13T15:10:52Z</time>
      </trkpt>
      <trkpt lat="48.73257" lon="1.75787">
        <ele>174</ele>
        <time>2010-05-13T15:10:54Z</time>
      </trkpt>
      <trkpt lat="48.73256" lon="1.75788">
        <ele>174</ele>
        <time>2010-05-13T15:10:54Z</time>
      </trkpt>
      <trkpt lat="48.73254" lon="1.75789">
        <ele>174</ele>
        <time>2010-05-13T15:10:55Z</time>
      </trkpt>
      <trkpt lat="48.73253" lon="1.7579">
        <ele>174</ele>
        <time>2010-05-13T15:10:56Z</time>
      </trkpt>
      <trkpt lat="48.73252" lon="1.75791">
        <ele>174</ele>
        <time>2010-05-13T15:10:57Z</time>
      </trkpt>
      <trkpt lat="48.7325" lon="1.75792">
        <ele>174</ele>
        <time>2010-05-13T15:10:59Z</time>
      </trkpt>
      <trkpt lat="48.73249" lon="1.75793">
        <ele>174</ele>
        <time>2010-05-13T15:10:59Z</time>
      </trkpt>
      <trkpt lat="48.73248" lon="1.75794">
        <ele>174</ele>
        <time>2010-05-13T15:11:00Z</time>
      </trkpt>
      <trkpt lat="48.73246" lon="1.75795">
        <ele>174</ele>
        <time>2010-05-13T15:11:01Z</time>
      </trkpt>
      <trkpt lat="48.73245" lon="1.75795">
        <ele>174</ele>
        <time>2010-05-13T15:11:02Z</time>
      </trkpt>
      <trkpt lat="48.73244" lon="1.75796">
        <ele>174</ele>
        <time>2010-05-13T15:11:04Z</time>
      </trkpt>
      <trkpt lat="48.73243" lon="1.75796">
        <ele>174</ele>
        <time>2010-05-13T15:11:04Z</time>
      </trkpt>
      <trkpt lat="48.73242" lon="1.75797">
        <ele>174</ele>
        <time>2010-05-13T15:11:05Z</time>
      </trkpt>
      <trkpt lat="48.73241" lon="1.75798">
        <ele>174</ele>
        <time>2010-05-13T15:11:06Z</time>
      </trkpt>
      <trkpt lat="48.73239" lon="1.75799">
        <ele>174</ele>
        <time>2010-05-13T15:11:07Z</time>
      </trkpt>
      <trkpt lat="48.73238" lon="1.75799">
        <ele>174</ele>
        <time>2010-05-13T15:11:09Z</time>
      </trkpt>
      <trkpt lat="48.73236" lon="1.75801">
        <ele>174</ele>
        <time>2010-05-13T15:11:10Z</time>
      </trkpt>
      <trkpt lat="48.73235" lon="1.75802">
        <ele>174</ele>
        <time>2010-05-13T15:11:11Z</time>
      </trkpt>
      <trkpt lat="48.73232" lon="1.75803">
        <ele>174</ele>
        <time>2010-05-13T15:11:14Z</time>
      </trkpt>
      <trkpt lat="48.7323" lon="1.75804">
        <ele>174</ele>
        <time>2010-05-13T15:11:15Z</time>
      </trkpt>
      <trkpt lat="48.73229" lon="1.75805">
        <ele>174</ele>
        <time>2010-05-13T15:11:16Z</time>
      </trkpt>
      <trkpt lat="48.73227" lon="1.75806">
        <ele>174</ele>
        <time>2010-05-13T15:11:19Z</time>
      </trkpt>
      <trkpt lat="48.73225" lon="1.75807">
        <ele>174</ele>
        <time>2010-05-13T15:11:19Z</time>
      </trkpt>
      <trkpt lat="48.73224" lon="1.75807">
        <ele>174</ele>
        <time>2010-05-13T15:11:20Z</time>
      </trkpt>
      <trkpt lat="48.73223" lon="1.75808">
        <ele>174</ele>
        <time>2010-05-13T15:11:21Z</time>
      </trkpt>
      <trkpt lat="48.73221" lon="1.75811">
        <ele>174</ele>
        <time>2010-05-13T15:11:24Z</time>
      </trkpt>
      <trkpt lat="48.73219" lon="1.75814">
        <ele>174</ele>
        <time>2010-05-13T15:11:24Z</time>
      </trkpt>
      <trkpt lat="48.73218" lon="1.75816">
        <ele>174</ele>
        <time>2010-05-13T15:11:25Z</time>
      </trkpt>
      <trkpt lat="48.73216" lon="1.75818">
        <ele>174</ele>
        <time>2010-05-13T15:11:27Z</time>
      </trkpt>
      <trkpt lat="48.73214" lon="1.7582">
        <ele>174</ele>
        <time>2010-05-13T15:11:29Z</time>
      </trkpt>
      <trkpt lat="48.73213" lon="1.75821">
        <ele>174</ele>
        <time>2010-05-13T15:11:30Z</time>
      </trkpt>
      <trkpt lat="48.73211" lon="1.75822">
        <ele>174</ele>
        <time>2010-05-13T15:11:31Z</time>
      </trkpt>
      <trkpt lat="48.7321" lon="1.75824">
        <ele>174</ele>
        <time>2010-05-13T15:11:32Z</time>
      </trkpt>
      <trkpt lat="48.73208" lon="1.75825">
        <ele>174</ele>
        <time>2010-05-13T15:11:34Z</time>
      </trkpt>
      <trkpt lat="48.73206" lon="1.75827">
        <ele>174</ele>
        <time>2010-05-13T15:11:35Z</time>
      </trkpt>
      <trkpt lat="48.73205" lon="1.75828">
        <ele>174</ele>
        <time>2010-05-13T15:11:36Z</time>
      </trkpt>
      <trkpt lat="48.73204" lon="1.75828">
        <ele>174</ele>
        <time>2010-05-13T15:11:37Z</time>
      </trkpt>
      <trkpt lat="48.73203" lon="1.7583">
        <ele>174</ele>
        <time>2010-05-13T15:11:39Z</time>
      </trkpt>
      <trkpt lat="48.732" lon="1.75832">
        <ele>174</ele>
        <time>2010-05-13T15:11:40Z</time>
      </trkpt>
      <trkpt lat="48.73199" lon="1.75833">
        <ele>174</ele>
        <time>2010-05-13T15:11:41Z</time>
      </trkpt>
      <trkpt lat="48.73198" lon="1.75835">
        <ele>174</ele>
        <time>2010-05-13T15:11:42Z</time>
      </trkpt>
      <trkpt lat="48.73197" lon="1.75837">
        <ele>174</ele>
        <time>2010-05-13T15:11:44Z</time>
      </trkpt>
      <trkpt lat="48.73195" lon="1.75839">
        <ele>174</ele>
        <time>2010-05-13T15:11:44Z</time>
      </trkpt>
      <trkpt lat="48.73194" lon="1.7584">
        <ele>174</ele>
        <time>2010-05-13T15:11:45Z</time>
      </trkpt>
      <trkpt lat="48.73191" lon="1.75843">
        <ele>175</ele>
        <time>2010-05-13T15:11:46Z</time>
      </trkpt>
      <trkpt lat="48.7319" lon="1.75845">
        <ele>175</ele>
        <time>2010-05-13T15:11:47Z</time>
      </trkpt>
      <trkpt lat="48.73189" lon="1.75846">
        <ele>175</ele>
        <time>2010-05-13T15:11:49Z</time>
      </trkpt>
      <trkpt lat="48.73187" lon="1.75847">
        <ele>176</ele>
        <time>2010-05-13T15:11:49Z</time>
      </trkpt>
      <trkpt lat="48.73185" lon="1.75849">
        <ele>176</ele>
        <time>2010-05-13T15:11:51Z</time>
      </trkpt>
      <trkpt lat="48.73184" lon="1.7585">
        <ele>176</ele>
        <time>2010-05-13T15:11:52Z</time>
      </trkpt>
      <trkpt lat="48.73183" lon="1.7585">
        <ele>176</ele>
        <time>2010-05-13T15:11:54Z</time>
      </trkpt>
    </trkseg>
  </trk>
</gpx>